<?xml version="1.0" encoding="UTF-8" standalone="no" ?>
<gpx xmlns="http://www.topografix.com/GPX/1/1" xmlns:xsi="http://www.w3.org/2001/XMLSchema-instance" xsi:schemaLocation="http://www.topografix.com/GPX/1/1 http://www.topografix.com/GPX/1/1/gpx.xsd" version="1.1" creator="VisuGPX - https://www.visugpx.com">
  <metadata>
    <name>ski Aiguille du Terrassin 2836m</name>
  </metadata>
  <trk>
    <name><![CDATA[ski Aiguille du Terrassin 2836m]]></name>
    <trkseg>
      <trkpt lat="45.63307" lon="6.76353">
        <ele>1351.8000488281</ele>
        <time>2020-01-08T07:38:26.000Z</time>
      </trkpt>
      <trkpt lat="45.63307" lon="6.76353">
        <ele>1352.5999755859</ele>
        <time>2020-01-08T07:38:35.000Z</time>
      </trkpt>
      <trkpt lat="45.63307" lon="6.76353">
        <ele>1352.8000488281</ele>
        <time>2020-01-08T07:38:50.000Z</time>
      </trkpt>
      <trkpt lat="45.63307" lon="6.76354">
        <ele>1352.1999511719</ele>
        <time>2020-01-08T07:39:02.000Z</time>
      </trkpt>
      <trkpt lat="45.63307" lon="6.76354">
        <ele>1351.8000488281</ele>
        <time>2020-01-08T07:39:19.000Z</time>
      </trkpt>
      <trkpt lat="45.63307" lon="6.76354">
        <ele>1351.8000488281</ele>
        <time>2020-01-08T07:39:36.000Z</time>
      </trkpt>
      <trkpt lat="45.63307" lon="6.76354">
        <ele>1351.5999755859</ele>
        <time>2020-01-08T07:39:56.000Z</time>
      </trkpt>
      <trkpt lat="45.63307" lon="6.76354">
        <ele>1351.8000488281</ele>
        <time>2020-01-08T07:40:07.000Z</time>
      </trkpt>
      <trkpt lat="45.63312" lon="6.76352">
        <ele>1352</ele>
        <time>2020-01-08T07:40:14.000Z</time>
      </trkpt>
      <trkpt lat="45.63313" lon="6.76353">
        <ele>1352.4000244141</ele>
        <time>2020-01-08T07:40:19.000Z</time>
      </trkpt>
      <trkpt lat="45.63313" lon="6.76353">
        <ele>1352.8000488281</ele>
        <time>2020-01-08T07:40:24.000Z</time>
      </trkpt>
      <trkpt lat="45.63314" lon="6.76352">
        <ele>1353</ele>
        <time>2020-01-08T07:40:25.000Z</time>
      </trkpt>
      <trkpt lat="45.63315" lon="6.76351">
        <ele>1353.1999511719</ele>
        <time>2020-01-08T07:40:26.000Z</time>
      </trkpt>
      <trkpt lat="45.63315" lon="6.76348">
        <ele>1353.5999755859</ele>
        <time>2020-01-08T07:40:32.000Z</time>
      </trkpt>
      <trkpt lat="45.63315" lon="6.76348">
        <ele>1352.4000244141</ele>
        <time>2020-01-08T07:40:39.000Z</time>
      </trkpt>
      <trkpt lat="45.63315" lon="6.76348">
        <ele>1353</ele>
        <time>2020-01-08T07:40:53.000Z</time>
      </trkpt>
      <trkpt lat="45.63315" lon="6.76348">
        <ele>1351.8000488281</ele>
        <time>2020-01-08T07:40:58.000Z</time>
      </trkpt>
      <trkpt lat="45.63313" lon="6.76346">
        <ele>1352.4000244141</ele>
        <time>2020-01-08T07:41:08.000Z</time>
      </trkpt>
      <trkpt lat="45.63312" lon="6.76347">
        <ele>1352.1999511719</ele>
        <time>2020-01-08T07:41:19.000Z</time>
      </trkpt>
      <trkpt lat="45.63312" lon="6.76347">
        <ele>1352.8000488281</ele>
        <time>2020-01-08T07:41:27.000Z</time>
      </trkpt>
      <trkpt lat="45.63312" lon="6.76347">
        <ele>1353.4000244141</ele>
        <time>2020-01-08T07:41:33.000Z</time>
      </trkpt>
      <trkpt lat="45.63314" lon="6.76347">
        <ele>1353.5999755859</ele>
        <time>2020-01-08T07:41:39.000Z</time>
      </trkpt>
      <trkpt lat="45.63317" lon="6.76345">
        <ele>1353.1999511719</ele>
        <time>2020-01-08T07:41:42.000Z</time>
      </trkpt>
      <trkpt lat="45.63319" lon="6.76342">
        <ele>1353</ele>
        <time>2020-01-08T07:41:45.000Z</time>
      </trkpt>
      <trkpt lat="45.63322" lon="6.76337">
        <ele>1353</ele>
        <time>2020-01-08T07:41:49.000Z</time>
      </trkpt>
      <trkpt lat="45.63328" lon="6.7633">
        <ele>1353.4000244141</ele>
        <time>2020-01-08T07:41:54.000Z</time>
      </trkpt>
      <trkpt lat="45.63332" lon="6.76323">
        <ele>1353.5999755859</ele>
        <time>2020-01-08T07:41:59.000Z</time>
      </trkpt>
      <trkpt lat="45.63335" lon="6.76317">
        <ele>1353.8000488281</ele>
        <time>2020-01-08T07:42:04.000Z</time>
      </trkpt>
      <trkpt lat="45.63337" lon="6.76315">
        <ele>1354</ele>
        <time>2020-01-08T07:42:06.000Z</time>
      </trkpt>
      <trkpt lat="45.63341" lon="6.7631">
        <ele>1354</ele>
        <time>2020-01-08T07:42:10.000Z</time>
      </trkpt>
      <trkpt lat="45.63346" lon="6.76305">
        <ele>1354</ele>
        <time>2020-01-08T07:42:15.000Z</time>
      </trkpt>
      <trkpt lat="45.6335" lon="6.76299">
        <ele>1354</ele>
        <time>2020-01-08T07:42:20.000Z</time>
      </trkpt>
      <trkpt lat="45.63354" lon="6.76293">
        <ele>1354</ele>
        <time>2020-01-08T07:42:25.000Z</time>
      </trkpt>
      <trkpt lat="45.63357" lon="6.76289">
        <ele>1354</ele>
        <time>2020-01-08T07:42:28.000Z</time>
      </trkpt>
      <trkpt lat="45.63358" lon="6.76286">
        <ele>1354</ele>
        <time>2020-01-08T07:42:30.000Z</time>
      </trkpt>
      <trkpt lat="45.63362" lon="6.76281">
        <ele>1354.1999511719</ele>
        <time>2020-01-08T07:42:34.000Z</time>
      </trkpt>
      <trkpt lat="45.63366" lon="6.76275">
        <ele>1354</ele>
        <time>2020-01-08T07:42:38.000Z</time>
      </trkpt>
      <trkpt lat="45.6337" lon="6.76265">
        <ele>1353.5999755859</ele>
        <time>2020-01-08T07:42:43.000Z</time>
      </trkpt>
      <trkpt lat="45.63371" lon="6.76262">
        <ele>1353.5999755859</ele>
        <time>2020-01-08T07:42:45.000Z</time>
      </trkpt>
      <trkpt lat="45.63373" lon="6.76257">
        <ele>1353.5999755859</ele>
        <time>2020-01-08T07:42:47.000Z</time>
      </trkpt>
      <trkpt lat="45.63375" lon="6.76247">
        <ele>1353.1999511719</ele>
        <time>2020-01-08T07:42:52.000Z</time>
      </trkpt>
      <trkpt lat="45.63375" lon="6.76246">
        <ele>1353.1999511719</ele>
        <time>2020-01-08T07:42:53.000Z</time>
      </trkpt>
      <trkpt lat="45.63378" lon="6.7624">
        <ele>1353.1999511719</ele>
        <time>2020-01-08T07:42:56.000Z</time>
      </trkpt>
      <trkpt lat="45.63378" lon="6.76235">
        <ele>1353.1999511719</ele>
        <time>2020-01-08T07:42:58.000Z</time>
      </trkpt>
      <trkpt lat="45.6338" lon="6.76232">
        <ele>1353.1999511719</ele>
        <time>2020-01-08T07:43:00.000Z</time>
      </trkpt>
      <trkpt lat="45.63383" lon="6.76224">
        <ele>1353.4000244141</ele>
        <time>2020-01-08T07:43:05.000Z</time>
      </trkpt>
      <trkpt lat="45.63387" lon="6.76215">
        <ele>1353.8000488281</ele>
        <time>2020-01-08T07:43:10.000Z</time>
      </trkpt>
      <trkpt lat="45.6339" lon="6.76211">
        <ele>1353.8000488281</ele>
        <time>2020-01-08T07:43:13.000Z</time>
      </trkpt>
      <trkpt lat="45.63392" lon="6.7621">
        <ele>1353.8000488281</ele>
        <time>2020-01-08T07:43:14.000Z</time>
      </trkpt>
      <trkpt lat="45.63398" lon="6.76207">
        <ele>1354</ele>
        <time>2020-01-08T07:43:20.000Z</time>
      </trkpt>
      <trkpt lat="45.63406" lon="6.76202">
        <ele>1354.1999511719</ele>
        <time>2020-01-08T07:43:26.000Z</time>
      </trkpt>
      <trkpt lat="45.63411" lon="6.76194">
        <ele>1354.4000244141</ele>
        <time>2020-01-08T07:43:32.000Z</time>
      </trkpt>
      <trkpt lat="45.63415" lon="6.76188">
        <ele>1354.4000244141</ele>
        <time>2020-01-08T07:43:37.000Z</time>
      </trkpt>
      <trkpt lat="45.63419" lon="6.76184">
        <ele>1354.4000244141</ele>
        <time>2020-01-08T07:43:41.000Z</time>
      </trkpt>
      <trkpt lat="45.63423" lon="6.76177">
        <ele>1354.5999755859</ele>
        <time>2020-01-08T07:43:46.000Z</time>
      </trkpt>
      <trkpt lat="45.63426" lon="6.76171">
        <ele>1354.5999755859</ele>
        <time>2020-01-08T07:43:51.000Z</time>
      </trkpt>
      <trkpt lat="45.6343" lon="6.76166">
        <ele>1355</ele>
        <time>2020-01-08T07:43:55.000Z</time>
      </trkpt>
      <trkpt lat="45.63431" lon="6.76165">
        <ele>1355</ele>
        <time>2020-01-08T07:43:56.000Z</time>
      </trkpt>
      <trkpt lat="45.63434" lon="6.76159">
        <ele>1355.4000244141</ele>
        <time>2020-01-08T07:44:02.000Z</time>
      </trkpt>
      <trkpt lat="45.63437" lon="6.76154">
        <ele>1355.8000488281</ele>
        <time>2020-01-08T07:44:07.000Z</time>
      </trkpt>
      <trkpt lat="45.63439" lon="6.76148">
        <ele>1356</ele>
        <time>2020-01-08T07:44:12.000Z</time>
      </trkpt>
      <trkpt lat="45.63445" lon="6.7614">
        <ele>1356.4000244141</ele>
        <time>2020-01-08T07:44:18.000Z</time>
      </trkpt>
      <trkpt lat="45.6345" lon="6.76134">
        <ele>1356.5999755859</ele>
        <time>2020-01-08T07:44:23.000Z</time>
      </trkpt>
      <trkpt lat="45.63454" lon="6.76129">
        <ele>1356.8000488281</ele>
        <time>2020-01-08T07:44:27.000Z</time>
      </trkpt>
      <trkpt lat="45.63455" lon="6.76128">
        <ele>1357</ele>
        <time>2020-01-08T07:44:28.000Z</time>
      </trkpt>
      <trkpt lat="45.63456" lon="6.76121">
        <ele>1357.4000244141</ele>
        <time>2020-01-08T07:44:32.000Z</time>
      </trkpt>
      <trkpt lat="45.63458" lon="6.76119">
        <ele>1357.4000244141</ele>
        <time>2020-01-08T07:44:34.000Z</time>
      </trkpt>
      <trkpt lat="45.6346" lon="6.76111">
        <ele>1357.5999755859</ele>
        <time>2020-01-08T07:44:38.000Z</time>
      </trkpt>
      <trkpt lat="45.63464" lon="6.76107">
        <ele>1358</ele>
        <time>2020-01-08T07:44:42.000Z</time>
      </trkpt>
      <trkpt lat="45.63465" lon="6.76105">
        <ele>1358.1999511719</ele>
        <time>2020-01-08T07:44:44.000Z</time>
      </trkpt>
      <trkpt lat="45.63468" lon="6.76097">
        <ele>1358.4000244141</ele>
        <time>2020-01-08T07:44:49.000Z</time>
      </trkpt>
      <trkpt lat="45.6347" lon="6.76091">
        <ele>1358.8000488281</ele>
        <time>2020-01-08T07:44:54.000Z</time>
      </trkpt>
      <trkpt lat="45.63472" lon="6.76088">
        <ele>1359</ele>
        <time>2020-01-08T07:44:56.000Z</time>
      </trkpt>
      <trkpt lat="45.63473" lon="6.76083">
        <ele>1359.1999511719</ele>
        <time>2020-01-08T07:44:59.000Z</time>
      </trkpt>
      <trkpt lat="45.63477" lon="6.76077">
        <ele>1359.5999755859</ele>
        <time>2020-01-08T07:45:04.000Z</time>
      </trkpt>
      <trkpt lat="45.63482" lon="6.76069">
        <ele>1360</ele>
        <time>2020-01-08T07:45:11.000Z</time>
      </trkpt>
      <trkpt lat="45.63483" lon="6.76066">
        <ele>1360.1999511719</ele>
        <time>2020-01-08T07:45:13.000Z</time>
      </trkpt>
      <trkpt lat="45.63485" lon="6.76059">
        <ele>1360.5999755859</ele>
        <time>2020-01-08T07:45:18.000Z</time>
      </trkpt>
      <trkpt lat="45.63486" lon="6.76057">
        <ele>1360.5999755859</ele>
        <time>2020-01-08T07:45:19.000Z</time>
      </trkpt>
      <trkpt lat="45.6349" lon="6.76052">
        <ele>1361</ele>
        <time>2020-01-08T07:45:23.000Z</time>
      </trkpt>
      <trkpt lat="45.63495" lon="6.76047">
        <ele>1361.4000244141</ele>
        <time>2020-01-08T07:45:28.000Z</time>
      </trkpt>
      <trkpt lat="45.63498" lon="6.76041">
        <ele>1361.5999755859</ele>
        <time>2020-01-08T07:45:33.000Z</time>
      </trkpt>
      <trkpt lat="45.63502" lon="6.76035">
        <ele>1361.8000488281</ele>
        <time>2020-01-08T07:45:38.000Z</time>
      </trkpt>
      <trkpt lat="45.63506" lon="6.76029">
        <ele>1362.1999511719</ele>
        <time>2020-01-08T07:45:43.000Z</time>
      </trkpt>
      <trkpt lat="45.63507" lon="6.76024">
        <ele>1362.4000244141</ele>
        <time>2020-01-08T07:45:46.000Z</time>
      </trkpt>
      <trkpt lat="45.63507" lon="6.76019">
        <ele>1362.5999755859</ele>
        <time>2020-01-08T07:45:49.000Z</time>
      </trkpt>
      <trkpt lat="45.63504" lon="6.76008">
        <ele>1363</ele>
        <time>2020-01-08T07:45:55.000Z</time>
      </trkpt>
      <trkpt lat="45.63499" lon="6.75999">
        <ele>1363</ele>
        <time>2020-01-08T07:46:01.000Z</time>
      </trkpt>
      <trkpt lat="45.63496" lon="6.75996">
        <ele>1363.1999511719</ele>
        <time>2020-01-08T07:46:03.000Z</time>
      </trkpt>
      <trkpt lat="45.63495" lon="6.75995">
        <ele>1363.4000244141</ele>
        <time>2020-01-08T07:46:04.000Z</time>
      </trkpt>
      <trkpt lat="45.63493" lon="6.75994">
        <ele>1363.5999755859</ele>
        <time>2020-01-08T07:46:06.000Z</time>
      </trkpt>
      <trkpt lat="45.63487" lon="6.75989">
        <ele>1364</ele>
        <time>2020-01-08T07:46:12.000Z</time>
      </trkpt>
      <trkpt lat="45.63484" lon="6.75986">
        <ele>1364.4000244141</ele>
        <time>2020-01-08T07:46:15.000Z</time>
      </trkpt>
      <trkpt lat="45.63483" lon="6.75985">
        <ele>1364.5999755859</ele>
        <time>2020-01-08T07:46:16.000Z</time>
      </trkpt>
      <trkpt lat="45.63482" lon="6.75984">
        <ele>1364.8000488281</ele>
        <time>2020-01-08T07:46:17.000Z</time>
      </trkpt>
      <trkpt lat="45.63475" lon="6.75978">
        <ele>1365.1999511719</ele>
        <time>2020-01-08T07:46:23.000Z</time>
      </trkpt>
      <trkpt lat="45.63472" lon="6.75978">
        <ele>1365.5999755859</ele>
        <time>2020-01-08T07:46:28.000Z</time>
      </trkpt>
      <trkpt lat="45.63469" lon="6.75977">
        <ele>1366</ele>
        <time>2020-01-08T07:46:30.000Z</time>
      </trkpt>
      <trkpt lat="45.63462" lon="6.75975">
        <ele>1366.4000244141</ele>
        <time>2020-01-08T07:46:35.000Z</time>
      </trkpt>
      <trkpt lat="45.63459" lon="6.75975">
        <ele>1366.8000488281</ele>
        <time>2020-01-08T07:46:38.000Z</time>
      </trkpt>
      <trkpt lat="45.63456" lon="6.75975">
        <ele>1367</ele>
        <time>2020-01-08T07:46:40.000Z</time>
      </trkpt>
      <trkpt lat="45.63448" lon="6.75975">
        <ele>1367.5999755859</ele>
        <time>2020-01-08T07:46:46.000Z</time>
      </trkpt>
      <trkpt lat="45.63447" lon="6.75976">
        <ele>1367.8000488281</ele>
        <time>2020-01-08T07:46:48.000Z</time>
      </trkpt>
      <trkpt lat="45.63443" lon="6.75978">
        <ele>1368</ele>
        <time>2020-01-08T07:46:52.000Z</time>
      </trkpt>
      <trkpt lat="45.63441" lon="6.75979">
        <ele>1368.1999511719</ele>
        <time>2020-01-08T07:46:54.000Z</time>
      </trkpt>
      <trkpt lat="45.63436" lon="6.75979">
        <ele>1368.4000244141</ele>
        <time>2020-01-08T07:46:58.000Z</time>
      </trkpt>
      <trkpt lat="45.63433" lon="6.75976">
        <ele>1368.8000488281</ele>
        <time>2020-01-08T07:47:02.000Z</time>
      </trkpt>
      <trkpt lat="45.63432" lon="6.75973">
        <ele>1369.1999511719</ele>
        <time>2020-01-08T07:47:04.000Z</time>
      </trkpt>
      <trkpt lat="45.63435" lon="6.75969">
        <ele>1369.8000488281</ele>
        <time>2020-01-08T07:47:08.000Z</time>
      </trkpt>
      <trkpt lat="45.63436" lon="6.75969">
        <ele>1369.8000488281</ele>
        <time>2020-01-08T07:47:09.000Z</time>
      </trkpt>
      <trkpt lat="45.63437" lon="6.75968">
        <ele>1370</ele>
        <time>2020-01-08T07:47:10.000Z</time>
      </trkpt>
      <trkpt lat="45.63442" lon="6.75969">
        <ele>1370.8000488281</ele>
        <time>2020-01-08T07:47:15.000Z</time>
      </trkpt>
      <trkpt lat="45.63444" lon="6.75968">
        <ele>1371</ele>
        <time>2020-01-08T07:47:17.000Z</time>
      </trkpt>
      <trkpt lat="45.63447" lon="6.75968">
        <ele>1371.5999755859</ele>
        <time>2020-01-08T07:47:20.000Z</time>
      </trkpt>
      <trkpt lat="45.63451" lon="6.75968">
        <ele>1372</ele>
        <time>2020-01-08T07:47:23.000Z</time>
      </trkpt>
      <trkpt lat="45.63454" lon="6.75968">
        <ele>1372.1999511719</ele>
        <time>2020-01-08T07:47:26.000Z</time>
      </trkpt>
      <trkpt lat="45.63459" lon="6.75967">
        <ele>1372.5999755859</ele>
        <time>2020-01-08T07:47:31.000Z</time>
      </trkpt>
      <trkpt lat="45.63464" lon="6.75966">
        <ele>1373</ele>
        <time>2020-01-08T07:47:35.000Z</time>
      </trkpt>
      <trkpt lat="45.63465" lon="6.75966">
        <ele>1373</ele>
        <time>2020-01-08T07:47:36.000Z</time>
      </trkpt>
      <trkpt lat="45.63471" lon="6.75964">
        <ele>1373.5999755859</ele>
        <time>2020-01-08T07:47:42.000Z</time>
      </trkpt>
      <trkpt lat="45.63475" lon="6.75964">
        <ele>1374</ele>
        <time>2020-01-08T07:47:46.000Z</time>
      </trkpt>
      <trkpt lat="45.63476" lon="6.75964">
        <ele>1374.5999755859</ele>
        <time>2020-01-08T07:47:48.000Z</time>
      </trkpt>
      <trkpt lat="45.63479" lon="6.75964">
        <ele>1375.1999511719</ele>
        <time>2020-01-08T07:47:52.000Z</time>
      </trkpt>
      <trkpt lat="45.6348" lon="6.75964">
        <ele>1375.4000244141</ele>
        <time>2020-01-08T07:47:53.000Z</time>
      </trkpt>
      <trkpt lat="45.63482" lon="6.75964">
        <ele>1375.5999755859</ele>
        <time>2020-01-08T07:47:54.000Z</time>
      </trkpt>
      <trkpt lat="45.63487" lon="6.75965">
        <ele>1375.8000488281</ele>
        <time>2020-01-08T07:47:59.000Z</time>
      </trkpt>
      <trkpt lat="45.63489" lon="6.75966">
        <ele>1376.4000244141</ele>
        <time>2020-01-08T07:48:02.000Z</time>
      </trkpt>
      <trkpt lat="45.63492" lon="6.75966">
        <ele>1376.8000488281</ele>
        <time>2020-01-08T07:48:06.000Z</time>
      </trkpt>
      <trkpt lat="45.63496" lon="6.75967">
        <ele>1377.4000244141</ele>
        <time>2020-01-08T07:48:11.000Z</time>
      </trkpt>
      <trkpt lat="45.63496" lon="6.75967">
        <ele>1377.5999755859</ele>
        <time>2020-01-08T07:48:12.000Z</time>
      </trkpt>
      <trkpt lat="45.63501" lon="6.75967">
        <ele>1378.4000244141</ele>
        <time>2020-01-08T07:48:18.000Z</time>
      </trkpt>
      <trkpt lat="45.63503" lon="6.75967">
        <ele>1378.5999755859</ele>
        <time>2020-01-08T07:48:20.000Z</time>
      </trkpt>
      <trkpt lat="45.63507" lon="6.7597">
        <ele>1379.5999755859</ele>
        <time>2020-01-08T07:48:25.000Z</time>
      </trkpt>
      <trkpt lat="45.63508" lon="6.75971">
        <ele>1379.8000488281</ele>
        <time>2020-01-08T07:48:26.000Z</time>
      </trkpt>
      <trkpt lat="45.63515" lon="6.75973">
        <ele>1380.4000244141</ele>
        <time>2020-01-08T07:48:33.000Z</time>
      </trkpt>
      <trkpt lat="45.63518" lon="6.75974">
        <ele>1380.8000488281</ele>
        <time>2020-01-08T07:48:35.000Z</time>
      </trkpt>
      <trkpt lat="45.63522" lon="6.75973">
        <ele>1381.5999755859</ele>
        <time>2020-01-08T07:48:39.000Z</time>
      </trkpt>
      <trkpt lat="45.63525" lon="6.75973">
        <ele>1381.8000488281</ele>
        <time>2020-01-08T07:48:42.000Z</time>
      </trkpt>
      <trkpt lat="45.63529" lon="6.75972">
        <ele>1382.1999511719</ele>
        <time>2020-01-08T07:48:45.000Z</time>
      </trkpt>
      <trkpt lat="45.63535" lon="6.75969">
        <ele>1383</ele>
        <time>2020-01-08T07:48:50.000Z</time>
      </trkpt>
      <trkpt lat="45.63541" lon="6.75966">
        <ele>1383.4000244141</ele>
        <time>2020-01-08T07:48:54.000Z</time>
      </trkpt>
      <trkpt lat="45.63542" lon="6.75965">
        <ele>1383.5999755859</ele>
        <time>2020-01-08T07:48:55.000Z</time>
      </trkpt>
      <trkpt lat="45.63548" lon="6.7596">
        <ele>1383.8000488281</ele>
        <time>2020-01-08T07:49:01.000Z</time>
      </trkpt>
      <trkpt lat="45.63551" lon="6.75957">
        <ele>1384</ele>
        <time>2020-01-08T07:49:04.000Z</time>
      </trkpt>
      <trkpt lat="45.63554" lon="6.75956">
        <ele>1384.1999511719</ele>
        <time>2020-01-08T07:49:06.000Z</time>
      </trkpt>
      <trkpt lat="45.63558" lon="6.75952">
        <ele>1384.1999511719</ele>
        <time>2020-01-08T07:49:10.000Z</time>
      </trkpt>
      <trkpt lat="45.63558" lon="6.75952">
        <ele>1384.4000244141</ele>
        <time>2020-01-08T07:49:11.000Z</time>
      </trkpt>
      <trkpt lat="45.63561" lon="6.75949">
        <ele>1384.5999755859</ele>
        <time>2020-01-08T07:49:13.000Z</time>
      </trkpt>
      <trkpt lat="45.63563" lon="6.75946">
        <ele>1384.8000488281</ele>
        <time>2020-01-08T07:49:16.000Z</time>
      </trkpt>
      <trkpt lat="45.63563" lon="6.75943">
        <ele>1385</ele>
        <time>2020-01-08T07:49:18.000Z</time>
      </trkpt>
      <trkpt lat="45.6356" lon="6.75938">
        <ele>1385.4000244141</ele>
        <time>2020-01-08T07:49:22.000Z</time>
      </trkpt>
      <trkpt lat="45.63556" lon="6.75937">
        <ele>1385.8000488281</ele>
        <time>2020-01-08T07:49:24.000Z</time>
      </trkpt>
      <trkpt lat="45.63554" lon="6.75937">
        <ele>1386.1999511719</ele>
        <time>2020-01-08T07:49:26.000Z</time>
      </trkpt>
      <trkpt lat="45.6355" lon="6.7594">
        <ele>1387.4000244141</ele>
        <time>2020-01-08T07:49:30.000Z</time>
      </trkpt>
      <trkpt lat="45.63545" lon="6.75942">
        <ele>1388</ele>
        <time>2020-01-08T07:49:35.000Z</time>
      </trkpt>
      <trkpt lat="45.63542" lon="6.75944">
        <ele>1388.4000244141</ele>
        <time>2020-01-08T07:49:38.000Z</time>
      </trkpt>
      <trkpt lat="45.6354" lon="6.75946">
        <ele>1388.5999755859</ele>
        <time>2020-01-08T07:49:40.000Z</time>
      </trkpt>
      <trkpt lat="45.63537" lon="6.75948">
        <ele>1389</ele>
        <time>2020-01-08T07:49:43.000Z</time>
      </trkpt>
      <trkpt lat="45.63535" lon="6.75949">
        <ele>1389.1999511719</ele>
        <time>2020-01-08T07:49:45.000Z</time>
      </trkpt>
      <trkpt lat="45.63534" lon="6.75949">
        <ele>1389.4000244141</ele>
        <time>2020-01-08T07:49:47.000Z</time>
      </trkpt>
      <trkpt lat="45.63531" lon="6.75949">
        <ele>1390</ele>
        <time>2020-01-08T07:49:50.000Z</time>
      </trkpt>
      <trkpt lat="45.63528" lon="6.75948">
        <ele>1390.4000244141</ele>
        <time>2020-01-08T07:49:53.000Z</time>
      </trkpt>
      <trkpt lat="45.63526" lon="6.75947">
        <ele>1390.8000488281</ele>
        <time>2020-01-08T07:49:55.000Z</time>
      </trkpt>
      <trkpt lat="45.63521" lon="6.75944">
        <ele>1391.1999511719</ele>
        <time>2020-01-08T07:50:00.000Z</time>
      </trkpt>
      <trkpt lat="45.63518" lon="6.75941">
        <ele>1391.5999755859</ele>
        <time>2020-01-08T07:50:03.000Z</time>
      </trkpt>
      <trkpt lat="45.63516" lon="6.75939">
        <ele>1391.5999755859</ele>
        <time>2020-01-08T07:50:05.000Z</time>
      </trkpt>
      <trkpt lat="45.63509" lon="6.75935">
        <ele>1392.1999511719</ele>
        <time>2020-01-08T07:50:11.000Z</time>
      </trkpt>
      <trkpt lat="45.63506" lon="6.75932">
        <ele>1392.5999755859</ele>
        <time>2020-01-08T07:50:15.000Z</time>
      </trkpt>
      <trkpt lat="45.63506" lon="6.75931">
        <ele>1392.8000488281</ele>
        <time>2020-01-08T07:50:16.000Z</time>
      </trkpt>
      <trkpt lat="45.63501" lon="6.75925">
        <ele>1393.1999511719</ele>
        <time>2020-01-08T07:50:22.000Z</time>
      </trkpt>
      <trkpt lat="45.63495" lon="6.7592">
        <ele>1393.4000244141</ele>
        <time>2020-01-08T07:50:27.000Z</time>
      </trkpt>
      <trkpt lat="45.63492" lon="6.75918">
        <ele>1393.5999755859</ele>
        <time>2020-01-08T07:50:30.000Z</time>
      </trkpt>
      <trkpt lat="45.6349" lon="6.75918">
        <ele>1393.5999755859</ele>
        <time>2020-01-08T07:50:31.000Z</time>
      </trkpt>
      <trkpt lat="45.63479" lon="6.75916">
        <ele>1394.8000488281</ele>
        <time>2020-01-08T07:50:40.000Z</time>
      </trkpt>
      <trkpt lat="45.63479" lon="6.75916">
        <ele>1395</ele>
        <time>2020-01-08T07:50:41.000Z</time>
      </trkpt>
      <trkpt lat="45.63478" lon="6.75914">
        <ele>1395.4000244141</ele>
        <time>2020-01-08T07:50:45.000Z</time>
      </trkpt>
      <trkpt lat="45.63478" lon="6.75911">
        <ele>1395.8000488281</ele>
        <time>2020-01-08T07:50:50.000Z</time>
      </trkpt>
      <trkpt lat="45.63479" lon="6.75911">
        <ele>1395.8000488281</ele>
        <time>2020-01-08T07:50:51.000Z</time>
      </trkpt>
      <trkpt lat="45.63481" lon="6.75911">
        <ele>1395.8000488281</ele>
        <time>2020-01-08T07:50:53.000Z</time>
      </trkpt>
      <trkpt lat="45.63482" lon="6.7591">
        <ele>1396</ele>
        <time>2020-01-08T07:50:54.000Z</time>
      </trkpt>
      <trkpt lat="45.63486" lon="6.75909">
        <ele>1396.8000488281</ele>
        <time>2020-01-08T07:50:59.000Z</time>
      </trkpt>
      <trkpt lat="45.63487" lon="6.75909">
        <ele>1397</ele>
        <time>2020-01-08T07:51:00.000Z</time>
      </trkpt>
      <trkpt lat="45.6349" lon="6.75909">
        <ele>1398</ele>
        <time>2020-01-08T07:51:05.000Z</time>
      </trkpt>
      <trkpt lat="45.63496" lon="6.7591">
        <ele>1399</ele>
        <time>2020-01-08T07:51:12.000Z</time>
      </trkpt>
      <trkpt lat="45.63499" lon="6.75912">
        <ele>1399</ele>
        <time>2020-01-08T07:51:19.000Z</time>
      </trkpt>
      <trkpt lat="45.63499" lon="6.75912">
        <ele>1399.1999511719</ele>
        <time>2020-01-08T07:51:20.000Z</time>
      </trkpt>
      <trkpt lat="45.63501" lon="6.75913">
        <ele>1399.4000244141</ele>
        <time>2020-01-08T07:51:24.000Z</time>
      </trkpt>
      <trkpt lat="45.63506" lon="6.75916">
        <ele>1399.8000488281</ele>
        <time>2020-01-08T07:51:30.000Z</time>
      </trkpt>
      <trkpt lat="45.63509" lon="6.75918">
        <ele>1400.1999511719</ele>
        <time>2020-01-08T07:51:34.000Z</time>
      </trkpt>
      <trkpt lat="45.63511" lon="6.75919">
        <ele>1400.8000488281</ele>
        <time>2020-01-08T07:51:36.000Z</time>
      </trkpt>
      <trkpt lat="45.63511" lon="6.75921">
        <ele>1401.1999511719</ele>
        <time>2020-01-08T07:51:38.000Z</time>
      </trkpt>
      <trkpt lat="45.63512" lon="6.75923">
        <ele>1401.5999755859</ele>
        <time>2020-01-08T07:51:41.000Z</time>
      </trkpt>
      <trkpt lat="45.63512" lon="6.75927">
        <ele>1401.8000488281</ele>
        <time>2020-01-08T07:51:46.000Z</time>
      </trkpt>
      <trkpt lat="45.63516" lon="6.75927">
        <ele>1402</ele>
        <time>2020-01-08T07:51:52.000Z</time>
      </trkpt>
      <trkpt lat="45.63525" lon="6.75926">
        <ele>1402</ele>
        <time>2020-01-08T07:51:59.000Z</time>
      </trkpt>
      <trkpt lat="45.6353" lon="6.75925">
        <ele>1402.4000244141</ele>
        <time>2020-01-08T07:52:03.000Z</time>
      </trkpt>
      <trkpt lat="45.63532" lon="6.75924">
        <ele>1402.5999755859</ele>
        <time>2020-01-08T07:52:05.000Z</time>
      </trkpt>
      <trkpt lat="45.63536" lon="6.75921">
        <ele>1403.1999511719</ele>
        <time>2020-01-08T07:52:12.000Z</time>
      </trkpt>
      <trkpt lat="45.63538" lon="6.75919">
        <ele>1403.4000244141</ele>
        <time>2020-01-08T07:52:15.000Z</time>
      </trkpt>
      <trkpt lat="45.63539" lon="6.75919">
        <ele>1404.4000244141</ele>
        <time>2020-01-08T07:52:18.000Z</time>
      </trkpt>
      <trkpt lat="45.63539" lon="6.75919">
        <ele>1404.5999755859</ele>
        <time>2020-01-08T07:52:19.000Z</time>
      </trkpt>
      <trkpt lat="45.63541" lon="6.75918">
        <ele>1404.5999755859</ele>
        <time>2020-01-08T07:52:23.000Z</time>
      </trkpt>
      <trkpt lat="45.63543" lon="6.75912">
        <ele>1405</ele>
        <time>2020-01-08T07:52:29.000Z</time>
      </trkpt>
      <trkpt lat="45.63543" lon="6.7591">
        <ele>1405.8000488281</ele>
        <time>2020-01-08T07:52:32.000Z</time>
      </trkpt>
      <trkpt lat="45.63544" lon="6.75908">
        <ele>1406.4000244141</ele>
        <time>2020-01-08T07:52:34.000Z</time>
      </trkpt>
      <trkpt lat="45.63547" lon="6.75906">
        <ele>1407</ele>
        <time>2020-01-08T07:52:38.000Z</time>
      </trkpt>
      <trkpt lat="45.63548" lon="6.75905">
        <ele>1407</ele>
        <time>2020-01-08T07:52:39.000Z</time>
      </trkpt>
      <trkpt lat="45.63551" lon="6.75903">
        <ele>1408</ele>
        <time>2020-01-08T07:52:42.000Z</time>
      </trkpt>
      <trkpt lat="45.63552" lon="6.75902">
        <ele>1408.4000244141</ele>
        <time>2020-01-08T07:52:43.000Z</time>
      </trkpt>
      <trkpt lat="45.63554" lon="6.75898">
        <ele>1409.1999511719</ele>
        <time>2020-01-08T07:52:47.000Z</time>
      </trkpt>
      <trkpt lat="45.63558" lon="6.75897">
        <ele>1410.1999511719</ele>
        <time>2020-01-08T07:52:52.000Z</time>
      </trkpt>
      <trkpt lat="45.63559" lon="6.75896">
        <ele>1410.4000244141</ele>
        <time>2020-01-08T07:52:53.000Z</time>
      </trkpt>
      <trkpt lat="45.63561" lon="6.75896">
        <ele>1411.1999511719</ele>
        <time>2020-01-08T07:52:57.000Z</time>
      </trkpt>
      <trkpt lat="45.63561" lon="6.75895">
        <ele>1411.5999755859</ele>
        <time>2020-01-08T07:52:59.000Z</time>
      </trkpt>
      <trkpt lat="45.63561" lon="6.75892">
        <ele>1412.4000244141</ele>
        <time>2020-01-08T07:53:03.000Z</time>
      </trkpt>
      <trkpt lat="45.63562" lon="6.75891">
        <ele>1413</ele>
        <time>2020-01-08T07:53:04.000Z</time>
      </trkpt>
      <trkpt lat="45.63562" lon="6.7589">
        <ele>1413.4000244141</ele>
        <time>2020-01-08T07:53:06.000Z</time>
      </trkpt>
      <trkpt lat="45.63563" lon="6.75889">
        <ele>1414</ele>
        <time>2020-01-08T07:53:08.000Z</time>
      </trkpt>
      <trkpt lat="45.63564" lon="6.75887">
        <ele>1414.4000244141</ele>
        <time>2020-01-08T07:53:11.000Z</time>
      </trkpt>
      <trkpt lat="45.63565" lon="6.75885">
        <ele>1414.8000488281</ele>
        <time>2020-01-08T07:53:13.000Z</time>
      </trkpt>
      <trkpt lat="45.63569" lon="6.75882">
        <ele>1415.5999755859</ele>
        <time>2020-01-08T07:53:19.000Z</time>
      </trkpt>
      <trkpt lat="45.63571" lon="6.75879">
        <ele>1416.5999755859</ele>
        <time>2020-01-08T07:53:25.000Z</time>
      </trkpt>
      <trkpt lat="45.63576" lon="6.75873">
        <ele>1417.8000488281</ele>
        <time>2020-01-08T07:53:32.000Z</time>
      </trkpt>
      <trkpt lat="45.63576" lon="6.75873">
        <ele>1418.8000488281</ele>
        <time>2020-01-08T07:53:44.000Z</time>
      </trkpt>
      <trkpt lat="45.63576" lon="6.75873">
        <ele>1418.8000488281</ele>
        <time>2020-01-08T07:53:45.000Z</time>
      </trkpt>
      <trkpt lat="45.63576" lon="6.75871">
        <ele>1418.5999755859</ele>
        <time>2020-01-08T07:53:53.000Z</time>
      </trkpt>
      <trkpt lat="45.6358" lon="6.75868">
        <ele>1419.4000244141</ele>
        <time>2020-01-08T07:53:59.000Z</time>
      </trkpt>
      <trkpt lat="45.63581" lon="6.75867">
        <ele>1420.1999511719</ele>
        <time>2020-01-08T07:54:03.000Z</time>
      </trkpt>
      <trkpt lat="45.63581" lon="6.75867">
        <ele>1420.8000488281</ele>
        <time>2020-01-08T07:54:06.000Z</time>
      </trkpt>
      <trkpt lat="45.63581" lon="6.75867">
        <ele>1421.1999511719</ele>
        <time>2020-01-08T07:54:15.000Z</time>
      </trkpt>
      <trkpt lat="45.63581" lon="6.75867">
        <ele>1420.8000488281</ele>
        <time>2020-01-08T07:54:19.000Z</time>
      </trkpt>
      <trkpt lat="45.63581" lon="6.75867">
        <ele>1421</ele>
        <time>2020-01-08T07:54:33.000Z</time>
      </trkpt>
      <trkpt lat="45.63583" lon="6.75866">
        <ele>1421.8000488281</ele>
        <time>2020-01-08T07:54:43.000Z</time>
      </trkpt>
      <trkpt lat="45.63585" lon="6.75862">
        <ele>1421.5999755859</ele>
        <time>2020-01-08T07:54:50.000Z</time>
      </trkpt>
      <trkpt lat="45.63585" lon="6.7586">
        <ele>1422.4000244141</ele>
        <time>2020-01-08T07:54:54.000Z</time>
      </trkpt>
      <trkpt lat="45.63585" lon="6.75857">
        <ele>1422.4000244141</ele>
        <time>2020-01-08T07:54:55.000Z</time>
      </trkpt>
      <trkpt lat="45.63585" lon="6.75855">
        <ele>1422.8000488281</ele>
        <time>2020-01-08T07:54:56.000Z</time>
      </trkpt>
      <trkpt lat="45.63586" lon="6.75852">
        <ele>1423.4000244141</ele>
        <time>2020-01-08T07:54:58.000Z</time>
      </trkpt>
      <trkpt lat="45.63585" lon="6.75847">
        <ele>1424.4000244141</ele>
        <time>2020-01-08T07:55:02.000Z</time>
      </trkpt>
      <trkpt lat="45.63585" lon="6.75846">
        <ele>1424.5999755859</ele>
        <time>2020-01-08T07:55:03.000Z</time>
      </trkpt>
      <trkpt lat="45.63585" lon="6.75844">
        <ele>1425.5999755859</ele>
        <time>2020-01-08T07:55:06.000Z</time>
      </trkpt>
      <trkpt lat="45.63586" lon="6.75841">
        <ele>1426.1999511719</ele>
        <time>2020-01-08T07:55:08.000Z</time>
      </trkpt>
      <trkpt lat="45.63587" lon="6.75839">
        <ele>1426.8000488281</ele>
        <time>2020-01-08T07:55:10.000Z</time>
      </trkpt>
      <trkpt lat="45.63588" lon="6.75837">
        <ele>1427.5999755859</ele>
        <time>2020-01-08T07:55:13.000Z</time>
      </trkpt>
      <trkpt lat="45.63588" lon="6.75837">
        <ele>1427.8000488281</ele>
        <time>2020-01-08T07:55:14.000Z</time>
      </trkpt>
      <trkpt lat="45.6359" lon="6.75833">
        <ele>1428.8000488281</ele>
        <time>2020-01-08T07:55:18.000Z</time>
      </trkpt>
      <trkpt lat="45.6359" lon="6.75833">
        <ele>1429</ele>
        <time>2020-01-08T07:55:19.000Z</time>
      </trkpt>
      <trkpt lat="45.63594" lon="6.7583">
        <ele>1430</ele>
        <time>2020-01-08T07:55:23.000Z</time>
      </trkpt>
      <trkpt lat="45.63596" lon="6.75829">
        <ele>1430.1999511719</ele>
        <time>2020-01-08T07:55:25.000Z</time>
      </trkpt>
      <trkpt lat="45.63597" lon="6.75827">
        <ele>1430.8000488281</ele>
        <time>2020-01-08T07:55:29.000Z</time>
      </trkpt>
      <trkpt lat="45.63597" lon="6.75826">
        <ele>1431.1999511719</ele>
        <time>2020-01-08T07:55:31.000Z</time>
      </trkpt>
      <trkpt lat="45.636" lon="6.75825">
        <ele>1432.4000244141</ele>
        <time>2020-01-08T07:55:35.000Z</time>
      </trkpt>
      <trkpt lat="45.63602" lon="6.75823">
        <ele>1433.4000244141</ele>
        <time>2020-01-08T07:55:39.000Z</time>
      </trkpt>
      <trkpt lat="45.63603" lon="6.7582">
        <ele>1434</ele>
        <time>2020-01-08T07:55:43.000Z</time>
      </trkpt>
      <trkpt lat="45.63603" lon="6.75819">
        <ele>1434.5999755859</ele>
        <time>2020-01-08T07:55:45.000Z</time>
      </trkpt>
      <trkpt lat="45.63606" lon="6.75818">
        <ele>1435.4000244141</ele>
        <time>2020-01-08T07:55:48.000Z</time>
      </trkpt>
      <trkpt lat="45.63606" lon="6.75818">
        <ele>1435.5999755859</ele>
        <time>2020-01-08T07:55:49.000Z</time>
      </trkpt>
      <trkpt lat="45.63608" lon="6.75817">
        <ele>1436.5999755859</ele>
        <time>2020-01-08T07:55:55.000Z</time>
      </trkpt>
      <trkpt lat="45.63612" lon="6.75812">
        <ele>1437.4000244141</ele>
        <time>2020-01-08T07:56:01.000Z</time>
      </trkpt>
      <trkpt lat="45.63612" lon="6.75811">
        <ele>1437.8000488281</ele>
        <time>2020-01-08T07:56:02.000Z</time>
      </trkpt>
      <trkpt lat="45.63611" lon="6.75806">
        <ele>1438.8000488281</ele>
        <time>2020-01-08T07:56:06.000Z</time>
      </trkpt>
      <trkpt lat="45.63613" lon="6.75803">
        <ele>1440</ele>
        <time>2020-01-08T07:56:11.000Z</time>
      </trkpt>
      <trkpt lat="45.63613" lon="6.75803">
        <ele>1440.1999511719</ele>
        <time>2020-01-08T07:56:12.000Z</time>
      </trkpt>
      <trkpt lat="45.63614" lon="6.75799">
        <ele>1441.1999511719</ele>
        <time>2020-01-08T07:56:16.000Z</time>
      </trkpt>
      <trkpt lat="45.63615" lon="6.75797">
        <ele>1441.8000488281</ele>
        <time>2020-01-08T07:56:18.000Z</time>
      </trkpt>
      <trkpt lat="45.63616" lon="6.75795">
        <ele>1442.4000244141</ele>
        <time>2020-01-08T07:56:21.000Z</time>
      </trkpt>
      <trkpt lat="45.63616" lon="6.75793">
        <ele>1442.5999755859</ele>
        <time>2020-01-08T07:56:23.000Z</time>
      </trkpt>
      <trkpt lat="45.63613" lon="6.7579">
        <ele>1443.4000244141</ele>
        <time>2020-01-08T07:56:27.000Z</time>
      </trkpt>
      <trkpt lat="45.63612" lon="6.75786">
        <ele>1444.4000244141</ele>
        <time>2020-01-08T07:56:31.000Z</time>
      </trkpt>
      <trkpt lat="45.6361" lon="6.75783">
        <ele>1445.4000244141</ele>
        <time>2020-01-08T07:56:36.000Z</time>
      </trkpt>
      <trkpt lat="45.6361" lon="6.75783">
        <ele>1446</ele>
        <time>2020-01-08T07:56:38.000Z</time>
      </trkpt>
      <trkpt lat="45.6361" lon="6.75782">
        <ele>1446.4000244141</ele>
        <time>2020-01-08T07:56:40.000Z</time>
      </trkpt>
      <trkpt lat="45.6361" lon="6.75778">
        <ele>1447.4000244141</ele>
        <time>2020-01-08T07:56:44.000Z</time>
      </trkpt>
      <trkpt lat="45.6361" lon="6.75778">
        <ele>1447.5999755859</ele>
        <time>2020-01-08T07:56:45.000Z</time>
      </trkpt>
      <trkpt lat="45.63613" lon="6.75773">
        <ele>1448.4000244141</ele>
        <time>2020-01-08T07:56:50.000Z</time>
      </trkpt>
      <trkpt lat="45.63614" lon="6.75773">
        <ele>1448.5999755859</ele>
        <time>2020-01-08T07:56:52.000Z</time>
      </trkpt>
      <trkpt lat="45.63616" lon="6.75771">
        <ele>1449.1999511719</ele>
        <time>2020-01-08T07:56:55.000Z</time>
      </trkpt>
      <trkpt lat="45.63615" lon="6.75769">
        <ele>1449.8000488281</ele>
        <time>2020-01-08T07:56:58.000Z</time>
      </trkpt>
      <trkpt lat="45.63611" lon="6.75766">
        <ele>1450.4000244141</ele>
        <time>2020-01-08T07:57:01.000Z</time>
      </trkpt>
      <trkpt lat="45.63609" lon="6.75765">
        <ele>1451</ele>
        <time>2020-01-08T07:57:03.000Z</time>
      </trkpt>
      <trkpt lat="45.63606" lon="6.75763">
        <ele>1452</ele>
        <time>2020-01-08T07:57:07.000Z</time>
      </trkpt>
      <trkpt lat="45.63605" lon="6.75762">
        <ele>1452.1999511719</ele>
        <time>2020-01-08T07:57:08.000Z</time>
      </trkpt>
      <trkpt lat="45.63604" lon="6.75759">
        <ele>1453.1999511719</ele>
        <time>2020-01-08T07:57:14.000Z</time>
      </trkpt>
      <trkpt lat="45.63605" lon="6.75754">
        <ele>1454.4000244141</ele>
        <time>2020-01-08T07:57:19.000Z</time>
      </trkpt>
      <trkpt lat="45.63607" lon="6.75751">
        <ele>1455.1999511719</ele>
        <time>2020-01-08T07:57:23.000Z</time>
      </trkpt>
      <trkpt lat="45.63609" lon="6.7575">
        <ele>1455.5999755859</ele>
        <time>2020-01-08T07:57:25.000Z</time>
      </trkpt>
      <trkpt lat="45.63612" lon="6.75748">
        <ele>1456.5999755859</ele>
        <time>2020-01-08T07:57:28.000Z</time>
      </trkpt>
      <trkpt lat="45.63612" lon="6.75747">
        <ele>1456.8000488281</ele>
        <time>2020-01-08T07:57:29.000Z</time>
      </trkpt>
      <trkpt lat="45.63615" lon="6.75745">
        <ele>1457.8000488281</ele>
        <time>2020-01-08T07:57:33.000Z</time>
      </trkpt>
      <trkpt lat="45.63617" lon="6.75741">
        <ele>1458.8000488281</ele>
        <time>2020-01-08T07:57:39.000Z</time>
      </trkpt>
      <trkpt lat="45.63617" lon="6.75738">
        <ele>1459.5999755859</ele>
        <time>2020-01-08T07:57:43.000Z</time>
      </trkpt>
      <trkpt lat="45.63617" lon="6.75737">
        <ele>1460</ele>
        <time>2020-01-08T07:57:45.000Z</time>
      </trkpt>
      <trkpt lat="45.63618" lon="6.75735">
        <ele>1460.5999755859</ele>
        <time>2020-01-08T07:57:48.000Z</time>
      </trkpt>
      <trkpt lat="45.63619" lon="6.75733">
        <ele>1461</ele>
        <time>2020-01-08T07:57:50.000Z</time>
      </trkpt>
      <trkpt lat="45.63619" lon="6.75732">
        <ele>1462</ele>
        <time>2020-01-08T07:57:53.000Z</time>
      </trkpt>
      <trkpt lat="45.63618" lon="6.75731">
        <ele>1462.4000244141</ele>
        <time>2020-01-08T07:57:55.000Z</time>
      </trkpt>
      <trkpt lat="45.63618" lon="6.75729">
        <ele>1463</ele>
        <time>2020-01-08T07:57:58.000Z</time>
      </trkpt>
      <trkpt lat="45.63618" lon="6.75729">
        <ele>1463.4000244141</ele>
        <time>2020-01-08T07:58:01.000Z</time>
      </trkpt>
      <trkpt lat="45.63617" lon="6.75725">
        <ele>1464.1999511719</ele>
        <time>2020-01-08T07:58:06.000Z</time>
      </trkpt>
      <trkpt lat="45.63617" lon="6.75724">
        <ele>1464.4000244141</ele>
        <time>2020-01-08T07:58:07.000Z</time>
      </trkpt>
      <trkpt lat="45.63617" lon="6.75721">
        <ele>1465.1999511719</ele>
        <time>2020-01-08T07:58:11.000Z</time>
      </trkpt>
      <trkpt lat="45.63617" lon="6.75721">
        <ele>1465.4000244141</ele>
        <time>2020-01-08T07:58:12.000Z</time>
      </trkpt>
      <trkpt lat="45.63619" lon="6.75719">
        <ele>1466.4000244141</ele>
        <time>2020-01-08T07:58:16.000Z</time>
      </trkpt>
      <trkpt lat="45.6362" lon="6.75718">
        <ele>1466.5999755859</ele>
        <time>2020-01-08T07:58:17.000Z</time>
      </trkpt>
      <trkpt lat="45.63622" lon="6.75715">
        <ele>1467.4000244141</ele>
        <time>2020-01-08T07:58:21.000Z</time>
      </trkpt>
      <trkpt lat="45.63622" lon="6.75713">
        <ele>1467.8000488281</ele>
        <time>2020-01-08T07:58:24.000Z</time>
      </trkpt>
      <trkpt lat="45.63622" lon="6.7571">
        <ele>1468.8000488281</ele>
        <time>2020-01-08T07:58:29.000Z</time>
      </trkpt>
      <trkpt lat="45.63622" lon="6.75709">
        <ele>1469.8000488281</ele>
        <time>2020-01-08T07:58:32.000Z</time>
      </trkpt>
      <trkpt lat="45.63621" lon="6.75707">
        <ele>1470.8000488281</ele>
        <time>2020-01-08T07:58:37.000Z</time>
      </trkpt>
      <trkpt lat="45.6362" lon="6.75705">
        <ele>1470.8000488281</ele>
        <time>2020-01-08T07:58:38.000Z</time>
      </trkpt>
      <trkpt lat="45.6362" lon="6.757">
        <ele>1472</ele>
        <time>2020-01-08T07:58:42.000Z</time>
      </trkpt>
      <trkpt lat="45.6362" lon="6.75699">
        <ele>1472.1999511719</ele>
        <time>2020-01-08T07:58:43.000Z</time>
      </trkpt>
      <trkpt lat="45.63623" lon="6.75695">
        <ele>1473</ele>
        <time>2020-01-08T07:58:48.000Z</time>
      </trkpt>
      <trkpt lat="45.63625" lon="6.75694">
        <ele>1473.4000244141</ele>
        <time>2020-01-08T07:58:50.000Z</time>
      </trkpt>
      <trkpt lat="45.63626" lon="6.75693">
        <ele>1474.1999511719</ele>
        <time>2020-01-08T07:58:55.000Z</time>
      </trkpt>
      <trkpt lat="45.63626" lon="6.75693">
        <ele>1474.4000244141</ele>
        <time>2020-01-08T07:58:56.000Z</time>
      </trkpt>
      <trkpt lat="45.63627" lon="6.7569">
        <ele>1475</ele>
        <time>2020-01-08T07:59:02.000Z</time>
      </trkpt>
      <trkpt lat="45.63627" lon="6.7569">
        <ele>1475.4000244141</ele>
        <time>2020-01-08T07:59:04.000Z</time>
      </trkpt>
      <trkpt lat="45.63627" lon="6.75689">
        <ele>1476.1999511719</ele>
        <time>2020-01-08T07:59:12.000Z</time>
      </trkpt>
      <trkpt lat="45.63627" lon="6.75688">
        <ele>1476.4000244141</ele>
        <time>2020-01-08T07:59:14.000Z</time>
      </trkpt>
      <trkpt lat="45.63627" lon="6.75685">
        <ele>1477.4000244141</ele>
        <time>2020-01-08T07:59:18.000Z</time>
      </trkpt>
      <trkpt lat="45.63627" lon="6.75685">
        <ele>1477.5999755859</ele>
        <time>2020-01-08T07:59:19.000Z</time>
      </trkpt>
      <trkpt lat="45.63628" lon="6.75681">
        <ele>1478.5999755859</ele>
        <time>2020-01-08T07:59:23.000Z</time>
      </trkpt>
      <trkpt lat="45.63629" lon="6.7568">
        <ele>1478.8000488281</ele>
        <time>2020-01-08T07:59:24.000Z</time>
      </trkpt>
      <trkpt lat="45.63629" lon="6.75678">
        <ele>1479.4000244141</ele>
        <time>2020-01-08T07:59:28.000Z</time>
      </trkpt>
      <trkpt lat="45.63629" lon="6.75676">
        <ele>1479.5999755859</ele>
        <time>2020-01-08T07:59:29.000Z</time>
      </trkpt>
      <trkpt lat="45.63628" lon="6.75675">
        <ele>1480.4000244141</ele>
        <time>2020-01-08T07:59:36.000Z</time>
      </trkpt>
      <trkpt lat="45.63628" lon="6.75675">
        <ele>1480.5999755859</ele>
        <time>2020-01-08T07:59:45.000Z</time>
      </trkpt>
      <trkpt lat="45.63628" lon="6.75675">
        <ele>1480.8000488281</ele>
        <time>2020-01-08T07:59:47.000Z</time>
      </trkpt>
      <trkpt lat="45.63628" lon="6.75675">
        <ele>1480</ele>
        <time>2020-01-08T08:00:00.000Z</time>
      </trkpt>
      <trkpt lat="45.63628" lon="6.75675">
        <ele>1480.8000488281</ele>
        <time>2020-01-08T08:00:12.000Z</time>
      </trkpt>
      <trkpt lat="45.63628" lon="6.75675">
        <ele>1480.5999755859</ele>
        <time>2020-01-08T08:00:23.000Z</time>
      </trkpt>
      <trkpt lat="45.63629" lon="6.75674">
        <ele>1480.5999755859</ele>
        <time>2020-01-08T08:00:30.000Z</time>
      </trkpt>
      <trkpt lat="45.63629" lon="6.75673">
        <ele>1481.4000244141</ele>
        <time>2020-01-08T08:00:38.000Z</time>
      </trkpt>
      <trkpt lat="45.63633" lon="6.75669">
        <ele>1481.4000244141</ele>
        <time>2020-01-08T08:00:44.000Z</time>
      </trkpt>
      <trkpt lat="45.63634" lon="6.75668">
        <ele>1481.5999755859</ele>
        <time>2020-01-08T08:00:45.000Z</time>
      </trkpt>
      <trkpt lat="45.63636" lon="6.75665">
        <ele>1482.4000244141</ele>
        <time>2020-01-08T08:00:48.000Z</time>
      </trkpt>
      <trkpt lat="45.63636" lon="6.75665">
        <ele>1482.8000488281</ele>
        <time>2020-01-08T08:00:49.000Z</time>
      </trkpt>
      <trkpt lat="45.6364" lon="6.75663">
        <ele>1483.5999755859</ele>
        <time>2020-01-08T08:00:53.000Z</time>
      </trkpt>
      <trkpt lat="45.63642" lon="6.75663">
        <ele>1484</ele>
        <time>2020-01-08T08:00:55.000Z</time>
      </trkpt>
      <trkpt lat="45.63644" lon="6.75662">
        <ele>1484.5999755859</ele>
        <time>2020-01-08T08:00:57.000Z</time>
      </trkpt>
      <trkpt lat="45.63646" lon="6.75658">
        <ele>1485</ele>
        <time>2020-01-08T08:01:01.000Z</time>
      </trkpt>
      <trkpt lat="45.63647" lon="6.75656">
        <ele>1484.8000488281</ele>
        <time>2020-01-08T08:01:03.000Z</time>
      </trkpt>
      <trkpt lat="45.6365" lon="6.75653">
        <ele>1485.4000244141</ele>
        <time>2020-01-08T08:01:08.000Z</time>
      </trkpt>
      <trkpt lat="45.63656" lon="6.75649">
        <ele>1485.8000488281</ele>
        <time>2020-01-08T08:01:13.000Z</time>
      </trkpt>
      <trkpt lat="45.63656" lon="6.75648">
        <ele>1486.1999511719</ele>
        <time>2020-01-08T08:01:14.000Z</time>
      </trkpt>
      <trkpt lat="45.63659" lon="6.75643">
        <ele>1487</ele>
        <time>2020-01-08T08:01:18.000Z</time>
      </trkpt>
      <trkpt lat="45.63661" lon="6.75637">
        <ele>1487.1999511719</ele>
        <time>2020-01-08T08:01:22.000Z</time>
      </trkpt>
      <trkpt lat="45.63661" lon="6.75636">
        <ele>1487.1999511719</ele>
        <time>2020-01-08T08:01:23.000Z</time>
      </trkpt>
      <trkpt lat="45.63665" lon="6.7563">
        <ele>1488</ele>
        <time>2020-01-08T08:01:28.000Z</time>
      </trkpt>
      <trkpt lat="45.63666" lon="6.75627">
        <ele>1488.1999511719</ele>
        <time>2020-01-08T08:01:30.000Z</time>
      </trkpt>
      <trkpt lat="45.63667" lon="6.75624">
        <ele>1488.4000244141</ele>
        <time>2020-01-08T08:01:32.000Z</time>
      </trkpt>
      <trkpt lat="45.63668" lon="6.75616">
        <ele>1489.1999511719</ele>
        <time>2020-01-08T08:01:36.000Z</time>
      </trkpt>
      <trkpt lat="45.63669" lon="6.75614">
        <ele>1489.5999755859</ele>
        <time>2020-01-08T08:01:37.000Z</time>
      </trkpt>
      <trkpt lat="45.6367" lon="6.7561">
        <ele>1490.4000244141</ele>
        <time>2020-01-08T08:01:41.000Z</time>
      </trkpt>
      <trkpt lat="45.63671" lon="6.75609">
        <ele>1490.5999755859</ele>
        <time>2020-01-08T08:01:42.000Z</time>
      </trkpt>
      <trkpt lat="45.63672" lon="6.75604">
        <ele>1491.4000244141</ele>
        <time>2020-01-08T08:01:46.000Z</time>
      </trkpt>
      <trkpt lat="45.63672" lon="6.75603">
        <ele>1491.8000488281</ele>
        <time>2020-01-08T08:01:48.000Z</time>
      </trkpt>
      <trkpt lat="45.63673" lon="6.756">
        <ele>1492.1999511719</ele>
        <time>2020-01-08T08:01:54.000Z</time>
      </trkpt>
      <trkpt lat="45.63673" lon="6.756">
        <ele>1492.5999755859</ele>
        <time>2020-01-08T08:02:02.000Z</time>
      </trkpt>
      <trkpt lat="45.63673" lon="6.75599">
        <ele>1493.1999511719</ele>
        <time>2020-01-08T08:02:05.000Z</time>
      </trkpt>
      <trkpt lat="45.63677" lon="6.75594">
        <ele>1492.1999511719</ele>
        <time>2020-01-08T08:02:10.000Z</time>
      </trkpt>
      <trkpt lat="45.63681" lon="6.75595">
        <ele>1492.1999511719</ele>
        <time>2020-01-08T08:02:15.000Z</time>
      </trkpt>
      <trkpt lat="45.63681" lon="6.75595">
        <ele>1492.5999755859</ele>
        <time>2020-01-08T08:02:25.000Z</time>
      </trkpt>
      <trkpt lat="45.63681" lon="6.75595">
        <ele>1492.5999755859</ele>
        <time>2020-01-08T08:02:38.000Z</time>
      </trkpt>
      <trkpt lat="45.63681" lon="6.75595">
        <ele>1492.4000244141</ele>
        <time>2020-01-08T08:02:49.000Z</time>
      </trkpt>
      <trkpt lat="45.63682" lon="6.75593">
        <ele>1493</ele>
        <time>2020-01-08T08:02:55.000Z</time>
      </trkpt>
      <trkpt lat="45.63686" lon="6.7559">
        <ele>1492.8000488281</ele>
        <time>2020-01-08T08:02:58.000Z</time>
      </trkpt>
      <trkpt lat="45.63688" lon="6.7559">
        <ele>1492.5999755859</ele>
        <time>2020-01-08T08:03:00.000Z</time>
      </trkpt>
      <trkpt lat="45.63695" lon="6.75585">
        <ele>1492.8000488281</ele>
        <time>2020-01-08T08:03:06.000Z</time>
      </trkpt>
      <trkpt lat="45.63704" lon="6.75583">
        <ele>1493.1999511719</ele>
        <time>2020-01-08T08:03:13.000Z</time>
      </trkpt>
      <trkpt lat="45.6371" lon="6.75579">
        <ele>1493</ele>
        <time>2020-01-08T08:03:18.000Z</time>
      </trkpt>
      <trkpt lat="45.63717" lon="6.75573">
        <ele>1492.5999755859</ele>
        <time>2020-01-08T08:03:23.000Z</time>
      </trkpt>
      <trkpt lat="45.63724" lon="6.7557">
        <ele>1491.4000244141</ele>
        <time>2020-01-08T08:03:27.000Z</time>
      </trkpt>
      <trkpt lat="45.63725" lon="6.75569">
        <ele>1491.1999511719</ele>
        <time>2020-01-08T08:03:28.000Z</time>
      </trkpt>
      <trkpt lat="45.6373" lon="6.75563">
        <ele>1491.5999755859</ele>
        <time>2020-01-08T08:03:34.000Z</time>
      </trkpt>
      <trkpt lat="45.63735" lon="6.7556">
        <ele>1492.4000244141</ele>
        <time>2020-01-08T08:03:40.000Z</time>
      </trkpt>
      <trkpt lat="45.63741" lon="6.75557">
        <ele>1493.1999511719</ele>
        <time>2020-01-08T08:03:45.000Z</time>
      </trkpt>
      <trkpt lat="45.63743" lon="6.75556">
        <ele>1493.4000244141</ele>
        <time>2020-01-08T08:03:46.000Z</time>
      </trkpt>
      <trkpt lat="45.63745" lon="6.75556">
        <ele>1493.4000244141</ele>
        <time>2020-01-08T08:03:50.000Z</time>
      </trkpt>
      <trkpt lat="45.63751" lon="6.75554">
        <ele>1493.1999511719</ele>
        <time>2020-01-08T08:03:56.000Z</time>
      </trkpt>
      <trkpt lat="45.63756" lon="6.75553">
        <ele>1493.5999755859</ele>
        <time>2020-01-08T08:04:02.000Z</time>
      </trkpt>
      <trkpt lat="45.63762" lon="6.75553">
        <ele>1494</ele>
        <time>2020-01-08T08:04:08.000Z</time>
      </trkpt>
      <trkpt lat="45.63764" lon="6.75553">
        <ele>1494.8000488281</ele>
        <time>2020-01-08T08:04:11.000Z</time>
      </trkpt>
      <trkpt lat="45.63769" lon="6.7555">
        <ele>1495.5999755859</ele>
        <time>2020-01-08T08:04:15.000Z</time>
      </trkpt>
      <trkpt lat="45.63774" lon="6.75546">
        <ele>1495.8000488281</ele>
        <time>2020-01-08T08:04:20.000Z</time>
      </trkpt>
      <trkpt lat="45.63777" lon="6.75544">
        <ele>1496.8000488281</ele>
        <time>2020-01-08T08:04:24.000Z</time>
      </trkpt>
      <trkpt lat="45.63779" lon="6.75543">
        <ele>1497.1999511719</ele>
        <time>2020-01-08T08:04:26.000Z</time>
      </trkpt>
      <trkpt lat="45.63782" lon="6.75541">
        <ele>1498</ele>
        <time>2020-01-08T08:04:29.000Z</time>
      </trkpt>
      <trkpt lat="45.63784" lon="6.75538">
        <ele>1498.8000488281</ele>
        <time>2020-01-08T08:04:32.000Z</time>
      </trkpt>
      <trkpt lat="45.63784" lon="6.75536">
        <ele>1499</ele>
        <time>2020-01-08T08:04:33.000Z</time>
      </trkpt>
      <trkpt lat="45.63784" lon="6.75532">
        <ele>1500</ele>
        <time>2020-01-08T08:04:37.000Z</time>
      </trkpt>
      <trkpt lat="45.63785" lon="6.75531">
        <ele>1500.1999511719</ele>
        <time>2020-01-08T08:04:38.000Z</time>
      </trkpt>
      <trkpt lat="45.63787" lon="6.75527">
        <ele>1501</ele>
        <time>2020-01-08T08:04:42.000Z</time>
      </trkpt>
      <trkpt lat="45.63788" lon="6.75525">
        <ele>1501.1999511719</ele>
        <time>2020-01-08T08:04:43.000Z</time>
      </trkpt>
      <trkpt lat="45.63789" lon="6.75519">
        <ele>1501.5999755859</ele>
        <time>2020-01-08T08:04:47.000Z</time>
      </trkpt>
      <trkpt lat="45.63792" lon="6.75513">
        <ele>1502.4000244141</ele>
        <time>2020-01-08T08:04:52.000Z</time>
      </trkpt>
      <trkpt lat="45.63793" lon="6.75514">
        <ele>1502.5999755859</ele>
        <time>2020-01-08T08:04:53.000Z</time>
      </trkpt>
      <trkpt lat="45.63797" lon="6.75508">
        <ele>1502.5999755859</ele>
        <time>2020-01-08T08:04:59.000Z</time>
      </trkpt>
      <trkpt lat="45.638" lon="6.75505">
        <ele>1502.5999755859</ele>
        <time>2020-01-08T08:05:04.000Z</time>
      </trkpt>
      <trkpt lat="45.63801" lon="6.75505">
        <ele>1502.1999511719</ele>
        <time>2020-01-08T08:05:11.000Z</time>
      </trkpt>
      <trkpt lat="45.63801" lon="6.75505">
        <ele>1502</ele>
        <time>2020-01-08T08:05:26.000Z</time>
      </trkpt>
      <trkpt lat="45.63801" lon="6.75504">
        <ele>1502</ele>
        <time>2020-01-08T08:05:42.000Z</time>
      </trkpt>
      <trkpt lat="45.63804" lon="6.75501">
        <ele>1502</ele>
        <time>2020-01-08T08:05:46.000Z</time>
      </trkpt>
      <trkpt lat="45.63806" lon="6.75499">
        <ele>1502.1999511719</ele>
        <time>2020-01-08T08:05:48.000Z</time>
      </trkpt>
      <trkpt lat="45.63808" lon="6.75496">
        <ele>1502.4000244141</ele>
        <time>2020-01-08T08:05:50.000Z</time>
      </trkpt>
      <trkpt lat="45.63809" lon="6.75494">
        <ele>1502.5999755859</ele>
        <time>2020-01-08T08:05:52.000Z</time>
      </trkpt>
      <trkpt lat="45.63811" lon="6.75493">
        <ele>1503.1999511719</ele>
        <time>2020-01-08T08:05:53.000Z</time>
      </trkpt>
      <trkpt lat="45.63814" lon="6.75492">
        <ele>1503.4000244141</ele>
        <time>2020-01-08T08:05:56.000Z</time>
      </trkpt>
      <trkpt lat="45.63818" lon="6.75491">
        <ele>1503.5999755859</ele>
        <time>2020-01-08T08:05:59.000Z</time>
      </trkpt>
      <trkpt lat="45.63824" lon="6.75488">
        <ele>1503.8000488281</ele>
        <time>2020-01-08T08:06:05.000Z</time>
      </trkpt>
      <trkpt lat="45.6383" lon="6.75485">
        <ele>1504.1999511719</ele>
        <time>2020-01-08T08:06:10.000Z</time>
      </trkpt>
      <trkpt lat="45.63835" lon="6.75478">
        <ele>1504.1999511719</ele>
        <time>2020-01-08T08:06:16.000Z</time>
      </trkpt>
      <trkpt lat="45.63836" lon="6.75476">
        <ele>1504.1999511719</ele>
        <time>2020-01-08T08:06:21.000Z</time>
      </trkpt>
      <trkpt lat="45.63842" lon="6.75468">
        <ele>1504.4000244141</ele>
        <time>2020-01-08T08:06:27.000Z</time>
      </trkpt>
      <trkpt lat="45.63845" lon="6.75461">
        <ele>1504.4000244141</ele>
        <time>2020-01-08T08:06:31.000Z</time>
      </trkpt>
      <trkpt lat="45.63846" lon="6.7546">
        <ele>1504.4000244141</ele>
        <time>2020-01-08T08:06:32.000Z</time>
      </trkpt>
      <trkpt lat="45.63848" lon="6.75453">
        <ele>1504.5999755859</ele>
        <time>2020-01-08T08:06:37.000Z</time>
      </trkpt>
      <trkpt lat="45.6385" lon="6.75444">
        <ele>1505.5999755859</ele>
        <time>2020-01-08T08:06:41.000Z</time>
      </trkpt>
      <trkpt lat="45.6385" lon="6.75443">
        <ele>1506</ele>
        <time>2020-01-08T08:06:42.000Z</time>
      </trkpt>
      <trkpt lat="45.63853" lon="6.75438">
        <ele>1506.4000244141</ele>
        <time>2020-01-08T08:06:47.000Z</time>
      </trkpt>
      <trkpt lat="45.63857" lon="6.75433">
        <ele>1506.5999755859</ele>
        <time>2020-01-08T08:06:51.000Z</time>
      </trkpt>
      <trkpt lat="45.63858" lon="6.75433">
        <ele>1507</ele>
        <time>2020-01-08T08:06:53.000Z</time>
      </trkpt>
      <trkpt lat="45.63861" lon="6.7543">
        <ele>1507.4000244141</ele>
        <time>2020-01-08T08:07:00.000Z</time>
      </trkpt>
      <trkpt lat="45.63863" lon="6.75427">
        <ele>1507.5999755859</ele>
        <time>2020-01-08T08:07:03.000Z</time>
      </trkpt>
      <trkpt lat="45.63863" lon="6.75427">
        <ele>1507.8000488281</ele>
        <time>2020-01-08T08:07:04.000Z</time>
      </trkpt>
      <trkpt lat="45.63866" lon="6.75422">
        <ele>1508.5999755859</ele>
        <time>2020-01-08T08:07:09.000Z</time>
      </trkpt>
      <trkpt lat="45.63866" lon="6.75421">
        <ele>1508.8000488281</ele>
        <time>2020-01-08T08:07:10.000Z</time>
      </trkpt>
      <trkpt lat="45.63869" lon="6.75415">
        <ele>1509.8000488281</ele>
        <time>2020-01-08T08:07:15.000Z</time>
      </trkpt>
      <trkpt lat="45.63871" lon="6.75412">
        <ele>1510.5999755859</ele>
        <time>2020-01-08T08:07:19.000Z</time>
      </trkpt>
      <trkpt lat="45.63871" lon="6.7541">
        <ele>1511</ele>
        <time>2020-01-08T08:07:21.000Z</time>
      </trkpt>
      <trkpt lat="45.63873" lon="6.75407">
        <ele>1511.5999755859</ele>
        <time>2020-01-08T08:07:25.000Z</time>
      </trkpt>
      <trkpt lat="45.63874" lon="6.75407">
        <ele>1512</ele>
        <time>2020-01-08T08:07:27.000Z</time>
      </trkpt>
      <trkpt lat="45.63876" lon="6.75404">
        <ele>1513</ele>
        <time>2020-01-08T08:07:31.000Z</time>
      </trkpt>
      <trkpt lat="45.63879" lon="6.75399">
        <ele>1514</ele>
        <time>2020-01-08T08:07:36.000Z</time>
      </trkpt>
      <trkpt lat="45.6388" lon="6.75396">
        <ele>1515.1999511719</ele>
        <time>2020-01-08T08:07:41.000Z</time>
      </trkpt>
      <trkpt lat="45.63883" lon="6.75392">
        <ele>1516.1999511719</ele>
        <time>2020-01-08T08:07:47.000Z</time>
      </trkpt>
      <trkpt lat="45.63886" lon="6.75387">
        <ele>1517.4000244141</ele>
        <time>2020-01-08T08:07:53.000Z</time>
      </trkpt>
      <trkpt lat="45.63888" lon="6.75385">
        <ele>1518.5999755859</ele>
        <time>2020-01-08T08:07:58.000Z</time>
      </trkpt>
      <trkpt lat="45.63888" lon="6.75381">
        <ele>1519.4000244141</ele>
        <time>2020-01-08T08:08:03.000Z</time>
      </trkpt>
      <trkpt lat="45.63889" lon="6.75379">
        <ele>1519.5999755859</ele>
        <time>2020-01-08T08:08:04.000Z</time>
      </trkpt>
      <trkpt lat="45.63889" lon="6.75377">
        <ele>1520.4000244141</ele>
        <time>2020-01-08T08:08:07.000Z</time>
      </trkpt>
      <trkpt lat="45.63889" lon="6.75377">
        <ele>1520.5999755859</ele>
        <time>2020-01-08T08:08:08.000Z</time>
      </trkpt>
      <trkpt lat="45.63891" lon="6.75374">
        <ele>1521.4000244141</ele>
        <time>2020-01-08T08:08:12.000Z</time>
      </trkpt>
      <trkpt lat="45.63893" lon="6.75374">
        <ele>1521.8000488281</ele>
        <time>2020-01-08T08:08:13.000Z</time>
      </trkpt>
      <trkpt lat="45.63896" lon="6.75371">
        <ele>1522.1999511719</ele>
        <time>2020-01-08T08:08:17.000Z</time>
      </trkpt>
      <trkpt lat="45.63897" lon="6.7537">
        <ele>1523</ele>
        <time>2020-01-08T08:08:21.000Z</time>
      </trkpt>
      <trkpt lat="45.63897" lon="6.7537">
        <ele>1523.1999511719</ele>
        <time>2020-01-08T08:08:22.000Z</time>
      </trkpt>
      <trkpt lat="45.63897" lon="6.75367">
        <ele>1524</ele>
        <time>2020-01-08T08:08:26.000Z</time>
      </trkpt>
      <trkpt lat="45.63897" lon="6.75367">
        <ele>1524.4000244141</ele>
        <time>2020-01-08T08:08:27.000Z</time>
      </trkpt>
      <trkpt lat="45.63899" lon="6.75365">
        <ele>1525.1999511719</ele>
        <time>2020-01-08T08:08:31.000Z</time>
      </trkpt>
      <trkpt lat="45.639" lon="6.75364">
        <ele>1525.4000244141</ele>
        <time>2020-01-08T08:08:33.000Z</time>
      </trkpt>
      <trkpt lat="45.63904" lon="6.7536">
        <ele>1526.1999511719</ele>
        <time>2020-01-08T08:08:37.000Z</time>
      </trkpt>
      <trkpt lat="45.63905" lon="6.75359">
        <ele>1526.5999755859</ele>
        <time>2020-01-08T08:08:38.000Z</time>
      </trkpt>
      <trkpt lat="45.63906" lon="6.75358">
        <ele>1527</ele>
        <time>2020-01-08T08:08:43.000Z</time>
      </trkpt>
      <trkpt lat="45.63908" lon="6.75354">
        <ele>1527</ele>
        <time>2020-01-08T08:08:47.000Z</time>
      </trkpt>
      <trkpt lat="45.63912" lon="6.75349">
        <ele>1527</ele>
        <time>2020-01-08T08:08:51.000Z</time>
      </trkpt>
      <trkpt lat="45.63913" lon="6.75348">
        <ele>1527.1999511719</ele>
        <time>2020-01-08T08:08:52.000Z</time>
      </trkpt>
      <trkpt lat="45.63913" lon="6.75349">
        <ele>1527.4000244141</ele>
        <time>2020-01-08T08:08:53.000Z</time>
      </trkpt>
      <trkpt lat="45.63917" lon="6.75348">
        <ele>1528</ele>
        <time>2020-01-08T08:08:56.000Z</time>
      </trkpt>
      <trkpt lat="45.6392" lon="6.75348">
        <ele>1528.1999511719</ele>
        <time>2020-01-08T08:08:58.000Z</time>
      </trkpt>
      <trkpt lat="45.6392" lon="6.75348">
        <ele>1528.4000244141</ele>
        <time>2020-01-08T08:08:59.000Z</time>
      </trkpt>
      <trkpt lat="45.63923" lon="6.75349">
        <ele>1528.5999755859</ele>
        <time>2020-01-08T08:09:01.000Z</time>
      </trkpt>
      <trkpt lat="45.63928" lon="6.75351">
        <ele>1529.4000244141</ele>
        <time>2020-01-08T08:09:06.000Z</time>
      </trkpt>
      <trkpt lat="45.63929" lon="6.75351">
        <ele>1529.4000244141</ele>
        <time>2020-01-08T08:09:07.000Z</time>
      </trkpt>
      <trkpt lat="45.63934" lon="6.75354">
        <ele>1530</ele>
        <time>2020-01-08T08:09:11.000Z</time>
      </trkpt>
      <trkpt lat="45.63938" lon="6.75357">
        <ele>1530.4000244141</ele>
        <time>2020-01-08T08:09:16.000Z</time>
      </trkpt>
      <trkpt lat="45.63939" lon="6.75357">
        <ele>1530.4000244141</ele>
        <time>2020-01-08T08:09:17.000Z</time>
      </trkpt>
      <trkpt lat="45.63944" lon="6.75362">
        <ele>1531</ele>
        <time>2020-01-08T08:09:22.000Z</time>
      </trkpt>
      <trkpt lat="45.63947" lon="6.75364">
        <ele>1531.4000244141</ele>
        <time>2020-01-08T08:09:26.000Z</time>
      </trkpt>
      <trkpt lat="45.63948" lon="6.75365">
        <ele>1531.8000488281</ele>
        <time>2020-01-08T08:09:27.000Z</time>
      </trkpt>
      <trkpt lat="45.63949" lon="6.75365">
        <ele>1532.1999511719</ele>
        <time>2020-01-08T08:09:31.000Z</time>
      </trkpt>
      <trkpt lat="45.63951" lon="6.75362">
        <ele>1532.4000244141</ele>
        <time>2020-01-08T08:09:33.000Z</time>
      </trkpt>
      <trkpt lat="45.63951" lon="6.75362">
        <ele>1532.4000244141</ele>
        <time>2020-01-08T08:09:35.000Z</time>
      </trkpt>
      <trkpt lat="45.63951" lon="6.75362">
        <ele>1532.5999755859</ele>
        <time>2020-01-08T08:09:36.000Z</time>
      </trkpt>
      <trkpt lat="45.63951" lon="6.75358">
        <ele>1532.5999755859</ele>
        <time>2020-01-08T08:09:41.000Z</time>
      </trkpt>
      <trkpt lat="45.6395" lon="6.75356">
        <ele>1533.4000244141</ele>
        <time>2020-01-08T08:09:47.000Z</time>
      </trkpt>
      <trkpt lat="45.63949" lon="6.75353">
        <ele>1533.5999755859</ele>
        <time>2020-01-08T08:09:49.000Z</time>
      </trkpt>
      <trkpt lat="45.63947" lon="6.75349">
        <ele>1534</ele>
        <time>2020-01-08T08:09:53.000Z</time>
      </trkpt>
      <trkpt lat="45.63947" lon="6.75344">
        <ele>1534.8000488281</ele>
        <time>2020-01-08T08:09:58.000Z</time>
      </trkpt>
      <trkpt lat="45.63946" lon="6.75339">
        <ele>1536</ele>
        <time>2020-01-08T08:10:03.000Z</time>
      </trkpt>
      <trkpt lat="45.63943" lon="6.75335">
        <ele>1536.8000488281</ele>
        <time>2020-01-08T08:10:07.000Z</time>
      </trkpt>
      <trkpt lat="45.63942" lon="6.75335">
        <ele>1537</ele>
        <time>2020-01-08T08:10:08.000Z</time>
      </trkpt>
      <trkpt lat="45.63938" lon="6.75333">
        <ele>1538.1999511719</ele>
        <time>2020-01-08T08:10:13.000Z</time>
      </trkpt>
      <trkpt lat="45.63937" lon="6.75332">
        <ele>1538.4000244141</ele>
        <time>2020-01-08T08:10:14.000Z</time>
      </trkpt>
      <trkpt lat="45.63936" lon="6.75327">
        <ele>1539.4000244141</ele>
        <time>2020-01-08T08:10:18.000Z</time>
      </trkpt>
      <trkpt lat="45.63936" lon="6.75326">
        <ele>1539.4000244141</ele>
        <time>2020-01-08T08:10:19.000Z</time>
      </trkpt>
      <trkpt lat="45.63939" lon="6.75324">
        <ele>1540.5999755859</ele>
        <time>2020-01-08T08:10:25.000Z</time>
      </trkpt>
      <trkpt lat="45.63942" lon="6.75326">
        <ele>1541.4000244141</ele>
        <time>2020-01-08T08:10:31.000Z</time>
      </trkpt>
      <trkpt lat="45.63943" lon="6.75326">
        <ele>1541.8000488281</ele>
        <time>2020-01-08T08:10:33.000Z</time>
      </trkpt>
      <trkpt lat="45.63945" lon="6.75323">
        <ele>1542.4000244141</ele>
        <time>2020-01-08T08:10:36.000Z</time>
      </trkpt>
      <trkpt lat="45.63945" lon="6.75321">
        <ele>1543</ele>
        <time>2020-01-08T08:10:39.000Z</time>
      </trkpt>
      <trkpt lat="45.63945" lon="6.75321">
        <ele>1543.1999511719</ele>
        <time>2020-01-08T08:10:40.000Z</time>
      </trkpt>
      <trkpt lat="45.63945" lon="6.75319">
        <ele>1543.1999511719</ele>
        <time>2020-01-08T08:10:41.000Z</time>
      </trkpt>
      <trkpt lat="45.63946" lon="6.75317">
        <ele>1544</ele>
        <time>2020-01-08T08:10:43.000Z</time>
      </trkpt>
      <trkpt lat="45.63946" lon="6.75317">
        <ele>1544.5999755859</ele>
        <time>2020-01-08T08:10:45.000Z</time>
      </trkpt>
      <trkpt lat="45.63948" lon="6.75317">
        <ele>1545.1999511719</ele>
        <time>2020-01-08T08:10:47.000Z</time>
      </trkpt>
      <trkpt lat="45.63948" lon="6.75318">
        <ele>1545.5999755859</ele>
        <time>2020-01-08T08:10:53.000Z</time>
      </trkpt>
      <trkpt lat="45.63952" lon="6.7532">
        <ele>1545.5999755859</ele>
        <time>2020-01-08T08:11:00.000Z</time>
      </trkpt>
      <trkpt lat="45.63956" lon="6.75324">
        <ele>1546.4000244141</ele>
        <time>2020-01-08T08:11:05.000Z</time>
      </trkpt>
      <trkpt lat="45.63958" lon="6.75326">
        <ele>1547.1999511719</ele>
        <time>2020-01-08T08:11:07.000Z</time>
      </trkpt>
      <trkpt lat="45.6396" lon="6.75326">
        <ele>1547.4000244141</ele>
        <time>2020-01-08T08:11:09.000Z</time>
      </trkpt>
      <trkpt lat="45.6396" lon="6.75326">
        <ele>1547.5999755859</ele>
        <time>2020-01-08T08:11:10.000Z</time>
      </trkpt>
      <trkpt lat="45.63963" lon="6.75327">
        <ele>1548.5999755859</ele>
        <time>2020-01-08T08:11:14.000Z</time>
      </trkpt>
      <trkpt lat="45.63964" lon="6.75327">
        <ele>1549.1999511719</ele>
        <time>2020-01-08T08:11:17.000Z</time>
      </trkpt>
      <trkpt lat="45.63965" lon="6.75328">
        <ele>1549.5999755859</ele>
        <time>2020-01-08T08:11:19.000Z</time>
      </trkpt>
      <trkpt lat="45.6397" lon="6.7533">
        <ele>1550.8000488281</ele>
        <time>2020-01-08T08:11:24.000Z</time>
      </trkpt>
      <trkpt lat="45.63973" lon="6.75331">
        <ele>1551.8000488281</ele>
        <time>2020-01-08T08:11:30.000Z</time>
      </trkpt>
      <trkpt lat="45.63975" lon="6.75331">
        <ele>1552</ele>
        <time>2020-01-08T08:11:31.000Z</time>
      </trkpt>
      <trkpt lat="45.63977" lon="6.75331">
        <ele>1552.8000488281</ele>
        <time>2020-01-08T08:11:35.000Z</time>
      </trkpt>
      <trkpt lat="45.63978" lon="6.75332">
        <ele>1553</ele>
        <time>2020-01-08T08:11:37.000Z</time>
      </trkpt>
      <trkpt lat="45.63983" lon="6.75334">
        <ele>1553.5999755859</ele>
        <time>2020-01-08T08:11:43.000Z</time>
      </trkpt>
      <trkpt lat="45.63985" lon="6.75333">
        <ele>1553.8000488281</ele>
        <time>2020-01-08T08:11:47.000Z</time>
      </trkpt>
      <trkpt lat="45.63985" lon="6.75332">
        <ele>1553.8000488281</ele>
        <time>2020-01-08T08:11:48.000Z</time>
      </trkpt>
      <trkpt lat="45.63984" lon="6.75327">
        <ele>1554.5999755859</ele>
        <time>2020-01-08T08:11:54.000Z</time>
      </trkpt>
      <trkpt lat="45.63984" lon="6.75327">
        <ele>1555</ele>
        <time>2020-01-08T08:11:55.000Z</time>
      </trkpt>
      <trkpt lat="45.63984" lon="6.75326">
        <ele>1556.1999511719</ele>
        <time>2020-01-08T08:11:58.000Z</time>
      </trkpt>
      <trkpt lat="45.63983" lon="6.75324">
        <ele>1556.1999511719</ele>
        <time>2020-01-08T08:11:59.000Z</time>
      </trkpt>
      <trkpt lat="45.63981" lon="6.7532">
        <ele>1556.4000244141</ele>
        <time>2020-01-08T08:12:01.000Z</time>
      </trkpt>
      <trkpt lat="45.63979" lon="6.75314">
        <ele>1556.4000244141</ele>
        <time>2020-01-08T08:12:05.000Z</time>
      </trkpt>
      <trkpt lat="45.63979" lon="6.75311">
        <ele>1557.1999511719</ele>
        <time>2020-01-08T08:12:10.000Z</time>
      </trkpt>
      <trkpt lat="45.63979" lon="6.75311">
        <ele>1557.4000244141</ele>
        <time>2020-01-08T08:12:11.000Z</time>
      </trkpt>
      <trkpt lat="45.63979" lon="6.75304">
        <ele>1558.1999511719</ele>
        <time>2020-01-08T08:12:16.000Z</time>
      </trkpt>
      <trkpt lat="45.63978" lon="6.753">
        <ele>1559.4000244141</ele>
        <time>2020-01-08T08:12:19.000Z</time>
      </trkpt>
      <trkpt lat="45.63978" lon="6.75297">
        <ele>1559.5999755859</ele>
        <time>2020-01-08T08:12:21.000Z</time>
      </trkpt>
      <trkpt lat="45.63977" lon="6.75289">
        <ele>1560.4000244141</ele>
        <time>2020-01-08T08:12:26.000Z</time>
      </trkpt>
      <trkpt lat="45.63979" lon="6.75287">
        <ele>1560.8000488281</ele>
        <time>2020-01-08T08:12:31.000Z</time>
      </trkpt>
      <trkpt lat="45.63984" lon="6.75289">
        <ele>1561.5999755859</ele>
        <time>2020-01-08T08:12:36.000Z</time>
      </trkpt>
      <trkpt lat="45.63985" lon="6.75292">
        <ele>1562.1999511719</ele>
        <time>2020-01-08T08:12:39.000Z</time>
      </trkpt>
      <trkpt lat="45.63987" lon="6.75293">
        <ele>1562.1999511719</ele>
        <time>2020-01-08T08:12:41.000Z</time>
      </trkpt>
      <trkpt lat="45.63988" lon="6.75296">
        <ele>1562.5999755859</ele>
        <time>2020-01-08T08:12:43.000Z</time>
      </trkpt>
      <trkpt lat="45.63989" lon="6.753">
        <ele>1563.4000244141</ele>
        <time>2020-01-08T08:12:48.000Z</time>
      </trkpt>
      <trkpt lat="45.63991" lon="6.75298">
        <ele>1563.5999755859</ele>
        <time>2020-01-08T08:12:51.000Z</time>
      </trkpt>
      <trkpt lat="45.63991" lon="6.75297">
        <ele>1563.8000488281</ele>
        <time>2020-01-08T08:12:53.000Z</time>
      </trkpt>
      <trkpt lat="45.63991" lon="6.75293">
        <ele>1563.8000488281</ele>
        <time>2020-01-08T08:12:57.000Z</time>
      </trkpt>
      <trkpt lat="45.63992" lon="6.75291">
        <ele>1563.8000488281</ele>
        <time>2020-01-08T08:12:58.000Z</time>
      </trkpt>
      <trkpt lat="45.63992" lon="6.75289">
        <ele>1564.1999511719</ele>
        <time>2020-01-08T08:13:01.000Z</time>
      </trkpt>
      <trkpt lat="45.63993" lon="6.75288">
        <ele>1564.8000488281</ele>
        <time>2020-01-08T08:13:03.000Z</time>
      </trkpt>
      <trkpt lat="45.63996" lon="6.75287">
        <ele>1565.5999755859</ele>
        <time>2020-01-08T08:13:08.000Z</time>
      </trkpt>
      <trkpt lat="45.63996" lon="6.75285">
        <ele>1566</ele>
        <time>2020-01-08T08:13:10.000Z</time>
      </trkpt>
      <trkpt lat="45.63995" lon="6.75282">
        <ele>1566.8000488281</ele>
        <time>2020-01-08T08:13:13.000Z</time>
      </trkpt>
      <trkpt lat="45.63994" lon="6.75281">
        <ele>1567.1999511719</ele>
        <time>2020-01-08T08:13:15.000Z</time>
      </trkpt>
      <trkpt lat="45.63995" lon="6.75278">
        <ele>1568.1999511719</ele>
        <time>2020-01-08T08:13:19.000Z</time>
      </trkpt>
      <trkpt lat="45.63995" lon="6.75277">
        <ele>1568.4000244141</ele>
        <time>2020-01-08T08:13:20.000Z</time>
      </trkpt>
      <trkpt lat="45.63996" lon="6.75274">
        <ele>1569.4000244141</ele>
        <time>2020-01-08T08:13:24.000Z</time>
      </trkpt>
      <trkpt lat="45.63996" lon="6.75274">
        <ele>1569.5999755859</ele>
        <time>2020-01-08T08:13:25.000Z</time>
      </trkpt>
      <trkpt lat="45.63998" lon="6.75272">
        <ele>1570.4000244141</ele>
        <time>2020-01-08T08:13:28.000Z</time>
      </trkpt>
      <trkpt lat="45.64001" lon="6.7527">
        <ele>1571.4000244141</ele>
        <time>2020-01-08T08:13:31.000Z</time>
      </trkpt>
      <trkpt lat="45.64001" lon="6.7527">
        <ele>1571.5999755859</ele>
        <time>2020-01-08T08:13:32.000Z</time>
      </trkpt>
      <trkpt lat="45.64003" lon="6.75268">
        <ele>1572</ele>
        <time>2020-01-08T08:13:35.000Z</time>
      </trkpt>
      <trkpt lat="45.64004" lon="6.75266">
        <ele>1572.8000488281</ele>
        <time>2020-01-08T08:13:39.000Z</time>
      </trkpt>
      <trkpt lat="45.64006" lon="6.75266">
        <ele>1573.1999511719</ele>
        <time>2020-01-08T08:13:42.000Z</time>
      </trkpt>
      <trkpt lat="45.6401" lon="6.75266">
        <ele>1573.8000488281</ele>
        <time>2020-01-08T08:13:46.000Z</time>
      </trkpt>
      <trkpt lat="45.6401" lon="6.75267">
        <ele>1574</ele>
        <time>2020-01-08T08:13:47.000Z</time>
      </trkpt>
      <trkpt lat="45.64014" lon="6.75268">
        <ele>1575</ele>
        <time>2020-01-08T08:13:53.000Z</time>
      </trkpt>
      <trkpt lat="45.64014" lon="6.75268">
        <ele>1575.4000244141</ele>
        <time>2020-01-08T08:13:54.000Z</time>
      </trkpt>
      <trkpt lat="45.64015" lon="6.75266">
        <ele>1576</ele>
        <time>2020-01-08T08:13:58.000Z</time>
      </trkpt>
      <trkpt lat="45.64015" lon="6.75264">
        <ele>1576.1999511719</ele>
        <time>2020-01-08T08:13:59.000Z</time>
      </trkpt>
      <trkpt lat="45.64015" lon="6.75258">
        <ele>1577.1999511719</ele>
        <time>2020-01-08T08:14:05.000Z</time>
      </trkpt>
      <trkpt lat="45.64014" lon="6.75252">
        <ele>1578.4000244141</ele>
        <time>2020-01-08T08:14:09.000Z</time>
      </trkpt>
      <trkpt lat="45.64014" lon="6.7525">
        <ele>1578.8000488281</ele>
        <time>2020-01-08T08:14:11.000Z</time>
      </trkpt>
      <trkpt lat="45.64014" lon="6.75249">
        <ele>1579.4000244141</ele>
        <time>2020-01-08T08:14:15.000Z</time>
      </trkpt>
      <trkpt lat="45.64015" lon="6.75247">
        <ele>1579.5999755859</ele>
        <time>2020-01-08T08:14:17.000Z</time>
      </trkpt>
      <trkpt lat="45.64016" lon="6.75243">
        <ele>1580.4000244141</ele>
        <time>2020-01-08T08:14:22.000Z</time>
      </trkpt>
      <trkpt lat="45.64016" lon="6.75239">
        <ele>1581.4000244141</ele>
        <time>2020-01-08T08:14:27.000Z</time>
      </trkpt>
      <trkpt lat="45.64017" lon="6.75237">
        <ele>1582</ele>
        <time>2020-01-08T08:14:29.000Z</time>
      </trkpt>
      <trkpt lat="45.64017" lon="6.75237">
        <ele>1582.4000244141</ele>
        <time>2020-01-08T08:14:31.000Z</time>
      </trkpt>
      <trkpt lat="45.64017" lon="6.75237">
        <ele>1582.5999755859</ele>
        <time>2020-01-08T08:14:32.000Z</time>
      </trkpt>
      <trkpt lat="45.6402" lon="6.75235">
        <ele>1583.5999755859</ele>
        <time>2020-01-08T08:14:36.000Z</time>
      </trkpt>
      <trkpt lat="45.6402" lon="6.75235">
        <ele>1583.8000488281</ele>
        <time>2020-01-08T08:14:37.000Z</time>
      </trkpt>
      <trkpt lat="45.64023" lon="6.75231">
        <ele>1584.8000488281</ele>
        <time>2020-01-08T08:14:41.000Z</time>
      </trkpt>
      <trkpt lat="45.64023" lon="6.75231">
        <ele>1585.1999511719</ele>
        <time>2020-01-08T08:14:42.000Z</time>
      </trkpt>
      <trkpt lat="45.64025" lon="6.7523">
        <ele>1585.1999511719</ele>
        <time>2020-01-08T08:14:43.000Z</time>
      </trkpt>
      <trkpt lat="45.64025" lon="6.7523">
        <ele>1585.5999755859</ele>
        <time>2020-01-08T08:14:45.000Z</time>
      </trkpt>
      <trkpt lat="45.64028" lon="6.7523">
        <ele>1586.4000244141</ele>
        <time>2020-01-08T08:14:48.000Z</time>
      </trkpt>
      <trkpt lat="45.64029" lon="6.75229">
        <ele>1586.8000488281</ele>
        <time>2020-01-08T08:14:50.000Z</time>
      </trkpt>
      <trkpt lat="45.64033" lon="6.75227">
        <ele>1587.4000244141</ele>
        <time>2020-01-08T08:14:55.000Z</time>
      </trkpt>
      <trkpt lat="45.64036" lon="6.75227">
        <ele>1588.1999511719</ele>
        <time>2020-01-08T08:14:59.000Z</time>
      </trkpt>
      <trkpt lat="45.64036" lon="6.75227">
        <ele>1588.4000244141</ele>
        <time>2020-01-08T08:15:00.000Z</time>
      </trkpt>
      <trkpt lat="45.6404" lon="6.75227">
        <ele>1589.5999755859</ele>
        <time>2020-01-08T08:15:05.000Z</time>
      </trkpt>
      <trkpt lat="45.6404" lon="6.75227">
        <ele>1590</ele>
        <time>2020-01-08T08:15:06.000Z</time>
      </trkpt>
      <trkpt lat="45.64043" lon="6.75227">
        <ele>1590.8000488281</ele>
        <time>2020-01-08T08:15:10.000Z</time>
      </trkpt>
      <trkpt lat="45.64044" lon="6.75227">
        <ele>1591</ele>
        <time>2020-01-08T08:15:12.000Z</time>
      </trkpt>
      <trkpt lat="45.64048" lon="6.75226">
        <ele>1591.5999755859</ele>
        <time>2020-01-08T08:15:17.000Z</time>
      </trkpt>
      <trkpt lat="45.64049" lon="6.75225">
        <ele>1591.8000488281</ele>
        <time>2020-01-08T08:15:18.000Z</time>
      </trkpt>
      <trkpt lat="45.64053" lon="6.75225">
        <ele>1592.8000488281</ele>
        <time>2020-01-08T08:15:23.000Z</time>
      </trkpt>
      <trkpt lat="45.64055" lon="6.75225">
        <ele>1593</ele>
        <time>2020-01-08T08:15:24.000Z</time>
      </trkpt>
      <trkpt lat="45.64058" lon="6.75225">
        <ele>1593.5999755859</ele>
        <time>2020-01-08T08:15:28.000Z</time>
      </trkpt>
      <trkpt lat="45.64059" lon="6.75224">
        <ele>1594</ele>
        <time>2020-01-08T08:15:32.000Z</time>
      </trkpt>
      <trkpt lat="45.64059" lon="6.75224">
        <ele>1594.1999511719</ele>
        <time>2020-01-08T08:15:33.000Z</time>
      </trkpt>
      <trkpt lat="45.64061" lon="6.75225">
        <ele>1593.5999755859</ele>
        <time>2020-01-08T08:15:41.000Z</time>
      </trkpt>
      <trkpt lat="45.64061" lon="6.75224">
        <ele>1593.8000488281</ele>
        <time>2020-01-08T08:15:43.000Z</time>
      </trkpt>
      <trkpt lat="45.64064" lon="6.75224">
        <ele>1594.5999755859</ele>
        <time>2020-01-08T08:15:45.000Z</time>
      </trkpt>
      <trkpt lat="45.64065" lon="6.75224">
        <ele>1595</ele>
        <time>2020-01-08T08:15:46.000Z</time>
      </trkpt>
      <trkpt lat="45.64069" lon="6.75224">
        <ele>1595.1999511719</ele>
        <time>2020-01-08T08:15:51.000Z</time>
      </trkpt>
      <trkpt lat="45.64076" lon="6.75225">
        <ele>1595.4000244141</ele>
        <time>2020-01-08T08:15:57.000Z</time>
      </trkpt>
      <trkpt lat="45.64081" lon="6.75222">
        <ele>1595.8000488281</ele>
        <time>2020-01-08T08:16:02.000Z</time>
      </trkpt>
      <trkpt lat="45.64084" lon="6.75222">
        <ele>1596.1999511719</ele>
        <time>2020-01-08T08:16:04.000Z</time>
      </trkpt>
      <trkpt lat="45.64086" lon="6.7522">
        <ele>1597</ele>
        <time>2020-01-08T08:16:08.000Z</time>
      </trkpt>
      <trkpt lat="45.64087" lon="6.75219">
        <ele>1597.1999511719</ele>
        <time>2020-01-08T08:16:10.000Z</time>
      </trkpt>
      <trkpt lat="45.64087" lon="6.75218">
        <ele>1597.5999755859</ele>
        <time>2020-01-08T08:16:14.000Z</time>
      </trkpt>
      <trkpt lat="45.64087" lon="6.75218">
        <ele>1598</ele>
        <time>2020-01-08T08:16:26.000Z</time>
      </trkpt>
      <trkpt lat="45.64087" lon="6.75218">
        <ele>1597.8000488281</ele>
        <time>2020-01-08T08:16:39.000Z</time>
      </trkpt>
      <trkpt lat="45.64088" lon="6.75217">
        <ele>1597.8000488281</ele>
        <time>2020-01-08T08:16:51.000Z</time>
      </trkpt>
      <trkpt lat="45.64091" lon="6.75216">
        <ele>1598.4000244141</ele>
        <time>2020-01-08T08:16:56.000Z</time>
      </trkpt>
      <trkpt lat="45.64091" lon="6.75218">
        <ele>1599</ele>
        <time>2020-01-08T08:17:06.000Z</time>
      </trkpt>
      <trkpt lat="45.64091" lon="6.75218">
        <ele>1599</ele>
        <time>2020-01-08T08:17:19.000Z</time>
      </trkpt>
      <trkpt lat="45.64092" lon="6.75216">
        <ele>1598.8000488281</ele>
        <time>2020-01-08T08:17:26.000Z</time>
      </trkpt>
      <trkpt lat="45.64092" lon="6.75213">
        <ele>1598.8000488281</ele>
        <time>2020-01-08T08:17:27.000Z</time>
      </trkpt>
      <trkpt lat="45.64093" lon="6.75209">
        <ele>1599</ele>
        <time>2020-01-08T08:17:30.000Z</time>
      </trkpt>
      <trkpt lat="45.64094" lon="6.75203">
        <ele>1599.5999755859</ele>
        <time>2020-01-08T08:17:34.000Z</time>
      </trkpt>
      <trkpt lat="45.64095" lon="6.75203">
        <ele>1599.8000488281</ele>
        <time>2020-01-08T08:17:35.000Z</time>
      </trkpt>
      <trkpt lat="45.64096" lon="6.75198">
        <ele>1600.5999755859</ele>
        <time>2020-01-08T08:17:40.000Z</time>
      </trkpt>
      <trkpt lat="45.64096" lon="6.75198">
        <ele>1600.5999755859</ele>
        <time>2020-01-08T08:17:41.000Z</time>
      </trkpt>
      <trkpt lat="45.64096" lon="6.75198">
        <ele>1600.8000488281</ele>
        <time>2020-01-08T08:17:59.000Z</time>
      </trkpt>
      <trkpt lat="45.64097" lon="6.75198">
        <ele>1600.8000488281</ele>
        <time>2020-01-08T08:18:13.000Z</time>
      </trkpt>
      <trkpt lat="45.641" lon="6.75198">
        <ele>1601</ele>
        <time>2020-01-08T08:18:24.000Z</time>
      </trkpt>
      <trkpt lat="45.64104" lon="6.75197">
        <ele>1601.1999511719</ele>
        <time>2020-01-08T08:18:29.000Z</time>
      </trkpt>
      <trkpt lat="45.6411" lon="6.75194">
        <ele>1601.8000488281</ele>
        <time>2020-01-08T08:18:34.000Z</time>
      </trkpt>
      <trkpt lat="45.64114" lon="6.75192">
        <ele>1602.1999511719</ele>
        <time>2020-01-08T08:18:39.000Z</time>
      </trkpt>
      <trkpt lat="45.64116" lon="6.75191">
        <ele>1602.4000244141</ele>
        <time>2020-01-08T08:18:41.000Z</time>
      </trkpt>
      <trkpt lat="45.6412" lon="6.7519">
        <ele>1602.8000488281</ele>
        <time>2020-01-08T08:18:44.000Z</time>
      </trkpt>
      <trkpt lat="45.64122" lon="6.7519">
        <ele>1602.8000488281</ele>
        <time>2020-01-08T08:18:45.000Z</time>
      </trkpt>
      <trkpt lat="45.64128" lon="6.75188">
        <ele>1603.5999755859</ele>
        <time>2020-01-08T08:18:50.000Z</time>
      </trkpt>
      <trkpt lat="45.64129" lon="6.75186">
        <ele>1604</ele>
        <time>2020-01-08T08:18:52.000Z</time>
      </trkpt>
      <trkpt lat="45.64133" lon="6.75184">
        <ele>1604.5999755859</ele>
        <time>2020-01-08T08:18:55.000Z</time>
      </trkpt>
      <trkpt lat="45.64138" lon="6.75179">
        <ele>1604.8000488281</ele>
        <time>2020-01-08T08:19:00.000Z</time>
      </trkpt>
      <trkpt lat="45.64142" lon="6.75173">
        <ele>1605.1999511719</ele>
        <time>2020-01-08T08:19:05.000Z</time>
      </trkpt>
      <trkpt lat="45.64147" lon="6.75166">
        <ele>1605.5999755859</ele>
        <time>2020-01-08T08:19:10.000Z</time>
      </trkpt>
      <trkpt lat="45.64147" lon="6.75164">
        <ele>1605.5999755859</ele>
        <time>2020-01-08T08:19:11.000Z</time>
      </trkpt>
      <trkpt lat="45.64148" lon="6.7516">
        <ele>1606</ele>
        <time>2020-01-08T08:19:14.000Z</time>
      </trkpt>
      <trkpt lat="45.64149" lon="6.75158">
        <ele>1606.1999511719</ele>
        <time>2020-01-08T08:19:16.000Z</time>
      </trkpt>
      <trkpt lat="45.64152" lon="6.75154">
        <ele>1606.8000488281</ele>
        <time>2020-01-08T08:19:20.000Z</time>
      </trkpt>
      <trkpt lat="45.64154" lon="6.75152">
        <ele>1607.1999511719</ele>
        <time>2020-01-08T08:19:22.000Z</time>
      </trkpt>
      <trkpt lat="45.64156" lon="6.75147">
        <ele>1607.4000244141</ele>
        <time>2020-01-08T08:19:26.000Z</time>
      </trkpt>
      <trkpt lat="45.64157" lon="6.75144">
        <ele>1608</ele>
        <time>2020-01-08T08:19:30.000Z</time>
      </trkpt>
      <trkpt lat="45.64159" lon="6.75138">
        <ele>1608.1999511719</ele>
        <time>2020-01-08T08:19:33.000Z</time>
      </trkpt>
      <trkpt lat="45.64161" lon="6.75135">
        <ele>1608.4000244141</ele>
        <time>2020-01-08T08:19:35.000Z</time>
      </trkpt>
      <trkpt lat="45.64166" lon="6.75131">
        <ele>1609</ele>
        <time>2020-01-08T08:19:40.000Z</time>
      </trkpt>
      <trkpt lat="45.64169" lon="6.75126">
        <ele>1609.1999511719</ele>
        <time>2020-01-08T08:19:44.000Z</time>
      </trkpt>
      <trkpt lat="45.64172" lon="6.75121">
        <ele>1609.5999755859</ele>
        <time>2020-01-08T08:19:48.000Z</time>
      </trkpt>
      <trkpt lat="45.64175" lon="6.75116">
        <ele>1610</ele>
        <time>2020-01-08T08:19:53.000Z</time>
      </trkpt>
      <trkpt lat="45.64177" lon="6.75113">
        <ele>1610.1999511719</ele>
        <time>2020-01-08T08:19:55.000Z</time>
      </trkpt>
      <trkpt lat="45.64178" lon="6.75112">
        <ele>1610.4000244141</ele>
        <time>2020-01-08T08:19:57.000Z</time>
      </trkpt>
      <trkpt lat="45.64181" lon="6.7511">
        <ele>1610.5999755859</ele>
        <time>2020-01-08T08:19:58.000Z</time>
      </trkpt>
      <trkpt lat="45.64183" lon="6.75108">
        <ele>1611</ele>
        <time>2020-01-08T08:20:01.000Z</time>
      </trkpt>
      <trkpt lat="45.64184" lon="6.75105">
        <ele>1611.1999511719</ele>
        <time>2020-01-08T08:20:04.000Z</time>
      </trkpt>
      <trkpt lat="45.64184" lon="6.75105">
        <ele>1611.1999511719</ele>
        <time>2020-01-08T08:20:05.000Z</time>
      </trkpt>
      <trkpt lat="45.64186" lon="6.75103">
        <ele>1611.1999511719</ele>
        <time>2020-01-08T08:20:06.000Z</time>
      </trkpt>
      <trkpt lat="45.64188" lon="6.75099">
        <ele>1611.8000488281</ele>
        <time>2020-01-08T08:20:10.000Z</time>
      </trkpt>
      <trkpt lat="45.6419" lon="6.75095">
        <ele>1612.1999511719</ele>
        <time>2020-01-08T08:20:14.000Z</time>
      </trkpt>
      <trkpt lat="45.64191" lon="6.75093">
        <ele>1612.1999511719</ele>
        <time>2020-01-08T08:20:15.000Z</time>
      </trkpt>
      <trkpt lat="45.64192" lon="6.75091">
        <ele>1612.5999755859</ele>
        <time>2020-01-08T08:20:18.000Z</time>
      </trkpt>
      <trkpt lat="45.64197" lon="6.75084">
        <ele>1613</ele>
        <time>2020-01-08T08:20:22.000Z</time>
      </trkpt>
      <trkpt lat="45.64197" lon="6.75082">
        <ele>1613</ele>
        <time>2020-01-08T08:20:23.000Z</time>
      </trkpt>
      <trkpt lat="45.64198" lon="6.7508">
        <ele>1613.1999511719</ele>
        <time>2020-01-08T08:20:25.000Z</time>
      </trkpt>
      <trkpt lat="45.64198" lon="6.7508">
        <ele>1613.4000244141</ele>
        <time>2020-01-08T08:20:26.000Z</time>
      </trkpt>
      <trkpt lat="45.64198" lon="6.75078">
        <ele>1613.4000244141</ele>
        <time>2020-01-08T08:20:27.000Z</time>
      </trkpt>
      <trkpt lat="45.642" lon="6.75071">
        <ele>1614</ele>
        <time>2020-01-08T08:20:32.000Z</time>
      </trkpt>
      <trkpt lat="45.64202" lon="6.75069">
        <ele>1614</ele>
        <time>2020-01-08T08:20:33.000Z</time>
      </trkpt>
      <trkpt lat="45.64204" lon="6.75066">
        <ele>1614.5999755859</ele>
        <time>2020-01-08T08:20:36.000Z</time>
      </trkpt>
      <trkpt lat="45.64205" lon="6.75064">
        <ele>1614.5999755859</ele>
        <time>2020-01-08T08:20:37.000Z</time>
      </trkpt>
      <trkpt lat="45.64206" lon="6.7506">
        <ele>1614.8000488281</ele>
        <time>2020-01-08T08:20:40.000Z</time>
      </trkpt>
      <trkpt lat="45.64206" lon="6.7506">
        <ele>1614.8000488281</ele>
        <time>2020-01-08T08:20:41.000Z</time>
      </trkpt>
      <trkpt lat="45.64211" lon="6.75052">
        <ele>1615.5999755859</ele>
        <time>2020-01-08T08:20:47.000Z</time>
      </trkpt>
      <trkpt lat="45.64212" lon="6.7505">
        <ele>1615.5999755859</ele>
        <time>2020-01-08T08:20:48.000Z</time>
      </trkpt>
      <trkpt lat="45.64213" lon="6.75042">
        <ele>1616.1999511719</ele>
        <time>2020-01-08T08:20:53.000Z</time>
      </trkpt>
      <trkpt lat="45.64214" lon="6.75038">
        <ele>1616.4000244141</ele>
        <time>2020-01-08T08:20:56.000Z</time>
      </trkpt>
      <trkpt lat="45.64215" lon="6.75038">
        <ele>1616.5999755859</ele>
        <time>2020-01-08T08:20:57.000Z</time>
      </trkpt>
      <trkpt lat="45.64216" lon="6.75037">
        <ele>1616.5999755859</ele>
        <time>2020-01-08T08:20:58.000Z</time>
      </trkpt>
      <trkpt lat="45.64218" lon="6.75031">
        <ele>1617</ele>
        <time>2020-01-08T08:21:02.000Z</time>
      </trkpt>
      <trkpt lat="45.6422" lon="6.75027">
        <ele>1617.1999511719</ele>
        <time>2020-01-08T08:21:06.000Z</time>
      </trkpt>
      <trkpt lat="45.6422" lon="6.75024">
        <ele>1617.4000244141</ele>
        <time>2020-01-08T08:21:07.000Z</time>
      </trkpt>
      <trkpt lat="45.64222" lon="6.7502">
        <ele>1617.8000488281</ele>
        <time>2020-01-08T08:21:11.000Z</time>
      </trkpt>
      <trkpt lat="45.64222" lon="6.75018">
        <ele>1617.8000488281</ele>
        <time>2020-01-08T08:21:12.000Z</time>
      </trkpt>
      <trkpt lat="45.64225" lon="6.75015">
        <ele>1618.1999511719</ele>
        <time>2020-01-08T08:21:15.000Z</time>
      </trkpt>
      <trkpt lat="45.64228" lon="6.75014">
        <ele>1618.4000244141</ele>
        <time>2020-01-08T08:21:18.000Z</time>
      </trkpt>
      <trkpt lat="45.64231" lon="6.75013">
        <ele>1618.8000488281</ele>
        <time>2020-01-08T08:21:22.000Z</time>
      </trkpt>
      <trkpt lat="45.64231" lon="6.75012">
        <ele>1618.8000488281</ele>
        <time>2020-01-08T08:21:23.000Z</time>
      </trkpt>
      <trkpt lat="45.64234" lon="6.75009">
        <ele>1619.5999755859</ele>
        <time>2020-01-08T08:21:29.000Z</time>
      </trkpt>
      <trkpt lat="45.64236" lon="6.75007">
        <ele>1619.8000488281</ele>
        <time>2020-01-08T08:21:31.000Z</time>
      </trkpt>
      <trkpt lat="45.64239" lon="6.75005">
        <ele>1620.1999511719</ele>
        <time>2020-01-08T08:21:35.000Z</time>
      </trkpt>
      <trkpt lat="45.64245" lon="6.74998">
        <ele>1620.5999755859</ele>
        <time>2020-01-08T08:21:40.000Z</time>
      </trkpt>
      <trkpt lat="45.64246" lon="6.74998">
        <ele>1620.8000488281</ele>
        <time>2020-01-08T08:21:41.000Z</time>
      </trkpt>
      <trkpt lat="45.6425" lon="6.74993">
        <ele>1621</ele>
        <time>2020-01-08T08:21:45.000Z</time>
      </trkpt>
      <trkpt lat="45.64253" lon="6.74989">
        <ele>1621.5999755859</ele>
        <time>2020-01-08T08:21:49.000Z</time>
      </trkpt>
      <trkpt lat="45.64254" lon="6.74988">
        <ele>1621.5999755859</ele>
        <time>2020-01-08T08:21:50.000Z</time>
      </trkpt>
      <trkpt lat="45.64255" lon="6.74986">
        <ele>1621.8000488281</ele>
        <time>2020-01-08T08:21:51.000Z</time>
      </trkpt>
      <trkpt lat="45.64257" lon="6.74984">
        <ele>1622.1999511719</ele>
        <time>2020-01-08T08:21:55.000Z</time>
      </trkpt>
      <trkpt lat="45.64257" lon="6.74982">
        <ele>1622.1999511719</ele>
        <time>2020-01-08T08:21:56.000Z</time>
      </trkpt>
      <trkpt lat="45.64258" lon="6.7498">
        <ele>1622.5999755859</ele>
        <time>2020-01-08T08:22:00.000Z</time>
      </trkpt>
      <trkpt lat="45.6426" lon="6.74976">
        <ele>1622.5999755859</ele>
        <time>2020-01-08T08:22:02.000Z</time>
      </trkpt>
      <trkpt lat="45.64262" lon="6.74975">
        <ele>1622.8000488281</ele>
        <time>2020-01-08T08:22:04.000Z</time>
      </trkpt>
      <trkpt lat="45.64264" lon="6.74972">
        <ele>1623</ele>
        <time>2020-01-08T08:22:06.000Z</time>
      </trkpt>
      <trkpt lat="45.64268" lon="6.74968">
        <ele>1623.5999755859</ele>
        <time>2020-01-08T08:22:12.000Z</time>
      </trkpt>
      <trkpt lat="45.64273" lon="6.74963">
        <ele>1623.5999755859</ele>
        <time>2020-01-08T08:22:17.000Z</time>
      </trkpt>
      <trkpt lat="45.64274" lon="6.7496">
        <ele>1623.8000488281</ele>
        <time>2020-01-08T08:22:19.000Z</time>
      </trkpt>
      <trkpt lat="45.64275" lon="6.74959">
        <ele>1624.1999511719</ele>
        <time>2020-01-08T08:22:21.000Z</time>
      </trkpt>
      <trkpt lat="45.64277" lon="6.74956">
        <ele>1624.5999755859</ele>
        <time>2020-01-08T08:22:26.000Z</time>
      </trkpt>
      <trkpt lat="45.64277" lon="6.74956">
        <ele>1624.8000488281</ele>
        <time>2020-01-08T08:22:30.000Z</time>
      </trkpt>
      <trkpt lat="45.64278" lon="6.74953">
        <ele>1624.8000488281</ele>
        <time>2020-01-08T08:22:36.000Z</time>
      </trkpt>
      <trkpt lat="45.64281" lon="6.74949">
        <ele>1624.8000488281</ele>
        <time>2020-01-08T08:22:40.000Z</time>
      </trkpt>
      <trkpt lat="45.64284" lon="6.74943">
        <ele>1625.5999755859</ele>
        <time>2020-01-08T08:22:45.000Z</time>
      </trkpt>
      <trkpt lat="45.64287" lon="6.74935">
        <ele>1626</ele>
        <time>2020-01-08T08:22:49.000Z</time>
      </trkpt>
      <trkpt lat="45.6429" lon="6.74928">
        <ele>1626.5999755859</ele>
        <time>2020-01-08T08:22:54.000Z</time>
      </trkpt>
      <trkpt lat="45.64292" lon="6.74919">
        <ele>1627</ele>
        <time>2020-01-08T08:22:59.000Z</time>
      </trkpt>
      <trkpt lat="45.64295" lon="6.74913">
        <ele>1627.5999755859</ele>
        <time>2020-01-08T08:23:03.000Z</time>
      </trkpt>
      <trkpt lat="45.64295" lon="6.74904">
        <ele>1628</ele>
        <time>2020-01-08T08:23:08.000Z</time>
      </trkpt>
      <trkpt lat="45.64297" lon="6.74901">
        <ele>1628.1999511719</ele>
        <time>2020-01-08T08:23:11.000Z</time>
      </trkpt>
      <trkpt lat="45.64299" lon="6.74898">
        <ele>1628.4000244141</ele>
        <time>2020-01-08T08:23:13.000Z</time>
      </trkpt>
      <trkpt lat="45.64301" lon="6.74891">
        <ele>1628.8000488281</ele>
        <time>2020-01-08T08:23:18.000Z</time>
      </trkpt>
      <trkpt lat="45.64303" lon="6.74887">
        <ele>1629.1999511719</ele>
        <time>2020-01-08T08:23:22.000Z</time>
      </trkpt>
      <trkpt lat="45.64307" lon="6.7488">
        <ele>1629.5999755859</ele>
        <time>2020-01-08T08:23:26.000Z</time>
      </trkpt>
      <trkpt lat="45.6431" lon="6.74878">
        <ele>1629.8000488281</ele>
        <time>2020-01-08T08:23:28.000Z</time>
      </trkpt>
      <trkpt lat="45.64312" lon="6.74873">
        <ele>1630</ele>
        <time>2020-01-08T08:23:31.000Z</time>
      </trkpt>
      <trkpt lat="45.64312" lon="6.74872">
        <ele>1630.1999511719</ele>
        <time>2020-01-08T08:23:32.000Z</time>
      </trkpt>
      <trkpt lat="45.64314" lon="6.7487">
        <ele>1630.1999511719</ele>
        <time>2020-01-08T08:23:34.000Z</time>
      </trkpt>
      <trkpt lat="45.64315" lon="6.74867">
        <ele>1630.1999511719</ele>
        <time>2020-01-08T08:23:36.000Z</time>
      </trkpt>
      <trkpt lat="45.6432" lon="6.74858">
        <ele>1630.8000488281</ele>
        <time>2020-01-08T08:23:43.000Z</time>
      </trkpt>
      <trkpt lat="45.64324" lon="6.74853">
        <ele>1631.1999511719</ele>
        <time>2020-01-08T08:23:47.000Z</time>
      </trkpt>
      <trkpt lat="45.64325" lon="6.74852">
        <ele>1631.1999511719</ele>
        <time>2020-01-08T08:23:48.000Z</time>
      </trkpt>
      <trkpt lat="45.64325" lon="6.74851">
        <ele>1631.1999511719</ele>
        <time>2020-01-08T08:23:49.000Z</time>
      </trkpt>
      <trkpt lat="45.64326" lon="6.74846">
        <ele>1631.8000488281</ele>
        <time>2020-01-08T08:23:53.000Z</time>
      </trkpt>
      <trkpt lat="45.64326" lon="6.74845">
        <ele>1631.8000488281</ele>
        <time>2020-01-08T08:23:55.000Z</time>
      </trkpt>
      <trkpt lat="45.64327" lon="6.74841">
        <ele>1632</ele>
        <time>2020-01-08T08:23:58.000Z</time>
      </trkpt>
      <trkpt lat="45.64327" lon="6.74834">
        <ele>1632.4000244141</ele>
        <time>2020-01-08T08:24:01.000Z</time>
      </trkpt>
      <trkpt lat="45.64328" lon="6.7483">
        <ele>1632.5999755859</ele>
        <time>2020-01-08T08:24:03.000Z</time>
      </trkpt>
      <trkpt lat="45.64329" lon="6.74829">
        <ele>1632.8000488281</ele>
        <time>2020-01-08T08:24:04.000Z</time>
      </trkpt>
      <trkpt lat="45.64331" lon="6.74826">
        <ele>1633.1999511719</ele>
        <time>2020-01-08T08:24:08.000Z</time>
      </trkpt>
      <trkpt lat="45.64334" lon="6.74822">
        <ele>1633.1999511719</ele>
        <time>2020-01-08T08:24:12.000Z</time>
      </trkpt>
      <trkpt lat="45.64337" lon="6.74816">
        <ele>1633.4000244141</ele>
        <time>2020-01-08T08:24:16.000Z</time>
      </trkpt>
      <trkpt lat="45.64337" lon="6.74816">
        <ele>1633.4000244141</ele>
        <time>2020-01-08T08:24:17.000Z</time>
      </trkpt>
      <trkpt lat="45.64339" lon="6.74808">
        <ele>1633.8000488281</ele>
        <time>2020-01-08T08:24:21.000Z</time>
      </trkpt>
      <trkpt lat="45.6434" lon="6.74807">
        <ele>1634</ele>
        <time>2020-01-08T08:24:22.000Z</time>
      </trkpt>
      <trkpt lat="45.6434" lon="6.74806">
        <ele>1634.1999511719</ele>
        <time>2020-01-08T08:24:27.000Z</time>
      </trkpt>
      <trkpt lat="45.6434" lon="6.74806">
        <ele>1634.1999511719</ele>
        <time>2020-01-08T08:24:42.000Z</time>
      </trkpt>
      <trkpt lat="45.6434" lon="6.74806">
        <ele>1634.1999511719</ele>
        <time>2020-01-08T08:24:54.000Z</time>
      </trkpt>
      <trkpt lat="45.6434" lon="6.74806">
        <ele>1634.1999511719</ele>
        <time>2020-01-08T08:25:06.000Z</time>
      </trkpt>
      <trkpt lat="45.6434" lon="6.74806">
        <ele>1633.8000488281</ele>
        <time>2020-01-08T08:25:16.000Z</time>
      </trkpt>
      <trkpt lat="45.6434" lon="6.74806">
        <ele>1634.4000244141</ele>
        <time>2020-01-08T08:25:26.000Z</time>
      </trkpt>
      <trkpt lat="45.64341" lon="6.74806">
        <ele>1634.5999755859</ele>
        <time>2020-01-08T08:25:27.000Z</time>
      </trkpt>
      <trkpt lat="45.64343" lon="6.74799">
        <ele>1634.5999755859</ele>
        <time>2020-01-08T08:25:31.000Z</time>
      </trkpt>
      <trkpt lat="45.64345" lon="6.74794">
        <ele>1634.5999755859</ele>
        <time>2020-01-08T08:25:35.000Z</time>
      </trkpt>
      <trkpt lat="45.64345" lon="6.74789">
        <ele>1634.8000488281</ele>
        <time>2020-01-08T08:25:39.000Z</time>
      </trkpt>
      <trkpt lat="45.64346" lon="6.74782">
        <ele>1635.1999511719</ele>
        <time>2020-01-08T08:25:45.000Z</time>
      </trkpt>
      <trkpt lat="45.64346" lon="6.74775">
        <ele>1635.4000244141</ele>
        <time>2020-01-08T08:25:50.000Z</time>
      </trkpt>
      <trkpt lat="45.64348" lon="6.74768">
        <ele>1635.4000244141</ele>
        <time>2020-01-08T08:25:56.000Z</time>
      </trkpt>
      <trkpt lat="45.64349" lon="6.74759">
        <ele>1636</ele>
        <time>2020-01-08T08:26:01.000Z</time>
      </trkpt>
      <trkpt lat="45.64351" lon="6.74754">
        <ele>1636</ele>
        <time>2020-01-08T08:26:04.000Z</time>
      </trkpt>
      <trkpt lat="45.64352" lon="6.74751">
        <ele>1636.1999511719</ele>
        <time>2020-01-08T08:26:06.000Z</time>
      </trkpt>
      <trkpt lat="45.64353" lon="6.74745">
        <ele>1636.5999755859</ele>
        <time>2020-01-08T08:26:09.000Z</time>
      </trkpt>
      <trkpt lat="45.64355" lon="6.7474">
        <ele>1636.8000488281</ele>
        <time>2020-01-08T08:26:12.000Z</time>
      </trkpt>
      <trkpt lat="45.64356" lon="6.74735">
        <ele>1637</ele>
        <time>2020-01-08T08:26:15.000Z</time>
      </trkpt>
      <trkpt lat="45.64356" lon="6.74732">
        <ele>1637</ele>
        <time>2020-01-08T08:26:16.000Z</time>
      </trkpt>
      <trkpt lat="45.64356" lon="6.74731">
        <ele>1637.1999511719</ele>
        <time>2020-01-08T08:26:18.000Z</time>
      </trkpt>
      <trkpt lat="45.64356" lon="6.74725">
        <ele>1637.4000244141</ele>
        <time>2020-01-08T08:26:21.000Z</time>
      </trkpt>
      <trkpt lat="45.64357" lon="6.74722">
        <ele>1637.5999755859</ele>
        <time>2020-01-08T08:26:24.000Z</time>
      </trkpt>
      <trkpt lat="45.64359" lon="6.74721">
        <ele>1637.5999755859</ele>
        <time>2020-01-08T08:26:25.000Z</time>
      </trkpt>
      <trkpt lat="45.64359" lon="6.74714">
        <ele>1637.8000488281</ele>
        <time>2020-01-08T08:26:28.000Z</time>
      </trkpt>
      <trkpt lat="45.6436" lon="6.74716">
        <ele>1637.8000488281</ele>
        <time>2020-01-08T08:26:29.000Z</time>
      </trkpt>
      <trkpt lat="45.6436" lon="6.74707">
        <ele>1638.4000244141</ele>
        <time>2020-01-08T08:26:34.000Z</time>
      </trkpt>
      <trkpt lat="45.6436" lon="6.74702">
        <ele>1638.5999755859</ele>
        <time>2020-01-08T08:26:36.000Z</time>
      </trkpt>
      <trkpt lat="45.64361" lon="6.74701">
        <ele>1639</ele>
        <time>2020-01-08T08:26:38.000Z</time>
      </trkpt>
      <trkpt lat="45.64363" lon="6.74694">
        <ele>1639.1999511719</ele>
        <time>2020-01-08T08:26:42.000Z</time>
      </trkpt>
      <trkpt lat="45.64363" lon="6.7469">
        <ele>1639.8000488281</ele>
        <time>2020-01-08T08:26:45.000Z</time>
      </trkpt>
      <trkpt lat="45.64363" lon="6.74687">
        <ele>1639.8000488281</ele>
        <time>2020-01-08T08:26:47.000Z</time>
      </trkpt>
      <trkpt lat="45.64362" lon="6.74679">
        <ele>1640.5999755859</ele>
        <time>2020-01-08T08:26:52.000Z</time>
      </trkpt>
      <trkpt lat="45.64363" lon="6.74673">
        <ele>1640.8000488281</ele>
        <time>2020-01-08T08:26:55.000Z</time>
      </trkpt>
      <trkpt lat="45.64363" lon="6.74672">
        <ele>1640.8000488281</ele>
        <time>2020-01-08T08:26:56.000Z</time>
      </trkpt>
      <trkpt lat="45.64362" lon="6.74664">
        <ele>1641.4000244141</ele>
        <time>2020-01-08T08:27:02.000Z</time>
      </trkpt>
      <trkpt lat="45.64362" lon="6.7466">
        <ele>1641.8000488281</ele>
        <time>2020-01-08T08:27:04.000Z</time>
      </trkpt>
      <trkpt lat="45.64361" lon="6.7466">
        <ele>1641.8000488281</ele>
        <time>2020-01-08T08:27:05.000Z</time>
      </trkpt>
      <trkpt lat="45.64361" lon="6.74657">
        <ele>1641.8000488281</ele>
        <time>2020-01-08T08:27:06.000Z</time>
      </trkpt>
      <trkpt lat="45.64361" lon="6.7465">
        <ele>1642.1999511719</ele>
        <time>2020-01-08T08:27:11.000Z</time>
      </trkpt>
      <trkpt lat="45.64362" lon="6.74642">
        <ele>1642.8000488281</ele>
        <time>2020-01-08T08:27:17.000Z</time>
      </trkpt>
      <trkpt lat="45.64364" lon="6.74637">
        <ele>1643.4000244141</ele>
        <time>2020-01-08T08:27:21.000Z</time>
      </trkpt>
      <trkpt lat="45.64364" lon="6.74635">
        <ele>1643.4000244141</ele>
        <time>2020-01-08T08:27:22.000Z</time>
      </trkpt>
      <trkpt lat="45.64366" lon="6.74629">
        <ele>1643.8000488281</ele>
        <time>2020-01-08T08:27:26.000Z</time>
      </trkpt>
      <trkpt lat="45.64366" lon="6.74628">
        <ele>1644</ele>
        <time>2020-01-08T08:27:27.000Z</time>
      </trkpt>
      <trkpt lat="45.64367" lon="6.74626">
        <ele>1644</ele>
        <time>2020-01-08T08:27:28.000Z</time>
      </trkpt>
      <trkpt lat="45.6437" lon="6.74621">
        <ele>1644.4000244141</ele>
        <time>2020-01-08T08:27:32.000Z</time>
      </trkpt>
      <trkpt lat="45.64371" lon="6.7462">
        <ele>1644.5999755859</ele>
        <time>2020-01-08T08:27:33.000Z</time>
      </trkpt>
      <trkpt lat="45.64371" lon="6.74618">
        <ele>1644.5999755859</ele>
        <time>2020-01-08T08:27:34.000Z</time>
      </trkpt>
      <trkpt lat="45.64372" lon="6.74613">
        <ele>1644.8000488281</ele>
        <time>2020-01-08T08:27:38.000Z</time>
      </trkpt>
      <trkpt lat="45.64374" lon="6.74607">
        <ele>1645</ele>
        <time>2020-01-08T08:27:42.000Z</time>
      </trkpt>
      <trkpt lat="45.64375" lon="6.74604">
        <ele>1645.1999511719</ele>
        <time>2020-01-08T08:27:43.000Z</time>
      </trkpt>
      <trkpt lat="45.64378" lon="6.74594">
        <ele>1646</ele>
        <time>2020-01-08T08:27:49.000Z</time>
      </trkpt>
      <trkpt lat="45.64378" lon="6.74592">
        <ele>1646</ele>
        <time>2020-01-08T08:27:50.000Z</time>
      </trkpt>
      <trkpt lat="45.6438" lon="6.7459">
        <ele>1646.4000244141</ele>
        <time>2020-01-08T08:27:54.000Z</time>
      </trkpt>
      <trkpt lat="45.64383" lon="6.74585">
        <ele>1646.8000488281</ele>
        <time>2020-01-08T08:27:58.000Z</time>
      </trkpt>
      <trkpt lat="45.64384" lon="6.74583">
        <ele>1647.1999511719</ele>
        <time>2020-01-08T08:28:00.000Z</time>
      </trkpt>
      <trkpt lat="45.64386" lon="6.7458">
        <ele>1647.5999755859</ele>
        <time>2020-01-08T08:28:03.000Z</time>
      </trkpt>
      <trkpt lat="45.64389" lon="6.74573">
        <ele>1647.8000488281</ele>
        <time>2020-01-08T08:28:07.000Z</time>
      </trkpt>
      <trkpt lat="45.64392" lon="6.74569">
        <ele>1648.1999511719</ele>
        <time>2020-01-08T08:28:12.000Z</time>
      </trkpt>
      <trkpt lat="45.64393" lon="6.74567">
        <ele>1648.5999755859</ele>
        <time>2020-01-08T08:28:14.000Z</time>
      </trkpt>
      <trkpt lat="45.64395" lon="6.74564">
        <ele>1648.8000488281</ele>
        <time>2020-01-08T08:28:16.000Z</time>
      </trkpt>
      <trkpt lat="45.64398" lon="6.7456">
        <ele>1649.4000244141</ele>
        <time>2020-01-08T08:28:20.000Z</time>
      </trkpt>
      <trkpt lat="45.64399" lon="6.74559">
        <ele>1649.5999755859</ele>
        <time>2020-01-08T08:28:21.000Z</time>
      </trkpt>
      <trkpt lat="45.64404" lon="6.74552">
        <ele>1650</ele>
        <time>2020-01-08T08:28:26.000Z</time>
      </trkpt>
      <trkpt lat="45.64408" lon="6.74545">
        <ele>1650.4000244141</ele>
        <time>2020-01-08T08:28:31.000Z</time>
      </trkpt>
      <trkpt lat="45.64409" lon="6.74544">
        <ele>1650.4000244141</ele>
        <time>2020-01-08T08:28:32.000Z</time>
      </trkpt>
      <trkpt lat="45.64411" lon="6.74539">
        <ele>1651</ele>
        <time>2020-01-08T08:28:36.000Z</time>
      </trkpt>
      <trkpt lat="45.64414" lon="6.74536">
        <ele>1651.4000244141</ele>
        <time>2020-01-08T08:28:40.000Z</time>
      </trkpt>
      <trkpt lat="45.64415" lon="6.74535">
        <ele>1651.5999755859</ele>
        <time>2020-01-08T08:28:41.000Z</time>
      </trkpt>
      <trkpt lat="45.64418" lon="6.74533">
        <ele>1651.8000488281</ele>
        <time>2020-01-08T08:28:44.000Z</time>
      </trkpt>
      <trkpt lat="45.6442" lon="6.74531">
        <ele>1651.8000488281</ele>
        <time>2020-01-08T08:28:46.000Z</time>
      </trkpt>
      <trkpt lat="45.64421" lon="6.74528">
        <ele>1651.8000488281</ele>
        <time>2020-01-08T08:28:48.000Z</time>
      </trkpt>
      <trkpt lat="45.64423" lon="6.74525">
        <ele>1652.4000244141</ele>
        <time>2020-01-08T08:28:51.000Z</time>
      </trkpt>
      <trkpt lat="45.64424" lon="6.74524">
        <ele>1652.5999755859</ele>
        <time>2020-01-08T08:28:52.000Z</time>
      </trkpt>
      <trkpt lat="45.64426" lon="6.74521">
        <ele>1653</ele>
        <time>2020-01-08T08:28:55.000Z</time>
      </trkpt>
      <trkpt lat="45.6443" lon="6.74516">
        <ele>1653.1999511719</ele>
        <time>2020-01-08T08:29:00.000Z</time>
      </trkpt>
      <trkpt lat="45.64435" lon="6.74511">
        <ele>1653.5999755859</ele>
        <time>2020-01-08T08:29:06.000Z</time>
      </trkpt>
      <trkpt lat="45.6444" lon="6.74506">
        <ele>1654.1999511719</ele>
        <time>2020-01-08T08:29:13.000Z</time>
      </trkpt>
      <trkpt lat="45.64444" lon="6.74502">
        <ele>1654.5999755859</ele>
        <time>2020-01-08T08:29:17.000Z</time>
      </trkpt>
      <trkpt lat="45.64445" lon="6.745">
        <ele>1654.8000488281</ele>
        <time>2020-01-08T08:29:18.000Z</time>
      </trkpt>
      <trkpt lat="45.64448" lon="6.74498">
        <ele>1655.1999511719</ele>
        <time>2020-01-08T08:29:23.000Z</time>
      </trkpt>
      <trkpt lat="45.64453" lon="6.74495">
        <ele>1655.5999755859</ele>
        <time>2020-01-08T08:29:28.000Z</time>
      </trkpt>
      <trkpt lat="45.64454" lon="6.74495">
        <ele>1655.8000488281</ele>
        <time>2020-01-08T08:29:29.000Z</time>
      </trkpt>
      <trkpt lat="45.64457" lon="6.74493">
        <ele>1656.1999511719</ele>
        <time>2020-01-08T08:29:33.000Z</time>
      </trkpt>
      <trkpt lat="45.64461" lon="6.74491">
        <ele>1656.8000488281</ele>
        <time>2020-01-08T08:29:37.000Z</time>
      </trkpt>
      <trkpt lat="45.64462" lon="6.7449">
        <ele>1657</ele>
        <time>2020-01-08T08:29:38.000Z</time>
      </trkpt>
      <trkpt lat="45.64467" lon="6.74486">
        <ele>1657.5999755859</ele>
        <time>2020-01-08T08:29:43.000Z</time>
      </trkpt>
      <trkpt lat="45.64471" lon="6.74484">
        <ele>1657.8000488281</ele>
        <time>2020-01-08T08:29:46.000Z</time>
      </trkpt>
      <trkpt lat="45.64473" lon="6.74483">
        <ele>1658.1999511719</ele>
        <time>2020-01-08T08:29:48.000Z</time>
      </trkpt>
      <trkpt lat="45.64479" lon="6.7448">
        <ele>1658.8000488281</ele>
        <time>2020-01-08T08:29:53.000Z</time>
      </trkpt>
      <trkpt lat="45.64479" lon="6.74479">
        <ele>1659</ele>
        <time>2020-01-08T08:29:54.000Z</time>
      </trkpt>
      <trkpt lat="45.64482" lon="6.74474">
        <ele>1659.8000488281</ele>
        <time>2020-01-08T08:29:59.000Z</time>
      </trkpt>
      <trkpt lat="45.64484" lon="6.74473">
        <ele>1660</ele>
        <time>2020-01-08T08:30:00.000Z</time>
      </trkpt>
      <trkpt lat="45.64488" lon="6.74469">
        <ele>1660.4000244141</ele>
        <time>2020-01-08T08:30:04.000Z</time>
      </trkpt>
      <trkpt lat="45.64493" lon="6.74464">
        <ele>1660.8000488281</ele>
        <time>2020-01-08T08:30:10.000Z</time>
      </trkpt>
      <trkpt lat="45.64494" lon="6.74463">
        <ele>1661</ele>
        <time>2020-01-08T08:30:12.000Z</time>
      </trkpt>
      <trkpt lat="45.64496" lon="6.74459">
        <ele>1661.4000244141</ele>
        <time>2020-01-08T08:30:15.000Z</time>
      </trkpt>
      <trkpt lat="45.64499" lon="6.74452">
        <ele>1662</ele>
        <time>2020-01-08T08:30:20.000Z</time>
      </trkpt>
      <trkpt lat="45.645" lon="6.74451">
        <ele>1662</ele>
        <time>2020-01-08T08:30:21.000Z</time>
      </trkpt>
      <trkpt lat="45.64502" lon="6.74446">
        <ele>1662.5999755859</ele>
        <time>2020-01-08T08:30:26.000Z</time>
      </trkpt>
      <trkpt lat="45.64504" lon="6.74442">
        <ele>1662.8000488281</ele>
        <time>2020-01-08T08:30:28.000Z</time>
      </trkpt>
      <trkpt lat="45.64506" lon="6.74439">
        <ele>1663.1999511719</ele>
        <time>2020-01-08T08:30:31.000Z</time>
      </trkpt>
      <trkpt lat="45.64509" lon="6.74436">
        <ele>1663.8000488281</ele>
        <time>2020-01-08T08:30:35.000Z</time>
      </trkpt>
      <trkpt lat="45.64511" lon="6.74433">
        <ele>1664</ele>
        <time>2020-01-08T08:30:37.000Z</time>
      </trkpt>
      <trkpt lat="45.64513" lon="6.7443">
        <ele>1664.1999511719</ele>
        <time>2020-01-08T08:30:40.000Z</time>
      </trkpt>
      <trkpt lat="45.64514" lon="6.74428">
        <ele>1664.1999511719</ele>
        <time>2020-01-08T08:30:41.000Z</time>
      </trkpt>
      <trkpt lat="45.64516" lon="6.74425">
        <ele>1664.5999755859</ele>
        <time>2020-01-08T08:30:44.000Z</time>
      </trkpt>
      <trkpt lat="45.64517" lon="6.74423">
        <ele>1664.8000488281</ele>
        <time>2020-01-08T08:30:45.000Z</time>
      </trkpt>
      <trkpt lat="45.6452" lon="6.74419">
        <ele>1665.1999511719</ele>
        <time>2020-01-08T08:30:49.000Z</time>
      </trkpt>
      <trkpt lat="45.64522" lon="6.74416">
        <ele>1665.4000244141</ele>
        <time>2020-01-08T08:30:51.000Z</time>
      </trkpt>
      <trkpt lat="45.64524" lon="6.74414">
        <ele>1665.5999755859</ele>
        <time>2020-01-08T08:30:53.000Z</time>
      </trkpt>
      <trkpt lat="45.64527" lon="6.7441">
        <ele>1666</ele>
        <time>2020-01-08T08:30:56.000Z</time>
      </trkpt>
      <trkpt lat="45.64527" lon="6.74409">
        <ele>1666.1999511719</ele>
        <time>2020-01-08T08:30:57.000Z</time>
      </trkpt>
      <trkpt lat="45.64528" lon="6.74409">
        <ele>1666.1999511719</ele>
        <time>2020-01-08T08:30:58.000Z</time>
      </trkpt>
      <trkpt lat="45.6453" lon="6.74405">
        <ele>1666.5999755859</ele>
        <time>2020-01-08T08:31:01.000Z</time>
      </trkpt>
      <trkpt lat="45.64531" lon="6.74405">
        <ele>1666.8000488281</ele>
        <time>2020-01-08T08:31:02.000Z</time>
      </trkpt>
      <trkpt lat="45.64533" lon="6.74401">
        <ele>1667.4000244141</ele>
        <time>2020-01-08T08:31:06.000Z</time>
      </trkpt>
      <trkpt lat="45.64535" lon="6.74399">
        <ele>1667.8000488281</ele>
        <time>2020-01-08T08:31:08.000Z</time>
      </trkpt>
      <trkpt lat="45.64539" lon="6.74391">
        <ele>1668.4000244141</ele>
        <time>2020-01-08T08:31:13.000Z</time>
      </trkpt>
      <trkpt lat="45.6454" lon="6.7439">
        <ele>1668.4000244141</ele>
        <time>2020-01-08T08:31:15.000Z</time>
      </trkpt>
      <trkpt lat="45.64541" lon="6.74387">
        <ele>1668.5999755859</ele>
        <time>2020-01-08T08:31:18.000Z</time>
      </trkpt>
      <trkpt lat="45.64543" lon="6.74382">
        <ele>1669</ele>
        <time>2020-01-08T08:31:21.000Z</time>
      </trkpt>
      <trkpt lat="45.64545" lon="6.74379">
        <ele>1669.4000244141</ele>
        <time>2020-01-08T08:31:23.000Z</time>
      </trkpt>
      <trkpt lat="45.64546" lon="6.74378">
        <ele>1669.5999755859</ele>
        <time>2020-01-08T08:31:24.000Z</time>
      </trkpt>
      <trkpt lat="45.64548" lon="6.74374">
        <ele>1670</ele>
        <time>2020-01-08T08:31:27.000Z</time>
      </trkpt>
      <trkpt lat="45.6455" lon="6.74372">
        <ele>1670.1999511719</ele>
        <time>2020-01-08T08:31:29.000Z</time>
      </trkpt>
      <trkpt lat="45.64552" lon="6.74369">
        <ele>1670.5999755859</ele>
        <time>2020-01-08T08:31:32.000Z</time>
      </trkpt>
      <trkpt lat="45.64552" lon="6.74368">
        <ele>1670.5999755859</ele>
        <time>2020-01-08T08:31:33.000Z</time>
      </trkpt>
      <trkpt lat="45.64556" lon="6.74364">
        <ele>1671</ele>
        <time>2020-01-08T08:31:37.000Z</time>
      </trkpt>
      <trkpt lat="45.64558" lon="6.74359">
        <ele>1671.8000488281</ele>
        <time>2020-01-08T08:31:41.000Z</time>
      </trkpt>
      <trkpt lat="45.6456" lon="6.74352">
        <ele>1672</ele>
        <time>2020-01-08T08:31:46.000Z</time>
      </trkpt>
      <trkpt lat="45.64563" lon="6.74348">
        <ele>1672.4000244141</ele>
        <time>2020-01-08T08:31:50.000Z</time>
      </trkpt>
      <trkpt lat="45.64564" lon="6.74345">
        <ele>1672.8000488281</ele>
        <time>2020-01-08T08:31:52.000Z</time>
      </trkpt>
      <trkpt lat="45.64567" lon="6.74341">
        <ele>1673.4000244141</ele>
        <time>2020-01-08T08:31:55.000Z</time>
      </trkpt>
      <trkpt lat="45.6457" lon="6.74338">
        <ele>1673.8000488281</ele>
        <time>2020-01-08T08:31:58.000Z</time>
      </trkpt>
      <trkpt lat="45.64573" lon="6.74334">
        <ele>1674.1999511719</ele>
        <time>2020-01-08T08:32:01.000Z</time>
      </trkpt>
      <trkpt lat="45.64576" lon="6.7433">
        <ele>1674.4000244141</ele>
        <time>2020-01-08T08:32:05.000Z</time>
      </trkpt>
      <trkpt lat="45.64582" lon="6.74325">
        <ele>1674.8000488281</ele>
        <time>2020-01-08T08:32:10.000Z</time>
      </trkpt>
      <trkpt lat="45.64587" lon="6.74321">
        <ele>1675.5999755859</ele>
        <time>2020-01-08T08:32:15.000Z</time>
      </trkpt>
      <trkpt lat="45.64588" lon="6.74319">
        <ele>1675.8000488281</ele>
        <time>2020-01-08T08:32:17.000Z</time>
      </trkpt>
      <trkpt lat="45.64589" lon="6.74317">
        <ele>1676</ele>
        <time>2020-01-08T08:32:18.000Z</time>
      </trkpt>
      <trkpt lat="45.6459" lon="6.74316">
        <ele>1676</ele>
        <time>2020-01-08T08:32:19.000Z</time>
      </trkpt>
      <trkpt lat="45.64595" lon="6.74311">
        <ele>1676.8000488281</ele>
        <time>2020-01-08T08:32:24.000Z</time>
      </trkpt>
      <trkpt lat="45.64596" lon="6.7431">
        <ele>1676.8000488281</ele>
        <time>2020-01-08T08:32:25.000Z</time>
      </trkpt>
      <trkpt lat="45.64598" lon="6.74307">
        <ele>1677.1999511719</ele>
        <time>2020-01-08T08:32:28.000Z</time>
      </trkpt>
      <trkpt lat="45.64603" lon="6.743">
        <ele>1677.8000488281</ele>
        <time>2020-01-08T08:32:34.000Z</time>
      </trkpt>
      <trkpt lat="45.64604" lon="6.74298">
        <ele>1678</ele>
        <time>2020-01-08T08:32:35.000Z</time>
      </trkpt>
      <trkpt lat="45.64606" lon="6.74293">
        <ele>1678.1999511719</ele>
        <time>2020-01-08T08:32:40.000Z</time>
      </trkpt>
      <trkpt lat="45.64609" lon="6.74289">
        <ele>1679</ele>
        <time>2020-01-08T08:32:44.000Z</time>
      </trkpt>
      <trkpt lat="45.6461" lon="6.74288">
        <ele>1679.1999511719</ele>
        <time>2020-01-08T08:32:45.000Z</time>
      </trkpt>
      <trkpt lat="45.64613" lon="6.74282">
        <ele>1679.8000488281</ele>
        <time>2020-01-08T08:32:50.000Z</time>
      </trkpt>
      <trkpt lat="45.64614" lon="6.74278">
        <ele>1680</ele>
        <time>2020-01-08T08:32:52.000Z</time>
      </trkpt>
      <trkpt lat="45.64616" lon="6.74275">
        <ele>1680</ele>
        <time>2020-01-08T08:32:54.000Z</time>
      </trkpt>
      <trkpt lat="45.64618" lon="6.7427">
        <ele>1680.1999511719</ele>
        <time>2020-01-08T08:32:57.000Z</time>
      </trkpt>
      <trkpt lat="45.64619" lon="6.74269">
        <ele>1680.1999511719</ele>
        <time>2020-01-08T08:32:58.000Z</time>
      </trkpt>
      <trkpt lat="45.64623" lon="6.74261">
        <ele>1680.4000244141</ele>
        <time>2020-01-08T08:33:04.000Z</time>
      </trkpt>
      <trkpt lat="45.64624" lon="6.74259">
        <ele>1680.4000244141</ele>
        <time>2020-01-08T08:33:05.000Z</time>
      </trkpt>
      <trkpt lat="45.64627" lon="6.74254">
        <ele>1680.8000488281</ele>
        <time>2020-01-08T08:33:09.000Z</time>
      </trkpt>
      <trkpt lat="45.6463" lon="6.74247">
        <ele>1681</ele>
        <time>2020-01-08T08:33:14.000Z</time>
      </trkpt>
      <trkpt lat="45.64634" lon="6.74242">
        <ele>1681.1999511719</ele>
        <time>2020-01-08T08:33:19.000Z</time>
      </trkpt>
      <trkpt lat="45.64639" lon="6.74235">
        <ele>1681.4000244141</ele>
        <time>2020-01-08T08:33:24.000Z</time>
      </trkpt>
      <trkpt lat="45.64641" lon="6.74232">
        <ele>1681.5999755859</ele>
        <time>2020-01-08T08:33:27.000Z</time>
      </trkpt>
      <trkpt lat="45.64642" lon="6.7423">
        <ele>1681.5999755859</ele>
        <time>2020-01-08T08:33:28.000Z</time>
      </trkpt>
      <trkpt lat="45.64645" lon="6.74222">
        <ele>1681.5999755859</ele>
        <time>2020-01-08T08:33:32.000Z</time>
      </trkpt>
      <trkpt lat="45.64646" lon="6.7422">
        <ele>1681.8000488281</ele>
        <time>2020-01-08T08:33:34.000Z</time>
      </trkpt>
      <trkpt lat="45.64647" lon="6.74217">
        <ele>1682</ele>
        <time>2020-01-08T08:33:37.000Z</time>
      </trkpt>
      <trkpt lat="45.64649" lon="6.74213">
        <ele>1682</ele>
        <time>2020-01-08T08:33:40.000Z</time>
      </trkpt>
      <trkpt lat="45.64649" lon="6.74211">
        <ele>1682</ele>
        <time>2020-01-08T08:33:42.000Z</time>
      </trkpt>
      <trkpt lat="45.64651" lon="6.74205">
        <ele>1682.1999511719</ele>
        <time>2020-01-08T08:33:47.000Z</time>
      </trkpt>
      <trkpt lat="45.64653" lon="6.74197">
        <ele>1682.4000244141</ele>
        <time>2020-01-08T08:33:52.000Z</time>
      </trkpt>
      <trkpt lat="45.64656" lon="6.7419">
        <ele>1682.5999755859</ele>
        <time>2020-01-08T08:33:56.000Z</time>
      </trkpt>
      <trkpt lat="45.64658" lon="6.74181">
        <ele>1682.5999755859</ele>
        <time>2020-01-08T08:34:01.000Z</time>
      </trkpt>
      <trkpt lat="45.6466" lon="6.74179">
        <ele>1682.8000488281</ele>
        <time>2020-01-08T08:34:03.000Z</time>
      </trkpt>
      <trkpt lat="45.6466" lon="6.74175">
        <ele>1682.8000488281</ele>
        <time>2020-01-08T08:34:05.000Z</time>
      </trkpt>
      <trkpt lat="45.64662" lon="6.74165">
        <ele>1683</ele>
        <time>2020-01-08T08:34:10.000Z</time>
      </trkpt>
      <trkpt lat="45.64663" lon="6.74163">
        <ele>1682.8000488281</ele>
        <time>2020-01-08T08:34:11.000Z</time>
      </trkpt>
      <trkpt lat="45.64665" lon="6.74157">
        <ele>1682.8000488281</ele>
        <time>2020-01-08T08:34:14.000Z</time>
      </trkpt>
      <trkpt lat="45.64665" lon="6.74154">
        <ele>1683</ele>
        <time>2020-01-08T08:34:16.000Z</time>
      </trkpt>
      <trkpt lat="45.64669" lon="6.74148">
        <ele>1683</ele>
        <time>2020-01-08T08:34:20.000Z</time>
      </trkpt>
      <trkpt lat="45.64669" lon="6.74146">
        <ele>1683</ele>
        <time>2020-01-08T08:34:21.000Z</time>
      </trkpt>
      <trkpt lat="45.64671" lon="6.7414">
        <ele>1683</ele>
        <time>2020-01-08T08:34:25.000Z</time>
      </trkpt>
      <trkpt lat="45.64674" lon="6.74135">
        <ele>1683</ele>
        <time>2020-01-08T08:34:29.000Z</time>
      </trkpt>
      <trkpt lat="45.64675" lon="6.74133">
        <ele>1683.1999511719</ele>
        <time>2020-01-08T08:34:30.000Z</time>
      </trkpt>
      <trkpt lat="45.64678" lon="6.74126">
        <ele>1683.1999511719</ele>
        <time>2020-01-08T08:34:34.000Z</time>
      </trkpt>
      <trkpt lat="45.64681" lon="6.74119">
        <ele>1683.1999511719</ele>
        <time>2020-01-08T08:34:39.000Z</time>
      </trkpt>
      <trkpt lat="45.64684" lon="6.74108">
        <ele>1683.5999755859</ele>
        <time>2020-01-08T08:34:45.000Z</time>
      </trkpt>
      <trkpt lat="45.64687" lon="6.74102">
        <ele>1683.8000488281</ele>
        <time>2020-01-08T08:34:50.000Z</time>
      </trkpt>
      <trkpt lat="45.64691" lon="6.74095">
        <ele>1684</ele>
        <time>2020-01-08T08:34:55.000Z</time>
      </trkpt>
      <trkpt lat="45.64692" lon="6.74088">
        <ele>1684</ele>
        <time>2020-01-08T08:35:00.000Z</time>
      </trkpt>
      <trkpt lat="45.64694" lon="6.74083">
        <ele>1684</ele>
        <time>2020-01-08T08:35:03.000Z</time>
      </trkpt>
      <trkpt lat="45.64695" lon="6.74082">
        <ele>1684</ele>
        <time>2020-01-08T08:35:04.000Z</time>
      </trkpt>
      <trkpt lat="45.64699" lon="6.74073">
        <ele>1684.1999511719</ele>
        <time>2020-01-08T08:35:09.000Z</time>
      </trkpt>
      <trkpt lat="45.64701" lon="6.74067">
        <ele>1684.1999511719</ele>
        <time>2020-01-08T08:35:13.000Z</time>
      </trkpt>
      <trkpt lat="45.64704" lon="6.7406">
        <ele>1684</ele>
        <time>2020-01-08T08:35:18.000Z</time>
      </trkpt>
      <trkpt lat="45.64705" lon="6.74059">
        <ele>1684</ele>
        <time>2020-01-08T08:35:19.000Z</time>
      </trkpt>
      <trkpt lat="45.64706" lon="6.74056">
        <ele>1684</ele>
        <time>2020-01-08T08:35:22.000Z</time>
      </trkpt>
      <trkpt lat="45.64707" lon="6.74049">
        <ele>1683.8000488281</ele>
        <time>2020-01-08T08:35:27.000Z</time>
      </trkpt>
      <trkpt lat="45.64708" lon="6.74045">
        <ele>1683.5999755859</ele>
        <time>2020-01-08T08:35:30.000Z</time>
      </trkpt>
      <trkpt lat="45.64709" lon="6.74043">
        <ele>1683.8000488281</ele>
        <time>2020-01-08T08:35:32.000Z</time>
      </trkpt>
      <trkpt lat="45.64712" lon="6.74037">
        <ele>1684</ele>
        <time>2020-01-08T08:35:38.000Z</time>
      </trkpt>
      <trkpt lat="45.64713" lon="6.74035">
        <ele>1684</ele>
        <time>2020-01-08T08:35:40.000Z</time>
      </trkpt>
      <trkpt lat="45.64715" lon="6.74033">
        <ele>1684.1999511719</ele>
        <time>2020-01-08T08:35:42.000Z</time>
      </trkpt>
      <trkpt lat="45.64715" lon="6.74032">
        <ele>1684.4000244141</ele>
        <time>2020-01-08T08:35:43.000Z</time>
      </trkpt>
      <trkpt lat="45.6472" lon="6.74026">
        <ele>1685.1999511719</ele>
        <time>2020-01-08T08:35:49.000Z</time>
      </trkpt>
      <trkpt lat="45.64721" lon="6.74025">
        <ele>1685.1999511719</ele>
        <time>2020-01-08T08:35:50.000Z</time>
      </trkpt>
      <trkpt lat="45.64724" lon="6.74021">
        <ele>1685.5999755859</ele>
        <time>2020-01-08T08:35:54.000Z</time>
      </trkpt>
      <trkpt lat="45.64728" lon="6.74018">
        <ele>1686</ele>
        <time>2020-01-08T08:35:59.000Z</time>
      </trkpt>
      <trkpt lat="45.64734" lon="6.74015">
        <ele>1686</ele>
        <time>2020-01-08T08:36:03.000Z</time>
      </trkpt>
      <trkpt lat="45.64735" lon="6.74014">
        <ele>1686</ele>
        <time>2020-01-08T08:36:04.000Z</time>
      </trkpt>
      <trkpt lat="45.64739" lon="6.74013">
        <ele>1686</ele>
        <time>2020-01-08T08:36:07.000Z</time>
      </trkpt>
      <trkpt lat="45.64742" lon="6.74013">
        <ele>1686.1999511719</ele>
        <time>2020-01-08T08:36:09.000Z</time>
      </trkpt>
      <trkpt lat="45.64744" lon="6.74013">
        <ele>1686.1999511719</ele>
        <time>2020-01-08T08:36:11.000Z</time>
      </trkpt>
      <trkpt lat="45.64747" lon="6.74012">
        <ele>1686.4000244141</ele>
        <time>2020-01-08T08:36:14.000Z</time>
      </trkpt>
      <trkpt lat="45.64751" lon="6.74011">
        <ele>1686.8000488281</ele>
        <time>2020-01-08T08:36:18.000Z</time>
      </trkpt>
      <trkpt lat="45.64752" lon="6.7401">
        <ele>1687</ele>
        <time>2020-01-08T08:36:19.000Z</time>
      </trkpt>
      <trkpt lat="45.64754" lon="6.7401">
        <ele>1687.1999511719</ele>
        <time>2020-01-08T08:36:20.000Z</time>
      </trkpt>
      <trkpt lat="45.64756" lon="6.74007">
        <ele>1688.1999511719</ele>
        <time>2020-01-08T08:36:24.000Z</time>
      </trkpt>
      <trkpt lat="45.64757" lon="6.74006">
        <ele>1688.4000244141</ele>
        <time>2020-01-08T08:36:25.000Z</time>
      </trkpt>
      <trkpt lat="45.64763" lon="6.74003">
        <ele>1688.8000488281</ele>
        <time>2020-01-08T08:36:30.000Z</time>
      </trkpt>
      <trkpt lat="45.64769" lon="6.74001">
        <ele>1689.1999511719</ele>
        <time>2020-01-08T08:36:36.000Z</time>
      </trkpt>
      <trkpt lat="45.6477" lon="6.74001">
        <ele>1689.4000244141</ele>
        <time>2020-01-08T08:36:37.000Z</time>
      </trkpt>
      <trkpt lat="45.64775" lon="6.73998">
        <ele>1690</ele>
        <time>2020-01-08T08:36:42.000Z</time>
      </trkpt>
      <trkpt lat="45.64777" lon="6.73996">
        <ele>1690.8000488281</ele>
        <time>2020-01-08T08:36:45.000Z</time>
      </trkpt>
      <trkpt lat="45.64778" lon="6.73994">
        <ele>1691</ele>
        <time>2020-01-08T08:36:47.000Z</time>
      </trkpt>
      <trkpt lat="45.64782" lon="6.73992">
        <ele>1691.4000244141</ele>
        <time>2020-01-08T08:36:52.000Z</time>
      </trkpt>
      <trkpt lat="45.64783" lon="6.7399">
        <ele>1692</ele>
        <time>2020-01-08T08:36:54.000Z</time>
      </trkpt>
      <trkpt lat="45.64786" lon="6.73987">
        <ele>1692.5999755859</ele>
        <time>2020-01-08T08:36:57.000Z</time>
      </trkpt>
      <trkpt lat="45.64788" lon="6.73985">
        <ele>1693</ele>
        <time>2020-01-08T08:37:00.000Z</time>
      </trkpt>
      <trkpt lat="45.6479" lon="6.73984">
        <ele>1693.1999511719</ele>
        <time>2020-01-08T08:37:02.000Z</time>
      </trkpt>
      <trkpt lat="45.64795" lon="6.73982">
        <ele>1693.8000488281</ele>
        <time>2020-01-08T08:37:07.000Z</time>
      </trkpt>
      <trkpt lat="45.64796" lon="6.7398">
        <ele>1694.1999511719</ele>
        <time>2020-01-08T08:37:09.000Z</time>
      </trkpt>
      <trkpt lat="45.64798" lon="6.73978">
        <ele>1694.5999755859</ele>
        <time>2020-01-08T08:37:12.000Z</time>
      </trkpt>
      <trkpt lat="45.64799" lon="6.73976">
        <ele>1695.1999511719</ele>
        <time>2020-01-08T08:37:17.000Z</time>
      </trkpt>
      <trkpt lat="45.64799" lon="6.73976">
        <ele>1695.4000244141</ele>
        <time>2020-01-08T08:37:18.000Z</time>
      </trkpt>
      <trkpt lat="45.64801" lon="6.73974">
        <ele>1695.5999755859</ele>
        <time>2020-01-08T08:37:23.000Z</time>
      </trkpt>
      <trkpt lat="45.64805" lon="6.73969">
        <ele>1695.8000488281</ele>
        <time>2020-01-08T08:37:28.000Z</time>
      </trkpt>
      <trkpt lat="45.64807" lon="6.73966">
        <ele>1696.4000244141</ele>
        <time>2020-01-08T08:37:32.000Z</time>
      </trkpt>
      <trkpt lat="45.64812" lon="6.73962">
        <ele>1697.4000244141</ele>
        <time>2020-01-08T08:37:37.000Z</time>
      </trkpt>
      <trkpt lat="45.64816" lon="6.73958">
        <ele>1697.8000488281</ele>
        <time>2020-01-08T08:37:41.000Z</time>
      </trkpt>
      <trkpt lat="45.64822" lon="6.73954">
        <ele>1698.5999755859</ele>
        <time>2020-01-08T08:37:46.000Z</time>
      </trkpt>
      <trkpt lat="45.64826" lon="6.73947">
        <ele>1699.1999511719</ele>
        <time>2020-01-08T08:37:51.000Z</time>
      </trkpt>
      <trkpt lat="45.6483" lon="6.73945">
        <ele>1699.4000244141</ele>
        <time>2020-01-08T08:37:55.000Z</time>
      </trkpt>
      <trkpt lat="45.64833" lon="6.73943">
        <ele>1699.8000488281</ele>
        <time>2020-01-08T08:37:57.000Z</time>
      </trkpt>
      <trkpt lat="45.64836" lon="6.7394">
        <ele>1700</ele>
        <time>2020-01-08T08:38:00.000Z</time>
      </trkpt>
      <trkpt lat="45.64843" lon="6.73934">
        <ele>1700.4000244141</ele>
        <time>2020-01-08T08:38:06.000Z</time>
      </trkpt>
      <trkpt lat="45.64845" lon="6.7393">
        <ele>1700.8000488281</ele>
        <time>2020-01-08T08:38:10.000Z</time>
      </trkpt>
      <trkpt lat="45.64846" lon="6.73929">
        <ele>1700.8000488281</ele>
        <time>2020-01-08T08:38:11.000Z</time>
      </trkpt>
      <trkpt lat="45.64849" lon="6.73926">
        <ele>1700.8000488281</ele>
        <time>2020-01-08T08:38:15.000Z</time>
      </trkpt>
      <trkpt lat="45.64853" lon="6.73921">
        <ele>1701.5999755859</ele>
        <time>2020-01-08T08:38:20.000Z</time>
      </trkpt>
      <trkpt lat="45.64854" lon="6.7392">
        <ele>1702</ele>
        <time>2020-01-08T08:38:21.000Z</time>
      </trkpt>
      <trkpt lat="45.64857" lon="6.73915">
        <ele>1703</ele>
        <time>2020-01-08T08:38:26.000Z</time>
      </trkpt>
      <trkpt lat="45.64859" lon="6.73913">
        <ele>1703.1999511719</ele>
        <time>2020-01-08T08:38:28.000Z</time>
      </trkpt>
      <trkpt lat="45.64861" lon="6.7391">
        <ele>1703.4000244141</ele>
        <time>2020-01-08T08:38:31.000Z</time>
      </trkpt>
      <trkpt lat="45.64865" lon="6.73904">
        <ele>1704.1999511719</ele>
        <time>2020-01-08T08:38:37.000Z</time>
      </trkpt>
      <trkpt lat="45.64869" lon="6.73901">
        <ele>1704.5999755859</ele>
        <time>2020-01-08T08:38:42.000Z</time>
      </trkpt>
      <trkpt lat="45.6487" lon="6.739">
        <ele>1705.5999755859</ele>
        <time>2020-01-08T08:38:45.000Z</time>
      </trkpt>
      <trkpt lat="45.64872" lon="6.73898">
        <ele>1705.8000488281</ele>
        <time>2020-01-08T08:38:47.000Z</time>
      </trkpt>
      <trkpt lat="45.64875" lon="6.73895">
        <ele>1706.4000244141</ele>
        <time>2020-01-08T08:38:52.000Z</time>
      </trkpt>
      <trkpt lat="45.64877" lon="6.73893">
        <ele>1706.5999755859</ele>
        <time>2020-01-08T08:38:54.000Z</time>
      </trkpt>
      <trkpt lat="45.64881" lon="6.73891">
        <ele>1707.5999755859</ele>
        <time>2020-01-08T08:38:58.000Z</time>
      </trkpt>
      <trkpt lat="45.64882" lon="6.7389">
        <ele>1707.8000488281</ele>
        <time>2020-01-08T08:38:59.000Z</time>
      </trkpt>
      <trkpt lat="45.64884" lon="6.73888">
        <ele>1708</ele>
        <time>2020-01-08T08:39:01.000Z</time>
      </trkpt>
      <trkpt lat="45.64886" lon="6.73886">
        <ele>1708.4000244141</ele>
        <time>2020-01-08T08:39:03.000Z</time>
      </trkpt>
      <trkpt lat="45.64891" lon="6.73883">
        <ele>1708.5999755859</ele>
        <time>2020-01-08T08:39:09.000Z</time>
      </trkpt>
      <trkpt lat="45.64892" lon="6.7388">
        <ele>1708.8000488281</ele>
        <time>2020-01-08T08:39:11.000Z</time>
      </trkpt>
      <trkpt lat="45.64895" lon="6.73878">
        <ele>1709.1999511719</ele>
        <time>2020-01-08T08:39:15.000Z</time>
      </trkpt>
      <trkpt lat="45.64898" lon="6.73876">
        <ele>1710</ele>
        <time>2020-01-08T08:39:20.000Z</time>
      </trkpt>
      <trkpt lat="45.64902" lon="6.73871">
        <ele>1710.8000488281</ele>
        <time>2020-01-08T08:39:25.000Z</time>
      </trkpt>
      <trkpt lat="45.64903" lon="6.73868">
        <ele>1711</ele>
        <time>2020-01-08T08:39:27.000Z</time>
      </trkpt>
      <trkpt lat="45.64904" lon="6.73867">
        <ele>1711.1999511719</ele>
        <time>2020-01-08T08:39:30.000Z</time>
      </trkpt>
      <trkpt lat="45.64907" lon="6.73863">
        <ele>1711.8000488281</ele>
        <time>2020-01-08T08:39:34.000Z</time>
      </trkpt>
      <trkpt lat="45.64908" lon="6.73862">
        <ele>1712</ele>
        <time>2020-01-08T08:39:35.000Z</time>
      </trkpt>
      <trkpt lat="45.6491" lon="6.7386">
        <ele>1712.4000244141</ele>
        <time>2020-01-08T08:39:37.000Z</time>
      </trkpt>
      <trkpt lat="45.64912" lon="6.73858">
        <ele>1713</ele>
        <time>2020-01-08T08:39:40.000Z</time>
      </trkpt>
      <trkpt lat="45.64914" lon="6.73856">
        <ele>1713.1999511719</ele>
        <time>2020-01-08T08:39:42.000Z</time>
      </trkpt>
      <trkpt lat="45.64917" lon="6.73852">
        <ele>1713.8000488281</ele>
        <time>2020-01-08T08:39:46.000Z</time>
      </trkpt>
      <trkpt lat="45.64919" lon="6.73849">
        <ele>1714.1999511719</ele>
        <time>2020-01-08T08:39:49.000Z</time>
      </trkpt>
      <trkpt lat="45.6492" lon="6.73848">
        <ele>1714.4000244141</ele>
        <time>2020-01-08T08:39:50.000Z</time>
      </trkpt>
      <trkpt lat="45.64921" lon="6.73847">
        <ele>1714.5999755859</ele>
        <time>2020-01-08T08:39:52.000Z</time>
      </trkpt>
      <trkpt lat="45.64924" lon="6.73845">
        <ele>1715</ele>
        <time>2020-01-08T08:39:55.000Z</time>
      </trkpt>
      <trkpt lat="45.64926" lon="6.73841">
        <ele>1715.4000244141</ele>
        <time>2020-01-08T08:39:58.000Z</time>
      </trkpt>
      <trkpt lat="45.64927" lon="6.7384">
        <ele>1715.5999755859</ele>
        <time>2020-01-08T08:40:00.000Z</time>
      </trkpt>
      <trkpt lat="45.64931" lon="6.73835">
        <ele>1716</ele>
        <time>2020-01-08T08:40:05.000Z</time>
      </trkpt>
      <trkpt lat="45.64932" lon="6.73832">
        <ele>1716.4000244141</ele>
        <time>2020-01-08T08:40:08.000Z</time>
      </trkpt>
      <trkpt lat="45.64933" lon="6.73829">
        <ele>1716.5999755859</ele>
        <time>2020-01-08T08:40:11.000Z</time>
      </trkpt>
      <trkpt lat="45.64938" lon="6.73823">
        <ele>1717.4000244141</ele>
        <time>2020-01-08T08:40:17.000Z</time>
      </trkpt>
      <trkpt lat="45.64941" lon="6.7382">
        <ele>1718.1999511719</ele>
        <time>2020-01-08T08:40:21.000Z</time>
      </trkpt>
      <trkpt lat="45.64942" lon="6.73818">
        <ele>1718.4000244141</ele>
        <time>2020-01-08T08:40:22.000Z</time>
      </trkpt>
      <trkpt lat="45.64942" lon="6.73817">
        <ele>1718.5999755859</ele>
        <time>2020-01-08T08:40:23.000Z</time>
      </trkpt>
      <trkpt lat="45.64945" lon="6.73811">
        <ele>1719.1999511719</ele>
        <time>2020-01-08T08:40:28.000Z</time>
      </trkpt>
      <trkpt lat="45.64947" lon="6.73806">
        <ele>1719.5999755859</ele>
        <time>2020-01-08T08:40:31.000Z</time>
      </trkpt>
      <trkpt lat="45.6495" lon="6.73803">
        <ele>1720</ele>
        <time>2020-01-08T08:40:35.000Z</time>
      </trkpt>
      <trkpt lat="45.64952" lon="6.73799">
        <ele>1720.5999755859</ele>
        <time>2020-01-08T08:40:40.000Z</time>
      </trkpt>
      <trkpt lat="45.64954" lon="6.73796">
        <ele>1721.5999755859</ele>
        <time>2020-01-08T08:40:45.000Z</time>
      </trkpt>
      <trkpt lat="45.64955" lon="6.73795">
        <ele>1721.8000488281</ele>
        <time>2020-01-08T08:40:46.000Z</time>
      </trkpt>
      <trkpt lat="45.6496" lon="6.73789">
        <ele>1722.8000488281</ele>
        <time>2020-01-08T08:40:51.000Z</time>
      </trkpt>
      <trkpt lat="45.64964" lon="6.73782">
        <ele>1723.1999511719</ele>
        <time>2020-01-08T08:40:56.000Z</time>
      </trkpt>
      <trkpt lat="45.64965" lon="6.73779">
        <ele>1723.8000488281</ele>
        <time>2020-01-08T08:41:01.000Z</time>
      </trkpt>
      <trkpt lat="45.64966" lon="6.73778">
        <ele>1724</ele>
        <time>2020-01-08T08:41:02.000Z</time>
      </trkpt>
      <trkpt lat="45.64967" lon="6.73772">
        <ele>1724.5999755859</ele>
        <time>2020-01-08T08:41:07.000Z</time>
      </trkpt>
      <trkpt lat="45.64968" lon="6.7377">
        <ele>1725</ele>
        <time>2020-01-08T08:41:09.000Z</time>
      </trkpt>
      <trkpt lat="45.6497" lon="6.73767">
        <ele>1725.4000244141</ele>
        <time>2020-01-08T08:41:12.000Z</time>
      </trkpt>
      <trkpt lat="45.64974" lon="6.7376">
        <ele>1726</ele>
        <time>2020-01-08T08:41:18.000Z</time>
      </trkpt>
      <trkpt lat="45.64977" lon="6.73755">
        <ele>1726.4000244141</ele>
        <time>2020-01-08T08:41:23.000Z</time>
      </trkpt>
      <trkpt lat="45.64977" lon="6.73754">
        <ele>1726.4000244141</ele>
        <time>2020-01-08T08:41:24.000Z</time>
      </trkpt>
      <trkpt lat="45.64979" lon="6.73751">
        <ele>1726.5999755859</ele>
        <time>2020-01-08T08:41:27.000Z</time>
      </trkpt>
      <trkpt lat="45.64981" lon="6.73748">
        <ele>1727</ele>
        <time>2020-01-08T08:41:29.000Z</time>
      </trkpt>
      <trkpt lat="45.64982" lon="6.73746">
        <ele>1727.1999511719</ele>
        <time>2020-01-08T08:41:31.000Z</time>
      </trkpt>
      <trkpt lat="45.64985" lon="6.73742">
        <ele>1727.8000488281</ele>
        <time>2020-01-08T08:41:35.000Z</time>
      </trkpt>
      <trkpt lat="45.64988" lon="6.73737">
        <ele>1728.1999511719</ele>
        <time>2020-01-08T08:41:40.000Z</time>
      </trkpt>
      <trkpt lat="45.64988" lon="6.73736">
        <ele>1728.4000244141</ele>
        <time>2020-01-08T08:41:41.000Z</time>
      </trkpt>
      <trkpt lat="45.64992" lon="6.73732">
        <ele>1728.8000488281</ele>
        <time>2020-01-08T08:41:46.000Z</time>
      </trkpt>
      <trkpt lat="45.64994" lon="6.7373">
        <ele>1729.4000244141</ele>
        <time>2020-01-08T08:41:51.000Z</time>
      </trkpt>
      <trkpt lat="45.64997" lon="6.73729">
        <ele>1730</ele>
        <time>2020-01-08T08:41:56.000Z</time>
      </trkpt>
      <trkpt lat="45.64999" lon="6.73728">
        <ele>1730.4000244141</ele>
        <time>2020-01-08T08:41:59.000Z</time>
      </trkpt>
      <trkpt lat="45.65002" lon="6.73726">
        <ele>1731</ele>
        <time>2020-01-08T08:42:01.000Z</time>
      </trkpt>
      <trkpt lat="45.65005" lon="6.73722">
        <ele>1731.5999755859</ele>
        <time>2020-01-08T08:42:04.000Z</time>
      </trkpt>
      <trkpt lat="45.65007" lon="6.7372">
        <ele>1731.5999755859</ele>
        <time>2020-01-08T08:42:07.000Z</time>
      </trkpt>
      <trkpt lat="45.65011" lon="6.73712">
        <ele>1732.4000244141</ele>
        <time>2020-01-08T08:42:14.000Z</time>
      </trkpt>
      <trkpt lat="45.65012" lon="6.73711">
        <ele>1732.5999755859</ele>
        <time>2020-01-08T08:42:15.000Z</time>
      </trkpt>
      <trkpt lat="45.65015" lon="6.73707">
        <ele>1733.1999511719</ele>
        <time>2020-01-08T08:42:20.000Z</time>
      </trkpt>
      <trkpt lat="45.65016" lon="6.73707">
        <ele>1733.8000488281</ele>
        <time>2020-01-08T08:42:22.000Z</time>
      </trkpt>
      <trkpt lat="45.6502" lon="6.73704">
        <ele>1734.4000244141</ele>
        <time>2020-01-08T08:42:25.000Z</time>
      </trkpt>
      <trkpt lat="45.65022" lon="6.73701">
        <ele>1734.8000488281</ele>
        <time>2020-01-08T08:42:28.000Z</time>
      </trkpt>
      <trkpt lat="45.65024" lon="6.73699">
        <ele>1735.1999511719</ele>
        <time>2020-01-08T08:42:31.000Z</time>
      </trkpt>
      <trkpt lat="45.65027" lon="6.73693">
        <ele>1735.8000488281</ele>
        <time>2020-01-08T08:42:36.000Z</time>
      </trkpt>
      <trkpt lat="45.6503" lon="6.73689">
        <ele>1736.5999755859</ele>
        <time>2020-01-08T08:42:41.000Z</time>
      </trkpt>
      <trkpt lat="45.65031" lon="6.73688">
        <ele>1737</ele>
        <time>2020-01-08T08:42:43.000Z</time>
      </trkpt>
      <trkpt lat="45.65033" lon="6.73685">
        <ele>1737.5999755859</ele>
        <time>2020-01-08T08:42:46.000Z</time>
      </trkpt>
      <trkpt lat="45.65035" lon="6.73684">
        <ele>1737.8000488281</ele>
        <time>2020-01-08T08:42:47.000Z</time>
      </trkpt>
      <trkpt lat="45.65035" lon="6.73684">
        <ele>1738</ele>
        <time>2020-01-08T08:42:48.000Z</time>
      </trkpt>
      <trkpt lat="45.65036" lon="6.73682">
        <ele>1738</ele>
        <time>2020-01-08T08:42:49.000Z</time>
      </trkpt>
      <trkpt lat="45.65038" lon="6.73681">
        <ele>1738.4000244141</ele>
        <time>2020-01-08T08:42:51.000Z</time>
      </trkpt>
      <trkpt lat="45.65039" lon="6.73679">
        <ele>1739</ele>
        <time>2020-01-08T08:42:55.000Z</time>
      </trkpt>
      <trkpt lat="45.65039" lon="6.73677">
        <ele>1739.5999755859</ele>
        <time>2020-01-08T08:42:58.000Z</time>
      </trkpt>
      <trkpt lat="45.6504" lon="6.73676">
        <ele>1739.8000488281</ele>
        <time>2020-01-08T08:42:59.000Z</time>
      </trkpt>
      <trkpt lat="45.6504" lon="6.73675">
        <ele>1740</ele>
        <time>2020-01-08T08:43:00.000Z</time>
      </trkpt>
      <trkpt lat="45.65043" lon="6.73671">
        <ele>1740.5999755859</ele>
        <time>2020-01-08T08:43:04.000Z</time>
      </trkpt>
      <trkpt lat="45.65044" lon="6.73667">
        <ele>1741</ele>
        <time>2020-01-08T08:43:07.000Z</time>
      </trkpt>
      <trkpt lat="45.65044" lon="6.73667">
        <ele>1741.1999511719</ele>
        <time>2020-01-08T08:43:08.000Z</time>
      </trkpt>
      <trkpt lat="45.65046" lon="6.73662">
        <ele>1742</ele>
        <time>2020-01-08T08:43:13.000Z</time>
      </trkpt>
      <trkpt lat="45.65046" lon="6.7366">
        <ele>1742.1999511719</ele>
        <time>2020-01-08T08:43:14.000Z</time>
      </trkpt>
      <trkpt lat="45.65046" lon="6.73654">
        <ele>1742.5999755859</ele>
        <time>2020-01-08T08:43:18.000Z</time>
      </trkpt>
      <trkpt lat="45.65047" lon="6.73651">
        <ele>1743</ele>
        <time>2020-01-08T08:43:20.000Z</time>
      </trkpt>
      <trkpt lat="45.65048" lon="6.73647">
        <ele>1743.1999511719</ele>
        <time>2020-01-08T08:43:23.000Z</time>
      </trkpt>
      <trkpt lat="45.65049" lon="6.73641">
        <ele>1743.8000488281</ele>
        <time>2020-01-08T08:43:28.000Z</time>
      </trkpt>
      <trkpt lat="45.6505" lon="6.73637">
        <ele>1744.5999755859</ele>
        <time>2020-01-08T08:43:32.000Z</time>
      </trkpt>
      <trkpt lat="45.65051" lon="6.73633">
        <ele>1745.1999511719</ele>
        <time>2020-01-08T08:43:34.000Z</time>
      </trkpt>
      <trkpt lat="45.65053" lon="6.73623">
        <ele>1745.5999755859</ele>
        <time>2020-01-08T08:43:40.000Z</time>
      </trkpt>
      <trkpt lat="45.65056" lon="6.73618">
        <ele>1746.1999511719</ele>
        <time>2020-01-08T08:43:45.000Z</time>
      </trkpt>
      <trkpt lat="45.65058" lon="6.73616">
        <ele>1746.1999511719</ele>
        <time>2020-01-08T08:43:47.000Z</time>
      </trkpt>
      <trkpt lat="45.6506" lon="6.73612">
        <ele>1746.4000244141</ele>
        <time>2020-01-08T08:43:50.000Z</time>
      </trkpt>
      <trkpt lat="45.65061" lon="6.73611">
        <ele>1746.5999755859</ele>
        <time>2020-01-08T08:43:52.000Z</time>
      </trkpt>
      <trkpt lat="45.65063" lon="6.7361">
        <ele>1747</ele>
        <time>2020-01-08T08:43:55.000Z</time>
      </trkpt>
      <trkpt lat="45.65067" lon="6.73606">
        <ele>1747.4000244141</ele>
        <time>2020-01-08T08:44:00.000Z</time>
      </trkpt>
      <trkpt lat="45.65068" lon="6.73605">
        <ele>1747.8000488281</ele>
        <time>2020-01-08T08:44:02.000Z</time>
      </trkpt>
      <trkpt lat="45.65072" lon="6.73604">
        <ele>1748.1999511719</ele>
        <time>2020-01-08T08:44:06.000Z</time>
      </trkpt>
      <trkpt lat="45.65077" lon="6.73603">
        <ele>1748.5999755859</ele>
        <time>2020-01-08T08:44:12.000Z</time>
      </trkpt>
      <trkpt lat="45.65078" lon="6.73603">
        <ele>1748.8000488281</ele>
        <time>2020-01-08T08:44:14.000Z</time>
      </trkpt>
      <trkpt lat="45.65081" lon="6.73601">
        <ele>1749.4000244141</ele>
        <time>2020-01-08T08:44:18.000Z</time>
      </trkpt>
      <trkpt lat="45.65084" lon="6.73601">
        <ele>1749.5999755859</ele>
        <time>2020-01-08T08:44:20.000Z</time>
      </trkpt>
      <trkpt lat="45.65086" lon="6.736">
        <ele>1749.8000488281</ele>
        <time>2020-01-08T08:44:22.000Z</time>
      </trkpt>
      <trkpt lat="45.65087" lon="6.73599">
        <ele>1750.1999511719</ele>
        <time>2020-01-08T08:44:24.000Z</time>
      </trkpt>
      <trkpt lat="45.65091" lon="6.73598">
        <ele>1750.8000488281</ele>
        <time>2020-01-08T08:44:29.000Z</time>
      </trkpt>
      <trkpt lat="45.65092" lon="6.73598">
        <ele>1751</ele>
        <time>2020-01-08T08:44:30.000Z</time>
      </trkpt>
      <trkpt lat="45.65098" lon="6.73598">
        <ele>1751.5999755859</ele>
        <time>2020-01-08T08:44:35.000Z</time>
      </trkpt>
      <trkpt lat="45.65099" lon="6.73598">
        <ele>1752</ele>
        <time>2020-01-08T08:44:37.000Z</time>
      </trkpt>
      <trkpt lat="45.65103" lon="6.73596">
        <ele>1752.5999755859</ele>
        <time>2020-01-08T08:44:41.000Z</time>
      </trkpt>
      <trkpt lat="45.65107" lon="6.73595">
        <ele>1753</ele>
        <time>2020-01-08T08:44:45.000Z</time>
      </trkpt>
      <trkpt lat="45.65108" lon="6.73595">
        <ele>1753.1999511719</ele>
        <time>2020-01-08T08:44:46.000Z</time>
      </trkpt>
      <trkpt lat="45.65114" lon="6.73592">
        <ele>1753.5999755859</ele>
        <time>2020-01-08T08:44:52.000Z</time>
      </trkpt>
      <trkpt lat="45.65118" lon="6.7359">
        <ele>1754</ele>
        <time>2020-01-08T08:44:57.000Z</time>
      </trkpt>
      <trkpt lat="45.6512" lon="6.7359">
        <ele>1754.1999511719</ele>
        <time>2020-01-08T08:44:59.000Z</time>
      </trkpt>
      <trkpt lat="45.65121" lon="6.73588">
        <ele>1754.5999755859</ele>
        <time>2020-01-08T08:45:02.000Z</time>
      </trkpt>
      <trkpt lat="45.65123" lon="6.73587">
        <ele>1755.1999511719</ele>
        <time>2020-01-08T08:45:07.000Z</time>
      </trkpt>
      <trkpt lat="45.65125" lon="6.73588">
        <ele>1755.8000488281</ele>
        <time>2020-01-08T08:45:10.000Z</time>
      </trkpt>
      <trkpt lat="45.65126" lon="6.73588">
        <ele>1755.8000488281</ele>
        <time>2020-01-08T08:45:11.000Z</time>
      </trkpt>
      <trkpt lat="45.65129" lon="6.73587">
        <ele>1756</ele>
        <time>2020-01-08T08:45:13.000Z</time>
      </trkpt>
      <trkpt lat="45.65132" lon="6.73586">
        <ele>1756.1999511719</ele>
        <time>2020-01-08T08:45:16.000Z</time>
      </trkpt>
      <trkpt lat="45.65135" lon="6.73585">
        <ele>1756.4000244141</ele>
        <time>2020-01-08T08:45:20.000Z</time>
      </trkpt>
      <trkpt lat="45.65136" lon="6.73585">
        <ele>1756.4000244141</ele>
        <time>2020-01-08T08:45:21.000Z</time>
      </trkpt>
      <trkpt lat="45.6514" lon="6.73582">
        <ele>1757.4000244141</ele>
        <time>2020-01-08T08:45:27.000Z</time>
      </trkpt>
      <trkpt lat="45.65141" lon="6.73582">
        <ele>1758</ele>
        <time>2020-01-08T08:45:32.000Z</time>
      </trkpt>
      <trkpt lat="45.65141" lon="6.73582">
        <ele>1758.5999755859</ele>
        <time>2020-01-08T08:45:35.000Z</time>
      </trkpt>
      <trkpt lat="45.65142" lon="6.7358">
        <ele>1759</ele>
        <time>2020-01-08T08:45:40.000Z</time>
      </trkpt>
      <trkpt lat="45.65145" lon="6.73577">
        <ele>1759</ele>
        <time>2020-01-08T08:45:43.000Z</time>
      </trkpt>
      <trkpt lat="45.65146" lon="6.73576">
        <ele>1759</ele>
        <time>2020-01-08T08:45:44.000Z</time>
      </trkpt>
      <trkpt lat="45.65147" lon="6.73573">
        <ele>1759.4000244141</ele>
        <time>2020-01-08T08:45:46.000Z</time>
      </trkpt>
      <trkpt lat="45.65147" lon="6.73573">
        <ele>1759.5999755859</ele>
        <time>2020-01-08T08:45:47.000Z</time>
      </trkpt>
      <trkpt lat="45.65148" lon="6.73572">
        <ele>1759.8000488281</ele>
        <time>2020-01-08T08:45:48.000Z</time>
      </trkpt>
      <trkpt lat="45.65148" lon="6.73572">
        <ele>1760.5999755859</ele>
        <time>2020-01-08T08:45:54.000Z</time>
      </trkpt>
      <trkpt lat="45.65148" lon="6.73572">
        <ele>1760.5999755859</ele>
        <time>2020-01-08T08:45:55.000Z</time>
      </trkpt>
      <trkpt lat="45.65148" lon="6.73568">
        <ele>1760.5999755859</ele>
        <time>2020-01-08T08:46:03.000Z</time>
      </trkpt>
      <trkpt lat="45.65147" lon="6.73563">
        <ele>1761.1999511719</ele>
        <time>2020-01-08T08:46:07.000Z</time>
      </trkpt>
      <trkpt lat="45.65147" lon="6.73561">
        <ele>1761.8000488281</ele>
        <time>2020-01-08T08:46:09.000Z</time>
      </trkpt>
      <trkpt lat="45.65146" lon="6.73559">
        <ele>1762</ele>
        <time>2020-01-08T08:46:10.000Z</time>
      </trkpt>
      <trkpt lat="45.65146" lon="6.73558">
        <ele>1762.1999511719</ele>
        <time>2020-01-08T08:46:11.000Z</time>
      </trkpt>
      <trkpt lat="45.65144" lon="6.73553">
        <ele>1762.8000488281</ele>
        <time>2020-01-08T08:46:15.000Z</time>
      </trkpt>
      <trkpt lat="45.65141" lon="6.73552">
        <ele>1764</ele>
        <time>2020-01-08T08:46:20.000Z</time>
      </trkpt>
      <trkpt lat="45.65141" lon="6.73552">
        <ele>1764</ele>
        <time>2020-01-08T08:46:21.000Z</time>
      </trkpt>
      <trkpt lat="45.65143" lon="6.73551">
        <ele>1764.8000488281</ele>
        <time>2020-01-08T08:46:26.000Z</time>
      </trkpt>
      <trkpt lat="45.65144" lon="6.73551">
        <ele>1765</ele>
        <time>2020-01-08T08:46:27.000Z</time>
      </trkpt>
      <trkpt lat="45.65147" lon="6.7355">
        <ele>1766.1999511719</ele>
        <time>2020-01-08T08:46:31.000Z</time>
      </trkpt>
      <trkpt lat="45.65147" lon="6.7355">
        <ele>1766.4000244141</ele>
        <time>2020-01-08T08:46:32.000Z</time>
      </trkpt>
      <trkpt lat="45.65151" lon="6.73547">
        <ele>1766.4000244141</ele>
        <time>2020-01-08T08:46:37.000Z</time>
      </trkpt>
      <trkpt lat="45.65154" lon="6.73545">
        <ele>1766.8000488281</ele>
        <time>2020-01-08T08:46:42.000Z</time>
      </trkpt>
      <trkpt lat="45.65156" lon="6.73544">
        <ele>1767.4000244141</ele>
        <time>2020-01-08T08:46:45.000Z</time>
      </trkpt>
      <trkpt lat="45.65157" lon="6.73544">
        <ele>1768.1999511719</ele>
        <time>2020-01-08T08:46:47.000Z</time>
      </trkpt>
      <trkpt lat="45.65157" lon="6.73544">
        <ele>1768.4000244141</ele>
        <time>2020-01-08T08:46:48.000Z</time>
      </trkpt>
      <trkpt lat="45.65157" lon="6.73544">
        <ele>1769.4000244141</ele>
        <time>2020-01-08T08:46:51.000Z</time>
      </trkpt>
      <trkpt lat="45.65157" lon="6.73542">
        <ele>1769.5999755859</ele>
        <time>2020-01-08T08:46:55.000Z</time>
      </trkpt>
      <trkpt lat="45.65158" lon="6.7354">
        <ele>1770.5999755859</ele>
        <time>2020-01-08T08:47:01.000Z</time>
      </trkpt>
      <trkpt lat="45.65158" lon="6.7354">
        <ele>1770.8000488281</ele>
        <time>2020-01-08T08:47:02.000Z</time>
      </trkpt>
      <trkpt lat="45.6516" lon="6.73537">
        <ele>1771</ele>
        <time>2020-01-08T08:47:06.000Z</time>
      </trkpt>
      <trkpt lat="45.65161" lon="6.73537">
        <ele>1771</ele>
        <time>2020-01-08T08:47:07.000Z</time>
      </trkpt>
      <trkpt lat="45.65164" lon="6.73532">
        <ele>1771.4000244141</ele>
        <time>2020-01-08T08:47:12.000Z</time>
      </trkpt>
      <trkpt lat="45.65164" lon="6.73531">
        <ele>1771.8000488281</ele>
        <time>2020-01-08T08:47:14.000Z</time>
      </trkpt>
      <trkpt lat="45.65164" lon="6.73531">
        <ele>1772.4000244141</ele>
        <time>2020-01-08T08:47:18.000Z</time>
      </trkpt>
      <trkpt lat="45.65161" lon="6.7353">
        <ele>1772.5999755859</ele>
        <time>2020-01-08T08:47:22.000Z</time>
      </trkpt>
      <trkpt lat="45.65161" lon="6.7353">
        <ele>1772.5999755859</ele>
        <time>2020-01-08T08:47:23.000Z</time>
      </trkpt>
      <trkpt lat="45.65158" lon="6.73532">
        <ele>1773</ele>
        <time>2020-01-08T08:47:26.000Z</time>
      </trkpt>
      <trkpt lat="45.65156" lon="6.73532">
        <ele>1773.4000244141</ele>
        <time>2020-01-08T08:47:28.000Z</time>
      </trkpt>
      <trkpt lat="45.65153" lon="6.73533">
        <ele>1774</ele>
        <time>2020-01-08T08:47:33.000Z</time>
      </trkpt>
      <trkpt lat="45.65151" lon="6.73532">
        <ele>1774.1999511719</ele>
        <time>2020-01-08T08:47:35.000Z</time>
      </trkpt>
      <trkpt lat="45.65145" lon="6.73528">
        <ele>1774.4000244141</ele>
        <time>2020-01-08T08:47:41.000Z</time>
      </trkpt>
      <trkpt lat="45.65143" lon="6.73526">
        <ele>1775.1999511719</ele>
        <time>2020-01-08T08:47:45.000Z</time>
      </trkpt>
      <trkpt lat="45.65143" lon="6.73523">
        <ele>1776</ele>
        <time>2020-01-08T08:47:50.000Z</time>
      </trkpt>
      <trkpt lat="45.65143" lon="6.73523">
        <ele>1776.4000244141</ele>
        <time>2020-01-08T08:47:52.000Z</time>
      </trkpt>
      <trkpt lat="45.65143" lon="6.73523">
        <ele>1776</ele>
        <time>2020-01-08T08:47:59.000Z</time>
      </trkpt>
      <trkpt lat="45.65143" lon="6.73523">
        <ele>1777.5999755859</ele>
        <time>2020-01-08T08:48:04.000Z</time>
      </trkpt>
      <trkpt lat="45.65143" lon="6.73522">
        <ele>1778</ele>
        <time>2020-01-08T08:48:08.000Z</time>
      </trkpt>
      <trkpt lat="45.65147" lon="6.73521">
        <ele>1777.4000244141</ele>
        <time>2020-01-08T08:48:13.000Z</time>
      </trkpt>
      <trkpt lat="45.6515" lon="6.73519">
        <ele>1778.5999755859</ele>
        <time>2020-01-08T08:48:17.000Z</time>
      </trkpt>
      <trkpt lat="45.6515" lon="6.73519">
        <ele>1779.1999511719</ele>
        <time>2020-01-08T08:48:19.000Z</time>
      </trkpt>
      <trkpt lat="45.65151" lon="6.73517">
        <ele>1780</ele>
        <time>2020-01-08T08:48:22.000Z</time>
      </trkpt>
      <trkpt lat="45.65151" lon="6.73515">
        <ele>1780.4000244141</ele>
        <time>2020-01-08T08:48:24.000Z</time>
      </trkpt>
      <trkpt lat="45.65151" lon="6.73513">
        <ele>1781</ele>
        <time>2020-01-08T08:48:28.000Z</time>
      </trkpt>
      <trkpt lat="45.65151" lon="6.73512">
        <ele>1781.1999511719</ele>
        <time>2020-01-08T08:48:29.000Z</time>
      </trkpt>
      <trkpt lat="45.65149" lon="6.73511">
        <ele>1782.1999511719</ele>
        <time>2020-01-08T08:48:33.000Z</time>
      </trkpt>
      <trkpt lat="45.65145" lon="6.73508">
        <ele>1783</ele>
        <time>2020-01-08T08:48:37.000Z</time>
      </trkpt>
      <trkpt lat="45.65144" lon="6.73508">
        <ele>1783.1999511719</ele>
        <time>2020-01-08T08:48:39.000Z</time>
      </trkpt>
      <trkpt lat="45.65143" lon="6.73507">
        <ele>1784</ele>
        <time>2020-01-08T08:48:42.000Z</time>
      </trkpt>
      <trkpt lat="45.65142" lon="6.73505">
        <ele>1784.1999511719</ele>
        <time>2020-01-08T08:48:43.000Z</time>
      </trkpt>
      <trkpt lat="45.65142" lon="6.73502">
        <ele>1785.4000244141</ele>
        <time>2020-01-08T08:48:46.000Z</time>
      </trkpt>
      <trkpt lat="45.65144" lon="6.73497">
        <ele>1786</ele>
        <time>2020-01-08T08:48:51.000Z</time>
      </trkpt>
      <trkpt lat="45.65147" lon="6.73495">
        <ele>1786.5999755859</ele>
        <time>2020-01-08T08:48:55.000Z</time>
      </trkpt>
      <trkpt lat="45.65148" lon="6.73493">
        <ele>1787</ele>
        <time>2020-01-08T08:48:57.000Z</time>
      </trkpt>
      <trkpt lat="45.65149" lon="6.73491">
        <ele>1787.5999755859</ele>
        <time>2020-01-08T08:48:59.000Z</time>
      </trkpt>
      <trkpt lat="45.65151" lon="6.73488">
        <ele>1788.4000244141</ele>
        <time>2020-01-08T08:49:02.000Z</time>
      </trkpt>
      <trkpt lat="45.65152" lon="6.73485">
        <ele>1788.5999755859</ele>
        <time>2020-01-08T08:49:04.000Z</time>
      </trkpt>
      <trkpt lat="45.65153" lon="6.73484">
        <ele>1788.8000488281</ele>
        <time>2020-01-08T08:49:05.000Z</time>
      </trkpt>
      <trkpt lat="45.65154" lon="6.73483">
        <ele>1789.1999511719</ele>
        <time>2020-01-08T08:49:07.000Z</time>
      </trkpt>
      <trkpt lat="45.65157" lon="6.7348">
        <ele>1789.8000488281</ele>
        <time>2020-01-08T08:49:11.000Z</time>
      </trkpt>
      <trkpt lat="45.65157" lon="6.73478">
        <ele>1790.4000244141</ele>
        <time>2020-01-08T08:49:13.000Z</time>
      </trkpt>
      <trkpt lat="45.65158" lon="6.73476">
        <ele>1791.1999511719</ele>
        <time>2020-01-08T08:49:15.000Z</time>
      </trkpt>
      <trkpt lat="45.65161" lon="6.73472">
        <ele>1791.8000488281</ele>
        <time>2020-01-08T08:49:19.000Z</time>
      </trkpt>
      <trkpt lat="45.65162" lon="6.7347">
        <ele>1792.1999511719</ele>
        <time>2020-01-08T08:49:22.000Z</time>
      </trkpt>
      <trkpt lat="45.65162" lon="6.73468">
        <ele>1793.1999511719</ele>
        <time>2020-01-08T08:49:25.000Z</time>
      </trkpt>
      <trkpt lat="45.65161" lon="6.73466">
        <ele>1793.5999755859</ele>
        <time>2020-01-08T08:49:26.000Z</time>
      </trkpt>
      <trkpt lat="45.65158" lon="6.73464">
        <ele>1794</ele>
        <time>2020-01-08T08:49:28.000Z</time>
      </trkpt>
      <trkpt lat="45.65158" lon="6.73463">
        <ele>1794.1999511719</ele>
        <time>2020-01-08T08:49:29.000Z</time>
      </trkpt>
      <trkpt lat="45.65156" lon="6.73463">
        <ele>1794.8000488281</ele>
        <time>2020-01-08T08:49:32.000Z</time>
      </trkpt>
      <trkpt lat="45.65155" lon="6.73463">
        <ele>1795.5999755859</ele>
        <time>2020-01-08T08:49:34.000Z</time>
      </trkpt>
      <trkpt lat="45.65155" lon="6.73463">
        <ele>1795.8000488281</ele>
        <time>2020-01-08T08:49:35.000Z</time>
      </trkpt>
      <trkpt lat="45.65155" lon="6.73463">
        <ele>1796.4000244141</ele>
        <time>2020-01-08T08:49:47.000Z</time>
      </trkpt>
      <trkpt lat="45.65154" lon="6.73463">
        <ele>1796.4000244141</ele>
        <time>2020-01-08T08:49:58.000Z</time>
      </trkpt>
      <trkpt lat="45.65153" lon="6.73463">
        <ele>1796.5999755859</ele>
        <time>2020-01-08T08:49:59.000Z</time>
      </trkpt>
      <trkpt lat="45.6515" lon="6.73462">
        <ele>1796.8000488281</ele>
        <time>2020-01-08T08:50:04.000Z</time>
      </trkpt>
      <trkpt lat="45.65149" lon="6.73461">
        <ele>1797</ele>
        <time>2020-01-08T08:50:05.000Z</time>
      </trkpt>
      <trkpt lat="45.65144" lon="6.73457">
        <ele>1797.4000244141</ele>
        <time>2020-01-08T08:50:10.000Z</time>
      </trkpt>
      <trkpt lat="45.65143" lon="6.73457">
        <ele>1798</ele>
        <time>2020-01-08T08:50:13.000Z</time>
      </trkpt>
      <trkpt lat="45.65145" lon="6.73454">
        <ele>1798.8000488281</ele>
        <time>2020-01-08T08:50:16.000Z</time>
      </trkpt>
      <trkpt lat="45.65145" lon="6.73454">
        <ele>1799.1999511719</ele>
        <time>2020-01-08T08:50:17.000Z</time>
      </trkpt>
      <trkpt lat="45.65145" lon="6.73453">
        <ele>1799.5999755859</ele>
        <time>2020-01-08T08:50:22.000Z</time>
      </trkpt>
      <trkpt lat="45.65145" lon="6.73453">
        <ele>1799.5999755859</ele>
        <time>2020-01-08T08:50:42.000Z</time>
      </trkpt>
      <trkpt lat="45.65145" lon="6.73453">
        <ele>1799.5999755859</ele>
        <time>2020-01-08T08:51:00.000Z</time>
      </trkpt>
      <trkpt lat="45.65145" lon="6.73453">
        <ele>1799.5999755859</ele>
        <time>2020-01-08T08:51:14.000Z</time>
      </trkpt>
      <trkpt lat="45.65148" lon="6.73452">
        <ele>1799.5999755859</ele>
        <time>2020-01-08T08:51:23.000Z</time>
      </trkpt>
      <trkpt lat="45.6515" lon="6.73451">
        <ele>1799.5999755859</ele>
        <time>2020-01-08T08:51:25.000Z</time>
      </trkpt>
      <trkpt lat="45.65153" lon="6.73451">
        <ele>1799.8000488281</ele>
        <time>2020-01-08T08:51:28.000Z</time>
      </trkpt>
      <trkpt lat="45.65156" lon="6.7345">
        <ele>1800.1999511719</ele>
        <time>2020-01-08T08:51:31.000Z</time>
      </trkpt>
      <trkpt lat="45.65156" lon="6.7345">
        <ele>1800.4000244141</ele>
        <time>2020-01-08T08:51:33.000Z</time>
      </trkpt>
      <trkpt lat="45.6516" lon="6.73448">
        <ele>1801</ele>
        <time>2020-01-08T08:51:38.000Z</time>
      </trkpt>
      <trkpt lat="45.65162" lon="6.73447">
        <ele>1801.1999511719</ele>
        <time>2020-01-08T08:51:39.000Z</time>
      </trkpt>
      <trkpt lat="45.65164" lon="6.73445">
        <ele>1801.5999755859</ele>
        <time>2020-01-08T08:51:43.000Z</time>
      </trkpt>
      <trkpt lat="45.65168" lon="6.73443">
        <ele>1802.1999511719</ele>
        <time>2020-01-08T08:51:48.000Z</time>
      </trkpt>
      <trkpt lat="45.65169" lon="6.73442">
        <ele>1802.4000244141</ele>
        <time>2020-01-08T08:51:49.000Z</time>
      </trkpt>
      <trkpt lat="45.65173" lon="6.73439">
        <ele>1803.1999511719</ele>
        <time>2020-01-08T08:51:54.000Z</time>
      </trkpt>
      <trkpt lat="45.65173" lon="6.73438">
        <ele>1803.4000244141</ele>
        <time>2020-01-08T08:51:55.000Z</time>
      </trkpt>
      <trkpt lat="45.65177" lon="6.73435">
        <ele>1804.1999511719</ele>
        <time>2020-01-08T08:52:00.000Z</time>
      </trkpt>
      <trkpt lat="45.65178" lon="6.73434">
        <ele>1804.4000244141</ele>
        <time>2020-01-08T08:52:02.000Z</time>
      </trkpt>
      <trkpt lat="45.65182" lon="6.73431">
        <ele>1804.8000488281</ele>
        <time>2020-01-08T08:52:06.000Z</time>
      </trkpt>
      <trkpt lat="45.65185" lon="6.7343">
        <ele>1805.1999511719</ele>
        <time>2020-01-08T08:52:09.000Z</time>
      </trkpt>
      <trkpt lat="45.65186" lon="6.73428">
        <ele>1805.4000244141</ele>
        <time>2020-01-08T08:52:11.000Z</time>
      </trkpt>
      <trkpt lat="45.6519" lon="6.73424">
        <ele>1806</ele>
        <time>2020-01-08T08:52:17.000Z</time>
      </trkpt>
      <trkpt lat="45.65195" lon="6.73416">
        <ele>1806.1999511719</ele>
        <time>2020-01-08T08:52:22.000Z</time>
      </trkpt>
      <trkpt lat="45.65203" lon="6.73412">
        <ele>1805.1999511719</ele>
        <time>2020-01-08T08:52:29.000Z</time>
      </trkpt>
      <trkpt lat="45.65208" lon="6.73411">
        <ele>1804.8000488281</ele>
        <time>2020-01-08T08:52:35.000Z</time>
      </trkpt>
      <trkpt lat="45.65212" lon="6.73413">
        <ele>1804.4000244141</ele>
        <time>2020-01-08T08:52:41.000Z</time>
      </trkpt>
      <trkpt lat="45.65212" lon="6.73414">
        <ele>1804.4000244141</ele>
        <time>2020-01-08T08:52:42.000Z</time>
      </trkpt>
      <trkpt lat="45.65216" lon="6.73418">
        <ele>1804.5999755859</ele>
        <time>2020-01-08T08:52:47.000Z</time>
      </trkpt>
      <trkpt lat="45.6522" lon="6.73423">
        <ele>1804.4000244141</ele>
        <time>2020-01-08T08:52:52.000Z</time>
      </trkpt>
      <trkpt lat="45.65223" lon="6.73429">
        <ele>1804.4000244141</ele>
        <time>2020-01-08T08:52:57.000Z</time>
      </trkpt>
      <trkpt lat="45.65228" lon="6.73436">
        <ele>1805.1999511719</ele>
        <time>2020-01-08T08:53:03.000Z</time>
      </trkpt>
      <trkpt lat="45.65229" lon="6.73438">
        <ele>1805.5999755859</ele>
        <time>2020-01-08T08:53:05.000Z</time>
      </trkpt>
      <trkpt lat="45.65228" lon="6.73438">
        <ele>1805.8000488281</ele>
        <time>2020-01-08T08:53:07.000Z</time>
      </trkpt>
      <trkpt lat="45.6523" lon="6.73444">
        <ele>1806</ele>
        <time>2020-01-08T08:53:12.000Z</time>
      </trkpt>
      <trkpt lat="45.6523" lon="6.73445">
        <ele>1806.4000244141</ele>
        <time>2020-01-08T08:53:20.000Z</time>
      </trkpt>
      <trkpt lat="45.6523" lon="6.73446">
        <ele>1806.4000244141</ele>
        <time>2020-01-08T08:53:26.000Z</time>
      </trkpt>
      <trkpt lat="45.6523" lon="6.73446">
        <ele>1806.4000244141</ele>
        <time>2020-01-08T08:53:35.000Z</time>
      </trkpt>
      <trkpt lat="45.65232" lon="6.73448">
        <ele>1806.4000244141</ele>
        <time>2020-01-08T08:53:39.000Z</time>
      </trkpt>
      <trkpt lat="45.65235" lon="6.73453">
        <ele>1806.5999755859</ele>
        <time>2020-01-08T08:53:44.000Z</time>
      </trkpt>
      <trkpt lat="45.65236" lon="6.73454">
        <ele>1806.5999755859</ele>
        <time>2020-01-08T08:53:45.000Z</time>
      </trkpt>
      <trkpt lat="45.65239" lon="6.73459">
        <ele>1807</ele>
        <time>2020-01-08T08:53:49.000Z</time>
      </trkpt>
      <trkpt lat="45.65243" lon="6.73464">
        <ele>1807</ele>
        <time>2020-01-08T08:53:54.000Z</time>
      </trkpt>
      <trkpt lat="45.65246" lon="6.73469">
        <ele>1807.8000488281</ele>
        <time>2020-01-08T08:53:58.000Z</time>
      </trkpt>
      <trkpt lat="45.65249" lon="6.73471">
        <ele>1808.4000244141</ele>
        <time>2020-01-08T08:54:01.000Z</time>
      </trkpt>
      <trkpt lat="45.6525" lon="6.73472">
        <ele>1808.8000488281</ele>
        <time>2020-01-08T08:54:03.000Z</time>
      </trkpt>
      <trkpt lat="45.65251" lon="6.73473">
        <ele>1808.8000488281</ele>
        <time>2020-01-08T08:54:04.000Z</time>
      </trkpt>
      <trkpt lat="45.65253" lon="6.73475">
        <ele>1809.4000244141</ele>
        <time>2020-01-08T08:54:08.000Z</time>
      </trkpt>
      <trkpt lat="45.65257" lon="6.73477">
        <ele>1809.8000488281</ele>
        <time>2020-01-08T08:54:12.000Z</time>
      </trkpt>
      <trkpt lat="45.65257" lon="6.73478">
        <ele>1810</ele>
        <time>2020-01-08T08:54:13.000Z</time>
      </trkpt>
      <trkpt lat="45.65259" lon="6.73481">
        <ele>1810.8000488281</ele>
        <time>2020-01-08T08:54:17.000Z</time>
      </trkpt>
      <trkpt lat="45.6526" lon="6.73482">
        <ele>1811.1999511719</ele>
        <time>2020-01-08T08:54:19.000Z</time>
      </trkpt>
      <trkpt lat="45.65262" lon="6.73485">
        <ele>1811.8000488281</ele>
        <time>2020-01-08T08:54:23.000Z</time>
      </trkpt>
      <trkpt lat="45.65264" lon="6.73488">
        <ele>1812</ele>
        <time>2020-01-08T08:54:25.000Z</time>
      </trkpt>
      <trkpt lat="45.65265" lon="6.73491">
        <ele>1812.4000244141</ele>
        <time>2020-01-08T08:54:27.000Z</time>
      </trkpt>
      <trkpt lat="45.65267" lon="6.73493">
        <ele>1813</ele>
        <time>2020-01-08T08:54:30.000Z</time>
      </trkpt>
      <trkpt lat="45.65267" lon="6.73493">
        <ele>1813.1999511719</ele>
        <time>2020-01-08T08:54:31.000Z</time>
      </trkpt>
      <trkpt lat="45.6527" lon="6.73499">
        <ele>1814</ele>
        <time>2020-01-08T08:54:36.000Z</time>
      </trkpt>
      <trkpt lat="45.65272" lon="6.73506">
        <ele>1814.5999755859</ele>
        <time>2020-01-08T08:54:41.000Z</time>
      </trkpt>
      <trkpt lat="45.65276" lon="6.73511">
        <ele>1815</ele>
        <time>2020-01-08T08:54:46.000Z</time>
      </trkpt>
      <trkpt lat="45.65278" lon="6.73513">
        <ele>1815</ele>
        <time>2020-01-08T08:54:48.000Z</time>
      </trkpt>
      <trkpt lat="45.65279" lon="6.73515">
        <ele>1815.1999511719</ele>
        <time>2020-01-08T08:54:50.000Z</time>
      </trkpt>
      <trkpt lat="45.65281" lon="6.73519">
        <ele>1815.4000244141</ele>
        <time>2020-01-08T08:54:54.000Z</time>
      </trkpt>
      <trkpt lat="45.65282" lon="6.73516">
        <ele>1815.5999755859</ele>
        <time>2020-01-08T08:54:58.000Z</time>
      </trkpt>
      <trkpt lat="45.65283" lon="6.7351">
        <ele>1816</ele>
        <time>2020-01-08T08:55:03.000Z</time>
      </trkpt>
      <trkpt lat="45.65282" lon="6.73505">
        <ele>1817</ele>
        <time>2020-01-08T08:55:07.000Z</time>
      </trkpt>
      <trkpt lat="45.65282" lon="6.73505">
        <ele>1817.1999511719</ele>
        <time>2020-01-08T08:55:08.000Z</time>
      </trkpt>
      <trkpt lat="45.65282" lon="6.73504">
        <ele>1817.5999755859</ele>
        <time>2020-01-08T08:55:11.000Z</time>
      </trkpt>
      <trkpt lat="45.65281" lon="6.73498">
        <ele>1818.4000244141</ele>
        <time>2020-01-08T08:55:16.000Z</time>
      </trkpt>
      <trkpt lat="45.65282" lon="6.73495">
        <ele>1819.4000244141</ele>
        <time>2020-01-08T08:55:20.000Z</time>
      </trkpt>
      <trkpt lat="45.65281" lon="6.73492">
        <ele>1819.4000244141</ele>
        <time>2020-01-08T08:55:21.000Z</time>
      </trkpt>
      <trkpt lat="45.65281" lon="6.73487">
        <ele>1819.8000488281</ele>
        <time>2020-01-08T08:55:24.000Z</time>
      </trkpt>
      <trkpt lat="45.65282" lon="6.73483">
        <ele>1820</ele>
        <time>2020-01-08T08:55:28.000Z</time>
      </trkpt>
      <trkpt lat="45.65281" lon="6.73476">
        <ele>1820.4000244141</ele>
        <time>2020-01-08T08:55:33.000Z</time>
      </trkpt>
      <trkpt lat="45.65281" lon="6.73469">
        <ele>1821</ele>
        <time>2020-01-08T08:55:38.000Z</time>
      </trkpt>
      <trkpt lat="45.65282" lon="6.73464">
        <ele>1821.5999755859</ele>
        <time>2020-01-08T08:55:41.000Z</time>
      </trkpt>
      <trkpt lat="45.65282" lon="6.73463">
        <ele>1821.5999755859</ele>
        <time>2020-01-08T08:55:42.000Z</time>
      </trkpt>
      <trkpt lat="45.6528" lon="6.73457">
        <ele>1822.1999511719</ele>
        <time>2020-01-08T08:55:47.000Z</time>
      </trkpt>
      <trkpt lat="45.6528" lon="6.7345">
        <ele>1822.5999755859</ele>
        <time>2020-01-08T08:55:52.000Z</time>
      </trkpt>
      <trkpt lat="45.65278" lon="6.73442">
        <ele>1823.1999511719</ele>
        <time>2020-01-08T08:55:57.000Z</time>
      </trkpt>
      <trkpt lat="45.65277" lon="6.7344">
        <ele>1823.8000488281</ele>
        <time>2020-01-08T08:55:59.000Z</time>
      </trkpt>
      <trkpt lat="45.65276" lon="6.73436">
        <ele>1824.1999511719</ele>
        <time>2020-01-08T08:56:02.000Z</time>
      </trkpt>
      <trkpt lat="45.65275" lon="6.73432">
        <ele>1824.8000488281</ele>
        <time>2020-01-08T08:56:06.000Z</time>
      </trkpt>
      <trkpt lat="45.65275" lon="6.7343">
        <ele>1825</ele>
        <time>2020-01-08T08:56:07.000Z</time>
      </trkpt>
      <trkpt lat="45.65273" lon="6.73425">
        <ele>1825.1999511719</ele>
        <time>2020-01-08T08:56:12.000Z</time>
      </trkpt>
      <trkpt lat="45.65274" lon="6.73422">
        <ele>1825.5999755859</ele>
        <time>2020-01-08T08:56:16.000Z</time>
      </trkpt>
      <trkpt lat="45.65274" lon="6.73418">
        <ele>1826</ele>
        <time>2020-01-08T08:56:20.000Z</time>
      </trkpt>
      <trkpt lat="45.65274" lon="6.73414">
        <ele>1826.5999755859</ele>
        <time>2020-01-08T08:56:25.000Z</time>
      </trkpt>
      <trkpt lat="45.65275" lon="6.7341">
        <ele>1827</ele>
        <time>2020-01-08T08:56:28.000Z</time>
      </trkpt>
      <trkpt lat="45.65276" lon="6.73408">
        <ele>1827.5999755859</ele>
        <time>2020-01-08T08:56:30.000Z</time>
      </trkpt>
      <trkpt lat="45.65276" lon="6.73408">
        <ele>1828</ele>
        <time>2020-01-08T08:56:31.000Z</time>
      </trkpt>
      <trkpt lat="45.65279" lon="6.73404">
        <ele>1828.8000488281</ele>
        <time>2020-01-08T08:56:35.000Z</time>
      </trkpt>
      <trkpt lat="45.6528" lon="6.73401">
        <ele>1829.1999511719</ele>
        <time>2020-01-08T08:56:38.000Z</time>
      </trkpt>
      <trkpt lat="45.65281" lon="6.73398">
        <ele>1829.4000244141</ele>
        <time>2020-01-08T08:56:41.000Z</time>
      </trkpt>
      <trkpt lat="45.65282" lon="6.73395">
        <ele>1830</ele>
        <time>2020-01-08T08:56:46.000Z</time>
      </trkpt>
      <trkpt lat="45.65282" lon="6.73394">
        <ele>1830.4000244141</ele>
        <time>2020-01-08T08:56:47.000Z</time>
      </trkpt>
      <trkpt lat="45.65284" lon="6.7339">
        <ele>1831.4000244141</ele>
        <time>2020-01-08T08:56:51.000Z</time>
      </trkpt>
      <trkpt lat="45.65287" lon="6.73385">
        <ele>1832.1999511719</ele>
        <time>2020-01-08T08:56:56.000Z</time>
      </trkpt>
      <trkpt lat="45.65288" lon="6.73381">
        <ele>1832.4000244141</ele>
        <time>2020-01-08T08:57:01.000Z</time>
      </trkpt>
      <trkpt lat="45.65288" lon="6.7338">
        <ele>1832.5999755859</ele>
        <time>2020-01-08T08:57:02.000Z</time>
      </trkpt>
      <trkpt lat="45.65288" lon="6.73374">
        <ele>1833.4000244141</ele>
        <time>2020-01-08T08:57:06.000Z</time>
      </trkpt>
      <trkpt lat="45.65288" lon="6.73372">
        <ele>1833.8000488281</ele>
        <time>2020-01-08T08:57:08.000Z</time>
      </trkpt>
      <trkpt lat="45.65289" lon="6.7337">
        <ele>1834</ele>
        <time>2020-01-08T08:57:10.000Z</time>
      </trkpt>
      <trkpt lat="45.65289" lon="6.73367">
        <ele>1834.8000488281</ele>
        <time>2020-01-08T08:57:14.000Z</time>
      </trkpt>
      <trkpt lat="45.65288" lon="6.73361">
        <ele>1836</ele>
        <time>2020-01-08T08:57:21.000Z</time>
      </trkpt>
      <trkpt lat="45.6529" lon="6.73353">
        <ele>1837</ele>
        <time>2020-01-08T08:57:26.000Z</time>
      </trkpt>
      <trkpt lat="45.65292" lon="6.73349">
        <ele>1837.5999755859</ele>
        <time>2020-01-08T08:57:30.000Z</time>
      </trkpt>
      <trkpt lat="45.65292" lon="6.73346">
        <ele>1838</ele>
        <time>2020-01-08T08:57:32.000Z</time>
      </trkpt>
      <trkpt lat="45.65293" lon="6.73344">
        <ele>1838.1999511719</ele>
        <time>2020-01-08T08:57:33.000Z</time>
      </trkpt>
      <trkpt lat="45.65293" lon="6.7334">
        <ele>1839</ele>
        <time>2020-01-08T08:57:37.000Z</time>
      </trkpt>
      <trkpt lat="45.65293" lon="6.73338">
        <ele>1839.1999511719</ele>
        <time>2020-01-08T08:57:39.000Z</time>
      </trkpt>
      <trkpt lat="45.65293" lon="6.73336">
        <ele>1839.4000244141</ele>
        <time>2020-01-08T08:57:41.000Z</time>
      </trkpt>
      <trkpt lat="45.65294" lon="6.73336">
        <ele>1839.8000488281</ele>
        <time>2020-01-08T08:57:42.000Z</time>
      </trkpt>
      <trkpt lat="45.65294" lon="6.73329">
        <ele>1840.4000244141</ele>
        <time>2020-01-08T08:57:47.000Z</time>
      </trkpt>
      <trkpt lat="45.65294" lon="6.73323">
        <ele>1841.1999511719</ele>
        <time>2020-01-08T08:57:52.000Z</time>
      </trkpt>
      <trkpt lat="45.65295" lon="6.73321">
        <ele>1841.5999755859</ele>
        <time>2020-01-08T08:57:54.000Z</time>
      </trkpt>
      <trkpt lat="45.65295" lon="6.73316">
        <ele>1842</ele>
        <time>2020-01-08T08:57:58.000Z</time>
      </trkpt>
      <trkpt lat="45.65296" lon="6.73313">
        <ele>1842.5999755859</ele>
        <time>2020-01-08T08:58:03.000Z</time>
      </trkpt>
      <trkpt lat="45.65296" lon="6.73313">
        <ele>1842.8000488281</ele>
        <time>2020-01-08T08:58:04.000Z</time>
      </trkpt>
      <trkpt lat="45.65298" lon="6.73307">
        <ele>1843.8000488281</ele>
        <time>2020-01-08T08:58:09.000Z</time>
      </trkpt>
      <trkpt lat="45.65298" lon="6.73305">
        <ele>1844</ele>
        <time>2020-01-08T08:58:10.000Z</time>
      </trkpt>
      <trkpt lat="45.65299" lon="6.733">
        <ele>1844.5999755859</ele>
        <time>2020-01-08T08:58:15.000Z</time>
      </trkpt>
      <trkpt lat="45.65299" lon="6.73296">
        <ele>1845</ele>
        <time>2020-01-08T08:58:18.000Z</time>
      </trkpt>
      <trkpt lat="45.65299" lon="6.73294">
        <ele>1845.1999511719</ele>
        <time>2020-01-08T08:58:21.000Z</time>
      </trkpt>
      <trkpt lat="45.653" lon="6.7329">
        <ele>1846</ele>
        <time>2020-01-08T08:58:26.000Z</time>
      </trkpt>
      <trkpt lat="45.653" lon="6.73285">
        <ele>1846.8000488281</ele>
        <time>2020-01-08T08:58:30.000Z</time>
      </trkpt>
      <trkpt lat="45.65301" lon="6.73285">
        <ele>1847</ele>
        <time>2020-01-08T08:58:31.000Z</time>
      </trkpt>
      <trkpt lat="45.65303" lon="6.73281">
        <ele>1847.8000488281</ele>
        <time>2020-01-08T08:58:35.000Z</time>
      </trkpt>
      <trkpt lat="45.65306" lon="6.73279">
        <ele>1848.1999511719</ele>
        <time>2020-01-08T08:58:37.000Z</time>
      </trkpt>
      <trkpt lat="45.65307" lon="6.73277">
        <ele>1848.5999755859</ele>
        <time>2020-01-08T08:58:39.000Z</time>
      </trkpt>
      <trkpt lat="45.65308" lon="6.73276">
        <ele>1849</ele>
        <time>2020-01-08T08:58:41.000Z</time>
      </trkpt>
      <trkpt lat="45.65308" lon="6.73276">
        <ele>1849.1999511719</ele>
        <time>2020-01-08T08:58:42.000Z</time>
      </trkpt>
      <trkpt lat="45.65309" lon="6.73276">
        <ele>1849.8000488281</ele>
        <time>2020-01-08T08:58:46.000Z</time>
      </trkpt>
      <trkpt lat="45.6531" lon="6.73274">
        <ele>1850.4000244141</ele>
        <time>2020-01-08T08:58:48.000Z</time>
      </trkpt>
      <trkpt lat="45.65311" lon="6.73272">
        <ele>1850.5999755859</ele>
        <time>2020-01-08T08:58:50.000Z</time>
      </trkpt>
      <trkpt lat="45.65312" lon="6.73271">
        <ele>1851</ele>
        <time>2020-01-08T08:58:52.000Z</time>
      </trkpt>
      <trkpt lat="45.65313" lon="6.73269">
        <ele>1851.4000244141</ele>
        <time>2020-01-08T08:58:54.000Z</time>
      </trkpt>
      <trkpt lat="45.65314" lon="6.73267">
        <ele>1852</ele>
        <time>2020-01-08T08:58:58.000Z</time>
      </trkpt>
      <trkpt lat="45.65315" lon="6.73266">
        <ele>1852.4000244141</ele>
        <time>2020-01-08T08:59:00.000Z</time>
      </trkpt>
      <trkpt lat="45.65318" lon="6.73264">
        <ele>1853.4000244141</ele>
        <time>2020-01-08T08:59:04.000Z</time>
      </trkpt>
      <trkpt lat="45.65319" lon="6.73263">
        <ele>1853.5999755859</ele>
        <time>2020-01-08T08:59:05.000Z</time>
      </trkpt>
      <trkpt lat="45.65321" lon="6.73261">
        <ele>1854.5999755859</ele>
        <time>2020-01-08T08:59:10.000Z</time>
      </trkpt>
      <trkpt lat="45.65321" lon="6.73262">
        <ele>1854.8000488281</ele>
        <time>2020-01-08T08:59:11.000Z</time>
      </trkpt>
      <trkpt lat="45.65321" lon="6.7326">
        <ele>1855.8000488281</ele>
        <time>2020-01-08T08:59:14.000Z</time>
      </trkpt>
      <trkpt lat="45.65322" lon="6.73258">
        <ele>1856</ele>
        <time>2020-01-08T08:59:15.000Z</time>
      </trkpt>
      <trkpt lat="45.65324" lon="6.73256">
        <ele>1856.8000488281</ele>
        <time>2020-01-08T08:59:19.000Z</time>
      </trkpt>
      <trkpt lat="45.65324" lon="6.73257">
        <ele>1856.8000488281</ele>
        <time>2020-01-08T08:59:20.000Z</time>
      </trkpt>
      <trkpt lat="45.65326" lon="6.73254">
        <ele>1857.5999755859</ele>
        <time>2020-01-08T08:59:24.000Z</time>
      </trkpt>
      <trkpt lat="45.65327" lon="6.73254">
        <ele>1858</ele>
        <time>2020-01-08T08:59:26.000Z</time>
      </trkpt>
      <trkpt lat="45.65329" lon="6.73252">
        <ele>1858.4000244141</ele>
        <time>2020-01-08T08:59:29.000Z</time>
      </trkpt>
      <trkpt lat="45.65331" lon="6.73251">
        <ele>1859</ele>
        <time>2020-01-08T08:59:33.000Z</time>
      </trkpt>
      <trkpt lat="45.65333" lon="6.7325">
        <ele>1859.1999511719</ele>
        <time>2020-01-08T08:59:35.000Z</time>
      </trkpt>
      <trkpt lat="45.65338" lon="6.73244">
        <ele>1860</ele>
        <time>2020-01-08T08:59:41.000Z</time>
      </trkpt>
      <trkpt lat="45.65338" lon="6.73244">
        <ele>1860</ele>
        <time>2020-01-08T08:59:42.000Z</time>
      </trkpt>
      <trkpt lat="45.65339" lon="6.73241">
        <ele>1860.4000244141</ele>
        <time>2020-01-08T08:59:45.000Z</time>
      </trkpt>
      <trkpt lat="45.65343" lon="6.73237">
        <ele>1860.8000488281</ele>
        <time>2020-01-08T08:59:50.000Z</time>
      </trkpt>
      <trkpt lat="45.65344" lon="6.73234">
        <ele>1861</ele>
        <time>2020-01-08T08:59:54.000Z</time>
      </trkpt>
      <trkpt lat="45.65346" lon="6.73233">
        <ele>1861.1999511719</ele>
        <time>2020-01-08T08:59:56.000Z</time>
      </trkpt>
      <trkpt lat="45.65348" lon="6.73232">
        <ele>1861.4000244141</ele>
        <time>2020-01-08T09:00:01.000Z</time>
      </trkpt>
      <trkpt lat="45.65351" lon="6.73227">
        <ele>1861.5999755859</ele>
        <time>2020-01-08T09:00:07.000Z</time>
      </trkpt>
      <trkpt lat="45.65354" lon="6.73223">
        <ele>1861.8000488281</ele>
        <time>2020-01-08T09:00:12.000Z</time>
      </trkpt>
      <trkpt lat="45.65357" lon="6.73217">
        <ele>1862.1999511719</ele>
        <time>2020-01-08T09:00:17.000Z</time>
      </trkpt>
      <trkpt lat="45.65361" lon="6.73213">
        <ele>1862.8000488281</ele>
        <time>2020-01-08T09:00:22.000Z</time>
      </trkpt>
      <trkpt lat="45.65365" lon="6.7321">
        <ele>1863</ele>
        <time>2020-01-08T09:00:27.000Z</time>
      </trkpt>
      <trkpt lat="45.65366" lon="6.73208">
        <ele>1863.1999511719</ele>
        <time>2020-01-08T09:00:30.000Z</time>
      </trkpt>
      <trkpt lat="45.65367" lon="6.73208">
        <ele>1863.5999755859</ele>
        <time>2020-01-08T09:00:32.000Z</time>
      </trkpt>
      <trkpt lat="45.6537" lon="6.73203">
        <ele>1863.8000488281</ele>
        <time>2020-01-08T09:00:36.000Z</time>
      </trkpt>
      <trkpt lat="45.65375" lon="6.73201">
        <ele>1864.4000244141</ele>
        <time>2020-01-08T09:00:41.000Z</time>
      </trkpt>
      <trkpt lat="45.65376" lon="6.732">
        <ele>1864.5999755859</ele>
        <time>2020-01-08T09:00:42.000Z</time>
      </trkpt>
      <trkpt lat="45.65378" lon="6.73197">
        <ele>1865.5999755859</ele>
        <time>2020-01-08T09:00:47.000Z</time>
      </trkpt>
      <trkpt lat="45.6538" lon="6.73192">
        <ele>1866.4000244141</ele>
        <time>2020-01-08T09:00:52.000Z</time>
      </trkpt>
      <trkpt lat="45.65381" lon="6.73191">
        <ele>1866.5999755859</ele>
        <time>2020-01-08T09:00:54.000Z</time>
      </trkpt>
      <trkpt lat="45.65383" lon="6.73188">
        <ele>1867</ele>
        <time>2020-01-08T09:00:56.000Z</time>
      </trkpt>
      <trkpt lat="45.65385" lon="6.73186">
        <ele>1867.1999511719</ele>
        <time>2020-01-08T09:00:58.000Z</time>
      </trkpt>
      <trkpt lat="45.65387" lon="6.73184">
        <ele>1867.5999755859</ele>
        <time>2020-01-08T09:01:02.000Z</time>
      </trkpt>
      <trkpt lat="45.65388" lon="6.73183">
        <ele>1867.8000488281</ele>
        <time>2020-01-08T09:01:03.000Z</time>
      </trkpt>
      <trkpt lat="45.65391" lon="6.73181">
        <ele>1868.5999755859</ele>
        <time>2020-01-08T09:01:08.000Z</time>
      </trkpt>
      <trkpt lat="45.65391" lon="6.73182">
        <ele>1868.8000488281</ele>
        <time>2020-01-08T09:01:09.000Z</time>
      </trkpt>
      <trkpt lat="45.65395" lon="6.73179">
        <ele>1869.5999755859</ele>
        <time>2020-01-08T09:01:13.000Z</time>
      </trkpt>
      <trkpt lat="45.65396" lon="6.73178">
        <ele>1870</ele>
        <time>2020-01-08T09:01:17.000Z</time>
      </trkpt>
      <trkpt lat="45.65398" lon="6.73177">
        <ele>1870.1999511719</ele>
        <time>2020-01-08T09:01:18.000Z</time>
      </trkpt>
      <trkpt lat="45.65401" lon="6.73175">
        <ele>1871</ele>
        <time>2020-01-08T09:01:24.000Z</time>
      </trkpt>
      <trkpt lat="45.65404" lon="6.73174">
        <ele>1872.1999511719</ele>
        <time>2020-01-08T09:01:29.000Z</time>
      </trkpt>
      <trkpt lat="45.65406" lon="6.73171">
        <ele>1873.1999511719</ele>
        <time>2020-01-08T09:01:34.000Z</time>
      </trkpt>
      <trkpt lat="45.65408" lon="6.7317">
        <ele>1874.1999511719</ele>
        <time>2020-01-08T09:01:38.000Z</time>
      </trkpt>
      <trkpt lat="45.65408" lon="6.7317">
        <ele>1874.5999755859</ele>
        <time>2020-01-08T09:01:40.000Z</time>
      </trkpt>
      <trkpt lat="45.65408" lon="6.7317">
        <ele>1874.5999755859</ele>
        <time>2020-01-08T09:01:52.000Z</time>
      </trkpt>
      <trkpt lat="45.65409" lon="6.73168">
        <ele>1874.5999755859</ele>
        <time>2020-01-08T09:02:02.000Z</time>
      </trkpt>
      <trkpt lat="45.65415" lon="6.73165">
        <ele>1875.4000244141</ele>
        <time>2020-01-08T09:02:08.000Z</time>
      </trkpt>
      <trkpt lat="45.65418" lon="6.73164">
        <ele>1876.1999511719</ele>
        <time>2020-01-08T09:02:13.000Z</time>
      </trkpt>
      <trkpt lat="45.65419" lon="6.73163">
        <ele>1876.4000244141</ele>
        <time>2020-01-08T09:02:15.000Z</time>
      </trkpt>
      <trkpt lat="45.6542" lon="6.73162">
        <ele>1877</ele>
        <time>2020-01-08T09:02:18.000Z</time>
      </trkpt>
      <trkpt lat="45.65422" lon="6.73161">
        <ele>1877.5999755859</ele>
        <time>2020-01-08T09:02:20.000Z</time>
      </trkpt>
      <trkpt lat="45.65424" lon="6.73161">
        <ele>1878.1999511719</ele>
        <time>2020-01-08T09:02:24.000Z</time>
      </trkpt>
      <trkpt lat="45.65425" lon="6.73161">
        <ele>1878.5999755859</ele>
        <time>2020-01-08T09:02:26.000Z</time>
      </trkpt>
      <trkpt lat="45.65429" lon="6.73162">
        <ele>1879.4000244141</ele>
        <time>2020-01-08T09:02:30.000Z</time>
      </trkpt>
      <trkpt lat="45.6543" lon="6.73163">
        <ele>1879.5999755859</ele>
        <time>2020-01-08T09:02:31.000Z</time>
      </trkpt>
      <trkpt lat="45.65432" lon="6.73164">
        <ele>1880.1999511719</ele>
        <time>2020-01-08T09:02:36.000Z</time>
      </trkpt>
      <trkpt lat="45.65434" lon="6.73164">
        <ele>1880.8000488281</ele>
        <time>2020-01-08T09:02:40.000Z</time>
      </trkpt>
      <trkpt lat="45.65435" lon="6.73165">
        <ele>1880.8000488281</ele>
        <time>2020-01-08T09:02:41.000Z</time>
      </trkpt>
      <trkpt lat="45.65437" lon="6.73169">
        <ele>1881.1999511719</ele>
        <time>2020-01-08T09:02:47.000Z</time>
      </trkpt>
      <trkpt lat="45.65437" lon="6.7317">
        <ele>1881.4000244141</ele>
        <time>2020-01-08T09:02:52.000Z</time>
      </trkpt>
      <trkpt lat="45.65437" lon="6.7317">
        <ele>1881.8000488281</ele>
        <time>2020-01-08T09:02:57.000Z</time>
      </trkpt>
      <trkpt lat="45.65436" lon="6.73172">
        <ele>1881.8000488281</ele>
        <time>2020-01-08T09:03:01.000Z</time>
      </trkpt>
      <trkpt lat="45.65435" lon="6.73179">
        <ele>1881.8000488281</ele>
        <time>2020-01-08T09:03:07.000Z</time>
      </trkpt>
      <trkpt lat="45.65435" lon="6.73182">
        <ele>1883</ele>
        <time>2020-01-08T09:03:12.000Z</time>
      </trkpt>
      <trkpt lat="45.65434" lon="6.73185">
        <ele>1883.5999755859</ele>
        <time>2020-01-08T09:03:16.000Z</time>
      </trkpt>
      <trkpt lat="45.65432" lon="6.7319">
        <ele>1884.1999511719</ele>
        <time>2020-01-08T09:03:21.000Z</time>
      </trkpt>
      <trkpt lat="45.65433" lon="6.73196">
        <ele>1884.8000488281</ele>
        <time>2020-01-08T09:03:24.000Z</time>
      </trkpt>
      <trkpt lat="45.65433" lon="6.73196">
        <ele>1885.1999511719</ele>
        <time>2020-01-08T09:03:26.000Z</time>
      </trkpt>
      <trkpt lat="45.65432" lon="6.73196">
        <ele>1885.1999511719</ele>
        <time>2020-01-08T09:03:27.000Z</time>
      </trkpt>
      <trkpt lat="45.65433" lon="6.732">
        <ele>1885.5999755859</ele>
        <time>2020-01-08T09:03:31.000Z</time>
      </trkpt>
      <trkpt lat="45.65434" lon="6.73202">
        <ele>1886.4000244141</ele>
        <time>2020-01-08T09:03:36.000Z</time>
      </trkpt>
      <trkpt lat="45.65432" lon="6.73211">
        <ele>1887.1999511719</ele>
        <time>2020-01-08T09:03:42.000Z</time>
      </trkpt>
      <trkpt lat="45.65432" lon="6.73212">
        <ele>1887.4000244141</ele>
        <time>2020-01-08T09:03:44.000Z</time>
      </trkpt>
      <trkpt lat="45.65432" lon="6.73216">
        <ele>1887.8000488281</ele>
        <time>2020-01-08T09:03:47.000Z</time>
      </trkpt>
      <trkpt lat="45.65431" lon="6.73218">
        <ele>1888.4000244141</ele>
        <time>2020-01-08T09:03:50.000Z</time>
      </trkpt>
      <trkpt lat="45.65431" lon="6.7322">
        <ele>1888.8000488281</ele>
        <time>2020-01-08T09:03:52.000Z</time>
      </trkpt>
      <trkpt lat="45.65431" lon="6.73227">
        <ele>1889.4000244141</ele>
        <time>2020-01-08T09:03:57.000Z</time>
      </trkpt>
      <trkpt lat="45.6543" lon="6.73229">
        <ele>1890.1999511719</ele>
        <time>2020-01-08T09:04:01.000Z</time>
      </trkpt>
      <trkpt lat="45.6543" lon="6.7323">
        <ele>1890.5999755859</ele>
        <time>2020-01-08T09:04:04.000Z</time>
      </trkpt>
      <trkpt lat="45.6543" lon="6.73232">
        <ele>1891</ele>
        <time>2020-01-08T09:04:06.000Z</time>
      </trkpt>
      <trkpt lat="45.6543" lon="6.73237">
        <ele>1891.8000488281</ele>
        <time>2020-01-08T09:04:10.000Z</time>
      </trkpt>
      <trkpt lat="45.6543" lon="6.73237">
        <ele>1891.8000488281</ele>
        <time>2020-01-08T09:04:11.000Z</time>
      </trkpt>
      <trkpt lat="45.6543" lon="6.7324">
        <ele>1892.1999511719</ele>
        <time>2020-01-08T09:04:17.000Z</time>
      </trkpt>
      <trkpt lat="45.6543" lon="6.73242">
        <ele>1892.5999755859</ele>
        <time>2020-01-08T09:04:22.000Z</time>
      </trkpt>
      <trkpt lat="45.6543" lon="6.73242">
        <ele>1892.8000488281</ele>
        <time>2020-01-08T09:04:23.000Z</time>
      </trkpt>
      <trkpt lat="45.65431" lon="6.73242">
        <ele>1893.5999755859</ele>
        <time>2020-01-08T09:04:28.000Z</time>
      </trkpt>
      <trkpt lat="45.65432" lon="6.73242">
        <ele>1893.8000488281</ele>
        <time>2020-01-08T09:04:30.000Z</time>
      </trkpt>
      <trkpt lat="45.65432" lon="6.73241">
        <ele>1893.8000488281</ele>
        <time>2020-01-08T09:04:32.000Z</time>
      </trkpt>
      <trkpt lat="45.65432" lon="6.73242">
        <ele>1894</ele>
        <time>2020-01-08T09:04:33.000Z</time>
      </trkpt>
      <trkpt lat="45.65433" lon="6.73241">
        <ele>1894.8000488281</ele>
        <time>2020-01-08T09:04:37.000Z</time>
      </trkpt>
      <trkpt lat="45.65434" lon="6.73239">
        <ele>1895</ele>
        <time>2020-01-08T09:04:38.000Z</time>
      </trkpt>
      <trkpt lat="45.65437" lon="6.73238">
        <ele>1896</ele>
        <time>2020-01-08T09:04:43.000Z</time>
      </trkpt>
      <trkpt lat="45.65438" lon="6.73238">
        <ele>1896.1999511719</ele>
        <time>2020-01-08T09:04:45.000Z</time>
      </trkpt>
      <trkpt lat="45.65441" lon="6.73234">
        <ele>1897</ele>
        <time>2020-01-08T09:04:50.000Z</time>
      </trkpt>
      <trkpt lat="45.65442" lon="6.73233">
        <ele>1897.1999511719</ele>
        <time>2020-01-08T09:04:51.000Z</time>
      </trkpt>
      <trkpt lat="45.65444" lon="6.73232">
        <ele>1897.5999755859</ele>
        <time>2020-01-08T09:04:53.000Z</time>
      </trkpt>
      <trkpt lat="45.65445" lon="6.73231">
        <ele>1898</ele>
        <time>2020-01-08T09:04:55.000Z</time>
      </trkpt>
      <trkpt lat="45.65446" lon="6.73229">
        <ele>1899</ele>
        <time>2020-01-08T09:04:59.000Z</time>
      </trkpt>
      <trkpt lat="45.65447" lon="6.73227">
        <ele>1899.1999511719</ele>
        <time>2020-01-08T09:05:01.000Z</time>
      </trkpt>
      <trkpt lat="45.6545" lon="6.73224">
        <ele>1899.4000244141</ele>
        <time>2020-01-08T09:05:04.000Z</time>
      </trkpt>
      <trkpt lat="45.65451" lon="6.73222">
        <ele>1900.1999511719</ele>
        <time>2020-01-08T09:05:08.000Z</time>
      </trkpt>
      <trkpt lat="45.65451" lon="6.73222">
        <ele>1900.5999755859</ele>
        <time>2020-01-08T09:05:09.000Z</time>
      </trkpt>
      <trkpt lat="45.65451" lon="6.7322">
        <ele>1901.4000244141</ele>
        <time>2020-01-08T09:05:12.000Z</time>
      </trkpt>
      <trkpt lat="45.65452" lon="6.73219">
        <ele>1901.5999755859</ele>
        <time>2020-01-08T09:05:14.000Z</time>
      </trkpt>
      <trkpt lat="45.65452" lon="6.73218">
        <ele>1902.1999511719</ele>
        <time>2020-01-08T09:05:18.000Z</time>
      </trkpt>
      <trkpt lat="45.65453" lon="6.73217">
        <ele>1902.4000244141</ele>
        <time>2020-01-08T09:05:21.000Z</time>
      </trkpt>
      <trkpt lat="45.65453" lon="6.73217">
        <ele>1902.8000488281</ele>
        <time>2020-01-08T09:05:23.000Z</time>
      </trkpt>
      <trkpt lat="45.65454" lon="6.73215">
        <ele>1903.5999755859</ele>
        <time>2020-01-08T09:05:26.000Z</time>
      </trkpt>
      <trkpt lat="45.65456" lon="6.73214">
        <ele>1904</ele>
        <time>2020-01-08T09:05:28.000Z</time>
      </trkpt>
      <trkpt lat="45.65458" lon="6.73211">
        <ele>1904.4000244141</ele>
        <time>2020-01-08T09:05:32.000Z</time>
      </trkpt>
      <trkpt lat="45.65458" lon="6.7321">
        <ele>1904.5999755859</ele>
        <time>2020-01-08T09:05:34.000Z</time>
      </trkpt>
      <trkpt lat="45.65459" lon="6.7321">
        <ele>1905.1999511719</ele>
        <time>2020-01-08T09:05:36.000Z</time>
      </trkpt>
      <trkpt lat="45.65459" lon="6.7321">
        <ele>1905.8000488281</ele>
        <time>2020-01-08T09:05:40.000Z</time>
      </trkpt>
      <trkpt lat="45.65459" lon="6.73209">
        <ele>1906.1999511719</ele>
        <time>2020-01-08T09:05:45.000Z</time>
      </trkpt>
      <trkpt lat="45.6546" lon="6.73211">
        <ele>1906.5999755859</ele>
        <time>2020-01-08T09:05:51.000Z</time>
      </trkpt>
      <trkpt lat="45.65461" lon="6.73211">
        <ele>1906.8000488281</ele>
        <time>2020-01-08T09:05:54.000Z</time>
      </trkpt>
      <trkpt lat="45.65461" lon="6.73213">
        <ele>1906.8000488281</ele>
        <time>2020-01-08T09:05:55.000Z</time>
      </trkpt>
      <trkpt lat="45.65462" lon="6.73219">
        <ele>1907.5999755859</ele>
        <time>2020-01-08T09:06:00.000Z</time>
      </trkpt>
      <trkpt lat="45.65462" lon="6.7322">
        <ele>1907.8000488281</ele>
        <time>2020-01-08T09:06:03.000Z</time>
      </trkpt>
      <trkpt lat="45.65463" lon="6.73223">
        <ele>1908.1999511719</ele>
        <time>2020-01-08T09:06:05.000Z</time>
      </trkpt>
      <trkpt lat="45.65463" lon="6.73223">
        <ele>1908.4000244141</ele>
        <time>2020-01-08T09:06:06.000Z</time>
      </trkpt>
      <trkpt lat="45.65463" lon="6.73227">
        <ele>1909</ele>
        <time>2020-01-08T09:06:10.000Z</time>
      </trkpt>
      <trkpt lat="45.65463" lon="6.73228">
        <ele>1909.1999511719</ele>
        <time>2020-01-08T09:06:11.000Z</time>
      </trkpt>
      <trkpt lat="45.65463" lon="6.73231">
        <ele>1910.1999511719</ele>
        <time>2020-01-08T09:06:15.000Z</time>
      </trkpt>
      <trkpt lat="45.65463" lon="6.73232">
        <ele>1910.4000244141</ele>
        <time>2020-01-08T09:06:16.000Z</time>
      </trkpt>
      <trkpt lat="45.65463" lon="6.73239">
        <ele>1911</ele>
        <time>2020-01-08T09:06:21.000Z</time>
      </trkpt>
      <trkpt lat="45.65463" lon="6.73241">
        <ele>1911.1999511719</ele>
        <time>2020-01-08T09:06:23.000Z</time>
      </trkpt>
      <trkpt lat="45.65462" lon="6.73242">
        <ele>1911.5999755859</ele>
        <time>2020-01-08T09:06:26.000Z</time>
      </trkpt>
      <trkpt lat="45.65461" lon="6.73247">
        <ele>1912</ele>
        <time>2020-01-08T09:06:31.000Z</time>
      </trkpt>
      <trkpt lat="45.65461" lon="6.73248">
        <ele>1912.1999511719</ele>
        <time>2020-01-08T09:06:32.000Z</time>
      </trkpt>
      <trkpt lat="45.6546" lon="6.73254">
        <ele>1913</ele>
        <time>2020-01-08T09:06:37.000Z</time>
      </trkpt>
      <trkpt lat="45.65459" lon="6.73257">
        <ele>1913.1999511719</ele>
        <time>2020-01-08T09:06:41.000Z</time>
      </trkpt>
      <trkpt lat="45.65458" lon="6.7326">
        <ele>1913.4000244141</ele>
        <time>2020-01-08T09:06:42.000Z</time>
      </trkpt>
      <trkpt lat="45.65458" lon="6.73262">
        <ele>1913.5999755859</ele>
        <time>2020-01-08T09:06:44.000Z</time>
      </trkpt>
      <trkpt lat="45.65458" lon="6.73264">
        <ele>1914</ele>
        <time>2020-01-08T09:06:47.000Z</time>
      </trkpt>
      <trkpt lat="45.65457" lon="6.73265">
        <ele>1914.1999511719</ele>
        <time>2020-01-08T09:06:48.000Z</time>
      </trkpt>
      <trkpt lat="45.65457" lon="6.7327">
        <ele>1914.8000488281</ele>
        <time>2020-01-08T09:06:52.000Z</time>
      </trkpt>
      <trkpt lat="45.65457" lon="6.73275">
        <ele>1915.1999511719</ele>
        <time>2020-01-08T09:06:58.000Z</time>
      </trkpt>
      <trkpt lat="45.65457" lon="6.73275">
        <ele>1915.1999511719</ele>
        <time>2020-01-08T09:06:59.000Z</time>
      </trkpt>
      <trkpt lat="45.65458" lon="6.73278">
        <ele>1915.8000488281</ele>
        <time>2020-01-08T09:07:04.000Z</time>
      </trkpt>
      <trkpt lat="45.65459" lon="6.73281">
        <ele>1916.4000244141</ele>
        <time>2020-01-08T09:07:08.000Z</time>
      </trkpt>
      <trkpt lat="45.65459" lon="6.73281">
        <ele>1916.4000244141</ele>
        <time>2020-01-08T09:07:09.000Z</time>
      </trkpt>
      <trkpt lat="45.6546" lon="6.73287">
        <ele>1917.1999511719</ele>
        <time>2020-01-08T09:07:14.000Z</time>
      </trkpt>
      <trkpt lat="45.6546" lon="6.73288">
        <ele>1917.4000244141</ele>
        <time>2020-01-08T09:07:16.000Z</time>
      </trkpt>
      <trkpt lat="45.6546" lon="6.73289">
        <ele>1918</ele>
        <time>2020-01-08T09:07:19.000Z</time>
      </trkpt>
      <trkpt lat="45.65461" lon="6.73295">
        <ele>1918.5999755859</ele>
        <time>2020-01-08T09:07:23.000Z</time>
      </trkpt>
      <trkpt lat="45.65461" lon="6.73295">
        <ele>1918.8000488281</ele>
        <time>2020-01-08T09:07:25.000Z</time>
      </trkpt>
      <trkpt lat="45.65461" lon="6.73298">
        <ele>1919.1999511719</ele>
        <time>2020-01-08T09:07:30.000Z</time>
      </trkpt>
      <trkpt lat="45.65461" lon="6.73306">
        <ele>1919.5999755859</ele>
        <time>2020-01-08T09:07:35.000Z</time>
      </trkpt>
      <trkpt lat="45.6546" lon="6.73307">
        <ele>1919.8000488281</ele>
        <time>2020-01-08T09:07:36.000Z</time>
      </trkpt>
      <trkpt lat="45.6546" lon="6.73311">
        <ele>1920.4000244141</ele>
        <time>2020-01-08T09:07:41.000Z</time>
      </trkpt>
      <trkpt lat="45.6546" lon="6.73314">
        <ele>1921</ele>
        <time>2020-01-08T09:07:45.000Z</time>
      </trkpt>
      <trkpt lat="45.6546" lon="6.73315">
        <ele>1921.1999511719</ele>
        <time>2020-01-08T09:07:46.000Z</time>
      </trkpt>
      <trkpt lat="45.6546" lon="6.7332">
        <ele>1921.5999755859</ele>
        <time>2020-01-08T09:07:51.000Z</time>
      </trkpt>
      <trkpt lat="45.6546" lon="6.73322">
        <ele>1921.5999755859</ele>
        <time>2020-01-08T09:07:52.000Z</time>
      </trkpt>
      <trkpt lat="45.6546" lon="6.73327">
        <ele>1921.8000488281</ele>
        <time>2020-01-08T09:07:55.000Z</time>
      </trkpt>
      <trkpt lat="45.65461" lon="6.73329">
        <ele>1922</ele>
        <time>2020-01-08T09:07:57.000Z</time>
      </trkpt>
      <trkpt lat="45.6546" lon="6.73333">
        <ele>1923</ele>
        <time>2020-01-08T09:08:02.000Z</time>
      </trkpt>
      <trkpt lat="45.6546" lon="6.73333">
        <ele>1923.1999511719</ele>
        <time>2020-01-08T09:08:03.000Z</time>
      </trkpt>
      <trkpt lat="45.6546" lon="6.73339">
        <ele>1923.8000488281</ele>
        <time>2020-01-08T09:08:07.000Z</time>
      </trkpt>
      <trkpt lat="45.6546" lon="6.73342">
        <ele>1924.1999511719</ele>
        <time>2020-01-08T09:08:10.000Z</time>
      </trkpt>
      <trkpt lat="45.6546" lon="6.73344">
        <ele>1924.5999755859</ele>
        <time>2020-01-08T09:08:12.000Z</time>
      </trkpt>
      <trkpt lat="45.65463" lon="6.7335">
        <ele>1925.1999511719</ele>
        <time>2020-01-08T09:08:19.000Z</time>
      </trkpt>
      <trkpt lat="45.65464" lon="6.73356">
        <ele>1926.1999511719</ele>
        <time>2020-01-08T09:08:24.000Z</time>
      </trkpt>
      <trkpt lat="45.65464" lon="6.73356">
        <ele>1926.4000244141</ele>
        <time>2020-01-08T09:08:25.000Z</time>
      </trkpt>
      <trkpt lat="45.65466" lon="6.73361">
        <ele>1927</ele>
        <time>2020-01-08T09:08:30.000Z</time>
      </trkpt>
      <trkpt lat="45.65468" lon="6.73364">
        <ele>1927.4000244141</ele>
        <time>2020-01-08T09:08:33.000Z</time>
      </trkpt>
      <trkpt lat="45.65469" lon="6.73366">
        <ele>1928</ele>
        <time>2020-01-08T09:08:36.000Z</time>
      </trkpt>
      <trkpt lat="45.65471" lon="6.73368">
        <ele>1928.5999755859</ele>
        <time>2020-01-08T09:08:40.000Z</time>
      </trkpt>
      <trkpt lat="45.65471" lon="6.73369">
        <ele>1929</ele>
        <time>2020-01-08T09:08:42.000Z</time>
      </trkpt>
      <trkpt lat="45.65472" lon="6.7337">
        <ele>1929.5999755859</ele>
        <time>2020-01-08T09:08:47.000Z</time>
      </trkpt>
      <trkpt lat="45.65474" lon="6.73366">
        <ele>1930.5999755859</ele>
        <time>2020-01-08T09:08:53.000Z</time>
      </trkpt>
      <trkpt lat="45.65474" lon="6.73366">
        <ele>1930.8000488281</ele>
        <time>2020-01-08T09:08:54.000Z</time>
      </trkpt>
      <trkpt lat="45.65475" lon="6.73364">
        <ele>1931.4000244141</ele>
        <time>2020-01-08T09:08:58.000Z</time>
      </trkpt>
      <trkpt lat="45.65475" lon="6.73363">
        <ele>1931.8000488281</ele>
        <time>2020-01-08T09:09:00.000Z</time>
      </trkpt>
      <trkpt lat="45.65475" lon="6.73361">
        <ele>1932.1999511719</ele>
        <time>2020-01-08T09:09:03.000Z</time>
      </trkpt>
      <trkpt lat="45.65475" lon="6.73355">
        <ele>1932.8000488281</ele>
        <time>2020-01-08T09:09:06.000Z</time>
      </trkpt>
      <trkpt lat="45.65475" lon="6.73356">
        <ele>1933.1999511719</ele>
        <time>2020-01-08T09:09:07.000Z</time>
      </trkpt>
      <trkpt lat="45.65476" lon="6.73354">
        <ele>1934</ele>
        <time>2020-01-08T09:09:11.000Z</time>
      </trkpt>
      <trkpt lat="45.65478" lon="6.73347">
        <ele>1934.8000488281</ele>
        <time>2020-01-08T09:09:17.000Z</time>
      </trkpt>
      <trkpt lat="45.65478" lon="6.73347">
        <ele>1935</ele>
        <time>2020-01-08T09:09:18.000Z</time>
      </trkpt>
      <trkpt lat="45.65479" lon="6.73344">
        <ele>1935.5999755859</ele>
        <time>2020-01-08T09:09:21.000Z</time>
      </trkpt>
      <trkpt lat="45.65479" lon="6.73343">
        <ele>1936.1999511719</ele>
        <time>2020-01-08T09:09:24.000Z</time>
      </trkpt>
      <trkpt lat="45.65482" lon="6.73338">
        <ele>1936.8000488281</ele>
        <time>2020-01-08T09:09:28.000Z</time>
      </trkpt>
      <trkpt lat="45.65483" lon="6.73337">
        <ele>1937.1999511719</ele>
        <time>2020-01-08T09:09:30.000Z</time>
      </trkpt>
      <trkpt lat="45.65484" lon="6.73335">
        <ele>1937.4000244141</ele>
        <time>2020-01-08T09:09:32.000Z</time>
      </trkpt>
      <trkpt lat="45.65485" lon="6.73332">
        <ele>1938.1999511719</ele>
        <time>2020-01-08T09:09:36.000Z</time>
      </trkpt>
      <trkpt lat="45.65486" lon="6.7333">
        <ele>1938.1999511719</ele>
        <time>2020-01-08T09:09:37.000Z</time>
      </trkpt>
      <trkpt lat="45.65489" lon="6.73328">
        <ele>1939</ele>
        <time>2020-01-08T09:09:42.000Z</time>
      </trkpt>
      <trkpt lat="45.65489" lon="6.73327">
        <ele>1939.1999511719</ele>
        <time>2020-01-08T09:09:44.000Z</time>
      </trkpt>
      <trkpt lat="45.6549" lon="6.73326">
        <ele>1939.5999755859</ele>
        <time>2020-01-08T09:09:47.000Z</time>
      </trkpt>
      <trkpt lat="45.6549" lon="6.73328">
        <ele>1940.1999511719</ele>
        <time>2020-01-08T09:09:51.000Z</time>
      </trkpt>
      <trkpt lat="45.6549" lon="6.7333">
        <ele>1940.8000488281</ele>
        <time>2020-01-08T09:09:53.000Z</time>
      </trkpt>
      <trkpt lat="45.6549" lon="6.73334">
        <ele>1941.1999511719</ele>
        <time>2020-01-08T09:09:57.000Z</time>
      </trkpt>
      <trkpt lat="45.65491" lon="6.73337">
        <ele>1941.4000244141</ele>
        <time>2020-01-08T09:10:00.000Z</time>
      </trkpt>
      <trkpt lat="45.65491" lon="6.7334">
        <ele>1941.5999755859</ele>
        <time>2020-01-08T09:10:02.000Z</time>
      </trkpt>
      <trkpt lat="45.65493" lon="6.73344">
        <ele>1942.1999511719</ele>
        <time>2020-01-08T09:10:07.000Z</time>
      </trkpt>
      <trkpt lat="45.65494" lon="6.73345">
        <ele>1942.5999755859</ele>
        <time>2020-01-08T09:10:09.000Z</time>
      </trkpt>
      <trkpt lat="45.65494" lon="6.73348">
        <ele>1943.1999511719</ele>
        <time>2020-01-08T09:10:12.000Z</time>
      </trkpt>
      <trkpt lat="45.65494" lon="6.73352">
        <ele>1943.5999755859</ele>
        <time>2020-01-08T09:10:16.000Z</time>
      </trkpt>
      <trkpt lat="45.65495" lon="6.73353">
        <ele>1943.8000488281</ele>
        <time>2020-01-08T09:10:17.000Z</time>
      </trkpt>
      <trkpt lat="45.65495" lon="6.73353">
        <ele>1944</ele>
        <time>2020-01-08T09:10:18.000Z</time>
      </trkpt>
      <trkpt lat="45.65497" lon="6.73356">
        <ele>1944.5999755859</ele>
        <time>2020-01-08T09:10:22.000Z</time>
      </trkpt>
      <trkpt lat="45.65497" lon="6.73356">
        <ele>1944.8000488281</ele>
        <time>2020-01-08T09:10:23.000Z</time>
      </trkpt>
      <trkpt lat="45.65499" lon="6.7336">
        <ele>1945.5999755859</ele>
        <time>2020-01-08T09:10:27.000Z</time>
      </trkpt>
      <trkpt lat="45.655" lon="6.73362">
        <ele>1945.8000488281</ele>
        <time>2020-01-08T09:10:29.000Z</time>
      </trkpt>
      <trkpt lat="45.65502" lon="6.73368">
        <ele>1946.5999755859</ele>
        <time>2020-01-08T09:10:33.000Z</time>
      </trkpt>
      <trkpt lat="45.65502" lon="6.7337">
        <ele>1947</ele>
        <time>2020-01-08T09:10:36.000Z</time>
      </trkpt>
      <trkpt lat="45.65503" lon="6.73372">
        <ele>1947.1999511719</ele>
        <time>2020-01-08T09:10:38.000Z</time>
      </trkpt>
      <trkpt lat="45.65505" lon="6.73378">
        <ele>1948</ele>
        <time>2020-01-08T09:10:44.000Z</time>
      </trkpt>
      <trkpt lat="45.65506" lon="6.7338">
        <ele>1949.1999511719</ele>
        <time>2020-01-08T09:10:49.000Z</time>
      </trkpt>
      <trkpt lat="45.65509" lon="6.73385">
        <ele>1949.8000488281</ele>
        <time>2020-01-08T09:10:55.000Z</time>
      </trkpt>
      <trkpt lat="45.6551" lon="6.73388">
        <ele>1950.1999511719</ele>
        <time>2020-01-08T09:10:57.000Z</time>
      </trkpt>
      <trkpt lat="45.6551" lon="6.7339">
        <ele>1950.8000488281</ele>
        <time>2020-01-08T09:11:00.000Z</time>
      </trkpt>
      <trkpt lat="45.6551" lon="6.7339">
        <ele>1951.1999511719</ele>
        <time>2020-01-08T09:11:02.000Z</time>
      </trkpt>
      <trkpt lat="45.65511" lon="6.73393">
        <ele>1952.1999511719</ele>
        <time>2020-01-08T09:11:07.000Z</time>
      </trkpt>
      <trkpt lat="45.65511" lon="6.73394">
        <ele>1952.4000244141</ele>
        <time>2020-01-08T09:11:08.000Z</time>
      </trkpt>
      <trkpt lat="45.65511" lon="6.73395">
        <ele>1953</ele>
        <time>2020-01-08T09:11:12.000Z</time>
      </trkpt>
      <trkpt lat="45.65513" lon="6.73392">
        <ele>1953.4000244141</ele>
        <time>2020-01-08T09:11:17.000Z</time>
      </trkpt>
      <trkpt lat="45.65514" lon="6.7339">
        <ele>1953.5999755859</ele>
        <time>2020-01-08T09:11:18.000Z</time>
      </trkpt>
      <trkpt lat="45.65514" lon="6.73389">
        <ele>1954.1999511719</ele>
        <time>2020-01-08T09:11:22.000Z</time>
      </trkpt>
      <trkpt lat="45.65516" lon="6.73385">
        <ele>1954.5999755859</ele>
        <time>2020-01-08T09:11:26.000Z</time>
      </trkpt>
      <trkpt lat="45.65517" lon="6.73382">
        <ele>1955.1999511719</ele>
        <time>2020-01-08T09:11:29.000Z</time>
      </trkpt>
      <trkpt lat="45.65517" lon="6.7338">
        <ele>1955.5999755859</ele>
        <time>2020-01-08T09:11:32.000Z</time>
      </trkpt>
      <trkpt lat="45.65517" lon="6.7338">
        <ele>1956.1999511719</ele>
        <time>2020-01-08T09:11:35.000Z</time>
      </trkpt>
      <trkpt lat="45.65517" lon="6.7338">
        <ele>1956.8000488281</ele>
        <time>2020-01-08T09:11:39.000Z</time>
      </trkpt>
      <trkpt lat="45.65517" lon="6.7338">
        <ele>1957.4000244141</ele>
        <time>2020-01-08T09:11:47.000Z</time>
      </trkpt>
      <trkpt lat="45.65517" lon="6.73374">
        <ele>1957.5999755859</ele>
        <time>2020-01-08T09:11:57.000Z</time>
      </trkpt>
      <trkpt lat="45.65517" lon="6.73372">
        <ele>1957.8000488281</ele>
        <time>2020-01-08T09:11:59.000Z</time>
      </trkpt>
      <trkpt lat="45.65517" lon="6.7337">
        <ele>1957.8000488281</ele>
        <time>2020-01-08T09:12:01.000Z</time>
      </trkpt>
      <trkpt lat="45.65517" lon="6.73364">
        <ele>1958.4000244141</ele>
        <time>2020-01-08T09:12:07.000Z</time>
      </trkpt>
      <trkpt lat="45.65519" lon="6.73359">
        <ele>1958.8000488281</ele>
        <time>2020-01-08T09:12:11.000Z</time>
      </trkpt>
      <trkpt lat="45.6552" lon="6.73357">
        <ele>1959.1999511719</ele>
        <time>2020-01-08T09:12:14.000Z</time>
      </trkpt>
      <trkpt lat="45.65522" lon="6.73355">
        <ele>1960</ele>
        <time>2020-01-08T09:12:18.000Z</time>
      </trkpt>
      <trkpt lat="45.65522" lon="6.73352">
        <ele>1960.4000244141</ele>
        <time>2020-01-08T09:12:20.000Z</time>
      </trkpt>
      <trkpt lat="45.65523" lon="6.73352">
        <ele>1961.4000244141</ele>
        <time>2020-01-08T09:12:24.000Z</time>
      </trkpt>
      <trkpt lat="45.65523" lon="6.73351">
        <ele>1961.4000244141</ele>
        <time>2020-01-08T09:12:25.000Z</time>
      </trkpt>
      <trkpt lat="45.65523" lon="6.73349">
        <ele>1962.4000244141</ele>
        <time>2020-01-08T09:12:29.000Z</time>
      </trkpt>
      <trkpt lat="45.65524" lon="6.73343">
        <ele>1963.4000244141</ele>
        <time>2020-01-08T09:12:35.000Z</time>
      </trkpt>
      <trkpt lat="45.65524" lon="6.73343">
        <ele>1963.5999755859</ele>
        <time>2020-01-08T09:12:36.000Z</time>
      </trkpt>
      <trkpt lat="45.65524" lon="6.7334">
        <ele>1964.1999511719</ele>
        <time>2020-01-08T09:12:40.000Z</time>
      </trkpt>
      <trkpt lat="45.65525" lon="6.7334">
        <ele>1964.5999755859</ele>
        <time>2020-01-08T09:12:42.000Z</time>
      </trkpt>
      <trkpt lat="45.65526" lon="6.73338">
        <ele>1965</ele>
        <time>2020-01-08T09:12:45.000Z</time>
      </trkpt>
      <trkpt lat="45.65526" lon="6.73337">
        <ele>1965.5999755859</ele>
        <time>2020-01-08T09:12:49.000Z</time>
      </trkpt>
      <trkpt lat="45.65527" lon="6.73335">
        <ele>1965.8000488281</ele>
        <time>2020-01-08T09:12:50.000Z</time>
      </trkpt>
      <trkpt lat="45.65528" lon="6.73332">
        <ele>1966</ele>
        <time>2020-01-08T09:12:52.000Z</time>
      </trkpt>
      <trkpt lat="45.65529" lon="6.73331">
        <ele>1966.5999755859</ele>
        <time>2020-01-08T09:12:55.000Z</time>
      </trkpt>
      <trkpt lat="45.6553" lon="6.73329">
        <ele>1966.8000488281</ele>
        <time>2020-01-08T09:12:56.000Z</time>
      </trkpt>
      <trkpt lat="45.65531" lon="6.73327">
        <ele>1967.4000244141</ele>
        <time>2020-01-08T09:13:00.000Z</time>
      </trkpt>
      <trkpt lat="45.65533" lon="6.73324">
        <ele>1967.8000488281</ele>
        <time>2020-01-08T09:13:03.000Z</time>
      </trkpt>
      <trkpt lat="45.65534" lon="6.73324">
        <ele>1968</ele>
        <time>2020-01-08T09:13:05.000Z</time>
      </trkpt>
      <trkpt lat="45.65534" lon="6.73322">
        <ele>1968.8000488281</ele>
        <time>2020-01-08T09:13:11.000Z</time>
      </trkpt>
      <trkpt lat="45.65534" lon="6.73322">
        <ele>1969</ele>
        <time>2020-01-08T09:13:12.000Z</time>
      </trkpt>
      <trkpt lat="45.65535" lon="6.73325">
        <ele>1970</ele>
        <time>2020-01-08T09:13:17.000Z</time>
      </trkpt>
      <trkpt lat="45.65535" lon="6.73327">
        <ele>1970.1999511719</ele>
        <time>2020-01-08T09:13:18.000Z</time>
      </trkpt>
      <trkpt lat="45.65536" lon="6.73331">
        <ele>1970.8000488281</ele>
        <time>2020-01-08T09:13:22.000Z</time>
      </trkpt>
      <trkpt lat="45.65535" lon="6.73335">
        <ele>1971</ele>
        <time>2020-01-08T09:13:25.000Z</time>
      </trkpt>
      <trkpt lat="45.65536" lon="6.73337">
        <ele>1971.1999511719</ele>
        <time>2020-01-08T09:13:28.000Z</time>
      </trkpt>
      <trkpt lat="45.65536" lon="6.73338">
        <ele>1971.4000244141</ele>
        <time>2020-01-08T09:13:29.000Z</time>
      </trkpt>
      <trkpt lat="45.65537" lon="6.73342">
        <ele>1972</ele>
        <time>2020-01-08T09:13:34.000Z</time>
      </trkpt>
      <trkpt lat="45.65537" lon="6.73344">
        <ele>1972.4000244141</ele>
        <time>2020-01-08T09:13:39.000Z</time>
      </trkpt>
      <trkpt lat="45.6554" lon="6.7335">
        <ele>1973.1999511719</ele>
        <time>2020-01-08T09:13:45.000Z</time>
      </trkpt>
      <trkpt lat="45.6554" lon="6.73353">
        <ele>1973.4000244141</ele>
        <time>2020-01-08T09:13:47.000Z</time>
      </trkpt>
      <trkpt lat="45.6554" lon="6.73354">
        <ele>1973.8000488281</ele>
        <time>2020-01-08T09:13:49.000Z</time>
      </trkpt>
      <trkpt lat="45.65543" lon="6.73359">
        <ele>1974.4000244141</ele>
        <time>2020-01-08T09:13:55.000Z</time>
      </trkpt>
      <trkpt lat="45.65543" lon="6.73361">
        <ele>1974.5999755859</ele>
        <time>2020-01-08T09:13:57.000Z</time>
      </trkpt>
      <trkpt lat="45.65545" lon="6.73364">
        <ele>1975.1999511719</ele>
        <time>2020-01-08T09:14:01.000Z</time>
      </trkpt>
      <trkpt lat="45.65546" lon="6.73367">
        <ele>1975.5999755859</ele>
        <time>2020-01-08T09:14:06.000Z</time>
      </trkpt>
      <trkpt lat="45.65546" lon="6.73368">
        <ele>1975.5999755859</ele>
        <time>2020-01-08T09:14:07.000Z</time>
      </trkpt>
      <trkpt lat="45.65546" lon="6.73373">
        <ele>1975.8000488281</ele>
        <time>2020-01-08T09:14:12.000Z</time>
      </trkpt>
      <trkpt lat="45.65547" lon="6.73378">
        <ele>1976.5999755859</ele>
        <time>2020-01-08T09:14:16.000Z</time>
      </trkpt>
      <trkpt lat="45.65546" lon="6.73377">
        <ele>1976.8000488281</ele>
        <time>2020-01-08T09:14:17.000Z</time>
      </trkpt>
      <trkpt lat="45.65547" lon="6.73379">
        <ele>1976.8000488281</ele>
        <time>2020-01-08T09:14:19.000Z</time>
      </trkpt>
      <trkpt lat="45.65548" lon="6.73382">
        <ele>1977</ele>
        <time>2020-01-08T09:14:21.000Z</time>
      </trkpt>
      <trkpt lat="45.6555" lon="6.73386">
        <ele>1977.8000488281</ele>
        <time>2020-01-08T09:14:27.000Z</time>
      </trkpt>
      <trkpt lat="45.6555" lon="6.73387">
        <ele>1977.8000488281</ele>
        <time>2020-01-08T09:14:28.000Z</time>
      </trkpt>
      <trkpt lat="45.65553" lon="6.73391">
        <ele>1978.8000488281</ele>
        <time>2020-01-08T09:14:34.000Z</time>
      </trkpt>
      <trkpt lat="45.65553" lon="6.73391">
        <ele>1979</ele>
        <time>2020-01-08T09:14:35.000Z</time>
      </trkpt>
      <trkpt lat="45.65554" lon="6.73396">
        <ele>1979.4000244141</ele>
        <time>2020-01-08T09:14:40.000Z</time>
      </trkpt>
      <trkpt lat="45.65555" lon="6.734">
        <ele>1980</ele>
        <time>2020-01-08T09:14:45.000Z</time>
      </trkpt>
      <trkpt lat="45.65555" lon="6.73402">
        <ele>1980.1999511719</ele>
        <time>2020-01-08T09:14:46.000Z</time>
      </trkpt>
      <trkpt lat="45.65556" lon="6.73403">
        <ele>1981</ele>
        <time>2020-01-08T09:14:51.000Z</time>
      </trkpt>
      <trkpt lat="45.65556" lon="6.73403">
        <ele>1981.1999511719</ele>
        <time>2020-01-08T09:14:53.000Z</time>
      </trkpt>
      <trkpt lat="45.65556" lon="6.73403">
        <ele>1981.1999511719</ele>
        <time>2020-01-08T09:15:02.000Z</time>
      </trkpt>
      <trkpt lat="45.65556" lon="6.73404">
        <ele>1981.1999511719</ele>
        <time>2020-01-08T09:15:08.000Z</time>
      </trkpt>
      <trkpt lat="45.65556" lon="6.73404">
        <ele>1981.4000244141</ele>
        <time>2020-01-08T09:15:18.000Z</time>
      </trkpt>
      <trkpt lat="45.65557" lon="6.73401">
        <ele>1981.8000488281</ele>
        <time>2020-01-08T09:15:20.000Z</time>
      </trkpt>
      <trkpt lat="45.65558" lon="6.73398">
        <ele>1982.1999511719</ele>
        <time>2020-01-08T09:15:22.000Z</time>
      </trkpt>
      <trkpt lat="45.65558" lon="6.73397">
        <ele>1982.1999511719</ele>
        <time>2020-01-08T09:15:23.000Z</time>
      </trkpt>
      <trkpt lat="45.65558" lon="6.73392">
        <ele>1983.1999511719</ele>
        <time>2020-01-08T09:15:28.000Z</time>
      </trkpt>
      <trkpt lat="45.6556" lon="6.73382">
        <ele>1984.1999511719</ele>
        <time>2020-01-08T09:15:36.000Z</time>
      </trkpt>
      <trkpt lat="45.6556" lon="6.73382">
        <ele>1984.4000244141</ele>
        <time>2020-01-08T09:15:37.000Z</time>
      </trkpt>
      <trkpt lat="45.6556" lon="6.73379">
        <ele>1985.4000244141</ele>
        <time>2020-01-08T09:15:42.000Z</time>
      </trkpt>
      <trkpt lat="45.65561" lon="6.73379">
        <ele>1986.5999755859</ele>
        <time>2020-01-08T09:15:46.000Z</time>
      </trkpt>
      <trkpt lat="45.65563" lon="6.73383">
        <ele>1987.4000244141</ele>
        <time>2020-01-08T09:15:51.000Z</time>
      </trkpt>
      <trkpt lat="45.65564" lon="6.73386">
        <ele>1987.5999755859</ele>
        <time>2020-01-08T09:15:52.000Z</time>
      </trkpt>
      <trkpt lat="45.65565" lon="6.73389">
        <ele>1988</ele>
        <time>2020-01-08T09:15:57.000Z</time>
      </trkpt>
      <trkpt lat="45.65567" lon="6.73392">
        <ele>1988.5999755859</ele>
        <time>2020-01-08T09:16:00.000Z</time>
      </trkpt>
      <trkpt lat="45.65567" lon="6.73393">
        <ele>1989.4000244141</ele>
        <time>2020-01-08T09:16:03.000Z</time>
      </trkpt>
      <trkpt lat="45.65568" lon="6.73397">
        <ele>1989.8000488281</ele>
        <time>2020-01-08T09:16:05.000Z</time>
      </trkpt>
      <trkpt lat="45.65571" lon="6.73398">
        <ele>1990.4000244141</ele>
        <time>2020-01-08T09:16:09.000Z</time>
      </trkpt>
      <trkpt lat="45.65571" lon="6.73402">
        <ele>1991</ele>
        <time>2020-01-08T09:16:14.000Z</time>
      </trkpt>
      <trkpt lat="45.65572" lon="6.73403">
        <ele>1991.4000244141</ele>
        <time>2020-01-08T09:16:16.000Z</time>
      </trkpt>
      <trkpt lat="45.65572" lon="6.73404">
        <ele>1992</ele>
        <time>2020-01-08T09:16:21.000Z</time>
      </trkpt>
      <trkpt lat="45.65573" lon="6.73405">
        <ele>1992.4000244141</ele>
        <time>2020-01-08T09:16:27.000Z</time>
      </trkpt>
      <trkpt lat="45.65573" lon="6.73405">
        <ele>1993</ele>
        <time>2020-01-08T09:16:41.000Z</time>
      </trkpt>
      <trkpt lat="45.65574" lon="6.73401">
        <ele>1993</ele>
        <time>2020-01-08T09:16:47.000Z</time>
      </trkpt>
      <trkpt lat="45.65574" lon="6.73399">
        <ele>1993</ele>
        <time>2020-01-08T09:16:48.000Z</time>
      </trkpt>
      <trkpt lat="45.65574" lon="6.73396">
        <ele>1993.8000488281</ele>
        <time>2020-01-08T09:16:51.000Z</time>
      </trkpt>
      <trkpt lat="45.65575" lon="6.73393">
        <ele>1994</ele>
        <time>2020-01-08T09:16:54.000Z</time>
      </trkpt>
      <trkpt lat="45.65575" lon="6.73391">
        <ele>1994.4000244141</ele>
        <time>2020-01-08T09:16:56.000Z</time>
      </trkpt>
      <trkpt lat="45.65575" lon="6.7339">
        <ele>1995</ele>
        <time>2020-01-08T09:16:59.000Z</time>
      </trkpt>
      <trkpt lat="45.65575" lon="6.73389">
        <ele>1995.4000244141</ele>
        <time>2020-01-08T09:17:01.000Z</time>
      </trkpt>
      <trkpt lat="45.65575" lon="6.73388">
        <ele>1996.1999511719</ele>
        <time>2020-01-08T09:17:06.000Z</time>
      </trkpt>
      <trkpt lat="45.65576" lon="6.73387">
        <ele>1996.4000244141</ele>
        <time>2020-01-08T09:17:08.000Z</time>
      </trkpt>
      <trkpt lat="45.65576" lon="6.73387">
        <ele>1996.5999755859</ele>
        <time>2020-01-08T09:17:09.000Z</time>
      </trkpt>
      <trkpt lat="45.65576" lon="6.73385">
        <ele>1997.1999511719</ele>
        <time>2020-01-08T09:17:12.000Z</time>
      </trkpt>
      <trkpt lat="45.65578" lon="6.73382">
        <ele>1997.8000488281</ele>
        <time>2020-01-08T09:17:17.000Z</time>
      </trkpt>
      <trkpt lat="45.65579" lon="6.73378">
        <ele>1998.4000244141</ele>
        <time>2020-01-08T09:17:22.000Z</time>
      </trkpt>
      <trkpt lat="45.65579" lon="6.73375">
        <ele>1999.4000244141</ele>
        <time>2020-01-08T09:17:27.000Z</time>
      </trkpt>
      <trkpt lat="45.65579" lon="6.73375">
        <ele>1999.5999755859</ele>
        <time>2020-01-08T09:17:28.000Z</time>
      </trkpt>
      <trkpt lat="45.65579" lon="6.73373">
        <ele>2000.5999755859</ele>
        <time>2020-01-08T09:17:35.000Z</time>
      </trkpt>
      <trkpt lat="45.65582" lon="6.7337">
        <ele>2001</ele>
        <time>2020-01-08T09:17:40.000Z</time>
      </trkpt>
      <trkpt lat="45.65582" lon="6.73369">
        <ele>2001.5999755859</ele>
        <time>2020-01-08T09:17:47.000Z</time>
      </trkpt>
      <trkpt lat="45.65582" lon="6.73369">
        <ele>2001.5999755859</ele>
        <time>2020-01-08T09:17:49.000Z</time>
      </trkpt>
      <trkpt lat="45.65585" lon="6.73364">
        <ele>2001.4000244141</ele>
        <time>2020-01-08T09:17:53.000Z</time>
      </trkpt>
      <trkpt lat="45.65585" lon="6.73364">
        <ele>2001.4000244141</ele>
        <time>2020-01-08T09:17:54.000Z</time>
      </trkpt>
      <trkpt lat="45.65586" lon="6.73362">
        <ele>2002</ele>
        <time>2020-01-08T09:18:00.000Z</time>
      </trkpt>
      <trkpt lat="45.65586" lon="6.73362">
        <ele>2002.8000488281</ele>
        <time>2020-01-08T09:18:02.000Z</time>
      </trkpt>
      <trkpt lat="45.65586" lon="6.73362">
        <ele>2003</ele>
        <time>2020-01-08T09:18:20.000Z</time>
      </trkpt>
      <trkpt lat="45.65587" lon="6.73362">
        <ele>2003</ele>
        <time>2020-01-08T09:18:33.000Z</time>
      </trkpt>
      <trkpt lat="45.6559" lon="6.73359">
        <ele>2003</ele>
        <time>2020-01-08T09:18:38.000Z</time>
      </trkpt>
      <trkpt lat="45.65593" lon="6.73357">
        <ele>2003.8000488281</ele>
        <time>2020-01-08T09:18:42.000Z</time>
      </trkpt>
      <trkpt lat="45.65593" lon="6.73356">
        <ele>2004</ele>
        <time>2020-01-08T09:18:43.000Z</time>
      </trkpt>
      <trkpt lat="45.65594" lon="6.73355">
        <ele>2004.8000488281</ele>
        <time>2020-01-08T09:18:47.000Z</time>
      </trkpt>
      <trkpt lat="45.65595" lon="6.73355">
        <ele>2005</ele>
        <time>2020-01-08T09:18:48.000Z</time>
      </trkpt>
      <trkpt lat="45.65595" lon="6.73358">
        <ele>2005.8000488281</ele>
        <time>2020-01-08T09:18:52.000Z</time>
      </trkpt>
      <trkpt lat="45.65595" lon="6.73358">
        <ele>2006</ele>
        <time>2020-01-08T09:18:53.000Z</time>
      </trkpt>
      <trkpt lat="45.65595" lon="6.73362">
        <ele>2006.1999511719</ele>
        <time>2020-01-08T09:18:57.000Z</time>
      </trkpt>
      <trkpt lat="45.65593" lon="6.73367">
        <ele>2006.5999755859</ele>
        <time>2020-01-08T09:19:02.000Z</time>
      </trkpt>
      <trkpt lat="45.65593" lon="6.73368">
        <ele>2007</ele>
        <time>2020-01-08T09:19:03.000Z</time>
      </trkpt>
      <trkpt lat="45.65593" lon="6.7337">
        <ele>2007.1999511719</ele>
        <time>2020-01-08T09:19:04.000Z</time>
      </trkpt>
      <trkpt lat="45.65592" lon="6.73372">
        <ele>2007.5999755859</ele>
        <time>2020-01-08T09:19:07.000Z</time>
      </trkpt>
      <trkpt lat="45.65593" lon="6.73376">
        <ele>2007.8000488281</ele>
        <time>2020-01-08T09:19:12.000Z</time>
      </trkpt>
      <trkpt lat="45.65594" lon="6.73379">
        <ele>2008.1999511719</ele>
        <time>2020-01-08T09:19:16.000Z</time>
      </trkpt>
      <trkpt lat="45.65594" lon="6.7338">
        <ele>2008.4000244141</ele>
        <time>2020-01-08T09:19:17.000Z</time>
      </trkpt>
      <trkpt lat="45.65595" lon="6.73383">
        <ele>2009.1999511719</ele>
        <time>2020-01-08T09:19:22.000Z</time>
      </trkpt>
      <trkpt lat="45.65595" lon="6.73385">
        <ele>2009.4000244141</ele>
        <time>2020-01-08T09:19:23.000Z</time>
      </trkpt>
      <trkpt lat="45.65596" lon="6.73388">
        <ele>2010</ele>
        <time>2020-01-08T09:19:27.000Z</time>
      </trkpt>
      <trkpt lat="45.65596" lon="6.73391">
        <ele>2010.4000244141</ele>
        <time>2020-01-08T09:19:30.000Z</time>
      </trkpt>
      <trkpt lat="45.65597" lon="6.73392">
        <ele>2010.5999755859</ele>
        <time>2020-01-08T09:19:31.000Z</time>
      </trkpt>
      <trkpt lat="45.65599" lon="6.73396">
        <ele>2011.5999755859</ele>
        <time>2020-01-08T09:19:37.000Z</time>
      </trkpt>
      <trkpt lat="45.656" lon="6.73401">
        <ele>2012.4000244141</ele>
        <time>2020-01-08T09:19:43.000Z</time>
      </trkpt>
      <trkpt lat="45.656" lon="6.73406">
        <ele>2012.5999755859</ele>
        <time>2020-01-08T09:19:49.000Z</time>
      </trkpt>
      <trkpt lat="45.65601" lon="6.73407">
        <ele>2012.8000488281</ele>
        <time>2020-01-08T09:19:50.000Z</time>
      </trkpt>
      <trkpt lat="45.65601" lon="6.73411">
        <ele>2013.1999511719</ele>
        <time>2020-01-08T09:19:54.000Z</time>
      </trkpt>
      <trkpt lat="45.65601" lon="6.73411">
        <ele>2013.8000488281</ele>
        <time>2020-01-08T09:19:59.000Z</time>
      </trkpt>
      <trkpt lat="45.65601" lon="6.73412">
        <ele>2013.8000488281</ele>
        <time>2020-01-08T09:20:06.000Z</time>
      </trkpt>
      <trkpt lat="45.656" lon="6.73414">
        <ele>2014.4000244141</ele>
        <time>2020-01-08T09:20:13.000Z</time>
      </trkpt>
      <trkpt lat="45.656" lon="6.73414">
        <ele>2014.4000244141</ele>
        <time>2020-01-08T09:20:18.000Z</time>
      </trkpt>
      <trkpt lat="45.656" lon="6.73414">
        <ele>2014.4000244141</ele>
        <time>2020-01-08T09:20:20.000Z</time>
      </trkpt>
      <trkpt lat="45.656" lon="6.73414">
        <ele>2014.8000488281</ele>
        <time>2020-01-08T09:20:28.000Z</time>
      </trkpt>
      <trkpt lat="45.656" lon="6.73414">
        <ele>2014.5999755859</ele>
        <time>2020-01-08T09:20:29.000Z</time>
      </trkpt>
      <trkpt lat="45.65602" lon="6.73413">
        <ele>2014.8000488281</ele>
        <time>2020-01-08T09:20:32.000Z</time>
      </trkpt>
      <trkpt lat="45.65604" lon="6.73408">
        <ele>2015.8000488281</ele>
        <time>2020-01-08T09:20:37.000Z</time>
      </trkpt>
      <trkpt lat="45.65608" lon="6.73402">
        <ele>2017</ele>
        <time>2020-01-08T09:20:42.000Z</time>
      </trkpt>
      <trkpt lat="45.65608" lon="6.734">
        <ele>2018.1999511719</ele>
        <time>2020-01-08T09:20:47.000Z</time>
      </trkpt>
      <trkpt lat="45.65608" lon="6.734">
        <ele>2018.5999755859</ele>
        <time>2020-01-08T09:20:49.000Z</time>
      </trkpt>
      <trkpt lat="45.65609" lon="6.73399">
        <ele>2019.1999511719</ele>
        <time>2020-01-08T09:20:53.000Z</time>
      </trkpt>
      <trkpt lat="45.65609" lon="6.73399">
        <ele>2019.1999511719</ele>
        <time>2020-01-08T09:20:54.000Z</time>
      </trkpt>
      <trkpt lat="45.65609" lon="6.73398">
        <ele>2019.8000488281</ele>
        <time>2020-01-08T09:20:58.000Z</time>
      </trkpt>
      <trkpt lat="45.65609" lon="6.73398">
        <ele>2020.4000244141</ele>
        <time>2020-01-08T09:21:03.000Z</time>
      </trkpt>
      <trkpt lat="45.6561" lon="6.73397">
        <ele>2020.8000488281</ele>
        <time>2020-01-08T09:21:06.000Z</time>
      </trkpt>
      <trkpt lat="45.65611" lon="6.73394">
        <ele>2021.5999755859</ele>
        <time>2020-01-08T09:21:12.000Z</time>
      </trkpt>
      <trkpt lat="45.65611" lon="6.73393">
        <ele>2022</ele>
        <time>2020-01-08T09:21:13.000Z</time>
      </trkpt>
      <trkpt lat="45.65612" lon="6.7339">
        <ele>2022.5999755859</ele>
        <time>2020-01-08T09:21:17.000Z</time>
      </trkpt>
      <trkpt lat="45.65613" lon="6.73389">
        <ele>2023.5999755859</ele>
        <time>2020-01-08T09:21:21.000Z</time>
      </trkpt>
      <trkpt lat="45.65613" lon="6.73389">
        <ele>2023.8000488281</ele>
        <time>2020-01-08T09:21:22.000Z</time>
      </trkpt>
      <trkpt lat="45.65613" lon="6.73388">
        <ele>2024.4000244141</ele>
        <time>2020-01-08T09:21:27.000Z</time>
      </trkpt>
      <trkpt lat="45.65613" lon="6.73388">
        <ele>2024.8000488281</ele>
        <time>2020-01-08T09:21:29.000Z</time>
      </trkpt>
      <trkpt lat="45.65613" lon="6.73388">
        <ele>2025</ele>
        <time>2020-01-08T09:21:35.000Z</time>
      </trkpt>
      <trkpt lat="45.65614" lon="6.73389">
        <ele>2025.1999511719</ele>
        <time>2020-01-08T09:21:40.000Z</time>
      </trkpt>
      <trkpt lat="45.65615" lon="6.73392">
        <ele>2025.8000488281</ele>
        <time>2020-01-08T09:21:44.000Z</time>
      </trkpt>
      <trkpt lat="45.65615" lon="6.73393">
        <ele>2026</ele>
        <time>2020-01-08T09:21:45.000Z</time>
      </trkpt>
      <trkpt lat="45.65616" lon="6.73396">
        <ele>2026.8000488281</ele>
        <time>2020-01-08T09:21:50.000Z</time>
      </trkpt>
      <trkpt lat="45.65617" lon="6.73397">
        <ele>2027</ele>
        <time>2020-01-08T09:21:51.000Z</time>
      </trkpt>
      <trkpt lat="45.65618" lon="6.73402">
        <ele>2027.8000488281</ele>
        <time>2020-01-08T09:21:56.000Z</time>
      </trkpt>
      <trkpt lat="45.65619" lon="6.73402">
        <ele>2028.1999511719</ele>
        <time>2020-01-08T09:21:58.000Z</time>
      </trkpt>
      <trkpt lat="45.65619" lon="6.73402">
        <ele>2028.5999755859</ele>
        <time>2020-01-08T09:22:01.000Z</time>
      </trkpt>
      <trkpt lat="45.6562" lon="6.73405">
        <ele>2029</ele>
        <time>2020-01-08T09:22:06.000Z</time>
      </trkpt>
      <trkpt lat="45.6562" lon="6.73408">
        <ele>2029.1999511719</ele>
        <time>2020-01-08T09:22:09.000Z</time>
      </trkpt>
      <trkpt lat="45.65621" lon="6.7341">
        <ele>2029.4000244141</ele>
        <time>2020-01-08T09:22:11.000Z</time>
      </trkpt>
      <trkpt lat="45.65621" lon="6.73416">
        <ele>2030.1999511719</ele>
        <time>2020-01-08T09:22:17.000Z</time>
      </trkpt>
      <trkpt lat="45.65622" lon="6.7342">
        <ele>2031</ele>
        <time>2020-01-08T09:22:22.000Z</time>
      </trkpt>
      <trkpt lat="45.65623" lon="6.73423">
        <ele>2031.4000244141</ele>
        <time>2020-01-08T09:22:24.000Z</time>
      </trkpt>
      <trkpt lat="45.65623" lon="6.73425">
        <ele>2032</ele>
        <time>2020-01-08T09:22:27.000Z</time>
      </trkpt>
      <trkpt lat="45.65624" lon="6.73426">
        <ele>2032.4000244141</ele>
        <time>2020-01-08T09:22:29.000Z</time>
      </trkpt>
      <trkpt lat="45.65624" lon="6.7343">
        <ele>2033</ele>
        <time>2020-01-08T09:22:33.000Z</time>
      </trkpt>
      <trkpt lat="45.65625" lon="6.73431">
        <ele>2033.5999755859</ele>
        <time>2020-01-08T09:22:37.000Z</time>
      </trkpt>
      <trkpt lat="45.65625" lon="6.73431">
        <ele>2033.8000488281</ele>
        <time>2020-01-08T09:22:39.000Z</time>
      </trkpt>
      <trkpt lat="45.65625" lon="6.73431">
        <ele>2034</ele>
        <time>2020-01-08T09:22:42.000Z</time>
      </trkpt>
      <trkpt lat="45.65625" lon="6.7343">
        <ele>2034</ele>
        <time>2020-01-08T09:22:43.000Z</time>
      </trkpt>
      <trkpt lat="45.65626" lon="6.73426">
        <ele>2034</ele>
        <time>2020-01-08T09:22:47.000Z</time>
      </trkpt>
      <trkpt lat="45.65628" lon="6.73424">
        <ele>2034.8000488281</ele>
        <time>2020-01-08T09:22:49.000Z</time>
      </trkpt>
      <trkpt lat="45.65628" lon="6.73423">
        <ele>2035.5999755859</ele>
        <time>2020-01-08T09:22:53.000Z</time>
      </trkpt>
      <trkpt lat="45.65629" lon="6.73421">
        <ele>2035.8000488281</ele>
        <time>2020-01-08T09:22:55.000Z</time>
      </trkpt>
      <trkpt lat="45.6563" lon="6.73418">
        <ele>2036.4000244141</ele>
        <time>2020-01-08T09:22:59.000Z</time>
      </trkpt>
      <trkpt lat="45.65631" lon="6.73416">
        <ele>2037</ele>
        <time>2020-01-08T09:23:02.000Z</time>
      </trkpt>
      <trkpt lat="45.65632" lon="6.73416">
        <ele>2037.1999511719</ele>
        <time>2020-01-08T09:23:03.000Z</time>
      </trkpt>
      <trkpt lat="45.65633" lon="6.73412">
        <ele>2038</ele>
        <time>2020-01-08T09:23:08.000Z</time>
      </trkpt>
      <trkpt lat="45.65634" lon="6.73411">
        <ele>2038.1999511719</ele>
        <time>2020-01-08T09:23:09.000Z</time>
      </trkpt>
      <trkpt lat="45.65634" lon="6.73408">
        <ele>2039</ele>
        <time>2020-01-08T09:23:13.000Z</time>
      </trkpt>
      <trkpt lat="45.65635" lon="6.73407">
        <ele>2039.1999511719</ele>
        <time>2020-01-08T09:23:15.000Z</time>
      </trkpt>
      <trkpt lat="45.65635" lon="6.73407">
        <ele>2039.1999511719</ele>
        <time>2020-01-08T09:23:20.000Z</time>
      </trkpt>
      <trkpt lat="45.65635" lon="6.73407">
        <ele>2039.4000244141</ele>
        <time>2020-01-08T09:23:36.000Z</time>
      </trkpt>
      <trkpt lat="45.65637" lon="6.73404">
        <ele>2039.8000488281</ele>
        <time>2020-01-08T09:23:42.000Z</time>
      </trkpt>
      <trkpt lat="45.65639" lon="6.73402">
        <ele>2040</ele>
        <time>2020-01-08T09:23:47.000Z</time>
      </trkpt>
      <trkpt lat="45.65639" lon="6.73402">
        <ele>2040.1999511719</ele>
        <time>2020-01-08T09:23:48.000Z</time>
      </trkpt>
      <trkpt lat="45.6564" lon="6.73405">
        <ele>2041.1999511719</ele>
        <time>2020-01-08T09:23:52.000Z</time>
      </trkpt>
      <trkpt lat="45.6564" lon="6.73407">
        <ele>2041.4000244141</ele>
        <time>2020-01-08T09:23:53.000Z</time>
      </trkpt>
      <trkpt lat="45.65641" lon="6.73411">
        <ele>2042.1999511719</ele>
        <time>2020-01-08T09:23:58.000Z</time>
      </trkpt>
      <trkpt lat="45.65641" lon="6.73413">
        <ele>2042.5999755859</ele>
        <time>2020-01-08T09:24:00.000Z</time>
      </trkpt>
      <trkpt lat="45.65642" lon="6.73417">
        <ele>2043.5999755859</ele>
        <time>2020-01-08T09:24:04.000Z</time>
      </trkpt>
      <trkpt lat="45.65641" lon="6.73423">
        <ele>2044.5999755859</ele>
        <time>2020-01-08T09:24:09.000Z</time>
      </trkpt>
      <trkpt lat="45.6564" lon="6.73424">
        <ele>2044.8000488281</ele>
        <time>2020-01-08T09:24:10.000Z</time>
      </trkpt>
      <trkpt lat="45.65641" lon="6.73427">
        <ele>2045.5999755859</ele>
        <time>2020-01-08T09:24:15.000Z</time>
      </trkpt>
      <trkpt lat="45.65641" lon="6.73428">
        <ele>2045.8000488281</ele>
        <time>2020-01-08T09:24:16.000Z</time>
      </trkpt>
      <trkpt lat="45.65642" lon="6.7343">
        <ele>2046.8000488281</ele>
        <time>2020-01-08T09:24:20.000Z</time>
      </trkpt>
      <trkpt lat="45.65643" lon="6.7343">
        <ele>2047</ele>
        <time>2020-01-08T09:24:21.000Z</time>
      </trkpt>
      <trkpt lat="45.65646" lon="6.73427">
        <ele>2048</ele>
        <time>2020-01-08T09:24:25.000Z</time>
      </trkpt>
      <trkpt lat="45.65648" lon="6.73426">
        <ele>2048.8000488281</ele>
        <time>2020-01-08T09:24:30.000Z</time>
      </trkpt>
      <trkpt lat="45.65648" lon="6.73426">
        <ele>2049</ele>
        <time>2020-01-08T09:24:34.000Z</time>
      </trkpt>
      <trkpt lat="45.65648" lon="6.73426">
        <ele>2049.6000976562</ele>
        <time>2020-01-08T09:24:45.000Z</time>
      </trkpt>
      <trkpt lat="45.65649" lon="6.73424">
        <ele>2049.3999023438</ele>
        <time>2020-01-08T09:24:59.000Z</time>
      </trkpt>
      <trkpt lat="45.65653" lon="6.7342">
        <ele>2049.8000488281</ele>
        <time>2020-01-08T09:25:04.000Z</time>
      </trkpt>
      <trkpt lat="45.65653" lon="6.7342">
        <ele>2050</ele>
        <time>2020-01-08T09:25:05.000Z</time>
      </trkpt>
      <trkpt lat="45.65654" lon="6.73419">
        <ele>2050.8000488281</ele>
        <time>2020-01-08T09:25:11.000Z</time>
      </trkpt>
      <trkpt lat="45.65656" lon="6.73421">
        <ele>2051</ele>
        <time>2020-01-08T09:25:17.000Z</time>
      </trkpt>
      <trkpt lat="45.65656" lon="6.73422">
        <ele>2051.3999023438</ele>
        <time>2020-01-08T09:25:18.000Z</time>
      </trkpt>
      <trkpt lat="45.65656" lon="6.73424">
        <ele>2052.3999023438</ele>
        <time>2020-01-08T09:25:22.000Z</time>
      </trkpt>
      <trkpt lat="45.65656" lon="6.73425">
        <ele>2052.3999023438</ele>
        <time>2020-01-08T09:25:23.000Z</time>
      </trkpt>
      <trkpt lat="45.65658" lon="6.73423">
        <ele>2052.6000976562</ele>
        <time>2020-01-08T09:25:26.000Z</time>
      </trkpt>
      <trkpt lat="45.65659" lon="6.73421">
        <ele>2053.3999023438</ele>
        <time>2020-01-08T09:25:30.000Z</time>
      </trkpt>
      <trkpt lat="45.65659" lon="6.73421">
        <ele>2053.6000976562</ele>
        <time>2020-01-08T09:25:31.000Z</time>
      </trkpt>
      <trkpt lat="45.6566" lon="6.73421">
        <ele>2054.8000488281</ele>
        <time>2020-01-08T09:25:36.000Z</time>
      </trkpt>
      <trkpt lat="45.6566" lon="6.73425">
        <ele>2055.3999023438</ele>
        <time>2020-01-08T09:25:41.000Z</time>
      </trkpt>
      <trkpt lat="45.6566" lon="6.73431">
        <ele>2056</ele>
        <time>2020-01-08T09:25:47.000Z</time>
      </trkpt>
      <trkpt lat="45.65662" lon="6.73433">
        <ele>2056.6000976562</ele>
        <time>2020-01-08T09:25:52.000Z</time>
      </trkpt>
      <trkpt lat="45.65662" lon="6.73436">
        <ele>2057</ele>
        <time>2020-01-08T09:25:56.000Z</time>
      </trkpt>
      <trkpt lat="45.65662" lon="6.73436">
        <ele>2057.3999023438</ele>
        <time>2020-01-08T09:25:58.000Z</time>
      </trkpt>
      <trkpt lat="45.65662" lon="6.73436">
        <ele>2058.1999511719</ele>
        <time>2020-01-08T09:26:01.000Z</time>
      </trkpt>
      <trkpt lat="45.65662" lon="6.73436">
        <ele>2058.1999511719</ele>
        <time>2020-01-08T09:26:08.000Z</time>
      </trkpt>
      <trkpt lat="45.65662" lon="6.73436">
        <ele>2058.1999511719</ele>
        <time>2020-01-08T09:26:21.000Z</time>
      </trkpt>
      <trkpt lat="45.65662" lon="6.73436">
        <ele>2057.1999511719</ele>
        <time>2020-01-08T09:26:24.000Z</time>
      </trkpt>
      <trkpt lat="45.65662" lon="6.73436">
        <ele>2055.8000488281</ele>
        <time>2020-01-08T09:26:25.000Z</time>
      </trkpt>
      <trkpt lat="45.65662" lon="6.73436">
        <ele>2057.1999511719</ele>
        <time>2020-01-08T09:26:32.000Z</time>
      </trkpt>
      <trkpt lat="45.65662" lon="6.73436">
        <ele>2058.3999023438</ele>
        <time>2020-01-08T09:26:35.000Z</time>
      </trkpt>
      <trkpt lat="45.65662" lon="6.73436">
        <ele>2057.6000976562</ele>
        <time>2020-01-08T09:26:45.000Z</time>
      </trkpt>
      <trkpt lat="45.65662" lon="6.73436">
        <ele>2057.8000488281</ele>
        <time>2020-01-08T09:26:49.000Z</time>
      </trkpt>
      <trkpt lat="45.65662" lon="6.73436">
        <ele>2057</ele>
        <time>2020-01-08T09:26:58.000Z</time>
      </trkpt>
      <trkpt lat="45.65662" lon="6.73436">
        <ele>2056.8000488281</ele>
        <time>2020-01-08T09:26:59.000Z</time>
      </trkpt>
      <trkpt lat="45.65662" lon="6.73436">
        <ele>2058.1999511719</ele>
        <time>2020-01-08T09:27:06.000Z</time>
      </trkpt>
      <trkpt lat="45.65662" lon="6.73436">
        <ele>2057.8000488281</ele>
        <time>2020-01-08T09:27:12.000Z</time>
      </trkpt>
      <trkpt lat="45.65663" lon="6.73435">
        <ele>2057.6000976562</ele>
        <time>2020-01-08T09:27:24.000Z</time>
      </trkpt>
      <trkpt lat="45.65663" lon="6.73435">
        <ele>2057.6000976562</ele>
        <time>2020-01-08T09:27:36.000Z</time>
      </trkpt>
      <trkpt lat="45.65663" lon="6.73435">
        <ele>2057.6000976562</ele>
        <time>2020-01-08T09:27:48.000Z</time>
      </trkpt>
      <trkpt lat="45.65663" lon="6.73435">
        <ele>2057.6000976562</ele>
        <time>2020-01-08T09:27:58.000Z</time>
      </trkpt>
      <trkpt lat="45.65663" lon="6.73434">
        <ele>2057.6000976562</ele>
        <time>2020-01-08T09:28:13.000Z</time>
      </trkpt>
      <trkpt lat="45.65663" lon="6.73434">
        <ele>2057.6000976562</ele>
        <time>2020-01-08T09:28:24.000Z</time>
      </trkpt>
      <trkpt lat="45.65663" lon="6.73434">
        <ele>2057.3999023438</ele>
        <time>2020-01-08T09:28:36.000Z</time>
      </trkpt>
      <trkpt lat="45.65663" lon="6.73435">
        <ele>2057.6000976562</ele>
        <time>2020-01-08T09:28:49.000Z</time>
      </trkpt>
      <trkpt lat="45.65663" lon="6.73435">
        <ele>2057.3999023438</ele>
        <time>2020-01-08T09:29:07.000Z</time>
      </trkpt>
      <trkpt lat="45.65663" lon="6.73435">
        <ele>2057.6000976562</ele>
        <time>2020-01-08T09:29:20.000Z</time>
      </trkpt>
      <trkpt lat="45.65663" lon="6.73434">
        <ele>2057.6000976562</ele>
        <time>2020-01-08T09:29:35.000Z</time>
      </trkpt>
      <trkpt lat="45.65663" lon="6.73434">
        <ele>2057.8000488281</ele>
        <time>2020-01-08T09:29:49.000Z</time>
      </trkpt>
      <trkpt lat="45.65663" lon="6.73435">
        <ele>2057.6000976562</ele>
        <time>2020-01-08T09:30:05.000Z</time>
      </trkpt>
      <trkpt lat="45.65663" lon="6.73435">
        <ele>2057.6000976562</ele>
        <time>2020-01-08T09:30:15.000Z</time>
      </trkpt>
      <trkpt lat="45.65663" lon="6.73435">
        <ele>2057.1999511719</ele>
        <time>2020-01-08T09:30:18.000Z</time>
      </trkpt>
      <trkpt lat="45.65663" lon="6.73435">
        <ele>2057.8000488281</ele>
        <time>2020-01-08T09:30:26.000Z</time>
      </trkpt>
      <trkpt lat="45.65663" lon="6.73435">
        <ele>2057.6000976562</ele>
        <time>2020-01-08T09:30:40.000Z</time>
      </trkpt>
      <trkpt lat="45.65664" lon="6.73436">
        <ele>2057.8000488281</ele>
        <time>2020-01-08T09:30:56.000Z</time>
      </trkpt>
      <trkpt lat="45.65664" lon="6.73436">
        <ele>2058</ele>
        <time>2020-01-08T09:31:09.000Z</time>
      </trkpt>
      <trkpt lat="45.65664" lon="6.73436">
        <ele>2058</ele>
        <time>2020-01-08T09:31:23.000Z</time>
      </trkpt>
      <trkpt lat="45.65665" lon="6.73435">
        <ele>2058</ele>
        <time>2020-01-08T09:31:28.000Z</time>
      </trkpt>
      <trkpt lat="45.65665" lon="6.73435">
        <ele>2058.1999511719</ele>
        <time>2020-01-08T09:31:29.000Z</time>
      </trkpt>
      <trkpt lat="45.65665" lon="6.73435">
        <ele>2058.1999511719</ele>
        <time>2020-01-08T09:31:40.000Z</time>
      </trkpt>
      <trkpt lat="45.65665" lon="6.73435">
        <ele>2058</ele>
        <time>2020-01-08T09:32:01.000Z</time>
      </trkpt>
      <trkpt lat="45.65665" lon="6.73435">
        <ele>2058</ele>
        <time>2020-01-08T09:32:11.000Z</time>
      </trkpt>
      <trkpt lat="45.65665" lon="6.73435">
        <ele>2058</ele>
        <time>2020-01-08T09:32:26.000Z</time>
      </trkpt>
      <trkpt lat="45.65668" lon="6.73437">
        <ele>2059.1999511719</ele>
        <time>2020-01-08T09:32:33.000Z</time>
      </trkpt>
      <trkpt lat="45.65668" lon="6.73437">
        <ele>2060.1999511719</ele>
        <time>2020-01-08T09:32:38.000Z</time>
      </trkpt>
      <trkpt lat="45.65668" lon="6.73437">
        <ele>2060.3999023438</ele>
        <time>2020-01-08T09:32:41.000Z</time>
      </trkpt>
      <trkpt lat="45.65668" lon="6.73437">
        <ele>2060.3999023438</ele>
        <time>2020-01-08T09:33:03.000Z</time>
      </trkpt>
      <trkpt lat="45.65668" lon="6.73438">
        <ele>2060.1999511719</ele>
        <time>2020-01-08T09:33:20.000Z</time>
      </trkpt>
      <trkpt lat="45.6567" lon="6.73443">
        <ele>2060.3999023438</ele>
        <time>2020-01-08T09:33:27.000Z</time>
      </trkpt>
      <trkpt lat="45.65672" lon="6.73446">
        <ele>2060.1999511719</ele>
        <time>2020-01-08T09:33:32.000Z</time>
      </trkpt>
      <trkpt lat="45.65673" lon="6.73452">
        <ele>2060.3999023438</ele>
        <time>2020-01-08T09:33:37.000Z</time>
      </trkpt>
      <trkpt lat="45.65675" lon="6.73457">
        <ele>2061.1999511719</ele>
        <time>2020-01-08T09:33:42.000Z</time>
      </trkpt>
      <trkpt lat="45.65676" lon="6.73458">
        <ele>2061.3999023438</ele>
        <time>2020-01-08T09:33:43.000Z</time>
      </trkpt>
      <trkpt lat="45.65677" lon="6.73461">
        <ele>2062.3999023438</ele>
        <time>2020-01-08T09:33:47.000Z</time>
      </trkpt>
      <trkpt lat="45.65678" lon="6.73466">
        <ele>2063</ele>
        <time>2020-01-08T09:33:52.000Z</time>
      </trkpt>
      <trkpt lat="45.6568" lon="6.7347">
        <ele>2063.6000976562</ele>
        <time>2020-01-08T09:33:57.000Z</time>
      </trkpt>
      <trkpt lat="45.6568" lon="6.73471">
        <ele>2063.6000976562</ele>
        <time>2020-01-08T09:33:58.000Z</time>
      </trkpt>
      <trkpt lat="45.65681" lon="6.73475">
        <ele>2064.1999511719</ele>
        <time>2020-01-08T09:34:03.000Z</time>
      </trkpt>
      <trkpt lat="45.6568" lon="6.73476">
        <ele>2064.6000976562</ele>
        <time>2020-01-08T09:34:05.000Z</time>
      </trkpt>
      <trkpt lat="45.65681" lon="6.73477">
        <ele>2065</ele>
        <time>2020-01-08T09:34:07.000Z</time>
      </trkpt>
      <trkpt lat="45.65681" lon="6.73477">
        <ele>2065.6000976562</ele>
        <time>2020-01-08T09:34:10.000Z</time>
      </trkpt>
      <trkpt lat="45.65681" lon="6.73477">
        <ele>2066</ele>
        <time>2020-01-08T09:34:13.000Z</time>
      </trkpt>
      <trkpt lat="45.65681" lon="6.73477">
        <ele>2066.1999511719</ele>
        <time>2020-01-08T09:34:19.000Z</time>
      </trkpt>
      <trkpt lat="45.65681" lon="6.73477">
        <ele>2066.6000976562</ele>
        <time>2020-01-08T09:34:23.000Z</time>
      </trkpt>
      <trkpt lat="45.65681" lon="6.73476">
        <ele>2066.6000976562</ele>
        <time>2020-01-08T09:34:25.000Z</time>
      </trkpt>
      <trkpt lat="45.65682" lon="6.73476">
        <ele>2067.1999511719</ele>
        <time>2020-01-08T09:34:33.000Z</time>
      </trkpt>
      <trkpt lat="45.65682" lon="6.73476">
        <ele>2067.3999023438</ele>
        <time>2020-01-08T09:34:49.000Z</time>
      </trkpt>
      <trkpt lat="45.65684" lon="6.73474">
        <ele>2067.8000488281</ele>
        <time>2020-01-08T09:34:55.000Z</time>
      </trkpt>
      <trkpt lat="45.65687" lon="6.73469">
        <ele>2068.1999511719</ele>
        <time>2020-01-08T09:35:02.000Z</time>
      </trkpt>
      <trkpt lat="45.65689" lon="6.73465">
        <ele>2069</ele>
        <time>2020-01-08T09:35:07.000Z</time>
      </trkpt>
      <trkpt lat="45.65689" lon="6.73464">
        <ele>2069.1999511719</ele>
        <time>2020-01-08T09:35:08.000Z</time>
      </trkpt>
      <trkpt lat="45.65689" lon="6.73459">
        <ele>2070.1999511719</ele>
        <time>2020-01-08T09:35:13.000Z</time>
      </trkpt>
      <trkpt lat="45.65689" lon="6.73457">
        <ele>2070.3999023438</ele>
        <time>2020-01-08T09:35:15.000Z</time>
      </trkpt>
      <trkpt lat="45.65691" lon="6.73451">
        <ele>2071.1999511719</ele>
        <time>2020-01-08T09:35:21.000Z</time>
      </trkpt>
      <trkpt lat="45.65691" lon="6.7345">
        <ele>2071.3999023438</ele>
        <time>2020-01-08T09:35:22.000Z</time>
      </trkpt>
      <trkpt lat="45.65693" lon="6.73447">
        <ele>2072.1999511719</ele>
        <time>2020-01-08T09:35:26.000Z</time>
      </trkpt>
      <trkpt lat="45.65693" lon="6.73443">
        <ele>2073.3999023438</ele>
        <time>2020-01-08T09:35:30.000Z</time>
      </trkpt>
      <trkpt lat="45.65694" lon="6.73442">
        <ele>2074.1999511719</ele>
        <time>2020-01-08T09:35:36.000Z</time>
      </trkpt>
      <trkpt lat="45.65695" lon="6.73443">
        <ele>2074.3999023438</ele>
        <time>2020-01-08T09:35:37.000Z</time>
      </trkpt>
      <trkpt lat="45.65696" lon="6.73446">
        <ele>2075.3999023438</ele>
        <time>2020-01-08T09:35:41.000Z</time>
      </trkpt>
      <trkpt lat="45.65697" lon="6.73446">
        <ele>2075.3999023438</ele>
        <time>2020-01-08T09:35:42.000Z</time>
      </trkpt>
      <trkpt lat="45.65699" lon="6.73448">
        <ele>2076.1999511719</ele>
        <time>2020-01-08T09:35:46.000Z</time>
      </trkpt>
      <trkpt lat="45.657" lon="6.7345">
        <ele>2076.6000976562</ele>
        <time>2020-01-08T09:35:48.000Z</time>
      </trkpt>
      <trkpt lat="45.657" lon="6.73454">
        <ele>2077.1999511719</ele>
        <time>2020-01-08T09:35:52.000Z</time>
      </trkpt>
      <trkpt lat="45.65702" lon="6.73458">
        <ele>2077.8000488281</ele>
        <time>2020-01-08T09:35:57.000Z</time>
      </trkpt>
      <trkpt lat="45.65703" lon="6.73462">
        <ele>2078.6000976562</ele>
        <time>2020-01-08T09:36:02.000Z</time>
      </trkpt>
      <trkpt lat="45.65703" lon="6.73463">
        <ele>2078.8000488281</ele>
        <time>2020-01-08T09:36:03.000Z</time>
      </trkpt>
      <trkpt lat="45.65703" lon="6.73466">
        <ele>2079.6000976562</ele>
        <time>2020-01-08T09:36:08.000Z</time>
      </trkpt>
      <trkpt lat="45.65703" lon="6.73466">
        <ele>2079.1999511719</ele>
        <time>2020-01-08T09:36:17.000Z</time>
      </trkpt>
      <trkpt lat="45.65703" lon="6.73466">
        <ele>2079.8000488281</ele>
        <time>2020-01-08T09:36:24.000Z</time>
      </trkpt>
      <trkpt lat="45.65703" lon="6.73466">
        <ele>2080</ele>
        <time>2020-01-08T09:36:25.000Z</time>
      </trkpt>
      <trkpt lat="45.65704" lon="6.73464">
        <ele>2080.3999023438</ele>
        <time>2020-01-08T09:36:35.000Z</time>
      </trkpt>
      <trkpt lat="45.65708" lon="6.73457">
        <ele>2081.1999511719</ele>
        <time>2020-01-08T09:36:41.000Z</time>
      </trkpt>
      <trkpt lat="45.65708" lon="6.73456">
        <ele>2081.3999023438</ele>
        <time>2020-01-08T09:36:42.000Z</time>
      </trkpt>
      <trkpt lat="45.65709" lon="6.73454">
        <ele>2082.1999511719</ele>
        <time>2020-01-08T09:36:48.000Z</time>
      </trkpt>
      <trkpt lat="45.6571" lon="6.73451">
        <ele>2083.3999023438</ele>
        <time>2020-01-08T09:36:52.000Z</time>
      </trkpt>
      <trkpt lat="45.6571" lon="6.73448">
        <ele>2083.8000488281</ele>
        <time>2020-01-08T09:36:56.000Z</time>
      </trkpt>
      <trkpt lat="45.6571" lon="6.73446">
        <ele>2084.3999023438</ele>
        <time>2020-01-08T09:36:59.000Z</time>
      </trkpt>
      <trkpt lat="45.65712" lon="6.73444">
        <ele>2085.1999511719</ele>
        <time>2020-01-08T09:37:03.000Z</time>
      </trkpt>
      <trkpt lat="45.65712" lon="6.73444">
        <ele>2085.6000976562</ele>
        <time>2020-01-08T09:37:07.000Z</time>
      </trkpt>
      <trkpt lat="45.65712" lon="6.73444">
        <ele>2085.6000976562</ele>
        <time>2020-01-08T09:37:09.000Z</time>
      </trkpt>
      <trkpt lat="45.65712" lon="6.73444">
        <ele>2086.6000976562</ele>
        <time>2020-01-08T09:37:17.000Z</time>
      </trkpt>
      <trkpt lat="45.65712" lon="6.73445">
        <ele>2087.1999511719</ele>
        <time>2020-01-08T09:37:20.000Z</time>
      </trkpt>
      <trkpt lat="45.65712" lon="6.73449">
        <ele>2087.3999023438</ele>
        <time>2020-01-08T09:37:26.000Z</time>
      </trkpt>
      <trkpt lat="45.65712" lon="6.73451">
        <ele>2087.8000488281</ele>
        <time>2020-01-08T09:37:29.000Z</time>
      </trkpt>
      <trkpt lat="45.65712" lon="6.73452">
        <ele>2088</ele>
        <time>2020-01-08T09:37:30.000Z</time>
      </trkpt>
      <trkpt lat="45.65714" lon="6.73456">
        <ele>2088.8000488281</ele>
        <time>2020-01-08T09:37:35.000Z</time>
      </trkpt>
      <trkpt lat="45.65715" lon="6.73461">
        <ele>2089.6000976562</ele>
        <time>2020-01-08T09:37:40.000Z</time>
      </trkpt>
      <trkpt lat="45.65715" lon="6.73463">
        <ele>2090</ele>
        <time>2020-01-08T09:37:42.000Z</time>
      </trkpt>
      <trkpt lat="45.65715" lon="6.73468">
        <ele>2090.6000976562</ele>
        <time>2020-01-08T09:37:46.000Z</time>
      </trkpt>
      <trkpt lat="45.65715" lon="6.73471">
        <ele>2091.1999511719</ele>
        <time>2020-01-08T09:37:49.000Z</time>
      </trkpt>
      <trkpt lat="45.65716" lon="6.73473">
        <ele>2091.6000976562</ele>
        <time>2020-01-08T09:37:51.000Z</time>
      </trkpt>
      <trkpt lat="45.65718" lon="6.73477">
        <ele>2092.1999511719</ele>
        <time>2020-01-08T09:37:56.000Z</time>
      </trkpt>
      <trkpt lat="45.65721" lon="6.73481">
        <ele>2093.1999511719</ele>
        <time>2020-01-08T09:38:01.000Z</time>
      </trkpt>
      <trkpt lat="45.65722" lon="6.73482">
        <ele>2093.3999023438</ele>
        <time>2020-01-08T09:38:02.000Z</time>
      </trkpt>
      <trkpt lat="45.65723" lon="6.73486">
        <ele>2094.6000976562</ele>
        <time>2020-01-08T09:38:07.000Z</time>
      </trkpt>
      <trkpt lat="45.65724" lon="6.73491">
        <ele>2095.6000976562</ele>
        <time>2020-01-08T09:38:12.000Z</time>
      </trkpt>
      <trkpt lat="45.65725" lon="6.73494">
        <ele>2096.3999023438</ele>
        <time>2020-01-08T09:38:15.000Z</time>
      </trkpt>
      <trkpt lat="45.65726" lon="6.73495">
        <ele>2096.6000976562</ele>
        <time>2020-01-08T09:38:16.000Z</time>
      </trkpt>
      <trkpt lat="45.65728" lon="6.73497">
        <ele>2097.1999511719</ele>
        <time>2020-01-08T09:38:20.000Z</time>
      </trkpt>
      <trkpt lat="45.6573" lon="6.73497">
        <ele>2097.6000976562</ele>
        <time>2020-01-08T09:38:23.000Z</time>
      </trkpt>
      <trkpt lat="45.65731" lon="6.735">
        <ele>2098</ele>
        <time>2020-01-08T09:38:26.000Z</time>
      </trkpt>
      <trkpt lat="45.65734" lon="6.73496">
        <ele>2098.8000488281</ele>
        <time>2020-01-08T09:38:31.000Z</time>
      </trkpt>
      <trkpt lat="45.65735" lon="6.73492">
        <ele>2099.3999023438</ele>
        <time>2020-01-08T09:38:33.000Z</time>
      </trkpt>
      <trkpt lat="45.65735" lon="6.73492">
        <ele>2099.8000488281</ele>
        <time>2020-01-08T09:38:34.000Z</time>
      </trkpt>
      <trkpt lat="45.65735" lon="6.7349">
        <ele>2100.8000488281</ele>
        <time>2020-01-08T09:38:38.000Z</time>
      </trkpt>
      <trkpt lat="45.65735" lon="6.73489">
        <ele>2101</ele>
        <time>2020-01-08T09:38:39.000Z</time>
      </trkpt>
      <trkpt lat="45.65737" lon="6.73485">
        <ele>2101.8000488281</ele>
        <time>2020-01-08T09:38:44.000Z</time>
      </trkpt>
      <trkpt lat="45.65738" lon="6.73483">
        <ele>2102.1999511719</ele>
        <time>2020-01-08T09:38:46.000Z</time>
      </trkpt>
      <trkpt lat="45.6574" lon="6.7348">
        <ele>2103.1999511719</ele>
        <time>2020-01-08T09:38:51.000Z</time>
      </trkpt>
      <trkpt lat="45.65742" lon="6.73477">
        <ele>2103.3999023438</ele>
        <time>2020-01-08T09:38:54.000Z</time>
      </trkpt>
      <trkpt lat="45.65744" lon="6.73473">
        <ele>2104.1999511719</ele>
        <time>2020-01-08T09:38:59.000Z</time>
      </trkpt>
      <trkpt lat="45.65744" lon="6.7347">
        <ele>2104.6000976562</ele>
        <time>2020-01-08T09:39:01.000Z</time>
      </trkpt>
      <trkpt lat="45.65746" lon="6.73466">
        <ele>2105.1999511719</ele>
        <time>2020-01-08T09:39:04.000Z</time>
      </trkpt>
      <trkpt lat="45.65747" lon="6.73463">
        <ele>2106.1999511719</ele>
        <time>2020-01-08T09:39:09.000Z</time>
      </trkpt>
      <trkpt lat="45.65746" lon="6.73461">
        <ele>2106.3999023438</ele>
        <time>2020-01-08T09:39:11.000Z</time>
      </trkpt>
      <trkpt lat="45.65748" lon="6.73458">
        <ele>2107.1999511719</ele>
        <time>2020-01-08T09:39:17.000Z</time>
      </trkpt>
      <trkpt lat="45.65748" lon="6.73459">
        <ele>2107.6000976562</ele>
        <time>2020-01-08T09:39:20.000Z</time>
      </trkpt>
      <trkpt lat="45.65748" lon="6.7346">
        <ele>2108.1999511719</ele>
        <time>2020-01-08T09:39:23.000Z</time>
      </trkpt>
      <trkpt lat="45.65748" lon="6.73461">
        <ele>2108.6000976562</ele>
        <time>2020-01-08T09:39:25.000Z</time>
      </trkpt>
      <trkpt lat="45.6575" lon="6.73462">
        <ele>2109</ele>
        <time>2020-01-08T09:39:27.000Z</time>
      </trkpt>
      <trkpt lat="45.65751" lon="6.73465">
        <ele>2109.6000976562</ele>
        <time>2020-01-08T09:39:31.000Z</time>
      </trkpt>
      <trkpt lat="45.65752" lon="6.73465">
        <ele>2109.8000488281</ele>
        <time>2020-01-08T09:39:32.000Z</time>
      </trkpt>
      <trkpt lat="45.65754" lon="6.73469">
        <ele>2110.6000976562</ele>
        <time>2020-01-08T09:39:36.000Z</time>
      </trkpt>
      <trkpt lat="45.65754" lon="6.7347">
        <ele>2110.8000488281</ele>
        <time>2020-01-08T09:39:38.000Z</time>
      </trkpt>
      <trkpt lat="45.65755" lon="6.73473">
        <ele>2111.6000976562</ele>
        <time>2020-01-08T09:39:41.000Z</time>
      </trkpt>
      <trkpt lat="45.65756" lon="6.73476">
        <ele>2112</ele>
        <time>2020-01-08T09:39:43.000Z</time>
      </trkpt>
      <trkpt lat="45.65756" lon="6.73478">
        <ele>2112.6000976562</ele>
        <time>2020-01-08T09:39:46.000Z</time>
      </trkpt>
      <trkpt lat="45.65756" lon="6.7348">
        <ele>2113.1999511719</ele>
        <time>2020-01-08T09:39:49.000Z</time>
      </trkpt>
      <trkpt lat="45.65756" lon="6.73481">
        <ele>2113.3999023438</ele>
        <time>2020-01-08T09:39:51.000Z</time>
      </trkpt>
      <trkpt lat="45.65759" lon="6.73486">
        <ele>2114.1999511719</ele>
        <time>2020-01-08T09:39:56.000Z</time>
      </trkpt>
      <trkpt lat="45.65759" lon="6.73486">
        <ele>2114.1999511719</ele>
        <time>2020-01-08T09:39:57.000Z</time>
      </trkpt>
      <trkpt lat="45.65759" lon="6.73492">
        <ele>2115.1999511719</ele>
        <time>2020-01-08T09:40:02.000Z</time>
      </trkpt>
      <trkpt lat="45.65761" lon="6.73497">
        <ele>2116.1999511719</ele>
        <time>2020-01-08T09:40:08.000Z</time>
      </trkpt>
      <trkpt lat="45.65761" lon="6.73498">
        <ele>2116.3999023438</ele>
        <time>2020-01-08T09:40:09.000Z</time>
      </trkpt>
      <trkpt lat="45.65761" lon="6.73503">
        <ele>2117</ele>
        <time>2020-01-08T09:40:14.000Z</time>
      </trkpt>
      <trkpt lat="45.65761" lon="6.73506">
        <ele>2117.3999023438</ele>
        <time>2020-01-08T09:40:17.000Z</time>
      </trkpt>
      <trkpt lat="45.65761" lon="6.73508">
        <ele>2118</ele>
        <time>2020-01-08T09:40:19.000Z</time>
      </trkpt>
      <trkpt lat="45.65763" lon="6.7351">
        <ele>2118.6000976562</ele>
        <time>2020-01-08T09:40:21.000Z</time>
      </trkpt>
      <trkpt lat="45.65763" lon="6.73513">
        <ele>2119</ele>
        <time>2020-01-08T09:40:24.000Z</time>
      </trkpt>
      <trkpt lat="45.65766" lon="6.73519">
        <ele>2119.3999023438</ele>
        <time>2020-01-08T09:40:29.000Z</time>
      </trkpt>
      <trkpt lat="45.65766" lon="6.73526">
        <ele>2119.1999511719</ele>
        <time>2020-01-08T09:40:34.000Z</time>
      </trkpt>
      <trkpt lat="45.65767" lon="6.73531">
        <ele>2119.6000976562</ele>
        <time>2020-01-08T09:40:40.000Z</time>
      </trkpt>
      <trkpt lat="45.65765" lon="6.73542">
        <ele>2119</ele>
        <time>2020-01-08T09:40:46.000Z</time>
      </trkpt>
      <trkpt lat="45.65765" lon="6.73548">
        <ele>2118.3999023438</ele>
        <time>2020-01-08T09:40:53.000Z</time>
      </trkpt>
      <trkpt lat="45.65765" lon="6.73551">
        <ele>2117.6000976562</ele>
        <time>2020-01-08T09:41:00.000Z</time>
      </trkpt>
      <trkpt lat="45.65765" lon="6.73551">
        <ele>2117</ele>
        <time>2020-01-08T09:41:07.000Z</time>
      </trkpt>
      <trkpt lat="45.65765" lon="6.73551">
        <ele>2116.3999023438</ele>
        <time>2020-01-08T09:41:12.000Z</time>
      </trkpt>
      <trkpt lat="45.65765" lon="6.73551">
        <ele>2116.3999023438</ele>
        <time>2020-01-08T09:41:14.000Z</time>
      </trkpt>
      <trkpt lat="45.65765" lon="6.73555">
        <ele>2115.8000488281</ele>
        <time>2020-01-08T09:41:19.000Z</time>
      </trkpt>
      <trkpt lat="45.65766" lon="6.73557">
        <ele>2116</ele>
        <time>2020-01-08T09:41:26.000Z</time>
      </trkpt>
      <trkpt lat="45.65766" lon="6.73557">
        <ele>2116.6000976562</ele>
        <time>2020-01-08T09:41:33.000Z</time>
      </trkpt>
      <trkpt lat="45.65766" lon="6.73561">
        <ele>2116.8000488281</ele>
        <time>2020-01-08T09:41:38.000Z</time>
      </trkpt>
      <trkpt lat="45.65766" lon="6.73569">
        <ele>2117.3999023438</ele>
        <time>2020-01-08T09:41:43.000Z</time>
      </trkpt>
      <trkpt lat="45.65765" lon="6.73571">
        <ele>2117.6000976562</ele>
        <time>2020-01-08T09:41:44.000Z</time>
      </trkpt>
      <trkpt lat="45.65765" lon="6.73576">
        <ele>2117.6000976562</ele>
        <time>2020-01-08T09:41:50.000Z</time>
      </trkpt>
      <trkpt lat="45.65764" lon="6.73582">
        <ele>2117.3999023438</ele>
        <time>2020-01-08T09:41:56.000Z</time>
      </trkpt>
      <trkpt lat="45.65763" lon="6.73588">
        <ele>2117.1999511719</ele>
        <time>2020-01-08T09:42:03.000Z</time>
      </trkpt>
      <trkpt lat="45.65763" lon="6.73588">
        <ele>2117.1999511719</ele>
        <time>2020-01-08T09:42:04.000Z</time>
      </trkpt>
      <trkpt lat="45.65763" lon="6.73588">
        <ele>2116.6000976562</ele>
        <time>2020-01-08T09:42:12.000Z</time>
      </trkpt>
      <trkpt lat="45.65763" lon="6.73588">
        <ele>2116.3999023438</ele>
        <time>2020-01-08T09:42:13.000Z</time>
      </trkpt>
      <trkpt lat="45.65763" lon="6.73588">
        <ele>2115.8000488281</ele>
        <time>2020-01-08T09:42:21.000Z</time>
      </trkpt>
      <trkpt lat="45.65763" lon="6.73588">
        <ele>2115.6000976562</ele>
        <time>2020-01-08T09:42:24.000Z</time>
      </trkpt>
      <trkpt lat="45.65763" lon="6.73588">
        <ele>2115.1999511719</ele>
        <time>2020-01-08T09:42:27.000Z</time>
      </trkpt>
      <trkpt lat="45.65763" lon="6.73588">
        <ele>2115.1999511719</ele>
        <time>2020-01-08T09:42:32.000Z</time>
      </trkpt>
      <trkpt lat="45.65763" lon="6.73591">
        <ele>2115.6000976562</ele>
        <time>2020-01-08T09:42:39.000Z</time>
      </trkpt>
      <trkpt lat="45.65763" lon="6.73591">
        <ele>2115.8000488281</ele>
        <time>2020-01-08T09:42:56.000Z</time>
      </trkpt>
      <trkpt lat="45.65763" lon="6.73591">
        <ele>2115.8000488281</ele>
        <time>2020-01-08T09:43:05.000Z</time>
      </trkpt>
      <trkpt lat="45.65763" lon="6.73591">
        <ele>2116.6000976562</ele>
        <time>2020-01-08T09:43:09.000Z</time>
      </trkpt>
      <trkpt lat="45.65758" lon="6.73614">
        <ele>2116.6000976562</ele>
        <time>2020-01-08T09:43:15.000Z</time>
      </trkpt>
      <trkpt lat="45.65749" lon="6.73622">
        <ele>2116.1999511719</ele>
        <time>2020-01-08T09:43:25.000Z</time>
      </trkpt>
      <trkpt lat="45.65753" lon="6.73615">
        <ele>2116</ele>
        <time>2020-01-08T09:43:34.000Z</time>
      </trkpt>
      <trkpt lat="45.65753" lon="6.73614">
        <ele>2116</ele>
        <time>2020-01-08T09:43:42.000Z</time>
      </trkpt>
      <trkpt lat="45.65755" lon="6.73616">
        <ele>2115.6000976562</ele>
        <time>2020-01-08T09:43:50.000Z</time>
      </trkpt>
      <trkpt lat="45.65756" lon="6.73618">
        <ele>2116</ele>
        <time>2020-01-08T09:43:57.000Z</time>
      </trkpt>
      <trkpt lat="45.65753" lon="6.73623">
        <ele>2115.8000488281</ele>
        <time>2020-01-08T09:44:09.000Z</time>
      </trkpt>
      <trkpt lat="45.6575" lon="6.73629">
        <ele>2116</ele>
        <time>2020-01-08T09:44:18.000Z</time>
      </trkpt>
      <trkpt lat="45.65748" lon="6.73631">
        <ele>2116.1999511719</ele>
        <time>2020-01-08T09:44:27.000Z</time>
      </trkpt>
      <trkpt lat="45.65749" lon="6.73632">
        <ele>2116.3999023438</ele>
        <time>2020-01-08T09:44:35.000Z</time>
      </trkpt>
      <trkpt lat="45.65751" lon="6.73631">
        <ele>2116.8000488281</ele>
        <time>2020-01-08T09:44:46.000Z</time>
      </trkpt>
      <trkpt lat="45.65753" lon="6.73632">
        <ele>2116.8000488281</ele>
        <time>2020-01-08T09:44:52.000Z</time>
      </trkpt>
      <trkpt lat="45.65753" lon="6.73632">
        <ele>2117.3999023438</ele>
        <time>2020-01-08T09:44:59.000Z</time>
      </trkpt>
      <trkpt lat="45.65753" lon="6.73632">
        <ele>2117.6000976562</ele>
        <time>2020-01-08T09:45:01.000Z</time>
      </trkpt>
      <trkpt lat="45.65753" lon="6.73632">
        <ele>2118.1999511719</ele>
        <time>2020-01-08T09:45:06.000Z</time>
      </trkpt>
      <trkpt lat="45.65753" lon="6.73632">
        <ele>2118.6000976562</ele>
        <time>2020-01-08T09:45:10.000Z</time>
      </trkpt>
      <trkpt lat="45.65753" lon="6.73633">
        <ele>2119</ele>
        <time>2020-01-08T09:45:12.000Z</time>
      </trkpt>
      <trkpt lat="45.65753" lon="6.73635">
        <ele>2119.8000488281</ele>
        <time>2020-01-08T09:45:20.000Z</time>
      </trkpt>
      <trkpt lat="45.65753" lon="6.73635">
        <ele>2120</ele>
        <time>2020-01-08T09:45:22.000Z</time>
      </trkpt>
      <trkpt lat="45.65753" lon="6.73635">
        <ele>2120.6000976562</ele>
        <time>2020-01-08T09:45:31.000Z</time>
      </trkpt>
      <trkpt lat="45.65753" lon="6.73635">
        <ele>2120.8000488281</ele>
        <time>2020-01-08T09:45:33.000Z</time>
      </trkpt>
      <trkpt lat="45.65753" lon="6.73635">
        <ele>2121.1999511719</ele>
        <time>2020-01-08T09:45:40.000Z</time>
      </trkpt>
      <trkpt lat="45.65753" lon="6.73635">
        <ele>2121.1999511719</ele>
        <time>2020-01-08T09:45:52.000Z</time>
      </trkpt>
      <trkpt lat="45.65754" lon="6.73634">
        <ele>2121.1999511719</ele>
        <time>2020-01-08T09:46:00.000Z</time>
      </trkpt>
      <trkpt lat="45.65754" lon="6.73634">
        <ele>2122.1999511719</ele>
        <time>2020-01-08T09:46:04.000Z</time>
      </trkpt>
      <trkpt lat="45.65754" lon="6.73634">
        <ele>2122.3999023438</ele>
        <time>2020-01-08T09:46:07.000Z</time>
      </trkpt>
      <trkpt lat="45.65754" lon="6.73634">
        <ele>2123.1999511719</ele>
        <time>2020-01-08T09:46:14.000Z</time>
      </trkpt>
      <trkpt lat="45.65754" lon="6.73634">
        <ele>2124.3999023438</ele>
        <time>2020-01-08T09:46:21.000Z</time>
      </trkpt>
      <trkpt lat="45.65754" lon="6.73634">
        <ele>2124.8000488281</ele>
        <time>2020-01-08T09:46:26.000Z</time>
      </trkpt>
      <trkpt lat="45.65754" lon="6.73634">
        <ele>2125.3999023438</ele>
        <time>2020-01-08T09:46:28.000Z</time>
      </trkpt>
      <trkpt lat="45.65755" lon="6.73634">
        <ele>2126.3999023438</ele>
        <time>2020-01-08T09:46:37.000Z</time>
      </trkpt>
      <trkpt lat="45.65755" lon="6.73634">
        <ele>2126.3999023438</ele>
        <time>2020-01-08T09:46:48.000Z</time>
      </trkpt>
      <trkpt lat="45.65755" lon="6.73634">
        <ele>2126.6000976562</ele>
        <time>2020-01-08T09:46:49.000Z</time>
      </trkpt>
      <trkpt lat="45.65755" lon="6.73634">
        <ele>2126.6000976562</ele>
        <time>2020-01-08T09:46:56.000Z</time>
      </trkpt>
      <trkpt lat="45.65755" lon="6.73634">
        <ele>2127.8000488281</ele>
        <time>2020-01-08T09:46:58.000Z</time>
      </trkpt>
      <trkpt lat="45.65755" lon="6.73634">
        <ele>2128.1999511719</ele>
        <time>2020-01-08T09:47:05.000Z</time>
      </trkpt>
      <trkpt lat="45.65755" lon="6.73634">
        <ele>2128.8000488281</ele>
        <time>2020-01-08T09:47:07.000Z</time>
      </trkpt>
      <trkpt lat="45.65755" lon="6.73635">
        <ele>2129</ele>
        <time>2020-01-08T09:47:13.000Z</time>
      </trkpt>
      <trkpt lat="45.65755" lon="6.73635">
        <ele>2129.8000488281</ele>
        <time>2020-01-08T09:47:19.000Z</time>
      </trkpt>
      <trkpt lat="45.65755" lon="6.73636">
        <ele>2130.3999023438</ele>
        <time>2020-01-08T09:47:21.000Z</time>
      </trkpt>
      <trkpt lat="45.65756" lon="6.73642">
        <ele>2130.8000488281</ele>
        <time>2020-01-08T09:47:26.000Z</time>
      </trkpt>
      <trkpt lat="45.65757" lon="6.73644">
        <ele>2131.1999511719</ele>
        <time>2020-01-08T09:47:28.000Z</time>
      </trkpt>
      <trkpt lat="45.65757" lon="6.73648">
        <ele>2132</ele>
        <time>2020-01-08T09:47:31.000Z</time>
      </trkpt>
      <trkpt lat="45.65758" lon="6.73651">
        <ele>2133</ele>
        <time>2020-01-08T09:47:34.000Z</time>
      </trkpt>
      <trkpt lat="45.65758" lon="6.73652">
        <ele>2133.1999511719</ele>
        <time>2020-01-08T09:47:35.000Z</time>
      </trkpt>
      <trkpt lat="45.6576" lon="6.73658">
        <ele>2133.6000976562</ele>
        <time>2020-01-08T09:47:39.000Z</time>
      </trkpt>
      <trkpt lat="45.6576" lon="6.73658">
        <ele>2134.1999511719</ele>
        <time>2020-01-08T09:47:41.000Z</time>
      </trkpt>
      <trkpt lat="45.6576" lon="6.73658">
        <ele>2135</ele>
        <time>2020-01-08T09:47:46.000Z</time>
      </trkpt>
      <trkpt lat="45.6576" lon="6.73658">
        <ele>2135.1999511719</ele>
        <time>2020-01-08T09:47:47.000Z</time>
      </trkpt>
      <trkpt lat="45.6576" lon="6.73658">
        <ele>2136.3999023438</ele>
        <time>2020-01-08T09:47:51.000Z</time>
      </trkpt>
      <trkpt lat="45.6576" lon="6.73658">
        <ele>2136.8000488281</ele>
        <time>2020-01-08T09:47:54.000Z</time>
      </trkpt>
      <trkpt lat="45.6576" lon="6.73658">
        <ele>2137</ele>
        <time>2020-01-08T09:48:06.000Z</time>
      </trkpt>
      <trkpt lat="45.6576" lon="6.73658">
        <ele>2137.3999023438</ele>
        <time>2020-01-08T09:48:08.000Z</time>
      </trkpt>
      <trkpt lat="45.6576" lon="6.73658">
        <ele>2138.3999023438</ele>
        <time>2020-01-08T09:48:12.000Z</time>
      </trkpt>
      <trkpt lat="45.6576" lon="6.73658">
        <ele>2138.6000976562</ele>
        <time>2020-01-08T09:48:14.000Z</time>
      </trkpt>
      <trkpt lat="45.65761" lon="6.73659">
        <ele>2139.6000976562</ele>
        <time>2020-01-08T09:48:21.000Z</time>
      </trkpt>
      <trkpt lat="45.65761" lon="6.73659">
        <ele>2139.8000488281</ele>
        <time>2020-01-08T09:48:22.000Z</time>
      </trkpt>
      <trkpt lat="45.65763" lon="6.73665">
        <ele>2139.8000488281</ele>
        <time>2020-01-08T09:48:27.000Z</time>
      </trkpt>
      <trkpt lat="45.65767" lon="6.7367">
        <ele>2140.8000488281</ele>
        <time>2020-01-08T09:48:32.000Z</time>
      </trkpt>
      <trkpt lat="45.65768" lon="6.73671">
        <ele>2141.3999023438</ele>
        <time>2020-01-08T09:48:34.000Z</time>
      </trkpt>
      <trkpt lat="45.65769" lon="6.73674">
        <ele>2142</ele>
        <time>2020-01-08T09:48:39.000Z</time>
      </trkpt>
      <trkpt lat="45.6577" lon="6.73673">
        <ele>2142.3999023438</ele>
        <time>2020-01-08T09:48:42.000Z</time>
      </trkpt>
      <trkpt lat="45.65774" lon="6.73672">
        <ele>2142.6000976562</ele>
        <time>2020-01-08T09:48:45.000Z</time>
      </trkpt>
      <trkpt lat="45.65779" lon="6.73669">
        <ele>2142.6000976562</ele>
        <time>2020-01-08T09:48:50.000Z</time>
      </trkpt>
      <trkpt lat="45.65781" lon="6.73671">
        <ele>2143</ele>
        <time>2020-01-08T09:48:52.000Z</time>
      </trkpt>
      <trkpt lat="45.65781" lon="6.73673">
        <ele>2143.6000976562</ele>
        <time>2020-01-08T09:48:56.000Z</time>
      </trkpt>
      <trkpt lat="45.65781" lon="6.73674">
        <ele>2144</ele>
        <time>2020-01-08T09:49:01.000Z</time>
      </trkpt>
      <trkpt lat="45.65781" lon="6.73675">
        <ele>2145.1999511719</ele>
        <time>2020-01-08T09:49:05.000Z</time>
      </trkpt>
      <trkpt lat="45.65781" lon="6.73677">
        <ele>2145.8000488281</ele>
        <time>2020-01-08T09:49:09.000Z</time>
      </trkpt>
      <trkpt lat="45.65781" lon="6.73676">
        <ele>2146.3999023438</ele>
        <time>2020-01-08T09:49:11.000Z</time>
      </trkpt>
      <trkpt lat="45.6578" lon="6.73677">
        <ele>2146.6000976562</ele>
        <time>2020-01-08T09:49:21.000Z</time>
      </trkpt>
      <trkpt lat="45.65782" lon="6.7368">
        <ele>2147</ele>
        <time>2020-01-08T09:49:27.000Z</time>
      </trkpt>
      <trkpt lat="45.65783" lon="6.73681">
        <ele>2147.3999023438</ele>
        <time>2020-01-08T09:49:29.000Z</time>
      </trkpt>
      <trkpt lat="45.65783" lon="6.73681">
        <ele>2148.3999023438</ele>
        <time>2020-01-08T09:49:35.000Z</time>
      </trkpt>
      <trkpt lat="45.65783" lon="6.73682">
        <ele>2148.6000976562</ele>
        <time>2020-01-08T09:49:43.000Z</time>
      </trkpt>
      <trkpt lat="45.65788" lon="6.73684">
        <ele>2149.3999023438</ele>
        <time>2020-01-08T09:49:53.000Z</time>
      </trkpt>
      <trkpt lat="45.65789" lon="6.73686">
        <ele>2149.6000976562</ele>
        <time>2020-01-08T09:49:57.000Z</time>
      </trkpt>
      <trkpt lat="45.65789" lon="6.73687">
        <ele>2150</ele>
        <time>2020-01-08T09:49:59.000Z</time>
      </trkpt>
      <trkpt lat="45.65789" lon="6.73688">
        <ele>2150.8000488281</ele>
        <time>2020-01-08T09:50:03.000Z</time>
      </trkpt>
      <trkpt lat="45.65788" lon="6.7369">
        <ele>2151.3999023438</ele>
        <time>2020-01-08T09:50:06.000Z</time>
      </trkpt>
      <trkpt lat="45.65789" lon="6.73691">
        <ele>2152</ele>
        <time>2020-01-08T09:50:08.000Z</time>
      </trkpt>
      <trkpt lat="45.65789" lon="6.73692">
        <ele>2153</ele>
        <time>2020-01-08T09:50:12.000Z</time>
      </trkpt>
      <trkpt lat="45.65789" lon="6.73692">
        <ele>2153</ele>
        <time>2020-01-08T09:50:13.000Z</time>
      </trkpt>
      <trkpt lat="45.6579" lon="6.73692">
        <ele>2154</ele>
        <time>2020-01-08T09:50:21.000Z</time>
      </trkpt>
      <trkpt lat="45.6579" lon="6.73692">
        <ele>2154.1999511719</ele>
        <time>2020-01-08T09:50:23.000Z</time>
      </trkpt>
      <trkpt lat="45.6579" lon="6.73692">
        <ele>2154</ele>
        <time>2020-01-08T09:50:33.000Z</time>
      </trkpt>
      <trkpt lat="45.6579" lon="6.73692">
        <ele>2154.8000488281</ele>
        <time>2020-01-08T09:50:43.000Z</time>
      </trkpt>
      <trkpt lat="45.65791" lon="6.7369">
        <ele>2155</ele>
        <time>2020-01-08T09:50:52.000Z</time>
      </trkpt>
      <trkpt lat="45.65792" lon="6.73688">
        <ele>2155.1999511719</ele>
        <time>2020-01-08T09:50:53.000Z</time>
      </trkpt>
      <trkpt lat="45.65793" lon="6.73687">
        <ele>2156</ele>
        <time>2020-01-08T09:50:59.000Z</time>
      </trkpt>
      <trkpt lat="45.65793" lon="6.73687">
        <ele>2155.8000488281</ele>
        <time>2020-01-08T09:51:06.000Z</time>
      </trkpt>
      <trkpt lat="45.65793" lon="6.73687">
        <ele>2156</ele>
        <time>2020-01-08T09:51:07.000Z</time>
      </trkpt>
      <trkpt lat="45.65793" lon="6.73687">
        <ele>2156.3999023438</ele>
        <time>2020-01-08T09:51:08.000Z</time>
      </trkpt>
      <trkpt lat="45.65793" lon="6.73688">
        <ele>2156</ele>
        <time>2020-01-08T09:51:17.000Z</time>
      </trkpt>
      <trkpt lat="45.65793" lon="6.73688">
        <ele>2156.6000976562</ele>
        <time>2020-01-08T09:51:30.000Z</time>
      </trkpt>
      <trkpt lat="45.65793" lon="6.73688">
        <ele>2156.3999023438</ele>
        <time>2020-01-08T09:51:43.000Z</time>
      </trkpt>
      <trkpt lat="45.65794" lon="6.73688">
        <ele>2156.6000976562</ele>
        <time>2020-01-08T09:51:57.000Z</time>
      </trkpt>
      <trkpt lat="45.65796" lon="6.73687">
        <ele>2156.6000976562</ele>
        <time>2020-01-08T09:52:07.000Z</time>
      </trkpt>
      <trkpt lat="45.65794" lon="6.73685">
        <ele>2156.6000976562</ele>
        <time>2020-01-08T09:52:18.000Z</time>
      </trkpt>
      <trkpt lat="45.65795" lon="6.73686">
        <ele>2156.3999023438</ele>
        <time>2020-01-08T09:52:30.000Z</time>
      </trkpt>
      <trkpt lat="45.65795" lon="6.73686">
        <ele>2156.6000976562</ele>
        <time>2020-01-08T09:52:41.000Z</time>
      </trkpt>
      <trkpt lat="45.65794" lon="6.73693">
        <ele>2157.3999023438</ele>
        <time>2020-01-08T09:52:49.000Z</time>
      </trkpt>
      <trkpt lat="45.65794" lon="6.73693">
        <ele>2158.6000976562</ele>
        <time>2020-01-08T09:52:56.000Z</time>
      </trkpt>
      <trkpt lat="45.65794" lon="6.73693">
        <ele>2158.8000488281</ele>
        <time>2020-01-08T09:52:58.000Z</time>
      </trkpt>
      <trkpt lat="45.65794" lon="6.73693">
        <ele>2159.8000488281</ele>
        <time>2020-01-08T09:53:02.000Z</time>
      </trkpt>
      <trkpt lat="45.65794" lon="6.73693">
        <ele>2160.3999023438</ele>
        <time>2020-01-08T09:53:07.000Z</time>
      </trkpt>
      <trkpt lat="45.65794" lon="6.73693">
        <ele>2160.8000488281</ele>
        <time>2020-01-08T09:53:13.000Z</time>
      </trkpt>
      <trkpt lat="45.65794" lon="6.73693">
        <ele>2161</ele>
        <time>2020-01-08T09:53:15.000Z</time>
      </trkpt>
      <trkpt lat="45.65795" lon="6.73693">
        <ele>2162</ele>
        <time>2020-01-08T09:53:24.000Z</time>
      </trkpt>
      <trkpt lat="45.65795" lon="6.73693">
        <ele>2162.1999511719</ele>
        <time>2020-01-08T09:53:26.000Z</time>
      </trkpt>
      <trkpt lat="45.65795" lon="6.73695">
        <ele>2162.1999511719</ele>
        <time>2020-01-08T09:53:33.000Z</time>
      </trkpt>
      <trkpt lat="45.65795" lon="6.73695">
        <ele>2163</ele>
        <time>2020-01-08T09:53:36.000Z</time>
      </trkpt>
      <trkpt lat="45.65796" lon="6.73696">
        <ele>2163.6000976562</ele>
        <time>2020-01-08T09:53:40.000Z</time>
      </trkpt>
      <trkpt lat="45.65798" lon="6.73699">
        <ele>2163.6000976562</ele>
        <time>2020-01-08T09:53:44.000Z</time>
      </trkpt>
      <trkpt lat="45.65798" lon="6.737">
        <ele>2164</ele>
        <time>2020-01-08T09:53:52.000Z</time>
      </trkpt>
      <trkpt lat="45.65798" lon="6.737">
        <ele>2164.3999023438</ele>
        <time>2020-01-08T09:53:53.000Z</time>
      </trkpt>
      <trkpt lat="45.65798" lon="6.737">
        <ele>2164.1999511719</ele>
        <time>2020-01-08T09:54:03.000Z</time>
      </trkpt>
      <trkpt lat="45.65799" lon="6.73701">
        <ele>2164.8000488281</ele>
        <time>2020-01-08T09:54:09.000Z</time>
      </trkpt>
      <trkpt lat="45.65799" lon="6.737">
        <ele>2165.1999511719</ele>
        <time>2020-01-08T09:54:14.000Z</time>
      </trkpt>
      <trkpt lat="45.65799" lon="6.737">
        <ele>2165.3999023438</ele>
        <time>2020-01-08T09:54:16.000Z</time>
      </trkpt>
      <trkpt lat="45.658" lon="6.73701">
        <ele>2166.1999511719</ele>
        <time>2020-01-08T09:54:22.000Z</time>
      </trkpt>
      <trkpt lat="45.658" lon="6.73701">
        <ele>2166.1999511719</ele>
        <time>2020-01-08T09:54:23.000Z</time>
      </trkpt>
      <trkpt lat="45.658" lon="6.73703">
        <ele>2166.8000488281</ele>
        <time>2020-01-08T09:54:27.000Z</time>
      </trkpt>
      <trkpt lat="45.658" lon="6.73704">
        <ele>2167.3999023438</ele>
        <time>2020-01-08T09:54:29.000Z</time>
      </trkpt>
      <trkpt lat="45.658" lon="6.73705">
        <ele>2168</ele>
        <time>2020-01-08T09:54:33.000Z</time>
      </trkpt>
      <trkpt lat="45.658" lon="6.73705">
        <ele>2168.6000976562</ele>
        <time>2020-01-08T09:54:38.000Z</time>
      </trkpt>
      <trkpt lat="45.658" lon="6.73705">
        <ele>2169</ele>
        <time>2020-01-08T09:54:43.000Z</time>
      </trkpt>
      <trkpt lat="45.65801" lon="6.73706">
        <ele>2168.8000488281</ele>
        <time>2020-01-08T09:54:48.000Z</time>
      </trkpt>
      <trkpt lat="45.65801" lon="6.73706">
        <ele>2170</ele>
        <time>2020-01-08T09:54:52.000Z</time>
      </trkpt>
      <trkpt lat="45.65802" lon="6.73708">
        <ele>2170.3999023438</ele>
        <time>2020-01-08T09:54:56.000Z</time>
      </trkpt>
      <trkpt lat="45.65801" lon="6.7371">
        <ele>2171</ele>
        <time>2020-01-08T09:55:00.000Z</time>
      </trkpt>
      <trkpt lat="45.65801" lon="6.7371">
        <ele>2171.1999511719</ele>
        <time>2020-01-08T09:55:01.000Z</time>
      </trkpt>
      <trkpt lat="45.65801" lon="6.7371">
        <ele>2172.1999511719</ele>
        <time>2020-01-08T09:55:09.000Z</time>
      </trkpt>
      <trkpt lat="45.65801" lon="6.7371">
        <ele>2172.1999511719</ele>
        <time>2020-01-08T09:55:10.000Z</time>
      </trkpt>
      <trkpt lat="45.65801" lon="6.7371">
        <ele>2172.6000976562</ele>
        <time>2020-01-08T09:55:18.000Z</time>
      </trkpt>
      <trkpt lat="45.65801" lon="6.7371">
        <ele>2173.3999023438</ele>
        <time>2020-01-08T09:55:27.000Z</time>
      </trkpt>
      <trkpt lat="45.65801" lon="6.7371">
        <ele>2173.8000488281</ele>
        <time>2020-01-08T09:55:29.000Z</time>
      </trkpt>
      <trkpt lat="45.65801" lon="6.73711">
        <ele>2174</ele>
        <time>2020-01-08T09:55:36.000Z</time>
      </trkpt>
      <trkpt lat="45.65801" lon="6.73712">
        <ele>2174.3999023438</ele>
        <time>2020-01-08T09:55:41.000Z</time>
      </trkpt>
      <trkpt lat="45.65801" lon="6.73712">
        <ele>2174.6000976562</ele>
        <time>2020-01-08T09:55:43.000Z</time>
      </trkpt>
      <trkpt lat="45.65802" lon="6.73715">
        <ele>2174.6000976562</ele>
        <time>2020-01-08T09:55:51.000Z</time>
      </trkpt>
      <trkpt lat="45.65802" lon="6.73715">
        <ele>2175.3999023438</ele>
        <time>2020-01-08T09:55:56.000Z</time>
      </trkpt>
      <trkpt lat="45.65804" lon="6.73717">
        <ele>2176.3999023438</ele>
        <time>2020-01-08T09:56:02.000Z</time>
      </trkpt>
      <trkpt lat="45.65804" lon="6.73717">
        <ele>2177.6000976562</ele>
        <time>2020-01-08T09:56:11.000Z</time>
      </trkpt>
      <trkpt lat="45.65804" lon="6.73717">
        <ele>2177.6000976562</ele>
        <time>2020-01-08T09:56:13.000Z</time>
      </trkpt>
      <trkpt lat="45.65804" lon="6.73717">
        <ele>2177.1999511719</ele>
        <time>2020-01-08T09:56:18.000Z</time>
      </trkpt>
      <trkpt lat="45.65805" lon="6.73718">
        <ele>2177.6000976562</ele>
        <time>2020-01-08T09:56:24.000Z</time>
      </trkpt>
      <trkpt lat="45.65805" lon="6.73718">
        <ele>2178.1999511719</ele>
        <time>2020-01-08T09:56:31.000Z</time>
      </trkpt>
      <trkpt lat="45.65807" lon="6.73718">
        <ele>2178.6000976562</ele>
        <time>2020-01-08T09:56:34.000Z</time>
      </trkpt>
      <trkpt lat="45.65808" lon="6.73719">
        <ele>2179.1999511719</ele>
        <time>2020-01-08T09:56:37.000Z</time>
      </trkpt>
      <trkpt lat="45.65809" lon="6.7372">
        <ele>2179.8000488281</ele>
        <time>2020-01-08T09:56:40.000Z</time>
      </trkpt>
      <trkpt lat="45.6581" lon="6.73722">
        <ele>2180.3999023438</ele>
        <time>2020-01-08T09:56:43.000Z</time>
      </trkpt>
      <trkpt lat="45.6581" lon="6.73722">
        <ele>2180.8000488281</ele>
        <time>2020-01-08T09:56:45.000Z</time>
      </trkpt>
      <trkpt lat="45.65811" lon="6.73723">
        <ele>2181.8000488281</ele>
        <time>2020-01-08T09:56:51.000Z</time>
      </trkpt>
      <trkpt lat="45.65811" lon="6.73723">
        <ele>2182</ele>
        <time>2020-01-08T09:56:52.000Z</time>
      </trkpt>
      <trkpt lat="45.65812" lon="6.73724">
        <ele>2182.8000488281</ele>
        <time>2020-01-08T09:56:56.000Z</time>
      </trkpt>
      <trkpt lat="45.65812" lon="6.73724">
        <ele>2183</ele>
        <time>2020-01-08T09:56:57.000Z</time>
      </trkpt>
      <trkpt lat="45.65813" lon="6.73725">
        <ele>2183.8000488281</ele>
        <time>2020-01-08T09:57:02.000Z</time>
      </trkpt>
      <trkpt lat="45.65813" lon="6.73725">
        <ele>2184.1999511719</ele>
        <time>2020-01-08T09:57:04.000Z</time>
      </trkpt>
      <trkpt lat="45.65814" lon="6.73727">
        <ele>2184.6000976562</ele>
        <time>2020-01-08T09:57:06.000Z</time>
      </trkpt>
      <trkpt lat="45.65814" lon="6.73728">
        <ele>2185.1999511719</ele>
        <time>2020-01-08T09:57:10.000Z</time>
      </trkpt>
      <trkpt lat="45.65814" lon="6.73728">
        <ele>2185.6000976562</ele>
        <time>2020-01-08T09:57:12.000Z</time>
      </trkpt>
      <trkpt lat="45.65814" lon="6.73728">
        <ele>2186.3999023438</ele>
        <time>2020-01-08T09:57:15.000Z</time>
      </trkpt>
      <trkpt lat="45.65814" lon="6.73728">
        <ele>2186.6000976562</ele>
        <time>2020-01-08T09:57:22.000Z</time>
      </trkpt>
      <trkpt lat="45.65815" lon="6.73728">
        <ele>2187.3999023438</ele>
        <time>2020-01-08T09:57:26.000Z</time>
      </trkpt>
      <trkpt lat="45.65815" lon="6.73729">
        <ele>2187.8000488281</ele>
        <time>2020-01-08T09:57:28.000Z</time>
      </trkpt>
      <trkpt lat="45.65817" lon="6.73731">
        <ele>2188.6000976562</ele>
        <time>2020-01-08T09:57:32.000Z</time>
      </trkpt>
      <trkpt lat="45.65818" lon="6.73731">
        <ele>2188.8000488281</ele>
        <time>2020-01-08T09:57:33.000Z</time>
      </trkpt>
      <trkpt lat="45.65819" lon="6.73732">
        <ele>2189.8000488281</ele>
        <time>2020-01-08T09:57:37.000Z</time>
      </trkpt>
      <trkpt lat="45.65819" lon="6.73732">
        <ele>2190.6000976562</ele>
        <time>2020-01-08T09:57:42.000Z</time>
      </trkpt>
      <trkpt lat="45.65819" lon="6.73732">
        <ele>2190.8000488281</ele>
        <time>2020-01-08T09:57:44.000Z</time>
      </trkpt>
      <trkpt lat="45.65819" lon="6.73732">
        <ele>2191.6000976562</ele>
        <time>2020-01-08T09:57:50.000Z</time>
      </trkpt>
      <trkpt lat="45.65819" lon="6.73732">
        <ele>2192</ele>
        <time>2020-01-08T09:57:52.000Z</time>
      </trkpt>
      <trkpt lat="45.65819" lon="6.73732">
        <ele>2192.1999511719</ele>
        <time>2020-01-08T09:57:56.000Z</time>
      </trkpt>
      <trkpt lat="45.65821" lon="6.73735">
        <ele>2192.8000488281</ele>
        <time>2020-01-08T09:58:01.000Z</time>
      </trkpt>
      <trkpt lat="45.65821" lon="6.73736">
        <ele>2193</ele>
        <time>2020-01-08T09:58:02.000Z</time>
      </trkpt>
      <trkpt lat="45.65825" lon="6.73739">
        <ele>2194</ele>
        <time>2020-01-08T09:58:07.000Z</time>
      </trkpt>
      <trkpt lat="45.65825" lon="6.73739">
        <ele>2195.1999511719</ele>
        <time>2020-01-08T09:58:13.000Z</time>
      </trkpt>
      <trkpt lat="45.65825" lon="6.73739">
        <ele>2195.1999511719</ele>
        <time>2020-01-08T09:58:14.000Z</time>
      </trkpt>
      <trkpt lat="45.65825" lon="6.73739">
        <ele>2196</ele>
        <time>2020-01-08T09:58:22.000Z</time>
      </trkpt>
      <trkpt lat="45.65825" lon="6.73739">
        <ele>2196.1999511719</ele>
        <time>2020-01-08T09:58:23.000Z</time>
      </trkpt>
      <trkpt lat="45.65825" lon="6.73739">
        <ele>2196.8000488281</ele>
        <time>2020-01-08T09:58:27.000Z</time>
      </trkpt>
      <trkpt lat="45.65825" lon="6.73739">
        <ele>2197.3999023438</ele>
        <time>2020-01-08T09:58:29.000Z</time>
      </trkpt>
      <trkpt lat="45.65825" lon="6.73739">
        <ele>2198.3999023438</ele>
        <time>2020-01-08T09:58:34.000Z</time>
      </trkpt>
      <trkpt lat="45.65825" lon="6.73739">
        <ele>2199.3999023438</ele>
        <time>2020-01-08T09:58:39.000Z</time>
      </trkpt>
      <trkpt lat="45.65825" lon="6.73739">
        <ele>2199.3999023438</ele>
        <time>2020-01-08T09:58:40.000Z</time>
      </trkpt>
      <trkpt lat="45.65826" lon="6.7374">
        <ele>2200.6000976562</ele>
        <time>2020-01-08T09:58:47.000Z</time>
      </trkpt>
      <trkpt lat="45.65826" lon="6.7374">
        <ele>2201</ele>
        <time>2020-01-08T09:58:48.000Z</time>
      </trkpt>
      <trkpt lat="45.65826" lon="6.7374">
        <ele>2201</ele>
        <time>2020-01-08T09:59:01.000Z</time>
      </trkpt>
      <trkpt lat="45.65835" lon="6.73749">
        <ele>2201.1999511719</ele>
        <time>2020-01-08T09:59:08.000Z</time>
      </trkpt>
      <trkpt lat="45.65836" lon="6.73749">
        <ele>2201.6000976562</ele>
        <time>2020-01-08T09:59:12.000Z</time>
      </trkpt>
      <trkpt lat="45.65837" lon="6.7375">
        <ele>2202.1999511719</ele>
        <time>2020-01-08T09:59:15.000Z</time>
      </trkpt>
      <trkpt lat="45.65838" lon="6.73752">
        <ele>2202.8000488281</ele>
        <time>2020-01-08T09:59:21.000Z</time>
      </trkpt>
      <trkpt lat="45.65841" lon="6.73753">
        <ele>2204.1999511719</ele>
        <time>2020-01-08T09:59:27.000Z</time>
      </trkpt>
      <trkpt lat="45.65842" lon="6.73754">
        <ele>2205.3999023438</ele>
        <time>2020-01-08T09:59:33.000Z</time>
      </trkpt>
      <trkpt lat="45.65843" lon="6.73755">
        <ele>2206.3999023438</ele>
        <time>2020-01-08T09:59:36.000Z</time>
      </trkpt>
      <trkpt lat="45.65844" lon="6.73755">
        <ele>2207</ele>
        <time>2020-01-08T09:59:39.000Z</time>
      </trkpt>
      <trkpt lat="45.65845" lon="6.73757">
        <ele>2207.6000976562</ele>
        <time>2020-01-08T09:59:41.000Z</time>
      </trkpt>
      <trkpt lat="45.65845" lon="6.73757">
        <ele>2208.1999511719</ele>
        <time>2020-01-08T09:59:44.000Z</time>
      </trkpt>
      <trkpt lat="45.65846" lon="6.73757">
        <ele>2208.6000976562</ele>
        <time>2020-01-08T09:59:46.000Z</time>
      </trkpt>
      <trkpt lat="45.65847" lon="6.73759">
        <ele>2209.3999023438</ele>
        <time>2020-01-08T09:59:50.000Z</time>
      </trkpt>
      <trkpt lat="45.65847" lon="6.7376">
        <ele>2209.8000488281</ele>
        <time>2020-01-08T09:59:52.000Z</time>
      </trkpt>
      <trkpt lat="45.65847" lon="6.73758">
        <ele>2210.6000976562</ele>
        <time>2020-01-08T09:59:56.000Z</time>
      </trkpt>
      <trkpt lat="45.65848" lon="6.73758">
        <ele>2210.8000488281</ele>
        <time>2020-01-08T09:59:59.000Z</time>
      </trkpt>
      <trkpt lat="45.65847" lon="6.73758">
        <ele>2210.8000488281</ele>
        <time>2020-01-08T10:00:12.000Z</time>
      </trkpt>
      <trkpt lat="45.65849" lon="6.73759">
        <ele>2210.8000488281</ele>
        <time>2020-01-08T10:00:19.000Z</time>
      </trkpt>
      <trkpt lat="45.6585" lon="6.73761">
        <ele>2211.8000488281</ele>
        <time>2020-01-08T10:00:25.000Z</time>
      </trkpt>
      <trkpt lat="45.6585" lon="6.73761">
        <ele>2212</ele>
        <time>2020-01-08T10:00:26.000Z</time>
      </trkpt>
      <trkpt lat="45.6585" lon="6.73762">
        <ele>2212.8000488281</ele>
        <time>2020-01-08T10:00:30.000Z</time>
      </trkpt>
      <trkpt lat="45.6585" lon="6.73762">
        <ele>2213</ele>
        <time>2020-01-08T10:00:31.000Z</time>
      </trkpt>
      <trkpt lat="45.65851" lon="6.73763">
        <ele>2213.3999023438</ele>
        <time>2020-01-08T10:00:37.000Z</time>
      </trkpt>
      <trkpt lat="45.65851" lon="6.73765">
        <ele>2214</ele>
        <time>2020-01-08T10:00:42.000Z</time>
      </trkpt>
      <trkpt lat="45.65851" lon="6.73766">
        <ele>2214.1999511719</ele>
        <time>2020-01-08T10:00:46.000Z</time>
      </trkpt>
      <trkpt lat="45.65851" lon="6.73766">
        <ele>2215.1999511719</ele>
        <time>2020-01-08T10:00:51.000Z</time>
      </trkpt>
      <trkpt lat="45.65852" lon="6.73766">
        <ele>2216</ele>
        <time>2020-01-08T10:00:53.000Z</time>
      </trkpt>
      <trkpt lat="45.65853" lon="6.73767">
        <ele>2216.1999511719</ele>
        <time>2020-01-08T10:00:58.000Z</time>
      </trkpt>
      <trkpt lat="45.65853" lon="6.73768">
        <ele>2217.3999023438</ele>
        <time>2020-01-08T10:01:05.000Z</time>
      </trkpt>
      <trkpt lat="45.65853" lon="6.73768">
        <ele>2217.6000976562</ele>
        <time>2020-01-08T10:01:06.000Z</time>
      </trkpt>
      <trkpt lat="45.65853" lon="6.73769">
        <ele>2218.3999023438</ele>
        <time>2020-01-08T10:01:12.000Z</time>
      </trkpt>
      <trkpt lat="45.65854" lon="6.73771">
        <ele>2219.6000976562</ele>
        <time>2020-01-08T10:01:17.000Z</time>
      </trkpt>
      <trkpt lat="45.65855" lon="6.73772">
        <ele>2219.8000488281</ele>
        <time>2020-01-08T10:01:18.000Z</time>
      </trkpt>
      <trkpt lat="45.65855" lon="6.73773">
        <ele>2220.1999511719</ele>
        <time>2020-01-08T10:01:22.000Z</time>
      </trkpt>
      <trkpt lat="45.65855" lon="6.73774">
        <ele>2220.8000488281</ele>
        <time>2020-01-08T10:01:25.000Z</time>
      </trkpt>
      <trkpt lat="45.65855" lon="6.73774">
        <ele>2221.3999023438</ele>
        <time>2020-01-08T10:01:29.000Z</time>
      </trkpt>
      <trkpt lat="45.65855" lon="6.73774">
        <ele>2221.8000488281</ele>
        <time>2020-01-08T10:01:37.000Z</time>
      </trkpt>
      <trkpt lat="45.65855" lon="6.73774">
        <ele>2222.1999511719</ele>
        <time>2020-01-08T10:01:39.000Z</time>
      </trkpt>
      <trkpt lat="45.65855" lon="6.73774">
        <ele>2222.8000488281</ele>
        <time>2020-01-08T10:01:43.000Z</time>
      </trkpt>
      <trkpt lat="45.65856" lon="6.73776">
        <ele>2222.8000488281</ele>
        <time>2020-01-08T10:01:51.000Z</time>
      </trkpt>
      <trkpt lat="45.65857" lon="6.73777">
        <ele>2223.3999023438</ele>
        <time>2020-01-08T10:01:56.000Z</time>
      </trkpt>
      <trkpt lat="45.65857" lon="6.73778">
        <ele>2224</ele>
        <time>2020-01-08T10:02:00.000Z</time>
      </trkpt>
      <trkpt lat="45.65858" lon="6.73778">
        <ele>2225.6000976562</ele>
        <time>2020-01-08T10:02:05.000Z</time>
      </trkpt>
      <trkpt lat="45.65858" lon="6.73778">
        <ele>2226.1999511719</ele>
        <time>2020-01-08T10:02:08.000Z</time>
      </trkpt>
      <trkpt lat="45.65858" lon="6.73779">
        <ele>2226.6000976562</ele>
        <time>2020-01-08T10:02:10.000Z</time>
      </trkpt>
      <trkpt lat="45.65859" lon="6.7378">
        <ele>2227</ele>
        <time>2020-01-08T10:02:13.000Z</time>
      </trkpt>
      <trkpt lat="45.6586" lon="6.73781">
        <ele>2227.8000488281</ele>
        <time>2020-01-08T10:02:16.000Z</time>
      </trkpt>
      <trkpt lat="45.6586" lon="6.73782">
        <ele>2228.1999511719</ele>
        <time>2020-01-08T10:02:18.000Z</time>
      </trkpt>
      <trkpt lat="45.6586" lon="6.73782">
        <ele>2229</ele>
        <time>2020-01-08T10:02:21.000Z</time>
      </trkpt>
      <trkpt lat="45.6586" lon="6.73782">
        <ele>2229.6000976562</ele>
        <time>2020-01-08T10:02:27.000Z</time>
      </trkpt>
      <trkpt lat="45.6586" lon="6.73782">
        <ele>2230.1999511719</ele>
        <time>2020-01-08T10:02:29.000Z</time>
      </trkpt>
      <trkpt lat="45.65861" lon="6.73782">
        <ele>2230.8000488281</ele>
        <time>2020-01-08T10:02:35.000Z</time>
      </trkpt>
      <trkpt lat="45.65861" lon="6.73782">
        <ele>2231.1999511719</ele>
        <time>2020-01-08T10:02:38.000Z</time>
      </trkpt>
      <trkpt lat="45.65861" lon="6.73784">
        <ele>2232</ele>
        <time>2020-01-08T10:02:42.000Z</time>
      </trkpt>
      <trkpt lat="45.65861" lon="6.73784">
        <ele>2232.1999511719</ele>
        <time>2020-01-08T10:02:43.000Z</time>
      </trkpt>
      <trkpt lat="45.65862" lon="6.73785">
        <ele>2232.8000488281</ele>
        <time>2020-01-08T10:02:49.000Z</time>
      </trkpt>
      <trkpt lat="45.65862" lon="6.73785">
        <ele>2233.3999023438</ele>
        <time>2020-01-08T10:02:53.000Z</time>
      </trkpt>
      <trkpt lat="45.65862" lon="6.73785">
        <ele>2233.6000976562</ele>
        <time>2020-01-08T10:02:55.000Z</time>
      </trkpt>
      <trkpt lat="45.65862" lon="6.73785">
        <ele>2234.3999023438</ele>
        <time>2020-01-08T10:03:03.000Z</time>
      </trkpt>
      <trkpt lat="45.65862" lon="6.73785">
        <ele>2234.6000976562</ele>
        <time>2020-01-08T10:03:06.000Z</time>
      </trkpt>
      <trkpt lat="45.65864" lon="6.73788">
        <ele>2234.6000976562</ele>
        <time>2020-01-08T10:03:11.000Z</time>
      </trkpt>
      <trkpt lat="45.65865" lon="6.7379">
        <ele>2235</ele>
        <time>2020-01-08T10:03:16.000Z</time>
      </trkpt>
      <trkpt lat="45.65866" lon="6.73791">
        <ele>2235.6000976562</ele>
        <time>2020-01-08T10:03:18.000Z</time>
      </trkpt>
      <trkpt lat="45.65867" lon="6.73792">
        <ele>2236.1999511719</ele>
        <time>2020-01-08T10:03:21.000Z</time>
      </trkpt>
      <trkpt lat="45.65867" lon="6.73792">
        <ele>2236.6000976562</ele>
        <time>2020-01-08T10:03:24.000Z</time>
      </trkpt>
      <trkpt lat="45.65871" lon="6.73793">
        <ele>2237.8000488281</ele>
        <time>2020-01-08T10:03:29.000Z</time>
      </trkpt>
      <trkpt lat="45.65872" lon="6.73794">
        <ele>2238.6000976562</ele>
        <time>2020-01-08T10:03:34.000Z</time>
      </trkpt>
      <trkpt lat="45.65873" lon="6.73795">
        <ele>2238.8000488281</ele>
        <time>2020-01-08T10:03:36.000Z</time>
      </trkpt>
      <trkpt lat="45.65873" lon="6.73795">
        <ele>2239.8000488281</ele>
        <time>2020-01-08T10:03:42.000Z</time>
      </trkpt>
      <trkpt lat="45.65873" lon="6.73795">
        <ele>2240</ele>
        <time>2020-01-08T10:03:43.000Z</time>
      </trkpt>
      <trkpt lat="45.65873" lon="6.73795">
        <ele>2240</ele>
        <time>2020-01-08T10:03:55.000Z</time>
      </trkpt>
      <trkpt lat="45.65873" lon="6.73795">
        <ele>2240</ele>
        <time>2020-01-08T10:04:07.000Z</time>
      </trkpt>
      <trkpt lat="45.65874" lon="6.73794">
        <ele>2240</ele>
        <time>2020-01-08T10:04:21.000Z</time>
      </trkpt>
      <trkpt lat="45.65874" lon="6.73794">
        <ele>2240.1999511719</ele>
        <time>2020-01-08T10:04:37.000Z</time>
      </trkpt>
      <trkpt lat="45.65875" lon="6.73793">
        <ele>2240.8000488281</ele>
        <time>2020-01-08T10:04:53.000Z</time>
      </trkpt>
      <trkpt lat="45.65875" lon="6.73793">
        <ele>2241.1999511719</ele>
        <time>2020-01-08T10:04:54.000Z</time>
      </trkpt>
      <trkpt lat="45.65875" lon="6.73793">
        <ele>2240.1999511719</ele>
        <time>2020-01-08T10:05:00.000Z</time>
      </trkpt>
      <trkpt lat="45.65875" lon="6.73793">
        <ele>2239.8000488281</ele>
        <time>2020-01-08T10:05:12.000Z</time>
      </trkpt>
      <trkpt lat="45.65875" lon="6.73793">
        <ele>2240</ele>
        <time>2020-01-08T10:05:21.000Z</time>
      </trkpt>
      <trkpt lat="45.65876" lon="6.73795">
        <ele>2239.6000976562</ele>
        <time>2020-01-08T10:05:27.000Z</time>
      </trkpt>
      <trkpt lat="45.65876" lon="6.73795">
        <ele>2239.8000488281</ele>
        <time>2020-01-08T10:05:43.000Z</time>
      </trkpt>
      <trkpt lat="45.65876" lon="6.73795">
        <ele>2239.8000488281</ele>
        <time>2020-01-08T10:05:56.000Z</time>
      </trkpt>
      <trkpt lat="45.65877" lon="6.73797">
        <ele>2239.6000976562</ele>
        <time>2020-01-08T10:06:03.000Z</time>
      </trkpt>
      <trkpt lat="45.65877" lon="6.73797">
        <ele>2240.1999511719</ele>
        <time>2020-01-08T10:06:13.000Z</time>
      </trkpt>
      <trkpt lat="45.65877" lon="6.73797">
        <ele>2240</ele>
        <time>2020-01-08T10:06:28.000Z</time>
      </trkpt>
      <trkpt lat="45.65877" lon="6.73797">
        <ele>2239.1999511719</ele>
        <time>2020-01-08T10:06:36.000Z</time>
      </trkpt>
      <trkpt lat="45.65877" lon="6.73797">
        <ele>2239.1999511719</ele>
        <time>2020-01-08T10:06:38.000Z</time>
      </trkpt>
      <trkpt lat="45.65876" lon="6.73798">
        <ele>2239.3999023438</ele>
        <time>2020-01-08T10:06:51.000Z</time>
      </trkpt>
      <trkpt lat="45.65876" lon="6.73798">
        <ele>2239.6000976562</ele>
        <time>2020-01-08T10:07:10.000Z</time>
      </trkpt>
      <trkpt lat="45.65876" lon="6.73798">
        <ele>2239.6000976562</ele>
        <time>2020-01-08T10:07:23.000Z</time>
      </trkpt>
      <trkpt lat="45.65876" lon="6.73798">
        <ele>2240.1999511719</ele>
        <time>2020-01-08T10:07:28.000Z</time>
      </trkpt>
      <trkpt lat="45.65876" lon="6.73798">
        <ele>2240.1999511719</ele>
        <time>2020-01-08T10:07:29.000Z</time>
      </trkpt>
      <trkpt lat="45.65877" lon="6.73798">
        <ele>2240</ele>
        <time>2020-01-08T10:07:40.000Z</time>
      </trkpt>
      <trkpt lat="45.65877" lon="6.73798">
        <ele>2239.8000488281</ele>
        <time>2020-01-08T10:07:56.000Z</time>
      </trkpt>
      <trkpt lat="45.65877" lon="6.73798">
        <ele>2240.1999511719</ele>
        <time>2020-01-08T10:08:14.000Z</time>
      </trkpt>
      <trkpt lat="45.65877" lon="6.73798">
        <ele>2240.1999511719</ele>
        <time>2020-01-08T10:08:31.000Z</time>
      </trkpt>
      <trkpt lat="45.65877" lon="6.73798">
        <ele>2240.1999511719</ele>
        <time>2020-01-08T10:08:52.000Z</time>
      </trkpt>
      <trkpt lat="45.65877" lon="6.73798">
        <ele>2240.3999023438</ele>
        <time>2020-01-08T10:09:10.000Z</time>
      </trkpt>
      <trkpt lat="45.65877" lon="6.73798">
        <ele>2241</ele>
        <time>2020-01-08T10:09:21.000Z</time>
      </trkpt>
      <trkpt lat="45.65878" lon="6.73796">
        <ele>2240.3999023438</ele>
        <time>2020-01-08T10:09:26.000Z</time>
      </trkpt>
      <trkpt lat="45.65878" lon="6.73794">
        <ele>2240.1999511719</ele>
        <time>2020-01-08T10:09:32.000Z</time>
      </trkpt>
      <trkpt lat="45.65878" lon="6.73794">
        <ele>2240.3999023438</ele>
        <time>2020-01-08T10:09:47.000Z</time>
      </trkpt>
      <trkpt lat="45.65879" lon="6.73794">
        <ele>2240.3999023438</ele>
        <time>2020-01-08T10:10:00.000Z</time>
      </trkpt>
      <trkpt lat="45.65879" lon="6.73794">
        <ele>2240.3999023438</ele>
        <time>2020-01-08T10:10:15.000Z</time>
      </trkpt>
      <trkpt lat="45.65879" lon="6.73794">
        <ele>2240.3999023438</ele>
        <time>2020-01-08T10:10:30.000Z</time>
      </trkpt>
      <trkpt lat="45.65879" lon="6.73794">
        <ele>2240.3999023438</ele>
        <time>2020-01-08T10:10:47.000Z</time>
      </trkpt>
      <trkpt lat="45.65879" lon="6.73794">
        <ele>2240.3999023438</ele>
        <time>2020-01-08T10:11:02.000Z</time>
      </trkpt>
      <trkpt lat="45.65879" lon="6.73794">
        <ele>2240.1999511719</ele>
        <time>2020-01-08T10:11:17.000Z</time>
      </trkpt>
      <trkpt lat="45.65879" lon="6.73794">
        <ele>2240.3999023438</ele>
        <time>2020-01-08T10:11:34.000Z</time>
      </trkpt>
      <trkpt lat="45.65879" lon="6.73794">
        <ele>2240.3999023438</ele>
        <time>2020-01-08T10:11:50.000Z</time>
      </trkpt>
      <trkpt lat="45.65879" lon="6.73794">
        <ele>2239.1999511719</ele>
        <time>2020-01-08T10:11:58.000Z</time>
      </trkpt>
      <trkpt lat="45.65879" lon="6.73794">
        <ele>2239.1999511719</ele>
        <time>2020-01-08T10:12:01.000Z</time>
      </trkpt>
      <trkpt lat="45.65879" lon="6.73794">
        <ele>2240.3999023438</ele>
        <time>2020-01-08T10:12:06.000Z</time>
      </trkpt>
      <trkpt lat="45.65879" lon="6.73794">
        <ele>2239.8000488281</ele>
        <time>2020-01-08T10:12:13.000Z</time>
      </trkpt>
      <trkpt lat="45.65879" lon="6.73794">
        <ele>2239.8000488281</ele>
        <time>2020-01-08T10:12:27.000Z</time>
      </trkpt>
      <trkpt lat="45.65879" lon="6.73794">
        <ele>2239.6000976562</ele>
        <time>2020-01-08T10:12:41.000Z</time>
      </trkpt>
      <trkpt lat="45.65879" lon="6.73794">
        <ele>2240.1999511719</ele>
        <time>2020-01-08T10:12:57.000Z</time>
      </trkpt>
      <trkpt lat="45.65879" lon="6.73794">
        <ele>2240</ele>
        <time>2020-01-08T10:13:12.000Z</time>
      </trkpt>
      <trkpt lat="45.65879" lon="6.73793">
        <ele>2240.3999023438</ele>
        <time>2020-01-08T10:13:24.000Z</time>
      </trkpt>
      <trkpt lat="45.65879" lon="6.73793">
        <ele>2240.3999023438</ele>
        <time>2020-01-08T10:13:41.000Z</time>
      </trkpt>
      <trkpt lat="45.65879" lon="6.73793">
        <ele>2240.3999023438</ele>
        <time>2020-01-08T10:13:54.000Z</time>
      </trkpt>
      <trkpt lat="45.65879" lon="6.73793">
        <ele>2240.3999023438</ele>
        <time>2020-01-08T10:14:05.000Z</time>
      </trkpt>
      <trkpt lat="45.65879" lon="6.73793">
        <ele>2239.8000488281</ele>
        <time>2020-01-08T10:14:15.000Z</time>
      </trkpt>
      <trkpt lat="45.65879" lon="6.73793">
        <ele>2240</ele>
        <time>2020-01-08T10:14:25.000Z</time>
      </trkpt>
      <trkpt lat="45.65879" lon="6.73793">
        <ele>2241</ele>
        <time>2020-01-08T10:14:37.000Z</time>
      </trkpt>
      <trkpt lat="45.6588" lon="6.73794">
        <ele>2240.6000976562</ele>
        <time>2020-01-08T10:14:48.000Z</time>
      </trkpt>
      <trkpt lat="45.6588" lon="6.73794">
        <ele>2240</ele>
        <time>2020-01-08T10:15:02.000Z</time>
      </trkpt>
      <trkpt lat="45.6588" lon="6.73794">
        <ele>2240.1999511719</ele>
        <time>2020-01-08T10:15:14.000Z</time>
      </trkpt>
      <trkpt lat="45.6588" lon="6.73793">
        <ele>2240.6000976562</ele>
        <time>2020-01-08T10:15:27.000Z</time>
      </trkpt>
      <trkpt lat="45.6588" lon="6.73791">
        <ele>2240.8000488281</ele>
        <time>2020-01-08T10:15:32.000Z</time>
      </trkpt>
      <trkpt lat="45.65881" lon="6.73786">
        <ele>2241.3999023438</ele>
        <time>2020-01-08T10:15:37.000Z</time>
      </trkpt>
      <trkpt lat="45.65882" lon="6.73785">
        <ele>2242.1999511719</ele>
        <time>2020-01-08T10:15:39.000Z</time>
      </trkpt>
      <trkpt lat="45.65884" lon="6.73784">
        <ele>2242.6000976562</ele>
        <time>2020-01-08T10:15:42.000Z</time>
      </trkpt>
      <trkpt lat="45.65885" lon="6.73782">
        <ele>2243</ele>
        <time>2020-01-08T10:15:44.000Z</time>
      </trkpt>
      <trkpt lat="45.65885" lon="6.73781">
        <ele>2243.6000976562</ele>
        <time>2020-01-08T10:15:47.000Z</time>
      </trkpt>
      <trkpt lat="45.65886" lon="6.73781">
        <ele>2244.1999511719</ele>
        <time>2020-01-08T10:15:49.000Z</time>
      </trkpt>
      <trkpt lat="45.65888" lon="6.7378">
        <ele>2244.6000976562</ele>
        <time>2020-01-08T10:15:51.000Z</time>
      </trkpt>
      <trkpt lat="45.65889" lon="6.7378">
        <ele>2245.1999511719</ele>
        <time>2020-01-08T10:15:54.000Z</time>
      </trkpt>
      <trkpt lat="45.65891" lon="6.73777">
        <ele>2245.8000488281</ele>
        <time>2020-01-08T10:15:57.000Z</time>
      </trkpt>
      <trkpt lat="45.65895" lon="6.73775">
        <ele>2246.3999023438</ele>
        <time>2020-01-08T10:16:02.000Z</time>
      </trkpt>
      <trkpt lat="45.65897" lon="6.73775">
        <ele>2246.8000488281</ele>
        <time>2020-01-08T10:16:05.000Z</time>
      </trkpt>
      <trkpt lat="45.65898" lon="6.73775">
        <ele>2247.6000976562</ele>
        <time>2020-01-08T10:16:09.000Z</time>
      </trkpt>
      <trkpt lat="45.65899" lon="6.73774">
        <ele>2247.8000488281</ele>
        <time>2020-01-08T10:16:10.000Z</time>
      </trkpt>
      <trkpt lat="45.659" lon="6.73774">
        <ele>2248.8000488281</ele>
        <time>2020-01-08T10:16:15.000Z</time>
      </trkpt>
      <trkpt lat="45.65902" lon="6.73773">
        <ele>2248.8000488281</ele>
        <time>2020-01-08T10:16:19.000Z</time>
      </trkpt>
      <trkpt lat="45.65902" lon="6.73773">
        <ele>2249</ele>
        <time>2020-01-08T10:16:20.000Z</time>
      </trkpt>
      <trkpt lat="45.65907" lon="6.73771">
        <ele>2249.1999511719</ele>
        <time>2020-01-08T10:16:27.000Z</time>
      </trkpt>
      <trkpt lat="45.65911" lon="6.73768">
        <ele>2249.8000488281</ele>
        <time>2020-01-08T10:16:33.000Z</time>
      </trkpt>
      <trkpt lat="45.65912" lon="6.73767">
        <ele>2250</ele>
        <time>2020-01-08T10:16:34.000Z</time>
      </trkpt>
      <trkpt lat="45.65915" lon="6.73766">
        <ele>2251.1999511719</ele>
        <time>2020-01-08T10:16:40.000Z</time>
      </trkpt>
      <trkpt lat="45.65917" lon="6.73767">
        <ele>2251.3999023438</ele>
        <time>2020-01-08T10:16:45.000Z</time>
      </trkpt>
      <trkpt lat="45.65924" lon="6.73762">
        <ele>2251.1999511719</ele>
        <time>2020-01-08T10:16:52.000Z</time>
      </trkpt>
      <trkpt lat="45.65929" lon="6.73759">
        <ele>2251.8000488281</ele>
        <time>2020-01-08T10:16:57.000Z</time>
      </trkpt>
      <trkpt lat="45.65931" lon="6.73756">
        <ele>2252.3999023438</ele>
        <time>2020-01-08T10:17:01.000Z</time>
      </trkpt>
      <trkpt lat="45.65932" lon="6.73754">
        <ele>2252.3999023438</ele>
        <time>2020-01-08T10:17:02.000Z</time>
      </trkpt>
      <trkpt lat="45.65934" lon="6.73751">
        <ele>2252.3999023438</ele>
        <time>2020-01-08T10:17:05.000Z</time>
      </trkpt>
      <trkpt lat="45.65937" lon="6.73747">
        <ele>2252.6000976562</ele>
        <time>2020-01-08T10:17:08.000Z</time>
      </trkpt>
      <trkpt lat="45.65938" lon="6.73742">
        <ele>2253.3999023438</ele>
        <time>2020-01-08T10:17:12.000Z</time>
      </trkpt>
      <trkpt lat="45.65939" lon="6.73741">
        <ele>2253.8000488281</ele>
        <time>2020-01-08T10:17:14.000Z</time>
      </trkpt>
      <trkpt lat="45.6594" lon="6.73738">
        <ele>2254.6000976562</ele>
        <time>2020-01-08T10:17:19.000Z</time>
      </trkpt>
      <trkpt lat="45.65941" lon="6.73736">
        <ele>2254.6000976562</ele>
        <time>2020-01-08T10:17:20.000Z</time>
      </trkpt>
      <trkpt lat="45.65947" lon="6.73731">
        <ele>2255.1999511719</ele>
        <time>2020-01-08T10:17:26.000Z</time>
      </trkpt>
      <trkpt lat="45.65948" lon="6.73729">
        <ele>2255.6000976562</ele>
        <time>2020-01-08T10:17:31.000Z</time>
      </trkpt>
      <trkpt lat="45.65948" lon="6.73729">
        <ele>2255.6000976562</ele>
        <time>2020-01-08T10:17:33.000Z</time>
      </trkpt>
      <trkpt lat="45.65948" lon="6.73729">
        <ele>2256.3999023438</ele>
        <time>2020-01-08T10:17:46.000Z</time>
      </trkpt>
      <trkpt lat="45.65948" lon="6.73727">
        <ele>2256.8000488281</ele>
        <time>2020-01-08T10:17:49.000Z</time>
      </trkpt>
      <trkpt lat="45.6595" lon="6.73724">
        <ele>2257.3999023438</ele>
        <time>2020-01-08T10:17:53.000Z</time>
      </trkpt>
      <trkpt lat="45.65951" lon="6.7372">
        <ele>2257.6000976562</ele>
        <time>2020-01-08T10:17:58.000Z</time>
      </trkpt>
      <trkpt lat="45.65951" lon="6.7372">
        <ele>2257.8000488281</ele>
        <time>2020-01-08T10:17:59.000Z</time>
      </trkpt>
      <trkpt lat="45.65956" lon="6.73715">
        <ele>2258.3999023438</ele>
        <time>2020-01-08T10:18:05.000Z</time>
      </trkpt>
      <trkpt lat="45.65957" lon="6.73713">
        <ele>2258.8000488281</ele>
        <time>2020-01-08T10:18:09.000Z</time>
      </trkpt>
      <trkpt lat="45.65957" lon="6.73713">
        <ele>2259</ele>
        <time>2020-01-08T10:18:10.000Z</time>
      </trkpt>
      <trkpt lat="45.65957" lon="6.73711">
        <ele>2259.1999511719</ele>
        <time>2020-01-08T10:18:12.000Z</time>
      </trkpt>
      <trkpt lat="45.65959" lon="6.73708">
        <ele>2259.3999023438</ele>
        <time>2020-01-08T10:18:14.000Z</time>
      </trkpt>
      <trkpt lat="45.6596" lon="6.73707">
        <ele>2260</ele>
        <time>2020-01-08T10:18:17.000Z</time>
      </trkpt>
      <trkpt lat="45.6596" lon="6.73705">
        <ele>2260.1999511719</ele>
        <time>2020-01-08T10:18:18.000Z</time>
      </trkpt>
      <trkpt lat="45.65963" lon="6.73701">
        <ele>2261</ele>
        <time>2020-01-08T10:18:24.000Z</time>
      </trkpt>
      <trkpt lat="45.65964" lon="6.737">
        <ele>2261.1999511719</ele>
        <time>2020-01-08T10:18:25.000Z</time>
      </trkpt>
      <trkpt lat="45.65965" lon="6.73699">
        <ele>2262.1999511719</ele>
        <time>2020-01-08T10:18:30.000Z</time>
      </trkpt>
      <trkpt lat="45.65965" lon="6.73699">
        <ele>2262.3999023438</ele>
        <time>2020-01-08T10:18:31.000Z</time>
      </trkpt>
      <trkpt lat="45.65967" lon="6.73698">
        <ele>2262.1999511719</ele>
        <time>2020-01-08T10:18:35.000Z</time>
      </trkpt>
      <trkpt lat="45.65968" lon="6.73698">
        <ele>2262.1999511719</ele>
        <time>2020-01-08T10:18:37.000Z</time>
      </trkpt>
      <trkpt lat="45.65972" lon="6.73699">
        <ele>2263</ele>
        <time>2020-01-08T10:18:42.000Z</time>
      </trkpt>
      <trkpt lat="45.65972" lon="6.737">
        <ele>2263.3999023438</ele>
        <time>2020-01-08T10:18:45.000Z</time>
      </trkpt>
      <trkpt lat="45.65972" lon="6.737">
        <ele>2263.3999023438</ele>
        <time>2020-01-08T10:18:48.000Z</time>
      </trkpt>
      <trkpt lat="45.65972" lon="6.737">
        <ele>2264.1999511719</ele>
        <time>2020-01-08T10:19:00.000Z</time>
      </trkpt>
      <trkpt lat="45.65972" lon="6.737">
        <ele>2264.3999023438</ele>
        <time>2020-01-08T10:19:03.000Z</time>
      </trkpt>
      <trkpt lat="45.65972" lon="6.73701">
        <ele>2264.3999023438</ele>
        <time>2020-01-08T10:19:06.000Z</time>
      </trkpt>
      <trkpt lat="45.65975" lon="6.73703">
        <ele>2264.6000976562</ele>
        <time>2020-01-08T10:19:10.000Z</time>
      </trkpt>
      <trkpt lat="45.65977" lon="6.73706">
        <ele>2264.8000488281</ele>
        <time>2020-01-08T10:19:16.000Z</time>
      </trkpt>
      <trkpt lat="45.65981" lon="6.7371">
        <ele>2264.1999511719</ele>
        <time>2020-01-08T10:19:22.000Z</time>
      </trkpt>
      <trkpt lat="45.65985" lon="6.73712">
        <ele>2263.8000488281</ele>
        <time>2020-01-08T10:19:28.000Z</time>
      </trkpt>
      <trkpt lat="45.65988" lon="6.7371">
        <ele>2263.3999023438</ele>
        <time>2020-01-08T10:19:31.000Z</time>
      </trkpt>
      <trkpt lat="45.65989" lon="6.73708">
        <ele>2263.1999511719</ele>
        <time>2020-01-08T10:19:32.000Z</time>
      </trkpt>
      <trkpt lat="45.6599" lon="6.73704">
        <ele>2263.1999511719</ele>
        <time>2020-01-08T10:19:34.000Z</time>
      </trkpt>
      <trkpt lat="45.65993" lon="6.73696">
        <ele>2263</ele>
        <time>2020-01-08T10:19:38.000Z</time>
      </trkpt>
      <trkpt lat="45.65993" lon="6.7369">
        <ele>2262.3999023438</ele>
        <time>2020-01-08T10:19:44.000Z</time>
      </trkpt>
      <trkpt lat="45.65992" lon="6.73684">
        <ele>2262.6000976562</ele>
        <time>2020-01-08T10:19:50.000Z</time>
      </trkpt>
      <trkpt lat="45.65992" lon="6.73678">
        <ele>2262.1999511719</ele>
        <time>2020-01-08T10:19:57.000Z</time>
      </trkpt>
      <trkpt lat="45.65992" lon="6.73673">
        <ele>2262</ele>
        <time>2020-01-08T10:20:03.000Z</time>
      </trkpt>
      <trkpt lat="45.65992" lon="6.73669">
        <ele>2262.3999023438</ele>
        <time>2020-01-08T10:20:12.000Z</time>
      </trkpt>
      <trkpt lat="45.65996" lon="6.73665">
        <ele>2262.6000976562</ele>
        <time>2020-01-08T10:20:19.000Z</time>
      </trkpt>
      <trkpt lat="45.66001" lon="6.7366">
        <ele>2262.3999023438</ele>
        <time>2020-01-08T10:20:24.000Z</time>
      </trkpt>
      <trkpt lat="45.66003" lon="6.73656">
        <ele>2263</ele>
        <time>2020-01-08T10:20:28.000Z</time>
      </trkpt>
      <trkpt lat="45.66" lon="6.73649">
        <ele>2263</ele>
        <time>2020-01-08T10:20:35.000Z</time>
      </trkpt>
      <trkpt lat="45.65999" lon="6.73643">
        <ele>2263.3999023438</ele>
        <time>2020-01-08T10:20:41.000Z</time>
      </trkpt>
      <trkpt lat="45.65999" lon="6.73641">
        <ele>2263.8000488281</ele>
        <time>2020-01-08T10:20:48.000Z</time>
      </trkpt>
      <trkpt lat="45.65999" lon="6.73639">
        <ele>2264.6000976562</ele>
        <time>2020-01-08T10:20:53.000Z</time>
      </trkpt>
      <trkpt lat="45.65999" lon="6.73636">
        <ele>2265.1999511719</ele>
        <time>2020-01-08T10:20:55.000Z</time>
      </trkpt>
      <trkpt lat="45.66" lon="6.73635">
        <ele>2265.6000976562</ele>
        <time>2020-01-08T10:20:57.000Z</time>
      </trkpt>
      <trkpt lat="45.66001" lon="6.73635">
        <ele>2266</ele>
        <time>2020-01-08T10:21:00.000Z</time>
      </trkpt>
      <trkpt lat="45.66001" lon="6.73635">
        <ele>2266.8000488281</ele>
        <time>2020-01-08T10:21:05.000Z</time>
      </trkpt>
      <trkpt lat="45.66001" lon="6.73635">
        <ele>2267.1999511719</ele>
        <time>2020-01-08T10:21:07.000Z</time>
      </trkpt>
      <trkpt lat="45.66001" lon="6.73635">
        <ele>2267</ele>
        <time>2020-01-08T10:21:26.000Z</time>
      </trkpt>
      <trkpt lat="45.66003" lon="6.73637">
        <ele>2267</ele>
        <time>2020-01-08T10:21:34.000Z</time>
      </trkpt>
      <trkpt lat="45.66008" lon="6.73633">
        <ele>2267.8000488281</ele>
        <time>2020-01-08T10:21:40.000Z</time>
      </trkpt>
      <trkpt lat="45.66008" lon="6.73632">
        <ele>2268</ele>
        <time>2020-01-08T10:21:41.000Z</time>
      </trkpt>
      <trkpt lat="45.6601" lon="6.73631">
        <ele>2268.1999511719</ele>
        <time>2020-01-08T10:21:42.000Z</time>
      </trkpt>
      <trkpt lat="45.66011" lon="6.73628">
        <ele>2268.8000488281</ele>
        <time>2020-01-08T10:21:44.000Z</time>
      </trkpt>
      <trkpt lat="45.66011" lon="6.73627">
        <ele>2269</ele>
        <time>2020-01-08T10:21:45.000Z</time>
      </trkpt>
      <trkpt lat="45.66008" lon="6.73622">
        <ele>2270</ele>
        <time>2020-01-08T10:21:50.000Z</time>
      </trkpt>
      <trkpt lat="45.66007" lon="6.73621">
        <ele>2270.1999511719</ele>
        <time>2020-01-08T10:21:51.000Z</time>
      </trkpt>
      <trkpt lat="45.66006" lon="6.73617">
        <ele>2271</ele>
        <time>2020-01-08T10:21:55.000Z</time>
      </trkpt>
      <trkpt lat="45.66006" lon="6.73616">
        <ele>2271.1999511719</ele>
        <time>2020-01-08T10:21:56.000Z</time>
      </trkpt>
      <trkpt lat="45.66007" lon="6.73609">
        <ele>2271.8000488281</ele>
        <time>2020-01-08T10:22:01.000Z</time>
      </trkpt>
      <trkpt lat="45.66005" lon="6.73607">
        <ele>2272</ele>
        <time>2020-01-08T10:22:05.000Z</time>
      </trkpt>
      <trkpt lat="45.66005" lon="6.73607">
        <ele>2272.1999511719</ele>
        <time>2020-01-08T10:22:06.000Z</time>
      </trkpt>
      <trkpt lat="45.66003" lon="6.73604">
        <ele>2273.3999023438</ele>
        <time>2020-01-08T10:22:09.000Z</time>
      </trkpt>
      <trkpt lat="45.66003" lon="6.73602">
        <ele>2273.8000488281</ele>
        <time>2020-01-08T10:22:11.000Z</time>
      </trkpt>
      <trkpt lat="45.66003" lon="6.73599">
        <ele>2274.6000976562</ele>
        <time>2020-01-08T10:22:16.000Z</time>
      </trkpt>
      <trkpt lat="45.66003" lon="6.73593">
        <ele>2275</ele>
        <time>2020-01-08T10:22:21.000Z</time>
      </trkpt>
      <trkpt lat="45.66004" lon="6.7359">
        <ele>2275.8000488281</ele>
        <time>2020-01-08T10:22:25.000Z</time>
      </trkpt>
      <trkpt lat="45.66004" lon="6.73586">
        <ele>2276.3999023438</ele>
        <time>2020-01-08T10:22:29.000Z</time>
      </trkpt>
      <trkpt lat="45.66005" lon="6.73584">
        <ele>2276.8000488281</ele>
        <time>2020-01-08T10:22:31.000Z</time>
      </trkpt>
      <trkpt lat="45.66005" lon="6.73584">
        <ele>2277.1999511719</ele>
        <time>2020-01-08T10:22:33.000Z</time>
      </trkpt>
      <trkpt lat="45.66005" lon="6.73584">
        <ele>2277.8000488281</ele>
        <time>2020-01-08T10:22:36.000Z</time>
      </trkpt>
      <trkpt lat="45.66005" lon="6.73583">
        <ele>2277.8000488281</ele>
        <time>2020-01-08T10:22:43.000Z</time>
      </trkpt>
      <trkpt lat="45.66005" lon="6.73579">
        <ele>2277.6000976562</ele>
        <time>2020-01-08T10:22:47.000Z</time>
      </trkpt>
      <trkpt lat="45.66005" lon="6.73578">
        <ele>2277.6000976562</ele>
        <time>2020-01-08T10:22:48.000Z</time>
      </trkpt>
      <trkpt lat="45.66005" lon="6.73574">
        <ele>2278.3999023438</ele>
        <time>2020-01-08T10:22:52.000Z</time>
      </trkpt>
      <trkpt lat="45.66005" lon="6.73573">
        <ele>2279</ele>
        <time>2020-01-08T10:22:55.000Z</time>
      </trkpt>
      <trkpt lat="45.66005" lon="6.7357">
        <ele>2279</ele>
        <time>2020-01-08T10:22:57.000Z</time>
      </trkpt>
      <trkpt lat="45.66005" lon="6.7357">
        <ele>2279.1999511719</ele>
        <time>2020-01-08T10:22:58.000Z</time>
      </trkpt>
      <trkpt lat="45.66005" lon="6.73565">
        <ele>2279</ele>
        <time>2020-01-08T10:23:02.000Z</time>
      </trkpt>
      <trkpt lat="45.66005" lon="6.73565">
        <ele>2279.3999023438</ele>
        <time>2020-01-08T10:23:03.000Z</time>
      </trkpt>
      <trkpt lat="45.66004" lon="6.73561">
        <ele>2280.1999511719</ele>
        <time>2020-01-08T10:23:06.000Z</time>
      </trkpt>
      <trkpt lat="45.66004" lon="6.7356">
        <ele>2280.6000976562</ele>
        <time>2020-01-08T10:23:08.000Z</time>
      </trkpt>
      <trkpt lat="45.66004" lon="6.73557">
        <ele>2281</ele>
        <time>2020-01-08T10:23:12.000Z</time>
      </trkpt>
      <trkpt lat="45.66004" lon="6.73558">
        <ele>2281.1999511719</ele>
        <time>2020-01-08T10:23:15.000Z</time>
      </trkpt>
      <trkpt lat="45.66005" lon="6.73559">
        <ele>2282</ele>
        <time>2020-01-08T10:23:18.000Z</time>
      </trkpt>
      <trkpt lat="45.66006" lon="6.73559">
        <ele>2282.3999023438</ele>
        <time>2020-01-08T10:23:19.000Z</time>
      </trkpt>
      <trkpt lat="45.66008" lon="6.73561">
        <ele>2282.8000488281</ele>
        <time>2020-01-08T10:23:22.000Z</time>
      </trkpt>
      <trkpt lat="45.66008" lon="6.73561">
        <ele>2283.3999023438</ele>
        <time>2020-01-08T10:23:25.000Z</time>
      </trkpt>
      <trkpt lat="45.66009" lon="6.73561">
        <ele>2284</ele>
        <time>2020-01-08T10:23:29.000Z</time>
      </trkpt>
      <trkpt lat="45.66013" lon="6.73564">
        <ele>2284.3999023438</ele>
        <time>2020-01-08T10:23:35.000Z</time>
      </trkpt>
      <trkpt lat="45.66014" lon="6.73564">
        <ele>2284.6000976562</ele>
        <time>2020-01-08T10:23:36.000Z</time>
      </trkpt>
      <trkpt lat="45.66017" lon="6.73565">
        <ele>2285.6000976562</ele>
        <time>2020-01-08T10:23:41.000Z</time>
      </trkpt>
      <trkpt lat="45.6602" lon="6.73568">
        <ele>2286.8000488281</ele>
        <time>2020-01-08T10:23:46.000Z</time>
      </trkpt>
      <trkpt lat="45.66023" lon="6.73569">
        <ele>2287.8000488281</ele>
        <time>2020-01-08T10:23:51.000Z</time>
      </trkpt>
      <trkpt lat="45.66025" lon="6.7357">
        <ele>2288.6000976562</ele>
        <time>2020-01-08T10:23:56.000Z</time>
      </trkpt>
      <trkpt lat="45.66028" lon="6.73571">
        <ele>2289</ele>
        <time>2020-01-08T10:24:01.000Z</time>
      </trkpt>
      <trkpt lat="45.66031" lon="6.73574">
        <ele>2289.8000488281</ele>
        <time>2020-01-08T10:24:05.000Z</time>
      </trkpt>
      <trkpt lat="45.66031" lon="6.73574">
        <ele>2290.1999511719</ele>
        <time>2020-01-08T10:24:06.000Z</time>
      </trkpt>
      <trkpt lat="45.66033" lon="6.73576">
        <ele>2290.8000488281</ele>
        <time>2020-01-08T10:24:09.000Z</time>
      </trkpt>
      <trkpt lat="45.66034" lon="6.73576">
        <ele>2291.3999023438</ele>
        <time>2020-01-08T10:24:11.000Z</time>
      </trkpt>
      <trkpt lat="45.66035" lon="6.73577">
        <ele>2291.8000488281</ele>
        <time>2020-01-08T10:24:13.000Z</time>
      </trkpt>
      <trkpt lat="45.66037" lon="6.73579">
        <ele>2292.3999023438</ele>
        <time>2020-01-08T10:24:17.000Z</time>
      </trkpt>
      <trkpt lat="45.66042" lon="6.73582">
        <ele>2293.1999511719</ele>
        <time>2020-01-08T10:24:23.000Z</time>
      </trkpt>
      <trkpt lat="45.66044" lon="6.73583">
        <ele>2293.6000976562</ele>
        <time>2020-01-08T10:24:26.000Z</time>
      </trkpt>
      <trkpt lat="45.66044" lon="6.73583">
        <ele>2293.6000976562</ele>
        <time>2020-01-08T10:24:27.000Z</time>
      </trkpt>
      <trkpt lat="45.66048" lon="6.73587">
        <ele>2294.6000976562</ele>
        <time>2020-01-08T10:24:32.000Z</time>
      </trkpt>
      <trkpt lat="45.66049" lon="6.73587">
        <ele>2294.8000488281</ele>
        <time>2020-01-08T10:24:33.000Z</time>
      </trkpt>
      <trkpt lat="45.6605" lon="6.73588">
        <ele>2295.6000976562</ele>
        <time>2020-01-08T10:24:36.000Z</time>
      </trkpt>
      <trkpt lat="45.66051" lon="6.7359">
        <ele>2296</ele>
        <time>2020-01-08T10:24:38.000Z</time>
      </trkpt>
      <trkpt lat="45.66053" lon="6.73592">
        <ele>2296.1999511719</ele>
        <time>2020-01-08T10:24:40.000Z</time>
      </trkpt>
      <trkpt lat="45.66054" lon="6.73594">
        <ele>2296.8000488281</ele>
        <time>2020-01-08T10:24:42.000Z</time>
      </trkpt>
      <trkpt lat="45.66056" lon="6.73596">
        <ele>2297.8000488281</ele>
        <time>2020-01-08T10:24:47.000Z</time>
      </trkpt>
      <trkpt lat="45.66057" lon="6.73597">
        <ele>2298</ele>
        <time>2020-01-08T10:24:48.000Z</time>
      </trkpt>
      <trkpt lat="45.6606" lon="6.73599">
        <ele>2298.6000976562</ele>
        <time>2020-01-08T10:24:52.000Z</time>
      </trkpt>
      <trkpt lat="45.66061" lon="6.736">
        <ele>2299.1999511719</ele>
        <time>2020-01-08T10:24:55.000Z</time>
      </trkpt>
      <trkpt lat="45.66062" lon="6.736">
        <ele>2299.6000976562</ele>
        <time>2020-01-08T10:24:56.000Z</time>
      </trkpt>
      <trkpt lat="45.66066" lon="6.73601">
        <ele>2300.1999511719</ele>
        <time>2020-01-08T10:25:00.000Z</time>
      </trkpt>
      <trkpt lat="45.66066" lon="6.73601">
        <ele>2300.3999023438</ele>
        <time>2020-01-08T10:25:01.000Z</time>
      </trkpt>
      <trkpt lat="45.66069" lon="6.73601">
        <ele>2301.1999511719</ele>
        <time>2020-01-08T10:25:05.000Z</time>
      </trkpt>
      <trkpt lat="45.66071" lon="6.736">
        <ele>2301.3999023438</ele>
        <time>2020-01-08T10:25:06.000Z</time>
      </trkpt>
      <trkpt lat="45.66075" lon="6.73595">
        <ele>2302.3999023438</ele>
        <time>2020-01-08T10:25:12.000Z</time>
      </trkpt>
      <trkpt lat="45.66074" lon="6.73594">
        <ele>2302.6000976562</ele>
        <time>2020-01-08T10:25:13.000Z</time>
      </trkpt>
      <trkpt lat="45.66075" lon="6.7359">
        <ele>2303.3999023438</ele>
        <time>2020-01-08T10:25:17.000Z</time>
      </trkpt>
      <trkpt lat="45.66076" lon="6.73587">
        <ele>2304.1999511719</ele>
        <time>2020-01-08T10:25:20.000Z</time>
      </trkpt>
      <trkpt lat="45.66076" lon="6.73584">
        <ele>2304.3999023438</ele>
        <time>2020-01-08T10:25:22.000Z</time>
      </trkpt>
      <trkpt lat="45.66076" lon="6.73581">
        <ele>2305</ele>
        <time>2020-01-08T10:25:25.000Z</time>
      </trkpt>
      <trkpt lat="45.66077" lon="6.73578">
        <ele>2305.6000976562</ele>
        <time>2020-01-08T10:25:29.000Z</time>
      </trkpt>
      <trkpt lat="45.66077" lon="6.73571">
        <ele>2306.1999511719</ele>
        <time>2020-01-08T10:25:35.000Z</time>
      </trkpt>
      <trkpt lat="45.66076" lon="6.7357">
        <ele>2306.6000976562</ele>
        <time>2020-01-08T10:25:37.000Z</time>
      </trkpt>
      <trkpt lat="45.66076" lon="6.73568">
        <ele>2307</ele>
        <time>2020-01-08T10:25:39.000Z</time>
      </trkpt>
      <trkpt lat="45.66075" lon="6.73565">
        <ele>2307.6000976562</ele>
        <time>2020-01-08T10:25:42.000Z</time>
      </trkpt>
      <trkpt lat="45.66075" lon="6.73562">
        <ele>2308.1999511719</ele>
        <time>2020-01-08T10:25:45.000Z</time>
      </trkpt>
      <trkpt lat="45.66075" lon="6.73556">
        <ele>2308.6000976562</ele>
        <time>2020-01-08T10:25:50.000Z</time>
      </trkpt>
      <trkpt lat="45.66074" lon="6.73555">
        <ele>2308.8000488281</ele>
        <time>2020-01-08T10:25:51.000Z</time>
      </trkpt>
      <trkpt lat="45.66074" lon="6.73551">
        <ele>2309.6000976562</ele>
        <time>2020-01-08T10:25:55.000Z</time>
      </trkpt>
      <trkpt lat="45.66073" lon="6.7355">
        <ele>2310</ele>
        <time>2020-01-08T10:25:57.000Z</time>
      </trkpt>
      <trkpt lat="45.66071" lon="6.73545">
        <ele>2310.8000488281</ele>
        <time>2020-01-08T10:26:02.000Z</time>
      </trkpt>
      <trkpt lat="45.66071" lon="6.73544">
        <ele>2311</ele>
        <time>2020-01-08T10:26:03.000Z</time>
      </trkpt>
      <trkpt lat="45.66071" lon="6.7354">
        <ele>2312</ele>
        <time>2020-01-08T10:26:08.000Z</time>
      </trkpt>
      <trkpt lat="45.6607" lon="6.73537">
        <ele>2312.1999511719</ele>
        <time>2020-01-08T10:26:12.000Z</time>
      </trkpt>
      <trkpt lat="45.66069" lon="6.73532">
        <ele>2312.8000488281</ele>
        <time>2020-01-08T10:26:18.000Z</time>
      </trkpt>
      <trkpt lat="45.66069" lon="6.73531">
        <ele>2313</ele>
        <time>2020-01-08T10:26:19.000Z</time>
      </trkpt>
      <trkpt lat="45.66068" lon="6.73528">
        <ele>2313.6000976562</ele>
        <time>2020-01-08T10:26:23.000Z</time>
      </trkpt>
      <trkpt lat="45.66068" lon="6.73528">
        <ele>2314</ele>
        <time>2020-01-08T10:26:26.000Z</time>
      </trkpt>
      <trkpt lat="45.66068" lon="6.73528">
        <ele>2314.3999023438</ele>
        <time>2020-01-08T10:26:35.000Z</time>
      </trkpt>
      <trkpt lat="45.66068" lon="6.73528">
        <ele>2314.6000976562</ele>
        <time>2020-01-08T10:26:47.000Z</time>
      </trkpt>
      <trkpt lat="45.66068" lon="6.73525">
        <ele>2314.6000976562</ele>
        <time>2020-01-08T10:26:54.000Z</time>
      </trkpt>
      <trkpt lat="45.66066" lon="6.73519">
        <ele>2314.6000976562</ele>
        <time>2020-01-08T10:26:59.000Z</time>
      </trkpt>
      <trkpt lat="45.66065" lon="6.73517">
        <ele>2315</ele>
        <time>2020-01-08T10:27:01.000Z</time>
      </trkpt>
      <trkpt lat="45.66064" lon="6.73515">
        <ele>2315.6000976562</ele>
        <time>2020-01-08T10:27:04.000Z</time>
      </trkpt>
      <trkpt lat="45.66063" lon="6.73513">
        <ele>2316.1999511719</ele>
        <time>2020-01-08T10:27:06.000Z</time>
      </trkpt>
      <trkpt lat="45.66062" lon="6.7351">
        <ele>2316.8000488281</ele>
        <time>2020-01-08T10:27:10.000Z</time>
      </trkpt>
      <trkpt lat="45.66062" lon="6.73508">
        <ele>2317.1999511719</ele>
        <time>2020-01-08T10:27:12.000Z</time>
      </trkpt>
      <trkpt lat="45.66062" lon="6.73507">
        <ele>2317.8000488281</ele>
        <time>2020-01-08T10:27:16.000Z</time>
      </trkpt>
      <trkpt lat="45.66062" lon="6.73505">
        <ele>2317.8000488281</ele>
        <time>2020-01-08T10:27:17.000Z</time>
      </trkpt>
      <trkpt lat="45.66062" lon="6.73506">
        <ele>2317.8000488281</ele>
        <time>2020-01-08T10:27:20.000Z</time>
      </trkpt>
      <trkpt lat="45.66063" lon="6.73506">
        <ele>2318.6000976562</ele>
        <time>2020-01-08T10:27:23.000Z</time>
      </trkpt>
      <trkpt lat="45.66065" lon="6.73508">
        <ele>2319</ele>
        <time>2020-01-08T10:27:25.000Z</time>
      </trkpt>
      <trkpt lat="45.66068" lon="6.73511">
        <ele>2319.3999023438</ele>
        <time>2020-01-08T10:27:30.000Z</time>
      </trkpt>
      <trkpt lat="45.66068" lon="6.73511">
        <ele>2319.6000976562</ele>
        <time>2020-01-08T10:27:31.000Z</time>
      </trkpt>
      <trkpt lat="45.66071" lon="6.73512">
        <ele>2320.3999023438</ele>
        <time>2020-01-08T10:27:36.000Z</time>
      </trkpt>
      <trkpt lat="45.66071" lon="6.73512">
        <ele>2320.6000976562</ele>
        <time>2020-01-08T10:27:37.000Z</time>
      </trkpt>
      <trkpt lat="45.66075" lon="6.73514">
        <ele>2321.8000488281</ele>
        <time>2020-01-08T10:27:41.000Z</time>
      </trkpt>
      <trkpt lat="45.66076" lon="6.73513">
        <ele>2322.1999511719</ele>
        <time>2020-01-08T10:27:43.000Z</time>
      </trkpt>
      <trkpt lat="45.66077" lon="6.73514">
        <ele>2322.8000488281</ele>
        <time>2020-01-08T10:27:46.000Z</time>
      </trkpt>
      <trkpt lat="45.6608" lon="6.73515">
        <ele>2323.3999023438</ele>
        <time>2020-01-08T10:27:50.000Z</time>
      </trkpt>
      <trkpt lat="45.66083" lon="6.73516">
        <ele>2324</ele>
        <time>2020-01-08T10:27:53.000Z</time>
      </trkpt>
      <trkpt lat="45.66084" lon="6.73516">
        <ele>2324.1999511719</ele>
        <time>2020-01-08T10:27:55.000Z</time>
      </trkpt>
      <trkpt lat="45.66088" lon="6.73518">
        <ele>2325</ele>
        <time>2020-01-08T10:28:00.000Z</time>
      </trkpt>
      <trkpt lat="45.66093" lon="6.73519">
        <ele>2326</ele>
        <time>2020-01-08T10:28:07.000Z</time>
      </trkpt>
      <trkpt lat="45.66095" lon="6.7352">
        <ele>2327.1999511719</ele>
        <time>2020-01-08T10:28:11.000Z</time>
      </trkpt>
      <trkpt lat="45.66096" lon="6.73521">
        <ele>2327.3999023438</ele>
        <time>2020-01-08T10:28:13.000Z</time>
      </trkpt>
      <trkpt lat="45.66098" lon="6.73522">
        <ele>2328.1999511719</ele>
        <time>2020-01-08T10:28:17.000Z</time>
      </trkpt>
      <trkpt lat="45.66101" lon="6.73523">
        <ele>2329</ele>
        <time>2020-01-08T10:28:22.000Z</time>
      </trkpt>
      <trkpt lat="45.66102" lon="6.73523">
        <ele>2329.1999511719</ele>
        <time>2020-01-08T10:28:23.000Z</time>
      </trkpt>
      <trkpt lat="45.66105" lon="6.73524">
        <ele>2330</ele>
        <time>2020-01-08T10:28:28.000Z</time>
      </trkpt>
      <trkpt lat="45.66106" lon="6.73525">
        <ele>2330.3999023438</ele>
        <time>2020-01-08T10:28:30.000Z</time>
      </trkpt>
      <trkpt lat="45.66107" lon="6.73525">
        <ele>2330.6000976562</ele>
        <time>2020-01-08T10:28:32.000Z</time>
      </trkpt>
      <trkpt lat="45.66109" lon="6.73526">
        <ele>2331.3999023438</ele>
        <time>2020-01-08T10:28:36.000Z</time>
      </trkpt>
      <trkpt lat="45.6611" lon="6.73526">
        <ele>2331.6000976562</ele>
        <time>2020-01-08T10:28:37.000Z</time>
      </trkpt>
      <trkpt lat="45.66112" lon="6.73528">
        <ele>2332.3999023438</ele>
        <time>2020-01-08T10:28:42.000Z</time>
      </trkpt>
      <trkpt lat="45.66114" lon="6.73529">
        <ele>2332.6000976562</ele>
        <time>2020-01-08T10:28:43.000Z</time>
      </trkpt>
      <trkpt lat="45.66116" lon="6.73529">
        <ele>2333.3999023438</ele>
        <time>2020-01-08T10:28:47.000Z</time>
      </trkpt>
      <trkpt lat="45.66116" lon="6.7353">
        <ele>2333.6000976562</ele>
        <time>2020-01-08T10:28:48.000Z</time>
      </trkpt>
      <trkpt lat="45.66118" lon="6.73533">
        <ele>2334.1999511719</ele>
        <time>2020-01-08T10:28:53.000Z</time>
      </trkpt>
      <trkpt lat="45.66118" lon="6.73533">
        <ele>2334.3999023438</ele>
        <time>2020-01-08T10:28:54.000Z</time>
      </trkpt>
      <trkpt lat="45.66122" lon="6.73535">
        <ele>2335.6000976562</ele>
        <time>2020-01-08T10:28:59.000Z</time>
      </trkpt>
      <trkpt lat="45.66123" lon="6.73536">
        <ele>2336.1999511719</ele>
        <time>2020-01-08T10:29:05.000Z</time>
      </trkpt>
      <trkpt lat="45.66127" lon="6.73538">
        <ele>2336.8000488281</ele>
        <time>2020-01-08T10:29:10.000Z</time>
      </trkpt>
      <trkpt lat="45.66129" lon="6.73539">
        <ele>2337.8000488281</ele>
        <time>2020-01-08T10:29:14.000Z</time>
      </trkpt>
      <trkpt lat="45.66132" lon="6.7354">
        <ele>2338.6000976562</ele>
        <time>2020-01-08T10:29:19.000Z</time>
      </trkpt>
      <trkpt lat="45.66133" lon="6.73541">
        <ele>2339</ele>
        <time>2020-01-08T10:29:21.000Z</time>
      </trkpt>
      <trkpt lat="45.66136" lon="6.73542">
        <ele>2339.3999023438</ele>
        <time>2020-01-08T10:29:24.000Z</time>
      </trkpt>
      <trkpt lat="45.66137" lon="6.73543">
        <ele>2340</ele>
        <time>2020-01-08T10:29:28.000Z</time>
      </trkpt>
      <trkpt lat="45.66138" lon="6.73543">
        <ele>2340.1999511719</ele>
        <time>2020-01-08T10:29:29.000Z</time>
      </trkpt>
      <trkpt lat="45.66141" lon="6.73545">
        <ele>2341.1999511719</ele>
        <time>2020-01-08T10:29:34.000Z</time>
      </trkpt>
      <trkpt lat="45.66142" lon="6.73545">
        <ele>2341.3999023438</ele>
        <time>2020-01-08T10:29:35.000Z</time>
      </trkpt>
      <trkpt lat="45.66144" lon="6.73546">
        <ele>2342.1999511719</ele>
        <time>2020-01-08T10:29:40.000Z</time>
      </trkpt>
      <trkpt lat="45.66146" lon="6.73546">
        <ele>2342.8000488281</ele>
        <time>2020-01-08T10:29:43.000Z</time>
      </trkpt>
      <trkpt lat="45.66148" lon="6.73546">
        <ele>2343.3999023438</ele>
        <time>2020-01-08T10:29:45.000Z</time>
      </trkpt>
      <trkpt lat="45.66148" lon="6.73546">
        <ele>2344.1999511719</ele>
        <time>2020-01-08T10:29:51.000Z</time>
      </trkpt>
      <trkpt lat="45.6615" lon="6.73546">
        <ele>2344.1999511719</ele>
        <time>2020-01-08T10:29:57.000Z</time>
      </trkpt>
      <trkpt lat="45.6615" lon="6.73545">
        <ele>2344.3999023438</ele>
        <time>2020-01-08T10:30:01.000Z</time>
      </trkpt>
      <trkpt lat="45.66149" lon="6.73543">
        <ele>2344.6000976562</ele>
        <time>2020-01-08T10:30:02.000Z</time>
      </trkpt>
      <trkpt lat="45.66149" lon="6.73543">
        <ele>2344.6000976562</ele>
        <time>2020-01-08T10:30:03.000Z</time>
      </trkpt>
      <trkpt lat="45.66149" lon="6.7354">
        <ele>2344.6000976562</ele>
        <time>2020-01-08T10:30:04.000Z</time>
      </trkpt>
      <trkpt lat="45.66147" lon="6.73537">
        <ele>2345</ele>
        <time>2020-01-08T10:30:08.000Z</time>
      </trkpt>
      <trkpt lat="45.66148" lon="6.73533">
        <ele>2345.6000976562</ele>
        <time>2020-01-08T10:30:11.000Z</time>
      </trkpt>
      <trkpt lat="45.66147" lon="6.73533">
        <ele>2345.8000488281</ele>
        <time>2020-01-08T10:30:12.000Z</time>
      </trkpt>
      <trkpt lat="45.66146" lon="6.73528">
        <ele>2346.8000488281</ele>
        <time>2020-01-08T10:30:17.000Z</time>
      </trkpt>
      <trkpt lat="45.66146" lon="6.73522">
        <ele>2347.6000976562</ele>
        <time>2020-01-08T10:30:22.000Z</time>
      </trkpt>
      <trkpt lat="45.66145" lon="6.7352">
        <ele>2347.8000488281</ele>
        <time>2020-01-08T10:30:23.000Z</time>
      </trkpt>
      <trkpt lat="45.66144" lon="6.73514">
        <ele>2348.8000488281</ele>
        <time>2020-01-08T10:30:28.000Z</time>
      </trkpt>
      <trkpt lat="45.66144" lon="6.73514">
        <ele>2348.8000488281</ele>
        <time>2020-01-08T10:30:29.000Z</time>
      </trkpt>
      <trkpt lat="45.66145" lon="6.73511">
        <ele>2349.6000976562</ele>
        <time>2020-01-08T10:30:33.000Z</time>
      </trkpt>
      <trkpt lat="45.66145" lon="6.73508">
        <ele>2350.1999511719</ele>
        <time>2020-01-08T10:30:35.000Z</time>
      </trkpt>
      <trkpt lat="45.66146" lon="6.73503">
        <ele>2350.6000976562</ele>
        <time>2020-01-08T10:30:38.000Z</time>
      </trkpt>
      <trkpt lat="45.66145" lon="6.73499">
        <ele>2351.3999023438</ele>
        <time>2020-01-08T10:30:43.000Z</time>
      </trkpt>
      <trkpt lat="45.66143" lon="6.73495">
        <ele>2352.1999511719</ele>
        <time>2020-01-08T10:30:48.000Z</time>
      </trkpt>
      <trkpt lat="45.66142" lon="6.73494">
        <ele>2352.3999023438</ele>
        <time>2020-01-08T10:30:50.000Z</time>
      </trkpt>
      <trkpt lat="45.66142" lon="6.73491">
        <ele>2353</ele>
        <time>2020-01-08T10:30:54.000Z</time>
      </trkpt>
      <trkpt lat="45.66143" lon="6.73486">
        <ele>2353.6000976562</ele>
        <time>2020-01-08T10:30:57.000Z</time>
      </trkpt>
      <trkpt lat="45.66143" lon="6.73483">
        <ele>2354.1999511719</ele>
        <time>2020-01-08T10:31:00.000Z</time>
      </trkpt>
      <trkpt lat="45.66143" lon="6.73479">
        <ele>2354.8000488281</ele>
        <time>2020-01-08T10:31:04.000Z</time>
      </trkpt>
      <trkpt lat="45.66142" lon="6.73474">
        <ele>2355.6000976562</ele>
        <time>2020-01-08T10:31:09.000Z</time>
      </trkpt>
      <trkpt lat="45.66142" lon="6.73474">
        <ele>2355.8000488281</ele>
        <time>2020-01-08T10:31:11.000Z</time>
      </trkpt>
      <trkpt lat="45.66142" lon="6.73471">
        <ele>2356.3999023438</ele>
        <time>2020-01-08T10:31:14.000Z</time>
      </trkpt>
      <trkpt lat="45.66142" lon="6.73468">
        <ele>2356.8000488281</ele>
        <time>2020-01-08T10:31:16.000Z</time>
      </trkpt>
      <trkpt lat="45.66142" lon="6.73465">
        <ele>2357</ele>
        <time>2020-01-08T10:31:18.000Z</time>
      </trkpt>
      <trkpt lat="45.66142" lon="6.73463">
        <ele>2357.1999511719</ele>
        <time>2020-01-08T10:31:20.000Z</time>
      </trkpt>
      <trkpt lat="45.66141" lon="6.73459">
        <ele>2357.8000488281</ele>
        <time>2020-01-08T10:31:23.000Z</time>
      </trkpt>
      <trkpt lat="45.66141" lon="6.73459">
        <ele>2358</ele>
        <time>2020-01-08T10:31:24.000Z</time>
      </trkpt>
      <trkpt lat="45.66141" lon="6.73458">
        <ele>2358</ele>
        <time>2020-01-08T10:31:25.000Z</time>
      </trkpt>
      <trkpt lat="45.6614" lon="6.73454">
        <ele>2359</ele>
        <time>2020-01-08T10:31:30.000Z</time>
      </trkpt>
      <trkpt lat="45.66139" lon="6.73447">
        <ele>2360</ele>
        <time>2020-01-08T10:31:36.000Z</time>
      </trkpt>
      <trkpt lat="45.6614" lon="6.73447">
        <ele>2360.1999511719</ele>
        <time>2020-01-08T10:31:37.000Z</time>
      </trkpt>
      <trkpt lat="45.66138" lon="6.73444">
        <ele>2360.8000488281</ele>
        <time>2020-01-08T10:31:41.000Z</time>
      </trkpt>
      <trkpt lat="45.66138" lon="6.73442">
        <ele>2361.1999511719</ele>
        <time>2020-01-08T10:31:43.000Z</time>
      </trkpt>
      <trkpt lat="45.66138" lon="6.73439">
        <ele>2362</ele>
        <time>2020-01-08T10:31:46.000Z</time>
      </trkpt>
      <trkpt lat="45.66137" lon="6.73437">
        <ele>2362.3999023438</ele>
        <time>2020-01-08T10:31:50.000Z</time>
      </trkpt>
      <trkpt lat="45.66136" lon="6.73436">
        <ele>2362.6000976562</ele>
        <time>2020-01-08T10:31:51.000Z</time>
      </trkpt>
      <trkpt lat="45.66135" lon="6.7343">
        <ele>2363.6000976562</ele>
        <time>2020-01-08T10:31:56.000Z</time>
      </trkpt>
      <trkpt lat="45.66134" lon="6.7343">
        <ele>2363.8000488281</ele>
        <time>2020-01-08T10:31:57.000Z</time>
      </trkpt>
      <trkpt lat="45.66134" lon="6.73426">
        <ele>2364.3999023438</ele>
        <time>2020-01-08T10:32:01.000Z</time>
      </trkpt>
      <trkpt lat="45.66135" lon="6.73424">
        <ele>2364.6000976562</ele>
        <time>2020-01-08T10:32:02.000Z</time>
      </trkpt>
      <trkpt lat="45.66134" lon="6.7342">
        <ele>2365.1999511719</ele>
        <time>2020-01-08T10:32:06.000Z</time>
      </trkpt>
      <trkpt lat="45.66133" lon="6.73414">
        <ele>2365.6000976562</ele>
        <time>2020-01-08T10:32:12.000Z</time>
      </trkpt>
      <trkpt lat="45.66133" lon="6.73414">
        <ele>2365.6000976562</ele>
        <time>2020-01-08T10:32:13.000Z</time>
      </trkpt>
      <trkpt lat="45.66132" lon="6.7341">
        <ele>2366.6000976562</ele>
        <time>2020-01-08T10:32:18.000Z</time>
      </trkpt>
      <trkpt lat="45.66132" lon="6.7341">
        <ele>2366.8000488281</ele>
        <time>2020-01-08T10:32:19.000Z</time>
      </trkpt>
      <trkpt lat="45.6613" lon="6.73407">
        <ele>2368</ele>
        <time>2020-01-08T10:32:24.000Z</time>
      </trkpt>
      <trkpt lat="45.6613" lon="6.73405">
        <ele>2368.1999511719</ele>
        <time>2020-01-08T10:32:25.000Z</time>
      </trkpt>
      <trkpt lat="45.66129" lon="6.73401">
        <ele>2368.8000488281</ele>
        <time>2020-01-08T10:32:29.000Z</time>
      </trkpt>
      <trkpt lat="45.66128" lon="6.734">
        <ele>2369</ele>
        <time>2020-01-08T10:32:31.000Z</time>
      </trkpt>
      <trkpt lat="45.66127" lon="6.73399">
        <ele>2369.3999023438</ele>
        <time>2020-01-08T10:32:33.000Z</time>
      </trkpt>
      <trkpt lat="45.66126" lon="6.73397">
        <ele>2370.1999511719</ele>
        <time>2020-01-08T10:32:37.000Z</time>
      </trkpt>
      <trkpt lat="45.66125" lon="6.73395">
        <ele>2370.6000976562</ele>
        <time>2020-01-08T10:32:39.000Z</time>
      </trkpt>
      <trkpt lat="45.66124" lon="6.73394">
        <ele>2371.3999023438</ele>
        <time>2020-01-08T10:32:42.000Z</time>
      </trkpt>
      <trkpt lat="45.66124" lon="6.73395">
        <ele>2371.6000976562</ele>
        <time>2020-01-08T10:32:45.000Z</time>
      </trkpt>
      <trkpt lat="45.66125" lon="6.73396">
        <ele>2372.3999023438</ele>
        <time>2020-01-08T10:32:51.000Z</time>
      </trkpt>
      <trkpt lat="45.66127" lon="6.73397">
        <ele>2372.3999023438</ele>
        <time>2020-01-08T10:32:52.000Z</time>
      </trkpt>
      <trkpt lat="45.66131" lon="6.73399">
        <ele>2372.8000488281</ele>
        <time>2020-01-08T10:32:58.000Z</time>
      </trkpt>
      <trkpt lat="45.66134" lon="6.73401">
        <ele>2373.6000976562</ele>
        <time>2020-01-08T10:33:02.000Z</time>
      </trkpt>
      <trkpt lat="45.66136" lon="6.73401">
        <ele>2374</ele>
        <time>2020-01-08T10:33:04.000Z</time>
      </trkpt>
      <trkpt lat="45.66137" lon="6.73403">
        <ele>2374.6000976562</ele>
        <time>2020-01-08T10:33:07.000Z</time>
      </trkpt>
      <trkpt lat="45.66139" lon="6.73404">
        <ele>2375</ele>
        <time>2020-01-08T10:33:09.000Z</time>
      </trkpt>
      <trkpt lat="45.6614" lon="6.73405">
        <ele>2375.6000976562</ele>
        <time>2020-01-08T10:33:11.000Z</time>
      </trkpt>
      <trkpt lat="45.66142" lon="6.73406">
        <ele>2376</ele>
        <time>2020-01-08T10:33:14.000Z</time>
      </trkpt>
      <trkpt lat="45.66145" lon="6.73407">
        <ele>2376.8000488281</ele>
        <time>2020-01-08T10:33:19.000Z</time>
      </trkpt>
      <trkpt lat="45.66146" lon="6.73409">
        <ele>2377.8000488281</ele>
        <time>2020-01-08T10:33:24.000Z</time>
      </trkpt>
      <trkpt lat="45.66147" lon="6.7341">
        <ele>2378</ele>
        <time>2020-01-08T10:33:25.000Z</time>
      </trkpt>
      <trkpt lat="45.66149" lon="6.73412">
        <ele>2378.6000976562</ele>
        <time>2020-01-08T10:33:30.000Z</time>
      </trkpt>
      <trkpt lat="45.6615" lon="6.73412">
        <ele>2379</ele>
        <time>2020-01-08T10:33:32.000Z</time>
      </trkpt>
      <trkpt lat="45.66151" lon="6.73413">
        <ele>2379.1999511719</ele>
        <time>2020-01-08T10:33:35.000Z</time>
      </trkpt>
      <trkpt lat="45.66154" lon="6.73415">
        <ele>2380.1999511719</ele>
        <time>2020-01-08T10:33:40.000Z</time>
      </trkpt>
      <trkpt lat="45.66159" lon="6.73418">
        <ele>2380.8000488281</ele>
        <time>2020-01-08T10:33:45.000Z</time>
      </trkpt>
      <trkpt lat="45.66161" lon="6.73419">
        <ele>2381</ele>
        <time>2020-01-08T10:33:47.000Z</time>
      </trkpt>
      <trkpt lat="45.66161" lon="6.73419">
        <ele>2381.1999511719</ele>
        <time>2020-01-08T10:33:48.000Z</time>
      </trkpt>
      <trkpt lat="45.66163" lon="6.7342">
        <ele>2381.8000488281</ele>
        <time>2020-01-08T10:33:52.000Z</time>
      </trkpt>
      <trkpt lat="45.66166" lon="6.73422">
        <ele>2382.1999511719</ele>
        <time>2020-01-08T10:33:57.000Z</time>
      </trkpt>
      <trkpt lat="45.66167" lon="6.73422">
        <ele>2382.3999023438</ele>
        <time>2020-01-08T10:33:58.000Z</time>
      </trkpt>
      <trkpt lat="45.66169" lon="6.73423">
        <ele>2383.3999023438</ele>
        <time>2020-01-08T10:34:04.000Z</time>
      </trkpt>
      <trkpt lat="45.66169" lon="6.73423">
        <ele>2383.6000976562</ele>
        <time>2020-01-08T10:34:05.000Z</time>
      </trkpt>
      <trkpt lat="45.6617" lon="6.73424">
        <ele>2383.8000488281</ele>
        <time>2020-01-08T10:34:08.000Z</time>
      </trkpt>
      <trkpt lat="45.66171" lon="6.73425">
        <ele>2384</ele>
        <time>2020-01-08T10:34:10.000Z</time>
      </trkpt>
      <trkpt lat="45.66174" lon="6.73426">
        <ele>2384.3999023438</ele>
        <time>2020-01-08T10:34:15.000Z</time>
      </trkpt>
      <trkpt lat="45.66175" lon="6.73426">
        <ele>2384.6000976562</ele>
        <time>2020-01-08T10:34:16.000Z</time>
      </trkpt>
      <trkpt lat="45.66176" lon="6.73427">
        <ele>2385.6000976562</ele>
        <time>2020-01-08T10:34:22.000Z</time>
      </trkpt>
      <trkpt lat="45.66178" lon="6.73427">
        <ele>2385.6000976562</ele>
        <time>2020-01-08T10:34:33.000Z</time>
      </trkpt>
      <trkpt lat="45.66178" lon="6.73428">
        <ele>2385.6000976562</ele>
        <time>2020-01-08T10:34:34.000Z</time>
      </trkpt>
      <trkpt lat="45.66182" lon="6.73429">
        <ele>2386.1999511719</ele>
        <time>2020-01-08T10:34:39.000Z</time>
      </trkpt>
      <trkpt lat="45.66184" lon="6.7343">
        <ele>2386.6000976562</ele>
        <time>2020-01-08T10:34:41.000Z</time>
      </trkpt>
      <trkpt lat="45.66186" lon="6.73431">
        <ele>2387.1999511719</ele>
        <time>2020-01-08T10:34:44.000Z</time>
      </trkpt>
      <trkpt lat="45.66189" lon="6.73432">
        <ele>2387.8000488281</ele>
        <time>2020-01-08T10:34:48.000Z</time>
      </trkpt>
      <trkpt lat="45.66192" lon="6.73433">
        <ele>2388.3999023438</ele>
        <time>2020-01-08T10:34:51.000Z</time>
      </trkpt>
      <trkpt lat="45.66193" lon="6.73433">
        <ele>2388.8000488281</ele>
        <time>2020-01-08T10:34:54.000Z</time>
      </trkpt>
      <trkpt lat="45.66194" lon="6.73432">
        <ele>2389.1999511719</ele>
        <time>2020-01-08T10:34:56.000Z</time>
      </trkpt>
      <trkpt lat="45.66196" lon="6.73434">
        <ele>2389.8000488281</ele>
        <time>2020-01-08T10:34:59.000Z</time>
      </trkpt>
      <trkpt lat="45.66199" lon="6.73435">
        <ele>2390.3999023438</ele>
        <time>2020-01-08T10:35:03.000Z</time>
      </trkpt>
      <trkpt lat="45.66201" lon="6.73436">
        <ele>2391</ele>
        <time>2020-01-08T10:35:06.000Z</time>
      </trkpt>
      <trkpt lat="45.66203" lon="6.73436">
        <ele>2391.3999023438</ele>
        <time>2020-01-08T10:35:09.000Z</time>
      </trkpt>
      <trkpt lat="45.66207" lon="6.73436">
        <ele>2392</ele>
        <time>2020-01-08T10:35:13.000Z</time>
      </trkpt>
      <trkpt lat="45.66207" lon="6.73436">
        <ele>2392.1999511719</ele>
        <time>2020-01-08T10:35:14.000Z</time>
      </trkpt>
      <trkpt lat="45.6621" lon="6.73437">
        <ele>2393</ele>
        <time>2020-01-08T10:35:19.000Z</time>
      </trkpt>
      <trkpt lat="45.6621" lon="6.73438">
        <ele>2393</ele>
        <time>2020-01-08T10:35:20.000Z</time>
      </trkpt>
      <trkpt lat="45.66212" lon="6.73438">
        <ele>2394.1999511719</ele>
        <time>2020-01-08T10:35:24.000Z</time>
      </trkpt>
      <trkpt lat="45.66217" lon="6.7344">
        <ele>2395</ele>
        <time>2020-01-08T10:35:30.000Z</time>
      </trkpt>
      <trkpt lat="45.66217" lon="6.73441">
        <ele>2395.1999511719</ele>
        <time>2020-01-08T10:35:31.000Z</time>
      </trkpt>
      <trkpt lat="45.6622" lon="6.73442">
        <ele>2396</ele>
        <time>2020-01-08T10:35:35.000Z</time>
      </trkpt>
      <trkpt lat="45.6622" lon="6.73442">
        <ele>2396.1999511719</ele>
        <time>2020-01-08T10:35:36.000Z</time>
      </trkpt>
      <trkpt lat="45.66223" lon="6.73442">
        <ele>2397.1999511719</ele>
        <time>2020-01-08T10:35:41.000Z</time>
      </trkpt>
      <trkpt lat="45.66224" lon="6.73442">
        <ele>2397.1999511719</ele>
        <time>2020-01-08T10:35:42.000Z</time>
      </trkpt>
      <trkpt lat="45.66227" lon="6.73443">
        <ele>2398.3999023438</ele>
        <time>2020-01-08T10:35:47.000Z</time>
      </trkpt>
      <trkpt lat="45.66231" lon="6.73443">
        <ele>2399.1999511719</ele>
        <time>2020-01-08T10:35:53.000Z</time>
      </trkpt>
      <trkpt lat="45.66232" lon="6.73444">
        <ele>2399.6000976562</ele>
        <time>2020-01-08T10:35:55.000Z</time>
      </trkpt>
      <trkpt lat="45.66232" lon="6.73443">
        <ele>2400.3999023438</ele>
        <time>2020-01-08T10:35:59.000Z</time>
      </trkpt>
      <trkpt lat="45.66232" lon="6.73443">
        <ele>2400.6000976562</ele>
        <time>2020-01-08T10:36:00.000Z</time>
      </trkpt>
      <trkpt lat="45.66231" lon="6.73438">
        <ele>2400.8000488281</ele>
        <time>2020-01-08T10:36:04.000Z</time>
      </trkpt>
      <trkpt lat="45.66227" lon="6.73433">
        <ele>2401.3999023438</ele>
        <time>2020-01-08T10:36:09.000Z</time>
      </trkpt>
      <trkpt lat="45.66228" lon="6.73431">
        <ele>2401.6000976562</ele>
        <time>2020-01-08T10:36:11.000Z</time>
      </trkpt>
      <trkpt lat="45.66226" lon="6.73428">
        <ele>2402.1999511719</ele>
        <time>2020-01-08T10:36:14.000Z</time>
      </trkpt>
      <trkpt lat="45.66226" lon="6.73426">
        <ele>2402.6000976562</ele>
        <time>2020-01-08T10:36:16.000Z</time>
      </trkpt>
      <trkpt lat="45.66225" lon="6.73423">
        <ele>2403.1999511719</ele>
        <time>2020-01-08T10:36:19.000Z</time>
      </trkpt>
      <trkpt lat="45.66223" lon="6.73418">
        <ele>2403.8000488281</ele>
        <time>2020-01-08T10:36:24.000Z</time>
      </trkpt>
      <trkpt lat="45.66223" lon="6.73417">
        <ele>2404.1999511719</ele>
        <time>2020-01-08T10:36:26.000Z</time>
      </trkpt>
      <trkpt lat="45.66221" lon="6.73413">
        <ele>2404.8000488281</ele>
        <time>2020-01-08T10:36:30.000Z</time>
      </trkpt>
      <trkpt lat="45.6622" lon="6.73411">
        <ele>2405</ele>
        <time>2020-01-08T10:36:32.000Z</time>
      </trkpt>
      <trkpt lat="45.66218" lon="6.73406">
        <ele>2405.8000488281</ele>
        <time>2020-01-08T10:36:37.000Z</time>
      </trkpt>
      <trkpt lat="45.66217" lon="6.73404">
        <ele>2405.8000488281</ele>
        <time>2020-01-08T10:36:38.000Z</time>
      </trkpt>
      <trkpt lat="45.66216" lon="6.73401">
        <ele>2406.6000976562</ele>
        <time>2020-01-08T10:36:41.000Z</time>
      </trkpt>
      <trkpt lat="45.66216" lon="6.73399">
        <ele>2407</ele>
        <time>2020-01-08T10:36:43.000Z</time>
      </trkpt>
      <trkpt lat="45.66216" lon="6.73399">
        <ele>2407.1999511719</ele>
        <time>2020-01-08T10:36:46.000Z</time>
      </trkpt>
      <trkpt lat="45.66215" lon="6.73394">
        <ele>2408</ele>
        <time>2020-01-08T10:36:51.000Z</time>
      </trkpt>
      <trkpt lat="45.66215" lon="6.73389">
        <ele>2409.3999023438</ele>
        <time>2020-01-08T10:36:57.000Z</time>
      </trkpt>
      <trkpt lat="45.66214" lon="6.73383">
        <ele>2410</ele>
        <time>2020-01-08T10:37:02.000Z</time>
      </trkpt>
      <trkpt lat="45.66215" lon="6.73382">
        <ele>2410.3999023438</ele>
        <time>2020-01-08T10:37:04.000Z</time>
      </trkpt>
      <trkpt lat="45.66216" lon="6.73378">
        <ele>2410.8000488281</ele>
        <time>2020-01-08T10:37:07.000Z</time>
      </trkpt>
      <trkpt lat="45.66217" lon="6.7338">
        <ele>2411.3999023438</ele>
        <time>2020-01-08T10:37:11.000Z</time>
      </trkpt>
      <trkpt lat="45.66217" lon="6.7338">
        <ele>2411.3999023438</ele>
        <time>2020-01-08T10:37:12.000Z</time>
      </trkpt>
      <trkpt lat="45.6622" lon="6.73383">
        <ele>2412</ele>
        <time>2020-01-08T10:37:17.000Z</time>
      </trkpt>
      <trkpt lat="45.6622" lon="6.73383">
        <ele>2412.1999511719</ele>
        <time>2020-01-08T10:37:18.000Z</time>
      </trkpt>
      <trkpt lat="45.66221" lon="6.73384">
        <ele>2412.6000976562</ele>
        <time>2020-01-08T10:37:21.000Z</time>
      </trkpt>
      <trkpt lat="45.66223" lon="6.73385">
        <ele>2412.8000488281</ele>
        <time>2020-01-08T10:37:23.000Z</time>
      </trkpt>
      <trkpt lat="45.66225" lon="6.73385">
        <ele>2413.8000488281</ele>
        <time>2020-01-08T10:37:28.000Z</time>
      </trkpt>
      <trkpt lat="45.66228" lon="6.73385">
        <ele>2414.6000976562</ele>
        <time>2020-01-08T10:37:33.000Z</time>
      </trkpt>
      <trkpt lat="45.66228" lon="6.73385">
        <ele>2414.8000488281</ele>
        <time>2020-01-08T10:37:34.000Z</time>
      </trkpt>
      <trkpt lat="45.6623" lon="6.73386">
        <ele>2415.3999023438</ele>
        <time>2020-01-08T10:37:38.000Z</time>
      </trkpt>
      <trkpt lat="45.66232" lon="6.73388">
        <ele>2416</ele>
        <time>2020-01-08T10:37:42.000Z</time>
      </trkpt>
      <trkpt lat="45.66235" lon="6.73389">
        <ele>2416.3999023438</ele>
        <time>2020-01-08T10:37:45.000Z</time>
      </trkpt>
      <trkpt lat="45.66237" lon="6.7339">
        <ele>2417</ele>
        <time>2020-01-08T10:37:48.000Z</time>
      </trkpt>
      <trkpt lat="45.66237" lon="6.7339">
        <ele>2417.1999511719</ele>
        <time>2020-01-08T10:37:49.000Z</time>
      </trkpt>
      <trkpt lat="45.66239" lon="6.73392">
        <ele>2418</ele>
        <time>2020-01-08T10:37:54.000Z</time>
      </trkpt>
      <trkpt lat="45.66242" lon="6.73394">
        <ele>2418.8000488281</ele>
        <time>2020-01-08T10:37:58.000Z</time>
      </trkpt>
      <trkpt lat="45.66243" lon="6.73394">
        <ele>2419.1999511719</ele>
        <time>2020-01-08T10:38:00.000Z</time>
      </trkpt>
      <trkpt lat="45.66246" lon="6.73394">
        <ele>2419.6000976562</ele>
        <time>2020-01-08T10:38:04.000Z</time>
      </trkpt>
      <trkpt lat="45.66249" lon="6.73395">
        <ele>2420.3999023438</ele>
        <time>2020-01-08T10:38:08.000Z</time>
      </trkpt>
      <trkpt lat="45.66249" lon="6.73395">
        <ele>2420.3999023438</ele>
        <time>2020-01-08T10:38:09.000Z</time>
      </trkpt>
      <trkpt lat="45.66251" lon="6.73395">
        <ele>2421.3999023438</ele>
        <time>2020-01-08T10:38:14.000Z</time>
      </trkpt>
      <trkpt lat="45.66252" lon="6.73395">
        <ele>2421.6000976562</ele>
        <time>2020-01-08T10:38:15.000Z</time>
      </trkpt>
      <trkpt lat="45.66256" lon="6.73393">
        <ele>2422.6000976562</ele>
        <time>2020-01-08T10:38:19.000Z</time>
      </trkpt>
      <trkpt lat="45.66258" lon="6.73393">
        <ele>2423</ele>
        <time>2020-01-08T10:38:22.000Z</time>
      </trkpt>
      <trkpt lat="45.66259" lon="6.73392">
        <ele>2423.6000976562</ele>
        <time>2020-01-08T10:38:25.000Z</time>
      </trkpt>
      <trkpt lat="45.66261" lon="6.7339">
        <ele>2424.1999511719</ele>
        <time>2020-01-08T10:38:28.000Z</time>
      </trkpt>
      <trkpt lat="45.66263" lon="6.73389">
        <ele>2424.8000488281</ele>
        <time>2020-01-08T10:38:32.000Z</time>
      </trkpt>
      <trkpt lat="45.66264" lon="6.73389">
        <ele>2425.1999511719</ele>
        <time>2020-01-08T10:38:34.000Z</time>
      </trkpt>
      <trkpt lat="45.66266" lon="6.73388">
        <ele>2425.8000488281</ele>
        <time>2020-01-08T10:38:38.000Z</time>
      </trkpt>
      <trkpt lat="45.66266" lon="6.73387">
        <ele>2426.1999511719</ele>
        <time>2020-01-08T10:38:41.000Z</time>
      </trkpt>
      <trkpt lat="45.66266" lon="6.73387">
        <ele>2426.8000488281</ele>
        <time>2020-01-08T10:38:45.000Z</time>
      </trkpt>
      <trkpt lat="45.66265" lon="6.73385">
        <ele>2426.6000976562</ele>
        <time>2020-01-08T10:38:51.000Z</time>
      </trkpt>
      <trkpt lat="45.66264" lon="6.73381">
        <ele>2427.6000976562</ele>
        <time>2020-01-08T10:39:01.000Z</time>
      </trkpt>
      <trkpt lat="45.66262" lon="6.73375">
        <ele>2427.8000488281</ele>
        <time>2020-01-08T10:39:07.000Z</time>
      </trkpt>
      <trkpt lat="45.66261" lon="6.73373">
        <ele>2427.8000488281</ele>
        <time>2020-01-08T10:39:08.000Z</time>
      </trkpt>
      <trkpt lat="45.66261" lon="6.73369">
        <ele>2428.3999023438</ele>
        <time>2020-01-08T10:39:12.000Z</time>
      </trkpt>
      <trkpt lat="45.6626" lon="6.73367">
        <ele>2429</ele>
        <time>2020-01-08T10:39:15.000Z</time>
      </trkpt>
      <trkpt lat="45.66258" lon="6.73366">
        <ele>2429.6000976562</ele>
        <time>2020-01-08T10:39:18.000Z</time>
      </trkpt>
      <trkpt lat="45.66257" lon="6.7336">
        <ele>2430.1999511719</ele>
        <time>2020-01-08T10:39:22.000Z</time>
      </trkpt>
      <trkpt lat="45.66257" lon="6.7336">
        <ele>2430.6000976562</ele>
        <time>2020-01-08T10:39:24.000Z</time>
      </trkpt>
      <trkpt lat="45.66255" lon="6.73357">
        <ele>2431.1999511719</ele>
        <time>2020-01-08T10:39:28.000Z</time>
      </trkpt>
      <trkpt lat="45.66254" lon="6.73355">
        <ele>2431.6000976562</ele>
        <time>2020-01-08T10:39:30.000Z</time>
      </trkpt>
      <trkpt lat="45.66253" lon="6.73349">
        <ele>2432.1999511719</ele>
        <time>2020-01-08T10:39:36.000Z</time>
      </trkpt>
      <trkpt lat="45.66252" lon="6.73349">
        <ele>2432.3999023438</ele>
        <time>2020-01-08T10:39:37.000Z</time>
      </trkpt>
      <trkpt lat="45.66251" lon="6.73344">
        <ele>2433</ele>
        <time>2020-01-08T10:39:41.000Z</time>
      </trkpt>
      <trkpt lat="45.66249" lon="6.73343">
        <ele>2433.3999023438</ele>
        <time>2020-01-08T10:39:44.000Z</time>
      </trkpt>
      <trkpt lat="45.66248" lon="6.73341">
        <ele>2433.6000976562</ele>
        <time>2020-01-08T10:39:45.000Z</time>
      </trkpt>
      <trkpt lat="45.66248" lon="6.73341">
        <ele>2433.8000488281</ele>
        <time>2020-01-08T10:39:46.000Z</time>
      </trkpt>
      <trkpt lat="45.66248" lon="6.73337">
        <ele>2434.6000976562</ele>
        <time>2020-01-08T10:39:50.000Z</time>
      </trkpt>
      <trkpt lat="45.66247" lon="6.73336">
        <ele>2434.8000488281</ele>
        <time>2020-01-08T10:39:51.000Z</time>
      </trkpt>
      <trkpt lat="45.66245" lon="6.73332">
        <ele>2435.6000976562</ele>
        <time>2020-01-08T10:39:57.000Z</time>
      </trkpt>
      <trkpt lat="45.66245" lon="6.73332">
        <ele>2435.8000488281</ele>
        <time>2020-01-08T10:39:58.000Z</time>
      </trkpt>
      <trkpt lat="45.66245" lon="6.7333">
        <ele>2436.1999511719</ele>
        <time>2020-01-08T10:40:04.000Z</time>
      </trkpt>
      <trkpt lat="45.66245" lon="6.73331">
        <ele>2436.8000488281</ele>
        <time>2020-01-08T10:40:08.000Z</time>
      </trkpt>
      <trkpt lat="45.66247" lon="6.73332">
        <ele>2437.6000976562</ele>
        <time>2020-01-08T10:40:10.000Z</time>
      </trkpt>
      <trkpt lat="45.66249" lon="6.73334">
        <ele>2437.8000488281</ele>
        <time>2020-01-08T10:40:13.000Z</time>
      </trkpt>
      <trkpt lat="45.6625" lon="6.73334">
        <ele>2437.8000488281</ele>
        <time>2020-01-08T10:40:15.000Z</time>
      </trkpt>
      <trkpt lat="45.66254" lon="6.73335">
        <ele>2438.6000976562</ele>
        <time>2020-01-08T10:40:20.000Z</time>
      </trkpt>
      <trkpt lat="45.66255" lon="6.73336">
        <ele>2438.8000488281</ele>
        <time>2020-01-08T10:40:22.000Z</time>
      </trkpt>
      <trkpt lat="45.66257" lon="6.73337">
        <ele>2439.6000976562</ele>
        <time>2020-01-08T10:40:25.000Z</time>
      </trkpt>
      <trkpt lat="45.66258" lon="6.73338">
        <ele>2439.8000488281</ele>
        <time>2020-01-08T10:40:27.000Z</time>
      </trkpt>
      <trkpt lat="45.66262" lon="6.73337">
        <ele>2440.8000488281</ele>
        <time>2020-01-08T10:40:32.000Z</time>
      </trkpt>
      <trkpt lat="45.66262" lon="6.73337">
        <ele>2441</ele>
        <time>2020-01-08T10:40:33.000Z</time>
      </trkpt>
      <trkpt lat="45.66266" lon="6.73336">
        <ele>2442</ele>
        <time>2020-01-08T10:40:39.000Z</time>
      </trkpt>
      <trkpt lat="45.66267" lon="6.73336">
        <ele>2442.1999511719</ele>
        <time>2020-01-08T10:40:41.000Z</time>
      </trkpt>
      <trkpt lat="45.66271" lon="6.73337">
        <ele>2442.8000488281</ele>
        <time>2020-01-08T10:40:45.000Z</time>
      </trkpt>
      <trkpt lat="45.66273" lon="6.73337">
        <ele>2443.1999511719</ele>
        <time>2020-01-08T10:40:47.000Z</time>
      </trkpt>
      <trkpt lat="45.66276" lon="6.73338">
        <ele>2444</ele>
        <time>2020-01-08T10:40:51.000Z</time>
      </trkpt>
      <trkpt lat="45.66276" lon="6.73338">
        <ele>2444.1999511719</ele>
        <time>2020-01-08T10:40:53.000Z</time>
      </trkpt>
      <trkpt lat="45.66277" lon="6.73339">
        <ele>2444.8000488281</ele>
        <time>2020-01-08T10:40:57.000Z</time>
      </trkpt>
      <trkpt lat="45.66278" lon="6.73339">
        <ele>2445.1999511719</ele>
        <time>2020-01-08T10:41:00.000Z</time>
      </trkpt>
      <trkpt lat="45.66278" lon="6.73339">
        <ele>2445.6000976562</ele>
        <time>2020-01-08T10:41:03.000Z</time>
      </trkpt>
      <trkpt lat="45.66278" lon="6.73335">
        <ele>2446</ele>
        <time>2020-01-08T10:41:10.000Z</time>
      </trkpt>
      <trkpt lat="45.66277" lon="6.73331">
        <ele>2446.3999023438</ele>
        <time>2020-01-08T10:41:13.000Z</time>
      </trkpt>
      <trkpt lat="45.66276" lon="6.73329">
        <ele>2446.8000488281</ele>
        <time>2020-01-08T10:41:15.000Z</time>
      </trkpt>
      <trkpt lat="45.66275" lon="6.73326">
        <ele>2447.1999511719</ele>
        <time>2020-01-08T10:41:20.000Z</time>
      </trkpt>
      <trkpt lat="45.66275" lon="6.73325">
        <ele>2447.3999023438</ele>
        <time>2020-01-08T10:41:21.000Z</time>
      </trkpt>
      <trkpt lat="45.66273" lon="6.73323">
        <ele>2448</ele>
        <time>2020-01-08T10:41:24.000Z</time>
      </trkpt>
      <trkpt lat="45.66272" lon="6.73322">
        <ele>2448.1999511719</ele>
        <time>2020-01-08T10:41:29.000Z</time>
      </trkpt>
      <trkpt lat="45.66272" lon="6.73322">
        <ele>2448.6000976562</ele>
        <time>2020-01-08T10:41:32.000Z</time>
      </trkpt>
      <trkpt lat="45.66272" lon="6.73322">
        <ele>2449.1999511719</ele>
        <time>2020-01-08T10:41:43.000Z</time>
      </trkpt>
      <trkpt lat="45.66272" lon="6.73322">
        <ele>2449.1999511719</ele>
        <time>2020-01-08T10:42:00.000Z</time>
      </trkpt>
      <trkpt lat="45.66272" lon="6.73322">
        <ele>2449</ele>
        <time>2020-01-08T10:42:16.000Z</time>
      </trkpt>
      <trkpt lat="45.66272" lon="6.73322">
        <ele>2449</ele>
        <time>2020-01-08T10:42:28.000Z</time>
      </trkpt>
      <trkpt lat="45.66272" lon="6.73322">
        <ele>2448.8000488281</ele>
        <time>2020-01-08T10:42:39.000Z</time>
      </trkpt>
      <trkpt lat="45.66272" lon="6.73322">
        <ele>2448.8000488281</ele>
        <time>2020-01-08T10:42:47.000Z</time>
      </trkpt>
      <trkpt lat="45.66272" lon="6.73322">
        <ele>2449</ele>
        <time>2020-01-08T10:42:56.000Z</time>
      </trkpt>
      <trkpt lat="45.66272" lon="6.73322">
        <ele>2448.6000976562</ele>
        <time>2020-01-08T10:43:11.000Z</time>
      </trkpt>
      <trkpt lat="45.66272" lon="6.73322">
        <ele>2449</ele>
        <time>2020-01-08T10:43:26.000Z</time>
      </trkpt>
      <trkpt lat="45.66272" lon="6.73322">
        <ele>2449</ele>
        <time>2020-01-08T10:43:40.000Z</time>
      </trkpt>
      <trkpt lat="45.66272" lon="6.73322">
        <ele>2448.8000488281</ele>
        <time>2020-01-08T10:43:51.000Z</time>
      </trkpt>
      <trkpt lat="45.66272" lon="6.73322">
        <ele>2448.8000488281</ele>
        <time>2020-01-08T10:44:03.000Z</time>
      </trkpt>
      <trkpt lat="45.66272" lon="6.73323">
        <ele>2448.8000488281</ele>
        <time>2020-01-08T10:44:13.000Z</time>
      </trkpt>
      <trkpt lat="45.66272" lon="6.73323">
        <ele>2448.8000488281</ele>
        <time>2020-01-08T10:44:20.000Z</time>
      </trkpt>
      <trkpt lat="45.66272" lon="6.73323">
        <ele>2448.8000488281</ele>
        <time>2020-01-08T10:44:30.000Z</time>
      </trkpt>
      <trkpt lat="45.66274" lon="6.73322">
        <ele>2448.8000488281</ele>
        <time>2020-01-08T10:44:33.000Z</time>
      </trkpt>
      <trkpt lat="45.66277" lon="6.73323">
        <ele>2449.1999511719</ele>
        <time>2020-01-08T10:44:36.000Z</time>
      </trkpt>
      <trkpt lat="45.6628" lon="6.73323">
        <ele>2449.8000488281</ele>
        <time>2020-01-08T10:44:40.000Z</time>
      </trkpt>
      <trkpt lat="45.66281" lon="6.73323">
        <ele>2450.1999511719</ele>
        <time>2020-01-08T10:44:42.000Z</time>
      </trkpt>
      <trkpt lat="45.66284" lon="6.73324">
        <ele>2450.8000488281</ele>
        <time>2020-01-08T10:44:45.000Z</time>
      </trkpt>
      <trkpt lat="45.66285" lon="6.73324">
        <ele>2451.3999023438</ele>
        <time>2020-01-08T10:44:48.000Z</time>
      </trkpt>
      <trkpt lat="45.66285" lon="6.73324">
        <ele>2452</ele>
        <time>2020-01-08T10:44:50.000Z</time>
      </trkpt>
      <trkpt lat="45.66285" lon="6.73324">
        <ele>2452.3999023438</ele>
        <time>2020-01-08T10:44:56.000Z</time>
      </trkpt>
      <trkpt lat="45.66287" lon="6.73324">
        <ele>2452.3999023438</ele>
        <time>2020-01-08T10:45:01.000Z</time>
      </trkpt>
      <trkpt lat="45.66285" lon="6.73322">
        <ele>2452.8000488281</ele>
        <time>2020-01-08T10:45:07.000Z</time>
      </trkpt>
      <trkpt lat="45.66284" lon="6.7332">
        <ele>2453</ele>
        <time>2020-01-08T10:45:09.000Z</time>
      </trkpt>
      <trkpt lat="45.66283" lon="6.73316">
        <ele>2453.8000488281</ele>
        <time>2020-01-08T10:45:13.000Z</time>
      </trkpt>
      <trkpt lat="45.66283" lon="6.73314">
        <ele>2454.1999511719</ele>
        <time>2020-01-08T10:45:15.000Z</time>
      </trkpt>
      <trkpt lat="45.66283" lon="6.73314">
        <ele>2454.6000976562</ele>
        <time>2020-01-08T10:45:17.000Z</time>
      </trkpt>
      <trkpt lat="45.66282" lon="6.73313">
        <ele>2455.1999511719</ele>
        <time>2020-01-08T10:45:21.000Z</time>
      </trkpt>
      <trkpt lat="45.66282" lon="6.73312">
        <ele>2455.1999511719</ele>
        <time>2020-01-08T10:45:23.000Z</time>
      </trkpt>
      <trkpt lat="45.66282" lon="6.73312">
        <ele>2456.1999511719</ele>
        <time>2020-01-08T10:45:27.000Z</time>
      </trkpt>
      <trkpt lat="45.66283" lon="6.73313">
        <ele>2456.3999023438</ele>
        <time>2020-01-08T10:45:28.000Z</time>
      </trkpt>
      <trkpt lat="45.66287" lon="6.73312">
        <ele>2456.6000976562</ele>
        <time>2020-01-08T10:45:34.000Z</time>
      </trkpt>
      <trkpt lat="45.66288" lon="6.73311">
        <ele>2457.3999023438</ele>
        <time>2020-01-08T10:45:38.000Z</time>
      </trkpt>
      <trkpt lat="45.66289" lon="6.73312">
        <ele>2457.8000488281</ele>
        <time>2020-01-08T10:45:40.000Z</time>
      </trkpt>
      <trkpt lat="45.66292" lon="6.73311">
        <ele>2458.3999023438</ele>
        <time>2020-01-08T10:45:43.000Z</time>
      </trkpt>
      <trkpt lat="45.66293" lon="6.73312">
        <ele>2458.8000488281</ele>
        <time>2020-01-08T10:45:45.000Z</time>
      </trkpt>
      <trkpt lat="45.66295" lon="6.73312">
        <ele>2459.6000976562</ele>
        <time>2020-01-08T10:45:49.000Z</time>
      </trkpt>
      <trkpt lat="45.66295" lon="6.73312">
        <ele>2459.8000488281</ele>
        <time>2020-01-08T10:45:50.000Z</time>
      </trkpt>
      <trkpt lat="45.66296" lon="6.73313">
        <ele>2460.6000976562</ele>
        <time>2020-01-08T10:45:55.000Z</time>
      </trkpt>
      <trkpt lat="45.66296" lon="6.73313">
        <ele>2460.6000976562</ele>
        <time>2020-01-08T10:45:56.000Z</time>
      </trkpt>
      <trkpt lat="45.66295" lon="6.73311">
        <ele>2461</ele>
        <time>2020-01-08T10:46:01.000Z</time>
      </trkpt>
      <trkpt lat="45.66295" lon="6.73307">
        <ele>2461.1999511719</ele>
        <time>2020-01-08T10:46:05.000Z</time>
      </trkpt>
      <trkpt lat="45.66294" lon="6.73306">
        <ele>2461.8000488281</ele>
        <time>2020-01-08T10:46:08.000Z</time>
      </trkpt>
      <trkpt lat="45.66293" lon="6.73304">
        <ele>2462</ele>
        <time>2020-01-08T10:46:10.000Z</time>
      </trkpt>
      <trkpt lat="45.66292" lon="6.733">
        <ele>2462.8000488281</ele>
        <time>2020-01-08T10:46:15.000Z</time>
      </trkpt>
      <trkpt lat="45.66292" lon="6.73299">
        <ele>2463</ele>
        <time>2020-01-08T10:46:16.000Z</time>
      </trkpt>
      <trkpt lat="45.6629" lon="6.73295">
        <ele>2463.8000488281</ele>
        <time>2020-01-08T10:46:21.000Z</time>
      </trkpt>
      <trkpt lat="45.6629" lon="6.73293">
        <ele>2464.1999511719</ele>
        <time>2020-01-08T10:46:24.000Z</time>
      </trkpt>
      <trkpt lat="45.6629" lon="6.73293">
        <ele>2464.1999511719</ele>
        <time>2020-01-08T10:46:25.000Z</time>
      </trkpt>
      <trkpt lat="45.66289" lon="6.73291">
        <ele>2464.6000976562</ele>
        <time>2020-01-08T10:46:29.000Z</time>
      </trkpt>
      <trkpt lat="45.66289" lon="6.73291">
        <ele>2465.1999511719</ele>
        <time>2020-01-08T10:46:33.000Z</time>
      </trkpt>
      <trkpt lat="45.6629" lon="6.73292">
        <ele>2466</ele>
        <time>2020-01-08T10:46:36.000Z</time>
      </trkpt>
      <trkpt lat="45.66294" lon="6.73293">
        <ele>2466</ele>
        <time>2020-01-08T10:46:40.000Z</time>
      </trkpt>
      <trkpt lat="45.66297" lon="6.73294">
        <ele>2466.3999023438</ele>
        <time>2020-01-08T10:46:43.000Z</time>
      </trkpt>
      <trkpt lat="45.66297" lon="6.73294">
        <ele>2466.8000488281</ele>
        <time>2020-01-08T10:46:45.000Z</time>
      </trkpt>
      <trkpt lat="45.663" lon="6.73294">
        <ele>2467.3999023438</ele>
        <time>2020-01-08T10:46:48.000Z</time>
      </trkpt>
      <trkpt lat="45.66301" lon="6.73294">
        <ele>2467.8000488281</ele>
        <time>2020-01-08T10:46:51.000Z</time>
      </trkpt>
      <trkpt lat="45.66302" lon="6.73295">
        <ele>2468.6000976562</ele>
        <time>2020-01-08T10:46:55.000Z</time>
      </trkpt>
      <trkpt lat="45.66302" lon="6.73295">
        <ele>2469</ele>
        <time>2020-01-08T10:46:58.000Z</time>
      </trkpt>
      <trkpt lat="45.66301" lon="6.73295">
        <ele>2469</ele>
        <time>2020-01-08T10:47:06.000Z</time>
      </trkpt>
      <trkpt lat="45.663" lon="6.73293">
        <ele>2469.1999511719</ele>
        <time>2020-01-08T10:47:10.000Z</time>
      </trkpt>
      <trkpt lat="45.663" lon="6.73293">
        <ele>2469.3999023438</ele>
        <time>2020-01-08T10:47:11.000Z</time>
      </trkpt>
      <trkpt lat="45.66299" lon="6.73291">
        <ele>2469.8000488281</ele>
        <time>2020-01-08T10:47:12.000Z</time>
      </trkpt>
      <trkpt lat="45.66298" lon="6.7329">
        <ele>2470.1999511719</ele>
        <time>2020-01-08T10:47:15.000Z</time>
      </trkpt>
      <trkpt lat="45.66297" lon="6.73285">
        <ele>2470.8000488281</ele>
        <time>2020-01-08T10:47:19.000Z</time>
      </trkpt>
      <trkpt lat="45.66297" lon="6.73282">
        <ele>2471</ele>
        <time>2020-01-08T10:47:21.000Z</time>
      </trkpt>
      <trkpt lat="45.66297" lon="6.73282">
        <ele>2471.8000488281</ele>
        <time>2020-01-08T10:47:28.000Z</time>
      </trkpt>
      <trkpt lat="45.66297" lon="6.73282">
        <ele>2472</ele>
        <time>2020-01-08T10:47:29.000Z</time>
      </trkpt>
      <trkpt lat="45.66299" lon="6.73283">
        <ele>2472.8000488281</ele>
        <time>2020-01-08T10:47:34.000Z</time>
      </trkpt>
      <trkpt lat="45.663" lon="6.73284">
        <ele>2473</ele>
        <time>2020-01-08T10:47:35.000Z</time>
      </trkpt>
      <trkpt lat="45.66303" lon="6.73285">
        <ele>2473.1999511719</ele>
        <time>2020-01-08T10:47:40.000Z</time>
      </trkpt>
      <trkpt lat="45.66306" lon="6.73288">
        <ele>2474</ele>
        <time>2020-01-08T10:47:45.000Z</time>
      </trkpt>
      <trkpt lat="45.66306" lon="6.73289">
        <ele>2474.3999023438</ele>
        <time>2020-01-08T10:47:46.000Z</time>
      </trkpt>
      <trkpt lat="45.66307" lon="6.7329">
        <ele>2475</ele>
        <time>2020-01-08T10:47:48.000Z</time>
      </trkpt>
      <trkpt lat="45.66309" lon="6.73292">
        <ele>2475.3999023438</ele>
        <time>2020-01-08T10:47:51.000Z</time>
      </trkpt>
      <trkpt lat="45.66311" lon="6.73294">
        <ele>2475.6000976562</ele>
        <time>2020-01-08T10:47:53.000Z</time>
      </trkpt>
      <trkpt lat="45.66312" lon="6.73295">
        <ele>2476</ele>
        <time>2020-01-08T10:47:55.000Z</time>
      </trkpt>
      <trkpt lat="45.66312" lon="6.73296">
        <ele>2476.1999511719</ele>
        <time>2020-01-08T10:47:56.000Z</time>
      </trkpt>
      <trkpt lat="45.66313" lon="6.73298">
        <ele>2476.8000488281</ele>
        <time>2020-01-08T10:48:01.000Z</time>
      </trkpt>
      <trkpt lat="45.66314" lon="6.733">
        <ele>2477.1999511719</ele>
        <time>2020-01-08T10:48:04.000Z</time>
      </trkpt>
      <trkpt lat="45.66315" lon="6.73302">
        <ele>2477.6000976562</ele>
        <time>2020-01-08T10:48:06.000Z</time>
      </trkpt>
      <trkpt lat="45.66317" lon="6.73304">
        <ele>2478.1999511719</ele>
        <time>2020-01-08T10:48:11.000Z</time>
      </trkpt>
      <trkpt lat="45.66317" lon="6.73304">
        <ele>2478.1999511719</ele>
        <time>2020-01-08T10:48:12.000Z</time>
      </trkpt>
      <trkpt lat="45.66319" lon="6.73305">
        <ele>2478.3999023438</ele>
        <time>2020-01-08T10:48:13.000Z</time>
      </trkpt>
      <trkpt lat="45.6632" lon="6.73305">
        <ele>2478.6000976562</ele>
        <time>2020-01-08T10:48:15.000Z</time>
      </trkpt>
      <trkpt lat="45.66322" lon="6.73306">
        <ele>2479.1999511719</ele>
        <time>2020-01-08T10:48:19.000Z</time>
      </trkpt>
      <trkpt lat="45.66322" lon="6.73307">
        <ele>2479.3999023438</ele>
        <time>2020-01-08T10:48:20.000Z</time>
      </trkpt>
      <trkpt lat="45.66323" lon="6.73307">
        <ele>2480.1999511719</ele>
        <time>2020-01-08T10:48:25.000Z</time>
      </trkpt>
      <trkpt lat="45.66323" lon="6.73307">
        <ele>2480.3999023438</ele>
        <time>2020-01-08T10:48:27.000Z</time>
      </trkpt>
      <trkpt lat="45.66323" lon="6.73304">
        <ele>2480.6000976562</ele>
        <time>2020-01-08T10:48:31.000Z</time>
      </trkpt>
      <trkpt lat="45.66319" lon="6.73298">
        <ele>2481</ele>
        <time>2020-01-08T10:48:37.000Z</time>
      </trkpt>
      <trkpt lat="45.66319" lon="6.73297">
        <ele>2481.3999023438</ele>
        <time>2020-01-08T10:48:40.000Z</time>
      </trkpt>
      <trkpt lat="45.66317" lon="6.73294">
        <ele>2482</ele>
        <time>2020-01-08T10:48:44.000Z</time>
      </trkpt>
      <trkpt lat="45.66317" lon="6.73293">
        <ele>2482.6000976562</ele>
        <time>2020-01-08T10:48:47.000Z</time>
      </trkpt>
      <trkpt lat="45.66316" lon="6.73292">
        <ele>2482.8000488281</ele>
        <time>2020-01-08T10:48:49.000Z</time>
      </trkpt>
      <trkpt lat="45.66316" lon="6.73291">
        <ele>2483.6000976562</ele>
        <time>2020-01-08T10:48:53.000Z</time>
      </trkpt>
      <trkpt lat="45.66316" lon="6.73291">
        <ele>2483.8000488281</ele>
        <time>2020-01-08T10:48:54.000Z</time>
      </trkpt>
      <trkpt lat="45.66316" lon="6.73291">
        <ele>2484</ele>
        <time>2020-01-08T10:49:11.000Z</time>
      </trkpt>
      <trkpt lat="45.66316" lon="6.7329">
        <ele>2484.1999511719</ele>
        <time>2020-01-08T10:49:20.000Z</time>
      </trkpt>
      <trkpt lat="45.66317" lon="6.73286">
        <ele>2484.8000488281</ele>
        <time>2020-01-08T10:49:24.000Z</time>
      </trkpt>
      <trkpt lat="45.66316" lon="6.7328">
        <ele>2485.6000976562</ele>
        <time>2020-01-08T10:49:31.000Z</time>
      </trkpt>
      <trkpt lat="45.66316" lon="6.73278">
        <ele>2486</ele>
        <time>2020-01-08T10:49:33.000Z</time>
      </trkpt>
      <trkpt lat="45.66316" lon="6.73273">
        <ele>2486.8000488281</ele>
        <time>2020-01-08T10:49:37.000Z</time>
      </trkpt>
      <trkpt lat="45.66316" lon="6.73272">
        <ele>2487</ele>
        <time>2020-01-08T10:49:38.000Z</time>
      </trkpt>
      <trkpt lat="45.66315" lon="6.7327">
        <ele>2487.8000488281</ele>
        <time>2020-01-08T10:49:44.000Z</time>
      </trkpt>
      <trkpt lat="45.66315" lon="6.73269">
        <ele>2488.1999511719</ele>
        <time>2020-01-08T10:49:46.000Z</time>
      </trkpt>
      <trkpt lat="45.66315" lon="6.73263">
        <ele>2488.6000976562</ele>
        <time>2020-01-08T10:49:50.000Z</time>
      </trkpt>
      <trkpt lat="45.66315" lon="6.73263">
        <ele>2489.3999023438</ele>
        <time>2020-01-08T10:49:54.000Z</time>
      </trkpt>
      <trkpt lat="45.66314" lon="6.73262">
        <ele>2489.3999023438</ele>
        <time>2020-01-08T10:49:55.000Z</time>
      </trkpt>
      <trkpt lat="45.66314" lon="6.73259">
        <ele>2489.8000488281</ele>
        <time>2020-01-08T10:50:00.000Z</time>
      </trkpt>
      <trkpt lat="45.66313" lon="6.73253">
        <ele>2490.3999023438</ele>
        <time>2020-01-08T10:50:06.000Z</time>
      </trkpt>
      <trkpt lat="45.66313" lon="6.73253">
        <ele>2490.3999023438</ele>
        <time>2020-01-08T10:50:07.000Z</time>
      </trkpt>
      <trkpt lat="45.66313" lon="6.73254">
        <ele>2491.6000976562</ele>
        <time>2020-01-08T10:50:14.000Z</time>
      </trkpt>
      <trkpt lat="45.66313" lon="6.73254">
        <ele>2491.8000488281</ele>
        <time>2020-01-08T10:50:15.000Z</time>
      </trkpt>
      <trkpt lat="45.66318" lon="6.73256">
        <ele>2492.1999511719</ele>
        <time>2020-01-08T10:50:23.000Z</time>
      </trkpt>
      <trkpt lat="45.66319" lon="6.73257">
        <ele>2492.6000976562</ele>
        <time>2020-01-08T10:50:27.000Z</time>
      </trkpt>
      <trkpt lat="45.6632" lon="6.73257">
        <ele>2492.6000976562</ele>
        <time>2020-01-08T10:50:28.000Z</time>
      </trkpt>
      <trkpt lat="45.66323" lon="6.7326">
        <ele>2493.6000976562</ele>
        <time>2020-01-08T10:50:32.000Z</time>
      </trkpt>
      <trkpt lat="45.66323" lon="6.7326">
        <ele>2493.8000488281</ele>
        <time>2020-01-08T10:50:33.000Z</time>
      </trkpt>
      <trkpt lat="45.66325" lon="6.73262">
        <ele>2494.8000488281</ele>
        <time>2020-01-08T10:50:37.000Z</time>
      </trkpt>
      <trkpt lat="45.66326" lon="6.73263">
        <ele>2494.8000488281</ele>
        <time>2020-01-08T10:50:38.000Z</time>
      </trkpt>
      <trkpt lat="45.66328" lon="6.73267">
        <ele>2495.8000488281</ele>
        <time>2020-01-08T10:50:43.000Z</time>
      </trkpt>
      <trkpt lat="45.66328" lon="6.73267">
        <ele>2496</ele>
        <time>2020-01-08T10:50:44.000Z</time>
      </trkpt>
      <trkpt lat="45.66329" lon="6.73269">
        <ele>2496.6000976562</ele>
        <time>2020-01-08T10:50:48.000Z</time>
      </trkpt>
      <trkpt lat="45.6633" lon="6.73271">
        <ele>2497</ele>
        <time>2020-01-08T10:50:52.000Z</time>
      </trkpt>
      <trkpt lat="45.6633" lon="6.73272">
        <ele>2497.1999511719</ele>
        <time>2020-01-08T10:50:53.000Z</time>
      </trkpt>
      <trkpt lat="45.66331" lon="6.73273">
        <ele>2497.8000488281</ele>
        <time>2020-01-08T10:50:57.000Z</time>
      </trkpt>
      <trkpt lat="45.66331" lon="6.73273">
        <ele>2498.1999511719</ele>
        <time>2020-01-08T10:50:58.000Z</time>
      </trkpt>
      <trkpt lat="45.66332" lon="6.73274">
        <ele>2499</ele>
        <time>2020-01-08T10:51:01.000Z</time>
      </trkpt>
      <trkpt lat="45.66332" lon="6.73274">
        <ele>2499.1999511719</ele>
        <time>2020-01-08T10:51:05.000Z</time>
      </trkpt>
      <trkpt lat="45.66332" lon="6.73274">
        <ele>2499.6000976562</ele>
        <time>2020-01-08T10:51:10.000Z</time>
      </trkpt>
      <trkpt lat="45.66333" lon="6.73275">
        <ele>2499.6000976562</ele>
        <time>2020-01-08T10:51:14.000Z</time>
      </trkpt>
      <trkpt lat="45.66333" lon="6.73274">
        <ele>2499.8000488281</ele>
        <time>2020-01-08T10:51:22.000Z</time>
      </trkpt>
      <trkpt lat="45.66333" lon="6.73272">
        <ele>2500.1999511719</ele>
        <time>2020-01-08T10:51:31.000Z</time>
      </trkpt>
      <trkpt lat="45.66331" lon="6.73269">
        <ele>2500.3999023438</ele>
        <time>2020-01-08T10:51:35.000Z</time>
      </trkpt>
      <trkpt lat="45.66331" lon="6.73268">
        <ele>2500.6000976562</ele>
        <time>2020-01-08T10:51:36.000Z</time>
      </trkpt>
      <trkpt lat="45.6633" lon="6.73267">
        <ele>2500.6000976562</ele>
        <time>2020-01-08T10:51:37.000Z</time>
      </trkpt>
      <trkpt lat="45.66331" lon="6.73264">
        <ele>2501</ele>
        <time>2020-01-08T10:51:40.000Z</time>
      </trkpt>
      <trkpt lat="45.66332" lon="6.73262">
        <ele>2501.3999023438</ele>
        <time>2020-01-08T10:51:42.000Z</time>
      </trkpt>
      <trkpt lat="45.66332" lon="6.73259">
        <ele>2502.1999511719</ele>
        <time>2020-01-08T10:51:46.000Z</time>
      </trkpt>
      <trkpt lat="45.66332" lon="6.73258">
        <ele>2502.6000976562</ele>
        <time>2020-01-08T10:51:47.000Z</time>
      </trkpt>
      <trkpt lat="45.66334" lon="6.73254">
        <ele>2503.1999511719</ele>
        <time>2020-01-08T10:51:51.000Z</time>
      </trkpt>
      <trkpt lat="45.66335" lon="6.73252">
        <ele>2503.6000976562</ele>
        <time>2020-01-08T10:51:54.000Z</time>
      </trkpt>
      <trkpt lat="45.66334" lon="6.73251">
        <ele>2503.8000488281</ele>
        <time>2020-01-08T10:51:56.000Z</time>
      </trkpt>
      <trkpt lat="45.66334" lon="6.73246">
        <ele>2504.1999511719</ele>
        <time>2020-01-08T10:52:02.000Z</time>
      </trkpt>
      <trkpt lat="45.66333" lon="6.73242">
        <ele>2504.8000488281</ele>
        <time>2020-01-08T10:52:06.000Z</time>
      </trkpt>
      <trkpt lat="45.66332" lon="6.7324">
        <ele>2505</ele>
        <time>2020-01-08T10:52:08.000Z</time>
      </trkpt>
      <trkpt lat="45.6633" lon="6.73237">
        <ele>2505.8000488281</ele>
        <time>2020-01-08T10:52:12.000Z</time>
      </trkpt>
      <trkpt lat="45.6633" lon="6.73236">
        <ele>2506</ele>
        <time>2020-01-08T10:52:13.000Z</time>
      </trkpt>
      <trkpt lat="45.6633" lon="6.73232">
        <ele>2506.8000488281</ele>
        <time>2020-01-08T10:52:18.000Z</time>
      </trkpt>
      <trkpt lat="45.6633" lon="6.73231">
        <ele>2507</ele>
        <time>2020-01-08T10:52:19.000Z</time>
      </trkpt>
      <trkpt lat="45.66327" lon="6.73227">
        <ele>2507.8000488281</ele>
        <time>2020-01-08T10:52:24.000Z</time>
      </trkpt>
      <trkpt lat="45.66326" lon="6.73226">
        <ele>2508</ele>
        <time>2020-01-08T10:52:26.000Z</time>
      </trkpt>
      <trkpt lat="45.66326" lon="6.73226">
        <ele>2508</ele>
        <time>2020-01-08T10:52:29.000Z</time>
      </trkpt>
      <trkpt lat="45.66326" lon="6.73226">
        <ele>2509</ele>
        <time>2020-01-08T10:52:34.000Z</time>
      </trkpt>
      <trkpt lat="45.66326" lon="6.73226">
        <ele>2509.6000976562</ele>
        <time>2020-01-08T10:52:35.000Z</time>
      </trkpt>
      <trkpt lat="45.66329" lon="6.73229">
        <ele>2509.3999023438</ele>
        <time>2020-01-08T10:52:41.000Z</time>
      </trkpt>
      <trkpt lat="45.66331" lon="6.7323">
        <ele>2509.3999023438</ele>
        <time>2020-01-08T10:52:46.000Z</time>
      </trkpt>
      <trkpt lat="45.66334" lon="6.73232">
        <ele>2510</ele>
        <time>2020-01-08T10:52:50.000Z</time>
      </trkpt>
      <trkpt lat="45.66336" lon="6.73234">
        <ele>2510.3999023438</ele>
        <time>2020-01-08T10:52:52.000Z</time>
      </trkpt>
      <trkpt lat="45.6634" lon="6.73236">
        <ele>2511</ele>
        <time>2020-01-08T10:52:57.000Z</time>
      </trkpt>
      <trkpt lat="45.66343" lon="6.73238">
        <ele>2512</ele>
        <time>2020-01-08T10:53:02.000Z</time>
      </trkpt>
      <trkpt lat="45.66343" lon="6.73239">
        <ele>2512.1999511719</ele>
        <time>2020-01-08T10:53:03.000Z</time>
      </trkpt>
      <trkpt lat="45.66345" lon="6.73241">
        <ele>2513</ele>
        <time>2020-01-08T10:53:08.000Z</time>
      </trkpt>
      <trkpt lat="45.66346" lon="6.73242">
        <ele>2513.1999511719</ele>
        <time>2020-01-08T10:53:10.000Z</time>
      </trkpt>
      <trkpt lat="45.66347" lon="6.73243">
        <ele>2513.8000488281</ele>
        <time>2020-01-08T10:53:13.000Z</time>
      </trkpt>
      <trkpt lat="45.66348" lon="6.73246">
        <ele>2514.3999023438</ele>
        <time>2020-01-08T10:53:16.000Z</time>
      </trkpt>
      <trkpt lat="45.66349" lon="6.73247">
        <ele>2514.8000488281</ele>
        <time>2020-01-08T10:53:19.000Z</time>
      </trkpt>
      <trkpt lat="45.66352" lon="6.73249">
        <ele>2515.3999023438</ele>
        <time>2020-01-08T10:53:23.000Z</time>
      </trkpt>
      <trkpt lat="45.66352" lon="6.73249">
        <ele>2516.6000976562</ele>
        <time>2020-01-08T10:53:28.000Z</time>
      </trkpt>
      <trkpt lat="45.66354" lon="6.73249">
        <ele>2517</ele>
        <time>2020-01-08T10:53:34.000Z</time>
      </trkpt>
      <trkpt lat="45.66354" lon="6.73249">
        <ele>2517.1999511719</ele>
        <time>2020-01-08T10:53:42.000Z</time>
      </trkpt>
      <trkpt lat="45.66351" lon="6.73244">
        <ele>2517.8000488281</ele>
        <time>2020-01-08T10:53:48.000Z</time>
      </trkpt>
      <trkpt lat="45.66351" lon="6.73243">
        <ele>2518</ele>
        <time>2020-01-08T10:53:49.000Z</time>
      </trkpt>
      <trkpt lat="45.66352" lon="6.73239">
        <ele>2518.1999511719</ele>
        <time>2020-01-08T10:53:53.000Z</time>
      </trkpt>
      <trkpt lat="45.66352" lon="6.73236">
        <ele>2518.8000488281</ele>
        <time>2020-01-08T10:53:56.000Z</time>
      </trkpt>
      <trkpt lat="45.66352" lon="6.73232">
        <ele>2519.3999023438</ele>
        <time>2020-01-08T10:53:59.000Z</time>
      </trkpt>
      <trkpt lat="45.66353" lon="6.73227">
        <ele>2519.8000488281</ele>
        <time>2020-01-08T10:54:03.000Z</time>
      </trkpt>
      <trkpt lat="45.66353" lon="6.73225">
        <ele>2520.1999511719</ele>
        <time>2020-01-08T10:54:06.000Z</time>
      </trkpt>
      <trkpt lat="45.66351" lon="6.73222">
        <ele>2521</ele>
        <time>2020-01-08T10:54:10.000Z</time>
      </trkpt>
      <trkpt lat="45.66351" lon="6.73222">
        <ele>2521.3999023438</ele>
        <time>2020-01-08T10:54:11.000Z</time>
      </trkpt>
      <trkpt lat="45.66351" lon="6.73219">
        <ele>2522</ele>
        <time>2020-01-08T10:54:15.000Z</time>
      </trkpt>
      <trkpt lat="45.6635" lon="6.73218">
        <ele>2522.1999511719</ele>
        <time>2020-01-08T10:54:16.000Z</time>
      </trkpt>
      <trkpt lat="45.6635" lon="6.73212">
        <ele>2523</ele>
        <time>2020-01-08T10:54:23.000Z</time>
      </trkpt>
      <trkpt lat="45.6635" lon="6.73211">
        <ele>2523.1999511719</ele>
        <time>2020-01-08T10:54:24.000Z</time>
      </trkpt>
      <trkpt lat="45.66349" lon="6.73208">
        <ele>2523.8000488281</ele>
        <time>2020-01-08T10:54:28.000Z</time>
      </trkpt>
      <trkpt lat="45.66348" lon="6.73203">
        <ele>2524</ele>
        <time>2020-01-08T10:54:34.000Z</time>
      </trkpt>
      <trkpt lat="45.66347" lon="6.73202">
        <ele>2524.1999511719</ele>
        <time>2020-01-08T10:54:35.000Z</time>
      </trkpt>
      <trkpt lat="45.66346" lon="6.73201">
        <ele>2524.1999511719</ele>
        <time>2020-01-08T10:54:36.000Z</time>
      </trkpt>
      <trkpt lat="45.66345" lon="6.73199">
        <ele>2524.6000976562</ele>
        <time>2020-01-08T10:54:39.000Z</time>
      </trkpt>
      <trkpt lat="45.66344" lon="6.73197">
        <ele>2525.1999511719</ele>
        <time>2020-01-08T10:54:43.000Z</time>
      </trkpt>
      <trkpt lat="45.66344" lon="6.73197">
        <ele>2525.1999511719</ele>
        <time>2020-01-08T10:54:44.000Z</time>
      </trkpt>
      <trkpt lat="45.66344" lon="6.73196">
        <ele>2525.6000976562</ele>
        <time>2020-01-08T10:54:48.000Z</time>
      </trkpt>
      <trkpt lat="45.66345" lon="6.73195">
        <ele>2526.3999023438</ele>
        <time>2020-01-08T10:54:53.000Z</time>
      </trkpt>
      <trkpt lat="45.66345" lon="6.73196">
        <ele>2526.8000488281</ele>
        <time>2020-01-08T10:54:55.000Z</time>
      </trkpt>
      <trkpt lat="45.66349" lon="6.73195">
        <ele>2526.8000488281</ele>
        <time>2020-01-08T10:55:01.000Z</time>
      </trkpt>
      <trkpt lat="45.66354" lon="6.73197">
        <ele>2527.3999023438</ele>
        <time>2020-01-08T10:55:07.000Z</time>
      </trkpt>
      <trkpt lat="45.66354" lon="6.73197">
        <ele>2527.3999023438</ele>
        <time>2020-01-08T10:55:08.000Z</time>
      </trkpt>
      <trkpt lat="45.66355" lon="6.73197">
        <ele>2527.6000976562</ele>
        <time>2020-01-08T10:55:09.000Z</time>
      </trkpt>
      <trkpt lat="45.66357" lon="6.73197">
        <ele>2528</ele>
        <time>2020-01-08T10:55:12.000Z</time>
      </trkpt>
      <trkpt lat="45.66357" lon="6.73198">
        <ele>2528.3999023438</ele>
        <time>2020-01-08T10:55:16.000Z</time>
      </trkpt>
      <trkpt lat="45.66357" lon="6.73198">
        <ele>2528.8000488281</ele>
        <time>2020-01-08T10:55:17.000Z</time>
      </trkpt>
      <trkpt lat="45.66357" lon="6.73198">
        <ele>2529.3999023438</ele>
        <time>2020-01-08T10:55:19.000Z</time>
      </trkpt>
      <trkpt lat="45.66357" lon="6.73199">
        <ele>2529.8000488281</ele>
        <time>2020-01-08T10:55:26.000Z</time>
      </trkpt>
      <trkpt lat="45.66358" lon="6.73201">
        <ele>2530</ele>
        <time>2020-01-08T10:55:32.000Z</time>
      </trkpt>
      <trkpt lat="45.6636" lon="6.73205">
        <ele>2530</ele>
        <time>2020-01-08T10:55:37.000Z</time>
      </trkpt>
      <trkpt lat="45.66361" lon="6.73207">
        <ele>2530.6000976562</ele>
        <time>2020-01-08T10:55:40.000Z</time>
      </trkpt>
      <trkpt lat="45.66362" lon="6.7321">
        <ele>2531</ele>
        <time>2020-01-08T10:55:42.000Z</time>
      </trkpt>
      <trkpt lat="45.66363" lon="6.73215">
        <ele>2531.8000488281</ele>
        <time>2020-01-08T10:55:47.000Z</time>
      </trkpt>
      <trkpt lat="45.66363" lon="6.73215">
        <ele>2532</ele>
        <time>2020-01-08T10:55:48.000Z</time>
      </trkpt>
      <trkpt lat="45.66363" lon="6.73217">
        <ele>2533</ele>
        <time>2020-01-08T10:55:53.000Z</time>
      </trkpt>
      <trkpt lat="45.66365" lon="6.7322">
        <ele>2533.3999023438</ele>
        <time>2020-01-08T10:56:00.000Z</time>
      </trkpt>
      <trkpt lat="45.66362" lon="6.73221">
        <ele>2534</ele>
        <time>2020-01-08T10:56:07.000Z</time>
      </trkpt>
      <trkpt lat="45.66361" lon="6.7322">
        <ele>2534</ele>
        <time>2020-01-08T10:56:09.000Z</time>
      </trkpt>
      <trkpt lat="45.66361" lon="6.73218">
        <ele>2534.8000488281</ele>
        <time>2020-01-08T10:56:12.000Z</time>
      </trkpt>
      <trkpt lat="45.66362" lon="6.73217">
        <ele>2535</ele>
        <time>2020-01-08T10:56:14.000Z</time>
      </trkpt>
      <trkpt lat="45.66362" lon="6.73214">
        <ele>2535.3999023438</ele>
        <time>2020-01-08T10:56:17.000Z</time>
      </trkpt>
      <trkpt lat="45.66363" lon="6.7321">
        <ele>2535.8000488281</ele>
        <time>2020-01-08T10:56:21.000Z</time>
      </trkpt>
      <trkpt lat="45.66365" lon="6.73208">
        <ele>2536.1999511719</ele>
        <time>2020-01-08T10:56:23.000Z</time>
      </trkpt>
      <trkpt lat="45.66365" lon="6.73205">
        <ele>2536.6000976562</ele>
        <time>2020-01-08T10:56:27.000Z</time>
      </trkpt>
      <trkpt lat="45.66365" lon="6.73203">
        <ele>2536.8000488281</ele>
        <time>2020-01-08T10:56:28.000Z</time>
      </trkpt>
      <trkpt lat="45.66365" lon="6.732">
        <ele>2537.1999511719</ele>
        <time>2020-01-08T10:56:31.000Z</time>
      </trkpt>
      <trkpt lat="45.66365" lon="6.73197">
        <ele>2537.6000976562</ele>
        <time>2020-01-08T10:56:36.000Z</time>
      </trkpt>
      <trkpt lat="45.66364" lon="6.73195">
        <ele>2538.1999511719</ele>
        <time>2020-01-08T10:56:41.000Z</time>
      </trkpt>
      <trkpt lat="45.66364" lon="6.73195">
        <ele>2538.6000976562</ele>
        <time>2020-01-08T10:56:42.000Z</time>
      </trkpt>
      <trkpt lat="45.66363" lon="6.73193">
        <ele>2538.8000488281</ele>
        <time>2020-01-08T10:56:50.000Z</time>
      </trkpt>
      <trkpt lat="45.66363" lon="6.73191">
        <ele>2538.3999023438</ele>
        <time>2020-01-08T10:56:54.000Z</time>
      </trkpt>
      <trkpt lat="45.66363" lon="6.73191">
        <ele>2539.3999023438</ele>
        <time>2020-01-08T10:57:00.000Z</time>
      </trkpt>
      <trkpt lat="45.66363" lon="6.73191">
        <ele>2539.8000488281</ele>
        <time>2020-01-08T10:57:02.000Z</time>
      </trkpt>
      <trkpt lat="45.66364" lon="6.73192">
        <ele>2539.8000488281</ele>
        <time>2020-01-08T10:57:04.000Z</time>
      </trkpt>
      <trkpt lat="45.66366" lon="6.73193">
        <ele>2539.3999023438</ele>
        <time>2020-01-08T10:57:07.000Z</time>
      </trkpt>
      <trkpt lat="45.66367" lon="6.73195">
        <ele>2539.8000488281</ele>
        <time>2020-01-08T10:57:11.000Z</time>
      </trkpt>
      <trkpt lat="45.66368" lon="6.73195">
        <ele>2540.6000976562</ele>
        <time>2020-01-08T10:57:16.000Z</time>
      </trkpt>
      <trkpt lat="45.6637" lon="6.73198">
        <ele>2541.3999023438</ele>
        <time>2020-01-08T10:57:21.000Z</time>
      </trkpt>
      <trkpt lat="45.6637" lon="6.73199">
        <ele>2541.8000488281</ele>
        <time>2020-01-08T10:57:23.000Z</time>
      </trkpt>
      <trkpt lat="45.66371" lon="6.73201">
        <ele>2542.1999511719</ele>
        <time>2020-01-08T10:57:26.000Z</time>
      </trkpt>
      <trkpt lat="45.66375" lon="6.73204">
        <ele>2543</ele>
        <time>2020-01-08T10:57:31.000Z</time>
      </trkpt>
      <trkpt lat="45.66375" lon="6.73205">
        <ele>2543.1999511719</ele>
        <time>2020-01-08T10:57:32.000Z</time>
      </trkpt>
      <trkpt lat="45.66375" lon="6.73207">
        <ele>2544</ele>
        <time>2020-01-08T10:57:36.000Z</time>
      </trkpt>
      <trkpt lat="45.66377" lon="6.73212">
        <ele>2545</ele>
        <time>2020-01-08T10:57:41.000Z</time>
      </trkpt>
      <trkpt lat="45.6638" lon="6.73217">
        <ele>2546.1999511719</ele>
        <time>2020-01-08T10:57:47.000Z</time>
      </trkpt>
      <trkpt lat="45.66381" lon="6.73219">
        <ele>2547</ele>
        <time>2020-01-08T10:57:52.000Z</time>
      </trkpt>
      <trkpt lat="45.66381" lon="6.73219">
        <ele>2547.1999511719</ele>
        <time>2020-01-08T10:57:53.000Z</time>
      </trkpt>
      <trkpt lat="45.66382" lon="6.73219">
        <ele>2548</ele>
        <time>2020-01-08T10:58:02.000Z</time>
      </trkpt>
      <trkpt lat="45.66383" lon="6.73221">
        <ele>2547.8000488281</ele>
        <time>2020-01-08T10:58:06.000Z</time>
      </trkpt>
      <trkpt lat="45.66385" lon="6.73225">
        <ele>2548.3999023438</ele>
        <time>2020-01-08T10:58:10.000Z</time>
      </trkpt>
      <trkpt lat="45.66385" lon="6.73227">
        <ele>2549</ele>
        <time>2020-01-08T10:58:13.000Z</time>
      </trkpt>
      <trkpt lat="45.66386" lon="6.73228">
        <ele>2549.3999023438</ele>
        <time>2020-01-08T10:58:15.000Z</time>
      </trkpt>
      <trkpt lat="45.66386" lon="6.73229">
        <ele>2549.8000488281</ele>
        <time>2020-01-08T10:58:18.000Z</time>
      </trkpt>
      <trkpt lat="45.66386" lon="6.7323">
        <ele>2550.6000976562</ele>
        <time>2020-01-08T10:58:22.000Z</time>
      </trkpt>
      <trkpt lat="45.66387" lon="6.73231">
        <ele>2551.1999511719</ele>
        <time>2020-01-08T10:58:26.000Z</time>
      </trkpt>
      <trkpt lat="45.66388" lon="6.73231">
        <ele>2551.6000976562</ele>
        <time>2020-01-08T10:58:29.000Z</time>
      </trkpt>
      <trkpt lat="45.66388" lon="6.73229">
        <ele>2551.8000488281</ele>
        <time>2020-01-08T10:58:31.000Z</time>
      </trkpt>
      <trkpt lat="45.66389" lon="6.73226">
        <ele>2552.6000976562</ele>
        <time>2020-01-08T10:58:35.000Z</time>
      </trkpt>
      <trkpt lat="45.66389" lon="6.73225">
        <ele>2552.6000976562</ele>
        <time>2020-01-08T10:58:36.000Z</time>
      </trkpt>
      <trkpt lat="45.66391" lon="6.73219">
        <ele>2553.6000976562</ele>
        <time>2020-01-08T10:58:42.000Z</time>
      </trkpt>
      <trkpt lat="45.66391" lon="6.73218">
        <ele>2553.8000488281</ele>
        <time>2020-01-08T10:58:43.000Z</time>
      </trkpt>
      <trkpt lat="45.66391" lon="6.73216">
        <ele>2554.1999511719</ele>
        <time>2020-01-08T10:58:46.000Z</time>
      </trkpt>
      <trkpt lat="45.66392" lon="6.73214">
        <ele>2554.6000976562</ele>
        <time>2020-01-08T10:58:50.000Z</time>
      </trkpt>
      <trkpt lat="45.66392" lon="6.73213">
        <ele>2554.8000488281</ele>
        <time>2020-01-08T10:58:51.000Z</time>
      </trkpt>
      <trkpt lat="45.66392" lon="6.7321">
        <ele>2555.1999511719</ele>
        <time>2020-01-08T10:58:55.000Z</time>
      </trkpt>
      <trkpt lat="45.66389" lon="6.73206">
        <ele>2556</ele>
        <time>2020-01-08T10:58:59.000Z</time>
      </trkpt>
      <trkpt lat="45.66389" lon="6.73205">
        <ele>2556.1999511719</ele>
        <time>2020-01-08T10:59:00.000Z</time>
      </trkpt>
      <trkpt lat="45.66388" lon="6.732">
        <ele>2557</ele>
        <time>2020-01-08T10:59:06.000Z</time>
      </trkpt>
      <trkpt lat="45.66388" lon="6.73199">
        <ele>2557</ele>
        <time>2020-01-08T10:59:07.000Z</time>
      </trkpt>
      <trkpt lat="45.66389" lon="6.73195">
        <ele>2557.8000488281</ele>
        <time>2020-01-08T10:59:12.000Z</time>
      </trkpt>
      <trkpt lat="45.66389" lon="6.73194">
        <ele>2558</ele>
        <time>2020-01-08T10:59:14.000Z</time>
      </trkpt>
      <trkpt lat="45.6639" lon="6.73192">
        <ele>2558.3999023438</ele>
        <time>2020-01-08T10:59:16.000Z</time>
      </trkpt>
      <trkpt lat="45.66389" lon="6.7319">
        <ele>2558.8000488281</ele>
        <time>2020-01-08T10:59:20.000Z</time>
      </trkpt>
      <trkpt lat="45.66389" lon="6.73189">
        <ele>2559.1999511719</ele>
        <time>2020-01-08T10:59:22.000Z</time>
      </trkpt>
      <trkpt lat="45.66389" lon="6.73187">
        <ele>2559.8000488281</ele>
        <time>2020-01-08T10:59:25.000Z</time>
      </trkpt>
      <trkpt lat="45.66388" lon="6.73182">
        <ele>2560.1999511719</ele>
        <time>2020-01-08T10:59:30.000Z</time>
      </trkpt>
      <trkpt lat="45.66388" lon="6.73179">
        <ele>2560.6000976562</ele>
        <time>2020-01-08T10:59:32.000Z</time>
      </trkpt>
      <trkpt lat="45.66388" lon="6.73175">
        <ele>2561.1999511719</ele>
        <time>2020-01-08T10:59:38.000Z</time>
      </trkpt>
      <trkpt lat="45.66388" lon="6.73174">
        <ele>2561.3999023438</ele>
        <time>2020-01-08T10:59:40.000Z</time>
      </trkpt>
      <trkpt lat="45.66388" lon="6.73172">
        <ele>2561.8000488281</ele>
        <time>2020-01-08T10:59:43.000Z</time>
      </trkpt>
      <trkpt lat="45.66387" lon="6.73169">
        <ele>2562.6000976562</ele>
        <time>2020-01-08T10:59:47.000Z</time>
      </trkpt>
      <trkpt lat="45.66385" lon="6.73166">
        <ele>2562.8000488281</ele>
        <time>2020-01-08T10:59:49.000Z</time>
      </trkpt>
      <trkpt lat="45.66385" lon="6.7316">
        <ele>2563.1999511719</ele>
        <time>2020-01-08T10:59:53.000Z</time>
      </trkpt>
      <trkpt lat="45.66386" lon="6.73158">
        <ele>2563.6000976562</ele>
        <time>2020-01-08T10:59:56.000Z</time>
      </trkpt>
      <trkpt lat="45.66385" lon="6.73157">
        <ele>2563.8000488281</ele>
        <time>2020-01-08T10:59:57.000Z</time>
      </trkpt>
      <trkpt lat="45.6638" lon="6.73149">
        <ele>2564.8000488281</ele>
        <time>2020-01-08T11:00:03.000Z</time>
      </trkpt>
      <trkpt lat="45.66376" lon="6.73144">
        <ele>2565.3999023438</ele>
        <time>2020-01-08T11:00:08.000Z</time>
      </trkpt>
      <trkpt lat="45.66376" lon="6.73142">
        <ele>2566</ele>
        <time>2020-01-08T11:00:11.000Z</time>
      </trkpt>
      <trkpt lat="45.66376" lon="6.73142">
        <ele>2566.3999023438</ele>
        <time>2020-01-08T11:00:13.000Z</time>
      </trkpt>
      <trkpt lat="45.66375" lon="6.7314">
        <ele>2566.8000488281</ele>
        <time>2020-01-08T11:00:20.000Z</time>
      </trkpt>
      <trkpt lat="45.66376" lon="6.73142">
        <ele>2567</ele>
        <time>2020-01-08T11:00:26.000Z</time>
      </trkpt>
      <trkpt lat="45.66378" lon="6.73143">
        <ele>2568</ele>
        <time>2020-01-08T11:00:31.000Z</time>
      </trkpt>
      <trkpt lat="45.66378" lon="6.73143">
        <ele>2568</ele>
        <time>2020-01-08T11:00:32.000Z</time>
      </trkpt>
      <trkpt lat="45.6638" lon="6.73144">
        <ele>2568</ele>
        <time>2020-01-08T11:00:36.000Z</time>
      </trkpt>
      <trkpt lat="45.66381" lon="6.73144">
        <ele>2568.1999511719</ele>
        <time>2020-01-08T11:00:37.000Z</time>
      </trkpt>
      <trkpt lat="45.66383" lon="6.73148">
        <ele>2569</ele>
        <time>2020-01-08T11:00:42.000Z</time>
      </trkpt>
      <trkpt lat="45.66385" lon="6.73149">
        <ele>2569.3999023438</ele>
        <time>2020-01-08T11:00:44.000Z</time>
      </trkpt>
      <trkpt lat="45.66386" lon="6.7315">
        <ele>2569.8000488281</ele>
        <time>2020-01-08T11:00:46.000Z</time>
      </trkpt>
      <trkpt lat="45.66386" lon="6.73151">
        <ele>2570</ele>
        <time>2020-01-08T11:00:47.000Z</time>
      </trkpt>
      <trkpt lat="45.66387" lon="6.73153">
        <ele>2570.3999023438</ele>
        <time>2020-01-08T11:00:49.000Z</time>
      </trkpt>
      <trkpt lat="45.66388" lon="6.73154">
        <ele>2570.8000488281</ele>
        <time>2020-01-08T11:00:51.000Z</time>
      </trkpt>
      <trkpt lat="45.6639" lon="6.73156">
        <ele>2571.1999511719</ele>
        <time>2020-01-08T11:00:54.000Z</time>
      </trkpt>
      <trkpt lat="45.66392" lon="6.73157">
        <ele>2571.3999023438</ele>
        <time>2020-01-08T11:00:56.000Z</time>
      </trkpt>
      <trkpt lat="45.66396" lon="6.73161">
        <ele>2572.3999023438</ele>
        <time>2020-01-08T11:01:01.000Z</time>
      </trkpt>
      <trkpt lat="45.66397" lon="6.73162">
        <ele>2573.3999023438</ele>
        <time>2020-01-08T11:01:06.000Z</time>
      </trkpt>
      <trkpt lat="45.66397" lon="6.73162">
        <ele>2573.6000976562</ele>
        <time>2020-01-08T11:01:07.000Z</time>
      </trkpt>
      <trkpt lat="45.66397" lon="6.73162">
        <ele>2574</ele>
        <time>2020-01-08T11:01:18.000Z</time>
      </trkpt>
      <trkpt lat="45.66397" lon="6.73162">
        <ele>2574</ele>
        <time>2020-01-08T11:01:34.000Z</time>
      </trkpt>
      <trkpt lat="45.66397" lon="6.73163">
        <ele>2574</ele>
        <time>2020-01-08T11:01:50.000Z</time>
      </trkpt>
      <trkpt lat="45.66398" lon="6.73163">
        <ele>2573.8000488281</ele>
        <time>2020-01-08T11:01:56.000Z</time>
      </trkpt>
      <trkpt lat="45.66398" lon="6.73163">
        <ele>2574.3999023438</ele>
        <time>2020-01-08T11:02:06.000Z</time>
      </trkpt>
      <trkpt lat="45.66398" lon="6.73163">
        <ele>2574.6000976562</ele>
        <time>2020-01-08T11:02:19.000Z</time>
      </trkpt>
      <trkpt lat="45.66398" lon="6.73163">
        <ele>2574.8000488281</ele>
        <time>2020-01-08T11:02:24.000Z</time>
      </trkpt>
      <trkpt lat="45.66398" lon="6.73163">
        <ele>2575</ele>
        <time>2020-01-08T11:02:28.000Z</time>
      </trkpt>
      <trkpt lat="45.66398" lon="6.73164">
        <ele>2574.6000976562</ele>
        <time>2020-01-08T11:02:43.000Z</time>
      </trkpt>
      <trkpt lat="45.66397" lon="6.7316">
        <ele>2574.6000976562</ele>
        <time>2020-01-08T11:02:48.000Z</time>
      </trkpt>
      <trkpt lat="45.66398" lon="6.73156">
        <ele>2575</ele>
        <time>2020-01-08T11:02:52.000Z</time>
      </trkpt>
      <trkpt lat="45.66397" lon="6.73152">
        <ele>2575.8000488281</ele>
        <time>2020-01-08T11:02:57.000Z</time>
      </trkpt>
      <trkpt lat="45.66397" lon="6.73151">
        <ele>2576</ele>
        <time>2020-01-08T11:02:58.000Z</time>
      </trkpt>
      <trkpt lat="45.66397" lon="6.73149">
        <ele>2576.3999023438</ele>
        <time>2020-01-08T11:03:00.000Z</time>
      </trkpt>
      <trkpt lat="45.66397" lon="6.73148">
        <ele>2576.6000976562</ele>
        <time>2020-01-08T11:03:02.000Z</time>
      </trkpt>
      <trkpt lat="45.66397" lon="6.73148">
        <ele>2577</ele>
        <time>2020-01-08T11:03:04.000Z</time>
      </trkpt>
      <trkpt lat="45.66397" lon="6.73144">
        <ele>2577.1999511719</ele>
        <time>2020-01-08T11:03:07.000Z</time>
      </trkpt>
      <trkpt lat="45.66397" lon="6.73141">
        <ele>2577.6000976562</ele>
        <time>2020-01-08T11:03:12.000Z</time>
      </trkpt>
      <trkpt lat="45.66396" lon="6.73138">
        <ele>2578</ele>
        <time>2020-01-08T11:03:14.000Z</time>
      </trkpt>
      <trkpt lat="45.66396" lon="6.73135">
        <ele>2578.8000488281</ele>
        <time>2020-01-08T11:03:17.000Z</time>
      </trkpt>
      <trkpt lat="45.66395" lon="6.73131">
        <ele>2579.1999511719</ele>
        <time>2020-01-08T11:03:21.000Z</time>
      </trkpt>
      <trkpt lat="45.66394" lon="6.73131">
        <ele>2580</ele>
        <time>2020-01-08T11:03:25.000Z</time>
      </trkpt>
      <trkpt lat="45.66395" lon="6.73131">
        <ele>2580.3999023438</ele>
        <time>2020-01-08T11:03:28.000Z</time>
      </trkpt>
      <trkpt lat="45.66395" lon="6.73132">
        <ele>2580.8000488281</ele>
        <time>2020-01-08T11:03:30.000Z</time>
      </trkpt>
      <trkpt lat="45.664" lon="6.73136">
        <ele>2581.3999023438</ele>
        <time>2020-01-08T11:03:36.000Z</time>
      </trkpt>
      <trkpt lat="45.664" lon="6.73136">
        <ele>2581.6000976562</ele>
        <time>2020-01-08T11:03:37.000Z</time>
      </trkpt>
      <trkpt lat="45.66402" lon="6.73137">
        <ele>2582</ele>
        <time>2020-01-08T11:03:40.000Z</time>
      </trkpt>
      <trkpt lat="45.66403" lon="6.73137">
        <ele>2582.6000976562</ele>
        <time>2020-01-08T11:03:43.000Z</time>
      </trkpt>
      <trkpt lat="45.66404" lon="6.73138">
        <ele>2583</ele>
        <time>2020-01-08T11:03:45.000Z</time>
      </trkpt>
      <trkpt lat="45.66405" lon="6.73138">
        <ele>2583.1999511719</ele>
        <time>2020-01-08T11:03:46.000Z</time>
      </trkpt>
      <trkpt lat="45.66405" lon="6.73138">
        <ele>2583.6000976562</ele>
        <time>2020-01-08T11:03:47.000Z</time>
      </trkpt>
      <trkpt lat="45.66406" lon="6.73139">
        <ele>2584.1999511719</ele>
        <time>2020-01-08T11:03:50.000Z</time>
      </trkpt>
      <trkpt lat="45.66407" lon="6.7314">
        <ele>2584.8000488281</ele>
        <time>2020-01-08T11:03:52.000Z</time>
      </trkpt>
      <trkpt lat="45.66409" lon="6.7314">
        <ele>2585</ele>
        <time>2020-01-08T11:03:54.000Z</time>
      </trkpt>
      <trkpt lat="45.66412" lon="6.73142">
        <ele>2585.8000488281</ele>
        <time>2020-01-08T11:03:59.000Z</time>
      </trkpt>
      <trkpt lat="45.66413" lon="6.73142">
        <ele>2586</ele>
        <time>2020-01-08T11:04:00.000Z</time>
      </trkpt>
      <trkpt lat="45.66413" lon="6.73143">
        <ele>2586.8000488281</ele>
        <time>2020-01-08T11:04:04.000Z</time>
      </trkpt>
      <trkpt lat="45.66413" lon="6.73143">
        <ele>2587.3999023438</ele>
        <time>2020-01-08T11:04:06.000Z</time>
      </trkpt>
      <trkpt lat="45.66417" lon="6.73145">
        <ele>2587.6000976562</ele>
        <time>2020-01-08T11:04:11.000Z</time>
      </trkpt>
      <trkpt lat="45.66417" lon="6.73146">
        <ele>2587.8000488281</ele>
        <time>2020-01-08T11:04:12.000Z</time>
      </trkpt>
      <trkpt lat="45.66418" lon="6.73146">
        <ele>2588</ele>
        <time>2020-01-08T11:04:13.000Z</time>
      </trkpt>
      <trkpt lat="45.66421" lon="6.73149">
        <ele>2588.8000488281</ele>
        <time>2020-01-08T11:04:17.000Z</time>
      </trkpt>
      <trkpt lat="45.66422" lon="6.73151">
        <ele>2589</ele>
        <time>2020-01-08T11:04:19.000Z</time>
      </trkpt>
      <trkpt lat="45.66422" lon="6.73154">
        <ele>2589.6000976562</ele>
        <time>2020-01-08T11:04:22.000Z</time>
      </trkpt>
      <trkpt lat="45.66422" lon="6.73154">
        <ele>2589.8000488281</ele>
        <time>2020-01-08T11:04:23.000Z</time>
      </trkpt>
      <trkpt lat="45.66422" lon="6.73155">
        <ele>2590.1999511719</ele>
        <time>2020-01-08T11:04:25.000Z</time>
      </trkpt>
      <trkpt lat="45.66423" lon="6.73155">
        <ele>2590.3999023438</ele>
        <time>2020-01-08T11:04:27.000Z</time>
      </trkpt>
      <trkpt lat="45.66425" lon="6.73157">
        <ele>2591.1999511719</ele>
        <time>2020-01-08T11:04:31.000Z</time>
      </trkpt>
      <trkpt lat="45.66428" lon="6.73158">
        <ele>2592.1999511719</ele>
        <time>2020-01-08T11:04:36.000Z</time>
      </trkpt>
      <trkpt lat="45.66429" lon="6.73158">
        <ele>2592.6000976562</ele>
        <time>2020-01-08T11:04:37.000Z</time>
      </trkpt>
      <trkpt lat="45.66432" lon="6.73158">
        <ele>2593.1999511719</ele>
        <time>2020-01-08T11:04:42.000Z</time>
      </trkpt>
      <trkpt lat="45.66433" lon="6.73158">
        <ele>2593.3999023438</ele>
        <time>2020-01-08T11:04:43.000Z</time>
      </trkpt>
      <trkpt lat="45.66436" lon="6.73158">
        <ele>2594.1999511719</ele>
        <time>2020-01-08T11:04:48.000Z</time>
      </trkpt>
      <trkpt lat="45.66437" lon="6.73158">
        <ele>2594.6000976562</ele>
        <time>2020-01-08T11:04:50.000Z</time>
      </trkpt>
      <trkpt lat="45.66439" lon="6.73157">
        <ele>2595</ele>
        <time>2020-01-08T11:04:53.000Z</time>
      </trkpt>
      <trkpt lat="45.66441" lon="6.73158">
        <ele>2595.3999023438</ele>
        <time>2020-01-08T11:04:57.000Z</time>
      </trkpt>
      <trkpt lat="45.66441" lon="6.73158">
        <ele>2595.6000976562</ele>
        <time>2020-01-08T11:04:58.000Z</time>
      </trkpt>
      <trkpt lat="45.66443" lon="6.7316">
        <ele>2596.3999023438</ele>
        <time>2020-01-08T11:05:02.000Z</time>
      </trkpt>
      <trkpt lat="45.66445" lon="6.7316">
        <ele>2596.6000976562</ele>
        <time>2020-01-08T11:05:03.000Z</time>
      </trkpt>
      <trkpt lat="45.66446" lon="6.73161">
        <ele>2596.8000488281</ele>
        <time>2020-01-08T11:05:05.000Z</time>
      </trkpt>
      <trkpt lat="45.66447" lon="6.73161">
        <ele>2597.1999511719</ele>
        <time>2020-01-08T11:05:07.000Z</time>
      </trkpt>
      <trkpt lat="45.66448" lon="6.73162">
        <ele>2597.8000488281</ele>
        <time>2020-01-08T11:05:10.000Z</time>
      </trkpt>
      <trkpt lat="45.66448" lon="6.73162">
        <ele>2598</ele>
        <time>2020-01-08T11:05:11.000Z</time>
      </trkpt>
      <trkpt lat="45.66448" lon="6.7316">
        <ele>2598.6000976562</ele>
        <time>2020-01-08T11:05:19.000Z</time>
      </trkpt>
      <trkpt lat="45.66447" lon="6.73156">
        <ele>2598.6000976562</ele>
        <time>2020-01-08T11:05:24.000Z</time>
      </trkpt>
      <trkpt lat="45.66446" lon="6.73155">
        <ele>2598.8000488281</ele>
        <time>2020-01-08T11:05:25.000Z</time>
      </trkpt>
      <trkpt lat="45.66447" lon="6.73153">
        <ele>2599</ele>
        <time>2020-01-08T11:05:26.000Z</time>
      </trkpt>
      <trkpt lat="45.66446" lon="6.73151">
        <ele>2599.1999511719</ele>
        <time>2020-01-08T11:05:28.000Z</time>
      </trkpt>
      <trkpt lat="45.66445" lon="6.73148">
        <ele>2599.6000976562</ele>
        <time>2020-01-08T11:05:31.000Z</time>
      </trkpt>
      <trkpt lat="45.66445" lon="6.73146">
        <ele>2600</ele>
        <time>2020-01-08T11:05:32.000Z</time>
      </trkpt>
      <trkpt lat="45.66445" lon="6.7314">
        <ele>2601</ele>
        <time>2020-01-08T11:05:37.000Z</time>
      </trkpt>
      <trkpt lat="45.66444" lon="6.73135">
        <ele>2602</ele>
        <time>2020-01-08T11:05:42.000Z</time>
      </trkpt>
      <trkpt lat="45.66441" lon="6.7313">
        <ele>2602.8000488281</ele>
        <time>2020-01-08T11:05:47.000Z</time>
      </trkpt>
      <trkpt lat="45.66441" lon="6.7313">
        <ele>2603.3999023438</ele>
        <time>2020-01-08T11:05:48.000Z</time>
      </trkpt>
      <trkpt lat="45.6644" lon="6.73127">
        <ele>2604.1999511719</ele>
        <time>2020-01-08T11:05:52.000Z</time>
      </trkpt>
      <trkpt lat="45.66439" lon="6.73125">
        <ele>2604.3999023438</ele>
        <time>2020-01-08T11:05:54.000Z</time>
      </trkpt>
      <trkpt lat="45.66438" lon="6.73121">
        <ele>2605</ele>
        <time>2020-01-08T11:05:57.000Z</time>
      </trkpt>
      <trkpt lat="45.66437" lon="6.73119">
        <ele>2605.6000976562</ele>
        <time>2020-01-08T11:06:00.000Z</time>
      </trkpt>
      <trkpt lat="45.66436" lon="6.73117">
        <ele>2606</ele>
        <time>2020-01-08T11:06:02.000Z</time>
      </trkpt>
      <trkpt lat="45.66434" lon="6.73114">
        <ele>2606.6000976562</ele>
        <time>2020-01-08T11:06:07.000Z</time>
      </trkpt>
      <trkpt lat="45.66434" lon="6.73113">
        <ele>2606.8000488281</ele>
        <time>2020-01-08T11:06:08.000Z</time>
      </trkpt>
      <trkpt lat="45.66433" lon="6.73108">
        <ele>2607.8000488281</ele>
        <time>2020-01-08T11:06:12.000Z</time>
      </trkpt>
      <trkpt lat="45.66433" lon="6.73108">
        <ele>2608</ele>
        <time>2020-01-08T11:06:13.000Z</time>
      </trkpt>
      <trkpt lat="45.66433" lon="6.73105">
        <ele>2608.6000976562</ele>
        <time>2020-01-08T11:06:17.000Z</time>
      </trkpt>
      <trkpt lat="45.66432" lon="6.73102">
        <ele>2608.8000488281</ele>
        <time>2020-01-08T11:06:19.000Z</time>
      </trkpt>
      <trkpt lat="45.66432" lon="6.73101">
        <ele>2609.6000976562</ele>
        <time>2020-01-08T11:06:22.000Z</time>
      </trkpt>
      <trkpt lat="45.66432" lon="6.73099">
        <ele>2610</ele>
        <time>2020-01-08T11:06:24.000Z</time>
      </trkpt>
      <trkpt lat="45.66433" lon="6.73095">
        <ele>2610.6000976562</ele>
        <time>2020-01-08T11:06:28.000Z</time>
      </trkpt>
      <trkpt lat="45.66431" lon="6.73091">
        <ele>2611.1999511719</ele>
        <time>2020-01-08T11:06:32.000Z</time>
      </trkpt>
      <trkpt lat="45.66431" lon="6.73089">
        <ele>2611.1999511719</ele>
        <time>2020-01-08T11:06:33.000Z</time>
      </trkpt>
      <trkpt lat="45.6643" lon="6.73083">
        <ele>2612.1999511719</ele>
        <time>2020-01-08T11:06:39.000Z</time>
      </trkpt>
      <trkpt lat="45.66426" lon="6.73079">
        <ele>2612.8000488281</ele>
        <time>2020-01-08T11:06:45.000Z</time>
      </trkpt>
      <trkpt lat="45.66425" lon="6.73078">
        <ele>2613.1999511719</ele>
        <time>2020-01-08T11:06:48.000Z</time>
      </trkpt>
      <trkpt lat="45.66424" lon="6.73077">
        <ele>2613.3999023438</ele>
        <time>2020-01-08T11:06:49.000Z</time>
      </trkpt>
      <trkpt lat="45.66422" lon="6.73074">
        <ele>2613.8000488281</ele>
        <time>2020-01-08T11:06:53.000Z</time>
      </trkpt>
      <trkpt lat="45.6642" lon="6.7307">
        <ele>2614.3999023438</ele>
        <time>2020-01-08T11:06:57.000Z</time>
      </trkpt>
      <trkpt lat="45.6642" lon="6.73069">
        <ele>2614.3999023438</ele>
        <time>2020-01-08T11:06:58.000Z</time>
      </trkpt>
      <trkpt lat="45.66417" lon="6.73065">
        <ele>2615.1999511719</ele>
        <time>2020-01-08T11:07:02.000Z</time>
      </trkpt>
      <trkpt lat="45.66415" lon="6.73062">
        <ele>2615.3999023438</ele>
        <time>2020-01-08T11:07:04.000Z</time>
      </trkpt>
      <trkpt lat="45.66415" lon="6.73061">
        <ele>2615.6000976562</ele>
        <time>2020-01-08T11:07:07.000Z</time>
      </trkpt>
      <trkpt lat="45.66412" lon="6.73057">
        <ele>2616.3999023438</ele>
        <time>2020-01-08T11:07:12.000Z</time>
      </trkpt>
      <trkpt lat="45.6641" lon="6.73055">
        <ele>2617.1999511719</ele>
        <time>2020-01-08T11:07:17.000Z</time>
      </trkpt>
      <trkpt lat="45.66411" lon="6.73054">
        <ele>2617.3999023438</ele>
        <time>2020-01-08T11:07:19.000Z</time>
      </trkpt>
      <trkpt lat="45.66411" lon="6.73052">
        <ele>2617.6000976562</ele>
        <time>2020-01-08T11:07:21.000Z</time>
      </trkpt>
      <trkpt lat="45.66414" lon="6.73051">
        <ele>2618.3999023438</ele>
        <time>2020-01-08T11:07:24.000Z</time>
      </trkpt>
      <trkpt lat="45.66414" lon="6.7305">
        <ele>2618.8000488281</ele>
        <time>2020-01-08T11:07:26.000Z</time>
      </trkpt>
      <trkpt lat="45.66416" lon="6.73047">
        <ele>2619.6000976562</ele>
        <time>2020-01-08T11:07:30.000Z</time>
      </trkpt>
      <trkpt lat="45.66416" lon="6.73046">
        <ele>2620</ele>
        <time>2020-01-08T11:07:31.000Z</time>
      </trkpt>
      <trkpt lat="45.66418" lon="6.73044">
        <ele>2620.6000976562</ele>
        <time>2020-01-08T11:07:35.000Z</time>
      </trkpt>
      <trkpt lat="45.66418" lon="6.73041">
        <ele>2620.8000488281</ele>
        <time>2020-01-08T11:07:37.000Z</time>
      </trkpt>
      <trkpt lat="45.66418" lon="6.73038">
        <ele>2621.6000976562</ele>
        <time>2020-01-08T11:07:41.000Z</time>
      </trkpt>
      <trkpt lat="45.66418" lon="6.73036">
        <ele>2622</ele>
        <time>2020-01-08T11:07:43.000Z</time>
      </trkpt>
      <trkpt lat="45.66418" lon="6.73035">
        <ele>2622.1999511719</ele>
        <time>2020-01-08T11:07:45.000Z</time>
      </trkpt>
      <trkpt lat="45.66417" lon="6.73033">
        <ele>2623</ele>
        <time>2020-01-08T11:07:48.000Z</time>
      </trkpt>
      <trkpt lat="45.66417" lon="6.73032">
        <ele>2623.8000488281</ele>
        <time>2020-01-08T11:07:51.000Z</time>
      </trkpt>
      <trkpt lat="45.66417" lon="6.73032">
        <ele>2624.1999511719</ele>
        <time>2020-01-08T11:07:53.000Z</time>
      </trkpt>
      <trkpt lat="45.66417" lon="6.73031">
        <ele>2624.3999023438</ele>
        <time>2020-01-08T11:07:55.000Z</time>
      </trkpt>
      <trkpt lat="45.66417" lon="6.73031">
        <ele>2625.1999511719</ele>
        <time>2020-01-08T11:08:00.000Z</time>
      </trkpt>
      <trkpt lat="45.66418" lon="6.73031">
        <ele>2625.3999023438</ele>
        <time>2020-01-08T11:08:08.000Z</time>
      </trkpt>
      <trkpt lat="45.6642" lon="6.73024">
        <ele>2625.6000976562</ele>
        <time>2020-01-08T11:08:13.000Z</time>
      </trkpt>
      <trkpt lat="45.6642" lon="6.7302">
        <ele>2626.1999511719</ele>
        <time>2020-01-08T11:08:16.000Z</time>
      </trkpt>
      <trkpt lat="45.6642" lon="6.73017">
        <ele>2627</ele>
        <time>2020-01-08T11:08:19.000Z</time>
      </trkpt>
      <trkpt lat="45.6642" lon="6.73016">
        <ele>2627.3999023438</ele>
        <time>2020-01-08T11:08:21.000Z</time>
      </trkpt>
      <trkpt lat="45.66421" lon="6.73014">
        <ele>2627.6000976562</ele>
        <time>2020-01-08T11:08:22.000Z</time>
      </trkpt>
      <trkpt lat="45.66421" lon="6.73012">
        <ele>2628</ele>
        <time>2020-01-08T11:08:24.000Z</time>
      </trkpt>
      <trkpt lat="45.66421" lon="6.73009">
        <ele>2628.6000976562</ele>
        <time>2020-01-08T11:08:27.000Z</time>
      </trkpt>
      <trkpt lat="45.66421" lon="6.73008">
        <ele>2629</ele>
        <time>2020-01-08T11:08:29.000Z</time>
      </trkpt>
      <trkpt lat="45.66422" lon="6.73006">
        <ele>2629.6000976562</ele>
        <time>2020-01-08T11:08:32.000Z</time>
      </trkpt>
      <trkpt lat="45.66424" lon="6.73002">
        <ele>2630.6000976562</ele>
        <time>2020-01-08T11:08:36.000Z</time>
      </trkpt>
      <trkpt lat="45.66424" lon="6.73001">
        <ele>2630.6000976562</ele>
        <time>2020-01-08T11:08:37.000Z</time>
      </trkpt>
      <trkpt lat="45.66425" lon="6.72998">
        <ele>2631.6000976562</ele>
        <time>2020-01-08T11:08:42.000Z</time>
      </trkpt>
      <trkpt lat="45.66425" lon="6.72997">
        <ele>2632</ele>
        <time>2020-01-08T11:08:43.000Z</time>
      </trkpt>
      <trkpt lat="45.66426" lon="6.72993">
        <ele>2632.8000488281</ele>
        <time>2020-01-08T11:08:47.000Z</time>
      </trkpt>
      <trkpt lat="45.66427" lon="6.72991">
        <ele>2633.1999511719</ele>
        <time>2020-01-08T11:08:49.000Z</time>
      </trkpt>
      <trkpt lat="45.66428" lon="6.72989">
        <ele>2633.6000976562</ele>
        <time>2020-01-08T11:08:52.000Z</time>
      </trkpt>
      <trkpt lat="45.66427" lon="6.72986">
        <ele>2634.3999023438</ele>
        <time>2020-01-08T11:08:55.000Z</time>
      </trkpt>
      <trkpt lat="45.66427" lon="6.72984">
        <ele>2634.8000488281</ele>
        <time>2020-01-08T11:08:57.000Z</time>
      </trkpt>
      <trkpt lat="45.66428" lon="6.7298">
        <ele>2635.6000976562</ele>
        <time>2020-01-08T11:09:00.000Z</time>
      </trkpt>
      <trkpt lat="45.66428" lon="6.7298">
        <ele>2636</ele>
        <time>2020-01-08T11:09:02.000Z</time>
      </trkpt>
      <trkpt lat="45.66428" lon="6.72977">
        <ele>2636.8000488281</ele>
        <time>2020-01-08T11:09:06.000Z</time>
      </trkpt>
      <trkpt lat="45.66429" lon="6.72977">
        <ele>2637</ele>
        <time>2020-01-08T11:09:07.000Z</time>
      </trkpt>
      <trkpt lat="45.6643" lon="6.72975">
        <ele>2637.3999023438</ele>
        <time>2020-01-08T11:09:11.000Z</time>
      </trkpt>
      <trkpt lat="45.66429" lon="6.72974">
        <ele>2637.8000488281</ele>
        <time>2020-01-08T11:09:16.000Z</time>
      </trkpt>
      <trkpt lat="45.6643" lon="6.72974">
        <ele>2638</ele>
        <time>2020-01-08T11:09:17.000Z</time>
      </trkpt>
      <trkpt lat="45.6643" lon="6.72974">
        <ele>2638.8000488281</ele>
        <time>2020-01-08T11:09:21.000Z</time>
      </trkpt>
      <trkpt lat="45.6643" lon="6.72974">
        <ele>2639</ele>
        <time>2020-01-08T11:09:23.000Z</time>
      </trkpt>
      <trkpt lat="45.6643" lon="6.72974">
        <ele>2639</ele>
        <time>2020-01-08T11:09:35.000Z</time>
      </trkpt>
      <trkpt lat="45.66429" lon="6.72974">
        <ele>2639</ele>
        <time>2020-01-08T11:10:00.000Z</time>
      </trkpt>
      <trkpt lat="45.66429" lon="6.72974">
        <ele>2639.1999511719</ele>
        <time>2020-01-08T11:10:14.000Z</time>
      </trkpt>
      <trkpt lat="45.66429" lon="6.72974">
        <ele>2639.1999511719</ele>
        <time>2020-01-08T11:10:28.000Z</time>
      </trkpt>
      <trkpt lat="45.66429" lon="6.72974">
        <ele>2639.1999511719</ele>
        <time>2020-01-08T11:10:46.000Z</time>
      </trkpt>
      <trkpt lat="45.66429" lon="6.72974">
        <ele>2639.1999511719</ele>
        <time>2020-01-08T11:11:04.000Z</time>
      </trkpt>
      <trkpt lat="45.66429" lon="6.72974">
        <ele>2639.1999511719</ele>
        <time>2020-01-08T11:11:22.000Z</time>
      </trkpt>
      <trkpt lat="45.6643" lon="6.72974">
        <ele>2639.1999511719</ele>
        <time>2020-01-08T11:11:30.000Z</time>
      </trkpt>
      <trkpt lat="45.66431" lon="6.72974">
        <ele>2639.1999511719</ele>
        <time>2020-01-08T11:11:31.000Z</time>
      </trkpt>
      <trkpt lat="45.66432" lon="6.72974">
        <ele>2639.6000976562</ele>
        <time>2020-01-08T11:11:34.000Z</time>
      </trkpt>
      <trkpt lat="45.66433" lon="6.72975">
        <ele>2639.8000488281</ele>
        <time>2020-01-08T11:11:37.000Z</time>
      </trkpt>
      <trkpt lat="45.66433" lon="6.72976">
        <ele>2640.1999511719</ele>
        <time>2020-01-08T11:11:40.000Z</time>
      </trkpt>
      <trkpt lat="45.66435" lon="6.72977">
        <ele>2641</ele>
        <time>2020-01-08T11:11:43.000Z</time>
      </trkpt>
      <trkpt lat="45.66436" lon="6.72977">
        <ele>2641.3999023438</ele>
        <time>2020-01-08T11:11:45.000Z</time>
      </trkpt>
      <trkpt lat="45.66439" lon="6.72979">
        <ele>2642</ele>
        <time>2020-01-08T11:11:49.000Z</time>
      </trkpt>
      <trkpt lat="45.66439" lon="6.72979">
        <ele>2642.6000976562</ele>
        <time>2020-01-08T11:11:53.000Z</time>
      </trkpt>
      <trkpt lat="45.6644" lon="6.7298">
        <ele>2643</ele>
        <time>2020-01-08T11:11:55.000Z</time>
      </trkpt>
      <trkpt lat="45.66441" lon="6.72981">
        <ele>2643.8000488281</ele>
        <time>2020-01-08T11:11:58.000Z</time>
      </trkpt>
      <trkpt lat="45.66441" lon="6.72981">
        <ele>2644.1999511719</ele>
        <time>2020-01-08T11:12:00.000Z</time>
      </trkpt>
      <trkpt lat="45.66442" lon="6.72983">
        <ele>2645</ele>
        <time>2020-01-08T11:12:03.000Z</time>
      </trkpt>
      <trkpt lat="45.66443" lon="6.72984">
        <ele>2645.3999023438</ele>
        <time>2020-01-08T11:12:05.000Z</time>
      </trkpt>
      <trkpt lat="45.66443" lon="6.72985">
        <ele>2645.8000488281</ele>
        <time>2020-01-08T11:12:08.000Z</time>
      </trkpt>
      <trkpt lat="45.66445" lon="6.72989">
        <ele>2646.3999023438</ele>
        <time>2020-01-08T11:12:13.000Z</time>
      </trkpt>
      <trkpt lat="45.66446" lon="6.72991">
        <ele>2647.1999511719</ele>
        <time>2020-01-08T11:12:17.000Z</time>
      </trkpt>
      <trkpt lat="45.66447" lon="6.72991">
        <ele>2647.3999023438</ele>
        <time>2020-01-08T11:12:18.000Z</time>
      </trkpt>
      <trkpt lat="45.66447" lon="6.72992">
        <ele>2647.6000976562</ele>
        <time>2020-01-08T11:12:19.000Z</time>
      </trkpt>
      <trkpt lat="45.66448" lon="6.72993">
        <ele>2648.1999511719</ele>
        <time>2020-01-08T11:12:21.000Z</time>
      </trkpt>
      <trkpt lat="45.66449" lon="6.72993">
        <ele>2648.6000976562</ele>
        <time>2020-01-08T11:12:22.000Z</time>
      </trkpt>
      <trkpt lat="45.66449" lon="6.72994">
        <ele>2648.8000488281</ele>
        <time>2020-01-08T11:12:23.000Z</time>
      </trkpt>
      <trkpt lat="45.66452" lon="6.72996">
        <ele>2649</ele>
        <time>2020-01-08T11:12:26.000Z</time>
      </trkpt>
      <trkpt lat="45.66455" lon="6.72999">
        <ele>2650</ele>
        <time>2020-01-08T11:12:31.000Z</time>
      </trkpt>
      <trkpt lat="45.66456" lon="6.72999">
        <ele>2650.1999511719</ele>
        <time>2020-01-08T11:12:32.000Z</time>
      </trkpt>
      <trkpt lat="45.66457" lon="6.73">
        <ele>2651</ele>
        <time>2020-01-08T11:12:36.000Z</time>
      </trkpt>
      <trkpt lat="45.66459" lon="6.73">
        <ele>2651.3999023438</ele>
        <time>2020-01-08T11:12:38.000Z</time>
      </trkpt>
      <trkpt lat="45.66461" lon="6.73001">
        <ele>2652</ele>
        <time>2020-01-08T11:12:43.000Z</time>
      </trkpt>
      <trkpt lat="45.66462" lon="6.73001">
        <ele>2652.1999511719</ele>
        <time>2020-01-08T11:12:44.000Z</time>
      </trkpt>
      <trkpt lat="45.66463" lon="6.73">
        <ele>2652.1999511719</ele>
        <time>2020-01-08T11:12:45.000Z</time>
      </trkpt>
      <trkpt lat="45.66463" lon="6.73">
        <ele>2652.6000976562</ele>
        <time>2020-01-08T11:12:47.000Z</time>
      </trkpt>
      <trkpt lat="45.66465" lon="6.72998">
        <ele>2653.1999511719</ele>
        <time>2020-01-08T11:12:49.000Z</time>
      </trkpt>
      <trkpt lat="45.66465" lon="6.72996">
        <ele>2654</ele>
        <time>2020-01-08T11:12:52.000Z</time>
      </trkpt>
      <trkpt lat="45.66466" lon="6.72992">
        <ele>2654.1999511719</ele>
        <time>2020-01-08T11:12:55.000Z</time>
      </trkpt>
      <trkpt lat="45.66467" lon="6.72991">
        <ele>2654.3999023438</ele>
        <time>2020-01-08T11:12:57.000Z</time>
      </trkpt>
      <trkpt lat="45.66468" lon="6.7299">
        <ele>2655.1999511719</ele>
        <time>2020-01-08T11:13:02.000Z</time>
      </trkpt>
      <trkpt lat="45.66468" lon="6.72989">
        <ele>2655.3999023438</ele>
        <time>2020-01-08T11:13:03.000Z</time>
      </trkpt>
      <trkpt lat="45.66469" lon="6.72984">
        <ele>2656</ele>
        <time>2020-01-08T11:13:08.000Z</time>
      </trkpt>
      <trkpt lat="45.66471" lon="6.72982">
        <ele>2656.3999023438</ele>
        <time>2020-01-08T11:13:10.000Z</time>
      </trkpt>
      <trkpt lat="45.66472" lon="6.72978">
        <ele>2657.3999023438</ele>
        <time>2020-01-08T11:13:15.000Z</time>
      </trkpt>
      <trkpt lat="45.66472" lon="6.72978">
        <ele>2657.3999023438</ele>
        <time>2020-01-08T11:13:16.000Z</time>
      </trkpt>
      <trkpt lat="45.66474" lon="6.72974">
        <ele>2658</ele>
        <time>2020-01-08T11:13:20.000Z</time>
      </trkpt>
      <trkpt lat="45.66475" lon="6.72972">
        <ele>2658.6000976562</ele>
        <time>2020-01-08T11:13:23.000Z</time>
      </trkpt>
      <trkpt lat="45.66475" lon="6.72971">
        <ele>2658.8000488281</ele>
        <time>2020-01-08T11:13:25.000Z</time>
      </trkpt>
      <trkpt lat="45.66476" lon="6.72968">
        <ele>2659.6000976562</ele>
        <time>2020-01-08T11:13:30.000Z</time>
      </trkpt>
      <trkpt lat="45.66475" lon="6.72964">
        <ele>2660.6000976562</ele>
        <time>2020-01-08T11:13:35.000Z</time>
      </trkpt>
      <trkpt lat="45.66475" lon="6.7296">
        <ele>2661.8000488281</ele>
        <time>2020-01-08T11:13:40.000Z</time>
      </trkpt>
      <trkpt lat="45.66475" lon="6.72956">
        <ele>2662.8000488281</ele>
        <time>2020-01-08T11:13:45.000Z</time>
      </trkpt>
      <trkpt lat="45.66475" lon="6.72955">
        <ele>2663</ele>
        <time>2020-01-08T11:13:46.000Z</time>
      </trkpt>
      <trkpt lat="45.66476" lon="6.72953">
        <ele>2663.8000488281</ele>
        <time>2020-01-08T11:13:50.000Z</time>
      </trkpt>
      <trkpt lat="45.66476" lon="6.72951">
        <ele>2664.1999511719</ele>
        <time>2020-01-08T11:13:52.000Z</time>
      </trkpt>
      <trkpt lat="45.66476" lon="6.72947">
        <ele>2665</ele>
        <time>2020-01-08T11:13:56.000Z</time>
      </trkpt>
      <trkpt lat="45.66476" lon="6.72946">
        <ele>2665.1999511719</ele>
        <time>2020-01-08T11:13:57.000Z</time>
      </trkpt>
      <trkpt lat="45.66476" lon="6.72942">
        <ele>2666</ele>
        <time>2020-01-08T11:14:03.000Z</time>
      </trkpt>
      <trkpt lat="45.66476" lon="6.72941">
        <ele>2666.1999511719</ele>
        <time>2020-01-08T11:14:04.000Z</time>
      </trkpt>
      <trkpt lat="45.66476" lon="6.72941">
        <ele>2666.3999023438</ele>
        <time>2020-01-08T11:14:08.000Z</time>
      </trkpt>
      <trkpt lat="45.66476" lon="6.72941">
        <ele>2667.1999511719</ele>
        <time>2020-01-08T11:14:11.000Z</time>
      </trkpt>
      <trkpt lat="45.66477" lon="6.72943">
        <ele>2668</ele>
        <time>2020-01-08T11:14:15.000Z</time>
      </trkpt>
      <trkpt lat="45.66479" lon="6.72944">
        <ele>2668</ele>
        <time>2020-01-08T11:14:19.000Z</time>
      </trkpt>
      <trkpt lat="45.66479" lon="6.72944">
        <ele>2668.3999023438</ele>
        <time>2020-01-08T11:14:21.000Z</time>
      </trkpt>
      <trkpt lat="45.66479" lon="6.72944">
        <ele>2668.6000976562</ele>
        <time>2020-01-08T11:14:23.000Z</time>
      </trkpt>
      <trkpt lat="45.66479" lon="6.72945">
        <ele>2668.8000488281</ele>
        <time>2020-01-08T11:14:24.000Z</time>
      </trkpt>
      <trkpt lat="45.66481" lon="6.72948">
        <ele>2668.8000488281</ele>
        <time>2020-01-08T11:14:29.000Z</time>
      </trkpt>
      <trkpt lat="45.66482" lon="6.72949">
        <ele>2669.3999023438</ele>
        <time>2020-01-08T11:14:32.000Z</time>
      </trkpt>
      <trkpt lat="45.66482" lon="6.7295">
        <ele>2669.6000976562</ele>
        <time>2020-01-08T11:14:33.000Z</time>
      </trkpt>
      <trkpt lat="45.66483" lon="6.72951">
        <ele>2670.3999023438</ele>
        <time>2020-01-08T11:14:37.000Z</time>
      </trkpt>
      <trkpt lat="45.66484" lon="6.72953">
        <ele>2671.1999511719</ele>
        <time>2020-01-08T11:14:41.000Z</time>
      </trkpt>
      <trkpt lat="45.66485" lon="6.72953">
        <ele>2671.3999023438</ele>
        <time>2020-01-08T11:14:42.000Z</time>
      </trkpt>
      <trkpt lat="45.66485" lon="6.72954">
        <ele>2672</ele>
        <time>2020-01-08T11:14:45.000Z</time>
      </trkpt>
      <trkpt lat="45.66486" lon="6.72955">
        <ele>2672.3999023438</ele>
        <time>2020-01-08T11:14:47.000Z</time>
      </trkpt>
      <trkpt lat="45.66486" lon="6.72955">
        <ele>2673</ele>
        <time>2020-01-08T11:14:50.000Z</time>
      </trkpt>
      <trkpt lat="45.66489" lon="6.72959">
        <ele>2673.3999023438</ele>
        <time>2020-01-08T11:14:55.000Z</time>
      </trkpt>
      <trkpt lat="45.6649" lon="6.72959">
        <ele>2673.3999023438</ele>
        <time>2020-01-08T11:14:56.000Z</time>
      </trkpt>
      <trkpt lat="45.66491" lon="6.72961">
        <ele>2673.8000488281</ele>
        <time>2020-01-08T11:14:59.000Z</time>
      </trkpt>
      <trkpt lat="45.66493" lon="6.72961">
        <ele>2674.3999023438</ele>
        <time>2020-01-08T11:15:03.000Z</time>
      </trkpt>
      <trkpt lat="45.66494" lon="6.72963">
        <ele>2675.1999511719</ele>
        <time>2020-01-08T11:15:08.000Z</time>
      </trkpt>
      <trkpt lat="45.66495" lon="6.72963">
        <ele>2675.6000976562</ele>
        <time>2020-01-08T11:15:11.000Z</time>
      </trkpt>
      <trkpt lat="45.66496" lon="6.72964">
        <ele>2676</ele>
        <time>2020-01-08T11:15:13.000Z</time>
      </trkpt>
      <trkpt lat="45.66498" lon="6.72968">
        <ele>2676.6000976562</ele>
        <time>2020-01-08T11:15:17.000Z</time>
      </trkpt>
      <trkpt lat="45.66499" lon="6.72968">
        <ele>2676.8000488281</ele>
        <time>2020-01-08T11:15:18.000Z</time>
      </trkpt>
      <trkpt lat="45.66501" lon="6.7297">
        <ele>2677.6000976562</ele>
        <time>2020-01-08T11:15:22.000Z</time>
      </trkpt>
      <trkpt lat="45.66503" lon="6.72971">
        <ele>2678</ele>
        <time>2020-01-08T11:15:24.000Z</time>
      </trkpt>
      <trkpt lat="45.66504" lon="6.72973">
        <ele>2678.6000976562</ele>
        <time>2020-01-08T11:15:29.000Z</time>
      </trkpt>
      <trkpt lat="45.66505" lon="6.72974">
        <ele>2678.8000488281</ele>
        <time>2020-01-08T11:15:30.000Z</time>
      </trkpt>
      <trkpt lat="45.66507" lon="6.72978">
        <ele>2679.6000976562</ele>
        <time>2020-01-08T11:15:36.000Z</time>
      </trkpt>
      <trkpt lat="45.66508" lon="6.72979">
        <ele>2679.8000488281</ele>
        <time>2020-01-08T11:15:38.000Z</time>
      </trkpt>
      <trkpt lat="45.6651" lon="6.72981">
        <ele>2680.8000488281</ele>
        <time>2020-01-08T11:15:43.000Z</time>
      </trkpt>
      <trkpt lat="45.66511" lon="6.72982">
        <ele>2681</ele>
        <time>2020-01-08T11:15:44.000Z</time>
      </trkpt>
      <trkpt lat="45.66512" lon="6.72984">
        <ele>2681.8000488281</ele>
        <time>2020-01-08T11:15:49.000Z</time>
      </trkpt>
      <trkpt lat="45.66512" lon="6.72984">
        <ele>2682</ele>
        <time>2020-01-08T11:15:50.000Z</time>
      </trkpt>
      <trkpt lat="45.66515" lon="6.72989">
        <ele>2683.1999511719</ele>
        <time>2020-01-08T11:15:57.000Z</time>
      </trkpt>
      <trkpt lat="45.66515" lon="6.72989">
        <ele>2683.1999511719</ele>
        <time>2020-01-08T11:15:58.000Z</time>
      </trkpt>
      <trkpt lat="45.66516" lon="6.7299">
        <ele>2684</ele>
        <time>2020-01-08T11:16:03.000Z</time>
      </trkpt>
      <trkpt lat="45.66516" lon="6.72991">
        <ele>2684.1999511719</ele>
        <time>2020-01-08T11:16:04.000Z</time>
      </trkpt>
      <trkpt lat="45.66517" lon="6.72994">
        <ele>2684.6000976562</ele>
        <time>2020-01-08T11:16:08.000Z</time>
      </trkpt>
      <trkpt lat="45.66518" lon="6.72997">
        <ele>2685.3999023438</ele>
        <time>2020-01-08T11:16:13.000Z</time>
      </trkpt>
      <trkpt lat="45.66519" lon="6.72998">
        <ele>2685.8000488281</ele>
        <time>2020-01-08T11:16:14.000Z</time>
      </trkpt>
      <trkpt lat="45.6652" lon="6.72999">
        <ele>2686.3999023438</ele>
        <time>2020-01-08T11:16:16.000Z</time>
      </trkpt>
      <trkpt lat="45.66521" lon="6.73003">
        <ele>2687.3999023438</ele>
        <time>2020-01-08T11:16:23.000Z</time>
      </trkpt>
      <trkpt lat="45.66521" lon="6.73003">
        <ele>2687.6000976562</ele>
        <time>2020-01-08T11:16:24.000Z</time>
      </trkpt>
      <trkpt lat="45.66522" lon="6.73002">
        <ele>2687.6000976562</ele>
        <time>2020-01-08T11:16:30.000Z</time>
      </trkpt>
      <trkpt lat="45.66524" lon="6.72999">
        <ele>2688.1999511719</ele>
        <time>2020-01-08T11:16:35.000Z</time>
      </trkpt>
      <trkpt lat="45.66528" lon="6.72992">
        <ele>2688.6000976562</ele>
        <time>2020-01-08T11:16:41.000Z</time>
      </trkpt>
      <trkpt lat="45.6653" lon="6.72987">
        <ele>2689.8000488281</ele>
        <time>2020-01-08T11:16:48.000Z</time>
      </trkpt>
      <trkpt lat="45.66531" lon="6.72982">
        <ele>2690.8000488281</ele>
        <time>2020-01-08T11:16:53.000Z</time>
      </trkpt>
      <trkpt lat="45.66533" lon="6.72978">
        <ele>2692</ele>
        <time>2020-01-08T11:16:58.000Z</time>
      </trkpt>
      <trkpt lat="45.66533" lon="6.72977">
        <ele>2692.1999511719</ele>
        <time>2020-01-08T11:16:59.000Z</time>
      </trkpt>
      <trkpt lat="45.66534" lon="6.72972">
        <ele>2693</ele>
        <time>2020-01-08T11:17:04.000Z</time>
      </trkpt>
      <trkpt lat="45.66534" lon="6.72969">
        <ele>2693.3999023438</ele>
        <time>2020-01-08T11:17:08.000Z</time>
      </trkpt>
      <trkpt lat="45.66537" lon="6.72963">
        <ele>2694.1999511719</ele>
        <time>2020-01-08T11:17:15.000Z</time>
      </trkpt>
      <trkpt lat="45.66537" lon="6.7296">
        <ele>2695.3999023438</ele>
        <time>2020-01-08T11:17:19.000Z</time>
      </trkpt>
      <trkpt lat="45.66538" lon="6.72959">
        <ele>2696</ele>
        <time>2020-01-08T11:17:22.000Z</time>
      </trkpt>
      <trkpt lat="45.66539" lon="6.72953">
        <ele>2696.3999023438</ele>
        <time>2020-01-08T11:17:26.000Z</time>
      </trkpt>
      <trkpt lat="45.66539" lon="6.72953">
        <ele>2696.6000976562</ele>
        <time>2020-01-08T11:17:27.000Z</time>
      </trkpt>
      <trkpt lat="45.66538" lon="6.7295">
        <ele>2697.3999023438</ele>
        <time>2020-01-08T11:17:31.000Z</time>
      </trkpt>
      <trkpt lat="45.66536" lon="6.72947">
        <ele>2698.6000976562</ele>
        <time>2020-01-08T11:17:35.000Z</time>
      </trkpt>
      <trkpt lat="45.66535" lon="6.72941">
        <ele>2699.1999511719</ele>
        <time>2020-01-08T11:17:42.000Z</time>
      </trkpt>
      <trkpt lat="45.66534" lon="6.72941">
        <ele>2699.6000976562</ele>
        <time>2020-01-08T11:17:44.000Z</time>
      </trkpt>
      <trkpt lat="45.66534" lon="6.7294">
        <ele>2700.6000976562</ele>
        <time>2020-01-08T11:17:49.000Z</time>
      </trkpt>
      <trkpt lat="45.66534" lon="6.7294">
        <ele>2700.6000976562</ele>
        <time>2020-01-08T11:17:50.000Z</time>
      </trkpt>
      <trkpt lat="45.66534" lon="6.72941">
        <ele>2701.3999023438</ele>
        <time>2020-01-08T11:17:55.000Z</time>
      </trkpt>
      <trkpt lat="45.66534" lon="6.72941">
        <ele>2701.6000976562</ele>
        <time>2020-01-08T11:17:56.000Z</time>
      </trkpt>
      <trkpt lat="45.66534" lon="6.72941">
        <ele>2701.3999023438</ele>
        <time>2020-01-08T11:18:12.000Z</time>
      </trkpt>
      <trkpt lat="45.66536" lon="6.72943">
        <ele>2701.8000488281</ele>
        <time>2020-01-08T11:18:18.000Z</time>
      </trkpt>
      <trkpt lat="45.66537" lon="6.72945">
        <ele>2702.6000976562</ele>
        <time>2020-01-08T11:18:22.000Z</time>
      </trkpt>
      <trkpt lat="45.66538" lon="6.72946">
        <ele>2702.8000488281</ele>
        <time>2020-01-08T11:18:23.000Z</time>
      </trkpt>
      <trkpt lat="45.66539" lon="6.72947">
        <ele>2703.1999511719</ele>
        <time>2020-01-08T11:18:26.000Z</time>
      </trkpt>
      <trkpt lat="45.66542" lon="6.7295">
        <ele>2704</ele>
        <time>2020-01-08T11:18:31.000Z</time>
      </trkpt>
      <trkpt lat="45.66543" lon="6.72951">
        <ele>2704.8000488281</ele>
        <time>2020-01-08T11:18:36.000Z</time>
      </trkpt>
      <trkpt lat="45.66543" lon="6.72951">
        <ele>2705</ele>
        <time>2020-01-08T11:18:38.000Z</time>
      </trkpt>
      <trkpt lat="45.66543" lon="6.72951">
        <ele>2705.6000976562</ele>
        <time>2020-01-08T11:18:42.000Z</time>
      </trkpt>
      <trkpt lat="45.66543" lon="6.72951">
        <ele>2706.1999511719</ele>
        <time>2020-01-08T11:18:45.000Z</time>
      </trkpt>
      <trkpt lat="45.66543" lon="6.72951">
        <ele>2707</ele>
        <time>2020-01-08T11:18:50.000Z</time>
      </trkpt>
      <trkpt lat="45.66543" lon="6.72951">
        <ele>2707.1999511719</ele>
        <time>2020-01-08T11:18:52.000Z</time>
      </trkpt>
      <trkpt lat="45.66545" lon="6.72957">
        <ele>2707.6000976562</ele>
        <time>2020-01-08T11:18:55.000Z</time>
      </trkpt>
      <trkpt lat="45.66549" lon="6.72967">
        <ele>2708.1999511719</ele>
        <time>2020-01-08T11:19:00.000Z</time>
      </trkpt>
      <trkpt lat="45.6655" lon="6.7297">
        <ele>2708.3999023438</ele>
        <time>2020-01-08T11:19:01.000Z</time>
      </trkpt>
      <trkpt lat="45.66552" lon="6.72975">
        <ele>2709.3999023438</ele>
        <time>2020-01-08T11:19:05.000Z</time>
      </trkpt>
      <trkpt lat="45.66553" lon="6.72978">
        <ele>2709.8000488281</ele>
        <time>2020-01-08T11:19:07.000Z</time>
      </trkpt>
      <trkpt lat="45.66554" lon="6.7298">
        <ele>2710.3999023438</ele>
        <time>2020-01-08T11:19:10.000Z</time>
      </trkpt>
      <trkpt lat="45.66555" lon="6.72982">
        <ele>2710.8000488281</ele>
        <time>2020-01-08T11:19:12.000Z</time>
      </trkpt>
      <trkpt lat="45.66557" lon="6.72986">
        <ele>2711.6000976562</ele>
        <time>2020-01-08T11:19:19.000Z</time>
      </trkpt>
      <trkpt lat="45.66557" lon="6.72987">
        <ele>2711.8000488281</ele>
        <time>2020-01-08T11:19:20.000Z</time>
      </trkpt>
      <trkpt lat="45.66557" lon="6.72988">
        <ele>2712.8000488281</ele>
        <time>2020-01-08T11:19:25.000Z</time>
      </trkpt>
      <trkpt lat="45.66557" lon="6.72988">
        <ele>2713</ele>
        <time>2020-01-08T11:19:28.000Z</time>
      </trkpt>
      <trkpt lat="45.66557" lon="6.72987">
        <ele>2712.8000488281</ele>
        <time>2020-01-08T11:19:35.000Z</time>
      </trkpt>
      <trkpt lat="45.66558" lon="6.72984">
        <ele>2713.8000488281</ele>
        <time>2020-01-08T11:19:40.000Z</time>
      </trkpt>
      <trkpt lat="45.66559" lon="6.72982">
        <ele>2714.1999511719</ele>
        <time>2020-01-08T11:19:42.000Z</time>
      </trkpt>
      <trkpt lat="45.66563" lon="6.72976">
        <ele>2715</ele>
        <time>2020-01-08T11:19:48.000Z</time>
      </trkpt>
      <trkpt lat="45.66563" lon="6.72975">
        <ele>2715.1999511719</ele>
        <time>2020-01-08T11:19:49.000Z</time>
      </trkpt>
      <trkpt lat="45.66566" lon="6.72972">
        <ele>2716.1999511719</ele>
        <time>2020-01-08T11:19:56.000Z</time>
      </trkpt>
      <trkpt lat="45.66567" lon="6.72968">
        <ele>2717.3999023438</ele>
        <time>2020-01-08T11:20:01.000Z</time>
      </trkpt>
      <trkpt lat="45.66568" lon="6.72967">
        <ele>2717.6000976562</ele>
        <time>2020-01-08T11:20:02.000Z</time>
      </trkpt>
      <trkpt lat="45.66569" lon="6.72964">
        <ele>2718.6000976562</ele>
        <time>2020-01-08T11:20:06.000Z</time>
      </trkpt>
      <trkpt lat="45.6657" lon="6.72961">
        <ele>2719.1999511719</ele>
        <time>2020-01-08T11:20:09.000Z</time>
      </trkpt>
      <trkpt lat="45.6657" lon="6.72961">
        <ele>2719.6000976562</ele>
        <time>2020-01-08T11:20:11.000Z</time>
      </trkpt>
      <trkpt lat="45.6657" lon="6.72961">
        <ele>2719.8000488281</ele>
        <time>2020-01-08T11:20:12.000Z</time>
      </trkpt>
      <trkpt lat="45.6657" lon="6.72961">
        <ele>2720.1999511719</ele>
        <time>2020-01-08T11:20:16.000Z</time>
      </trkpt>
      <trkpt lat="45.66571" lon="6.72958">
        <ele>2720.6000976562</ele>
        <time>2020-01-08T11:20:25.000Z</time>
      </trkpt>
      <trkpt lat="45.66571" lon="6.72957">
        <ele>2720.8000488281</ele>
        <time>2020-01-08T11:20:26.000Z</time>
      </trkpt>
      <trkpt lat="45.6657" lon="6.72952">
        <ele>2721.3999023438</ele>
        <time>2020-01-08T11:20:33.000Z</time>
      </trkpt>
      <trkpt lat="45.66571" lon="6.72949">
        <ele>2721.8000488281</ele>
        <time>2020-01-08T11:20:36.000Z</time>
      </trkpt>
      <trkpt lat="45.66571" lon="6.72947">
        <ele>2722.1999511719</ele>
        <time>2020-01-08T11:20:38.000Z</time>
      </trkpt>
      <trkpt lat="45.66572" lon="6.72945">
        <ele>2723</ele>
        <time>2020-01-08T11:20:41.000Z</time>
      </trkpt>
      <trkpt lat="45.66573" lon="6.72941">
        <ele>2724</ele>
        <time>2020-01-08T11:20:45.000Z</time>
      </trkpt>
      <trkpt lat="45.66573" lon="6.72937">
        <ele>2725.1999511719</ele>
        <time>2020-01-08T11:20:52.000Z</time>
      </trkpt>
      <trkpt lat="45.66572" lon="6.72936">
        <ele>2726</ele>
        <time>2020-01-08T11:20:57.000Z</time>
      </trkpt>
      <trkpt lat="45.66572" lon="6.72936">
        <ele>2726.1999511719</ele>
        <time>2020-01-08T11:20:59.000Z</time>
      </trkpt>
      <trkpt lat="45.66572" lon="6.72936">
        <ele>2727.3999023438</ele>
        <time>2020-01-08T11:21:05.000Z</time>
      </trkpt>
      <trkpt lat="45.66572" lon="6.72936">
        <ele>2727</ele>
        <time>2020-01-08T11:21:22.000Z</time>
      </trkpt>
      <trkpt lat="45.66571" lon="6.72939">
        <ele>2727.3999023438</ele>
        <time>2020-01-08T11:21:34.000Z</time>
      </trkpt>
      <trkpt lat="45.66572" lon="6.72939">
        <ele>2727.6000976562</ele>
        <time>2020-01-08T11:21:52.000Z</time>
      </trkpt>
      <trkpt lat="45.66573" lon="6.7294">
        <ele>2728.1999511719</ele>
        <time>2020-01-08T11:21:58.000Z</time>
      </trkpt>
      <trkpt lat="45.66574" lon="6.72941">
        <ele>2728.6000976562</ele>
        <time>2020-01-08T11:22:01.000Z</time>
      </trkpt>
      <trkpt lat="45.66574" lon="6.72941">
        <ele>2729</ele>
        <time>2020-01-08T11:22:04.000Z</time>
      </trkpt>
      <trkpt lat="45.66576" lon="6.72944">
        <ele>2729.6000976562</ele>
        <time>2020-01-08T11:22:08.000Z</time>
      </trkpt>
      <trkpt lat="45.66576" lon="6.72945">
        <ele>2729.8000488281</ele>
        <time>2020-01-08T11:22:09.000Z</time>
      </trkpt>
      <trkpt lat="45.66579" lon="6.72954">
        <ele>2730.8000488281</ele>
        <time>2020-01-08T11:22:15.000Z</time>
      </trkpt>
      <trkpt lat="45.66579" lon="6.72954">
        <ele>2731</ele>
        <time>2020-01-08T11:22:16.000Z</time>
      </trkpt>
      <trkpt lat="45.66581" lon="6.72958">
        <ele>2731.8000488281</ele>
        <time>2020-01-08T11:22:20.000Z</time>
      </trkpt>
      <trkpt lat="45.66581" lon="6.72959">
        <ele>2731.8000488281</ele>
        <time>2020-01-08T11:22:21.000Z</time>
      </trkpt>
      <trkpt lat="45.66581" lon="6.72959">
        <ele>2732</ele>
        <time>2020-01-08T11:22:22.000Z</time>
      </trkpt>
      <trkpt lat="45.66583" lon="6.72965">
        <ele>2733</ele>
        <time>2020-01-08T11:22:28.000Z</time>
      </trkpt>
      <trkpt lat="45.66584" lon="6.72967">
        <ele>2733.1999511719</ele>
        <time>2020-01-08T11:22:29.000Z</time>
      </trkpt>
      <trkpt lat="45.66586" lon="6.72971">
        <ele>2733.8000488281</ele>
        <time>2020-01-08T11:22:34.000Z</time>
      </trkpt>
      <trkpt lat="45.66586" lon="6.72972">
        <ele>2734</ele>
        <time>2020-01-08T11:22:35.000Z</time>
      </trkpt>
      <trkpt lat="45.66586" lon="6.72972">
        <ele>2734</ele>
        <time>2020-01-08T11:22:36.000Z</time>
      </trkpt>
      <trkpt lat="45.66587" lon="6.72976">
        <ele>2735.1999511719</ele>
        <time>2020-01-08T11:22:42.000Z</time>
      </trkpt>
      <trkpt lat="45.66587" lon="6.72976">
        <ele>2735.3999023438</ele>
        <time>2020-01-08T11:22:43.000Z</time>
      </trkpt>
      <trkpt lat="45.66588" lon="6.72979">
        <ele>2736</ele>
        <time>2020-01-08T11:22:48.000Z</time>
      </trkpt>
      <trkpt lat="45.66588" lon="6.72979">
        <ele>2736.3999023438</ele>
        <time>2020-01-08T11:22:51.000Z</time>
      </trkpt>
      <trkpt lat="45.66588" lon="6.72981">
        <ele>2736.8000488281</ele>
        <time>2020-01-08T11:22:53.000Z</time>
      </trkpt>
      <trkpt lat="45.66589" lon="6.72984">
        <ele>2737.3999023438</ele>
        <time>2020-01-08T11:22:58.000Z</time>
      </trkpt>
      <trkpt lat="45.66589" lon="6.72984">
        <ele>2737.6000976562</ele>
        <time>2020-01-08T11:22:59.000Z</time>
      </trkpt>
      <trkpt lat="45.66589" lon="6.72984">
        <ele>2738</ele>
        <time>2020-01-08T11:23:08.000Z</time>
      </trkpt>
      <trkpt lat="45.66589" lon="6.72984">
        <ele>2738.6000976562</ele>
        <time>2020-01-08T11:23:15.000Z</time>
      </trkpt>
      <trkpt lat="45.66589" lon="6.72983">
        <ele>2738.3999023438</ele>
        <time>2020-01-08T11:23:21.000Z</time>
      </trkpt>
      <trkpt lat="45.66592" lon="6.72979">
        <ele>2739.3999023438</ele>
        <time>2020-01-08T11:23:27.000Z</time>
      </trkpt>
      <trkpt lat="45.66594" lon="6.72976">
        <ele>2739.6000976562</ele>
        <time>2020-01-08T11:23:30.000Z</time>
      </trkpt>
      <trkpt lat="45.66595" lon="6.72975">
        <ele>2739.8000488281</ele>
        <time>2020-01-08T11:23:32.000Z</time>
      </trkpt>
      <trkpt lat="45.66597" lon="6.7297">
        <ele>2740.8000488281</ele>
        <time>2020-01-08T11:23:37.000Z</time>
      </trkpt>
      <trkpt lat="45.66598" lon="6.72969">
        <ele>2741.1999511719</ele>
        <time>2020-01-08T11:23:39.000Z</time>
      </trkpt>
      <trkpt lat="45.66599" lon="6.72966">
        <ele>2741.8000488281</ele>
        <time>2020-01-08T11:23:42.000Z</time>
      </trkpt>
      <trkpt lat="45.66601" lon="6.72962">
        <ele>2742.3999023438</ele>
        <time>2020-01-08T11:23:46.000Z</time>
      </trkpt>
      <trkpt lat="45.66601" lon="6.72962">
        <ele>2742.8000488281</ele>
        <time>2020-01-08T11:23:49.000Z</time>
      </trkpt>
      <trkpt lat="45.66601" lon="6.72961">
        <ele>2743.3999023438</ele>
        <time>2020-01-08T11:23:52.000Z</time>
      </trkpt>
      <trkpt lat="45.66602" lon="6.7296">
        <ele>2744</ele>
        <time>2020-01-08T11:23:59.000Z</time>
      </trkpt>
      <trkpt lat="45.66602" lon="6.72959">
        <ele>2744.8000488281</ele>
        <time>2020-01-08T11:24:08.000Z</time>
      </trkpt>
      <trkpt lat="45.66602" lon="6.72959">
        <ele>2745</ele>
        <time>2020-01-08T11:24:09.000Z</time>
      </trkpt>
      <trkpt lat="45.66602" lon="6.72959">
        <ele>2745.1999511719</ele>
        <time>2020-01-08T11:24:16.000Z</time>
      </trkpt>
      <trkpt lat="45.66602" lon="6.72959">
        <ele>2745.8000488281</ele>
        <time>2020-01-08T11:24:25.000Z</time>
      </trkpt>
      <trkpt lat="45.66602" lon="6.72959">
        <ele>2746.1999511719</ele>
        <time>2020-01-08T11:24:27.000Z</time>
      </trkpt>
      <trkpt lat="45.66602" lon="6.72959">
        <ele>2745.8000488281</ele>
        <time>2020-01-08T11:24:37.000Z</time>
      </trkpt>
      <trkpt lat="45.66603" lon="6.72962">
        <ele>2746.1999511719</ele>
        <time>2020-01-08T11:24:43.000Z</time>
      </trkpt>
      <trkpt lat="45.66604" lon="6.72965">
        <ele>2747.1999511719</ele>
        <time>2020-01-08T11:24:49.000Z</time>
      </trkpt>
      <trkpt lat="45.66604" lon="6.72966">
        <ele>2747.3999023438</ele>
        <time>2020-01-08T11:24:50.000Z</time>
      </trkpt>
      <trkpt lat="45.66605" lon="6.7297">
        <ele>2748.1999511719</ele>
        <time>2020-01-08T11:24:57.000Z</time>
      </trkpt>
      <trkpt lat="45.66605" lon="6.7297">
        <ele>2748.3999023438</ele>
        <time>2020-01-08T11:24:58.000Z</time>
      </trkpt>
      <trkpt lat="45.66605" lon="6.72975">
        <ele>2749.6000976562</ele>
        <time>2020-01-08T11:25:03.000Z</time>
      </trkpt>
      <trkpt lat="45.66605" lon="6.72976">
        <ele>2749.8000488281</ele>
        <time>2020-01-08T11:25:04.000Z</time>
      </trkpt>
      <trkpt lat="45.66605" lon="6.72976">
        <ele>2750.3999023438</ele>
        <time>2020-01-08T11:25:08.000Z</time>
      </trkpt>
      <trkpt lat="45.66605" lon="6.72978">
        <ele>2750.6000976562</ele>
        <time>2020-01-08T11:25:10.000Z</time>
      </trkpt>
      <trkpt lat="45.66606" lon="6.72981">
        <ele>2751</ele>
        <time>2020-01-08T11:25:13.000Z</time>
      </trkpt>
      <trkpt lat="45.66607" lon="6.72983">
        <ele>2751.8000488281</ele>
        <time>2020-01-08T11:25:17.000Z</time>
      </trkpt>
      <trkpt lat="45.66607" lon="6.72983">
        <ele>2751.8000488281</ele>
        <time>2020-01-08T11:25:18.000Z</time>
      </trkpt>
      <trkpt lat="45.66606" lon="6.72982">
        <ele>2752.8000488281</ele>
        <time>2020-01-08T11:25:26.000Z</time>
      </trkpt>
      <trkpt lat="45.66604" lon="6.7298">
        <ele>2752.8000488281</ele>
        <time>2020-01-08T11:25:27.000Z</time>
      </trkpt>
      <trkpt lat="45.66603" lon="6.7298">
        <ele>2749.3999023438</ele>
        <time>2020-01-08T11:25:28.000Z</time>
      </trkpt>
      <trkpt lat="45.66602" lon="6.72979">
        <ele>2740.3999023438</ele>
        <time>2020-01-08T11:25:29.000Z</time>
      </trkpt>
      <trkpt lat="45.66601" lon="6.72979">
        <ele>2735.8000488281</ele>
        <time>2020-01-08T11:25:30.000Z</time>
      </trkpt>
      <trkpt lat="45.66601" lon="6.72979">
        <ele>2733.3999023438</ele>
        <time>2020-01-08T11:25:31.000Z</time>
      </trkpt>
      <trkpt lat="45.66601" lon="6.7298">
        <ele>2744.1999511719</ele>
        <time>2020-01-08T11:25:33.000Z</time>
      </trkpt>
      <trkpt lat="45.66601" lon="6.7298">
        <ele>2754.8000488281</ele>
        <time>2020-01-08T11:25:34.000Z</time>
      </trkpt>
      <trkpt lat="45.66601" lon="6.7298">
        <ele>2760.3999023438</ele>
        <time>2020-01-08T11:25:35.000Z</time>
      </trkpt>
      <trkpt lat="45.66601" lon="6.7298">
        <ele>2763.1999511719</ele>
        <time>2020-01-08T11:25:36.000Z</time>
      </trkpt>
      <trkpt lat="45.66601" lon="6.7298">
        <ele>2760</ele>
        <time>2020-01-08T11:25:38.000Z</time>
      </trkpt>
      <trkpt lat="45.66601" lon="6.7298">
        <ele>2757</ele>
        <time>2020-01-08T11:25:39.000Z</time>
      </trkpt>
      <trkpt lat="45.66601" lon="6.7298">
        <ele>2755</ele>
        <time>2020-01-08T11:25:40.000Z</time>
      </trkpt>
      <trkpt lat="45.66601" lon="6.7298">
        <ele>2753.8000488281</ele>
        <time>2020-01-08T11:25:41.000Z</time>
      </trkpt>
      <trkpt lat="45.66601" lon="6.7298">
        <ele>2752.6000976562</ele>
        <time>2020-01-08T11:25:43.000Z</time>
      </trkpt>
      <trkpt lat="45.66601" lon="6.7298">
        <ele>2751.8000488281</ele>
        <time>2020-01-08T11:25:46.000Z</time>
      </trkpt>
      <trkpt lat="45.66601" lon="6.7298">
        <ele>2751.6000976562</ele>
        <time>2020-01-08T11:25:48.000Z</time>
      </trkpt>
      <trkpt lat="45.66601" lon="6.7298">
        <ele>2752.3999023438</ele>
        <time>2020-01-08T11:26:00.000Z</time>
      </trkpt>
      <trkpt lat="45.66604" lon="6.72982">
        <ele>2752.1999511719</ele>
        <time>2020-01-08T11:26:14.000Z</time>
      </trkpt>
      <trkpt lat="45.66604" lon="6.72982">
        <ele>2752.8000488281</ele>
        <time>2020-01-08T11:26:17.000Z</time>
      </trkpt>
      <trkpt lat="45.66604" lon="6.72982">
        <ele>2752.1999511719</ele>
        <time>2020-01-08T11:26:25.000Z</time>
      </trkpt>
      <trkpt lat="45.66604" lon="6.72982">
        <ele>2752.3999023438</ele>
        <time>2020-01-08T11:26:37.000Z</time>
      </trkpt>
      <trkpt lat="45.66604" lon="6.72983">
        <ele>2752.3999023438</ele>
        <time>2020-01-08T11:26:55.000Z</time>
      </trkpt>
      <trkpt lat="45.66604" lon="6.72983">
        <ele>2752.1999511719</ele>
        <time>2020-01-08T11:27:03.000Z</time>
      </trkpt>
      <trkpt lat="45.66604" lon="6.72983">
        <ele>2752.1999511719</ele>
        <time>2020-01-08T11:27:21.000Z</time>
      </trkpt>
      <trkpt lat="45.66604" lon="6.72983">
        <ele>2752.6000976562</ele>
        <time>2020-01-08T11:27:32.000Z</time>
      </trkpt>
      <trkpt lat="45.66606" lon="6.72983">
        <ele>2753.1999511719</ele>
        <time>2020-01-08T11:27:39.000Z</time>
      </trkpt>
      <trkpt lat="45.66607" lon="6.7298">
        <ele>2752.3999023438</ele>
        <time>2020-01-08T11:27:47.000Z</time>
      </trkpt>
      <trkpt lat="45.66607" lon="6.72979">
        <ele>2752.8000488281</ele>
        <time>2020-01-08T11:27:54.000Z</time>
      </trkpt>
      <trkpt lat="45.66607" lon="6.72979">
        <ele>2753</ele>
        <time>2020-01-08T11:28:02.000Z</time>
      </trkpt>
      <trkpt lat="45.66607" lon="6.72978">
        <ele>2752</ele>
        <time>2020-01-08T11:28:09.000Z</time>
      </trkpt>
      <trkpt lat="45.66607" lon="6.72978">
        <ele>2753</ele>
        <time>2020-01-08T11:28:20.000Z</time>
      </trkpt>
      <trkpt lat="45.66607" lon="6.72978">
        <ele>2753</ele>
        <time>2020-01-08T11:28:36.000Z</time>
      </trkpt>
      <trkpt lat="45.66607" lon="6.72978">
        <ele>2752.8000488281</ele>
        <time>2020-01-08T11:28:56.000Z</time>
      </trkpt>
      <trkpt lat="45.66607" lon="6.72978">
        <ele>2753</ele>
        <time>2020-01-08T11:29:06.000Z</time>
      </trkpt>
      <trkpt lat="45.66607" lon="6.72978">
        <ele>2753</ele>
        <time>2020-01-08T11:29:25.000Z</time>
      </trkpt>
      <trkpt lat="45.66607" lon="6.72978">
        <ele>2753</ele>
        <time>2020-01-08T11:29:41.000Z</time>
      </trkpt>
      <trkpt lat="45.66607" lon="6.72978">
        <ele>2753</ele>
        <time>2020-01-08T11:29:54.000Z</time>
      </trkpt>
      <trkpt lat="45.66607" lon="6.72978">
        <ele>2753</ele>
        <time>2020-01-08T11:30:07.000Z</time>
      </trkpt>
      <trkpt lat="45.66607" lon="6.72978">
        <ele>2752.8000488281</ele>
        <time>2020-01-08T11:30:26.000Z</time>
      </trkpt>
      <trkpt lat="45.66607" lon="6.72978">
        <ele>2753</ele>
        <time>2020-01-08T11:30:40.000Z</time>
      </trkpt>
      <trkpt lat="45.66607" lon="6.72978">
        <ele>2753.1999511719</ele>
        <time>2020-01-08T11:30:55.000Z</time>
      </trkpt>
      <trkpt lat="45.66607" lon="6.72978">
        <ele>2753</ele>
        <time>2020-01-08T11:31:07.000Z</time>
      </trkpt>
      <trkpt lat="45.66607" lon="6.72978">
        <ele>2753</ele>
        <time>2020-01-08T11:31:19.000Z</time>
      </trkpt>
      <trkpt lat="45.66607" lon="6.72978">
        <ele>2752.8000488281</ele>
        <time>2020-01-08T11:31:37.000Z</time>
      </trkpt>
      <trkpt lat="45.66607" lon="6.72978">
        <ele>2752.8000488281</ele>
        <time>2020-01-08T11:31:54.000Z</time>
      </trkpt>
      <trkpt lat="45.66607" lon="6.72978">
        <ele>2753</ele>
        <time>2020-01-08T11:32:07.000Z</time>
      </trkpt>
      <trkpt lat="45.66607" lon="6.72978">
        <ele>2753</ele>
        <time>2020-01-08T11:32:18.000Z</time>
      </trkpt>
      <trkpt lat="45.66608" lon="6.72977">
        <ele>2752.6000976562</ele>
        <time>2020-01-08T11:32:26.000Z</time>
      </trkpt>
      <trkpt lat="45.66608" lon="6.72977">
        <ele>2752.6000976562</ele>
        <time>2020-01-08T11:32:40.000Z</time>
      </trkpt>
      <trkpt lat="45.66608" lon="6.72981">
        <ele>2754.1999511719</ele>
        <time>2020-01-08T11:32:48.000Z</time>
      </trkpt>
      <trkpt lat="45.66608" lon="6.72988">
        <ele>2754.6000976562</ele>
        <time>2020-01-08T11:32:52.000Z</time>
      </trkpt>
      <trkpt lat="45.66608" lon="6.7299">
        <ele>2754</ele>
        <time>2020-01-08T11:32:53.000Z</time>
      </trkpt>
      <trkpt lat="45.66609" lon="6.72991">
        <ele>2753</ele>
        <time>2020-01-08T11:32:58.000Z</time>
      </trkpt>
      <trkpt lat="45.66609" lon="6.72991">
        <ele>2753</ele>
        <time>2020-01-08T11:32:59.000Z</time>
      </trkpt>
      <trkpt lat="45.66609" lon="6.72991">
        <ele>2752.8000488281</ele>
        <time>2020-01-08T11:33:09.000Z</time>
      </trkpt>
      <trkpt lat="45.66609" lon="6.72991">
        <ele>2752.8000488281</ele>
        <time>2020-01-08T11:33:26.000Z</time>
      </trkpt>
      <trkpt lat="45.66608" lon="6.72989">
        <ele>2752.8000488281</ele>
        <time>2020-01-08T11:33:42.000Z</time>
      </trkpt>
      <trkpt lat="45.66608" lon="6.72989">
        <ele>2752.3999023438</ele>
        <time>2020-01-08T11:34:00.000Z</time>
      </trkpt>
      <trkpt lat="45.66608" lon="6.72989">
        <ele>2751.8000488281</ele>
        <time>2020-01-08T11:34:11.000Z</time>
      </trkpt>
      <trkpt lat="45.66608" lon="6.72989">
        <ele>2751.1999511719</ele>
        <time>2020-01-08T11:34:14.000Z</time>
      </trkpt>
      <trkpt lat="45.66608" lon="6.72989">
        <ele>2753.6000976562</ele>
        <time>2020-01-08T11:34:18.000Z</time>
      </trkpt>
      <trkpt lat="45.66608" lon="6.72989">
        <ele>2752.3999023438</ele>
        <time>2020-01-08T11:34:24.000Z</time>
      </trkpt>
      <trkpt lat="45.66608" lon="6.72989">
        <ele>2751.3999023438</ele>
        <time>2020-01-08T11:34:27.000Z</time>
      </trkpt>
      <trkpt lat="45.66608" lon="6.72989">
        <ele>2753.3999023438</ele>
        <time>2020-01-08T11:34:41.000Z</time>
      </trkpt>
      <trkpt lat="45.66608" lon="6.72989">
        <ele>2751.3999023438</ele>
        <time>2020-01-08T11:34:46.000Z</time>
      </trkpt>
      <trkpt lat="45.66608" lon="6.72989">
        <ele>2750.1999511719</ele>
        <time>2020-01-08T11:34:48.000Z</time>
      </trkpt>
      <trkpt lat="45.66608" lon="6.72989">
        <ele>2751.3999023438</ele>
        <time>2020-01-08T11:34:55.000Z</time>
      </trkpt>
      <trkpt lat="45.66608" lon="6.72988">
        <ele>2752.1999511719</ele>
        <time>2020-01-08T11:34:58.000Z</time>
      </trkpt>
      <trkpt lat="45.66608" lon="6.72988">
        <ele>2752.6000976562</ele>
        <time>2020-01-08T11:34:59.000Z</time>
      </trkpt>
      <trkpt lat="45.66608" lon="6.72988">
        <ele>2753.8000488281</ele>
        <time>2020-01-08T11:35:14.000Z</time>
      </trkpt>
      <trkpt lat="45.66608" lon="6.72988">
        <ele>2752.8000488281</ele>
        <time>2020-01-08T11:35:17.000Z</time>
      </trkpt>
      <trkpt lat="45.66608" lon="6.72988">
        <ele>2751.8000488281</ele>
        <time>2020-01-08T11:35:18.000Z</time>
      </trkpt>
      <trkpt lat="45.66608" lon="6.72988">
        <ele>2751.1999511719</ele>
        <time>2020-01-08T11:35:19.000Z</time>
      </trkpt>
      <trkpt lat="45.66608" lon="6.72988">
        <ele>2752.3999023438</ele>
        <time>2020-01-08T11:35:23.000Z</time>
      </trkpt>
      <trkpt lat="45.66608" lon="6.72988">
        <ele>2751</ele>
        <time>2020-01-08T11:35:29.000Z</time>
      </trkpt>
      <trkpt lat="45.66608" lon="6.72988">
        <ele>2749.3999023438</ele>
        <time>2020-01-08T11:35:30.000Z</time>
      </trkpt>
      <trkpt lat="45.66608" lon="6.72988">
        <ele>2748.1999511719</ele>
        <time>2020-01-08T11:35:32.000Z</time>
      </trkpt>
      <trkpt lat="45.66608" lon="6.72988">
        <ele>2750.3999023438</ele>
        <time>2020-01-08T11:35:34.000Z</time>
      </trkpt>
      <trkpt lat="45.66607" lon="6.72987">
        <ele>2752</ele>
        <time>2020-01-08T11:35:35.000Z</time>
      </trkpt>
      <trkpt lat="45.66607" lon="6.72987">
        <ele>2753.1999511719</ele>
        <time>2020-01-08T11:35:37.000Z</time>
      </trkpt>
      <trkpt lat="45.66607" lon="6.72987">
        <ele>2753</ele>
        <time>2020-01-08T11:35:40.000Z</time>
      </trkpt>
      <trkpt lat="45.66607" lon="6.72987">
        <ele>2752</ele>
        <time>2020-01-08T11:35:41.000Z</time>
      </trkpt>
      <trkpt lat="45.66607" lon="6.72987">
        <ele>2751</ele>
        <time>2020-01-08T11:35:43.000Z</time>
      </trkpt>
      <trkpt lat="45.66607" lon="6.72987">
        <ele>2752.3999023438</ele>
        <time>2020-01-08T11:35:49.000Z</time>
      </trkpt>
      <trkpt lat="45.66607" lon="6.72987">
        <ele>2751.8000488281</ele>
        <time>2020-01-08T11:36:01.000Z</time>
      </trkpt>
      <trkpt lat="45.66607" lon="6.72987">
        <ele>2751.3999023438</ele>
        <time>2020-01-08T11:36:03.000Z</time>
      </trkpt>
      <trkpt lat="45.66607" lon="6.72987">
        <ele>2752.8000488281</ele>
        <time>2020-01-08T11:36:11.000Z</time>
      </trkpt>
      <trkpt lat="45.66607" lon="6.72987">
        <ele>2754</ele>
        <time>2020-01-08T11:36:12.000Z</time>
      </trkpt>
      <trkpt lat="45.66607" lon="6.72987">
        <ele>2752.3999023438</ele>
        <time>2020-01-08T11:36:16.000Z</time>
      </trkpt>
      <trkpt lat="45.66607" lon="6.72987">
        <ele>2751.1999511719</ele>
        <time>2020-01-08T11:36:18.000Z</time>
      </trkpt>
      <trkpt lat="45.66607" lon="6.72987">
        <ele>2752.1999511719</ele>
        <time>2020-01-08T11:36:21.000Z</time>
      </trkpt>
      <trkpt lat="45.66607" lon="6.72987">
        <ele>2752.3999023438</ele>
        <time>2020-01-08T11:36:23.000Z</time>
      </trkpt>
      <trkpt lat="45.66607" lon="6.72987">
        <ele>2754.1999511719</ele>
        <time>2020-01-08T11:36:30.000Z</time>
      </trkpt>
      <trkpt lat="45.66607" lon="6.72987">
        <ele>2755.6000976562</ele>
        <time>2020-01-08T11:36:32.000Z</time>
      </trkpt>
      <trkpt lat="45.66607" lon="6.72987">
        <ele>2754.6000976562</ele>
        <time>2020-01-08T11:36:35.000Z</time>
      </trkpt>
      <trkpt lat="45.66607" lon="6.72987">
        <ele>2753.1999511719</ele>
        <time>2020-01-08T11:36:37.000Z</time>
      </trkpt>
      <trkpt lat="45.66607" lon="6.72987">
        <ele>2753</ele>
        <time>2020-01-08T11:36:39.000Z</time>
      </trkpt>
      <trkpt lat="45.66607" lon="6.72987">
        <ele>2752.3999023438</ele>
        <time>2020-01-08T11:36:50.000Z</time>
      </trkpt>
      <trkpt lat="45.66607" lon="6.72985">
        <ele>2752.3999023438</ele>
        <time>2020-01-08T11:37:03.000Z</time>
      </trkpt>
      <trkpt lat="45.66607" lon="6.72985">
        <ele>2752.1999511719</ele>
        <time>2020-01-08T11:37:08.000Z</time>
      </trkpt>
      <trkpt lat="45.66607" lon="6.72985">
        <ele>2752.1999511719</ele>
        <time>2020-01-08T11:37:17.000Z</time>
      </trkpt>
      <trkpt lat="45.66607" lon="6.72985">
        <ele>2752.3999023438</ele>
        <time>2020-01-08T11:37:32.000Z</time>
      </trkpt>
      <trkpt lat="45.66607" lon="6.72985">
        <ele>2752.3999023438</ele>
        <time>2020-01-08T11:37:45.000Z</time>
      </trkpt>
      <trkpt lat="45.66607" lon="6.72985">
        <ele>2751.8000488281</ele>
        <time>2020-01-08T11:37:56.000Z</time>
      </trkpt>
      <trkpt lat="45.66607" lon="6.72985">
        <ele>2752.8000488281</ele>
        <time>2020-01-08T11:38:14.000Z</time>
      </trkpt>
      <trkpt lat="45.66608" lon="6.72979">
        <ele>2752.8000488281</ele>
        <time>2020-01-08T11:38:29.000Z</time>
      </trkpt>
      <trkpt lat="45.66608" lon="6.72979">
        <ele>2753</ele>
        <time>2020-01-08T11:38:36.000Z</time>
      </trkpt>
      <trkpt lat="45.66608" lon="6.72979">
        <ele>2753.3999023438</ele>
        <time>2020-01-08T11:38:38.000Z</time>
      </trkpt>
      <trkpt lat="45.66608" lon="6.72979">
        <ele>2752.3999023438</ele>
        <time>2020-01-08T11:38:45.000Z</time>
      </trkpt>
      <trkpt lat="45.66609" lon="6.72979">
        <ele>2752.6000976562</ele>
        <time>2020-01-08T11:38:56.000Z</time>
      </trkpt>
      <trkpt lat="45.66609" lon="6.72979">
        <ele>2752.3999023438</ele>
        <time>2020-01-08T11:39:09.000Z</time>
      </trkpt>
      <trkpt lat="45.66609" lon="6.72979">
        <ele>2752.6000976562</ele>
        <time>2020-01-08T11:39:27.000Z</time>
      </trkpt>
      <trkpt lat="45.66609" lon="6.72978">
        <ele>2752.6000976562</ele>
        <time>2020-01-08T11:39:39.000Z</time>
      </trkpt>
      <trkpt lat="45.66609" lon="6.72978">
        <ele>2752.1999511719</ele>
        <time>2020-01-08T11:39:48.000Z</time>
      </trkpt>
      <trkpt lat="45.66609" lon="6.72978">
        <ele>2752.8000488281</ele>
        <time>2020-01-08T11:39:53.000Z</time>
      </trkpt>
      <trkpt lat="45.66609" lon="6.72976">
        <ele>2753</ele>
        <time>2020-01-08T11:40:02.000Z</time>
      </trkpt>
      <trkpt lat="45.66609" lon="6.72975">
        <ele>2753.1999511719</ele>
        <time>2020-01-08T11:40:08.000Z</time>
      </trkpt>
      <trkpt lat="45.66609" lon="6.72975">
        <ele>2752.8000488281</ele>
        <time>2020-01-08T11:40:17.000Z</time>
      </trkpt>
      <trkpt lat="45.66609" lon="6.72975">
        <ele>2753.3999023438</ele>
        <time>2020-01-08T11:40:26.000Z</time>
      </trkpt>
      <trkpt lat="45.6661" lon="6.72974">
        <ele>2753.3999023438</ele>
        <time>2020-01-08T11:40:28.000Z</time>
      </trkpt>
      <trkpt lat="45.6661" lon="6.72974">
        <ele>2753.6000976562</ele>
        <time>2020-01-08T11:40:43.000Z</time>
      </trkpt>
      <trkpt lat="45.6661" lon="6.72973">
        <ele>2753.1999511719</ele>
        <time>2020-01-08T11:40:58.000Z</time>
      </trkpt>
      <trkpt lat="45.66611" lon="6.72968">
        <ele>2754.3999023438</ele>
        <time>2020-01-08T11:41:03.000Z</time>
      </trkpt>
      <trkpt lat="45.66611" lon="6.72968">
        <ele>2754.6000976562</ele>
        <time>2020-01-08T11:41:04.000Z</time>
      </trkpt>
      <trkpt lat="45.66612" lon="6.72965">
        <ele>2755.1999511719</ele>
        <time>2020-01-08T11:41:10.000Z</time>
      </trkpt>
      <trkpt lat="45.66613" lon="6.72964">
        <ele>2755.3999023438</ele>
        <time>2020-01-08T11:41:12.000Z</time>
      </trkpt>
      <trkpt lat="45.66613" lon="6.72961">
        <ele>2756.6000976562</ele>
        <time>2020-01-08T11:41:17.000Z</time>
      </trkpt>
      <trkpt lat="45.66613" lon="6.72961">
        <ele>2757</ele>
        <time>2020-01-08T11:41:19.000Z</time>
      </trkpt>
      <trkpt lat="45.66613" lon="6.72961">
        <ele>2757.6000976562</ele>
        <time>2020-01-08T11:41:22.000Z</time>
      </trkpt>
      <trkpt lat="45.66614" lon="6.7296">
        <ele>2758.3999023438</ele>
        <time>2020-01-08T11:41:27.000Z</time>
      </trkpt>
      <trkpt lat="45.66614" lon="6.72959">
        <ele>2758.6000976562</ele>
        <time>2020-01-08T11:41:31.000Z</time>
      </trkpt>
      <trkpt lat="45.66614" lon="6.72958">
        <ele>2758.8000488281</ele>
        <time>2020-01-08T11:41:33.000Z</time>
      </trkpt>
      <trkpt lat="45.66614" lon="6.72958">
        <ele>2759.8000488281</ele>
        <time>2020-01-08T11:41:39.000Z</time>
      </trkpt>
      <trkpt lat="45.66614" lon="6.72958">
        <ele>2760.1999511719</ele>
        <time>2020-01-08T11:41:44.000Z</time>
      </trkpt>
      <trkpt lat="45.66613" lon="6.72957">
        <ele>2760.8000488281</ele>
        <time>2020-01-08T11:41:51.000Z</time>
      </trkpt>
      <trkpt lat="45.66613" lon="6.72957">
        <ele>2761.3999023438</ele>
        <time>2020-01-08T11:42:03.000Z</time>
      </trkpt>
      <trkpt lat="45.66613" lon="6.72957">
        <ele>2761.8000488281</ele>
        <time>2020-01-08T11:42:07.000Z</time>
      </trkpt>
      <trkpt lat="45.66613" lon="6.72957">
        <ele>2761.8000488281</ele>
        <time>2020-01-08T11:42:17.000Z</time>
      </trkpt>
      <trkpt lat="45.66614" lon="6.72955">
        <ele>2762</ele>
        <time>2020-01-08T11:42:23.000Z</time>
      </trkpt>
      <trkpt lat="45.66614" lon="6.72955">
        <ele>2762.8000488281</ele>
        <time>2020-01-08T11:42:31.000Z</time>
      </trkpt>
      <trkpt lat="45.66614" lon="6.72954">
        <ele>2763.1999511719</ele>
        <time>2020-01-08T11:42:33.000Z</time>
      </trkpt>
      <trkpt lat="45.66614" lon="6.72954">
        <ele>2764</ele>
        <time>2020-01-08T11:42:44.000Z</time>
      </trkpt>
      <trkpt lat="45.66614" lon="6.72953">
        <ele>2764.3999023438</ele>
        <time>2020-01-08T11:42:54.000Z</time>
      </trkpt>
      <trkpt lat="45.66616" lon="6.72951">
        <ele>2764.6000976562</ele>
        <time>2020-01-08T11:43:02.000Z</time>
      </trkpt>
      <trkpt lat="45.66616" lon="6.72951">
        <ele>2765.1999511719</ele>
        <time>2020-01-08T11:43:07.000Z</time>
      </trkpt>
      <trkpt lat="45.66616" lon="6.72951">
        <ele>2765.1999511719</ele>
        <time>2020-01-08T11:43:13.000Z</time>
      </trkpt>
      <trkpt lat="45.66617" lon="6.7295">
        <ele>2765.6000976562</ele>
        <time>2020-01-08T11:43:21.000Z</time>
      </trkpt>
      <trkpt lat="45.66617" lon="6.7295">
        <ele>2765.3999023438</ele>
        <time>2020-01-08T11:43:32.000Z</time>
      </trkpt>
      <trkpt lat="45.66617" lon="6.72949">
        <ele>2764.8000488281</ele>
        <time>2020-01-08T11:43:37.000Z</time>
      </trkpt>
      <trkpt lat="45.66617" lon="6.72948">
        <ele>2765.6000976562</ele>
        <time>2020-01-08T11:43:41.000Z</time>
      </trkpt>
      <trkpt lat="45.66617" lon="6.72947">
        <ele>2766</ele>
        <time>2020-01-08T11:43:46.000Z</time>
      </trkpt>
      <trkpt lat="45.66617" lon="6.72947">
        <ele>2766.1999511719</ele>
        <time>2020-01-08T11:43:47.000Z</time>
      </trkpt>
      <trkpt lat="45.66617" lon="6.72946">
        <ele>2766.8000488281</ele>
        <time>2020-01-08T11:43:53.000Z</time>
      </trkpt>
      <trkpt lat="45.66617" lon="6.72946">
        <ele>2767.1999511719</ele>
        <time>2020-01-08T11:43:55.000Z</time>
      </trkpt>
      <trkpt lat="45.66616" lon="6.72945">
        <ele>2767.6000976562</ele>
        <time>2020-01-08T11:44:00.000Z</time>
      </trkpt>
      <trkpt lat="45.66616" lon="6.72944">
        <ele>2768</ele>
        <time>2020-01-08T11:44:07.000Z</time>
      </trkpt>
      <trkpt lat="45.66616" lon="6.72944">
        <ele>2768.1999511719</ele>
        <time>2020-01-08T11:44:08.000Z</time>
      </trkpt>
      <trkpt lat="45.66616" lon="6.72943">
        <ele>2769</ele>
        <time>2020-01-08T11:44:15.000Z</time>
      </trkpt>
      <trkpt lat="45.66616" lon="6.72943">
        <ele>2769.3999023438</ele>
        <time>2020-01-08T11:44:16.000Z</time>
      </trkpt>
      <trkpt lat="45.66617" lon="6.72942">
        <ele>2770.3999023438</ele>
        <time>2020-01-08T11:44:21.000Z</time>
      </trkpt>
      <trkpt lat="45.66617" lon="6.72941">
        <ele>2771.6000976562</ele>
        <time>2020-01-08T11:44:28.000Z</time>
      </trkpt>
      <trkpt lat="45.66617" lon="6.7294">
        <ele>2771.8000488281</ele>
        <time>2020-01-08T11:44:38.000Z</time>
      </trkpt>
      <trkpt lat="45.66616" lon="6.72939">
        <ele>2772.6000976562</ele>
        <time>2020-01-08T11:44:43.000Z</time>
      </trkpt>
      <trkpt lat="45.66617" lon="6.72938">
        <ele>2772.8000488281</ele>
        <time>2020-01-08T11:44:45.000Z</time>
      </trkpt>
      <trkpt lat="45.66617" lon="6.72937">
        <ele>2773.8000488281</ele>
        <time>2020-01-08T11:44:50.000Z</time>
      </trkpt>
      <trkpt lat="45.66617" lon="6.72937">
        <ele>2774.1999511719</ele>
        <time>2020-01-08T11:44:54.000Z</time>
      </trkpt>
      <trkpt lat="45.66617" lon="6.72937">
        <ele>2774.6000976562</ele>
        <time>2020-01-08T11:45:11.000Z</time>
      </trkpt>
      <trkpt lat="45.66617" lon="6.72937">
        <ele>2774.8000488281</ele>
        <time>2020-01-08T11:45:16.000Z</time>
      </trkpt>
      <trkpt lat="45.66617" lon="6.72935">
        <ele>2775.1999511719</ele>
        <time>2020-01-08T11:45:24.000Z</time>
      </trkpt>
      <trkpt lat="45.66618" lon="6.7293">
        <ele>2776</ele>
        <time>2020-01-08T11:45:32.000Z</time>
      </trkpt>
      <trkpt lat="45.66618" lon="6.72929">
        <ele>2777.1999511719</ele>
        <time>2020-01-08T11:45:36.000Z</time>
      </trkpt>
      <trkpt lat="45.66618" lon="6.72926">
        <ele>2777.6000976562</ele>
        <time>2020-01-08T11:45:39.000Z</time>
      </trkpt>
      <trkpt lat="45.66618" lon="6.72925">
        <ele>2778.3999023438</ele>
        <time>2020-01-08T11:45:42.000Z</time>
      </trkpt>
      <trkpt lat="45.66618" lon="6.72925">
        <ele>2778.8000488281</ele>
        <time>2020-01-08T11:45:44.000Z</time>
      </trkpt>
      <trkpt lat="45.66618" lon="6.72925">
        <ele>2779</ele>
        <time>2020-01-08T11:45:45.000Z</time>
      </trkpt>
      <trkpt lat="45.66618" lon="6.72925">
        <ele>2779.3999023438</ele>
        <time>2020-01-08T11:45:49.000Z</time>
      </trkpt>
      <trkpt lat="45.66618" lon="6.72925">
        <ele>2779.3999023438</ele>
        <time>2020-01-08T11:46:00.000Z</time>
      </trkpt>
      <trkpt lat="45.66618" lon="6.72925">
        <ele>2779.6000976562</ele>
        <time>2020-01-08T11:46:14.000Z</time>
      </trkpt>
      <trkpt lat="45.66618" lon="6.72924">
        <ele>2779.3999023438</ele>
        <time>2020-01-08T11:46:27.000Z</time>
      </trkpt>
      <trkpt lat="45.66618" lon="6.72924">
        <ele>2779.8000488281</ele>
        <time>2020-01-08T11:46:42.000Z</time>
      </trkpt>
      <trkpt lat="45.66618" lon="6.72922">
        <ele>2780</ele>
        <time>2020-01-08T11:46:49.000Z</time>
      </trkpt>
      <trkpt lat="45.66618" lon="6.72918">
        <ele>2780.3999023438</ele>
        <time>2020-01-08T11:46:53.000Z</time>
      </trkpt>
      <trkpt lat="45.66618" lon="6.72918">
        <ele>2781.1999511719</ele>
        <time>2020-01-08T11:46:56.000Z</time>
      </trkpt>
      <trkpt lat="45.66618" lon="6.72916">
        <ele>2781.6000976562</ele>
        <time>2020-01-08T11:46:57.000Z</time>
      </trkpt>
      <trkpt lat="45.66618" lon="6.72915">
        <ele>2782.3999023438</ele>
        <time>2020-01-08T11:47:01.000Z</time>
      </trkpt>
      <trkpt lat="45.66618" lon="6.72915">
        <ele>2782.6000976562</ele>
        <time>2020-01-08T11:47:02.000Z</time>
      </trkpt>
      <trkpt lat="45.66619" lon="6.72913">
        <ele>2783.3999023438</ele>
        <time>2020-01-08T11:47:08.000Z</time>
      </trkpt>
      <trkpt lat="45.66619" lon="6.72913">
        <ele>2783.6000976562</ele>
        <time>2020-01-08T11:47:09.000Z</time>
      </trkpt>
      <trkpt lat="45.66618" lon="6.72911">
        <ele>2784.3999023438</ele>
        <time>2020-01-08T11:47:13.000Z</time>
      </trkpt>
      <trkpt lat="45.66619" lon="6.72909">
        <ele>2784.8000488281</ele>
        <time>2020-01-08T11:47:16.000Z</time>
      </trkpt>
      <trkpt lat="45.6662" lon="6.72908">
        <ele>2785</ele>
        <time>2020-01-08T11:47:18.000Z</time>
      </trkpt>
      <trkpt lat="45.6662" lon="6.72907">
        <ele>2785.8000488281</ele>
        <time>2020-01-08T11:47:24.000Z</time>
      </trkpt>
      <trkpt lat="45.6662" lon="6.72907">
        <ele>2786</ele>
        <time>2020-01-08T11:47:26.000Z</time>
      </trkpt>
      <trkpt lat="45.6662" lon="6.72907">
        <ele>2786.3999023438</ele>
        <time>2020-01-08T11:47:40.000Z</time>
      </trkpt>
      <trkpt lat="45.66619" lon="6.72906">
        <ele>2786.3999023438</ele>
        <time>2020-01-08T11:47:46.000Z</time>
      </trkpt>
      <trkpt lat="45.66619" lon="6.72905">
        <ele>2786.3999023438</ele>
        <time>2020-01-08T11:47:48.000Z</time>
      </trkpt>
      <trkpt lat="45.66619" lon="6.72903">
        <ele>2787</ele>
        <time>2020-01-08T11:47:50.000Z</time>
      </trkpt>
      <trkpt lat="45.66619" lon="6.72903">
        <ele>2787.3999023438</ele>
        <time>2020-01-08T11:47:52.000Z</time>
      </trkpt>
      <trkpt lat="45.66619" lon="6.72903">
        <ele>2788</ele>
        <time>2020-01-08T11:47:55.000Z</time>
      </trkpt>
      <trkpt lat="45.66619" lon="6.72902">
        <ele>2788.6000976562</ele>
        <time>2020-01-08T11:48:01.000Z</time>
      </trkpt>
      <trkpt lat="45.66619" lon="6.729">
        <ele>2788.6000976562</ele>
        <time>2020-01-08T11:48:07.000Z</time>
      </trkpt>
      <trkpt lat="45.66619" lon="6.72899">
        <ele>2789.1999511719</ele>
        <time>2020-01-08T11:48:09.000Z</time>
      </trkpt>
      <trkpt lat="45.6662" lon="6.72898">
        <ele>2790</ele>
        <time>2020-01-08T11:48:13.000Z</time>
      </trkpt>
      <trkpt lat="45.6662" lon="6.72898">
        <ele>2790.3999023438</ele>
        <time>2020-01-08T11:48:16.000Z</time>
      </trkpt>
      <trkpt lat="45.6662" lon="6.72898">
        <ele>2791.6000976562</ele>
        <time>2020-01-08T11:48:20.000Z</time>
      </trkpt>
      <trkpt lat="45.6662" lon="6.72897">
        <ele>2791.8000488281</ele>
        <time>2020-01-08T11:48:21.000Z</time>
      </trkpt>
      <trkpt lat="45.6662" lon="6.72895">
        <ele>2792.6000976562</ele>
        <time>2020-01-08T11:48:28.000Z</time>
      </trkpt>
      <trkpt lat="45.6662" lon="6.72894">
        <ele>2793.8000488281</ele>
        <time>2020-01-08T11:48:41.000Z</time>
      </trkpt>
      <trkpt lat="45.6662" lon="6.72892">
        <ele>2794.1999511719</ele>
        <time>2020-01-08T11:48:46.000Z</time>
      </trkpt>
      <trkpt lat="45.6662" lon="6.72891">
        <ele>2795</ele>
        <time>2020-01-08T11:48:50.000Z</time>
      </trkpt>
      <trkpt lat="45.66621" lon="6.72889">
        <ele>2795.3999023438</ele>
        <time>2020-01-08T11:48:52.000Z</time>
      </trkpt>
      <trkpt lat="45.66621" lon="6.72888">
        <ele>2796</ele>
        <time>2020-01-08T11:48:55.000Z</time>
      </trkpt>
      <trkpt lat="45.66621" lon="6.72887">
        <ele>2796.1999511719</ele>
        <time>2020-01-08T11:48:57.000Z</time>
      </trkpt>
      <trkpt lat="45.66621" lon="6.72887">
        <ele>2797</ele>
        <time>2020-01-08T11:49:02.000Z</time>
      </trkpt>
      <trkpt lat="45.66621" lon="6.72887">
        <ele>2797.6000976562</ele>
        <time>2020-01-08T11:49:10.000Z</time>
      </trkpt>
      <trkpt lat="45.6662" lon="6.72884">
        <ele>2798.1999511719</ele>
        <time>2020-01-08T11:49:14.000Z</time>
      </trkpt>
      <trkpt lat="45.6662" lon="6.72883">
        <ele>2798.8000488281</ele>
        <time>2020-01-08T11:49:19.000Z</time>
      </trkpt>
      <trkpt lat="45.6662" lon="6.72882">
        <ele>2799.1999511719</ele>
        <time>2020-01-08T11:49:24.000Z</time>
      </trkpt>
      <trkpt lat="45.6662" lon="6.72882">
        <ele>2799.3999023438</ele>
        <time>2020-01-08T11:49:25.000Z</time>
      </trkpt>
      <trkpt lat="45.6662" lon="6.72882">
        <ele>2800.1999511719</ele>
        <time>2020-01-08T11:49:29.000Z</time>
      </trkpt>
      <trkpt lat="45.6662" lon="6.72881">
        <ele>2800.1999511719</ele>
        <time>2020-01-08T11:49:42.000Z</time>
      </trkpt>
      <trkpt lat="45.6662" lon="6.72881">
        <ele>2801</ele>
        <time>2020-01-08T11:49:52.000Z</time>
      </trkpt>
      <trkpt lat="45.6662" lon="6.72881">
        <ele>2801.1999511719</ele>
        <time>2020-01-08T11:49:56.000Z</time>
      </trkpt>
      <trkpt lat="45.6662" lon="6.7288">
        <ele>2801.1999511719</ele>
        <time>2020-01-08T11:50:04.000Z</time>
      </trkpt>
      <trkpt lat="45.6662" lon="6.7288">
        <ele>2801.3999023438</ele>
        <time>2020-01-08T11:50:05.000Z</time>
      </trkpt>
      <trkpt lat="45.6662" lon="6.7288">
        <ele>2802.3999023438</ele>
        <time>2020-01-08T11:50:12.000Z</time>
      </trkpt>
      <trkpt lat="45.6662" lon="6.7288">
        <ele>2802.3999023438</ele>
        <time>2020-01-08T11:50:13.000Z</time>
      </trkpt>
      <trkpt lat="45.6662" lon="6.72878">
        <ele>2802.6000976562</ele>
        <time>2020-01-08T11:50:21.000Z</time>
      </trkpt>
      <trkpt lat="45.6662" lon="6.72877">
        <ele>2803.3999023438</ele>
        <time>2020-01-08T11:50:28.000Z</time>
      </trkpt>
      <trkpt lat="45.6662" lon="6.72877">
        <ele>2803.3999023438</ele>
        <time>2020-01-08T11:50:29.000Z</time>
      </trkpt>
      <trkpt lat="45.6662" lon="6.72877">
        <ele>2804.3999023438</ele>
        <time>2020-01-08T11:50:35.000Z</time>
      </trkpt>
      <trkpt lat="45.6662" lon="6.72877">
        <ele>2804.6000976562</ele>
        <time>2020-01-08T11:50:37.000Z</time>
      </trkpt>
      <trkpt lat="45.6662" lon="6.72877">
        <ele>2805.1999511719</ele>
        <time>2020-01-08T11:50:42.000Z</time>
      </trkpt>
      <trkpt lat="45.6662" lon="6.72877">
        <ele>2805.3999023438</ele>
        <time>2020-01-08T11:50:47.000Z</time>
      </trkpt>
      <trkpt lat="45.6662" lon="6.72877">
        <ele>2805.3999023438</ele>
        <time>2020-01-08T11:50:50.000Z</time>
      </trkpt>
      <trkpt lat="45.6662" lon="6.72877">
        <ele>2805.8000488281</ele>
        <time>2020-01-08T11:50:53.000Z</time>
      </trkpt>
      <trkpt lat="45.6662" lon="6.72877">
        <ele>2806.3999023438</ele>
        <time>2020-01-08T11:50:59.000Z</time>
      </trkpt>
      <trkpt lat="45.6662" lon="6.72877">
        <ele>2806.6000976562</ele>
        <time>2020-01-08T11:51:05.000Z</time>
      </trkpt>
      <trkpt lat="45.6662" lon="6.72877">
        <ele>2806.6000976562</ele>
        <time>2020-01-08T11:51:07.000Z</time>
      </trkpt>
      <trkpt lat="45.66619" lon="6.72875">
        <ele>2807.1999511719</ele>
        <time>2020-01-08T11:51:12.000Z</time>
      </trkpt>
      <trkpt lat="45.66619" lon="6.72872">
        <ele>2807.6000976562</ele>
        <time>2020-01-08T11:51:14.000Z</time>
      </trkpt>
      <trkpt lat="45.66618" lon="6.72871">
        <ele>2808</ele>
        <time>2020-01-08T11:51:18.000Z</time>
      </trkpt>
      <trkpt lat="45.66618" lon="6.72869">
        <ele>2808.6000976562</ele>
        <time>2020-01-08T11:51:24.000Z</time>
      </trkpt>
      <trkpt lat="45.66618" lon="6.72869">
        <ele>2808.6000976562</ele>
        <time>2020-01-08T11:51:25.000Z</time>
      </trkpt>
      <trkpt lat="45.66618" lon="6.72868">
        <ele>2809.6000976562</ele>
        <time>2020-01-08T11:51:29.000Z</time>
      </trkpt>
      <trkpt lat="45.66618" lon="6.72867">
        <ele>2810</ele>
        <time>2020-01-08T11:51:31.000Z</time>
      </trkpt>
      <trkpt lat="45.66618" lon="6.72866">
        <ele>2810.8000488281</ele>
        <time>2020-01-08T11:51:35.000Z</time>
      </trkpt>
      <trkpt lat="45.66618" lon="6.72866">
        <ele>2811.1999511719</ele>
        <time>2020-01-08T11:51:37.000Z</time>
      </trkpt>
      <trkpt lat="45.66618" lon="6.72864">
        <ele>2812</ele>
        <time>2020-01-08T11:51:45.000Z</time>
      </trkpt>
      <trkpt lat="45.66618" lon="6.72864">
        <ele>2812.3999023438</ele>
        <time>2020-01-08T11:51:47.000Z</time>
      </trkpt>
      <trkpt lat="45.66618" lon="6.72864">
        <ele>2812.6000976562</ele>
        <time>2020-01-08T11:52:05.000Z</time>
      </trkpt>
      <trkpt lat="45.66618" lon="6.72864">
        <ele>2813</ele>
        <time>2020-01-08T11:52:08.000Z</time>
      </trkpt>
      <trkpt lat="45.66618" lon="6.72862">
        <ele>2812.8000488281</ele>
        <time>2020-01-08T11:52:18.000Z</time>
      </trkpt>
      <trkpt lat="45.66618" lon="6.72855">
        <ele>2813.8000488281</ele>
        <time>2020-01-08T11:52:24.000Z</time>
      </trkpt>
      <trkpt lat="45.66619" lon="6.72853">
        <ele>2814</ele>
        <time>2020-01-08T11:52:26.000Z</time>
      </trkpt>
      <trkpt lat="45.66619" lon="6.72851">
        <ele>2814.3999023438</ele>
        <time>2020-01-08T11:52:30.000Z</time>
      </trkpt>
      <trkpt lat="45.66619" lon="6.72851">
        <ele>2815.1999511719</ele>
        <time>2020-01-08T11:52:36.000Z</time>
      </trkpt>
      <trkpt lat="45.66619" lon="6.72851">
        <ele>2815.6000976562</ele>
        <time>2020-01-08T11:52:38.000Z</time>
      </trkpt>
      <trkpt lat="45.66619" lon="6.72851">
        <ele>2815</ele>
        <time>2020-01-08T11:52:41.000Z</time>
      </trkpt>
      <trkpt lat="45.66619" lon="6.7285">
        <ele>2816</ele>
        <time>2020-01-08T11:52:49.000Z</time>
      </trkpt>
      <trkpt lat="45.66619" lon="6.7285">
        <ele>2816</ele>
        <time>2020-01-08T11:52:54.000Z</time>
      </trkpt>
      <trkpt lat="45.66619" lon="6.7285">
        <ele>2816.3999023438</ele>
        <time>2020-01-08T11:52:59.000Z</time>
      </trkpt>
      <trkpt lat="45.66619" lon="6.7285">
        <ele>2817</ele>
        <time>2020-01-08T11:53:01.000Z</time>
      </trkpt>
      <trkpt lat="45.66619" lon="6.7285">
        <ele>2817.3999023438</ele>
        <time>2020-01-08T11:53:02.000Z</time>
      </trkpt>
      <trkpt lat="45.66619" lon="6.7285">
        <ele>2817.3999023438</ele>
        <time>2020-01-08T11:53:07.000Z</time>
      </trkpt>
      <trkpt lat="45.66619" lon="6.7285">
        <ele>2818.1999511719</ele>
        <time>2020-01-08T11:53:13.000Z</time>
      </trkpt>
      <trkpt lat="45.66619" lon="6.7285">
        <ele>2818.3999023438</ele>
        <time>2020-01-08T11:53:18.000Z</time>
      </trkpt>
      <trkpt lat="45.66619" lon="6.7285">
        <ele>2818.3999023438</ele>
        <time>2020-01-08T11:53:21.000Z</time>
      </trkpt>
      <trkpt lat="45.66619" lon="6.7285">
        <ele>2819.6000976562</ele>
        <time>2020-01-08T11:53:28.000Z</time>
      </trkpt>
      <trkpt lat="45.66619" lon="6.7285">
        <ele>2819.3999023438</ele>
        <time>2020-01-08T11:53:36.000Z</time>
      </trkpt>
      <trkpt lat="45.66619" lon="6.7285">
        <ele>2819.3999023438</ele>
        <time>2020-01-08T11:53:51.000Z</time>
      </trkpt>
      <trkpt lat="45.6662" lon="6.72847">
        <ele>2819.6000976562</ele>
        <time>2020-01-08T11:54:07.000Z</time>
      </trkpt>
      <trkpt lat="45.6662" lon="6.72847">
        <ele>2819.8000488281</ele>
        <time>2020-01-08T11:54:19.000Z</time>
      </trkpt>
      <trkpt lat="45.6662" lon="6.72843">
        <ele>2820.6000976562</ele>
        <time>2020-01-08T11:54:23.000Z</time>
      </trkpt>
      <trkpt lat="45.6662" lon="6.72843">
        <ele>2820.6000976562</ele>
        <time>2020-01-08T11:54:24.000Z</time>
      </trkpt>
      <trkpt lat="45.66621" lon="6.72841">
        <ele>2820.3999023438</ele>
        <time>2020-01-08T11:54:31.000Z</time>
      </trkpt>
      <trkpt lat="45.66621" lon="6.72838">
        <ele>2820.6000976562</ele>
        <time>2020-01-08T11:54:36.000Z</time>
      </trkpt>
      <trkpt lat="45.66621" lon="6.72838">
        <ele>2821.1999511719</ele>
        <time>2020-01-08T11:54:41.000Z</time>
      </trkpt>
      <trkpt lat="45.66622" lon="6.72837">
        <ele>2821.8000488281</ele>
        <time>2020-01-08T11:54:43.000Z</time>
      </trkpt>
      <trkpt lat="45.66622" lon="6.72837">
        <ele>2822</ele>
        <time>2020-01-08T11:54:50.000Z</time>
      </trkpt>
      <trkpt lat="45.66621" lon="6.72836">
        <ele>2822.6000976562</ele>
        <time>2020-01-08T11:54:57.000Z</time>
      </trkpt>
      <trkpt lat="45.66621" lon="6.72836">
        <ele>2822.8000488281</ele>
        <time>2020-01-08T11:54:58.000Z</time>
      </trkpt>
      <trkpt lat="45.66621" lon="6.72836">
        <ele>2823.6000976562</ele>
        <time>2020-01-08T11:55:10.000Z</time>
      </trkpt>
      <trkpt lat="45.66621" lon="6.72836">
        <ele>2823.6000976562</ele>
        <time>2020-01-08T11:55:25.000Z</time>
      </trkpt>
      <trkpt lat="45.6662" lon="6.72832">
        <ele>2823.6000976562</ele>
        <time>2020-01-08T11:55:29.000Z</time>
      </trkpt>
      <trkpt lat="45.6662" lon="6.72832">
        <ele>2823.8000488281</ele>
        <time>2020-01-08T11:55:30.000Z</time>
      </trkpt>
      <trkpt lat="45.66619" lon="6.72826">
        <ele>2825</ele>
        <time>2020-01-08T11:55:35.000Z</time>
      </trkpt>
      <trkpt lat="45.66619" lon="6.72822">
        <ele>2826</ele>
        <time>2020-01-08T11:55:40.000Z</time>
      </trkpt>
      <trkpt lat="45.66619" lon="6.72822">
        <ele>2826.1999511719</ele>
        <time>2020-01-08T11:55:41.000Z</time>
      </trkpt>
      <trkpt lat="45.66619" lon="6.72821">
        <ele>2827</ele>
        <time>2020-01-08T11:55:48.000Z</time>
      </trkpt>
      <trkpt lat="45.66619" lon="6.72821">
        <ele>2827</ele>
        <time>2020-01-08T11:55:49.000Z</time>
      </trkpt>
      <trkpt lat="45.66619" lon="6.72821">
        <ele>2827.1999511719</ele>
        <time>2020-01-08T11:56:03.000Z</time>
      </trkpt>
      <trkpt lat="45.66619" lon="6.72821">
        <ele>2827.1999511719</ele>
        <time>2020-01-08T11:56:20.000Z</time>
      </trkpt>
      <trkpt lat="45.66619" lon="6.72821">
        <ele>2827.1999511719</ele>
        <time>2020-01-08T11:56:36.000Z</time>
      </trkpt>
      <trkpt lat="45.66619" lon="6.72821">
        <ele>2827.1999511719</ele>
        <time>2020-01-08T11:56:55.000Z</time>
      </trkpt>
      <trkpt lat="45.66619" lon="6.7282">
        <ele>2827.3999023438</ele>
        <time>2020-01-08T11:57:05.000Z</time>
      </trkpt>
      <trkpt lat="45.66619" lon="6.7282">
        <ele>2827.3999023438</ele>
        <time>2020-01-08T11:57:19.000Z</time>
      </trkpt>
      <trkpt lat="45.66619" lon="6.7282">
        <ele>2827.1999511719</ele>
        <time>2020-01-08T11:57:25.000Z</time>
      </trkpt>
      <trkpt lat="45.66619" lon="6.72817">
        <ele>2827.6000976562</ele>
        <time>2020-01-08T11:57:30.000Z</time>
      </trkpt>
      <trkpt lat="45.66617" lon="6.72813">
        <ele>2828.1999511719</ele>
        <time>2020-01-08T11:57:33.000Z</time>
      </trkpt>
      <trkpt lat="45.66616" lon="6.72809">
        <ele>2828.8000488281</ele>
        <time>2020-01-08T11:57:36.000Z</time>
      </trkpt>
      <trkpt lat="45.66616" lon="6.72808">
        <ele>2829.1999511719</ele>
        <time>2020-01-08T11:57:38.000Z</time>
      </trkpt>
      <trkpt lat="45.66615" lon="6.72806">
        <ele>2829.8000488281</ele>
        <time>2020-01-08T11:57:41.000Z</time>
      </trkpt>
      <trkpt lat="45.66615" lon="6.72805">
        <ele>2830.3999023438</ele>
        <time>2020-01-08T11:57:44.000Z</time>
      </trkpt>
      <trkpt lat="45.66614" lon="6.72803">
        <ele>2830.6000976562</ele>
        <time>2020-01-08T11:57:46.000Z</time>
      </trkpt>
      <trkpt lat="45.66614" lon="6.72803">
        <ele>2831.3999023438</ele>
        <time>2020-01-08T11:57:51.000Z</time>
      </trkpt>
      <trkpt lat="45.66613" lon="6.72802">
        <ele>2832.3999023438</ele>
        <time>2020-01-08T11:57:55.000Z</time>
      </trkpt>
      <trkpt lat="45.66613" lon="6.72801">
        <ele>2832.6000976562</ele>
        <time>2020-01-08T11:57:56.000Z</time>
      </trkpt>
      <trkpt lat="45.66613" lon="6.72799">
        <ele>2833.3999023438</ele>
        <time>2020-01-08T11:58:00.000Z</time>
      </trkpt>
      <trkpt lat="45.66613" lon="6.72799">
        <ele>2833.6000976562</ele>
        <time>2020-01-08T11:58:01.000Z</time>
      </trkpt>
      <trkpt lat="45.66612" lon="6.72797">
        <ele>2834.1999511719</ele>
        <time>2020-01-08T11:58:06.000Z</time>
      </trkpt>
      <trkpt lat="45.66612" lon="6.72797">
        <ele>2834.6000976562</ele>
        <time>2020-01-08T11:58:10.000Z</time>
      </trkpt>
      <trkpt lat="45.66612" lon="6.72797">
        <ele>2835.1999511719</ele>
        <time>2020-01-08T11:58:18.000Z</time>
      </trkpt>
      <trkpt lat="45.66612" lon="6.72797">
        <ele>2835</ele>
        <time>2020-01-08T11:58:23.000Z</time>
      </trkpt>
      <trkpt lat="45.66612" lon="6.72797">
        <ele>2835.1999511719</ele>
        <time>2020-01-08T11:58:37.000Z</time>
      </trkpt>
      <trkpt lat="45.66612" lon="6.72796">
        <ele>2835.6000976562</ele>
        <time>2020-01-08T11:58:52.000Z</time>
      </trkpt>
      <trkpt lat="45.66611" lon="6.72796">
        <ele>2835.6000976562</ele>
        <time>2020-01-08T11:58:55.000Z</time>
      </trkpt>
      <trkpt lat="45.66611" lon="6.72795">
        <ele>2835.6000976562</ele>
        <time>2020-01-08T11:58:57.000Z</time>
      </trkpt>
      <trkpt lat="45.66611" lon="6.72792">
        <ele>2836.6000976562</ele>
        <time>2020-01-08T11:59:03.000Z</time>
      </trkpt>
      <trkpt lat="45.6661" lon="6.72791">
        <ele>2836.8000488281</ele>
        <time>2020-01-08T11:59:04.000Z</time>
      </trkpt>
      <trkpt lat="45.6661" lon="6.72791">
        <ele>2837.6000976562</ele>
        <time>2020-01-08T11:59:08.000Z</time>
      </trkpt>
      <trkpt lat="45.6661" lon="6.72791">
        <ele>2838.3999023438</ele>
        <time>2020-01-08T11:59:14.000Z</time>
      </trkpt>
      <trkpt lat="45.66609" lon="6.72789">
        <ele>2838.8000488281</ele>
        <time>2020-01-08T11:59:16.000Z</time>
      </trkpt>
      <trkpt lat="45.66609" lon="6.72789">
        <ele>2839.6000976562</ele>
        <time>2020-01-08T11:59:20.000Z</time>
      </trkpt>
      <trkpt lat="45.66609" lon="6.72789">
        <ele>2839.8000488281</ele>
        <time>2020-01-08T11:59:23.000Z</time>
      </trkpt>
      <trkpt lat="45.66609" lon="6.72789">
        <ele>2839.8000488281</ele>
        <time>2020-01-08T11:59:31.000Z</time>
      </trkpt>
      <trkpt lat="45.66609" lon="6.72789">
        <ele>2840.1999511719</ele>
        <time>2020-01-08T11:59:36.000Z</time>
      </trkpt>
      <trkpt lat="45.66609" lon="6.72789">
        <ele>2841</ele>
        <time>2020-01-08T11:59:39.000Z</time>
      </trkpt>
      <trkpt lat="45.66609" lon="6.72789">
        <ele>2841.1999511719</ele>
        <time>2020-01-08T11:59:41.000Z</time>
      </trkpt>
      <trkpt lat="45.66609" lon="6.72789">
        <ele>2841.6000976562</ele>
        <time>2020-01-08T11:59:49.000Z</time>
      </trkpt>
      <trkpt lat="45.66609" lon="6.72789">
        <ele>2842</ele>
        <time>2020-01-08T11:59:53.000Z</time>
      </trkpt>
      <trkpt lat="45.66608" lon="6.72788">
        <ele>2842.6000976562</ele>
        <time>2020-01-08T11:59:56.000Z</time>
      </trkpt>
      <trkpt lat="45.66608" lon="6.72788">
        <ele>2843</ele>
        <time>2020-01-08T12:00:00.000Z</time>
      </trkpt>
      <trkpt lat="45.66608" lon="6.72788">
        <ele>2843</ele>
        <time>2020-01-08T12:00:01.000Z</time>
      </trkpt>
      <trkpt lat="45.66608" lon="6.72786">
        <ele>2843.1999511719</ele>
        <time>2020-01-08T12:00:10.000Z</time>
      </trkpt>
      <trkpt lat="45.66608" lon="6.72786">
        <ele>2843.8000488281</ele>
        <time>2020-01-08T12:00:15.000Z</time>
      </trkpt>
      <trkpt lat="45.66608" lon="6.72786">
        <ele>2844</ele>
        <time>2020-01-08T12:00:19.000Z</time>
      </trkpt>
      <trkpt lat="45.66608" lon="6.72786">
        <ele>2844.1999511719</ele>
        <time>2020-01-08T12:00:27.000Z</time>
      </trkpt>
      <trkpt lat="45.66608" lon="6.72786">
        <ele>2844.3999023438</ele>
        <time>2020-01-08T12:00:38.000Z</time>
      </trkpt>
      <trkpt lat="45.66608" lon="6.72782">
        <ele>2844.1999511719</ele>
        <time>2020-01-08T12:00:47.000Z</time>
      </trkpt>
      <trkpt lat="45.66608" lon="6.72782">
        <ele>2845</ele>
        <time>2020-01-08T12:00:50.000Z</time>
      </trkpt>
      <trkpt lat="45.66608" lon="6.72782">
        <ele>2845.6000976562</ele>
        <time>2020-01-08T12:00:56.000Z</time>
      </trkpt>
      <trkpt lat="45.66608" lon="6.72782">
        <ele>2846</ele>
        <time>2020-01-08T12:01:04.000Z</time>
      </trkpt>
      <trkpt lat="45.66608" lon="6.72782">
        <ele>2846.1999511719</ele>
        <time>2020-01-08T12:01:05.000Z</time>
      </trkpt>
      <trkpt lat="45.66608" lon="6.72782">
        <ele>2847</ele>
        <time>2020-01-08T12:01:12.000Z</time>
      </trkpt>
      <trkpt lat="45.66608" lon="6.72782">
        <ele>2847.3999023438</ele>
        <time>2020-01-08T12:01:13.000Z</time>
      </trkpt>
      <trkpt lat="45.66608" lon="6.72779">
        <ele>2847.8000488281</ele>
        <time>2020-01-08T12:01:19.000Z</time>
      </trkpt>
      <trkpt lat="45.66608" lon="6.72779">
        <ele>2848.1999511719</ele>
        <time>2020-01-08T12:01:27.000Z</time>
      </trkpt>
      <trkpt lat="45.66608" lon="6.72779">
        <ele>2848.6000976562</ele>
        <time>2020-01-08T12:01:29.000Z</time>
      </trkpt>
      <trkpt lat="45.66608" lon="6.72779">
        <ele>2849.6000976562</ele>
        <time>2020-01-08T12:01:32.000Z</time>
      </trkpt>
      <trkpt lat="45.66608" lon="6.72779">
        <ele>2849.1999511719</ele>
        <time>2020-01-08T12:01:37.000Z</time>
      </trkpt>
      <trkpt lat="45.66608" lon="6.72779">
        <ele>2849.1999511719</ele>
        <time>2020-01-08T12:01:47.000Z</time>
      </trkpt>
      <trkpt lat="45.66608" lon="6.72779">
        <ele>2850.8000488281</ele>
        <time>2020-01-08T12:01:57.000Z</time>
      </trkpt>
      <trkpt lat="45.66608" lon="6.72778">
        <ele>2851</ele>
        <time>2020-01-08T12:01:58.000Z</time>
      </trkpt>
      <trkpt lat="45.66609" lon="6.72771">
        <ele>2851.8000488281</ele>
        <time>2020-01-08T12:02:06.000Z</time>
      </trkpt>
      <trkpt lat="45.66609" lon="6.72769">
        <ele>2852.8000488281</ele>
        <time>2020-01-08T12:02:14.000Z</time>
      </trkpt>
      <trkpt lat="45.66609" lon="6.72767">
        <ele>2852.8000488281</ele>
        <time>2020-01-08T12:02:23.000Z</time>
      </trkpt>
      <trkpt lat="45.66609" lon="6.72767">
        <ele>2853</ele>
        <time>2020-01-08T12:02:29.000Z</time>
      </trkpt>
      <trkpt lat="45.66609" lon="6.72766">
        <ele>2853</ele>
        <time>2020-01-08T12:02:30.000Z</time>
      </trkpt>
      <trkpt lat="45.66611" lon="6.72762">
        <ele>2853.8000488281</ele>
        <time>2020-01-08T12:02:38.000Z</time>
      </trkpt>
      <trkpt lat="45.66612" lon="6.7276">
        <ele>2854</ele>
        <time>2020-01-08T12:02:41.000Z</time>
      </trkpt>
      <trkpt lat="45.66612" lon="6.72757">
        <ele>2854.6000976562</ele>
        <time>2020-01-08T12:02:44.000Z</time>
      </trkpt>
      <trkpt lat="45.66612" lon="6.72756">
        <ele>2855.1999511719</ele>
        <time>2020-01-08T12:02:47.000Z</time>
      </trkpt>
      <trkpt lat="45.66611" lon="6.72754">
        <ele>2855.3999023438</ele>
        <time>2020-01-08T12:02:49.000Z</time>
      </trkpt>
      <trkpt lat="45.66611" lon="6.72752">
        <ele>2856</ele>
        <time>2020-01-08T12:02:54.000Z</time>
      </trkpt>
      <trkpt lat="45.66611" lon="6.72751">
        <ele>2856.1999511719</ele>
        <time>2020-01-08T12:02:56.000Z</time>
      </trkpt>
      <trkpt lat="45.66611" lon="6.72751">
        <ele>2857</ele>
        <time>2020-01-08T12:03:01.000Z</time>
      </trkpt>
      <trkpt lat="45.66611" lon="6.72751">
        <ele>2857</ele>
        <time>2020-01-08T12:03:13.000Z</time>
      </trkpt>
      <trkpt lat="45.66611" lon="6.72751">
        <ele>2857.3999023438</ele>
        <time>2020-01-08T12:03:25.000Z</time>
      </trkpt>
      <trkpt lat="45.66611" lon="6.72751">
        <ele>2857.3999023438</ele>
        <time>2020-01-08T12:03:28.000Z</time>
      </trkpt>
      <trkpt lat="45.66611" lon="6.72751">
        <ele>2857.1999511719</ele>
        <time>2020-01-08T12:03:40.000Z</time>
      </trkpt>
      <trkpt lat="45.66611" lon="6.72751">
        <ele>2856.3999023438</ele>
        <time>2020-01-08T12:03:49.000Z</time>
      </trkpt>
      <trkpt lat="45.66611" lon="6.72751">
        <ele>2857</ele>
        <time>2020-01-08T12:04:04.000Z</time>
      </trkpt>
      <trkpt lat="45.66611" lon="6.7275">
        <ele>2857.3999023438</ele>
        <time>2020-01-08T12:04:24.000Z</time>
      </trkpt>
      <trkpt lat="45.66611" lon="6.7275">
        <ele>2857.1999511719</ele>
        <time>2020-01-08T12:04:38.000Z</time>
      </trkpt>
      <trkpt lat="45.66611" lon="6.7275">
        <ele>2857.3999023438</ele>
        <time>2020-01-08T12:04:59.000Z</time>
      </trkpt>
      <trkpt lat="45.66611" lon="6.7275">
        <ele>2857.3999023438</ele>
        <time>2020-01-08T12:05:09.000Z</time>
      </trkpt>
      <trkpt lat="45.66611" lon="6.7275">
        <ele>2857.3999023438</ele>
        <time>2020-01-08T12:05:17.000Z</time>
      </trkpt>
      <trkpt lat="45.66611" lon="6.7275">
        <ele>2857.3999023438</ele>
        <time>2020-01-08T12:05:29.000Z</time>
      </trkpt>
      <trkpt lat="45.66612" lon="6.72748">
        <ele>2857.3999023438</ele>
        <time>2020-01-08T12:05:38.000Z</time>
      </trkpt>
      <trkpt lat="45.66612" lon="6.72748">
        <ele>2857.3999023438</ele>
        <time>2020-01-08T12:05:48.000Z</time>
      </trkpt>
      <trkpt lat="45.66612" lon="6.72748">
        <ele>2858</ele>
        <time>2020-01-08T12:05:57.000Z</time>
      </trkpt>
      <trkpt lat="45.66612" lon="6.72748">
        <ele>2857.3999023438</ele>
        <time>2020-01-08T12:06:08.000Z</time>
      </trkpt>
      <trkpt lat="45.66612" lon="6.72748">
        <ele>2857.6000976562</ele>
        <time>2020-01-08T12:06:18.000Z</time>
      </trkpt>
      <trkpt lat="45.66612" lon="6.72748">
        <ele>2857.6000976562</ele>
        <time>2020-01-08T12:06:32.000Z</time>
      </trkpt>
      <trkpt lat="45.66612" lon="6.72748">
        <ele>2857.8000488281</ele>
        <time>2020-01-08T12:06:52.000Z</time>
      </trkpt>
      <trkpt lat="45.66612" lon="6.72748">
        <ele>2856.3999023438</ele>
        <time>2020-01-08T12:07:00.000Z</time>
      </trkpt>
      <trkpt lat="45.66612" lon="6.72748">
        <ele>2857.1999511719</ele>
        <time>2020-01-08T12:07:16.000Z</time>
      </trkpt>
      <trkpt lat="45.66612" lon="6.72748">
        <ele>2857.6000976562</ele>
        <time>2020-01-08T12:07:30.000Z</time>
      </trkpt>
      <trkpt lat="45.66612" lon="6.72747">
        <ele>2857.6000976562</ele>
        <time>2020-01-08T12:07:39.000Z</time>
      </trkpt>
      <trkpt lat="45.66612" lon="6.72747">
        <ele>2857.6000976562</ele>
        <time>2020-01-08T12:07:48.000Z</time>
      </trkpt>
      <trkpt lat="45.66612" lon="6.72747">
        <ele>2857.1999511719</ele>
        <time>2020-01-08T12:07:57.000Z</time>
      </trkpt>
      <trkpt lat="45.66612" lon="6.72747">
        <ele>2857.3999023438</ele>
        <time>2020-01-08T12:08:08.000Z</time>
      </trkpt>
      <trkpt lat="45.66612" lon="6.72747">
        <ele>2857.3999023438</ele>
        <time>2020-01-08T12:08:21.000Z</time>
      </trkpt>
      <trkpt lat="45.66612" lon="6.72747">
        <ele>2856.6000976562</ele>
        <time>2020-01-08T12:08:32.000Z</time>
      </trkpt>
      <trkpt lat="45.66612" lon="6.72747">
        <ele>2857</ele>
        <time>2020-01-08T12:08:47.000Z</time>
      </trkpt>
      <trkpt lat="45.66612" lon="6.72747">
        <ele>2857.1999511719</ele>
        <time>2020-01-08T12:08:58.000Z</time>
      </trkpt>
      <trkpt lat="45.66612" lon="6.72747">
        <ele>2857.3999023438</ele>
        <time>2020-01-08T12:09:12.000Z</time>
      </trkpt>
      <trkpt lat="45.66612" lon="6.72747">
        <ele>2857.6000976562</ele>
        <time>2020-01-08T12:09:30.000Z</time>
      </trkpt>
      <trkpt lat="45.66612" lon="6.72747">
        <ele>2857.6000976562</ele>
        <time>2020-01-08T12:09:44.000Z</time>
      </trkpt>
      <trkpt lat="45.66612" lon="6.72746">
        <ele>2857.1999511719</ele>
        <time>2020-01-08T12:09:57.000Z</time>
      </trkpt>
      <trkpt lat="45.66612" lon="6.72746">
        <ele>2857.6000976562</ele>
        <time>2020-01-08T12:10:08.000Z</time>
      </trkpt>
      <trkpt lat="45.66612" lon="6.72746">
        <ele>2857.6000976562</ele>
        <time>2020-01-08T12:10:24.000Z</time>
      </trkpt>
      <trkpt lat="45.66612" lon="6.72746">
        <ele>2857.3999023438</ele>
        <time>2020-01-08T12:10:38.000Z</time>
      </trkpt>
      <trkpt lat="45.66612" lon="6.72746">
        <ele>2857.6000976562</ele>
        <time>2020-01-08T12:10:52.000Z</time>
      </trkpt>
      <trkpt lat="45.66612" lon="6.72746">
        <ele>2857.6000976562</ele>
        <time>2020-01-08T12:11:05.000Z</time>
      </trkpt>
      <trkpt lat="45.66612" lon="6.72746">
        <ele>2857.8000488281</ele>
        <time>2020-01-08T12:11:26.000Z</time>
      </trkpt>
      <trkpt lat="45.66612" lon="6.72746">
        <ele>2857.6000976562</ele>
        <time>2020-01-08T12:11:43.000Z</time>
      </trkpt>
      <trkpt lat="45.66612" lon="6.72746">
        <ele>2857.8000488281</ele>
        <time>2020-01-08T12:12:01.000Z</time>
      </trkpt>
      <trkpt lat="45.66612" lon="6.72746">
        <ele>2857.8000488281</ele>
        <time>2020-01-08T12:12:14.000Z</time>
      </trkpt>
      <trkpt lat="45.66612" lon="6.72746">
        <ele>2858.3999023438</ele>
        <time>2020-01-08T12:12:18.000Z</time>
      </trkpt>
      <trkpt lat="45.66612" lon="6.72746">
        <ele>2858</ele>
        <time>2020-01-08T12:12:26.000Z</time>
      </trkpt>
      <trkpt lat="45.66612" lon="6.72746">
        <ele>2857.8000488281</ele>
        <time>2020-01-08T12:12:41.000Z</time>
      </trkpt>
      <trkpt lat="45.66612" lon="6.72746">
        <ele>2858.3999023438</ele>
        <time>2020-01-08T12:12:48.000Z</time>
      </trkpt>
      <trkpt lat="45.66612" lon="6.72746">
        <ele>2857.8000488281</ele>
        <time>2020-01-08T12:13:01.000Z</time>
      </trkpt>
      <trkpt lat="45.66612" lon="6.72746">
        <ele>2857.8000488281</ele>
        <time>2020-01-08T12:13:15.000Z</time>
      </trkpt>
      <trkpt lat="45.66612" lon="6.72746">
        <ele>2857.8000488281</ele>
        <time>2020-01-08T12:13:32.000Z</time>
      </trkpt>
      <trkpt lat="45.66612" lon="6.72746">
        <ele>2857.8000488281</ele>
        <time>2020-01-08T12:13:51.000Z</time>
      </trkpt>
      <trkpt lat="45.66612" lon="6.72746">
        <ele>2857.8000488281</ele>
        <time>2020-01-08T12:14:07.000Z</time>
      </trkpt>
      <trkpt lat="45.66612" lon="6.72746">
        <ele>2857.6000976562</ele>
        <time>2020-01-08T12:14:25.000Z</time>
      </trkpt>
      <trkpt lat="45.66613" lon="6.72745">
        <ele>2857.8000488281</ele>
        <time>2020-01-08T12:14:31.000Z</time>
      </trkpt>
      <trkpt lat="45.66613" lon="6.72745">
        <ele>2857.6000976562</ele>
        <time>2020-01-08T12:14:40.000Z</time>
      </trkpt>
      <trkpt lat="45.66613" lon="6.72745">
        <ele>2857.1999511719</ele>
        <time>2020-01-08T12:14:41.000Z</time>
      </trkpt>
      <trkpt lat="45.66613" lon="6.72745">
        <ele>2857.3999023438</ele>
        <time>2020-01-08T12:14:53.000Z</time>
      </trkpt>
      <trkpt lat="45.66613" lon="6.72745">
        <ele>2857.6000976562</ele>
        <time>2020-01-08T12:15:12.000Z</time>
      </trkpt>
      <trkpt lat="45.66613" lon="6.72745">
        <ele>2857.6000976562</ele>
        <time>2020-01-08T12:15:18.000Z</time>
      </trkpt>
      <trkpt lat="45.66613" lon="6.72745">
        <ele>2857</ele>
        <time>2020-01-08T12:15:33.000Z</time>
      </trkpt>
      <trkpt lat="45.66613" lon="6.72745">
        <ele>2857</ele>
        <time>2020-01-08T12:15:50.000Z</time>
      </trkpt>
      <trkpt lat="45.66613" lon="6.72745">
        <ele>2857.1999511719</ele>
        <time>2020-01-08T12:16:05.000Z</time>
      </trkpt>
      <trkpt lat="45.66613" lon="6.72745">
        <ele>2857.1999511719</ele>
        <time>2020-01-08T12:16:27.000Z</time>
      </trkpt>
      <trkpt lat="45.66613" lon="6.72744">
        <ele>2858.1999511719</ele>
        <time>2020-01-08T12:16:46.000Z</time>
      </trkpt>
      <trkpt lat="45.66613" lon="6.72744">
        <ele>2856.8000488281</ele>
        <time>2020-01-08T12:16:57.000Z</time>
      </trkpt>
      <trkpt lat="45.66613" lon="6.72744">
        <ele>2857.1999511719</ele>
        <time>2020-01-08T12:17:13.000Z</time>
      </trkpt>
      <trkpt lat="45.66613" lon="6.72744">
        <ele>2857.3999023438</ele>
        <time>2020-01-08T12:17:36.000Z</time>
      </trkpt>
      <trkpt lat="45.66613" lon="6.72744">
        <ele>2857.3999023438</ele>
        <time>2020-01-08T12:17:56.000Z</time>
      </trkpt>
      <trkpt lat="45.66613" lon="6.72744">
        <ele>2857.8000488281</ele>
        <time>2020-01-08T12:18:07.000Z</time>
      </trkpt>
      <trkpt lat="45.66613" lon="6.72744">
        <ele>2857.8000488281</ele>
        <time>2020-01-08T12:18:17.000Z</time>
      </trkpt>
      <trkpt lat="45.66613" lon="6.72744">
        <ele>2858.3999023438</ele>
        <time>2020-01-08T12:18:18.000Z</time>
      </trkpt>
      <trkpt lat="45.66613" lon="6.72744">
        <ele>2857</ele>
        <time>2020-01-08T12:18:21.000Z</time>
      </trkpt>
      <trkpt lat="45.66613" lon="6.72744">
        <ele>2857.6000976562</ele>
        <time>2020-01-08T12:18:27.000Z</time>
      </trkpt>
      <trkpt lat="45.66613" lon="6.72744">
        <ele>2857.1999511719</ele>
        <time>2020-01-08T12:18:38.000Z</time>
      </trkpt>
      <trkpt lat="45.66613" lon="6.72744">
        <ele>2857.3999023438</ele>
        <time>2020-01-08T12:18:52.000Z</time>
      </trkpt>
      <trkpt lat="45.66613" lon="6.72744">
        <ele>2857.3999023438</ele>
        <time>2020-01-08T12:19:08.000Z</time>
      </trkpt>
      <trkpt lat="45.66613" lon="6.72744">
        <ele>2857.3999023438</ele>
        <time>2020-01-08T12:19:24.000Z</time>
      </trkpt>
      <trkpt lat="45.66613" lon="6.72744">
        <ele>2857.6000976562</ele>
        <time>2020-01-08T12:19:34.000Z</time>
      </trkpt>
      <trkpt lat="45.66613" lon="6.72744">
        <ele>2857.1999511719</ele>
        <time>2020-01-08T12:19:46.000Z</time>
      </trkpt>
      <trkpt lat="45.66613" lon="6.72744">
        <ele>2857.1999511719</ele>
        <time>2020-01-08T12:20:09.000Z</time>
      </trkpt>
      <trkpt lat="45.66613" lon="6.72744">
        <ele>2857.3999023438</ele>
        <time>2020-01-08T12:20:18.000Z</time>
      </trkpt>
      <trkpt lat="45.66613" lon="6.72744">
        <ele>2856.8000488281</ele>
        <time>2020-01-08T12:20:21.000Z</time>
      </trkpt>
      <trkpt lat="45.66613" lon="6.72744">
        <ele>2857.6000976562</ele>
        <time>2020-01-08T12:20:32.000Z</time>
      </trkpt>
      <trkpt lat="45.66613" lon="6.72744">
        <ele>2857.1999511719</ele>
        <time>2020-01-08T12:20:50.000Z</time>
      </trkpt>
      <trkpt lat="45.66613" lon="6.72744">
        <ele>2857.1999511719</ele>
        <time>2020-01-08T12:21:06.000Z</time>
      </trkpt>
      <trkpt lat="45.66613" lon="6.72744">
        <ele>2857.1999511719</ele>
        <time>2020-01-08T12:21:24.000Z</time>
      </trkpt>
      <trkpt lat="45.66613" lon="6.72744">
        <ele>2857</ele>
        <time>2020-01-08T12:21:36.000Z</time>
      </trkpt>
      <trkpt lat="45.66613" lon="6.72744">
        <ele>2857</ele>
        <time>2020-01-08T12:21:51.000Z</time>
      </trkpt>
      <trkpt lat="45.66613" lon="6.72744">
        <ele>2857</ele>
        <time>2020-01-08T12:22:06.000Z</time>
      </trkpt>
      <trkpt lat="45.66613" lon="6.72744">
        <ele>2857</ele>
        <time>2020-01-08T12:22:14.000Z</time>
      </trkpt>
      <trkpt lat="45.66613" lon="6.72744">
        <ele>2857.3999023438</ele>
        <time>2020-01-08T12:22:21.000Z</time>
      </trkpt>
      <trkpt lat="45.66613" lon="6.72744">
        <ele>2857</ele>
        <time>2020-01-08T12:22:31.000Z</time>
      </trkpt>
      <trkpt lat="45.66613" lon="6.72744">
        <ele>2857.8000488281</ele>
        <time>2020-01-08T12:22:44.000Z</time>
      </trkpt>
      <trkpt lat="45.66613" lon="6.72744">
        <ele>2858</ele>
        <time>2020-01-08T12:22:45.000Z</time>
      </trkpt>
      <trkpt lat="45.66613" lon="6.72744">
        <ele>2857.3999023438</ele>
        <time>2020-01-08T12:22:55.000Z</time>
      </trkpt>
      <trkpt lat="45.66613" lon="6.72744">
        <ele>2857.3999023438</ele>
        <time>2020-01-08T12:23:06.000Z</time>
      </trkpt>
      <trkpt lat="45.66613" lon="6.72744">
        <ele>2856.8000488281</ele>
        <time>2020-01-08T12:23:10.000Z</time>
      </trkpt>
      <trkpt lat="45.66613" lon="6.72744">
        <ele>2857.6000976562</ele>
        <time>2020-01-08T12:23:19.000Z</time>
      </trkpt>
      <trkpt lat="45.66613" lon="6.72744">
        <ele>2857.8000488281</ele>
        <time>2020-01-08T12:23:20.000Z</time>
      </trkpt>
      <trkpt lat="45.66613" lon="6.72744">
        <ele>2857.3999023438</ele>
        <time>2020-01-08T12:23:34.000Z</time>
      </trkpt>
      <trkpt lat="45.66613" lon="6.72744">
        <ele>2857.6000976562</ele>
        <time>2020-01-08T12:23:48.000Z</time>
      </trkpt>
      <trkpt lat="45.66613" lon="6.72744">
        <ele>2857.3999023438</ele>
        <time>2020-01-08T12:23:58.000Z</time>
      </trkpt>
      <trkpt lat="45.66613" lon="6.72744">
        <ele>2857.3999023438</ele>
        <time>2020-01-08T12:24:12.000Z</time>
      </trkpt>
      <trkpt lat="45.66613" lon="6.72744">
        <ele>2857.3999023438</ele>
        <time>2020-01-08T12:24:24.000Z</time>
      </trkpt>
      <trkpt lat="45.66613" lon="6.72744">
        <ele>2856.8000488281</ele>
        <time>2020-01-08T12:24:32.000Z</time>
      </trkpt>
      <trkpt lat="45.66613" lon="6.72744">
        <ele>2856.6000976562</ele>
        <time>2020-01-08T12:24:35.000Z</time>
      </trkpt>
      <trkpt lat="45.66613" lon="6.72744">
        <ele>2857.3999023438</ele>
        <time>2020-01-08T12:24:45.000Z</time>
      </trkpt>
      <trkpt lat="45.66613" lon="6.72744">
        <ele>2857.8000488281</ele>
        <time>2020-01-08T12:24:52.000Z</time>
      </trkpt>
      <trkpt lat="45.66613" lon="6.72744">
        <ele>2857.8000488281</ele>
        <time>2020-01-08T12:24:58.000Z</time>
      </trkpt>
      <trkpt lat="45.66613" lon="6.72744">
        <ele>2857.6000976562</ele>
        <time>2020-01-08T12:25:15.000Z</time>
      </trkpt>
      <trkpt lat="45.66613" lon="6.72744">
        <ele>2857.6000976562</ele>
        <time>2020-01-08T12:25:25.000Z</time>
      </trkpt>
      <trkpt lat="45.66613" lon="6.72744">
        <ele>2857.3999023438</ele>
        <time>2020-01-08T12:25:41.000Z</time>
      </trkpt>
      <trkpt lat="45.66613" lon="6.72744">
        <ele>2856.8000488281</ele>
        <time>2020-01-08T12:25:45.000Z</time>
      </trkpt>
      <trkpt lat="45.66613" lon="6.72744">
        <ele>2858</ele>
        <time>2020-01-08T12:25:51.000Z</time>
      </trkpt>
      <trkpt lat="45.66613" lon="6.72744">
        <ele>2858.3999023438</ele>
        <time>2020-01-08T12:25:54.000Z</time>
      </trkpt>
      <trkpt lat="45.66613" lon="6.72745">
        <ele>2857.3999023438</ele>
        <time>2020-01-08T12:26:08.000Z</time>
      </trkpt>
      <trkpt lat="45.66613" lon="6.72745">
        <ele>2857.1999511719</ele>
        <time>2020-01-08T12:26:17.000Z</time>
      </trkpt>
      <trkpt lat="45.66613" lon="6.72745">
        <ele>2857</ele>
        <time>2020-01-08T12:26:19.000Z</time>
      </trkpt>
      <trkpt lat="45.66613" lon="6.72745">
        <ele>2856.6000976562</ele>
        <time>2020-01-08T12:26:30.000Z</time>
      </trkpt>
      <trkpt lat="45.66613" lon="6.72745">
        <ele>2856.3999023438</ele>
        <time>2020-01-08T12:26:42.000Z</time>
      </trkpt>
      <trkpt lat="45.66614" lon="6.72745">
        <ele>2856.1999511719</ele>
        <time>2020-01-08T12:26:54.000Z</time>
      </trkpt>
      <trkpt lat="45.66614" lon="6.72745">
        <ele>2856</ele>
        <time>2020-01-08T12:26:59.000Z</time>
      </trkpt>
      <trkpt lat="45.66614" lon="6.72745">
        <ele>2855.8000488281</ele>
        <time>2020-01-08T12:27:03.000Z</time>
      </trkpt>
      <trkpt lat="45.66614" lon="6.72745">
        <ele>2855.1999511719</ele>
        <time>2020-01-08T12:27:13.000Z</time>
      </trkpt>
      <trkpt lat="45.66614" lon="6.72745">
        <ele>2855.1999511719</ele>
        <time>2020-01-08T12:27:28.000Z</time>
      </trkpt>
      <trkpt lat="45.66614" lon="6.72745">
        <ele>2855</ele>
        <time>2020-01-08T12:27:40.000Z</time>
      </trkpt>
      <trkpt lat="45.66614" lon="6.72745">
        <ele>2855.1999511719</ele>
        <time>2020-01-08T12:27:50.000Z</time>
      </trkpt>
      <trkpt lat="45.66614" lon="6.72745">
        <ele>2855</ele>
        <time>2020-01-08T12:27:59.000Z</time>
      </trkpt>
      <trkpt lat="45.66614" lon="6.72745">
        <ele>2855.1999511719</ele>
        <time>2020-01-08T12:28:08.000Z</time>
      </trkpt>
      <trkpt lat="45.66614" lon="6.72745">
        <ele>2855.1999511719</ele>
        <time>2020-01-08T12:28:28.000Z</time>
      </trkpt>
      <trkpt lat="45.66615" lon="6.72745">
        <ele>2855.1999511719</ele>
        <time>2020-01-08T12:28:44.000Z</time>
      </trkpt>
      <trkpt lat="45.66615" lon="6.72745">
        <ele>2854.6000976562</ele>
        <time>2020-01-08T12:28:50.000Z</time>
      </trkpt>
      <trkpt lat="45.66616" lon="6.72746">
        <ele>2854.6000976562</ele>
        <time>2020-01-08T12:28:57.000Z</time>
      </trkpt>
      <trkpt lat="45.66616" lon="6.72746">
        <ele>2854</ele>
        <time>2020-01-08T12:29:05.000Z</time>
      </trkpt>
      <trkpt lat="45.66616" lon="6.72746">
        <ele>2853.6000976562</ele>
        <time>2020-01-08T12:29:19.000Z</time>
      </trkpt>
      <trkpt lat="45.66616" lon="6.72746">
        <ele>2853</ele>
        <time>2020-01-08T12:29:24.000Z</time>
      </trkpt>
      <trkpt lat="45.66616" lon="6.72746">
        <ele>2852.8000488281</ele>
        <time>2020-01-08T12:29:25.000Z</time>
      </trkpt>
      <trkpt lat="45.66616" lon="6.72746">
        <ele>2852</ele>
        <time>2020-01-08T12:29:31.000Z</time>
      </trkpt>
      <trkpt lat="45.66616" lon="6.72746">
        <ele>2852</ele>
        <time>2020-01-08T12:29:32.000Z</time>
      </trkpt>
      <trkpt lat="45.66615" lon="6.72747">
        <ele>2850.8000488281</ele>
        <time>2020-01-08T12:29:36.000Z</time>
      </trkpt>
      <trkpt lat="45.66614" lon="6.72747">
        <ele>2850.1999511719</ele>
        <time>2020-01-08T12:29:40.000Z</time>
      </trkpt>
      <trkpt lat="45.66613" lon="6.72747">
        <ele>2849.8000488281</ele>
        <time>2020-01-08T12:29:42.000Z</time>
      </trkpt>
      <trkpt lat="45.66612" lon="6.72748">
        <ele>2849.3999023438</ele>
        <time>2020-01-08T12:29:45.000Z</time>
      </trkpt>
      <trkpt lat="45.66613" lon="6.72759">
        <ele>2848.8000488281</ele>
        <time>2020-01-08T12:29:48.000Z</time>
      </trkpt>
      <trkpt lat="45.66612" lon="6.72759">
        <ele>2848.6000976562</ele>
        <time>2020-01-08T12:29:49.000Z</time>
      </trkpt>
      <trkpt lat="45.66612" lon="6.72761">
        <ele>2848.3999023438</ele>
        <time>2020-01-08T12:29:50.000Z</time>
      </trkpt>
      <trkpt lat="45.66607" lon="6.72763">
        <ele>2846.8000488281</ele>
        <time>2020-01-08T12:29:52.000Z</time>
      </trkpt>
      <trkpt lat="45.66605" lon="6.72763">
        <ele>2845.3999023438</ele>
        <time>2020-01-08T12:29:53.000Z</time>
      </trkpt>
      <trkpt lat="45.66605" lon="6.72767">
        <ele>2844.1999511719</ele>
        <time>2020-01-08T12:29:54.000Z</time>
      </trkpt>
      <trkpt lat="45.66605" lon="6.7277">
        <ele>2843</ele>
        <time>2020-01-08T12:29:55.000Z</time>
      </trkpt>
      <trkpt lat="45.66601" lon="6.72774">
        <ele>2841</ele>
        <time>2020-01-08T12:29:57.000Z</time>
      </trkpt>
      <trkpt lat="45.666" lon="6.72776">
        <ele>2839.6000976562</ele>
        <time>2020-01-08T12:29:58.000Z</time>
      </trkpt>
      <trkpt lat="45.666" lon="6.72781">
        <ele>2837.6000976562</ele>
        <time>2020-01-08T12:29:59.000Z</time>
      </trkpt>
      <trkpt lat="45.66602" lon="6.72785">
        <ele>2836</ele>
        <time>2020-01-08T12:30:00.000Z</time>
      </trkpt>
      <trkpt lat="45.66602" lon="6.72788">
        <ele>2835.1999511719</ele>
        <time>2020-01-08T12:30:01.000Z</time>
      </trkpt>
      <trkpt lat="45.66601" lon="6.72789">
        <ele>2834.1999511719</ele>
        <time>2020-01-08T12:30:02.000Z</time>
      </trkpt>
      <trkpt lat="45.66601" lon="6.72791">
        <ele>2832</ele>
        <time>2020-01-08T12:30:03.000Z</time>
      </trkpt>
      <trkpt lat="45.66602" lon="6.72794">
        <ele>2829.3999023438</ele>
        <time>2020-01-08T12:30:04.000Z</time>
      </trkpt>
      <trkpt lat="45.66602" lon="6.72796">
        <ele>2827.3999023438</ele>
        <time>2020-01-08T12:30:05.000Z</time>
      </trkpt>
      <trkpt lat="45.66603" lon="6.72797">
        <ele>2826.1999511719</ele>
        <time>2020-01-08T12:30:06.000Z</time>
      </trkpt>
      <trkpt lat="45.66603" lon="6.72797">
        <ele>2825.1999511719</ele>
        <time>2020-01-08T12:30:07.000Z</time>
      </trkpt>
      <trkpt lat="45.66603" lon="6.72797">
        <ele>2824</ele>
        <time>2020-01-08T12:30:08.000Z</time>
      </trkpt>
      <trkpt lat="45.66603" lon="6.72797">
        <ele>2822.6000976562</ele>
        <time>2020-01-08T12:30:09.000Z</time>
      </trkpt>
      <trkpt lat="45.66603" lon="6.72797">
        <ele>2821.1999511719</ele>
        <time>2020-01-08T12:30:10.000Z</time>
      </trkpt>
      <trkpt lat="45.66603" lon="6.72797">
        <ele>2819.6000976562</ele>
        <time>2020-01-08T12:30:12.000Z</time>
      </trkpt>
      <trkpt lat="45.66603" lon="6.72797">
        <ele>2819</ele>
        <time>2020-01-08T12:30:18.000Z</time>
      </trkpt>
      <trkpt lat="45.66603" lon="6.72797">
        <ele>2819.1999511719</ele>
        <time>2020-01-08T12:30:33.000Z</time>
      </trkpt>
      <trkpt lat="45.66602" lon="6.72797">
        <ele>2819.1999511719</ele>
        <time>2020-01-08T12:30:49.000Z</time>
      </trkpt>
      <trkpt lat="45.66602" lon="6.72797">
        <ele>2819.1999511719</ele>
        <time>2020-01-08T12:31:08.000Z</time>
      </trkpt>
      <trkpt lat="45.66602" lon="6.72797">
        <ele>2819.1999511719</ele>
        <time>2020-01-08T12:31:25.000Z</time>
      </trkpt>
      <trkpt lat="45.66602" lon="6.72797">
        <ele>2818.6000976562</ele>
        <time>2020-01-08T12:31:32.000Z</time>
      </trkpt>
      <trkpt lat="45.66602" lon="6.72797">
        <ele>2818.8000488281</ele>
        <time>2020-01-08T12:31:34.000Z</time>
      </trkpt>
      <trkpt lat="45.66602" lon="6.72797">
        <ele>2818.6000976562</ele>
        <time>2020-01-08T12:31:48.000Z</time>
      </trkpt>
      <trkpt lat="45.66602" lon="6.72797">
        <ele>2818.6000976562</ele>
        <time>2020-01-08T12:31:59.000Z</time>
      </trkpt>
      <trkpt lat="45.66602" lon="6.72797">
        <ele>2818.6000976562</ele>
        <time>2020-01-08T12:32:08.000Z</time>
      </trkpt>
      <trkpt lat="45.66602" lon="6.72798">
        <ele>2817.6000976562</ele>
        <time>2020-01-08T12:32:14.000Z</time>
      </trkpt>
      <trkpt lat="45.66603" lon="6.72801">
        <ele>2817</ele>
        <time>2020-01-08T12:32:15.000Z</time>
      </trkpt>
      <trkpt lat="45.66607" lon="6.72812">
        <ele>2816.1999511719</ele>
        <time>2020-01-08T12:32:17.000Z</time>
      </trkpt>
      <trkpt lat="45.66612" lon="6.72822">
        <ele>2815.3999023438</ele>
        <time>2020-01-08T12:32:19.000Z</time>
      </trkpt>
      <trkpt lat="45.66614" lon="6.72826">
        <ele>2814.8000488281</ele>
        <time>2020-01-08T12:32:20.000Z</time>
      </trkpt>
      <trkpt lat="45.66615" lon="6.7283">
        <ele>2812</ele>
        <time>2020-01-08T12:32:21.000Z</time>
      </trkpt>
      <trkpt lat="45.66615" lon="6.72833">
        <ele>2810.8000488281</ele>
        <time>2020-01-08T12:32:22.000Z</time>
      </trkpt>
      <trkpt lat="45.66615" lon="6.72837">
        <ele>2809.8000488281</ele>
        <time>2020-01-08T12:32:23.000Z</time>
      </trkpt>
      <trkpt lat="45.66612" lon="6.7284">
        <ele>2808.1999511719</ele>
        <time>2020-01-08T12:32:25.000Z</time>
      </trkpt>
      <trkpt lat="45.66607" lon="6.7284">
        <ele>2806.3999023438</ele>
        <time>2020-01-08T12:32:27.000Z</time>
      </trkpt>
      <trkpt lat="45.66605" lon="6.7284">
        <ele>2805.1999511719</ele>
        <time>2020-01-08T12:32:28.000Z</time>
      </trkpt>
      <trkpt lat="45.66601" lon="6.7284">
        <ele>2803.6000976562</ele>
        <time>2020-01-08T12:32:30.000Z</time>
      </trkpt>
      <trkpt lat="45.666" lon="6.7284">
        <ele>2803.1999511719</ele>
        <time>2020-01-08T12:32:31.000Z</time>
      </trkpt>
      <trkpt lat="45.66598" lon="6.72838">
        <ele>2802.3999023438</ele>
        <time>2020-01-08T12:32:35.000Z</time>
      </trkpt>
      <trkpt lat="45.66601" lon="6.72842">
        <ele>2802.1999511719</ele>
        <time>2020-01-08T12:32:36.000Z</time>
      </trkpt>
      <trkpt lat="45.66604" lon="6.72851">
        <ele>2801</ele>
        <time>2020-01-08T12:32:40.000Z</time>
      </trkpt>
      <trkpt lat="45.66604" lon="6.72854">
        <ele>2799.6000976562</ele>
        <time>2020-01-08T12:32:41.000Z</time>
      </trkpt>
      <trkpt lat="45.66605" lon="6.72859">
        <ele>2797.6000976562</ele>
        <time>2020-01-08T12:32:42.000Z</time>
      </trkpt>
      <trkpt lat="45.66606" lon="6.72864">
        <ele>2796.1999511719</ele>
        <time>2020-01-08T12:32:43.000Z</time>
      </trkpt>
      <trkpt lat="45.66609" lon="6.7287">
        <ele>2793.1999511719</ele>
        <time>2020-01-08T12:32:45.000Z</time>
      </trkpt>
      <trkpt lat="45.66608" lon="6.72871">
        <ele>2791.1999511719</ele>
        <time>2020-01-08T12:32:46.000Z</time>
      </trkpt>
      <trkpt lat="45.66606" lon="6.72872">
        <ele>2789</ele>
        <time>2020-01-08T12:32:47.000Z</time>
      </trkpt>
      <trkpt lat="45.66603" lon="6.72871">
        <ele>2786.8000488281</ele>
        <time>2020-01-08T12:32:48.000Z</time>
      </trkpt>
      <trkpt lat="45.66601" lon="6.72871">
        <ele>2784.8000488281</ele>
        <time>2020-01-08T12:32:49.000Z</time>
      </trkpt>
      <trkpt lat="45.66598" lon="6.7287">
        <ele>2783.3999023438</ele>
        <time>2020-01-08T12:32:50.000Z</time>
      </trkpt>
      <trkpt lat="45.66595" lon="6.7287">
        <ele>2781.8000488281</ele>
        <time>2020-01-08T12:32:52.000Z</time>
      </trkpt>
      <trkpt lat="45.66594" lon="6.72871">
        <ele>2781.3999023438</ele>
        <time>2020-01-08T12:32:53.000Z</time>
      </trkpt>
      <trkpt lat="45.66595" lon="6.72874">
        <ele>2781.1999511719</ele>
        <time>2020-01-08T12:32:55.000Z</time>
      </trkpt>
      <trkpt lat="45.666" lon="6.72879">
        <ele>2781</ele>
        <time>2020-01-08T12:32:56.000Z</time>
      </trkpt>
      <trkpt lat="45.66601" lon="6.72883">
        <ele>2780.8000488281</ele>
        <time>2020-01-08T12:32:57.000Z</time>
      </trkpt>
      <trkpt lat="45.66597" lon="6.72885">
        <ele>2780</ele>
        <time>2020-01-08T12:32:59.000Z</time>
      </trkpt>
      <trkpt lat="45.66597" lon="6.72884">
        <ele>2778.6000976562</ele>
        <time>2020-01-08T12:33:00.000Z</time>
      </trkpt>
      <trkpt lat="45.66596" lon="6.72887">
        <ele>2776.8000488281</ele>
        <time>2020-01-08T12:33:01.000Z</time>
      </trkpt>
      <trkpt lat="45.66596" lon="6.72891">
        <ele>2775.1999511719</ele>
        <time>2020-01-08T12:33:02.000Z</time>
      </trkpt>
      <trkpt lat="45.66596" lon="6.72895">
        <ele>2774</ele>
        <time>2020-01-08T12:33:03.000Z</time>
      </trkpt>
      <trkpt lat="45.66596" lon="6.72903">
        <ele>2772.6000976562</ele>
        <time>2020-01-08T12:33:05.000Z</time>
      </trkpt>
      <trkpt lat="45.66596" lon="6.72905">
        <ele>2771.1999511719</ele>
        <time>2020-01-08T12:33:06.000Z</time>
      </trkpt>
      <trkpt lat="45.66596" lon="6.72905">
        <ele>2769.3999023438</ele>
        <time>2020-01-08T12:33:07.000Z</time>
      </trkpt>
      <trkpt lat="45.66596" lon="6.72907">
        <ele>2767.8000488281</ele>
        <time>2020-01-08T12:33:08.000Z</time>
      </trkpt>
      <trkpt lat="45.66594" lon="6.72908">
        <ele>2766.6000976562</ele>
        <time>2020-01-08T12:33:09.000Z</time>
      </trkpt>
      <trkpt lat="45.66592" lon="6.72911">
        <ele>2765.1999511719</ele>
        <time>2020-01-08T12:33:10.000Z</time>
      </trkpt>
      <trkpt lat="45.66594" lon="6.72923">
        <ele>2763.8000488281</ele>
        <time>2020-01-08T12:33:12.000Z</time>
      </trkpt>
      <trkpt lat="45.66596" lon="6.72931">
        <ele>2763.3999023438</ele>
        <time>2020-01-08T12:33:13.000Z</time>
      </trkpt>
      <trkpt lat="45.66597" lon="6.72938">
        <ele>2762.8000488281</ele>
        <time>2020-01-08T12:33:14.000Z</time>
      </trkpt>
      <trkpt lat="45.66598" lon="6.72945">
        <ele>2760.3999023438</ele>
        <time>2020-01-08T12:33:16.000Z</time>
      </trkpt>
      <trkpt lat="45.66598" lon="6.7295">
        <ele>2758.8000488281</ele>
        <time>2020-01-08T12:33:17.000Z</time>
      </trkpt>
      <trkpt lat="45.66599" lon="6.72956">
        <ele>2757.3999023438</ele>
        <time>2020-01-08T12:33:18.000Z</time>
      </trkpt>
      <trkpt lat="45.666" lon="6.72961">
        <ele>2756.3999023438</ele>
        <time>2020-01-08T12:33:19.000Z</time>
      </trkpt>
      <trkpt lat="45.666" lon="6.72966">
        <ele>2754.8000488281</ele>
        <time>2020-01-08T12:33:21.000Z</time>
      </trkpt>
      <trkpt lat="45.666" lon="6.72966">
        <ele>2754</ele>
        <time>2020-01-08T12:33:22.000Z</time>
      </trkpt>
      <trkpt lat="45.666" lon="6.72966">
        <ele>2753.1999511719</ele>
        <time>2020-01-08T12:33:23.000Z</time>
      </trkpt>
      <trkpt lat="45.666" lon="6.72966">
        <ele>2752</ele>
        <time>2020-01-08T12:33:25.000Z</time>
      </trkpt>
      <trkpt lat="45.66599" lon="6.72966">
        <ele>2751.1999511719</ele>
        <time>2020-01-08T12:33:28.000Z</time>
      </trkpt>
      <trkpt lat="45.66597" lon="6.72962">
        <ele>2751.1999511719</ele>
        <time>2020-01-08T12:33:29.000Z</time>
      </trkpt>
      <trkpt lat="45.66591" lon="6.72954">
        <ele>2750.3999023438</ele>
        <time>2020-01-08T12:33:31.000Z</time>
      </trkpt>
      <trkpt lat="45.66589" lon="6.72954">
        <ele>2748.6000976562</ele>
        <time>2020-01-08T12:33:33.000Z</time>
      </trkpt>
      <trkpt lat="45.66589" lon="6.72958">
        <ele>2747.3999023438</ele>
        <time>2020-01-08T12:33:34.000Z</time>
      </trkpt>
      <trkpt lat="45.66588" lon="6.72962">
        <ele>2746.8000488281</ele>
        <time>2020-01-08T12:33:35.000Z</time>
      </trkpt>
      <trkpt lat="45.66587" lon="6.72965">
        <ele>2745.6000976562</ele>
        <time>2020-01-08T12:33:36.000Z</time>
      </trkpt>
      <trkpt lat="45.66585" lon="6.72966">
        <ele>2743.8000488281</ele>
        <time>2020-01-08T12:33:37.000Z</time>
      </trkpt>
      <trkpt lat="45.66582" lon="6.72964">
        <ele>2741.3999023438</ele>
        <time>2020-01-08T12:33:38.000Z</time>
      </trkpt>
      <trkpt lat="45.66581" lon="6.72965">
        <ele>2739.1999511719</ele>
        <time>2020-01-08T12:33:39.000Z</time>
      </trkpt>
      <trkpt lat="45.6658" lon="6.72967">
        <ele>2737.6000976562</ele>
        <time>2020-01-08T12:33:40.000Z</time>
      </trkpt>
      <trkpt lat="45.66578" lon="6.72969">
        <ele>2736.6000976562</ele>
        <time>2020-01-08T12:33:41.000Z</time>
      </trkpt>
      <trkpt lat="45.66575" lon="6.72971">
        <ele>2735.3999023438</ele>
        <time>2020-01-08T12:33:42.000Z</time>
      </trkpt>
      <trkpt lat="45.66571" lon="6.72969">
        <ele>2733.6000976562</ele>
        <time>2020-01-08T12:33:43.000Z</time>
      </trkpt>
      <trkpt lat="45.66567" lon="6.72967">
        <ele>2731</ele>
        <time>2020-01-08T12:33:44.000Z</time>
      </trkpt>
      <trkpt lat="45.66562" lon="6.72964">
        <ele>2728.3999023438</ele>
        <time>2020-01-08T12:33:45.000Z</time>
      </trkpt>
      <trkpt lat="45.66559" lon="6.7296">
        <ele>2726.8000488281</ele>
        <time>2020-01-08T12:33:46.000Z</time>
      </trkpt>
      <trkpt lat="45.66556" lon="6.72957">
        <ele>2725.8000488281</ele>
        <time>2020-01-08T12:33:47.000Z</time>
      </trkpt>
      <trkpt lat="45.66556" lon="6.72958">
        <ele>2724</ele>
        <time>2020-01-08T12:33:49.000Z</time>
      </trkpt>
      <trkpt lat="45.66556" lon="6.72957">
        <ele>2722.8000488281</ele>
        <time>2020-01-08T12:33:50.000Z</time>
      </trkpt>
      <trkpt lat="45.66556" lon="6.72957">
        <ele>2721.3999023438</ele>
        <time>2020-01-08T12:33:51.000Z</time>
      </trkpt>
      <trkpt lat="45.66555" lon="6.72955">
        <ele>2719.8000488281</ele>
        <time>2020-01-08T12:33:52.000Z</time>
      </trkpt>
      <trkpt lat="45.66555" lon="6.72956">
        <ele>2717.3999023438</ele>
        <time>2020-01-08T12:33:53.000Z</time>
      </trkpt>
      <trkpt lat="45.66556" lon="6.7296">
        <ele>2715.3999023438</ele>
        <time>2020-01-08T12:33:54.000Z</time>
      </trkpt>
      <trkpt lat="45.66555" lon="6.72962">
        <ele>2713.8000488281</ele>
        <time>2020-01-08T12:33:55.000Z</time>
      </trkpt>
      <trkpt lat="45.66551" lon="6.72963">
        <ele>2712.6000976562</ele>
        <time>2020-01-08T12:33:56.000Z</time>
      </trkpt>
      <trkpt lat="45.66547" lon="6.72965">
        <ele>2711</ele>
        <time>2020-01-08T12:33:57.000Z</time>
      </trkpt>
      <trkpt lat="45.66544" lon="6.72967">
        <ele>2705.8000488281</ele>
        <time>2020-01-08T12:33:58.000Z</time>
      </trkpt>
      <trkpt lat="45.66541" lon="6.72966">
        <ele>2703.6000976562</ele>
        <time>2020-01-08T12:33:59.000Z</time>
      </trkpt>
      <trkpt lat="45.66538" lon="6.72965">
        <ele>2702.1999511719</ele>
        <time>2020-01-08T12:34:00.000Z</time>
      </trkpt>
      <trkpt lat="45.66534" lon="6.72964">
        <ele>2700.6000976562</ele>
        <time>2020-01-08T12:34:01.000Z</time>
      </trkpt>
      <trkpt lat="45.66531" lon="6.72966">
        <ele>2698.1999511719</ele>
        <time>2020-01-08T12:34:02.000Z</time>
      </trkpt>
      <trkpt lat="45.66529" lon="6.72967">
        <ele>2696</ele>
        <time>2020-01-08T12:34:03.000Z</time>
      </trkpt>
      <trkpt lat="45.66526" lon="6.72968">
        <ele>2694.1999511719</ele>
        <time>2020-01-08T12:34:04.000Z</time>
      </trkpt>
      <trkpt lat="45.66523" lon="6.72967">
        <ele>2692.3999023438</ele>
        <time>2020-01-08T12:34:05.000Z</time>
      </trkpt>
      <trkpt lat="45.66519" lon="6.72971">
        <ele>2690.1999511719</ele>
        <time>2020-01-08T12:34:06.000Z</time>
      </trkpt>
      <trkpt lat="45.66515" lon="6.72974">
        <ele>2687.8000488281</ele>
        <time>2020-01-08T12:34:07.000Z</time>
      </trkpt>
      <trkpt lat="45.66509" lon="6.72975">
        <ele>2686</ele>
        <time>2020-01-08T12:34:08.000Z</time>
      </trkpt>
      <trkpt lat="45.66504" lon="6.72977">
        <ele>2684</ele>
        <time>2020-01-08T12:34:09.000Z</time>
      </trkpt>
      <trkpt lat="45.665" lon="6.7298">
        <ele>2681.6000976562</ele>
        <time>2020-01-08T12:34:10.000Z</time>
      </trkpt>
      <trkpt lat="45.66497" lon="6.72986">
        <ele>2679.1999511719</ele>
        <time>2020-01-08T12:34:11.000Z</time>
      </trkpt>
      <trkpt lat="45.66494" lon="6.72992">
        <ele>2677</ele>
        <time>2020-01-08T12:34:12.000Z</time>
      </trkpt>
      <trkpt lat="45.66492" lon="6.72995">
        <ele>2675.3999023438</ele>
        <time>2020-01-08T12:34:13.000Z</time>
      </trkpt>
      <trkpt lat="45.66492" lon="6.72996">
        <ele>2673.6000976562</ele>
        <time>2020-01-08T12:34:14.000Z</time>
      </trkpt>
      <trkpt lat="45.66491" lon="6.72996">
        <ele>2671.3999023438</ele>
        <time>2020-01-08T12:34:15.000Z</time>
      </trkpt>
      <trkpt lat="45.66491" lon="6.72996">
        <ele>2669.6000976562</ele>
        <time>2020-01-08T12:34:16.000Z</time>
      </trkpt>
      <trkpt lat="45.66491" lon="6.72996">
        <ele>2668.3999023438</ele>
        <time>2020-01-08T12:34:17.000Z</time>
      </trkpt>
      <trkpt lat="45.66491" lon="6.72996">
        <ele>2667.1999511719</ele>
        <time>2020-01-08T12:34:19.000Z</time>
      </trkpt>
      <trkpt lat="45.66491" lon="6.72996">
        <ele>2666.8000488281</ele>
        <time>2020-01-08T12:34:30.000Z</time>
      </trkpt>
      <trkpt lat="45.66491" lon="6.72996">
        <ele>2666.8000488281</ele>
        <time>2020-01-08T12:34:42.000Z</time>
      </trkpt>
      <trkpt lat="45.6649" lon="6.72997">
        <ele>2666.6000976562</ele>
        <time>2020-01-08T12:34:57.000Z</time>
      </trkpt>
      <trkpt lat="45.66489" lon="6.72997">
        <ele>2666.6000976562</ele>
        <time>2020-01-08T12:35:06.000Z</time>
      </trkpt>
      <trkpt lat="45.66487" lon="6.72995">
        <ele>2666.6000976562</ele>
        <time>2020-01-08T12:35:07.000Z</time>
      </trkpt>
      <trkpt lat="45.66485" lon="6.72994">
        <ele>2666.1999511719</ele>
        <time>2020-01-08T12:35:09.000Z</time>
      </trkpt>
      <trkpt lat="45.66485" lon="6.72994">
        <ele>2665</ele>
        <time>2020-01-08T12:35:11.000Z</time>
      </trkpt>
      <trkpt lat="45.66485" lon="6.72994">
        <ele>2664.3999023438</ele>
        <time>2020-01-08T12:35:27.000Z</time>
      </trkpt>
      <trkpt lat="45.66485" lon="6.72994">
        <ele>2664.3999023438</ele>
        <time>2020-01-08T12:35:41.000Z</time>
      </trkpt>
      <trkpt lat="45.66485" lon="6.72992">
        <ele>2664.8000488281</ele>
        <time>2020-01-08T12:35:55.000Z</time>
      </trkpt>
      <trkpt lat="45.66483" lon="6.7299">
        <ele>2665</ele>
        <time>2020-01-08T12:35:59.000Z</time>
      </trkpt>
      <trkpt lat="45.6648" lon="6.72986">
        <ele>2665</ele>
        <time>2020-01-08T12:36:00.000Z</time>
      </trkpt>
      <trkpt lat="45.66472" lon="6.72986">
        <ele>2663.8000488281</ele>
        <time>2020-01-08T12:36:03.000Z</time>
      </trkpt>
      <trkpt lat="45.66463" lon="6.72985">
        <ele>2662</ele>
        <time>2020-01-08T12:36:05.000Z</time>
      </trkpt>
      <trkpt lat="45.66459" lon="6.72987">
        <ele>2660.6000976562</ele>
        <time>2020-01-08T12:36:06.000Z</time>
      </trkpt>
      <trkpt lat="45.66454" lon="6.72989">
        <ele>2659</ele>
        <time>2020-01-08T12:36:07.000Z</time>
      </trkpt>
      <trkpt lat="45.66451" lon="6.72987">
        <ele>2657.8000488281</ele>
        <time>2020-01-08T12:36:08.000Z</time>
      </trkpt>
      <trkpt lat="45.66447" lon="6.72989">
        <ele>2656.6000976562</ele>
        <time>2020-01-08T12:36:09.000Z</time>
      </trkpt>
      <trkpt lat="45.66444" lon="6.72992">
        <ele>2655</ele>
        <time>2020-01-08T12:36:10.000Z</time>
      </trkpt>
      <trkpt lat="45.66442" lon="6.72996">
        <ele>2653</ele>
        <time>2020-01-08T12:36:11.000Z</time>
      </trkpt>
      <trkpt lat="45.6644" lon="6.72997">
        <ele>2651.1999511719</ele>
        <time>2020-01-08T12:36:12.000Z</time>
      </trkpt>
      <trkpt lat="45.66436" lon="6.72998">
        <ele>2649.6000976562</ele>
        <time>2020-01-08T12:36:13.000Z</time>
      </trkpt>
      <trkpt lat="45.66434" lon="6.73002">
        <ele>2647.3999023438</ele>
        <time>2020-01-08T12:36:14.000Z</time>
      </trkpt>
      <trkpt lat="45.66432" lon="6.73006">
        <ele>2645.3999023438</ele>
        <time>2020-01-08T12:36:15.000Z</time>
      </trkpt>
      <trkpt lat="45.66429" lon="6.7301">
        <ele>2643.6000976562</ele>
        <time>2020-01-08T12:36:16.000Z</time>
      </trkpt>
      <trkpt lat="45.66426" lon="6.73014">
        <ele>2642</ele>
        <time>2020-01-08T12:36:17.000Z</time>
      </trkpt>
      <trkpt lat="45.66424" lon="6.73018">
        <ele>2639.8000488281</ele>
        <time>2020-01-08T12:36:18.000Z</time>
      </trkpt>
      <trkpt lat="45.66421" lon="6.73022">
        <ele>2637.3999023438</ele>
        <time>2020-01-08T12:36:19.000Z</time>
      </trkpt>
      <trkpt lat="45.66418" lon="6.73025">
        <ele>2635.6000976562</ele>
        <time>2020-01-08T12:36:20.000Z</time>
      </trkpt>
      <trkpt lat="45.66416" lon="6.73025">
        <ele>2633.6000976562</ele>
        <time>2020-01-08T12:36:21.000Z</time>
      </trkpt>
      <trkpt lat="45.66414" lon="6.73025">
        <ele>2629</ele>
        <time>2020-01-08T12:36:22.000Z</time>
      </trkpt>
      <trkpt lat="45.6641" lon="6.73023">
        <ele>2627.1999511719</ele>
        <time>2020-01-08T12:36:23.000Z</time>
      </trkpt>
      <trkpt lat="45.66401" lon="6.7302">
        <ele>2625.8000488281</ele>
        <time>2020-01-08T12:36:24.000Z</time>
      </trkpt>
      <trkpt lat="45.66397" lon="6.73021">
        <ele>2624.3999023438</ele>
        <time>2020-01-08T12:36:25.000Z</time>
      </trkpt>
      <trkpt lat="45.66392" lon="6.73022">
        <ele>2622.8000488281</ele>
        <time>2020-01-08T12:36:27.000Z</time>
      </trkpt>
      <trkpt lat="45.6639" lon="6.73023">
        <ele>2621.8000488281</ele>
        <time>2020-01-08T12:36:32.000Z</time>
      </trkpt>
      <trkpt lat="45.6639" lon="6.73023">
        <ele>2622</ele>
        <time>2020-01-08T12:36:49.000Z</time>
      </trkpt>
      <trkpt lat="45.6639" lon="6.73027">
        <ele>2622</ele>
        <time>2020-01-08T12:36:53.000Z</time>
      </trkpt>
      <trkpt lat="45.66392" lon="6.73031">
        <ele>2621.8000488281</ele>
        <time>2020-01-08T12:36:54.000Z</time>
      </trkpt>
      <trkpt lat="45.66395" lon="6.73035">
        <ele>2621.6000976562</ele>
        <time>2020-01-08T12:36:55.000Z</time>
      </trkpt>
      <trkpt lat="45.664" lon="6.73039">
        <ele>2621.1999511719</ele>
        <time>2020-01-08T12:36:57.000Z</time>
      </trkpt>
      <trkpt lat="45.66403" lon="6.73041">
        <ele>2620.8000488281</ele>
        <time>2020-01-08T12:36:58.000Z</time>
      </trkpt>
      <trkpt lat="45.66405" lon="6.73042">
        <ele>2619.8000488281</ele>
        <time>2020-01-08T12:36:59.000Z</time>
      </trkpt>
      <trkpt lat="45.66406" lon="6.73043">
        <ele>2618.8000488281</ele>
        <time>2020-01-08T12:37:00.000Z</time>
      </trkpt>
      <trkpt lat="45.66406" lon="6.73043">
        <ele>2617.8000488281</ele>
        <time>2020-01-08T12:37:01.000Z</time>
      </trkpt>
      <trkpt lat="45.66404" lon="6.73043">
        <ele>2617</ele>
        <time>2020-01-08T12:37:02.000Z</time>
      </trkpt>
      <trkpt lat="45.66398" lon="6.73042">
        <ele>2615.3999023438</ele>
        <time>2020-01-08T12:37:04.000Z</time>
      </trkpt>
      <trkpt lat="45.66392" lon="6.73039">
        <ele>2613.8000488281</ele>
        <time>2020-01-08T12:37:06.000Z</time>
      </trkpt>
      <trkpt lat="45.6639" lon="6.73038">
        <ele>2612.6000976562</ele>
        <time>2020-01-08T12:37:08.000Z</time>
      </trkpt>
      <trkpt lat="45.6639" lon="6.73038">
        <ele>2611.3999023438</ele>
        <time>2020-01-08T12:37:10.000Z</time>
      </trkpt>
      <trkpt lat="45.66389" lon="6.73039">
        <ele>2610.8000488281</ele>
        <time>2020-01-08T12:37:12.000Z</time>
      </trkpt>
      <trkpt lat="45.66386" lon="6.73043">
        <ele>2610.3999023438</ele>
        <time>2020-01-08T12:37:14.000Z</time>
      </trkpt>
      <trkpt lat="45.66387" lon="6.73046">
        <ele>2610</ele>
        <time>2020-01-08T12:37:15.000Z</time>
      </trkpt>
      <trkpt lat="45.66386" lon="6.7305">
        <ele>2608.8000488281</ele>
        <time>2020-01-08T12:37:17.000Z</time>
      </trkpt>
      <trkpt lat="45.66386" lon="6.73057">
        <ele>2606.3999023438</ele>
        <time>2020-01-08T12:37:19.000Z</time>
      </trkpt>
      <trkpt lat="45.66386" lon="6.73058">
        <ele>2604.3999023438</ele>
        <time>2020-01-08T12:37:20.000Z</time>
      </trkpt>
      <trkpt lat="45.66386" lon="6.73059">
        <ele>2603</ele>
        <time>2020-01-08T12:37:21.000Z</time>
      </trkpt>
      <trkpt lat="45.66382" lon="6.73062">
        <ele>2601.1999511719</ele>
        <time>2020-01-08T12:37:23.000Z</time>
      </trkpt>
      <trkpt lat="45.6638" lon="6.73063">
        <ele>2599.6000976562</ele>
        <time>2020-01-08T12:37:24.000Z</time>
      </trkpt>
      <trkpt lat="45.6638" lon="6.73063">
        <ele>2597.3999023438</ele>
        <time>2020-01-08T12:37:25.000Z</time>
      </trkpt>
      <trkpt lat="45.6638" lon="6.73063">
        <ele>2595.8000488281</ele>
        <time>2020-01-08T12:37:26.000Z</time>
      </trkpt>
      <trkpt lat="45.6638" lon="6.73063">
        <ele>2594.3999023438</ele>
        <time>2020-01-08T12:37:28.000Z</time>
      </trkpt>
      <trkpt lat="45.6638" lon="6.73063">
        <ele>2594</ele>
        <time>2020-01-08T12:37:29.000Z</time>
      </trkpt>
      <trkpt lat="45.6638" lon="6.73063">
        <ele>2593.3999023438</ele>
        <time>2020-01-08T12:37:32.000Z</time>
      </trkpt>
      <trkpt lat="45.66385" lon="6.7307">
        <ele>2593.1999511719</ele>
        <time>2020-01-08T12:37:33.000Z</time>
      </trkpt>
      <trkpt lat="45.66396" lon="6.73084">
        <ele>2591.8000488281</ele>
        <time>2020-01-08T12:37:36.000Z</time>
      </trkpt>
      <trkpt lat="45.66402" lon="6.73097">
        <ele>2590</ele>
        <time>2020-01-08T12:37:38.000Z</time>
      </trkpt>
      <trkpt lat="45.66406" lon="6.73117">
        <ele>2588.3999023438</ele>
        <time>2020-01-08T12:37:40.000Z</time>
      </trkpt>
      <trkpt lat="45.66409" lon="6.73128">
        <ele>2587.8000488281</ele>
        <time>2020-01-08T12:37:41.000Z</time>
      </trkpt>
      <trkpt lat="45.66412" lon="6.73137">
        <ele>2587.1999511719</ele>
        <time>2020-01-08T12:37:42.000Z</time>
      </trkpt>
      <trkpt lat="45.66416" lon="6.73157">
        <ele>2586</ele>
        <time>2020-01-08T12:37:44.000Z</time>
      </trkpt>
      <trkpt lat="45.66418" lon="6.73167">
        <ele>2585</ele>
        <time>2020-01-08T12:37:45.000Z</time>
      </trkpt>
      <trkpt lat="45.66419" lon="6.73174">
        <ele>2584.1999511719</ele>
        <time>2020-01-08T12:37:46.000Z</time>
      </trkpt>
      <trkpt lat="45.66419" lon="6.73181">
        <ele>2583</ele>
        <time>2020-01-08T12:37:47.000Z</time>
      </trkpt>
      <trkpt lat="45.6642" lon="6.73187">
        <ele>2581.8000488281</ele>
        <time>2020-01-08T12:37:48.000Z</time>
      </trkpt>
      <trkpt lat="45.6642" lon="6.73192">
        <ele>2580.8000488281</ele>
        <time>2020-01-08T12:37:49.000Z</time>
      </trkpt>
      <trkpt lat="45.6642" lon="6.73195">
        <ele>2579.8000488281</ele>
        <time>2020-01-08T12:37:50.000Z</time>
      </trkpt>
      <trkpt lat="45.6642" lon="6.73196">
        <ele>2578.8000488281</ele>
        <time>2020-01-08T12:37:51.000Z</time>
      </trkpt>
      <trkpt lat="45.66419" lon="6.73198">
        <ele>2578</ele>
        <time>2020-01-08T12:37:52.000Z</time>
      </trkpt>
      <trkpt lat="45.66418" lon="6.73199">
        <ele>2577</ele>
        <time>2020-01-08T12:37:54.000Z</time>
      </trkpt>
      <trkpt lat="45.66418" lon="6.73199">
        <ele>2576</ele>
        <time>2020-01-08T12:38:01.000Z</time>
      </trkpt>
      <trkpt lat="45.66415" lon="6.73195">
        <ele>2575.8000488281</ele>
        <time>2020-01-08T12:38:04.000Z</time>
      </trkpt>
      <trkpt lat="45.66412" lon="6.73191">
        <ele>2575.6000976562</ele>
        <time>2020-01-08T12:38:05.000Z</time>
      </trkpt>
      <trkpt lat="45.66407" lon="6.73194">
        <ele>2574.3999023438</ele>
        <time>2020-01-08T12:38:07.000Z</time>
      </trkpt>
      <trkpt lat="45.66406" lon="6.73196">
        <ele>2573.6000976562</ele>
        <time>2020-01-08T12:38:08.000Z</time>
      </trkpt>
      <trkpt lat="45.66403" lon="6.73195">
        <ele>2573.1999511719</ele>
        <time>2020-01-08T12:38:09.000Z</time>
      </trkpt>
      <trkpt lat="45.66401" lon="6.73201">
        <ele>2570.6000976562</ele>
        <time>2020-01-08T12:38:11.000Z</time>
      </trkpt>
      <trkpt lat="45.664" lon="6.73203">
        <ele>2568.3999023438</ele>
        <time>2020-01-08T12:38:12.000Z</time>
      </trkpt>
      <trkpt lat="45.664" lon="6.73204">
        <ele>2566.8000488281</ele>
        <time>2020-01-08T12:38:13.000Z</time>
      </trkpt>
      <trkpt lat="45.664" lon="6.73206">
        <ele>2565.6000976562</ele>
        <time>2020-01-08T12:38:14.000Z</time>
      </trkpt>
      <trkpt lat="45.664" lon="6.73211">
        <ele>2563.8000488281</ele>
        <time>2020-01-08T12:38:15.000Z</time>
      </trkpt>
      <trkpt lat="45.664" lon="6.73216">
        <ele>2561.6000976562</ele>
        <time>2020-01-08T12:38:16.000Z</time>
      </trkpt>
      <trkpt lat="45.664" lon="6.73219">
        <ele>2559.6000976562</ele>
        <time>2020-01-08T12:38:17.000Z</time>
      </trkpt>
      <trkpt lat="45.66397" lon="6.73219">
        <ele>2558.1999511719</ele>
        <time>2020-01-08T12:38:18.000Z</time>
      </trkpt>
      <trkpt lat="45.66395" lon="6.7322">
        <ele>2557</ele>
        <time>2020-01-08T12:38:19.000Z</time>
      </trkpt>
      <trkpt lat="45.66394" lon="6.73221">
        <ele>2555.1999511719</ele>
        <time>2020-01-08T12:38:20.000Z</time>
      </trkpt>
      <trkpt lat="45.66394" lon="6.73221">
        <ele>2553.1999511719</ele>
        <time>2020-01-08T12:38:21.000Z</time>
      </trkpt>
      <trkpt lat="45.66394" lon="6.73221">
        <ele>2550.1999511719</ele>
        <time>2020-01-08T12:38:22.000Z</time>
      </trkpt>
      <trkpt lat="45.66394" lon="6.73221">
        <ele>2549</ele>
        <time>2020-01-08T12:38:24.000Z</time>
      </trkpt>
      <trkpt lat="45.66394" lon="6.73221">
        <ele>2548.6000976562</ele>
        <time>2020-01-08T12:38:35.000Z</time>
      </trkpt>
      <trkpt lat="45.66394" lon="6.73221">
        <ele>2548.6000976562</ele>
        <time>2020-01-08T12:38:51.000Z</time>
      </trkpt>
      <trkpt lat="45.6639" lon="6.73217">
        <ele>2548.8000488281</ele>
        <time>2020-01-08T12:39:03.000Z</time>
      </trkpt>
      <trkpt lat="45.66386" lon="6.73215">
        <ele>2548.8000488281</ele>
        <time>2020-01-08T12:39:04.000Z</time>
      </trkpt>
      <trkpt lat="45.66385" lon="6.73212">
        <ele>2548.8000488281</ele>
        <time>2020-01-08T12:39:06.000Z</time>
      </trkpt>
      <trkpt lat="45.66381" lon="6.7321">
        <ele>2548.3999023438</ele>
        <time>2020-01-08T12:39:08.000Z</time>
      </trkpt>
      <trkpt lat="45.66381" lon="6.73211">
        <ele>2547.8000488281</ele>
        <time>2020-01-08T12:39:09.000Z</time>
      </trkpt>
      <trkpt lat="45.66381" lon="6.73212">
        <ele>2544.6000976562</ele>
        <time>2020-01-08T12:39:10.000Z</time>
      </trkpt>
      <trkpt lat="45.66378" lon="6.73213">
        <ele>2543</ele>
        <time>2020-01-08T12:39:11.000Z</time>
      </trkpt>
      <trkpt lat="45.66375" lon="6.73211">
        <ele>2541.3999023438</ele>
        <time>2020-01-08T12:39:12.000Z</time>
      </trkpt>
      <trkpt lat="45.66371" lon="6.73209">
        <ele>2539.1999511719</ele>
        <time>2020-01-08T12:39:13.000Z</time>
      </trkpt>
      <trkpt lat="45.66368" lon="6.73206">
        <ele>2536.6000976562</ele>
        <time>2020-01-08T12:39:14.000Z</time>
      </trkpt>
      <trkpt lat="45.66365" lon="6.73203">
        <ele>2534.3999023438</ele>
        <time>2020-01-08T12:39:15.000Z</time>
      </trkpt>
      <trkpt lat="45.66363" lon="6.732">
        <ele>2533</ele>
        <time>2020-01-08T12:39:16.000Z</time>
      </trkpt>
      <trkpt lat="45.6636" lon="6.73198">
        <ele>2532</ele>
        <time>2020-01-08T12:39:17.000Z</time>
      </trkpt>
      <trkpt lat="45.66358" lon="6.73196">
        <ele>2530.8000488281</ele>
        <time>2020-01-08T12:39:18.000Z</time>
      </trkpt>
      <trkpt lat="45.66356" lon="6.73197">
        <ele>2529.8000488281</ele>
        <time>2020-01-08T12:39:19.000Z</time>
      </trkpt>
      <trkpt lat="45.66352" lon="6.73202">
        <ele>2528</ele>
        <time>2020-01-08T12:39:21.000Z</time>
      </trkpt>
      <trkpt lat="45.66352" lon="6.73211">
        <ele>2526.1999511719</ele>
        <time>2020-01-08T12:39:23.000Z</time>
      </trkpt>
      <trkpt lat="45.66353" lon="6.73218">
        <ele>2524.8000488281</ele>
        <time>2020-01-08T12:39:24.000Z</time>
      </trkpt>
      <trkpt lat="45.66356" lon="6.73229">
        <ele>2523.6000976562</ele>
        <time>2020-01-08T12:39:25.000Z</time>
      </trkpt>
      <trkpt lat="45.66357" lon="6.73237">
        <ele>2522.1999511719</ele>
        <time>2020-01-08T12:39:26.000Z</time>
      </trkpt>
      <trkpt lat="45.66357" lon="6.73242">
        <ele>2520.3999023438</ele>
        <time>2020-01-08T12:39:27.000Z</time>
      </trkpt>
      <trkpt lat="45.66357" lon="6.73245">
        <ele>2518.6000976562</ele>
        <time>2020-01-08T12:39:28.000Z</time>
      </trkpt>
      <trkpt lat="45.66357" lon="6.73246">
        <ele>2517</ele>
        <time>2020-01-08T12:39:29.000Z</time>
      </trkpt>
      <trkpt lat="45.66357" lon="6.73246">
        <ele>2515.8000488281</ele>
        <time>2020-01-08T12:39:30.000Z</time>
      </trkpt>
      <trkpt lat="45.66357" lon="6.73246">
        <ele>2514.8000488281</ele>
        <time>2020-01-08T12:39:31.000Z</time>
      </trkpt>
      <trkpt lat="45.66357" lon="6.73246">
        <ele>2513.6000976562</ele>
        <time>2020-01-08T12:39:33.000Z</time>
      </trkpt>
      <trkpt lat="45.66357" lon="6.73246">
        <ele>2512.8000488281</ele>
        <time>2020-01-08T12:39:40.000Z</time>
      </trkpt>
      <trkpt lat="45.66357" lon="6.73246">
        <ele>2512.6000976562</ele>
        <time>2020-01-08T12:39:53.000Z</time>
      </trkpt>
      <trkpt lat="45.66357" lon="6.73249">
        <ele>2512.6000976562</ele>
        <time>2020-01-08T12:39:54.000Z</time>
      </trkpt>
      <trkpt lat="45.66357" lon="6.73247">
        <ele>2512.6000976562</ele>
        <time>2020-01-08T12:39:55.000Z</time>
      </trkpt>
      <trkpt lat="45.66356" lon="6.73248">
        <ele>2512.3999023438</ele>
        <time>2020-01-08T12:39:56.000Z</time>
      </trkpt>
      <trkpt lat="45.66355" lon="6.73257">
        <ele>2511.1999511719</ele>
        <time>2020-01-08T12:39:58.000Z</time>
      </trkpt>
      <trkpt lat="45.66348" lon="6.73264">
        <ele>2510</ele>
        <time>2020-01-08T12:40:00.000Z</time>
      </trkpt>
      <trkpt lat="45.66347" lon="6.73265">
        <ele>2508.8000488281</ele>
        <time>2020-01-08T12:40:01.000Z</time>
      </trkpt>
      <trkpt lat="45.66347" lon="6.73269">
        <ele>2507</ele>
        <time>2020-01-08T12:40:02.000Z</time>
      </trkpt>
      <trkpt lat="45.6635" lon="6.73268">
        <ele>2505</ele>
        <time>2020-01-08T12:40:03.000Z</time>
      </trkpt>
      <trkpt lat="45.66349" lon="6.73267">
        <ele>2503.6000976562</ele>
        <time>2020-01-08T12:40:04.000Z</time>
      </trkpt>
      <trkpt lat="45.66349" lon="6.73266">
        <ele>2502.3999023438</ele>
        <time>2020-01-08T12:40:05.000Z</time>
      </trkpt>
      <trkpt lat="45.66348" lon="6.73269">
        <ele>2500.6000976562</ele>
        <time>2020-01-08T12:40:06.000Z</time>
      </trkpt>
      <trkpt lat="45.66347" lon="6.73274">
        <ele>2498.1999511719</ele>
        <time>2020-01-08T12:40:07.000Z</time>
      </trkpt>
      <trkpt lat="45.66344" lon="6.73282">
        <ele>2496</ele>
        <time>2020-01-08T12:40:08.000Z</time>
      </trkpt>
      <trkpt lat="45.66339" lon="6.73288">
        <ele>2494.1999511719</ele>
        <time>2020-01-08T12:40:09.000Z</time>
      </trkpt>
      <trkpt lat="45.66338" lon="6.73291">
        <ele>2492</ele>
        <time>2020-01-08T12:40:10.000Z</time>
      </trkpt>
      <trkpt lat="45.66338" lon="6.73299">
        <ele>2489.6000976562</ele>
        <time>2020-01-08T12:40:11.000Z</time>
      </trkpt>
      <trkpt lat="45.66339" lon="6.73307">
        <ele>2486.8000488281</ele>
        <time>2020-01-08T12:40:12.000Z</time>
      </trkpt>
      <trkpt lat="45.6634" lon="6.73315">
        <ele>2484.3999023438</ele>
        <time>2020-01-08T12:40:13.000Z</time>
      </trkpt>
      <trkpt lat="45.6634" lon="6.73322">
        <ele>2481.8000488281</ele>
        <time>2020-01-08T12:40:14.000Z</time>
      </trkpt>
      <trkpt lat="45.66338" lon="6.73329">
        <ele>2479</ele>
        <time>2020-01-08T12:40:15.000Z</time>
      </trkpt>
      <trkpt lat="45.66336" lon="6.73334">
        <ele>2476</ele>
        <time>2020-01-08T12:40:16.000Z</time>
      </trkpt>
      <trkpt lat="45.66336" lon="6.7334">
        <ele>2473.1999511719</ele>
        <time>2020-01-08T12:40:17.000Z</time>
      </trkpt>
      <trkpt lat="45.66335" lon="6.73344">
        <ele>2470.8000488281</ele>
        <time>2020-01-08T12:40:18.000Z</time>
      </trkpt>
      <trkpt lat="45.6633" lon="6.73349">
        <ele>2469</ele>
        <time>2020-01-08T12:40:19.000Z</time>
      </trkpt>
      <trkpt lat="45.66326" lon="6.73354">
        <ele>2466.6000976562</ele>
        <time>2020-01-08T12:40:20.000Z</time>
      </trkpt>
      <trkpt lat="45.66325" lon="6.73358">
        <ele>2463.8000488281</ele>
        <time>2020-01-08T12:40:21.000Z</time>
      </trkpt>
      <trkpt lat="45.66324" lon="6.73363">
        <ele>2458.1999511719</ele>
        <time>2020-01-08T12:40:22.000Z</time>
      </trkpt>
      <trkpt lat="45.66324" lon="6.73367">
        <ele>2455.8000488281</ele>
        <time>2020-01-08T12:40:23.000Z</time>
      </trkpt>
      <trkpt lat="45.66322" lon="6.73369">
        <ele>2453</ele>
        <time>2020-01-08T12:40:24.000Z</time>
      </trkpt>
      <trkpt lat="45.6632" lon="6.73375">
        <ele>2450.1999511719</ele>
        <time>2020-01-08T12:40:25.000Z</time>
      </trkpt>
      <trkpt lat="45.66318" lon="6.73382">
        <ele>2447.8000488281</ele>
        <time>2020-01-08T12:40:26.000Z</time>
      </trkpt>
      <trkpt lat="45.66314" lon="6.73385">
        <ele>2445.8000488281</ele>
        <time>2020-01-08T12:40:27.000Z</time>
      </trkpt>
      <trkpt lat="45.66311" lon="6.73388">
        <ele>2443.3999023438</ele>
        <time>2020-01-08T12:40:28.000Z</time>
      </trkpt>
      <trkpt lat="45.66311" lon="6.73392">
        <ele>2441</ele>
        <time>2020-01-08T12:40:29.000Z</time>
      </trkpt>
      <trkpt lat="45.6631" lon="6.73395">
        <ele>2438.3999023438</ele>
        <time>2020-01-08T12:40:30.000Z</time>
      </trkpt>
      <trkpt lat="45.66307" lon="6.73396">
        <ele>2436.1999511719</ele>
        <time>2020-01-08T12:40:31.000Z</time>
      </trkpt>
      <trkpt lat="45.66305" lon="6.73397">
        <ele>2434.1999511719</ele>
        <time>2020-01-08T12:40:32.000Z</time>
      </trkpt>
      <trkpt lat="45.66302" lon="6.73398">
        <ele>2432.8000488281</ele>
        <time>2020-01-08T12:40:33.000Z</time>
      </trkpt>
      <trkpt lat="45.6629" lon="6.73396">
        <ele>2431.3999023438</ele>
        <time>2020-01-08T12:40:35.000Z</time>
      </trkpt>
      <trkpt lat="45.66286" lon="6.73396">
        <ele>2430.6000976562</ele>
        <time>2020-01-08T12:40:37.000Z</time>
      </trkpt>
      <trkpt lat="45.66286" lon="6.73396">
        <ele>2430.3999023438</ele>
        <time>2020-01-08T12:40:38.000Z</time>
      </trkpt>
      <trkpt lat="45.66286" lon="6.73396">
        <ele>2430.1999511719</ele>
        <time>2020-01-08T12:40:55.000Z</time>
      </trkpt>
      <trkpt lat="45.66286" lon="6.73396">
        <ele>2430</ele>
        <time>2020-01-08T12:41:12.000Z</time>
      </trkpt>
      <trkpt lat="45.66285" lon="6.73394">
        <ele>2430</ele>
        <time>2020-01-08T12:41:33.000Z</time>
      </trkpt>
      <trkpt lat="45.66285" lon="6.73394">
        <ele>2430.1999511719</ele>
        <time>2020-01-08T12:41:47.000Z</time>
      </trkpt>
      <trkpt lat="45.66283" lon="6.73394">
        <ele>2430.1999511719</ele>
        <time>2020-01-08T12:42:02.000Z</time>
      </trkpt>
      <trkpt lat="45.66283" lon="6.73394">
        <ele>2430</ele>
        <time>2020-01-08T12:42:21.000Z</time>
      </trkpt>
      <trkpt lat="45.6628" lon="6.73387">
        <ele>2430.3999023438</ele>
        <time>2020-01-08T12:42:30.000Z</time>
      </trkpt>
      <trkpt lat="45.66275" lon="6.73384">
        <ele>2430.1999511719</ele>
        <time>2020-01-08T12:42:31.000Z</time>
      </trkpt>
      <trkpt lat="45.66264" lon="6.73382">
        <ele>2430.1999511719</ele>
        <time>2020-01-08T12:42:33.000Z</time>
      </trkpt>
      <trkpt lat="45.66259" lon="6.73386">
        <ele>2429.3999023438</ele>
        <time>2020-01-08T12:42:35.000Z</time>
      </trkpt>
      <trkpt lat="45.66258" lon="6.73391">
        <ele>2428.8000488281</ele>
        <time>2020-01-08T12:42:36.000Z</time>
      </trkpt>
      <trkpt lat="45.66251" lon="6.73398">
        <ele>2426.8000488281</ele>
        <time>2020-01-08T12:42:38.000Z</time>
      </trkpt>
      <trkpt lat="45.66249" lon="6.73403">
        <ele>2425.6000976562</ele>
        <time>2020-01-08T12:42:39.000Z</time>
      </trkpt>
      <trkpt lat="45.66245" lon="6.73407">
        <ele>2424</ele>
        <time>2020-01-08T12:42:40.000Z</time>
      </trkpt>
      <trkpt lat="45.6624" lon="6.73409">
        <ele>2422.3999023438</ele>
        <time>2020-01-08T12:42:41.000Z</time>
      </trkpt>
      <trkpt lat="45.66235" lon="6.73413">
        <ele>2420.3999023438</ele>
        <time>2020-01-08T12:42:42.000Z</time>
      </trkpt>
      <trkpt lat="45.66231" lon="6.73418">
        <ele>2418.1999511719</ele>
        <time>2020-01-08T12:42:43.000Z</time>
      </trkpt>
      <trkpt lat="45.66226" lon="6.73421">
        <ele>2416</ele>
        <time>2020-01-08T12:42:44.000Z</time>
      </trkpt>
      <trkpt lat="45.66221" lon="6.73425">
        <ele>2413.8000488281</ele>
        <time>2020-01-08T12:42:45.000Z</time>
      </trkpt>
      <trkpt lat="45.66216" lon="6.73429">
        <ele>2410</ele>
        <time>2020-01-08T12:42:46.000Z</time>
      </trkpt>
      <trkpt lat="45.6621" lon="6.73434">
        <ele>2407.8000488281</ele>
        <time>2020-01-08T12:42:47.000Z</time>
      </trkpt>
      <trkpt lat="45.66206" lon="6.73441">
        <ele>2405.6000976562</ele>
        <time>2020-01-08T12:42:48.000Z</time>
      </trkpt>
      <trkpt lat="45.66202" lon="6.73446">
        <ele>2403.1999511719</ele>
        <time>2020-01-08T12:42:49.000Z</time>
      </trkpt>
      <trkpt lat="45.66199" lon="6.73452">
        <ele>2400.6000976562</ele>
        <time>2020-01-08T12:42:50.000Z</time>
      </trkpt>
      <trkpt lat="45.66196" lon="6.73458">
        <ele>2397.8000488281</ele>
        <time>2020-01-08T12:42:51.000Z</time>
      </trkpt>
      <trkpt lat="45.66192" lon="6.73463">
        <ele>2394.8000488281</ele>
        <time>2020-01-08T12:42:52.000Z</time>
      </trkpt>
      <trkpt lat="45.66188" lon="6.73466">
        <ele>2391.8000488281</ele>
        <time>2020-01-08T12:42:53.000Z</time>
      </trkpt>
      <trkpt lat="45.66184" lon="6.73471">
        <ele>2388.6000976562</ele>
        <time>2020-01-08T12:42:54.000Z</time>
      </trkpt>
      <trkpt lat="45.66181" lon="6.73476">
        <ele>2385.6000976562</ele>
        <time>2020-01-08T12:42:55.000Z</time>
      </trkpt>
      <trkpt lat="45.66177" lon="6.7348">
        <ele>2382.8000488281</ele>
        <time>2020-01-08T12:42:56.000Z</time>
      </trkpt>
      <trkpt lat="45.66174" lon="6.73485">
        <ele>2380.3999023438</ele>
        <time>2020-01-08T12:42:57.000Z</time>
      </trkpt>
      <trkpt lat="45.66171" lon="6.73488">
        <ele>2378</ele>
        <time>2020-01-08T12:42:58.000Z</time>
      </trkpt>
      <trkpt lat="45.66167" lon="6.7349">
        <ele>2375.3999023438</ele>
        <time>2020-01-08T12:42:59.000Z</time>
      </trkpt>
      <trkpt lat="45.66164" lon="6.73493">
        <ele>2372.8000488281</ele>
        <time>2020-01-08T12:43:00.000Z</time>
      </trkpt>
      <trkpt lat="45.66158" lon="6.73495">
        <ele>2370.3999023438</ele>
        <time>2020-01-08T12:43:01.000Z</time>
      </trkpt>
      <trkpt lat="45.66155" lon="6.735">
        <ele>2368.1999511719</ele>
        <time>2020-01-08T12:43:02.000Z</time>
      </trkpt>
      <trkpt lat="45.66153" lon="6.73506">
        <ele>2366.1999511719</ele>
        <time>2020-01-08T12:43:03.000Z</time>
      </trkpt>
      <trkpt lat="45.66152" lon="6.7351">
        <ele>2364.3999023438</ele>
        <time>2020-01-08T12:43:04.000Z</time>
      </trkpt>
      <trkpt lat="45.6615" lon="6.73514">
        <ele>2362</ele>
        <time>2020-01-08T12:43:05.000Z</time>
      </trkpt>
      <trkpt lat="45.66147" lon="6.73519">
        <ele>2359.3999023438</ele>
        <time>2020-01-08T12:43:06.000Z</time>
      </trkpt>
      <trkpt lat="45.66144" lon="6.73523">
        <ele>2356.6000976562</ele>
        <time>2020-01-08T12:43:07.000Z</time>
      </trkpt>
      <trkpt lat="45.6614" lon="6.73527">
        <ele>2354.1999511719</ele>
        <time>2020-01-08T12:43:08.000Z</time>
      </trkpt>
      <trkpt lat="45.66137" lon="6.7353">
        <ele>2352</ele>
        <time>2020-01-08T12:43:09.000Z</time>
      </trkpt>
      <trkpt lat="45.66135" lon="6.73533">
        <ele>2341.6000976562</ele>
        <time>2020-01-08T12:43:10.000Z</time>
      </trkpt>
      <trkpt lat="45.66133" lon="6.73535">
        <ele>2335.3999023438</ele>
        <time>2020-01-08T12:43:11.000Z</time>
      </trkpt>
      <trkpt lat="45.6613" lon="6.73537">
        <ele>2332</ele>
        <time>2020-01-08T12:43:12.000Z</time>
      </trkpt>
      <trkpt lat="45.66128" lon="6.73539">
        <ele>2330.3999023438</ele>
        <time>2020-01-08T12:43:13.000Z</time>
      </trkpt>
      <trkpt lat="45.66123" lon="6.73544">
        <ele>2329.1999511719</ele>
        <time>2020-01-08T12:43:15.000Z</time>
      </trkpt>
      <trkpt lat="45.66121" lon="6.73546">
        <ele>2331</ele>
        <time>2020-01-08T12:43:16.000Z</time>
      </trkpt>
      <trkpt lat="45.6612" lon="6.73548">
        <ele>2335</ele>
        <time>2020-01-08T12:43:17.000Z</time>
      </trkpt>
      <trkpt lat="45.66117" lon="6.73547">
        <ele>2339</ele>
        <time>2020-01-08T12:43:18.000Z</time>
      </trkpt>
      <trkpt lat="45.66114" lon="6.73546">
        <ele>2342.1999511719</ele>
        <time>2020-01-08T12:43:19.000Z</time>
      </trkpt>
      <trkpt lat="45.66115" lon="6.73543">
        <ele>2344.6000976562</ele>
        <time>2020-01-08T12:43:20.000Z</time>
      </trkpt>
      <trkpt lat="45.66117" lon="6.7354">
        <ele>2345.6000976562</ele>
        <time>2020-01-08T12:43:21.000Z</time>
      </trkpt>
      <trkpt lat="45.66117" lon="6.7354">
        <ele>2346.1999511719</ele>
        <time>2020-01-08T12:43:22.000Z</time>
      </trkpt>
      <trkpt lat="45.66117" lon="6.7354">
        <ele>2343.8000488281</ele>
        <time>2020-01-08T12:43:25.000Z</time>
      </trkpt>
      <trkpt lat="45.66117" lon="6.7354">
        <ele>2342.1999511719</ele>
        <time>2020-01-08T12:43:26.000Z</time>
      </trkpt>
      <trkpt lat="45.66116" lon="6.7354">
        <ele>2341</ele>
        <time>2020-01-08T12:43:27.000Z</time>
      </trkpt>
      <trkpt lat="45.66122" lon="6.73529">
        <ele>2340</ele>
        <time>2020-01-08T12:43:29.000Z</time>
      </trkpt>
      <trkpt lat="45.66122" lon="6.73515">
        <ele>2338.8000488281</ele>
        <time>2020-01-08T12:43:33.000Z</time>
      </trkpt>
      <trkpt lat="45.66123" lon="6.73513">
        <ele>2338.1999511719</ele>
        <time>2020-01-08T12:43:34.000Z</time>
      </trkpt>
      <trkpt lat="45.66123" lon="6.73513">
        <ele>2337.8000488281</ele>
        <time>2020-01-08T12:43:38.000Z</time>
      </trkpt>
      <trkpt lat="45.66123" lon="6.73513">
        <ele>2337.6000976562</ele>
        <time>2020-01-08T12:43:45.000Z</time>
      </trkpt>
      <trkpt lat="45.66123" lon="6.73513">
        <ele>2337.3999023438</ele>
        <time>2020-01-08T12:43:57.000Z</time>
      </trkpt>
      <trkpt lat="45.66123" lon="6.73513">
        <ele>2337.6000976562</ele>
        <time>2020-01-08T12:44:11.000Z</time>
      </trkpt>
      <trkpt lat="45.66123" lon="6.73514">
        <ele>2337.6000976562</ele>
        <time>2020-01-08T12:44:27.000Z</time>
      </trkpt>
      <trkpt lat="45.6612" lon="6.73515">
        <ele>2337.6000976562</ele>
        <time>2020-01-08T12:44:37.000Z</time>
      </trkpt>
      <trkpt lat="45.66117" lon="6.73513">
        <ele>2337.6000976562</ele>
        <time>2020-01-08T12:44:38.000Z</time>
      </trkpt>
      <trkpt lat="45.66108" lon="6.73519">
        <ele>2337.1999511719</ele>
        <time>2020-01-08T12:44:41.000Z</time>
      </trkpt>
      <trkpt lat="45.66107" lon="6.7352">
        <ele>2336.6000976562</ele>
        <time>2020-01-08T12:44:42.000Z</time>
      </trkpt>
      <trkpt lat="45.66103" lon="6.73526">
        <ele>2335.1999511719</ele>
        <time>2020-01-08T12:44:44.000Z</time>
      </trkpt>
      <trkpt lat="45.661" lon="6.73528">
        <ele>2334</ele>
        <time>2020-01-08T12:44:45.000Z</time>
      </trkpt>
      <trkpt lat="45.66094" lon="6.73529">
        <ele>2331.3999023438</ele>
        <time>2020-01-08T12:44:46.000Z</time>
      </trkpt>
      <trkpt lat="45.66091" lon="6.73532">
        <ele>2329.8000488281</ele>
        <time>2020-01-08T12:44:47.000Z</time>
      </trkpt>
      <trkpt lat="45.66087" lon="6.73534">
        <ele>2328</ele>
        <time>2020-01-08T12:44:48.000Z</time>
      </trkpt>
      <trkpt lat="45.66085" lon="6.73539">
        <ele>2326.1999511719</ele>
        <time>2020-01-08T12:44:49.000Z</time>
      </trkpt>
      <trkpt lat="45.66083" lon="6.73541">
        <ele>2324.6000976562</ele>
        <time>2020-01-08T12:44:50.000Z</time>
      </trkpt>
      <trkpt lat="45.6608" lon="6.73542">
        <ele>2322.8000488281</ele>
        <time>2020-01-08T12:44:51.000Z</time>
      </trkpt>
      <trkpt lat="45.66078" lon="6.73547">
        <ele>2320.8000488281</ele>
        <time>2020-01-08T12:44:52.000Z</time>
      </trkpt>
      <trkpt lat="45.66077" lon="6.73553">
        <ele>2318.8000488281</ele>
        <time>2020-01-08T12:44:53.000Z</time>
      </trkpt>
      <trkpt lat="45.66078" lon="6.73559">
        <ele>2317</ele>
        <time>2020-01-08T12:44:54.000Z</time>
      </trkpt>
      <trkpt lat="45.66078" lon="6.73564">
        <ele>2315.1999511719</ele>
        <time>2020-01-08T12:44:55.000Z</time>
      </trkpt>
      <trkpt lat="45.66077" lon="6.73569">
        <ele>2313.3999023438</ele>
        <time>2020-01-08T12:44:56.000Z</time>
      </trkpt>
      <trkpt lat="45.66075" lon="6.73575">
        <ele>2311.6000976562</ele>
        <time>2020-01-08T12:44:57.000Z</time>
      </trkpt>
      <trkpt lat="45.66074" lon="6.73581">
        <ele>2309.8000488281</ele>
        <time>2020-01-08T12:44:58.000Z</time>
      </trkpt>
      <trkpt lat="45.66073" lon="6.73589">
        <ele>2308.3999023438</ele>
        <time>2020-01-08T12:44:59.000Z</time>
      </trkpt>
      <trkpt lat="45.66072" lon="6.73594">
        <ele>2307.1999511719</ele>
        <time>2020-01-08T12:45:00.000Z</time>
      </trkpt>
      <trkpt lat="45.6607" lon="6.73599">
        <ele>2306.1999511719</ele>
        <time>2020-01-08T12:45:01.000Z</time>
      </trkpt>
      <trkpt lat="45.66069" lon="6.73603">
        <ele>2305.3999023438</ele>
        <time>2020-01-08T12:45:02.000Z</time>
      </trkpt>
      <trkpt lat="45.66069" lon="6.73605">
        <ele>2304</ele>
        <time>2020-01-08T12:45:04.000Z</time>
      </trkpt>
      <trkpt lat="45.66069" lon="6.73605">
        <ele>2303</ele>
        <time>2020-01-08T12:45:06.000Z</time>
      </trkpt>
      <trkpt lat="45.66069" lon="6.73605">
        <ele>2302</ele>
        <time>2020-01-08T12:45:10.000Z</time>
      </trkpt>
      <trkpt lat="45.66069" lon="6.73605">
        <ele>2301.8000488281</ele>
        <time>2020-01-08T12:45:12.000Z</time>
      </trkpt>
      <trkpt lat="45.66066" lon="6.73605">
        <ele>2302</ele>
        <time>2020-01-08T12:45:21.000Z</time>
      </trkpt>
      <trkpt lat="45.66062" lon="6.73604">
        <ele>2302</ele>
        <time>2020-01-08T12:45:22.000Z</time>
      </trkpt>
      <trkpt lat="45.66056" lon="6.73608">
        <ele>2301.3999023438</ele>
        <time>2020-01-08T12:45:24.000Z</time>
      </trkpt>
      <trkpt lat="45.66056" lon="6.73612">
        <ele>2300.8000488281</ele>
        <time>2020-01-08T12:45:25.000Z</time>
      </trkpt>
      <trkpt lat="45.66056" lon="6.7362">
        <ele>2300</ele>
        <time>2020-01-08T12:45:27.000Z</time>
      </trkpt>
      <trkpt lat="45.66055" lon="6.73624">
        <ele>2299.6000976562</ele>
        <time>2020-01-08T12:45:28.000Z</time>
      </trkpt>
      <trkpt lat="45.66055" lon="6.73628">
        <ele>2299</ele>
        <time>2020-01-08T12:45:29.000Z</time>
      </trkpt>
      <trkpt lat="45.66054" lon="6.7363">
        <ele>2298.3999023438</ele>
        <time>2020-01-08T12:45:30.000Z</time>
      </trkpt>
      <trkpt lat="45.6605" lon="6.73636">
        <ele>2297.3999023438</ele>
        <time>2020-01-08T12:45:34.000Z</time>
      </trkpt>
      <trkpt lat="45.66047" lon="6.73643">
        <ele>2297</ele>
        <time>2020-01-08T12:45:42.000Z</time>
      </trkpt>
      <trkpt lat="45.66047" lon="6.73646">
        <ele>2296</ele>
        <time>2020-01-08T12:45:47.000Z</time>
      </trkpt>
      <trkpt lat="45.6605" lon="6.73649">
        <ele>2295.1999511719</ele>
        <time>2020-01-08T12:45:49.000Z</time>
      </trkpt>
      <trkpt lat="45.66054" lon="6.73647">
        <ele>2294.6000976562</ele>
        <time>2020-01-08T12:45:50.000Z</time>
      </trkpt>
      <trkpt lat="45.66054" lon="6.73645">
        <ele>2294</ele>
        <time>2020-01-08T12:45:51.000Z</time>
      </trkpt>
      <trkpt lat="45.66053" lon="6.73642">
        <ele>2293.1999511719</ele>
        <time>2020-01-08T12:45:52.000Z</time>
      </trkpt>
      <trkpt lat="45.6605" lon="6.73642">
        <ele>2291.8000488281</ele>
        <time>2020-01-08T12:45:53.000Z</time>
      </trkpt>
      <trkpt lat="45.66045" lon="6.73644">
        <ele>2290</ele>
        <time>2020-01-08T12:45:54.000Z</time>
      </trkpt>
      <trkpt lat="45.66041" lon="6.73646">
        <ele>2288.3999023438</ele>
        <time>2020-01-08T12:45:55.000Z</time>
      </trkpt>
      <trkpt lat="45.66036" lon="6.73647">
        <ele>2287.3999023438</ele>
        <time>2020-01-08T12:45:56.000Z</time>
      </trkpt>
      <trkpt lat="45.66026" lon="6.73648">
        <ele>2285.6000976562</ele>
        <time>2020-01-08T12:45:58.000Z</time>
      </trkpt>
      <trkpt lat="45.66022" lon="6.73648">
        <ele>2284.8000488281</ele>
        <time>2020-01-08T12:45:59.000Z</time>
      </trkpt>
      <trkpt lat="45.66017" lon="6.73649">
        <ele>2283.1999511719</ele>
        <time>2020-01-08T12:46:00.000Z</time>
      </trkpt>
      <trkpt lat="45.66008" lon="6.73649">
        <ele>2281.8000488281</ele>
        <time>2020-01-08T12:46:03.000Z</time>
      </trkpt>
      <trkpt lat="45.66008" lon="6.73648">
        <ele>2280.8000488281</ele>
        <time>2020-01-08T12:46:05.000Z</time>
      </trkpt>
      <trkpt lat="45.66008" lon="6.73649">
        <ele>2279.8000488281</ele>
        <time>2020-01-08T12:46:08.000Z</time>
      </trkpt>
      <trkpt lat="45.66008" lon="6.73649">
        <ele>2279.8000488281</ele>
        <time>2020-01-08T12:46:16.000Z</time>
      </trkpt>
      <trkpt lat="45.66012" lon="6.7366">
        <ele>2279.6000976562</ele>
        <time>2020-01-08T12:46:22.000Z</time>
      </trkpt>
      <trkpt lat="45.66012" lon="6.73678">
        <ele>2279.6000976562</ele>
        <time>2020-01-08T12:46:28.000Z</time>
      </trkpt>
      <trkpt lat="45.66015" lon="6.73699">
        <ele>2279.3999023438</ele>
        <time>2020-01-08T12:46:33.000Z</time>
      </trkpt>
      <trkpt lat="45.66007" lon="6.73698">
        <ele>2278</ele>
        <time>2020-01-08T12:46:36.000Z</time>
      </trkpt>
      <trkpt lat="45.66001" lon="6.73696">
        <ele>2276.6000976562</ele>
        <time>2020-01-08T12:46:38.000Z</time>
      </trkpt>
      <trkpt lat="45.6599" lon="6.7369">
        <ele>2275.3999023438</ele>
        <time>2020-01-08T12:46:41.000Z</time>
      </trkpt>
      <trkpt lat="45.65984" lon="6.73683">
        <ele>2274.1999511719</ele>
        <time>2020-01-08T12:46:43.000Z</time>
      </trkpt>
      <trkpt lat="45.65979" lon="6.73681">
        <ele>2273.1999511719</ele>
        <time>2020-01-08T12:46:45.000Z</time>
      </trkpt>
      <trkpt lat="45.65977" lon="6.73679">
        <ele>2271.6000976562</ele>
        <time>2020-01-08T12:46:48.000Z</time>
      </trkpt>
      <trkpt lat="45.65977" lon="6.73679">
        <ele>2271.1999511719</ele>
        <time>2020-01-08T12:46:49.000Z</time>
      </trkpt>
      <trkpt lat="45.65977" lon="6.73679">
        <ele>2270.6000976562</ele>
        <time>2020-01-08T12:46:58.000Z</time>
      </trkpt>
      <trkpt lat="45.65977" lon="6.73679">
        <ele>2270.6000976562</ele>
        <time>2020-01-08T12:47:04.000Z</time>
      </trkpt>
      <trkpt lat="45.65977" lon="6.73679">
        <ele>2270.6000976562</ele>
        <time>2020-01-08T12:47:19.000Z</time>
      </trkpt>
      <trkpt lat="45.65976" lon="6.73679">
        <ele>2270.6000976562</ele>
        <time>2020-01-08T12:47:32.000Z</time>
      </trkpt>
      <trkpt lat="45.65976" lon="6.73679">
        <ele>2270.6000976562</ele>
        <time>2020-01-08T12:47:51.000Z</time>
      </trkpt>
      <trkpt lat="45.65971" lon="6.73681">
        <ele>2270.3999023438</ele>
        <time>2020-01-08T12:48:01.000Z</time>
      </trkpt>
      <trkpt lat="45.6597" lon="6.73682">
        <ele>2270.3999023438</ele>
        <time>2020-01-08T12:48:02.000Z</time>
      </trkpt>
      <trkpt lat="45.65962" lon="6.73694">
        <ele>2270.3999023438</ele>
        <time>2020-01-08T12:48:05.000Z</time>
      </trkpt>
      <trkpt lat="45.65958" lon="6.73702">
        <ele>2270.1999511719</ele>
        <time>2020-01-08T12:48:06.000Z</time>
      </trkpt>
      <trkpt lat="45.65948" lon="6.73719">
        <ele>2269.3999023438</ele>
        <time>2020-01-08T12:48:08.000Z</time>
      </trkpt>
      <trkpt lat="45.65939" lon="6.73733">
        <ele>2268</ele>
        <time>2020-01-08T12:48:10.000Z</time>
      </trkpt>
      <trkpt lat="45.65929" lon="6.73749">
        <ele>2266.1999511719</ele>
        <time>2020-01-08T12:48:12.000Z</time>
      </trkpt>
      <trkpt lat="45.65922" lon="6.73755">
        <ele>2265.3999023438</ele>
        <time>2020-01-08T12:48:13.000Z</time>
      </trkpt>
      <trkpt lat="45.65916" lon="6.7376">
        <ele>2264.6000976562</ele>
        <time>2020-01-08T12:48:14.000Z</time>
      </trkpt>
      <trkpt lat="45.6591" lon="6.73762">
        <ele>2263.6000976562</ele>
        <time>2020-01-08T12:48:15.000Z</time>
      </trkpt>
      <trkpt lat="45.65905" lon="6.73766">
        <ele>2262.6000976562</ele>
        <time>2020-01-08T12:48:16.000Z</time>
      </trkpt>
      <trkpt lat="45.65895" lon="6.73772">
        <ele>2261.6000976562</ele>
        <time>2020-01-08T12:48:18.000Z</time>
      </trkpt>
      <trkpt lat="45.65888" lon="6.73772">
        <ele>2260.6000976562</ele>
        <time>2020-01-08T12:48:20.000Z</time>
      </trkpt>
      <trkpt lat="45.65885" lon="6.7377">
        <ele>2259.6000976562</ele>
        <time>2020-01-08T12:48:21.000Z</time>
      </trkpt>
      <trkpt lat="45.65882" lon="6.73772">
        <ele>2258.3999023438</ele>
        <time>2020-01-08T12:48:22.000Z</time>
      </trkpt>
      <trkpt lat="45.6588" lon="6.73775">
        <ele>2257.6000976562</ele>
        <time>2020-01-08T12:48:23.000Z</time>
      </trkpt>
      <trkpt lat="45.65877" lon="6.73778">
        <ele>2256.1999511719</ele>
        <time>2020-01-08T12:48:24.000Z</time>
      </trkpt>
      <trkpt lat="45.65871" lon="6.73781">
        <ele>2254.8000488281</ele>
        <time>2020-01-08T12:48:25.000Z</time>
      </trkpt>
      <trkpt lat="45.65865" lon="6.73783">
        <ele>2252.8000488281</ele>
        <time>2020-01-08T12:48:26.000Z</time>
      </trkpt>
      <trkpt lat="45.65862" lon="6.73785">
        <ele>2251.1999511719</ele>
        <time>2020-01-08T12:48:27.000Z</time>
      </trkpt>
      <trkpt lat="45.6586" lon="6.73786">
        <ele>2249.8000488281</ele>
        <time>2020-01-08T12:48:28.000Z</time>
      </trkpt>
      <trkpt lat="45.65859" lon="6.73787">
        <ele>2248.6000976562</ele>
        <time>2020-01-08T12:48:29.000Z</time>
      </trkpt>
      <trkpt lat="45.65857" lon="6.73788">
        <ele>2247.6000976562</ele>
        <time>2020-01-08T12:48:30.000Z</time>
      </trkpt>
      <trkpt lat="45.65855" lon="6.73787">
        <ele>2245.8000488281</ele>
        <time>2020-01-08T12:48:32.000Z</time>
      </trkpt>
      <trkpt lat="45.65859" lon="6.73782">
        <ele>2245</ele>
        <time>2020-01-08T12:48:34.000Z</time>
      </trkpt>
      <trkpt lat="45.65863" lon="6.73779">
        <ele>2244.3999023438</ele>
        <time>2020-01-08T12:48:35.000Z</time>
      </trkpt>
      <trkpt lat="45.65865" lon="6.73776">
        <ele>2243.6000976562</ele>
        <time>2020-01-08T12:48:36.000Z</time>
      </trkpt>
      <trkpt lat="45.65867" lon="6.73775">
        <ele>2243</ele>
        <time>2020-01-08T12:48:37.000Z</time>
      </trkpt>
      <trkpt lat="45.65868" lon="6.73775">
        <ele>2241.8000488281</ele>
        <time>2020-01-08T12:48:40.000Z</time>
      </trkpt>
      <trkpt lat="45.65868" lon="6.73775">
        <ele>2240.3999023438</ele>
        <time>2020-01-08T12:48:43.000Z</time>
      </trkpt>
      <trkpt lat="45.65869" lon="6.73772">
        <ele>2239.8000488281</ele>
        <time>2020-01-08T12:48:46.000Z</time>
      </trkpt>
      <trkpt lat="45.6587" lon="6.7377">
        <ele>2239.3999023438</ele>
        <time>2020-01-08T12:48:48.000Z</time>
      </trkpt>
      <trkpt lat="45.6587" lon="6.73769">
        <ele>2239</ele>
        <time>2020-01-08T12:48:49.000Z</time>
      </trkpt>
      <trkpt lat="45.65864" lon="6.73769">
        <ele>2238.3999023438</ele>
        <time>2020-01-08T12:48:51.000Z</time>
      </trkpt>
      <trkpt lat="45.65863" lon="6.73768">
        <ele>2238.1999511719</ele>
        <time>2020-01-08T12:48:52.000Z</time>
      </trkpt>
      <trkpt lat="45.65862" lon="6.73766">
        <ele>2238</ele>
        <time>2020-01-08T12:48:54.000Z</time>
      </trkpt>
      <trkpt lat="45.65863" lon="6.73761">
        <ele>2237.3999023438</ele>
        <time>2020-01-08T12:48:55.000Z</time>
      </trkpt>
      <trkpt lat="45.65863" lon="6.73759">
        <ele>2236.3999023438</ele>
        <time>2020-01-08T12:48:56.000Z</time>
      </trkpt>
      <trkpt lat="45.65864" lon="6.73756">
        <ele>2235.3999023438</ele>
        <time>2020-01-08T12:48:57.000Z</time>
      </trkpt>
      <trkpt lat="45.65865" lon="6.73751">
        <ele>2233.6000976562</ele>
        <time>2020-01-08T12:48:59.000Z</time>
      </trkpt>
      <trkpt lat="45.65865" lon="6.73749">
        <ele>2232.3999023438</ele>
        <time>2020-01-08T12:49:02.000Z</time>
      </trkpt>
      <trkpt lat="45.65863" lon="6.73748">
        <ele>2231.3999023438</ele>
        <time>2020-01-08T12:49:06.000Z</time>
      </trkpt>
      <trkpt lat="45.65861" lon="6.73746">
        <ele>2231.3999023438</ele>
        <time>2020-01-08T12:49:08.000Z</time>
      </trkpt>
      <trkpt lat="45.65859" lon="6.73745">
        <ele>2231.1999511719</ele>
        <time>2020-01-08T12:49:09.000Z</time>
      </trkpt>
      <trkpt lat="45.65857" lon="6.73742">
        <ele>2230.1999511719</ele>
        <time>2020-01-08T12:49:11.000Z</time>
      </trkpt>
      <trkpt lat="45.65856" lon="6.73741">
        <ele>2227.8000488281</ele>
        <time>2020-01-08T12:49:12.000Z</time>
      </trkpt>
      <trkpt lat="45.65854" lon="6.73739">
        <ele>2226.3999023438</ele>
        <time>2020-01-08T12:49:13.000Z</time>
      </trkpt>
      <trkpt lat="45.65853" lon="6.73738">
        <ele>2225.6000976562</ele>
        <time>2020-01-08T12:49:14.000Z</time>
      </trkpt>
      <trkpt lat="45.65852" lon="6.73737">
        <ele>2225</ele>
        <time>2020-01-08T12:49:15.000Z</time>
      </trkpt>
      <trkpt lat="45.65852" lon="6.73735">
        <ele>2224.3999023438</ele>
        <time>2020-01-08T12:49:16.000Z</time>
      </trkpt>
      <trkpt lat="45.65851" lon="6.73733">
        <ele>2223.6000976562</ele>
        <time>2020-01-08T12:49:17.000Z</time>
      </trkpt>
      <trkpt lat="45.65851" lon="6.73731">
        <ele>2222.3999023438</ele>
        <time>2020-01-08T12:49:18.000Z</time>
      </trkpt>
      <trkpt lat="45.65852" lon="6.73734">
        <ele>2221</ele>
        <time>2020-01-08T12:49:19.000Z</time>
      </trkpt>
      <trkpt lat="45.65852" lon="6.73731">
        <ele>2220</ele>
        <time>2020-01-08T12:49:20.000Z</time>
      </trkpt>
      <trkpt lat="45.65849" lon="6.7373">
        <ele>2219.3999023438</ele>
        <time>2020-01-08T12:49:21.000Z</time>
      </trkpt>
      <trkpt lat="45.65847" lon="6.7373">
        <ele>2219</ele>
        <time>2020-01-08T12:49:22.000Z</time>
      </trkpt>
      <trkpt lat="45.65844" lon="6.73727">
        <ele>2217</ele>
        <time>2020-01-08T12:49:26.000Z</time>
      </trkpt>
      <trkpt lat="45.65843" lon="6.73727">
        <ele>2216</ele>
        <time>2020-01-08T12:49:27.000Z</time>
      </trkpt>
      <trkpt lat="45.65842" lon="6.73724">
        <ele>2215</ele>
        <time>2020-01-08T12:49:28.000Z</time>
      </trkpt>
      <trkpt lat="45.65843" lon="6.73728">
        <ele>2213.8000488281</ele>
        <time>2020-01-08T12:49:29.000Z</time>
      </trkpt>
      <trkpt lat="45.65843" lon="6.73728">
        <ele>2212.8000488281</ele>
        <time>2020-01-08T12:49:30.000Z</time>
      </trkpt>
      <trkpt lat="45.65842" lon="6.73728">
        <ele>2211.6000976562</ele>
        <time>2020-01-08T12:49:31.000Z</time>
      </trkpt>
      <trkpt lat="45.65842" lon="6.73727">
        <ele>2210.1999511719</ele>
        <time>2020-01-08T12:49:33.000Z</time>
      </trkpt>
      <trkpt lat="45.65839" lon="6.73728">
        <ele>2209.8000488281</ele>
        <time>2020-01-08T12:49:34.000Z</time>
      </trkpt>
      <trkpt lat="45.65834" lon="6.73725">
        <ele>2209.1999511719</ele>
        <time>2020-01-08T12:49:37.000Z</time>
      </trkpt>
      <trkpt lat="45.65834" lon="6.73722">
        <ele>2208.6000976562</ele>
        <time>2020-01-08T12:49:38.000Z</time>
      </trkpt>
      <trkpt lat="45.65835" lon="6.73721">
        <ele>2206.6000976562</ele>
        <time>2020-01-08T12:49:40.000Z</time>
      </trkpt>
      <trkpt lat="45.65835" lon="6.7372">
        <ele>2205.1999511719</ele>
        <time>2020-01-08T12:49:41.000Z</time>
      </trkpt>
      <trkpt lat="45.65831" lon="6.7372">
        <ele>2204</ele>
        <time>2020-01-08T12:49:42.000Z</time>
      </trkpt>
      <trkpt lat="45.65827" lon="6.73719">
        <ele>2203.3999023438</ele>
        <time>2020-01-08T12:49:43.000Z</time>
      </trkpt>
      <trkpt lat="45.65826" lon="6.73718">
        <ele>2202.8000488281</ele>
        <time>2020-01-08T12:49:44.000Z</time>
      </trkpt>
      <trkpt lat="45.65825" lon="6.73717">
        <ele>2201.8000488281</ele>
        <time>2020-01-08T12:49:46.000Z</time>
      </trkpt>
      <trkpt lat="45.65824" lon="6.73716">
        <ele>2201.1999511719</ele>
        <time>2020-01-08T12:49:47.000Z</time>
      </trkpt>
      <trkpt lat="45.65822" lon="6.73715">
        <ele>2199.3999023438</ele>
        <time>2020-01-08T12:49:49.000Z</time>
      </trkpt>
      <trkpt lat="45.65822" lon="6.73715">
        <ele>2198.8000488281</ele>
        <time>2020-01-08T12:49:50.000Z</time>
      </trkpt>
      <trkpt lat="45.65823" lon="6.73713">
        <ele>2198</ele>
        <time>2020-01-08T12:49:51.000Z</time>
      </trkpt>
      <trkpt lat="45.65824" lon="6.73709">
        <ele>2196.6000976562</ele>
        <time>2020-01-08T12:49:53.000Z</time>
      </trkpt>
      <trkpt lat="45.65823" lon="6.73707">
        <ele>2195.6000976562</ele>
        <time>2020-01-08T12:49:54.000Z</time>
      </trkpt>
      <trkpt lat="45.6582" lon="6.73706">
        <ele>2194.8000488281</ele>
        <time>2020-01-08T12:49:55.000Z</time>
      </trkpt>
      <trkpt lat="45.65818" lon="6.73707">
        <ele>2194.3999023438</ele>
        <time>2020-01-08T12:49:56.000Z</time>
      </trkpt>
      <trkpt lat="45.65816" lon="6.73707">
        <ele>2193.6000976562</ele>
        <time>2020-01-08T12:49:58.000Z</time>
      </trkpt>
      <trkpt lat="45.65815" lon="6.73706">
        <ele>2193.1999511719</ele>
        <time>2020-01-08T12:49:59.000Z</time>
      </trkpt>
      <trkpt lat="45.65814" lon="6.73705">
        <ele>2192</ele>
        <time>2020-01-08T12:50:00.000Z</time>
      </trkpt>
      <trkpt lat="45.65813" lon="6.73706">
        <ele>2190.6000976562</ele>
        <time>2020-01-08T12:50:02.000Z</time>
      </trkpt>
      <trkpt lat="45.65813" lon="6.73706">
        <ele>2189.3999023438</ele>
        <time>2020-01-08T12:50:04.000Z</time>
      </trkpt>
      <trkpt lat="45.65813" lon="6.73706">
        <ele>2188.8000488281</ele>
        <time>2020-01-08T12:50:07.000Z</time>
      </trkpt>
      <trkpt lat="45.65813" lon="6.73706">
        <ele>2188.8000488281</ele>
        <time>2020-01-08T12:50:21.000Z</time>
      </trkpt>
      <trkpt lat="45.65809" lon="6.73707">
        <ele>2188.8000488281</ele>
        <time>2020-01-08T12:50:33.000Z</time>
      </trkpt>
      <trkpt lat="45.65805" lon="6.73708">
        <ele>2188.1999511719</ele>
        <time>2020-01-08T12:50:36.000Z</time>
      </trkpt>
      <trkpt lat="45.65805" lon="6.73709">
        <ele>2187.1999511719</ele>
        <time>2020-01-08T12:50:38.000Z</time>
      </trkpt>
      <trkpt lat="45.65805" lon="6.73709">
        <ele>2186.1999511719</ele>
        <time>2020-01-08T12:50:40.000Z</time>
      </trkpt>
      <trkpt lat="45.65805" lon="6.73709">
        <ele>2186</ele>
        <time>2020-01-08T12:50:41.000Z</time>
      </trkpt>
      <trkpt lat="45.65803" lon="6.73708">
        <ele>2185.8000488281</ele>
        <time>2020-01-08T12:50:42.000Z</time>
      </trkpt>
      <trkpt lat="45.65802" lon="6.73708">
        <ele>2185</ele>
        <time>2020-01-08T12:50:45.000Z</time>
      </trkpt>
      <trkpt lat="45.65801" lon="6.73707">
        <ele>2184.6000976562</ele>
        <time>2020-01-08T12:50:47.000Z</time>
      </trkpt>
      <trkpt lat="45.65801" lon="6.73706">
        <ele>2183.8000488281</ele>
        <time>2020-01-08T12:50:49.000Z</time>
      </trkpt>
      <trkpt lat="45.65801" lon="6.73706">
        <ele>2182.6000976562</ele>
        <time>2020-01-08T12:50:52.000Z</time>
      </trkpt>
      <trkpt lat="45.658" lon="6.73706">
        <ele>2182</ele>
        <time>2020-01-08T12:50:53.000Z</time>
      </trkpt>
      <trkpt lat="45.658" lon="6.73706">
        <ele>2181.3999023438</ele>
        <time>2020-01-08T12:50:55.000Z</time>
      </trkpt>
      <trkpt lat="45.65802" lon="6.73703">
        <ele>2180.1999511719</ele>
        <time>2020-01-08T12:51:01.000Z</time>
      </trkpt>
      <trkpt lat="45.65802" lon="6.73703">
        <ele>2179.1999511719</ele>
        <time>2020-01-08T12:51:04.000Z</time>
      </trkpt>
      <trkpt lat="45.658" lon="6.73702">
        <ele>2178.8000488281</ele>
        <time>2020-01-08T12:51:06.000Z</time>
      </trkpt>
      <trkpt lat="45.65799" lon="6.73701">
        <ele>2178.8000488281</ele>
        <time>2020-01-08T12:51:07.000Z</time>
      </trkpt>
      <trkpt lat="45.65797" lon="6.73698">
        <ele>2178</ele>
        <time>2020-01-08T12:51:11.000Z</time>
      </trkpt>
      <trkpt lat="45.65797" lon="6.73698">
        <ele>2176.3999023438</ele>
        <time>2020-01-08T12:51:12.000Z</time>
      </trkpt>
      <trkpt lat="45.65797" lon="6.73697">
        <ele>2175.1999511719</ele>
        <time>2020-01-08T12:51:14.000Z</time>
      </trkpt>
      <trkpt lat="45.65797" lon="6.73697">
        <ele>2174.1999511719</ele>
        <time>2020-01-08T12:51:17.000Z</time>
      </trkpt>
      <trkpt lat="45.65797" lon="6.73697">
        <ele>2174</ele>
        <time>2020-01-08T12:51:21.000Z</time>
      </trkpt>
      <trkpt lat="45.65796" lon="6.73694">
        <ele>2173.1999511719</ele>
        <time>2020-01-08T12:51:28.000Z</time>
      </trkpt>
      <trkpt lat="45.65795" lon="6.73694">
        <ele>2173</ele>
        <time>2020-01-08T12:51:29.000Z</time>
      </trkpt>
      <trkpt lat="45.65795" lon="6.73694">
        <ele>2172</ele>
        <time>2020-01-08T12:51:32.000Z</time>
      </trkpt>
      <trkpt lat="45.65795" lon="6.73694">
        <ele>2170.6000976562</ele>
        <time>2020-01-08T12:51:36.000Z</time>
      </trkpt>
      <trkpt lat="45.65795" lon="6.73694">
        <ele>2170</ele>
        <time>2020-01-08T12:51:45.000Z</time>
      </trkpt>
      <trkpt lat="45.65793" lon="6.73695">
        <ele>2169.6000976562</ele>
        <time>2020-01-08T12:51:48.000Z</time>
      </trkpt>
      <trkpt lat="45.65791" lon="6.73696">
        <ele>2168.6000976562</ele>
        <time>2020-01-08T12:51:53.000Z</time>
      </trkpt>
      <trkpt lat="45.65791" lon="6.73696">
        <ele>2168.1999511719</ele>
        <time>2020-01-08T12:51:54.000Z</time>
      </trkpt>
      <trkpt lat="45.65789" lon="6.73697">
        <ele>2167.3999023438</ele>
        <time>2020-01-08T12:51:59.000Z</time>
      </trkpt>
      <trkpt lat="45.65788" lon="6.73697">
        <ele>2166.6000976562</ele>
        <time>2020-01-08T12:52:01.000Z</time>
      </trkpt>
      <trkpt lat="45.65786" lon="6.73697">
        <ele>2166.1999511719</ele>
        <time>2020-01-08T12:52:02.000Z</time>
      </trkpt>
      <trkpt lat="45.65779" lon="6.73693">
        <ele>2164.8000488281</ele>
        <time>2020-01-08T12:52:04.000Z</time>
      </trkpt>
      <trkpt lat="45.65775" lon="6.7369">
        <ele>2164.1999511719</ele>
        <time>2020-01-08T12:52:05.000Z</time>
      </trkpt>
      <trkpt lat="45.65772" lon="6.73686">
        <ele>2163.6000976562</ele>
        <time>2020-01-08T12:52:06.000Z</time>
      </trkpt>
      <trkpt lat="45.65768" lon="6.73674">
        <ele>2162</ele>
        <time>2020-01-08T12:52:08.000Z</time>
      </trkpt>
      <trkpt lat="45.65767" lon="6.73669">
        <ele>2160.6000976562</ele>
        <time>2020-01-08T12:52:09.000Z</time>
      </trkpt>
      <trkpt lat="45.65767" lon="6.73666">
        <ele>2159.3999023438</ele>
        <time>2020-01-08T12:52:10.000Z</time>
      </trkpt>
      <trkpt lat="45.65766" lon="6.73664">
        <ele>2158.3999023438</ele>
        <time>2020-01-08T12:52:11.000Z</time>
      </trkpt>
      <trkpt lat="45.65766" lon="6.73663">
        <ele>2157.3999023438</ele>
        <time>2020-01-08T12:52:12.000Z</time>
      </trkpt>
      <trkpt lat="45.65767" lon="6.73663">
        <ele>2156.6000976562</ele>
        <time>2020-01-08T12:52:13.000Z</time>
      </trkpt>
      <trkpt lat="45.65769" lon="6.73668">
        <ele>2156</ele>
        <time>2020-01-08T12:52:14.000Z</time>
      </trkpt>
      <trkpt lat="45.65771" lon="6.73673">
        <ele>2155.1999511719</ele>
        <time>2020-01-08T12:52:15.000Z</time>
      </trkpt>
      <trkpt lat="45.65768" lon="6.7367">
        <ele>2154</ele>
        <time>2020-01-08T12:52:18.000Z</time>
      </trkpt>
      <trkpt lat="45.65768" lon="6.73669">
        <ele>2153.8000488281</ele>
        <time>2020-01-08T12:52:19.000Z</time>
      </trkpt>
      <trkpt lat="45.65768" lon="6.73669">
        <ele>2153</ele>
        <time>2020-01-08T12:52:21.000Z</time>
      </trkpt>
      <trkpt lat="45.65768" lon="6.73669">
        <ele>2151</ele>
        <time>2020-01-08T12:52:23.000Z</time>
      </trkpt>
      <trkpt lat="45.65768" lon="6.73669">
        <ele>2149.3999023438</ele>
        <time>2020-01-08T12:52:24.000Z</time>
      </trkpt>
      <trkpt lat="45.65768" lon="6.73668">
        <ele>2148.3999023438</ele>
        <time>2020-01-08T12:52:28.000Z</time>
      </trkpt>
      <trkpt lat="45.65768" lon="6.73668">
        <ele>2147.8000488281</ele>
        <time>2020-01-08T12:52:29.000Z</time>
      </trkpt>
      <trkpt lat="45.65768" lon="6.73668">
        <ele>2146.3999023438</ele>
        <time>2020-01-08T12:52:30.000Z</time>
      </trkpt>
      <trkpt lat="45.65768" lon="6.73668">
        <ele>2145</ele>
        <time>2020-01-08T12:52:32.000Z</time>
      </trkpt>
      <trkpt lat="45.65768" lon="6.73668">
        <ele>2146.6000976562</ele>
        <time>2020-01-08T12:52:35.000Z</time>
      </trkpt>
      <trkpt lat="45.65768" lon="6.73668">
        <ele>2148.1999511719</ele>
        <time>2020-01-08T12:52:36.000Z</time>
      </trkpt>
      <trkpt lat="45.65768" lon="6.73668">
        <ele>2149.6000976562</ele>
        <time>2020-01-08T12:52:38.000Z</time>
      </trkpt>
      <trkpt lat="45.6577" lon="6.73661">
        <ele>2149.1999511719</ele>
        <time>2020-01-08T12:52:43.000Z</time>
      </trkpt>
      <trkpt lat="45.65771" lon="6.7366">
        <ele>2148.6000976562</ele>
        <time>2020-01-08T12:52:50.000Z</time>
      </trkpt>
      <trkpt lat="45.65771" lon="6.7366">
        <ele>2148.3999023438</ele>
        <time>2020-01-08T12:52:51.000Z</time>
      </trkpt>
      <trkpt lat="45.65771" lon="6.7366">
        <ele>2148.3999023438</ele>
        <time>2020-01-08T12:53:02.000Z</time>
      </trkpt>
      <trkpt lat="45.65767" lon="6.73661">
        <ele>2148.3999023438</ele>
        <time>2020-01-08T12:53:11.000Z</time>
      </trkpt>
      <trkpt lat="45.65763" lon="6.73664">
        <ele>2147.6000976562</ele>
        <time>2020-01-08T12:53:14.000Z</time>
      </trkpt>
      <trkpt lat="45.65762" lon="6.73664">
        <ele>2147</ele>
        <time>2020-01-08T12:53:15.000Z</time>
      </trkpt>
      <trkpt lat="45.65761" lon="6.73663">
        <ele>2145.6000976562</ele>
        <time>2020-01-08T12:53:17.000Z</time>
      </trkpt>
      <trkpt lat="45.65761" lon="6.73662">
        <ele>2144.8000488281</ele>
        <time>2020-01-08T12:53:18.000Z</time>
      </trkpt>
      <trkpt lat="45.65761" lon="6.73662">
        <ele>2144.1999511719</ele>
        <time>2020-01-08T12:53:19.000Z</time>
      </trkpt>
      <trkpt lat="45.65763" lon="6.73656">
        <ele>2143</ele>
        <time>2020-01-08T12:53:22.000Z</time>
      </trkpt>
      <trkpt lat="45.65763" lon="6.73651">
        <ele>2141.8000488281</ele>
        <time>2020-01-08T12:53:24.000Z</time>
      </trkpt>
      <trkpt lat="45.65764" lon="6.73646">
        <ele>2140.6000976562</ele>
        <time>2020-01-08T12:53:26.000Z</time>
      </trkpt>
      <trkpt lat="45.65763" lon="6.73646">
        <ele>2139.1999511719</ele>
        <time>2020-01-08T12:53:29.000Z</time>
      </trkpt>
      <trkpt lat="45.65762" lon="6.73646">
        <ele>2138.8000488281</ele>
        <time>2020-01-08T12:53:30.000Z</time>
      </trkpt>
      <trkpt lat="45.65762" lon="6.73645">
        <ele>2137.6000976562</ele>
        <time>2020-01-08T12:53:32.000Z</time>
      </trkpt>
      <trkpt lat="45.65763" lon="6.73643">
        <ele>2136.3999023438</ele>
        <time>2020-01-08T12:53:34.000Z</time>
      </trkpt>
      <trkpt lat="45.65762" lon="6.73629">
        <ele>2135</ele>
        <time>2020-01-08T12:53:36.000Z</time>
      </trkpt>
      <trkpt lat="45.65762" lon="6.73618">
        <ele>2133.8000488281</ele>
        <time>2020-01-08T12:53:38.000Z</time>
      </trkpt>
      <trkpt lat="45.65763" lon="6.73612">
        <ele>2132.6000976562</ele>
        <time>2020-01-08T12:53:40.000Z</time>
      </trkpt>
      <trkpt lat="45.65764" lon="6.73593">
        <ele>2131.8000488281</ele>
        <time>2020-01-08T12:53:43.000Z</time>
      </trkpt>
      <trkpt lat="45.65764" lon="6.73586">
        <ele>2131.3999023438</ele>
        <time>2020-01-08T12:53:44.000Z</time>
      </trkpt>
      <trkpt lat="45.65763" lon="6.73568">
        <ele>2130</ele>
        <time>2020-01-08T12:53:47.000Z</time>
      </trkpt>
      <trkpt lat="45.65763" lon="6.73561">
        <ele>2128.8000488281</ele>
        <time>2020-01-08T12:53:49.000Z</time>
      </trkpt>
      <trkpt lat="45.6576" lon="6.73546">
        <ele>2127.3999023438</ele>
        <time>2020-01-08T12:53:52.000Z</time>
      </trkpt>
      <trkpt lat="45.65757" lon="6.73536">
        <ele>2126.3999023438</ele>
        <time>2020-01-08T12:53:54.000Z</time>
      </trkpt>
      <trkpt lat="45.65753" lon="6.73523">
        <ele>2125.1999511719</ele>
        <time>2020-01-08T12:53:56.000Z</time>
      </trkpt>
      <trkpt lat="45.65747" lon="6.73508">
        <ele>2124.3999023438</ele>
        <time>2020-01-08T12:53:58.000Z</time>
      </trkpt>
      <trkpt lat="45.65744" lon="6.73501">
        <ele>2123.8000488281</ele>
        <time>2020-01-08T12:53:59.000Z</time>
      </trkpt>
      <trkpt lat="45.65743" lon="6.73496">
        <ele>2122</ele>
        <time>2020-01-08T12:54:00.000Z</time>
      </trkpt>
      <trkpt lat="45.65741" lon="6.73492">
        <ele>2120.8000488281</ele>
        <time>2020-01-08T12:54:01.000Z</time>
      </trkpt>
      <trkpt lat="45.65739" lon="6.73486">
        <ele>2119.3999023438</ele>
        <time>2020-01-08T12:54:03.000Z</time>
      </trkpt>
      <trkpt lat="45.6574" lon="6.73489">
        <ele>2118.6000976562</ele>
        <time>2020-01-08T12:54:05.000Z</time>
      </trkpt>
      <trkpt lat="45.6574" lon="6.73489">
        <ele>2118</ele>
        <time>2020-01-08T12:54:06.000Z</time>
      </trkpt>
      <trkpt lat="45.6574" lon="6.73489">
        <ele>2117.6000976562</ele>
        <time>2020-01-08T12:54:18.000Z</time>
      </trkpt>
      <trkpt lat="45.6574" lon="6.73489">
        <ele>2118</ele>
        <time>2020-01-08T12:54:26.000Z</time>
      </trkpt>
      <trkpt lat="45.65737" lon="6.7348">
        <ele>2117.6000976562</ele>
        <time>2020-01-08T12:54:29.000Z</time>
      </trkpt>
      <trkpt lat="45.65734" lon="6.73468">
        <ele>2116.6000976562</ele>
        <time>2020-01-08T12:54:31.000Z</time>
      </trkpt>
      <trkpt lat="45.65732" lon="6.73466">
        <ele>2115.8000488281</ele>
        <time>2020-01-08T12:54:32.000Z</time>
      </trkpt>
      <trkpt lat="45.65729" lon="6.73463">
        <ele>2115</ele>
        <time>2020-01-08T12:54:33.000Z</time>
      </trkpt>
      <trkpt lat="45.65724" lon="6.73451">
        <ele>2114</ele>
        <time>2020-01-08T12:54:35.000Z</time>
      </trkpt>
      <trkpt lat="45.65722" lon="6.73439">
        <ele>2112.3999023438</ele>
        <time>2020-01-08T12:54:37.000Z</time>
      </trkpt>
      <trkpt lat="45.6572" lon="6.73434">
        <ele>2111.6000976562</ele>
        <time>2020-01-08T12:54:38.000Z</time>
      </trkpt>
      <trkpt lat="45.65719" lon="6.7343">
        <ele>2111</ele>
        <time>2020-01-08T12:54:39.000Z</time>
      </trkpt>
      <trkpt lat="45.65721" lon="6.73431">
        <ele>2109.3999023438</ele>
        <time>2020-01-08T12:54:41.000Z</time>
      </trkpt>
      <trkpt lat="45.65722" lon="6.73434">
        <ele>2107.8000488281</ele>
        <time>2020-01-08T12:54:43.000Z</time>
      </trkpt>
      <trkpt lat="45.65722" lon="6.73435">
        <ele>2106.6000976562</ele>
        <time>2020-01-08T12:54:44.000Z</time>
      </trkpt>
      <trkpt lat="45.65722" lon="6.73436">
        <ele>2105.6000976562</ele>
        <time>2020-01-08T12:54:45.000Z</time>
      </trkpt>
      <trkpt lat="45.65722" lon="6.73436">
        <ele>2104</ele>
        <time>2020-01-08T12:54:47.000Z</time>
      </trkpt>
      <trkpt lat="45.6572" lon="6.73438">
        <ele>2103</ele>
        <time>2020-01-08T12:54:57.000Z</time>
      </trkpt>
      <trkpt lat="45.65711" lon="6.73439">
        <ele>2102.3999023438</ele>
        <time>2020-01-08T12:55:00.000Z</time>
      </trkpt>
      <trkpt lat="45.65709" lon="6.73443">
        <ele>2101.8000488281</ele>
        <time>2020-01-08T12:55:01.000Z</time>
      </trkpt>
      <trkpt lat="45.65701" lon="6.73448">
        <ele>2100.3999023438</ele>
        <time>2020-01-08T12:55:03.000Z</time>
      </trkpt>
      <trkpt lat="45.65697" lon="6.73446">
        <ele>2099.3999023438</ele>
        <time>2020-01-08T12:55:04.000Z</time>
      </trkpt>
      <trkpt lat="45.65693" lon="6.73444">
        <ele>2097.6000976562</ele>
        <time>2020-01-08T12:55:05.000Z</time>
      </trkpt>
      <trkpt lat="45.65691" lon="6.73444">
        <ele>2095.3999023438</ele>
        <time>2020-01-08T12:55:06.000Z</time>
      </trkpt>
      <trkpt lat="45.65688" lon="6.73447">
        <ele>2093.3999023438</ele>
        <time>2020-01-08T12:55:07.000Z</time>
      </trkpt>
      <trkpt lat="45.65685" lon="6.7345">
        <ele>2091.8000488281</ele>
        <time>2020-01-08T12:55:08.000Z</time>
      </trkpt>
      <trkpt lat="45.65683" lon="6.73453">
        <ele>2090.1999511719</ele>
        <time>2020-01-08T12:55:09.000Z</time>
      </trkpt>
      <trkpt lat="45.65678" lon="6.73453">
        <ele>2088.3999023438</ele>
        <time>2020-01-08T12:55:10.000Z</time>
      </trkpt>
      <trkpt lat="45.65673" lon="6.73456">
        <ele>2086</ele>
        <time>2020-01-08T12:55:11.000Z</time>
      </trkpt>
      <trkpt lat="45.65671" lon="6.73459">
        <ele>2081.8000488281</ele>
        <time>2020-01-08T12:55:12.000Z</time>
      </trkpt>
      <trkpt lat="45.65667" lon="6.73461">
        <ele>2080.3999023438</ele>
        <time>2020-01-08T12:55:13.000Z</time>
      </trkpt>
      <trkpt lat="45.65664" lon="6.73464">
        <ele>2079</ele>
        <time>2020-01-08T12:55:14.000Z</time>
      </trkpt>
      <trkpt lat="45.65659" lon="6.73467">
        <ele>2077.1999511719</ele>
        <time>2020-01-08T12:55:15.000Z</time>
      </trkpt>
      <trkpt lat="45.65653" lon="6.73468">
        <ele>2075</ele>
        <time>2020-01-08T12:55:16.000Z</time>
      </trkpt>
      <trkpt lat="45.65647" lon="6.7347">
        <ele>2073</ele>
        <time>2020-01-08T12:55:17.000Z</time>
      </trkpt>
      <trkpt lat="45.65643" lon="6.73469">
        <ele>2071.1999511719</ele>
        <time>2020-01-08T12:55:18.000Z</time>
      </trkpt>
      <trkpt lat="45.65638" lon="6.73466">
        <ele>2069.6000976562</ele>
        <time>2020-01-08T12:55:19.000Z</time>
      </trkpt>
      <trkpt lat="45.65633" lon="6.73467">
        <ele>2068</ele>
        <time>2020-01-08T12:55:20.000Z</time>
      </trkpt>
      <trkpt lat="45.65627" lon="6.73467">
        <ele>2066.1999511719</ele>
        <time>2020-01-08T12:55:21.000Z</time>
      </trkpt>
      <trkpt lat="45.65623" lon="6.73465">
        <ele>2064.1999511719</ele>
        <time>2020-01-08T12:55:22.000Z</time>
      </trkpt>
      <trkpt lat="45.65619" lon="6.73462">
        <ele>2062.3999023438</ele>
        <time>2020-01-08T12:55:23.000Z</time>
      </trkpt>
      <trkpt lat="45.65616" lon="6.73464">
        <ele>2060.6000976562</ele>
        <time>2020-01-08T12:55:24.000Z</time>
      </trkpt>
      <trkpt lat="45.65614" lon="6.73466">
        <ele>2058.6000976562</ele>
        <time>2020-01-08T12:55:25.000Z</time>
      </trkpt>
      <trkpt lat="45.65612" lon="6.73469">
        <ele>2056.3999023438</ele>
        <time>2020-01-08T12:55:26.000Z</time>
      </trkpt>
      <trkpt lat="45.6561" lon="6.73473">
        <ele>2054.3999023438</ele>
        <time>2020-01-08T12:55:27.000Z</time>
      </trkpt>
      <trkpt lat="45.65611" lon="6.7347">
        <ele>2053</ele>
        <time>2020-01-08T12:55:28.000Z</time>
      </trkpt>
      <trkpt lat="45.65612" lon="6.73472">
        <ele>2051.8000488281</ele>
        <time>2020-01-08T12:55:29.000Z</time>
      </trkpt>
      <trkpt lat="45.65608" lon="6.73475">
        <ele>2050.1999511719</ele>
        <time>2020-01-08T12:55:31.000Z</time>
      </trkpt>
      <trkpt lat="45.65602" lon="6.73477">
        <ele>2047.5999755859</ele>
        <time>2020-01-08T12:55:33.000Z</time>
      </trkpt>
      <trkpt lat="45.65599" lon="6.73477">
        <ele>2046</ele>
        <time>2020-01-08T12:55:34.000Z</time>
      </trkpt>
      <trkpt lat="45.65596" lon="6.73479">
        <ele>2044.8000488281</ele>
        <time>2020-01-08T12:55:35.000Z</time>
      </trkpt>
      <trkpt lat="45.65593" lon="6.73472">
        <ele>2043.1999511719</ele>
        <time>2020-01-08T12:55:36.000Z</time>
      </trkpt>
      <trkpt lat="45.65589" lon="6.73465">
        <ele>2042.5999755859</ele>
        <time>2020-01-08T12:55:37.000Z</time>
      </trkpt>
      <trkpt lat="45.65588" lon="6.73458">
        <ele>2041.8000488281</ele>
        <time>2020-01-08T12:55:38.000Z</time>
      </trkpt>
      <trkpt lat="45.65586" lon="6.73451">
        <ele>2040</ele>
        <time>2020-01-08T12:55:40.000Z</time>
      </trkpt>
      <trkpt lat="45.65585" lon="6.73446">
        <ele>2038.4000244141</ele>
        <time>2020-01-08T12:55:42.000Z</time>
      </trkpt>
      <trkpt lat="45.65584" lon="6.73443">
        <ele>2037.4000244141</ele>
        <time>2020-01-08T12:55:45.000Z</time>
      </trkpt>
      <trkpt lat="45.65585" lon="6.73444">
        <ele>2036.4000244141</ele>
        <time>2020-01-08T12:55:51.000Z</time>
      </trkpt>
      <trkpt lat="45.65585" lon="6.73444">
        <ele>2036</ele>
        <time>2020-01-08T12:55:53.000Z</time>
      </trkpt>
      <trkpt lat="45.65585" lon="6.73444">
        <ele>2036.4000244141</ele>
        <time>2020-01-08T12:56:12.000Z</time>
      </trkpt>
      <trkpt lat="45.65585" lon="6.73444">
        <ele>2036.4000244141</ele>
        <time>2020-01-08T12:56:25.000Z</time>
      </trkpt>
      <trkpt lat="45.65587" lon="6.7345">
        <ele>2036.5999755859</ele>
        <time>2020-01-08T12:56:42.000Z</time>
      </trkpt>
      <trkpt lat="45.65588" lon="6.73443">
        <ele>2036.4000244141</ele>
        <time>2020-01-08T12:56:50.000Z</time>
      </trkpt>
      <trkpt lat="45.65591" lon="6.73434">
        <ele>2036.4000244141</ele>
        <time>2020-01-08T12:56:51.000Z</time>
      </trkpt>
      <trkpt lat="45.65595" lon="6.73413">
        <ele>2036.1999511719</ele>
        <time>2020-01-08T12:56:54.000Z</time>
      </trkpt>
      <trkpt lat="45.65595" lon="6.73405">
        <ele>2035</ele>
        <time>2020-01-08T12:56:56.000Z</time>
      </trkpt>
      <trkpt lat="45.65594" lon="6.734">
        <ele>2033.5999755859</ele>
        <time>2020-01-08T12:56:58.000Z</time>
      </trkpt>
      <trkpt lat="45.65591" lon="6.73398">
        <ele>2033</ele>
        <time>2020-01-08T12:56:59.000Z</time>
      </trkpt>
      <trkpt lat="45.65589" lon="6.7339">
        <ele>2031.8000488281</ele>
        <time>2020-01-08T12:57:00.000Z</time>
      </trkpt>
      <trkpt lat="45.65588" lon="6.73384">
        <ele>2030</ele>
        <time>2020-01-08T12:57:01.000Z</time>
      </trkpt>
      <trkpt lat="45.65587" lon="6.73379">
        <ele>2028.1999511719</ele>
        <time>2020-01-08T12:57:02.000Z</time>
      </trkpt>
      <trkpt lat="45.65587" lon="6.73376">
        <ele>2026.1999511719</ele>
        <time>2020-01-08T12:57:03.000Z</time>
      </trkpt>
      <trkpt lat="45.65584" lon="6.73376">
        <ele>2024.4000244141</ele>
        <time>2020-01-08T12:57:04.000Z</time>
      </trkpt>
      <trkpt lat="45.6558" lon="6.73376">
        <ele>2022.1999511719</ele>
        <time>2020-01-08T12:57:05.000Z</time>
      </trkpt>
      <trkpt lat="45.65579" lon="6.73373">
        <ele>2019.8000488281</ele>
        <time>2020-01-08T12:57:06.000Z</time>
      </trkpt>
      <trkpt lat="45.6558" lon="6.73373">
        <ele>2017.1999511719</ele>
        <time>2020-01-08T12:57:07.000Z</time>
      </trkpt>
      <trkpt lat="45.65579" lon="6.73372">
        <ele>2014.8000488281</ele>
        <time>2020-01-08T12:57:08.000Z</time>
      </trkpt>
      <trkpt lat="45.65575" lon="6.73373">
        <ele>2012.5999755859</ele>
        <time>2020-01-08T12:57:09.000Z</time>
      </trkpt>
      <trkpt lat="45.65572" lon="6.73374">
        <ele>2010.5999755859</ele>
        <time>2020-01-08T12:57:10.000Z</time>
      </trkpt>
      <trkpt lat="45.6557" lon="6.73377">
        <ele>2008.4000244141</ele>
        <time>2020-01-08T12:57:11.000Z</time>
      </trkpt>
      <trkpt lat="45.65566" lon="6.73379">
        <ele>2004</ele>
        <time>2020-01-08T12:57:12.000Z</time>
      </trkpt>
      <trkpt lat="45.65561" lon="6.73381">
        <ele>2002</ele>
        <time>2020-01-08T12:57:13.000Z</time>
      </trkpt>
      <trkpt lat="45.65557" lon="6.73378">
        <ele>1999.8000488281</ele>
        <time>2020-01-08T12:57:14.000Z</time>
      </trkpt>
      <trkpt lat="45.65553" lon="6.73377">
        <ele>1997.5999755859</ele>
        <time>2020-01-08T12:57:15.000Z</time>
      </trkpt>
      <trkpt lat="45.65549" lon="6.73374">
        <ele>1995.8000488281</ele>
        <time>2020-01-08T12:57:16.000Z</time>
      </trkpt>
      <trkpt lat="45.65546" lon="6.73368">
        <ele>1994.1999511719</ele>
        <time>2020-01-08T12:57:17.000Z</time>
      </trkpt>
      <trkpt lat="45.65544" lon="6.73364">
        <ele>1992.8000488281</ele>
        <time>2020-01-08T12:57:18.000Z</time>
      </trkpt>
      <trkpt lat="45.65542" lon="6.7336">
        <ele>1991.5999755859</ele>
        <time>2020-01-08T12:57:19.000Z</time>
      </trkpt>
      <trkpt lat="45.65539" lon="6.73358">
        <ele>1990.4000244141</ele>
        <time>2020-01-08T12:57:20.000Z</time>
      </trkpt>
      <trkpt lat="45.65538" lon="6.73354">
        <ele>1989.1999511719</ele>
        <time>2020-01-08T12:57:21.000Z</time>
      </trkpt>
      <trkpt lat="45.65535" lon="6.7335">
        <ele>1988.4000244141</ele>
        <time>2020-01-08T12:57:22.000Z</time>
      </trkpt>
      <trkpt lat="45.65531" lon="6.73349">
        <ele>1987.5999755859</ele>
        <time>2020-01-08T12:57:23.000Z</time>
      </trkpt>
      <trkpt lat="45.65526" lon="6.73347">
        <ele>1985.5999755859</ele>
        <time>2020-01-08T12:57:25.000Z</time>
      </trkpt>
      <trkpt lat="45.65524" lon="6.73346">
        <ele>1984</ele>
        <time>2020-01-08T12:57:26.000Z</time>
      </trkpt>
      <trkpt lat="45.6552" lon="6.73344">
        <ele>1982.4000244141</ele>
        <time>2020-01-08T12:57:27.000Z</time>
      </trkpt>
      <trkpt lat="45.65518" lon="6.73342">
        <ele>1981</ele>
        <time>2020-01-08T12:57:28.000Z</time>
      </trkpt>
      <trkpt lat="45.65516" lon="6.73344">
        <ele>1979.1999511719</ele>
        <time>2020-01-08T12:57:29.000Z</time>
      </trkpt>
      <trkpt lat="45.65514" lon="6.73345">
        <ele>1977</ele>
        <time>2020-01-08T12:57:30.000Z</time>
      </trkpt>
      <trkpt lat="45.65513" lon="6.73348">
        <ele>1975</ele>
        <time>2020-01-08T12:57:31.000Z</time>
      </trkpt>
      <trkpt lat="45.65512" lon="6.7335">
        <ele>1973</ele>
        <time>2020-01-08T12:57:32.000Z</time>
      </trkpt>
      <trkpt lat="45.65506" lon="6.73358">
        <ele>1971</ele>
        <time>2020-01-08T12:57:33.000Z</time>
      </trkpt>
      <trkpt lat="45.65502" lon="6.7336">
        <ele>1969.1999511719</ele>
        <time>2020-01-08T12:57:34.000Z</time>
      </trkpt>
      <trkpt lat="45.65498" lon="6.73362">
        <ele>1967.5999755859</ele>
        <time>2020-01-08T12:57:35.000Z</time>
      </trkpt>
      <trkpt lat="45.65495" lon="6.7336">
        <ele>1964.5999755859</ele>
        <time>2020-01-08T12:57:36.000Z</time>
      </trkpt>
      <trkpt lat="45.65493" lon="6.73356">
        <ele>1963.4000244141</ele>
        <time>2020-01-08T12:57:37.000Z</time>
      </trkpt>
      <trkpt lat="45.65493" lon="6.73353">
        <ele>1962.1999511719</ele>
        <time>2020-01-08T12:57:38.000Z</time>
      </trkpt>
      <trkpt lat="45.65489" lon="6.73348">
        <ele>1960.8000488281</ele>
        <time>2020-01-08T12:57:39.000Z</time>
      </trkpt>
      <trkpt lat="45.65484" lon="6.73347">
        <ele>1959.1999511719</ele>
        <time>2020-01-08T12:57:40.000Z</time>
      </trkpt>
      <trkpt lat="45.6548" lon="6.73346">
        <ele>1957.4000244141</ele>
        <time>2020-01-08T12:57:41.000Z</time>
      </trkpt>
      <trkpt lat="45.65477" lon="6.73342">
        <ele>1955.4000244141</ele>
        <time>2020-01-08T12:57:42.000Z</time>
      </trkpt>
      <trkpt lat="45.65473" lon="6.73345">
        <ele>1953</ele>
        <time>2020-01-08T12:57:43.000Z</time>
      </trkpt>
      <trkpt lat="45.65473" lon="6.73349">
        <ele>1950.8000488281</ele>
        <time>2020-01-08T12:57:44.000Z</time>
      </trkpt>
      <trkpt lat="45.65471" lon="6.73354">
        <ele>1948.5999755859</ele>
        <time>2020-01-08T12:57:45.000Z</time>
      </trkpt>
      <trkpt lat="45.65468" lon="6.73355">
        <ele>1946.1999511719</ele>
        <time>2020-01-08T12:57:46.000Z</time>
      </trkpt>
      <trkpt lat="45.65465" lon="6.7336">
        <ele>1944</ele>
        <time>2020-01-08T12:57:47.000Z</time>
      </trkpt>
      <trkpt lat="45.65465" lon="6.73365">
        <ele>1942</ele>
        <time>2020-01-08T12:57:48.000Z</time>
      </trkpt>
      <trkpt lat="45.65462" lon="6.73368">
        <ele>1940.1999511719</ele>
        <time>2020-01-08T12:57:49.000Z</time>
      </trkpt>
      <trkpt lat="45.6546" lon="6.73369">
        <ele>1938.8000488281</ele>
        <time>2020-01-08T12:57:50.000Z</time>
      </trkpt>
      <trkpt lat="45.6546" lon="6.7337">
        <ele>1937.4000244141</ele>
        <time>2020-01-08T12:57:51.000Z</time>
      </trkpt>
      <trkpt lat="45.65459" lon="6.73372">
        <ele>1935.8000488281</ele>
        <time>2020-01-08T12:57:52.000Z</time>
      </trkpt>
      <trkpt lat="45.65459" lon="6.73373">
        <ele>1934.4000244141</ele>
        <time>2020-01-08T12:57:53.000Z</time>
      </trkpt>
      <trkpt lat="45.65459" lon="6.73373">
        <ele>1933.4000244141</ele>
        <time>2020-01-08T12:57:54.000Z</time>
      </trkpt>
      <trkpt lat="45.65459" lon="6.73373">
        <ele>1932.8000488281</ele>
        <time>2020-01-08T12:57:55.000Z</time>
      </trkpt>
      <trkpt lat="45.65459" lon="6.73375">
        <ele>1932.1999511719</ele>
        <time>2020-01-08T12:58:00.000Z</time>
      </trkpt>
      <trkpt lat="45.65462" lon="6.73385">
        <ele>1932</ele>
        <time>2020-01-08T12:58:03.000Z</time>
      </trkpt>
      <trkpt lat="45.65462" lon="6.73384">
        <ele>1931.5999755859</ele>
        <time>2020-01-08T12:58:04.000Z</time>
      </trkpt>
      <trkpt lat="45.6546" lon="6.73383">
        <ele>1930.8000488281</ele>
        <time>2020-01-08T12:58:05.000Z</time>
      </trkpt>
      <trkpt lat="45.65456" lon="6.73388">
        <ele>1929.8000488281</ele>
        <time>2020-01-08T12:58:06.000Z</time>
      </trkpt>
      <trkpt lat="45.65456" lon="6.73395">
        <ele>1928.5999755859</ele>
        <time>2020-01-08T12:58:07.000Z</time>
      </trkpt>
      <trkpt lat="45.65455" lon="6.73399">
        <ele>1927.5999755859</ele>
        <time>2020-01-08T12:58:08.000Z</time>
      </trkpt>
      <trkpt lat="45.65454" lon="6.734">
        <ele>1926.5999755859</ele>
        <time>2020-01-08T12:58:09.000Z</time>
      </trkpt>
      <trkpt lat="45.65453" lon="6.73399">
        <ele>1925.1999511719</ele>
        <time>2020-01-08T12:58:10.000Z</time>
      </trkpt>
      <trkpt lat="45.65448" lon="6.73402">
        <ele>1923.8000488281</ele>
        <time>2020-01-08T12:58:11.000Z</time>
      </trkpt>
      <trkpt lat="45.65442" lon="6.73404">
        <ele>1922.1999511719</ele>
        <time>2020-01-08T12:58:12.000Z</time>
      </trkpt>
      <trkpt lat="45.65436" lon="6.73405">
        <ele>1920.8000488281</ele>
        <time>2020-01-08T12:58:13.000Z</time>
      </trkpt>
      <trkpt lat="45.65433" lon="6.73403">
        <ele>1919.5999755859</ele>
        <time>2020-01-08T12:58:14.000Z</time>
      </trkpt>
      <trkpt lat="45.65425" lon="6.73404">
        <ele>1917.8000488281</ele>
        <time>2020-01-08T12:58:16.000Z</time>
      </trkpt>
      <trkpt lat="45.65425" lon="6.73407">
        <ele>1917</ele>
        <time>2020-01-08T12:58:17.000Z</time>
      </trkpt>
      <trkpt lat="45.65424" lon="6.73409">
        <ele>1916.1999511719</ele>
        <time>2020-01-08T12:58:18.000Z</time>
      </trkpt>
      <trkpt lat="45.65424" lon="6.73413">
        <ele>1914.8000488281</ele>
        <time>2020-01-08T12:58:21.000Z</time>
      </trkpt>
      <trkpt lat="45.65424" lon="6.73414">
        <ele>1914.1999511719</ele>
        <time>2020-01-08T12:58:22.000Z</time>
      </trkpt>
      <trkpt lat="45.65424" lon="6.73414">
        <ele>1913.4000244141</ele>
        <time>2020-01-08T12:58:24.000Z</time>
      </trkpt>
      <trkpt lat="45.65426" lon="6.73418">
        <ele>1913.1999511719</ele>
        <time>2020-01-08T12:58:31.000Z</time>
      </trkpt>
      <trkpt lat="45.65428" lon="6.73428">
        <ele>1912.5999755859</ele>
        <time>2020-01-08T12:58:34.000Z</time>
      </trkpt>
      <trkpt lat="45.65428" lon="6.73429">
        <ele>1912.1999511719</ele>
        <time>2020-01-08T12:58:35.000Z</time>
      </trkpt>
      <trkpt lat="45.65428" lon="6.7343">
        <ele>1911</ele>
        <time>2020-01-08T12:58:38.000Z</time>
      </trkpt>
      <trkpt lat="45.65428" lon="6.7343">
        <ele>1910.5999755859</ele>
        <time>2020-01-08T12:58:41.000Z</time>
      </trkpt>
      <trkpt lat="45.65428" lon="6.73429">
        <ele>1910.4000244141</ele>
        <time>2020-01-08T12:58:47.000Z</time>
      </trkpt>
      <trkpt lat="45.65425" lon="6.73428">
        <ele>1910.1999511719</ele>
        <time>2020-01-08T12:58:54.000Z</time>
      </trkpt>
      <trkpt lat="45.65421" lon="6.73424">
        <ele>1910.1999511719</ele>
        <time>2020-01-08T12:58:55.000Z</time>
      </trkpt>
      <trkpt lat="45.65418" lon="6.73425">
        <ele>1909.8000488281</ele>
        <time>2020-01-08T12:58:56.000Z</time>
      </trkpt>
      <trkpt lat="45.65413" lon="6.7343">
        <ele>1909.4000244141</ele>
        <time>2020-01-08T12:58:57.000Z</time>
      </trkpt>
      <trkpt lat="45.65412" lon="6.73435">
        <ele>1908.8000488281</ele>
        <time>2020-01-08T12:58:58.000Z</time>
      </trkpt>
      <trkpt lat="45.65411" lon="6.73439">
        <ele>1907.5999755859</ele>
        <time>2020-01-08T12:59:00.000Z</time>
      </trkpt>
      <trkpt lat="45.65409" lon="6.73443">
        <ele>1906.4000244141</ele>
        <time>2020-01-08T12:59:02.000Z</time>
      </trkpt>
      <trkpt lat="45.65408" lon="6.73441">
        <ele>1905.1999511719</ele>
        <time>2020-01-08T12:59:04.000Z</time>
      </trkpt>
      <trkpt lat="45.65408" lon="6.73442">
        <ele>1903.8000488281</ele>
        <time>2020-01-08T12:59:06.000Z</time>
      </trkpt>
      <trkpt lat="45.65408" lon="6.73445">
        <ele>1903.1999511719</ele>
        <time>2020-01-08T12:59:07.000Z</time>
      </trkpt>
      <trkpt lat="45.65411" lon="6.7346">
        <ele>1902.5999755859</ele>
        <time>2020-01-08T12:59:09.000Z</time>
      </trkpt>
      <trkpt lat="45.65408" lon="6.7347">
        <ele>1900.4000244141</ele>
        <time>2020-01-08T12:59:11.000Z</time>
      </trkpt>
      <trkpt lat="45.65404" lon="6.73472">
        <ele>1897</ele>
        <time>2020-01-08T12:59:12.000Z</time>
      </trkpt>
      <trkpt lat="45.65401" lon="6.73471">
        <ele>1895.5999755859</ele>
        <time>2020-01-08T12:59:13.000Z</time>
      </trkpt>
      <trkpt lat="45.65395" lon="6.73474">
        <ele>1894</ele>
        <time>2020-01-08T12:59:14.000Z</time>
      </trkpt>
      <trkpt lat="45.65391" lon="6.73479">
        <ele>1892.4000244141</ele>
        <time>2020-01-08T12:59:15.000Z</time>
      </trkpt>
      <trkpt lat="45.65389" lon="6.7348">
        <ele>1890.8000488281</ele>
        <time>2020-01-08T12:59:16.000Z</time>
      </trkpt>
      <trkpt lat="45.65387" lon="6.73479">
        <ele>1889.4000244141</ele>
        <time>2020-01-08T12:59:17.000Z</time>
      </trkpt>
      <trkpt lat="45.65384" lon="6.73479">
        <ele>1887.8000488281</ele>
        <time>2020-01-08T12:59:18.000Z</time>
      </trkpt>
      <trkpt lat="45.65377" lon="6.73481">
        <ele>1886.1999511719</ele>
        <time>2020-01-08T12:59:19.000Z</time>
      </trkpt>
      <trkpt lat="45.65373" lon="6.73483">
        <ele>1884.8000488281</ele>
        <time>2020-01-08T12:59:20.000Z</time>
      </trkpt>
      <trkpt lat="45.65373" lon="6.73486">
        <ele>1883.4000244141</ele>
        <time>2020-01-08T12:59:21.000Z</time>
      </trkpt>
      <trkpt lat="45.65369" lon="6.73487">
        <ele>1882.1999511719</ele>
        <time>2020-01-08T12:59:22.000Z</time>
      </trkpt>
      <trkpt lat="45.65363" lon="6.73489">
        <ele>1881</ele>
        <time>2020-01-08T12:59:23.000Z</time>
      </trkpt>
      <trkpt lat="45.6536" lon="6.73491">
        <ele>1880</ele>
        <time>2020-01-08T12:59:24.000Z</time>
      </trkpt>
      <trkpt lat="45.65355" lon="6.73488">
        <ele>1878</ele>
        <time>2020-01-08T12:59:26.000Z</time>
      </trkpt>
      <trkpt lat="45.65352" lon="6.73487">
        <ele>1877.1999511719</ele>
        <time>2020-01-08T12:59:27.000Z</time>
      </trkpt>
      <trkpt lat="45.6535" lon="6.73486">
        <ele>1876.1999511719</ele>
        <time>2020-01-08T12:59:28.000Z</time>
      </trkpt>
      <trkpt lat="45.65349" lon="6.73481">
        <ele>1875</ele>
        <time>2020-01-08T12:59:29.000Z</time>
      </trkpt>
      <trkpt lat="45.65342" lon="6.73475">
        <ele>1874</ele>
        <time>2020-01-08T12:59:30.000Z</time>
      </trkpt>
      <trkpt lat="45.65337" lon="6.73468">
        <ele>1872.8000488281</ele>
        <time>2020-01-08T12:59:31.000Z</time>
      </trkpt>
      <trkpt lat="45.65334" lon="6.73459">
        <ele>1871.4000244141</ele>
        <time>2020-01-08T12:59:32.000Z</time>
      </trkpt>
      <trkpt lat="45.65331" lon="6.73451">
        <ele>1870</ele>
        <time>2020-01-08T12:59:33.000Z</time>
      </trkpt>
      <trkpt lat="45.6533" lon="6.73446">
        <ele>1868.5999755859</ele>
        <time>2020-01-08T12:59:34.000Z</time>
      </trkpt>
      <trkpt lat="45.65328" lon="6.7344">
        <ele>1867.4000244141</ele>
        <time>2020-01-08T12:59:35.000Z</time>
      </trkpt>
      <trkpt lat="45.65325" lon="6.73435">
        <ele>1866</ele>
        <time>2020-01-08T12:59:36.000Z</time>
      </trkpt>
      <trkpt lat="45.65323" lon="6.73428">
        <ele>1865.4000244141</ele>
        <time>2020-01-08T12:59:37.000Z</time>
      </trkpt>
      <trkpt lat="45.65321" lon="6.73422">
        <ele>1864.8000488281</ele>
        <time>2020-01-08T12:59:38.000Z</time>
      </trkpt>
      <trkpt lat="45.6532" lon="6.73414">
        <ele>1863.5999755859</ele>
        <time>2020-01-08T12:59:40.000Z</time>
      </trkpt>
      <trkpt lat="45.65314" lon="6.73401">
        <ele>1862.1999511719</ele>
        <time>2020-01-08T12:59:43.000Z</time>
      </trkpt>
      <trkpt lat="45.65312" lon="6.73394">
        <ele>1862</ele>
        <time>2020-01-08T12:59:44.000Z</time>
      </trkpt>
      <trkpt lat="45.65307" lon="6.73381">
        <ele>1861</ele>
        <time>2020-01-08T12:59:47.000Z</time>
      </trkpt>
      <trkpt lat="45.65306" lon="6.73379">
        <ele>1860.4000244141</ele>
        <time>2020-01-08T12:59:48.000Z</time>
      </trkpt>
      <trkpt lat="45.65305" lon="6.73377">
        <ele>1859.8000488281</ele>
        <time>2020-01-08T12:59:50.000Z</time>
      </trkpt>
      <trkpt lat="45.65304" lon="6.73375">
        <ele>1859.5999755859</ele>
        <time>2020-01-08T12:59:55.000Z</time>
      </trkpt>
      <trkpt lat="45.65302" lon="6.73374">
        <ele>1859.4000244141</ele>
        <time>2020-01-08T13:00:02.000Z</time>
      </trkpt>
      <trkpt lat="45.653" lon="6.7337">
        <ele>1859.1999511719</ele>
        <time>2020-01-08T13:00:03.000Z</time>
      </trkpt>
      <trkpt lat="45.65291" lon="6.73355">
        <ele>1858.5999755859</ele>
        <time>2020-01-08T13:00:06.000Z</time>
      </trkpt>
      <trkpt lat="45.65288" lon="6.73341">
        <ele>1857.5999755859</ele>
        <time>2020-01-08T13:00:08.000Z</time>
      </trkpt>
      <trkpt lat="45.65286" lon="6.73337">
        <ele>1856.8000488281</ele>
        <time>2020-01-08T13:00:09.000Z</time>
      </trkpt>
      <trkpt lat="45.65282" lon="6.73334">
        <ele>1856</ele>
        <time>2020-01-08T13:00:10.000Z</time>
      </trkpt>
      <trkpt lat="45.65275" lon="6.7333">
        <ele>1855</ele>
        <time>2020-01-08T13:00:12.000Z</time>
      </trkpt>
      <trkpt lat="45.65272" lon="6.73323">
        <ele>1853.4000244141</ele>
        <time>2020-01-08T13:00:14.000Z</time>
      </trkpt>
      <trkpt lat="45.65272" lon="6.73322">
        <ele>1852.5999755859</ele>
        <time>2020-01-08T13:00:15.000Z</time>
      </trkpt>
      <trkpt lat="45.65272" lon="6.7332">
        <ele>1852.1999511719</ele>
        <time>2020-01-08T13:00:16.000Z</time>
      </trkpt>
      <trkpt lat="45.65272" lon="6.7332">
        <ele>1851.1999511719</ele>
        <time>2020-01-08T13:00:21.000Z</time>
      </trkpt>
      <trkpt lat="45.65272" lon="6.7332">
        <ele>1851.1999511719</ele>
        <time>2020-01-08T13:00:22.000Z</time>
      </trkpt>
      <trkpt lat="45.65273" lon="6.73352">
        <ele>1850.4000244141</ele>
        <time>2020-01-08T13:00:40.000Z</time>
      </trkpt>
      <trkpt lat="45.65273" lon="6.7335">
        <ele>1850.4000244141</ele>
        <time>2020-01-08T13:00:49.000Z</time>
      </trkpt>
      <trkpt lat="45.65284" lon="6.73335">
        <ele>1850.1999511719</ele>
        <time>2020-01-08T13:01:02.000Z</time>
      </trkpt>
      <trkpt lat="45.65285" lon="6.73333">
        <ele>1850.4000244141</ele>
        <time>2020-01-08T13:01:10.000Z</time>
      </trkpt>
      <trkpt lat="45.65283" lon="6.73334">
        <ele>1850.1999511719</ele>
        <time>2020-01-08T13:01:11.000Z</time>
      </trkpt>
      <trkpt lat="45.65281" lon="6.73334">
        <ele>1850</ele>
        <time>2020-01-08T13:01:13.000Z</time>
      </trkpt>
      <trkpt lat="45.65279" lon="6.73334">
        <ele>1849.8000488281</ele>
        <time>2020-01-08T13:01:14.000Z</time>
      </trkpt>
      <trkpt lat="45.65275" lon="6.73332">
        <ele>1849.5999755859</ele>
        <time>2020-01-08T13:01:15.000Z</time>
      </trkpt>
      <trkpt lat="45.65275" lon="6.73328">
        <ele>1848.8000488281</ele>
        <time>2020-01-08T13:01:17.000Z</time>
      </trkpt>
      <trkpt lat="45.65274" lon="6.73325">
        <ele>1847.8000488281</ele>
        <time>2020-01-08T13:01:19.000Z</time>
      </trkpt>
      <trkpt lat="45.65273" lon="6.73325">
        <ele>1847.4000244141</ele>
        <time>2020-01-08T13:01:20.000Z</time>
      </trkpt>
      <trkpt lat="45.65271" lon="6.73318">
        <ele>1846.8000488281</ele>
        <time>2020-01-08T13:01:23.000Z</time>
      </trkpt>
      <trkpt lat="45.65272" lon="6.73312">
        <ele>1845.4000244141</ele>
        <time>2020-01-08T13:01:26.000Z</time>
      </trkpt>
      <trkpt lat="45.65272" lon="6.7331">
        <ele>1844.5999755859</ele>
        <time>2020-01-08T13:01:28.000Z</time>
      </trkpt>
      <trkpt lat="45.65273" lon="6.73311">
        <ele>1844.4000244141</ele>
        <time>2020-01-08T13:01:29.000Z</time>
      </trkpt>
      <trkpt lat="45.65278" lon="6.73311">
        <ele>1843.4000244141</ele>
        <time>2020-01-08T13:01:35.000Z</time>
      </trkpt>
      <trkpt lat="45.65281" lon="6.73306">
        <ele>1843.4000244141</ele>
        <time>2020-01-08T13:01:37.000Z</time>
      </trkpt>
      <trkpt lat="45.65281" lon="6.73305">
        <ele>1842.8000488281</ele>
        <time>2020-01-08T13:01:39.000Z</time>
      </trkpt>
      <trkpt lat="45.6528" lon="6.73306">
        <ele>1842.5999755859</ele>
        <time>2020-01-08T13:01:40.000Z</time>
      </trkpt>
      <trkpt lat="45.65279" lon="6.73307">
        <ele>1842.1999511719</ele>
        <time>2020-01-08T13:01:42.000Z</time>
      </trkpt>
      <trkpt lat="45.65276" lon="6.73309">
        <ele>1841</ele>
        <time>2020-01-08T13:01:44.000Z</time>
      </trkpt>
      <trkpt lat="45.65274" lon="6.73312">
        <ele>1840.4000244141</ele>
        <time>2020-01-08T13:01:45.000Z</time>
      </trkpt>
      <trkpt lat="45.65273" lon="6.73313">
        <ele>1839.8000488281</ele>
        <time>2020-01-08T13:01:46.000Z</time>
      </trkpt>
      <trkpt lat="45.65269" lon="6.73316">
        <ele>1838.4000244141</ele>
        <time>2020-01-08T13:01:48.000Z</time>
      </trkpt>
      <trkpt lat="45.65265" lon="6.73315">
        <ele>1836.5999755859</ele>
        <time>2020-01-08T13:01:50.000Z</time>
      </trkpt>
      <trkpt lat="45.65263" lon="6.73315">
        <ele>1836.1999511719</ele>
        <time>2020-01-08T13:01:51.000Z</time>
      </trkpt>
      <trkpt lat="45.6526" lon="6.73318">
        <ele>1835.5999755859</ele>
        <time>2020-01-08T13:01:53.000Z</time>
      </trkpt>
      <trkpt lat="45.65256" lon="6.73325">
        <ele>1835.1999511719</ele>
        <time>2020-01-08T13:01:56.000Z</time>
      </trkpt>
      <trkpt lat="45.65257" lon="6.73331">
        <ele>1834.8000488281</ele>
        <time>2020-01-08T13:01:58.000Z</time>
      </trkpt>
      <trkpt lat="45.65257" lon="6.73333">
        <ele>1834.4000244141</ele>
        <time>2020-01-08T13:01:59.000Z</time>
      </trkpt>
      <trkpt lat="45.65257" lon="6.73332">
        <ele>1833.5999755859</ele>
        <time>2020-01-08T13:02:00.000Z</time>
      </trkpt>
      <trkpt lat="45.65257" lon="6.73335">
        <ele>1831.5999755859</ele>
        <time>2020-01-08T13:02:01.000Z</time>
      </trkpt>
      <trkpt lat="45.65256" lon="6.7334">
        <ele>1830</ele>
        <time>2020-01-08T13:02:03.000Z</time>
      </trkpt>
      <trkpt lat="45.65253" lon="6.73348">
        <ele>1828.4000244141</ele>
        <time>2020-01-08T13:02:05.000Z</time>
      </trkpt>
      <trkpt lat="45.65245" lon="6.73361">
        <ele>1826.8000488281</ele>
        <time>2020-01-08T13:02:08.000Z</time>
      </trkpt>
      <trkpt lat="45.65243" lon="6.73366">
        <ele>1825.8000488281</ele>
        <time>2020-01-08T13:02:09.000Z</time>
      </trkpt>
      <trkpt lat="45.65242" lon="6.7337">
        <ele>1825</ele>
        <time>2020-01-08T13:02:10.000Z</time>
      </trkpt>
      <trkpt lat="45.65242" lon="6.73374">
        <ele>1824.1999511719</ele>
        <time>2020-01-08T13:02:11.000Z</time>
      </trkpt>
      <trkpt lat="45.65242" lon="6.73379">
        <ele>1823.5999755859</ele>
        <time>2020-01-08T13:02:12.000Z</time>
      </trkpt>
      <trkpt lat="45.65242" lon="6.73381">
        <ele>1823</ele>
        <time>2020-01-08T13:02:13.000Z</time>
      </trkpt>
      <trkpt lat="45.65242" lon="6.73383">
        <ele>1822.1999511719</ele>
        <time>2020-01-08T13:02:14.000Z</time>
      </trkpt>
      <trkpt lat="45.65243" lon="6.73384">
        <ele>1820.5999755859</ele>
        <time>2020-01-08T13:02:16.000Z</time>
      </trkpt>
      <trkpt lat="45.65242" lon="6.73387">
        <ele>1819.5999755859</ele>
        <time>2020-01-08T13:02:18.000Z</time>
      </trkpt>
      <trkpt lat="45.65237" lon="6.73391">
        <ele>1818.4000244141</ele>
        <time>2020-01-08T13:02:21.000Z</time>
      </trkpt>
      <trkpt lat="45.65238" lon="6.73391">
        <ele>1817.8000488281</ele>
        <time>2020-01-08T13:02:22.000Z</time>
      </trkpt>
      <trkpt lat="45.65237" lon="6.73391">
        <ele>1817.1999511719</ele>
        <time>2020-01-08T13:02:23.000Z</time>
      </trkpt>
      <trkpt lat="45.65237" lon="6.73391">
        <ele>1816</ele>
        <time>2020-01-08T13:02:25.000Z</time>
      </trkpt>
      <trkpt lat="45.65237" lon="6.73391">
        <ele>1815.5999755859</ele>
        <time>2020-01-08T13:02:33.000Z</time>
      </trkpt>
      <trkpt lat="45.65237" lon="6.73391">
        <ele>1815.4000244141</ele>
        <time>2020-01-08T13:02:47.000Z</time>
      </trkpt>
      <trkpt lat="45.6523" lon="6.73401">
        <ele>1815.4000244141</ele>
        <time>2020-01-08T13:02:50.000Z</time>
      </trkpt>
      <trkpt lat="45.65218" lon="6.73415">
        <ele>1815</ele>
        <time>2020-01-08T13:02:53.000Z</time>
      </trkpt>
      <trkpt lat="45.65213" lon="6.73419">
        <ele>1814.4000244141</ele>
        <time>2020-01-08T13:02:54.000Z</time>
      </trkpt>
      <trkpt lat="45.6521" lon="6.73418">
        <ele>1813.8000488281</ele>
        <time>2020-01-08T13:02:55.000Z</time>
      </trkpt>
      <trkpt lat="45.65204" lon="6.7342">
        <ele>1812.4000244141</ele>
        <time>2020-01-08T13:02:57.000Z</time>
      </trkpt>
      <trkpt lat="45.652" lon="6.73422">
        <ele>1811.1999511719</ele>
        <time>2020-01-08T13:02:59.000Z</time>
      </trkpt>
      <trkpt lat="45.65196" lon="6.73423">
        <ele>1810.5999755859</ele>
        <time>2020-01-08T13:03:02.000Z</time>
      </trkpt>
      <trkpt lat="45.65189" lon="6.73425">
        <ele>1811</ele>
        <time>2020-01-08T13:03:10.000Z</time>
      </trkpt>
      <trkpt lat="45.65185" lon="6.73426">
        <ele>1812</ele>
        <time>2020-01-08T13:03:17.000Z</time>
      </trkpt>
      <trkpt lat="45.65178" lon="6.73431">
        <ele>1811.8000488281</ele>
        <time>2020-01-08T13:03:22.000Z</time>
      </trkpt>
      <trkpt lat="45.65161" lon="6.73442">
        <ele>1811.4000244141</ele>
        <time>2020-01-08T13:03:28.000Z</time>
      </trkpt>
      <trkpt lat="45.65139" lon="6.7346">
        <ele>1810.1999511719</ele>
        <time>2020-01-08T13:03:32.000Z</time>
      </trkpt>
      <trkpt lat="45.65133" lon="6.73465">
        <ele>1809.8000488281</ele>
        <time>2020-01-08T13:03:33.000Z</time>
      </trkpt>
      <trkpt lat="45.65122" lon="6.73475">
        <ele>1808.1999511719</ele>
        <time>2020-01-08T13:03:35.000Z</time>
      </trkpt>
      <trkpt lat="45.65112" lon="6.73482">
        <ele>1806</ele>
        <time>2020-01-08T13:03:37.000Z</time>
      </trkpt>
      <trkpt lat="45.65101" lon="6.73488">
        <ele>1804.5999755859</ele>
        <time>2020-01-08T13:03:39.000Z</time>
      </trkpt>
      <trkpt lat="45.65091" lon="6.73492">
        <ele>1803.4000244141</ele>
        <time>2020-01-08T13:03:41.000Z</time>
      </trkpt>
      <trkpt lat="45.65086" lon="6.73492">
        <ele>1803.1999511719</ele>
        <time>2020-01-08T13:03:42.000Z</time>
      </trkpt>
      <trkpt lat="45.65079" lon="6.73493">
        <ele>1802.4000244141</ele>
        <time>2020-01-08T13:03:44.000Z</time>
      </trkpt>
      <trkpt lat="45.65072" lon="6.73493">
        <ele>1801.1999511719</ele>
        <time>2020-01-08T13:03:47.000Z</time>
      </trkpt>
      <trkpt lat="45.65071" lon="6.73494">
        <ele>1800.8000488281</ele>
        <time>2020-01-08T13:03:48.000Z</time>
      </trkpt>
      <trkpt lat="45.65068" lon="6.73496">
        <ele>1800</ele>
        <time>2020-01-08T13:03:50.000Z</time>
      </trkpt>
      <trkpt lat="45.65059" lon="6.73502">
        <ele>1799</ele>
        <time>2020-01-08T13:03:54.000Z</time>
      </trkpt>
      <trkpt lat="45.65043" lon="6.73512">
        <ele>1797.5999755859</ele>
        <time>2020-01-08T13:03:58.000Z</time>
      </trkpt>
      <trkpt lat="45.65036" lon="6.73517">
        <ele>1796.1999511719</ele>
        <time>2020-01-08T13:04:00.000Z</time>
      </trkpt>
      <trkpt lat="45.65032" lon="6.73519">
        <ele>1795.1999511719</ele>
        <time>2020-01-08T13:04:01.000Z</time>
      </trkpt>
      <trkpt lat="45.65019" lon="6.73527">
        <ele>1793.5999755859</ele>
        <time>2020-01-08T13:04:04.000Z</time>
      </trkpt>
      <trkpt lat="45.65014" lon="6.7353">
        <ele>1793</ele>
        <time>2020-01-08T13:04:05.000Z</time>
      </trkpt>
      <trkpt lat="45.6501" lon="6.73535">
        <ele>1792.4000244141</ele>
        <time>2020-01-08T13:04:06.000Z</time>
      </trkpt>
      <trkpt lat="45.65001" lon="6.73546">
        <ele>1791</ele>
        <time>2020-01-08T13:04:08.000Z</time>
      </trkpt>
      <trkpt lat="45.64996" lon="6.73552">
        <ele>1790.1999511719</ele>
        <time>2020-01-08T13:04:09.000Z</time>
      </trkpt>
      <trkpt lat="45.64992" lon="6.73559">
        <ele>1789.4000244141</ele>
        <time>2020-01-08T13:04:10.000Z</time>
      </trkpt>
      <trkpt lat="45.64986" lon="6.73578">
        <ele>1787.5999755859</ele>
        <time>2020-01-08T13:04:12.000Z</time>
      </trkpt>
      <trkpt lat="45.64982" lon="6.73591">
        <ele>1786</ele>
        <time>2020-01-08T13:04:14.000Z</time>
      </trkpt>
      <trkpt lat="45.6498" lon="6.73595">
        <ele>1784.8000488281</ele>
        <time>2020-01-08T13:04:15.000Z</time>
      </trkpt>
      <trkpt lat="45.64978" lon="6.73598">
        <ele>1783.5999755859</ele>
        <time>2020-01-08T13:04:16.000Z</time>
      </trkpt>
      <trkpt lat="45.64974" lon="6.73604">
        <ele>1782.4000244141</ele>
        <time>2020-01-08T13:04:18.000Z</time>
      </trkpt>
      <trkpt lat="45.6497" lon="6.73612">
        <ele>1781.4000244141</ele>
        <time>2020-01-08T13:04:21.000Z</time>
      </trkpt>
      <trkpt lat="45.64968" lon="6.73614">
        <ele>1781</ele>
        <time>2020-01-08T13:04:22.000Z</time>
      </trkpt>
      <trkpt lat="45.64962" lon="6.73621">
        <ele>1779.8000488281</ele>
        <time>2020-01-08T13:04:25.000Z</time>
      </trkpt>
      <trkpt lat="45.64957" lon="6.73628">
        <ele>1779.4000244141</ele>
        <time>2020-01-08T13:04:27.000Z</time>
      </trkpt>
      <trkpt lat="45.64951" lon="6.73634">
        <ele>1778.4000244141</ele>
        <time>2020-01-08T13:04:29.000Z</time>
      </trkpt>
      <trkpt lat="45.64948" lon="6.73639">
        <ele>1778.1999511719</ele>
        <time>2020-01-08T13:04:30.000Z</time>
      </trkpt>
      <trkpt lat="45.6494" lon="6.73648">
        <ele>1777.4000244141</ele>
        <time>2020-01-08T13:04:32.000Z</time>
      </trkpt>
      <trkpt lat="45.6493" lon="6.7366">
        <ele>1776</ele>
        <time>2020-01-08T13:04:35.000Z</time>
      </trkpt>
      <trkpt lat="45.64922" lon="6.73667">
        <ele>1774.8000488281</ele>
        <time>2020-01-08T13:04:37.000Z</time>
      </trkpt>
      <trkpt lat="45.64918" lon="6.73671">
        <ele>1774.1999511719</ele>
        <time>2020-01-08T13:04:38.000Z</time>
      </trkpt>
      <trkpt lat="45.64915" lon="6.73675">
        <ele>1773.5999755859</ele>
        <time>2020-01-08T13:04:39.000Z</time>
      </trkpt>
      <trkpt lat="45.64907" lon="6.73683">
        <ele>1772.1999511719</ele>
        <time>2020-01-08T13:04:41.000Z</time>
      </trkpt>
      <trkpt lat="45.64899" lon="6.7369">
        <ele>1771</ele>
        <time>2020-01-08T13:04:43.000Z</time>
      </trkpt>
      <trkpt lat="45.64891" lon="6.73697">
        <ele>1769.5999755859</ele>
        <time>2020-01-08T13:04:45.000Z</time>
      </trkpt>
      <trkpt lat="45.64882" lon="6.73703">
        <ele>1768</ele>
        <time>2020-01-08T13:04:47.000Z</time>
      </trkpt>
      <trkpt lat="45.64872" lon="6.73709">
        <ele>1765.5999755859</ele>
        <time>2020-01-08T13:04:49.000Z</time>
      </trkpt>
      <trkpt lat="45.64867" lon="6.73713">
        <ele>1764</ele>
        <time>2020-01-08T13:04:51.000Z</time>
      </trkpt>
      <trkpt lat="45.64865" lon="6.73712">
        <ele>1763</ele>
        <time>2020-01-08T13:04:52.000Z</time>
      </trkpt>
      <trkpt lat="45.64863" lon="6.73711">
        <ele>1762</ele>
        <time>2020-01-08T13:04:53.000Z</time>
      </trkpt>
      <trkpt lat="45.64862" lon="6.73709">
        <ele>1760.8000488281</ele>
        <time>2020-01-08T13:04:55.000Z</time>
      </trkpt>
      <trkpt lat="45.64862" lon="6.73709">
        <ele>1760.5999755859</ele>
        <time>2020-01-08T13:04:57.000Z</time>
      </trkpt>
      <trkpt lat="45.64858" lon="6.73714">
        <ele>1761.1999511719</ele>
        <time>2020-01-08T13:05:03.000Z</time>
      </trkpt>
      <trkpt lat="45.64849" lon="6.73725">
        <ele>1761</ele>
        <time>2020-01-08T13:05:06.000Z</time>
      </trkpt>
      <trkpt lat="45.64846" lon="6.73729">
        <ele>1759.1999511719</ele>
        <time>2020-01-08T13:05:09.000Z</time>
      </trkpt>
      <trkpt lat="45.64854" lon="6.73733">
        <ele>1758</ele>
        <time>2020-01-08T13:05:11.000Z</time>
      </trkpt>
      <trkpt lat="45.64863" lon="6.73735">
        <ele>1756.1999511719</ele>
        <time>2020-01-08T13:05:13.000Z</time>
      </trkpt>
      <trkpt lat="45.64867" lon="6.73739">
        <ele>1755.5999755859</ele>
        <time>2020-01-08T13:05:14.000Z</time>
      </trkpt>
      <trkpt lat="45.64871" lon="6.73741">
        <ele>1754.8000488281</ele>
        <time>2020-01-08T13:05:15.000Z</time>
      </trkpt>
      <trkpt lat="45.64871" lon="6.73742">
        <ele>1753</ele>
        <time>2020-01-08T13:05:17.000Z</time>
      </trkpt>
      <trkpt lat="45.64871" lon="6.73744">
        <ele>1752</ele>
        <time>2020-01-08T13:05:18.000Z</time>
      </trkpt>
      <trkpt lat="45.64865" lon="6.73755">
        <ele>1751</ele>
        <time>2020-01-08T13:05:19.000Z</time>
      </trkpt>
      <trkpt lat="45.6486" lon="6.73763">
        <ele>1750</ele>
        <time>2020-01-08T13:05:20.000Z</time>
      </trkpt>
      <trkpt lat="45.64855" lon="6.73767">
        <ele>1749</ele>
        <time>2020-01-08T13:05:21.000Z</time>
      </trkpt>
      <trkpt lat="45.64851" lon="6.73774">
        <ele>1748</ele>
        <time>2020-01-08T13:05:22.000Z</time>
      </trkpt>
      <trkpt lat="45.64848" lon="6.73779">
        <ele>1746.8000488281</ele>
        <time>2020-01-08T13:05:23.000Z</time>
      </trkpt>
      <trkpt lat="45.64845" lon="6.73783">
        <ele>1745.5999755859</ele>
        <time>2020-01-08T13:05:24.000Z</time>
      </trkpt>
      <trkpt lat="45.64842" lon="6.73789">
        <ele>1744.5999755859</ele>
        <time>2020-01-08T13:05:25.000Z</time>
      </trkpt>
      <trkpt lat="45.64838" lon="6.73795">
        <ele>1743.4000244141</ele>
        <time>2020-01-08T13:05:26.000Z</time>
      </trkpt>
      <trkpt lat="45.64835" lon="6.73802">
        <ele>1742.1999511719</ele>
        <time>2020-01-08T13:05:27.000Z</time>
      </trkpt>
      <trkpt lat="45.64834" lon="6.73815">
        <ele>1740.8000488281</ele>
        <time>2020-01-08T13:05:28.000Z</time>
      </trkpt>
      <trkpt lat="45.64829" lon="6.73825">
        <ele>1739.5999755859</ele>
        <time>2020-01-08T13:05:29.000Z</time>
      </trkpt>
      <trkpt lat="45.64823" lon="6.73833">
        <ele>1738</ele>
        <time>2020-01-08T13:05:30.000Z</time>
      </trkpt>
      <trkpt lat="45.64818" lon="6.73842">
        <ele>1736.4000244141</ele>
        <time>2020-01-08T13:05:31.000Z</time>
      </trkpt>
      <trkpt lat="45.64819" lon="6.73853">
        <ele>1734.5999755859</ele>
        <time>2020-01-08T13:05:32.000Z</time>
      </trkpt>
      <trkpt lat="45.64818" lon="6.73861">
        <ele>1733</ele>
        <time>2020-01-08T13:05:33.000Z</time>
      </trkpt>
      <trkpt lat="45.64817" lon="6.73869">
        <ele>1731.1999511719</ele>
        <time>2020-01-08T13:05:34.000Z</time>
      </trkpt>
      <trkpt lat="45.64817" lon="6.73878">
        <ele>1729.4000244141</ele>
        <time>2020-01-08T13:05:35.000Z</time>
      </trkpt>
      <trkpt lat="45.64816" lon="6.73885">
        <ele>1727.4000244141</ele>
        <time>2020-01-08T13:05:36.000Z</time>
      </trkpt>
      <trkpt lat="45.64807" lon="6.73897">
        <ele>1723.8000488281</ele>
        <time>2020-01-08T13:05:37.000Z</time>
      </trkpt>
      <trkpt lat="45.648" lon="6.73908">
        <ele>1722.1999511719</ele>
        <time>2020-01-08T13:05:38.000Z</time>
      </trkpt>
      <trkpt lat="45.64796" lon="6.73918">
        <ele>1720.5999755859</ele>
        <time>2020-01-08T13:05:39.000Z</time>
      </trkpt>
      <trkpt lat="45.6479" lon="6.73927">
        <ele>1719.1999511719</ele>
        <time>2020-01-08T13:05:40.000Z</time>
      </trkpt>
      <trkpt lat="45.64783" lon="6.73933">
        <ele>1717.8000488281</ele>
        <time>2020-01-08T13:05:41.000Z</time>
      </trkpt>
      <trkpt lat="45.64777" lon="6.73937">
        <ele>1716.4000244141</ele>
        <time>2020-01-08T13:05:42.000Z</time>
      </trkpt>
      <trkpt lat="45.64772" lon="6.73942">
        <ele>1715.4000244141</ele>
        <time>2020-01-08T13:05:43.000Z</time>
      </trkpt>
      <trkpt lat="45.64767" lon="6.73947">
        <ele>1714.4000244141</ele>
        <time>2020-01-08T13:05:44.000Z</time>
      </trkpt>
      <trkpt lat="45.64765" lon="6.73953">
        <ele>1713.1999511719</ele>
        <time>2020-01-08T13:05:45.000Z</time>
      </trkpt>
      <trkpt lat="45.64761" lon="6.73955">
        <ele>1712.1999511719</ele>
        <time>2020-01-08T13:05:46.000Z</time>
      </trkpt>
      <trkpt lat="45.64759" lon="6.73954">
        <ele>1711.1999511719</ele>
        <time>2020-01-08T13:05:47.000Z</time>
      </trkpt>
      <trkpt lat="45.64757" lon="6.73957">
        <ele>1710.5999755859</ele>
        <time>2020-01-08T13:05:48.000Z</time>
      </trkpt>
      <trkpt lat="45.64754" lon="6.73964">
        <ele>1709.5999755859</ele>
        <time>2020-01-08T13:05:50.000Z</time>
      </trkpt>
      <trkpt lat="45.64752" lon="6.73967">
        <ele>1709</ele>
        <time>2020-01-08T13:05:51.000Z</time>
      </trkpt>
      <trkpt lat="45.6475" lon="6.7398">
        <ele>1708.1999511719</ele>
        <time>2020-01-08T13:05:52.000Z</time>
      </trkpt>
      <trkpt lat="45.64749" lon="6.7399">
        <ele>1707.4000244141</ele>
        <time>2020-01-08T13:05:53.000Z</time>
      </trkpt>
      <trkpt lat="45.64748" lon="6.74004">
        <ele>1706.5999755859</ele>
        <time>2020-01-08T13:05:54.000Z</time>
      </trkpt>
      <trkpt lat="45.64741" lon="6.74024">
        <ele>1704.8000488281</ele>
        <time>2020-01-08T13:05:56.000Z</time>
      </trkpt>
      <trkpt lat="45.64734" lon="6.7403">
        <ele>1703.5999755859</ele>
        <time>2020-01-08T13:05:57.000Z</time>
      </trkpt>
      <trkpt lat="45.64727" lon="6.74033">
        <ele>1702.1999511719</ele>
        <time>2020-01-08T13:05:58.000Z</time>
      </trkpt>
      <trkpt lat="45.6472" lon="6.74037">
        <ele>1700.5999755859</ele>
        <time>2020-01-08T13:05:59.000Z</time>
      </trkpt>
      <trkpt lat="45.64713" lon="6.74039">
        <ele>1699</ele>
        <time>2020-01-08T13:06:00.000Z</time>
      </trkpt>
      <trkpt lat="45.64707" lon="6.74042">
        <ele>1696.5999755859</ele>
        <time>2020-01-08T13:06:01.000Z</time>
      </trkpt>
      <trkpt lat="45.64704" lon="6.74046">
        <ele>1695.4000244141</ele>
        <time>2020-01-08T13:06:02.000Z</time>
      </trkpt>
      <trkpt lat="45.64701" lon="6.74052">
        <ele>1694.1999511719</ele>
        <time>2020-01-08T13:06:03.000Z</time>
      </trkpt>
      <trkpt lat="45.64698" lon="6.74057">
        <ele>1693.4000244141</ele>
        <time>2020-01-08T13:06:04.000Z</time>
      </trkpt>
      <trkpt lat="45.64695" lon="6.74062">
        <ele>1692.5999755859</ele>
        <time>2020-01-08T13:06:05.000Z</time>
      </trkpt>
      <trkpt lat="45.64687" lon="6.74081">
        <ele>1691.5999755859</ele>
        <time>2020-01-08T13:06:08.000Z</time>
      </trkpt>
      <trkpt lat="45.6468" lon="6.74099">
        <ele>1690.4000244141</ele>
        <time>2020-01-08T13:06:12.000Z</time>
      </trkpt>
      <trkpt lat="45.64678" lon="6.74105">
        <ele>1689.5999755859</ele>
        <time>2020-01-08T13:06:16.000Z</time>
      </trkpt>
      <trkpt lat="45.64678" lon="6.74105">
        <ele>1689.5999755859</ele>
        <time>2020-01-08T13:06:17.000Z</time>
      </trkpt>
      <trkpt lat="45.64678" lon="6.74105">
        <ele>1689.4000244141</ele>
        <time>2020-01-08T13:06:18.000Z</time>
      </trkpt>
      <trkpt lat="45.64676" lon="6.74109">
        <ele>1689.4000244141</ele>
        <time>2020-01-08T13:06:22.000Z</time>
      </trkpt>
      <trkpt lat="45.64672" lon="6.74117">
        <ele>1689.4000244141</ele>
        <time>2020-01-08T13:06:28.000Z</time>
      </trkpt>
      <trkpt lat="45.64669" lon="6.74119">
        <ele>1689.4000244141</ele>
        <time>2020-01-08T13:06:34.000Z</time>
      </trkpt>
      <trkpt lat="45.64668" lon="6.74124">
        <ele>1689.1999511719</ele>
        <time>2020-01-08T13:06:37.000Z</time>
      </trkpt>
      <trkpt lat="45.64668" lon="6.74126">
        <ele>1689.1999511719</ele>
        <time>2020-01-08T13:06:38.000Z</time>
      </trkpt>
      <trkpt lat="45.64661" lon="6.74147">
        <ele>1688.8000488281</ele>
        <time>2020-01-08T13:06:46.000Z</time>
      </trkpt>
      <trkpt lat="45.64655" lon="6.74162">
        <ele>1688.4000244141</ele>
        <time>2020-01-08T13:06:51.000Z</time>
      </trkpt>
      <trkpt lat="45.64653" lon="6.74166">
        <ele>1688.4000244141</ele>
        <time>2020-01-08T13:06:53.000Z</time>
      </trkpt>
      <trkpt lat="45.64649" lon="6.74178">
        <ele>1688</ele>
        <time>2020-01-08T13:06:59.000Z</time>
      </trkpt>
      <trkpt lat="45.64644" lon="6.74196">
        <ele>1688.1999511719</ele>
        <time>2020-01-08T13:07:07.000Z</time>
      </trkpt>
      <trkpt lat="45.64637" lon="6.74215">
        <ele>1687.5999755859</ele>
        <time>2020-01-08T13:07:14.000Z</time>
      </trkpt>
      <trkpt lat="45.64633" lon="6.74224">
        <ele>1687.4000244141</ele>
        <time>2020-01-08T13:07:18.000Z</time>
      </trkpt>
      <trkpt lat="45.64628" lon="6.74234">
        <ele>1687.1999511719</ele>
        <time>2020-01-08T13:07:22.000Z</time>
      </trkpt>
      <trkpt lat="45.64619" lon="6.74251">
        <ele>1686.8000488281</ele>
        <time>2020-01-08T13:07:29.000Z</time>
      </trkpt>
      <trkpt lat="45.64611" lon="6.74273">
        <ele>1686.4000244141</ele>
        <time>2020-01-08T13:07:36.000Z</time>
      </trkpt>
      <trkpt lat="45.6461" lon="6.74277">
        <ele>1686</ele>
        <time>2020-01-08T13:07:37.000Z</time>
      </trkpt>
      <trkpt lat="45.64596" lon="6.74303">
        <ele>1685.1999511719</ele>
        <time>2020-01-08T13:07:45.000Z</time>
      </trkpt>
      <trkpt lat="45.64578" lon="6.74328">
        <ele>1684</ele>
        <time>2020-01-08T13:07:51.000Z</time>
      </trkpt>
      <trkpt lat="45.64566" lon="6.74345">
        <ele>1682.8000488281</ele>
        <time>2020-01-08T13:07:54.000Z</time>
      </trkpt>
      <trkpt lat="45.64557" lon="6.74356">
        <ele>1682.1999511719</ele>
        <time>2020-01-08T13:07:56.000Z</time>
      </trkpt>
      <trkpt lat="45.64553" lon="6.74362">
        <ele>1681.5999755859</ele>
        <time>2020-01-08T13:07:57.000Z</time>
      </trkpt>
      <trkpt lat="45.64546" lon="6.74375">
        <ele>1680.5999755859</ele>
        <time>2020-01-08T13:07:59.000Z</time>
      </trkpt>
      <trkpt lat="45.64539" lon="6.74387">
        <ele>1679</ele>
        <time>2020-01-08T13:08:01.000Z</time>
      </trkpt>
      <trkpt lat="45.64535" lon="6.74393">
        <ele>1678.4000244141</ele>
        <time>2020-01-08T13:08:02.000Z</time>
      </trkpt>
      <trkpt lat="45.64531" lon="6.74399">
        <ele>1678</ele>
        <time>2020-01-08T13:08:03.000Z</time>
      </trkpt>
      <trkpt lat="45.64524" lon="6.74411">
        <ele>1676.5999755859</ele>
        <time>2020-01-08T13:08:05.000Z</time>
      </trkpt>
      <trkpt lat="45.64521" lon="6.74417">
        <ele>1676</ele>
        <time>2020-01-08T13:08:06.000Z</time>
      </trkpt>
      <trkpt lat="45.64518" lon="6.74423">
        <ele>1675.1999511719</ele>
        <time>2020-01-08T13:08:07.000Z</time>
      </trkpt>
      <trkpt lat="45.64511" lon="6.74433">
        <ele>1674</ele>
        <time>2020-01-08T13:08:09.000Z</time>
      </trkpt>
      <trkpt lat="45.64504" lon="6.74444">
        <ele>1672.5999755859</ele>
        <time>2020-01-08T13:08:11.000Z</time>
      </trkpt>
      <trkpt lat="45.64497" lon="6.74454">
        <ele>1671.5999755859</ele>
        <time>2020-01-08T13:08:13.000Z</time>
      </trkpt>
      <trkpt lat="45.6449" lon="6.74466">
        <ele>1670.5999755859</ele>
        <time>2020-01-08T13:08:15.000Z</time>
      </trkpt>
      <trkpt lat="45.64486" lon="6.74472">
        <ele>1670</ele>
        <time>2020-01-08T13:08:16.000Z</time>
      </trkpt>
      <trkpt lat="45.64481" lon="6.74477">
        <ele>1669.5999755859</ele>
        <time>2020-01-08T13:08:17.000Z</time>
      </trkpt>
      <trkpt lat="45.6447" lon="6.74485">
        <ele>1668.5999755859</ele>
        <time>2020-01-08T13:08:19.000Z</time>
      </trkpt>
      <trkpt lat="45.64458" lon="6.74493">
        <ele>1667.5999755859</ele>
        <time>2020-01-08T13:08:21.000Z</time>
      </trkpt>
      <trkpt lat="45.64452" lon="6.74498">
        <ele>1667.1999511719</ele>
        <time>2020-01-08T13:08:22.000Z</time>
      </trkpt>
      <trkpt lat="45.64437" lon="6.74509">
        <ele>1666.1999511719</ele>
        <time>2020-01-08T13:08:24.000Z</time>
      </trkpt>
      <trkpt lat="45.64431" lon="6.74517">
        <ele>1664.8000488281</ele>
        <time>2020-01-08T13:08:25.000Z</time>
      </trkpt>
      <trkpt lat="45.64426" lon="6.74524">
        <ele>1664</ele>
        <time>2020-01-08T13:08:26.000Z</time>
      </trkpt>
      <trkpt lat="45.6442" lon="6.74532">
        <ele>1663.1999511719</ele>
        <time>2020-01-08T13:08:27.000Z</time>
      </trkpt>
      <trkpt lat="45.64409" lon="6.74547">
        <ele>1661.5999755859</ele>
        <time>2020-01-08T13:08:29.000Z</time>
      </trkpt>
      <trkpt lat="45.64394" lon="6.74569">
        <ele>1660.1999511719</ele>
        <time>2020-01-08T13:08:32.000Z</time>
      </trkpt>
      <trkpt lat="45.64384" lon="6.74584">
        <ele>1659.1999511719</ele>
        <time>2020-01-08T13:08:34.000Z</time>
      </trkpt>
      <trkpt lat="45.6438" lon="6.74592">
        <ele>1658.5999755859</ele>
        <time>2020-01-08T13:08:35.000Z</time>
      </trkpt>
      <trkpt lat="45.64377" lon="6.74601">
        <ele>1658</ele>
        <time>2020-01-08T13:08:36.000Z</time>
      </trkpt>
      <trkpt lat="45.64374" lon="6.74609">
        <ele>1657.4000244141</ele>
        <time>2020-01-08T13:08:37.000Z</time>
      </trkpt>
      <trkpt lat="45.64372" lon="6.74617">
        <ele>1656.5999755859</ele>
        <time>2020-01-08T13:08:38.000Z</time>
      </trkpt>
      <trkpt lat="45.6437" lon="6.74625">
        <ele>1655.8000488281</ele>
        <time>2020-01-08T13:08:39.000Z</time>
      </trkpt>
      <trkpt lat="45.64367" lon="6.74633">
        <ele>1655</ele>
        <time>2020-01-08T13:08:40.000Z</time>
      </trkpt>
      <trkpt lat="45.64364" lon="6.74647">
        <ele>1653.5999755859</ele>
        <time>2020-01-08T13:08:42.000Z</time>
      </trkpt>
      <trkpt lat="45.64362" lon="6.74656">
        <ele>1653</ele>
        <time>2020-01-08T13:08:43.000Z</time>
      </trkpt>
      <trkpt lat="45.64362" lon="6.74664">
        <ele>1652.4000244141</ele>
        <time>2020-01-08T13:08:44.000Z</time>
      </trkpt>
      <trkpt lat="45.64363" lon="6.74682">
        <ele>1651.1999511719</ele>
        <time>2020-01-08T13:08:46.000Z</time>
      </trkpt>
      <trkpt lat="45.64363" lon="6.74691">
        <ele>1650.5999755859</ele>
        <time>2020-01-08T13:08:47.000Z</time>
      </trkpt>
      <trkpt lat="45.64363" lon="6.74699">
        <ele>1650</ele>
        <time>2020-01-08T13:08:48.000Z</time>
      </trkpt>
      <trkpt lat="45.64362" lon="6.74706">
        <ele>1649</ele>
        <time>2020-01-08T13:08:49.000Z</time>
      </trkpt>
      <trkpt lat="45.64359" lon="6.74729">
        <ele>1647.5999755859</ele>
        <time>2020-01-08T13:08:52.000Z</time>
      </trkpt>
      <trkpt lat="45.64354" lon="6.74754">
        <ele>1646</ele>
        <time>2020-01-08T13:08:55.000Z</time>
      </trkpt>
      <trkpt lat="45.64351" lon="6.74771">
        <ele>1645</ele>
        <time>2020-01-08T13:08:57.000Z</time>
      </trkpt>
      <trkpt lat="45.64348" lon="6.74785">
        <ele>1644</ele>
        <time>2020-01-08T13:08:59.000Z</time>
      </trkpt>
      <trkpt lat="45.64345" lon="6.74799">
        <ele>1642.8000488281</ele>
        <time>2020-01-08T13:09:01.000Z</time>
      </trkpt>
      <trkpt lat="45.64339" lon="6.74817">
        <ele>1641.5999755859</ele>
        <time>2020-01-08T13:09:04.000Z</time>
      </trkpt>
      <trkpt lat="45.64337" lon="6.74822">
        <ele>1641.1999511719</ele>
        <time>2020-01-08T13:09:05.000Z</time>
      </trkpt>
      <trkpt lat="45.64334" lon="6.74827">
        <ele>1640.8000488281</ele>
        <time>2020-01-08T13:09:06.000Z</time>
      </trkpt>
      <trkpt lat="45.64331" lon="6.74831">
        <ele>1640.5999755859</ele>
        <time>2020-01-08T13:09:07.000Z</time>
      </trkpt>
      <trkpt lat="45.64328" lon="6.74839">
        <ele>1640</ele>
        <time>2020-01-08T13:09:09.000Z</time>
      </trkpt>
      <trkpt lat="45.64325" lon="6.74849">
        <ele>1639.4000244141</ele>
        <time>2020-01-08T13:09:11.000Z</time>
      </trkpt>
      <trkpt lat="45.6432" lon="6.7486">
        <ele>1638.5999755859</ele>
        <time>2020-01-08T13:09:13.000Z</time>
      </trkpt>
      <trkpt lat="45.64317" lon="6.74865">
        <ele>1638.4000244141</ele>
        <time>2020-01-08T13:09:14.000Z</time>
      </trkpt>
      <trkpt lat="45.64305" lon="6.74887">
        <ele>1637.1999511719</ele>
        <time>2020-01-08T13:09:18.000Z</time>
      </trkpt>
      <trkpt lat="45.643" lon="6.74898">
        <ele>1636.5999755859</ele>
        <time>2020-01-08T13:09:20.000Z</time>
      </trkpt>
      <trkpt lat="45.64297" lon="6.74904">
        <ele>1636.1999511719</ele>
        <time>2020-01-08T13:09:21.000Z</time>
      </trkpt>
      <trkpt lat="45.64294" lon="6.74909">
        <ele>1636</ele>
        <time>2020-01-08T13:09:22.000Z</time>
      </trkpt>
      <trkpt lat="45.64289" lon="6.74923">
        <ele>1634.8000488281</ele>
        <time>2020-01-08T13:09:25.000Z</time>
      </trkpt>
      <trkpt lat="45.64278" lon="6.74945">
        <ele>1633.4000244141</ele>
        <time>2020-01-08T13:09:30.000Z</time>
      </trkpt>
      <trkpt lat="45.64275" lon="6.74949">
        <ele>1633.1999511719</ele>
        <time>2020-01-08T13:09:31.000Z</time>
      </trkpt>
      <trkpt lat="45.64268" lon="6.74958">
        <ele>1632.4000244141</ele>
        <time>2020-01-08T13:09:33.000Z</time>
      </trkpt>
      <trkpt lat="45.64258" lon="6.74973">
        <ele>1631.1999511719</ele>
        <time>2020-01-08T13:09:36.000Z</time>
      </trkpt>
      <trkpt lat="45.64254" lon="6.74978">
        <ele>1630.4000244141</ele>
        <time>2020-01-08T13:09:37.000Z</time>
      </trkpt>
      <trkpt lat="45.64251" lon="6.74984">
        <ele>1630</ele>
        <time>2020-01-08T13:09:38.000Z</time>
      </trkpt>
      <trkpt lat="45.64248" lon="6.74988">
        <ele>1629.5999755859</ele>
        <time>2020-01-08T13:09:39.000Z</time>
      </trkpt>
      <trkpt lat="45.6424" lon="6.74999">
        <ele>1628.8000488281</ele>
        <time>2020-01-08T13:09:41.000Z</time>
      </trkpt>
      <trkpt lat="45.64227" lon="6.75016">
        <ele>1627.5999755859</ele>
        <time>2020-01-08T13:09:44.000Z</time>
      </trkpt>
      <trkpt lat="45.6422" lon="6.75028">
        <ele>1626.4000244141</ele>
        <time>2020-01-08T13:09:46.000Z</time>
      </trkpt>
      <trkpt lat="45.64214" lon="6.75041">
        <ele>1625</ele>
        <time>2020-01-08T13:09:48.000Z</time>
      </trkpt>
      <trkpt lat="45.64209" lon="6.75054">
        <ele>1623.8000488281</ele>
        <time>2020-01-08T13:09:50.000Z</time>
      </trkpt>
      <trkpt lat="45.642" lon="6.75073">
        <ele>1622.4000244141</ele>
        <time>2020-01-08T13:09:53.000Z</time>
      </trkpt>
      <trkpt lat="45.64197" lon="6.7508">
        <ele>1622</ele>
        <time>2020-01-08T13:09:54.000Z</time>
      </trkpt>
      <trkpt lat="45.6419" lon="6.75092">
        <ele>1621.1999511719</ele>
        <time>2020-01-08T13:09:56.000Z</time>
      </trkpt>
      <trkpt lat="45.64182" lon="6.75103">
        <ele>1620.1999511719</ele>
        <time>2020-01-08T13:09:58.000Z</time>
      </trkpt>
      <trkpt lat="45.64178" lon="6.75109">
        <ele>1619.8000488281</ele>
        <time>2020-01-08T13:09:59.000Z</time>
      </trkpt>
      <trkpt lat="45.6417" lon="6.75122">
        <ele>1618.4000244141</ele>
        <time>2020-01-08T13:10:01.000Z</time>
      </trkpt>
      <trkpt lat="45.6416" lon="6.7514">
        <ele>1616.8000488281</ele>
        <time>2020-01-08T13:10:04.000Z</time>
      </trkpt>
      <trkpt lat="45.64154" lon="6.75149">
        <ele>1615.5999755859</ele>
        <time>2020-01-08T13:10:06.000Z</time>
      </trkpt>
      <trkpt lat="45.64149" lon="6.75154">
        <ele>1614.4000244141</ele>
        <time>2020-01-08T13:10:08.000Z</time>
      </trkpt>
      <trkpt lat="45.6414" lon="6.75172">
        <ele>1613.5999755859</ele>
        <time>2020-01-08T13:10:12.000Z</time>
      </trkpt>
      <trkpt lat="45.64136" lon="6.75178">
        <ele>1613.4000244141</ele>
        <time>2020-01-08T13:10:13.000Z</time>
      </trkpt>
      <trkpt lat="45.64126" lon="6.75188">
        <ele>1612.8000488281</ele>
        <time>2020-01-08T13:10:15.000Z</time>
      </trkpt>
      <trkpt lat="45.64119" lon="6.75192">
        <ele>1612.1999511719</ele>
        <time>2020-01-08T13:10:16.000Z</time>
      </trkpt>
      <trkpt lat="45.64106" lon="6.75199">
        <ele>1611</ele>
        <time>2020-01-08T13:10:18.000Z</time>
      </trkpt>
      <trkpt lat="45.64096" lon="6.75208">
        <ele>1609.1999511719</ele>
        <time>2020-01-08T13:10:20.000Z</time>
      </trkpt>
      <trkpt lat="45.64091" lon="6.75214">
        <ele>1608.1999511719</ele>
        <time>2020-01-08T13:10:21.000Z</time>
      </trkpt>
      <trkpt lat="45.64078" lon="6.75222">
        <ele>1606.4000244141</ele>
        <time>2020-01-08T13:10:23.000Z</time>
      </trkpt>
      <trkpt lat="45.64071" lon="6.75223">
        <ele>1605.5999755859</ele>
        <time>2020-01-08T13:10:24.000Z</time>
      </trkpt>
      <trkpt lat="45.64064" lon="6.75224">
        <ele>1604.1999511719</ele>
        <time>2020-01-08T13:10:25.000Z</time>
      </trkpt>
      <trkpt lat="45.64058" lon="6.75228">
        <ele>1603.4000244141</ele>
        <time>2020-01-08T13:10:26.000Z</time>
      </trkpt>
      <trkpt lat="45.64051" lon="6.75227">
        <ele>1602.8000488281</ele>
        <time>2020-01-08T13:10:27.000Z</time>
      </trkpt>
      <trkpt lat="45.64049" lon="6.75223">
        <ele>1601.8000488281</ele>
        <time>2020-01-08T13:10:28.000Z</time>
      </trkpt>
      <trkpt lat="45.64045" lon="6.75222">
        <ele>1600.8000488281</ele>
        <time>2020-01-08T13:10:29.000Z</time>
      </trkpt>
      <trkpt lat="45.6404" lon="6.75223">
        <ele>1599.8000488281</ele>
        <time>2020-01-08T13:10:30.000Z</time>
      </trkpt>
      <trkpt lat="45.64034" lon="6.75228">
        <ele>1599</ele>
        <time>2020-01-08T13:10:31.000Z</time>
      </trkpt>
      <trkpt lat="45.64033" lon="6.75234">
        <ele>1598.4000244141</ele>
        <time>2020-01-08T13:10:32.000Z</time>
      </trkpt>
      <trkpt lat="45.64032" lon="6.75232">
        <ele>1597.5999755859</ele>
        <time>2020-01-08T13:10:33.000Z</time>
      </trkpt>
      <trkpt lat="45.64032" lon="6.75232">
        <ele>1596.8000488281</ele>
        <time>2020-01-08T13:10:34.000Z</time>
      </trkpt>
      <trkpt lat="45.64032" lon="6.75232">
        <ele>1595.4000244141</ele>
        <time>2020-01-08T13:10:36.000Z</time>
      </trkpt>
      <trkpt lat="45.64032" lon="6.75232">
        <ele>1595</ele>
        <time>2020-01-08T13:10:37.000Z</time>
      </trkpt>
      <trkpt lat="45.64032" lon="6.75232">
        <ele>1594.4000244141</ele>
        <time>2020-01-08T13:10:48.000Z</time>
      </trkpt>
      <trkpt lat="45.64032" lon="6.75232">
        <ele>1594.4000244141</ele>
        <time>2020-01-08T13:11:00.000Z</time>
      </trkpt>
      <trkpt lat="45.64032" lon="6.75232">
        <ele>1594.1999511719</ele>
        <time>2020-01-08T13:11:04.000Z</time>
      </trkpt>
      <trkpt lat="45.64032" lon="6.75233">
        <ele>1594.1999511719</ele>
        <time>2020-01-08T13:11:06.000Z</time>
      </trkpt>
      <trkpt lat="45.64031" lon="6.75234">
        <ele>1594.1999511719</ele>
        <time>2020-01-08T13:11:07.000Z</time>
      </trkpt>
      <trkpt lat="45.64028" lon="6.75234">
        <ele>1594.1999511719</ele>
        <time>2020-01-08T13:11:09.000Z</time>
      </trkpt>
      <trkpt lat="45.6402" lon="6.75232">
        <ele>1593.8000488281</ele>
        <time>2020-01-08T13:11:12.000Z</time>
      </trkpt>
      <trkpt lat="45.64018" lon="6.75235">
        <ele>1592.8000488281</ele>
        <time>2020-01-08T13:11:13.000Z</time>
      </trkpt>
      <trkpt lat="45.64015" lon="6.7524">
        <ele>1591.8000488281</ele>
        <time>2020-01-08T13:11:15.000Z</time>
      </trkpt>
      <trkpt lat="45.64009" lon="6.75239">
        <ele>1589.5999755859</ele>
        <time>2020-01-08T13:11:17.000Z</time>
      </trkpt>
      <trkpt lat="45.64009" lon="6.75238">
        <ele>1588.4000244141</ele>
        <time>2020-01-08T13:11:18.000Z</time>
      </trkpt>
      <trkpt lat="45.64009" lon="6.75238">
        <ele>1587.5999755859</ele>
        <time>2020-01-08T13:11:19.000Z</time>
      </trkpt>
      <trkpt lat="45.64009" lon="6.75238">
        <ele>1587</ele>
        <time>2020-01-08T13:11:20.000Z</time>
      </trkpt>
      <trkpt lat="45.64009" lon="6.75238">
        <ele>1586</ele>
        <time>2020-01-08T13:11:24.000Z</time>
      </trkpt>
      <trkpt lat="45.64005" lon="6.7524">
        <ele>1585.8000488281</ele>
        <time>2020-01-08T13:11:26.000Z</time>
      </trkpt>
      <trkpt lat="45.64002" lon="6.75247">
        <ele>1585.4000244141</ele>
        <time>2020-01-08T13:11:28.000Z</time>
      </trkpt>
      <trkpt lat="45.64002" lon="6.75251">
        <ele>1584.8000488281</ele>
        <time>2020-01-08T13:11:30.000Z</time>
      </trkpt>
      <trkpt lat="45.63998" lon="6.75257">
        <ele>1584</ele>
        <time>2020-01-08T13:11:32.000Z</time>
      </trkpt>
      <trkpt lat="45.63995" lon="6.75254">
        <ele>1583.1999511719</ele>
        <time>2020-01-08T13:11:33.000Z</time>
      </trkpt>
      <trkpt lat="45.63991" lon="6.75251">
        <ele>1581.5999755859</ele>
        <time>2020-01-08T13:11:35.000Z</time>
      </trkpt>
      <trkpt lat="45.63986" lon="6.75258">
        <ele>1580</ele>
        <time>2020-01-08T13:11:37.000Z</time>
      </trkpt>
      <trkpt lat="45.63984" lon="6.75267">
        <ele>1579</ele>
        <time>2020-01-08T13:11:39.000Z</time>
      </trkpt>
      <trkpt lat="45.6398" lon="6.75268">
        <ele>1577.1999511719</ele>
        <time>2020-01-08T13:11:41.000Z</time>
      </trkpt>
      <trkpt lat="45.63977" lon="6.75267">
        <ele>1576</ele>
        <time>2020-01-08T13:11:42.000Z</time>
      </trkpt>
      <trkpt lat="45.63975" lon="6.75267">
        <ele>1575</ele>
        <time>2020-01-08T13:11:43.000Z</time>
      </trkpt>
      <trkpt lat="45.63965" lon="6.7527">
        <ele>1573.5999755859</ele>
        <time>2020-01-08T13:11:45.000Z</time>
      </trkpt>
      <trkpt lat="45.63955" lon="6.75274">
        <ele>1572</ele>
        <time>2020-01-08T13:11:47.000Z</time>
      </trkpt>
      <trkpt lat="45.6395" lon="6.75276">
        <ele>1570.8000488281</ele>
        <time>2020-01-08T13:11:48.000Z</time>
      </trkpt>
      <trkpt lat="45.63945" lon="6.75278">
        <ele>1569.1999511719</ele>
        <time>2020-01-08T13:11:49.000Z</time>
      </trkpt>
      <trkpt lat="45.63941" lon="6.7528">
        <ele>1568</ele>
        <time>2020-01-08T13:11:50.000Z</time>
      </trkpt>
      <trkpt lat="45.63938" lon="6.75281">
        <ele>1567</ele>
        <time>2020-01-08T13:11:51.000Z</time>
      </trkpt>
      <trkpt lat="45.63931" lon="6.75283">
        <ele>1565</ele>
        <time>2020-01-08T13:11:53.000Z</time>
      </trkpt>
      <trkpt lat="45.63927" lon="6.75285">
        <ele>1564.1999511719</ele>
        <time>2020-01-08T13:11:54.000Z</time>
      </trkpt>
      <trkpt lat="45.63924" lon="6.75287">
        <ele>1563.5999755859</ele>
        <time>2020-01-08T13:11:55.000Z</time>
      </trkpt>
      <trkpt lat="45.63916" lon="6.75291">
        <ele>1562.1999511719</ele>
        <time>2020-01-08T13:11:57.000Z</time>
      </trkpt>
      <trkpt lat="45.63909" lon="6.75294">
        <ele>1560.8000488281</ele>
        <time>2020-01-08T13:11:59.000Z</time>
      </trkpt>
      <trkpt lat="45.63907" lon="6.75295">
        <ele>1560.1999511719</ele>
        <time>2020-01-08T13:12:00.000Z</time>
      </trkpt>
      <trkpt lat="45.63906" lon="6.75297">
        <ele>1559</ele>
        <time>2020-01-08T13:12:01.000Z</time>
      </trkpt>
      <trkpt lat="45.63903" lon="6.75306">
        <ele>1558</ele>
        <time>2020-01-08T13:12:04.000Z</time>
      </trkpt>
      <trkpt lat="45.639" lon="6.75319">
        <ele>1556.4000244141</ele>
        <time>2020-01-08T13:12:07.000Z</time>
      </trkpt>
      <trkpt lat="45.63896" lon="6.75324">
        <ele>1555.8000488281</ele>
        <time>2020-01-08T13:12:08.000Z</time>
      </trkpt>
      <trkpt lat="45.63892" lon="6.75328">
        <ele>1554.8000488281</ele>
        <time>2020-01-08T13:12:09.000Z</time>
      </trkpt>
      <trkpt lat="45.63888" lon="6.75332">
        <ele>1553.8000488281</ele>
        <time>2020-01-08T13:12:10.000Z</time>
      </trkpt>
      <trkpt lat="45.6388" lon="6.75339">
        <ele>1552</ele>
        <time>2020-01-08T13:12:12.000Z</time>
      </trkpt>
      <trkpt lat="45.63876" lon="6.75344">
        <ele>1550.5999755859</ele>
        <time>2020-01-08T13:12:14.000Z</time>
      </trkpt>
      <trkpt lat="45.63875" lon="6.75345">
        <ele>1549</ele>
        <time>2020-01-08T13:12:17.000Z</time>
      </trkpt>
      <trkpt lat="45.63875" lon="6.75345">
        <ele>1548.1999511719</ele>
        <time>2020-01-08T13:12:19.000Z</time>
      </trkpt>
      <trkpt lat="45.63875" lon="6.75345">
        <ele>1548</ele>
        <time>2020-01-08T13:12:20.000Z</time>
      </trkpt>
      <trkpt lat="45.63875" lon="6.75345">
        <ele>1547.4000244141</ele>
        <time>2020-01-08T13:12:24.000Z</time>
      </trkpt>
      <trkpt lat="45.63876" lon="6.75348">
        <ele>1546.4000244141</ele>
        <time>2020-01-08T13:12:25.000Z</time>
      </trkpt>
      <trkpt lat="45.63881" lon="6.75354">
        <ele>1545.5999755859</ele>
        <time>2020-01-08T13:12:28.000Z</time>
      </trkpt>
      <trkpt lat="45.63881" lon="6.75355">
        <ele>1545.1999511719</ele>
        <time>2020-01-08T13:12:29.000Z</time>
      </trkpt>
      <trkpt lat="45.63882" lon="6.75357">
        <ele>1543.5999755859</ele>
        <time>2020-01-08T13:12:31.000Z</time>
      </trkpt>
      <trkpt lat="45.63881" lon="6.75358">
        <ele>1542</ele>
        <time>2020-01-08T13:12:33.000Z</time>
      </trkpt>
      <trkpt lat="45.63878" lon="6.75361">
        <ele>1541.1999511719</ele>
        <time>2020-01-08T13:12:34.000Z</time>
      </trkpt>
      <trkpt lat="45.63875" lon="6.75364">
        <ele>1540.1999511719</ele>
        <time>2020-01-08T13:12:35.000Z</time>
      </trkpt>
      <trkpt lat="45.6387" lon="6.75371">
        <ele>1538.4000244141</ele>
        <time>2020-01-08T13:12:37.000Z</time>
      </trkpt>
      <trkpt lat="45.63865" lon="6.75378">
        <ele>1536.5999755859</ele>
        <time>2020-01-08T13:12:39.000Z</time>
      </trkpt>
      <trkpt lat="45.6386" lon="6.75385">
        <ele>1535</ele>
        <time>2020-01-08T13:12:41.000Z</time>
      </trkpt>
      <trkpt lat="45.63857" lon="6.75389">
        <ele>1534.1999511719</ele>
        <time>2020-01-08T13:12:42.000Z</time>
      </trkpt>
      <trkpt lat="45.63853" lon="6.75394">
        <ele>1533.4000244141</ele>
        <time>2020-01-08T13:12:43.000Z</time>
      </trkpt>
      <trkpt lat="45.63846" lon="6.75405">
        <ele>1531.4000244141</ele>
        <time>2020-01-08T13:12:45.000Z</time>
      </trkpt>
      <trkpt lat="45.63844" lon="6.7541">
        <ele>1530.4000244141</ele>
        <time>2020-01-08T13:12:46.000Z</time>
      </trkpt>
      <trkpt lat="45.63841" lon="6.75415">
        <ele>1529.4000244141</ele>
        <time>2020-01-08T13:12:47.000Z</time>
      </trkpt>
      <trkpt lat="45.6384" lon="6.7542">
        <ele>1528.1999511719</ele>
        <time>2020-01-08T13:12:48.000Z</time>
      </trkpt>
      <trkpt lat="45.63837" lon="6.75427">
        <ele>1525.5999755859</ele>
        <time>2020-01-08T13:12:49.000Z</time>
      </trkpt>
      <trkpt lat="45.63833" lon="6.75434">
        <ele>1525</ele>
        <time>2020-01-08T13:12:50.000Z</time>
      </trkpt>
      <trkpt lat="45.63831" lon="6.7544">
        <ele>1524.1999511719</ele>
        <time>2020-01-08T13:12:51.000Z</time>
      </trkpt>
      <trkpt lat="45.63828" lon="6.75446">
        <ele>1523.1999511719</ele>
        <time>2020-01-08T13:12:52.000Z</time>
      </trkpt>
      <trkpt lat="45.63826" lon="6.75452">
        <ele>1521.8000488281</ele>
        <time>2020-01-08T13:12:53.000Z</time>
      </trkpt>
      <trkpt lat="45.63823" lon="6.75458">
        <ele>1520.5999755859</ele>
        <time>2020-01-08T13:12:54.000Z</time>
      </trkpt>
      <trkpt lat="45.63821" lon="6.75464">
        <ele>1519.5999755859</ele>
        <time>2020-01-08T13:12:55.000Z</time>
      </trkpt>
      <trkpt lat="45.63818" lon="6.75476">
        <ele>1517.8000488281</ele>
        <time>2020-01-08T13:12:57.000Z</time>
      </trkpt>
      <trkpt lat="45.63816" lon="6.75484">
        <ele>1516.1999511719</ele>
        <time>2020-01-08T13:12:59.000Z</time>
      </trkpt>
      <trkpt lat="45.63815" lon="6.75488">
        <ele>1515.5999755859</ele>
        <time>2020-01-08T13:13:00.000Z</time>
      </trkpt>
      <trkpt lat="45.63813" lon="6.75492">
        <ele>1515</ele>
        <time>2020-01-08T13:13:01.000Z</time>
      </trkpt>
      <trkpt lat="45.6381" lon="6.75495">
        <ele>1514.4000244141</ele>
        <time>2020-01-08T13:13:02.000Z</time>
      </trkpt>
      <trkpt lat="45.63808" lon="6.75498">
        <ele>1513.8000488281</ele>
        <time>2020-01-08T13:13:03.000Z</time>
      </trkpt>
      <trkpt lat="45.63804" lon="6.75501">
        <ele>1512.5999755859</ele>
        <time>2020-01-08T13:13:05.000Z</time>
      </trkpt>
      <trkpt lat="45.63802" lon="6.75502">
        <ele>1512.1999511719</ele>
        <time>2020-01-08T13:13:06.000Z</time>
      </trkpt>
      <trkpt lat="45.63797" lon="6.75509">
        <ele>1511.1999511719</ele>
        <time>2020-01-08T13:13:09.000Z</time>
      </trkpt>
      <trkpt lat="45.63793" lon="6.75516">
        <ele>1510.4000244141</ele>
        <time>2020-01-08T13:13:11.000Z</time>
      </trkpt>
      <trkpt lat="45.6379" lon="6.7552">
        <ele>1510</ele>
        <time>2020-01-08T13:13:13.000Z</time>
      </trkpt>
      <trkpt lat="45.63782" lon="6.75526">
        <ele>1509.4000244141</ele>
        <time>2020-01-08T13:13:17.000Z</time>
      </trkpt>
      <trkpt lat="45.63772" lon="6.75538">
        <ele>1509.1999511719</ele>
        <time>2020-01-08T13:13:21.000Z</time>
      </trkpt>
      <trkpt lat="45.6377" lon="6.75541">
        <ele>1509</ele>
        <time>2020-01-08T13:13:22.000Z</time>
      </trkpt>
      <trkpt lat="45.63767" lon="6.75543">
        <ele>1508</ele>
        <time>2020-01-08T13:13:24.000Z</time>
      </trkpt>
      <trkpt lat="45.63767" lon="6.75544">
        <ele>1507.5999755859</ele>
        <time>2020-01-08T13:13:25.000Z</time>
      </trkpt>
      <trkpt lat="45.63766" lon="6.75543">
        <ele>1506.4000244141</ele>
        <time>2020-01-08T13:13:28.000Z</time>
      </trkpt>
      <trkpt lat="45.63767" lon="6.75548">
        <ele>1505.5999755859</ele>
        <time>2020-01-08T13:13:32.000Z</time>
      </trkpt>
      <trkpt lat="45.63764" lon="6.75551">
        <ele>1505.5999755859</ele>
        <time>2020-01-08T13:13:33.000Z</time>
      </trkpt>
      <trkpt lat="45.63759" lon="6.75555">
        <ele>1505.1999511719</ele>
        <time>2020-01-08T13:13:35.000Z</time>
      </trkpt>
      <trkpt lat="45.63752" lon="6.75559">
        <ele>1503.8000488281</ele>
        <time>2020-01-08T13:13:37.000Z</time>
      </trkpt>
      <trkpt lat="45.63748" lon="6.7556">
        <ele>1503.5999755859</ele>
        <time>2020-01-08T13:13:38.000Z</time>
      </trkpt>
      <trkpt lat="45.63742" lon="6.75563">
        <ele>1502.8000488281</ele>
        <time>2020-01-08T13:13:40.000Z</time>
      </trkpt>
      <trkpt lat="45.63739" lon="6.75565">
        <ele>1502.4000244141</ele>
        <time>2020-01-08T13:13:41.000Z</time>
      </trkpt>
      <trkpt lat="45.63737" lon="6.75567">
        <ele>1501.8000488281</ele>
        <time>2020-01-08T13:13:42.000Z</time>
      </trkpt>
      <trkpt lat="45.63736" lon="6.75567">
        <ele>1501</ele>
        <time>2020-01-08T13:13:44.000Z</time>
      </trkpt>
      <trkpt lat="45.63734" lon="6.75567">
        <ele>1500.5999755859</ele>
        <time>2020-01-08T13:13:46.000Z</time>
      </trkpt>
      <trkpt lat="45.63733" lon="6.75567">
        <ele>1500.5999755859</ele>
        <time>2020-01-08T13:13:47.000Z</time>
      </trkpt>
      <trkpt lat="45.63731" lon="6.75568">
        <ele>1500.5999755859</ele>
        <time>2020-01-08T13:13:49.000Z</time>
      </trkpt>
      <trkpt lat="45.63722" lon="6.75574">
        <ele>1500.4000244141</ele>
        <time>2020-01-08T13:13:52.000Z</time>
      </trkpt>
      <trkpt lat="45.63717" lon="6.75577">
        <ele>1500.4000244141</ele>
        <time>2020-01-08T13:13:53.000Z</time>
      </trkpt>
      <trkpt lat="45.63708" lon="6.75581">
        <ele>1499.5999755859</ele>
        <time>2020-01-08T13:13:56.000Z</time>
      </trkpt>
      <trkpt lat="45.63705" lon="6.75583">
        <ele>1498.5999755859</ele>
        <time>2020-01-08T13:13:59.000Z</time>
      </trkpt>
      <trkpt lat="45.63703" lon="6.75585">
        <ele>1499.4000244141</ele>
        <time>2020-01-08T13:14:05.000Z</time>
      </trkpt>
      <trkpt lat="45.63703" lon="6.75586">
        <ele>1499.5999755859</ele>
        <time>2020-01-08T13:14:06.000Z</time>
      </trkpt>
      <trkpt lat="45.637" lon="6.75589">
        <ele>1500</ele>
        <time>2020-01-08T13:14:09.000Z</time>
      </trkpt>
      <trkpt lat="45.63697" lon="6.75589">
        <ele>1499.4000244141</ele>
        <time>2020-01-08T13:14:15.000Z</time>
      </trkpt>
      <trkpt lat="45.63694" lon="6.75589">
        <ele>1499.5999755859</ele>
        <time>2020-01-08T13:14:17.000Z</time>
      </trkpt>
      <trkpt lat="45.6369" lon="6.75591">
        <ele>1500.4000244141</ele>
        <time>2020-01-08T13:14:20.000Z</time>
      </trkpt>
      <trkpt lat="45.63679" lon="6.75595">
        <ele>1499.5999755859</ele>
        <time>2020-01-08T13:14:26.000Z</time>
      </trkpt>
      <trkpt lat="45.63676" lon="6.75598">
        <ele>1499.5999755859</ele>
        <time>2020-01-08T13:14:34.000Z</time>
      </trkpt>
      <trkpt lat="45.63676" lon="6.75597">
        <ele>1499.1999511719</ele>
        <time>2020-01-08T13:14:44.000Z</time>
      </trkpt>
      <trkpt lat="45.63676" lon="6.75597">
        <ele>1499.5999755859</ele>
        <time>2020-01-08T13:14:53.000Z</time>
      </trkpt>
      <trkpt lat="45.63675" lon="6.75598">
        <ele>1499.5999755859</ele>
        <time>2020-01-08T13:15:01.000Z</time>
      </trkpt>
      <trkpt lat="45.63675" lon="6.75601">
        <ele>1499.4000244141</ele>
        <time>2020-01-08T13:15:06.000Z</time>
      </trkpt>
      <trkpt lat="45.63673" lon="6.75603">
        <ele>1499.4000244141</ele>
        <time>2020-01-08T13:15:08.000Z</time>
      </trkpt>
      <trkpt lat="45.63672" lon="6.75608">
        <ele>1499.4000244141</ele>
        <time>2020-01-08T13:15:10.000Z</time>
      </trkpt>
      <trkpt lat="45.63669" lon="6.75622">
        <ele>1499.4000244141</ele>
        <time>2020-01-08T13:15:15.000Z</time>
      </trkpt>
      <trkpt lat="45.63663" lon="6.75636">
        <ele>1498.1999511719</ele>
        <time>2020-01-08T13:15:18.000Z</time>
      </trkpt>
      <trkpt lat="45.63661" lon="6.7564">
        <ele>1497.8000488281</ele>
        <time>2020-01-08T13:15:19.000Z</time>
      </trkpt>
      <trkpt lat="45.63656" lon="6.75648">
        <ele>1497.1999511719</ele>
        <time>2020-01-08T13:15:21.000Z</time>
      </trkpt>
      <trkpt lat="45.63651" lon="6.75655">
        <ele>1496</ele>
        <time>2020-01-08T13:15:23.000Z</time>
      </trkpt>
      <trkpt lat="45.6364" lon="6.75663">
        <ele>1494.8000488281</ele>
        <time>2020-01-08T13:15:26.000Z</time>
      </trkpt>
      <trkpt lat="45.63639" lon="6.75663">
        <ele>1494.4000244141</ele>
        <time>2020-01-08T13:15:27.000Z</time>
      </trkpt>
      <trkpt lat="45.63635" lon="6.75664">
        <ele>1493.1999511719</ele>
        <time>2020-01-08T13:15:29.000Z</time>
      </trkpt>
      <trkpt lat="45.63626" lon="6.75669">
        <ele>1492.4000244141</ele>
        <time>2020-01-08T13:15:31.000Z</time>
      </trkpt>
      <trkpt lat="45.6362" lon="6.7567">
        <ele>1492</ele>
        <time>2020-01-08T13:15:32.000Z</time>
      </trkpt>
      <trkpt lat="45.63617" lon="6.75672">
        <ele>1491.5999755859</ele>
        <time>2020-01-08T13:15:33.000Z</time>
      </trkpt>
      <trkpt lat="45.63614" lon="6.75674">
        <ele>1490.8000488281</ele>
        <time>2020-01-08T13:15:34.000Z</time>
      </trkpt>
      <trkpt lat="45.6361" lon="6.75682">
        <ele>1489.5999755859</ele>
        <time>2020-01-08T13:15:36.000Z</time>
      </trkpt>
      <trkpt lat="45.63606" lon="6.75689">
        <ele>1488.1999511719</ele>
        <time>2020-01-08T13:15:38.000Z</time>
      </trkpt>
      <trkpt lat="45.63605" lon="6.75693">
        <ele>1487</ele>
        <time>2020-01-08T13:15:40.000Z</time>
      </trkpt>
      <trkpt lat="45.63608" lon="6.75695">
        <ele>1486</ele>
        <time>2020-01-08T13:15:42.000Z</time>
      </trkpt>
      <trkpt lat="45.63609" lon="6.75697">
        <ele>1485.5999755859</ele>
        <time>2020-01-08T13:15:43.000Z</time>
      </trkpt>
      <trkpt lat="45.6361" lon="6.75701">
        <ele>1484.1999511719</ele>
        <time>2020-01-08T13:15:45.000Z</time>
      </trkpt>
      <trkpt lat="45.6361" lon="6.75709">
        <ele>1482.8000488281</ele>
        <time>2020-01-08T13:15:47.000Z</time>
      </trkpt>
      <trkpt lat="45.63611" lon="6.75712">
        <ele>1482.4000244141</ele>
        <time>2020-01-08T13:15:48.000Z</time>
      </trkpt>
      <trkpt lat="45.63612" lon="6.75715">
        <ele>1481.1999511719</ele>
        <time>2020-01-08T13:15:50.000Z</time>
      </trkpt>
      <trkpt lat="45.63612" lon="6.7572">
        <ele>1479.5999755859</ele>
        <time>2020-01-08T13:15:52.000Z</time>
      </trkpt>
      <trkpt lat="45.63609" lon="6.75726">
        <ele>1477.5999755859</ele>
        <time>2020-01-08T13:15:54.000Z</time>
      </trkpt>
      <trkpt lat="45.63608" lon="6.75734">
        <ele>1475.8000488281</ele>
        <time>2020-01-08T13:15:56.000Z</time>
      </trkpt>
      <trkpt lat="45.6361" lon="6.75737">
        <ele>1475.1999511719</ele>
        <time>2020-01-08T13:15:57.000Z</time>
      </trkpt>
      <trkpt lat="45.63607" lon="6.75744">
        <ele>1474.4000244141</ele>
        <time>2020-01-08T13:15:59.000Z</time>
      </trkpt>
      <trkpt lat="45.63601" lon="6.75753">
        <ele>1472.4000244141</ele>
        <time>2020-01-08T13:16:01.000Z</time>
      </trkpt>
      <trkpt lat="45.63598" lon="6.75757">
        <ele>1470.4000244141</ele>
        <time>2020-01-08T13:16:02.000Z</time>
      </trkpt>
      <trkpt lat="45.63596" lon="6.75762">
        <ele>1469.5999755859</ele>
        <time>2020-01-08T13:16:03.000Z</time>
      </trkpt>
      <trkpt lat="45.63597" lon="6.75765">
        <ele>1469</ele>
        <time>2020-01-08T13:16:04.000Z</time>
      </trkpt>
      <trkpt lat="45.63599" lon="6.75768">
        <ele>1468.1999511719</ele>
        <time>2020-01-08T13:16:05.000Z</time>
      </trkpt>
      <trkpt lat="45.63601" lon="6.75773">
        <ele>1467.4000244141</ele>
        <time>2020-01-08T13:16:06.000Z</time>
      </trkpt>
      <trkpt lat="45.63602" lon="6.75777">
        <ele>1466.1999511719</ele>
        <time>2020-01-08T13:16:07.000Z</time>
      </trkpt>
      <trkpt lat="45.63603" lon="6.75782">
        <ele>1464.5999755859</ele>
        <time>2020-01-08T13:16:08.000Z</time>
      </trkpt>
      <trkpt lat="45.63605" lon="6.75787">
        <ele>1463.1999511719</ele>
        <time>2020-01-08T13:16:09.000Z</time>
      </trkpt>
      <trkpt lat="45.63606" lon="6.75791">
        <ele>1461.8000488281</ele>
        <time>2020-01-08T13:16:10.000Z</time>
      </trkpt>
      <trkpt lat="45.63606" lon="6.75795">
        <ele>1460.4000244141</ele>
        <time>2020-01-08T13:16:11.000Z</time>
      </trkpt>
      <trkpt lat="45.63605" lon="6.75797">
        <ele>1459.1999511719</ele>
        <time>2020-01-08T13:16:12.000Z</time>
      </trkpt>
      <trkpt lat="45.63604" lon="6.75801">
        <ele>1457.8000488281</ele>
        <time>2020-01-08T13:16:13.000Z</time>
      </trkpt>
      <trkpt lat="45.63604" lon="6.75803">
        <ele>1456.4000244141</ele>
        <time>2020-01-08T13:16:14.000Z</time>
      </trkpt>
      <trkpt lat="45.63603" lon="6.75805">
        <ele>1455.4000244141</ele>
        <time>2020-01-08T13:16:15.000Z</time>
      </trkpt>
      <trkpt lat="45.63603" lon="6.75807">
        <ele>1454.8000488281</ele>
        <time>2020-01-08T13:16:16.000Z</time>
      </trkpt>
      <trkpt lat="45.63603" lon="6.75809">
        <ele>1453.8000488281</ele>
        <time>2020-01-08T13:16:17.000Z</time>
      </trkpt>
      <trkpt lat="45.63602" lon="6.75811">
        <ele>1453</ele>
        <time>2020-01-08T13:16:18.000Z</time>
      </trkpt>
      <trkpt lat="45.63602" lon="6.75812">
        <ele>1452</ele>
        <time>2020-01-08T13:16:19.000Z</time>
      </trkpt>
      <trkpt lat="45.63603" lon="6.75812">
        <ele>1451.1999511719</ele>
        <time>2020-01-08T13:16:20.000Z</time>
      </trkpt>
      <trkpt lat="45.63603" lon="6.75812">
        <ele>1449.8000488281</ele>
        <time>2020-01-08T13:16:22.000Z</time>
      </trkpt>
      <trkpt lat="45.63603" lon="6.75812">
        <ele>1448.8000488281</ele>
        <time>2020-01-08T13:16:28.000Z</time>
      </trkpt>
      <trkpt lat="45.63602" lon="6.75812">
        <ele>1448.8000488281</ele>
        <time>2020-01-08T13:16:29.000Z</time>
      </trkpt>
      <trkpt lat="45.63601" lon="6.75815">
        <ele>1448.8000488281</ele>
        <time>2020-01-08T13:16:32.000Z</time>
      </trkpt>
      <trkpt lat="45.63601" lon="6.75815">
        <ele>1447.8000488281</ele>
        <time>2020-01-08T13:16:42.000Z</time>
      </trkpt>
      <trkpt lat="45.63601" lon="6.75815">
        <ele>1447.8000488281</ele>
        <time>2020-01-08T13:16:44.000Z</time>
      </trkpt>
      <trkpt lat="45.63602" lon="6.75817">
        <ele>1447.8000488281</ele>
        <time>2020-01-08T13:16:56.000Z</time>
      </trkpt>
      <trkpt lat="45.63601" lon="6.75819">
        <ele>1447</ele>
        <time>2020-01-08T13:17:02.000Z</time>
      </trkpt>
      <trkpt lat="45.636" lon="6.7582">
        <ele>1446.8000488281</ele>
        <time>2020-01-08T13:17:03.000Z</time>
      </trkpt>
      <trkpt lat="45.636" lon="6.7582">
        <ele>1445.5999755859</ele>
        <time>2020-01-08T13:17:07.000Z</time>
      </trkpt>
      <trkpt lat="45.636" lon="6.7582">
        <ele>1445.4000244141</ele>
        <time>2020-01-08T13:17:08.000Z</time>
      </trkpt>
      <trkpt lat="45.63595" lon="6.75826">
        <ele>1444.5999755859</ele>
        <time>2020-01-08T13:17:10.000Z</time>
      </trkpt>
      <trkpt lat="45.63593" lon="6.75827">
        <ele>1444.1999511719</ele>
        <time>2020-01-08T13:17:11.000Z</time>
      </trkpt>
      <trkpt lat="45.63585" lon="6.75831">
        <ele>1442.8000488281</ele>
        <time>2020-01-08T13:17:14.000Z</time>
      </trkpt>
      <trkpt lat="45.63583" lon="6.75832">
        <ele>1442.1999511719</ele>
        <time>2020-01-08T13:17:15.000Z</time>
      </trkpt>
      <trkpt lat="45.63582" lon="6.75834">
        <ele>1441.8000488281</ele>
        <time>2020-01-08T13:17:16.000Z</time>
      </trkpt>
      <trkpt lat="45.63579" lon="6.75838">
        <ele>1441.1999511719</ele>
        <time>2020-01-08T13:17:17.000Z</time>
      </trkpt>
      <trkpt lat="45.63577" lon="6.75842">
        <ele>1440.5999755859</ele>
        <time>2020-01-08T13:17:18.000Z</time>
      </trkpt>
      <trkpt lat="45.63576" lon="6.75846">
        <ele>1440</ele>
        <time>2020-01-08T13:17:19.000Z</time>
      </trkpt>
      <trkpt lat="45.63574" lon="6.75849">
        <ele>1439.1999511719</ele>
        <time>2020-01-08T13:17:20.000Z</time>
      </trkpt>
      <trkpt lat="45.63573" lon="6.75851">
        <ele>1438.4000244141</ele>
        <time>2020-01-08T13:17:21.000Z</time>
      </trkpt>
      <trkpt lat="45.63574" lon="6.75854">
        <ele>1437.5999755859</ele>
        <time>2020-01-08T13:17:22.000Z</time>
      </trkpt>
      <trkpt lat="45.63575" lon="6.75857">
        <ele>1437</ele>
        <time>2020-01-08T13:17:23.000Z</time>
      </trkpt>
      <trkpt lat="45.63574" lon="6.75864">
        <ele>1436.4000244141</ele>
        <time>2020-01-08T13:17:25.000Z</time>
      </trkpt>
      <trkpt lat="45.63573" lon="6.75865">
        <ele>1435.8000488281</ele>
        <time>2020-01-08T13:17:26.000Z</time>
      </trkpt>
      <trkpt lat="45.63573" lon="6.75866">
        <ele>1434.1999511719</ele>
        <time>2020-01-08T13:17:28.000Z</time>
      </trkpt>
      <trkpt lat="45.63573" lon="6.75866">
        <ele>1433.4000244141</ele>
        <time>2020-01-08T13:17:29.000Z</time>
      </trkpt>
      <trkpt lat="45.63573" lon="6.75866">
        <ele>1432.8000488281</ele>
        <time>2020-01-08T13:17:30.000Z</time>
      </trkpt>
      <trkpt lat="45.63568" lon="6.75869">
        <ele>1431.4000244141</ele>
        <time>2020-01-08T13:17:33.000Z</time>
      </trkpt>
      <trkpt lat="45.63567" lon="6.7587">
        <ele>1431.4000244141</ele>
        <time>2020-01-08T13:17:34.000Z</time>
      </trkpt>
      <trkpt lat="45.63566" lon="6.7587">
        <ele>1430.4000244141</ele>
        <time>2020-01-08T13:17:39.000Z</time>
      </trkpt>
      <trkpt lat="45.63566" lon="6.7587">
        <ele>1430.4000244141</ele>
        <time>2020-01-08T13:17:40.000Z</time>
      </trkpt>
      <trkpt lat="45.63566" lon="6.7587">
        <ele>1430.4000244141</ele>
        <time>2020-01-08T13:17:50.000Z</time>
      </trkpt>
      <trkpt lat="45.63566" lon="6.7587">
        <ele>1429.4000244141</ele>
        <time>2020-01-08T13:17:53.000Z</time>
      </trkpt>
      <trkpt lat="45.63566" lon="6.7587">
        <ele>1429</ele>
        <time>2020-01-08T13:17:57.000Z</time>
      </trkpt>
      <trkpt lat="45.63564" lon="6.75872">
        <ele>1428.8000488281</ele>
        <time>2020-01-08T13:18:00.000Z</time>
      </trkpt>
      <trkpt lat="45.63562" lon="6.75876">
        <ele>1428.4000244141</ele>
        <time>2020-01-08T13:18:01.000Z</time>
      </trkpt>
      <trkpt lat="45.63561" lon="6.75879">
        <ele>1427.5999755859</ele>
        <time>2020-01-08T13:18:02.000Z</time>
      </trkpt>
      <trkpt lat="45.63557" lon="6.75883">
        <ele>1426.1999511719</ele>
        <time>2020-01-08T13:18:05.000Z</time>
      </trkpt>
      <trkpt lat="45.63555" lon="6.75887">
        <ele>1424.8000488281</ele>
        <time>2020-01-08T13:18:07.000Z</time>
      </trkpt>
      <trkpt lat="45.63551" lon="6.75895">
        <ele>1424</ele>
        <time>2020-01-08T13:18:09.000Z</time>
      </trkpt>
      <trkpt lat="45.63549" lon="6.75897">
        <ele>1423.5999755859</ele>
        <time>2020-01-08T13:18:10.000Z</time>
      </trkpt>
      <trkpt lat="45.63544" lon="6.75903">
        <ele>1422.5999755859</ele>
        <time>2020-01-08T13:18:12.000Z</time>
      </trkpt>
      <trkpt lat="45.63539" lon="6.7591">
        <ele>1420.8000488281</ele>
        <time>2020-01-08T13:18:14.000Z</time>
      </trkpt>
      <trkpt lat="45.63534" lon="6.75916">
        <ele>1418.8000488281</ele>
        <time>2020-01-08T13:18:16.000Z</time>
      </trkpt>
      <trkpt lat="45.63533" lon="6.75918">
        <ele>1417.8000488281</ele>
        <time>2020-01-08T13:18:17.000Z</time>
      </trkpt>
      <trkpt lat="45.63532" lon="6.7592">
        <ele>1417</ele>
        <time>2020-01-08T13:18:18.000Z</time>
      </trkpt>
      <trkpt lat="45.63531" lon="6.75923">
        <ele>1416.1999511719</ele>
        <time>2020-01-08T13:18:19.000Z</time>
      </trkpt>
      <trkpt lat="45.6353" lon="6.75925">
        <ele>1415.8000488281</ele>
        <time>2020-01-08T13:18:20.000Z</time>
      </trkpt>
      <trkpt lat="45.63525" lon="6.75929">
        <ele>1414.4000244141</ele>
        <time>2020-01-08T13:18:22.000Z</time>
      </trkpt>
      <trkpt lat="45.63521" lon="6.75929">
        <ele>1413.4000244141</ele>
        <time>2020-01-08T13:18:24.000Z</time>
      </trkpt>
      <trkpt lat="45.6352" lon="6.75929">
        <ele>1412.1999511719</ele>
        <time>2020-01-08T13:18:26.000Z</time>
      </trkpt>
      <trkpt lat="45.6352" lon="6.75928">
        <ele>1411.5999755859</ele>
        <time>2020-01-08T13:18:28.000Z</time>
      </trkpt>
      <trkpt lat="45.6352" lon="6.75929">
        <ele>1411.5999755859</ele>
        <time>2020-01-08T13:18:29.000Z</time>
      </trkpt>
      <trkpt lat="45.63516" lon="6.75929">
        <ele>1411</ele>
        <time>2020-01-08T13:18:32.000Z</time>
      </trkpt>
      <trkpt lat="45.63515" lon="6.75928">
        <ele>1410.8000488281</ele>
        <time>2020-01-08T13:18:33.000Z</time>
      </trkpt>
      <trkpt lat="45.63514" lon="6.75927">
        <ele>1410.4000244141</ele>
        <time>2020-01-08T13:18:36.000Z</time>
      </trkpt>
      <trkpt lat="45.63514" lon="6.75926">
        <ele>1410</ele>
        <time>2020-01-08T13:18:39.000Z</time>
      </trkpt>
      <trkpt lat="45.63511" lon="6.75923">
        <ele>1409.8000488281</ele>
        <time>2020-01-08T13:18:44.000Z</time>
      </trkpt>
      <trkpt lat="45.63505" lon="6.7592">
        <ele>1409.8000488281</ele>
        <time>2020-01-08T13:18:49.000Z</time>
      </trkpt>
      <trkpt lat="45.63501" lon="6.75917">
        <ele>1408.8000488281</ele>
        <time>2020-01-08T13:18:53.000Z</time>
      </trkpt>
      <trkpt lat="45.635" lon="6.75916">
        <ele>1408.4000244141</ele>
        <time>2020-01-08T13:18:55.000Z</time>
      </trkpt>
      <trkpt lat="45.63499" lon="6.75915">
        <ele>1407.5999755859</ele>
        <time>2020-01-08T13:19:00.000Z</time>
      </trkpt>
      <trkpt lat="45.63499" lon="6.75915">
        <ele>1407.5999755859</ele>
        <time>2020-01-08T13:19:01.000Z</time>
      </trkpt>
      <trkpt lat="45.63498" lon="6.75913">
        <ele>1407.4000244141</ele>
        <time>2020-01-08T13:19:08.000Z</time>
      </trkpt>
      <trkpt lat="45.63496" lon="6.75912">
        <ele>1407</ele>
        <time>2020-01-08T13:19:15.000Z</time>
      </trkpt>
      <trkpt lat="45.63491" lon="6.75911">
        <ele>1406.5999755859</ele>
        <time>2020-01-08T13:19:20.000Z</time>
      </trkpt>
      <trkpt lat="45.6349" lon="6.75911">
        <ele>1406.5999755859</ele>
        <time>2020-01-08T13:19:21.000Z</time>
      </trkpt>
      <trkpt lat="45.63489" lon="6.75911">
        <ele>1406.5999755859</ele>
        <time>2020-01-08T13:19:22.000Z</time>
      </trkpt>
      <trkpt lat="45.63489" lon="6.7591">
        <ele>1406.5999755859</ele>
        <time>2020-01-08T13:19:25.000Z</time>
      </trkpt>
      <trkpt lat="45.63487" lon="6.75912">
        <ele>1406.5999755859</ele>
        <time>2020-01-08T13:19:26.000Z</time>
      </trkpt>
      <trkpt lat="45.63475" lon="6.75918">
        <ele>1406.5999755859</ele>
        <time>2020-01-08T13:19:29.000Z</time>
      </trkpt>
      <trkpt lat="45.63471" lon="6.75919">
        <ele>1406.1999511719</ele>
        <time>2020-01-08T13:19:32.000Z</time>
      </trkpt>
      <trkpt lat="45.63472" lon="6.7592">
        <ele>1405.4000244141</ele>
        <time>2020-01-08T13:19:34.000Z</time>
      </trkpt>
      <trkpt lat="45.63477" lon="6.75919">
        <ele>1404.5999755859</ele>
        <time>2020-01-08T13:19:37.000Z</time>
      </trkpt>
      <trkpt lat="45.63484" lon="6.75919">
        <ele>1404.1999511719</ele>
        <time>2020-01-08T13:19:40.000Z</time>
      </trkpt>
      <trkpt lat="45.63489" lon="6.75919">
        <ele>1403.8000488281</ele>
        <time>2020-01-08T13:19:42.000Z</time>
      </trkpt>
      <trkpt lat="45.63497" lon="6.75923">
        <ele>1403.1999511719</ele>
        <time>2020-01-08T13:19:45.000Z</time>
      </trkpt>
      <trkpt lat="45.63499" lon="6.75924">
        <ele>1402.4000244141</ele>
        <time>2020-01-08T13:19:47.000Z</time>
      </trkpt>
      <trkpt lat="45.635" lon="6.75925">
        <ele>1401.8000488281</ele>
        <time>2020-01-08T13:19:49.000Z</time>
      </trkpt>
      <trkpt lat="45.63503" lon="6.75929">
        <ele>1401.4000244141</ele>
        <time>2020-01-08T13:19:53.000Z</time>
      </trkpt>
      <trkpt lat="45.63511" lon="6.75938">
        <ele>1401.1999511719</ele>
        <time>2020-01-08T13:19:58.000Z</time>
      </trkpt>
      <trkpt lat="45.63522" lon="6.75948">
        <ele>1400.5999755859</ele>
        <time>2020-01-08T13:20:02.000Z</time>
      </trkpt>
      <trkpt lat="45.63529" lon="6.75951">
        <ele>1400.4000244141</ele>
        <time>2020-01-08T13:20:04.000Z</time>
      </trkpt>
      <trkpt lat="45.63543" lon="6.75946">
        <ele>1399.4000244141</ele>
        <time>2020-01-08T13:20:08.000Z</time>
      </trkpt>
      <trkpt lat="45.63546" lon="6.75944">
        <ele>1399.1999511719</ele>
        <time>2020-01-08T13:20:09.000Z</time>
      </trkpt>
      <trkpt lat="45.63556" lon="6.75938">
        <ele>1398</ele>
        <time>2020-01-08T13:20:12.000Z</time>
      </trkpt>
      <trkpt lat="45.6356" lon="6.75938">
        <ele>1397.1999511719</ele>
        <time>2020-01-08T13:20:13.000Z</time>
      </trkpt>
      <trkpt lat="45.63564" lon="6.7594">
        <ele>1396.5999755859</ele>
        <time>2020-01-08T13:20:14.000Z</time>
      </trkpt>
      <trkpt lat="45.63569" lon="6.75946">
        <ele>1395.4000244141</ele>
        <time>2020-01-08T13:20:17.000Z</time>
      </trkpt>
      <trkpt lat="45.63551" lon="6.75953">
        <ele>1394.4000244141</ele>
        <time>2020-01-08T13:20:20.000Z</time>
      </trkpt>
      <trkpt lat="45.63547" lon="6.75956">
        <ele>1394.1999511719</ele>
        <time>2020-01-08T13:20:21.000Z</time>
      </trkpt>
      <trkpt lat="45.63536" lon="6.75965">
        <ele>1393</ele>
        <time>2020-01-08T13:20:24.000Z</time>
      </trkpt>
      <trkpt lat="45.63532" lon="6.75966">
        <ele>1392.5999755859</ele>
        <time>2020-01-08T13:20:25.000Z</time>
      </trkpt>
      <trkpt lat="45.63527" lon="6.75967">
        <ele>1392</ele>
        <time>2020-01-08T13:20:26.000Z</time>
      </trkpt>
      <trkpt lat="45.63523" lon="6.75967">
        <ele>1391.8000488281</ele>
        <time>2020-01-08T13:20:27.000Z</time>
      </trkpt>
      <trkpt lat="45.63518" lon="6.75967">
        <ele>1391.4000244141</ele>
        <time>2020-01-08T13:20:28.000Z</time>
      </trkpt>
      <trkpt lat="45.63508" lon="6.75966">
        <ele>1390.8000488281</ele>
        <time>2020-01-08T13:20:30.000Z</time>
      </trkpt>
      <trkpt lat="45.63497" lon="6.75967">
        <ele>1389.8000488281</ele>
        <time>2020-01-08T13:20:32.000Z</time>
      </trkpt>
      <trkpt lat="45.63491" lon="6.75967">
        <ele>1389</ele>
        <time>2020-01-08T13:20:33.000Z</time>
      </trkpt>
      <trkpt lat="45.63479" lon="6.75969">
        <ele>1387.5999755859</ele>
        <time>2020-01-08T13:20:35.000Z</time>
      </trkpt>
      <trkpt lat="45.63469" lon="6.7597">
        <ele>1386.5999755859</ele>
        <time>2020-01-08T13:20:37.000Z</time>
      </trkpt>
      <trkpt lat="45.63459" lon="6.75973">
        <ele>1385.1999511719</ele>
        <time>2020-01-08T13:20:39.000Z</time>
      </trkpt>
      <trkpt lat="45.63448" lon="6.75977">
        <ele>1384.1999511719</ele>
        <time>2020-01-08T13:20:41.000Z</time>
      </trkpt>
      <trkpt lat="45.63443" lon="6.75979">
        <ele>1383.8000488281</ele>
        <time>2020-01-08T13:20:42.000Z</time>
      </trkpt>
      <trkpt lat="45.63438" lon="6.75981">
        <ele>1383.1999511719</ele>
        <time>2020-01-08T13:20:43.000Z</time>
      </trkpt>
      <trkpt lat="45.63429" lon="6.75984">
        <ele>1381.5999755859</ele>
        <time>2020-01-08T13:20:45.000Z</time>
      </trkpt>
      <trkpt lat="45.63423" lon="6.75992">
        <ele>1379.8000488281</ele>
        <time>2020-01-08T13:20:47.000Z</time>
      </trkpt>
      <trkpt lat="45.63421" lon="6.75997">
        <ele>1378.8000488281</ele>
        <time>2020-01-08T13:20:49.000Z</time>
      </trkpt>
      <trkpt lat="45.63422" lon="6.75997">
        <ele>1378.4000244141</ele>
        <time>2020-01-08T13:20:50.000Z</time>
      </trkpt>
      <trkpt lat="45.63432" lon="6.75993">
        <ele>1377.8000488281</ele>
        <time>2020-01-08T13:20:53.000Z</time>
      </trkpt>
      <trkpt lat="45.63436" lon="6.75993">
        <ele>1377.5999755859</ele>
        <time>2020-01-08T13:20:54.000Z</time>
      </trkpt>
      <trkpt lat="45.63455" lon="6.75994">
        <ele>1376.5999755859</ele>
        <time>2020-01-08T13:20:58.000Z</time>
      </trkpt>
      <trkpt lat="45.63465" lon="6.75998">
        <ele>1376.4000244141</ele>
        <time>2020-01-08T13:21:00.000Z</time>
      </trkpt>
      <trkpt lat="45.63481" lon="6.76007">
        <ele>1375.5999755859</ele>
        <time>2020-01-08T13:21:03.000Z</time>
      </trkpt>
      <trkpt lat="45.63486" lon="6.76012">
        <ele>1375.1999511719</ele>
        <time>2020-01-08T13:21:04.000Z</time>
      </trkpt>
      <trkpt lat="45.63489" lon="6.76018">
        <ele>1374.8000488281</ele>
        <time>2020-01-08T13:21:05.000Z</time>
      </trkpt>
      <trkpt lat="45.63491" lon="6.76024">
        <ele>1374.4000244141</ele>
        <time>2020-01-08T13:21:06.000Z</time>
      </trkpt>
      <trkpt lat="45.63491" lon="6.76036">
        <ele>1373.5999755859</ele>
        <time>2020-01-08T13:21:08.000Z</time>
      </trkpt>
      <trkpt lat="45.63489" lon="6.76041">
        <ele>1373.4000244141</ele>
        <time>2020-01-08T13:21:09.000Z</time>
      </trkpt>
      <trkpt lat="45.63488" lon="6.76046">
        <ele>1373</ele>
        <time>2020-01-08T13:21:10.000Z</time>
      </trkpt>
      <trkpt lat="45.63483" lon="6.76054">
        <ele>1372.1999511719</ele>
        <time>2020-01-08T13:21:12.000Z</time>
      </trkpt>
      <trkpt lat="45.63481" lon="6.76059">
        <ele>1371.5999755859</ele>
        <time>2020-01-08T13:21:13.000Z</time>
      </trkpt>
      <trkpt lat="45.63479" lon="6.76063">
        <ele>1370.8000488281</ele>
        <time>2020-01-08T13:21:14.000Z</time>
      </trkpt>
      <trkpt lat="45.6347" lon="6.76083">
        <ele>1369.8000488281</ele>
        <time>2020-01-08T13:21:18.000Z</time>
      </trkpt>
      <trkpt lat="45.63467" lon="6.76088">
        <ele>1369.5999755859</ele>
        <time>2020-01-08T13:21:19.000Z</time>
      </trkpt>
      <trkpt lat="45.6346" lon="6.76104">
        <ele>1368.8000488281</ele>
        <time>2020-01-08T13:21:22.000Z</time>
      </trkpt>
      <trkpt lat="45.63451" lon="6.76127">
        <ele>1367.8000488281</ele>
        <time>2020-01-08T13:21:26.000Z</time>
      </trkpt>
      <trkpt lat="45.63448" lon="6.76132">
        <ele>1367.5999755859</ele>
        <time>2020-01-08T13:21:27.000Z</time>
      </trkpt>
      <trkpt lat="45.63437" lon="6.76152">
        <ele>1366.4000244141</ele>
        <time>2020-01-08T13:21:31.000Z</time>
      </trkpt>
      <trkpt lat="45.63434" lon="6.76156">
        <ele>1366</ele>
        <time>2020-01-08T13:21:32.000Z</time>
      </trkpt>
      <trkpt lat="45.63431" lon="6.7616">
        <ele>1365</ele>
        <time>2020-01-08T13:21:34.000Z</time>
      </trkpt>
      <trkpt lat="45.6343" lon="6.76163">
        <ele>1364.4000244141</ele>
        <time>2020-01-08T13:21:36.000Z</time>
      </trkpt>
      <trkpt lat="45.6343" lon="6.76163">
        <ele>1364.1999511719</ele>
        <time>2020-01-08T13:21:37.000Z</time>
      </trkpt>
      <trkpt lat="45.6343" lon="6.76163">
        <ele>1364</ele>
        <time>2020-01-08T13:21:40.000Z</time>
      </trkpt>
      <trkpt lat="45.6343" lon="6.76163">
        <ele>1364</ele>
        <time>2020-01-08T13:21:42.000Z</time>
      </trkpt>
      <trkpt lat="45.63427" lon="6.76168">
        <ele>1363.8000488281</ele>
        <time>2020-01-08T13:21:49.000Z</time>
      </trkpt>
      <trkpt lat="45.63417" lon="6.76182">
        <ele>1363.4000244141</ele>
        <time>2020-01-08T13:21:54.000Z</time>
      </trkpt>
      <trkpt lat="45.63411" lon="6.76191">
        <ele>1363</ele>
        <time>2020-01-08T13:21:58.000Z</time>
      </trkpt>
      <trkpt lat="45.63406" lon="6.76196">
        <ele>1362.4000244141</ele>
        <time>2020-01-08T13:22:03.000Z</time>
      </trkpt>
      <trkpt lat="45.63402" lon="6.76199">
        <ele>1362.1999511719</ele>
        <time>2020-01-08T13:22:06.000Z</time>
      </trkpt>
      <trkpt lat="45.63393" lon="6.76202">
        <ele>1362</ele>
        <time>2020-01-08T13:22:11.000Z</time>
      </trkpt>
      <trkpt lat="45.63391" lon="6.76203">
        <ele>1362</ele>
        <time>2020-01-08T13:22:12.000Z</time>
      </trkpt>
      <trkpt lat="45.63382" lon="6.76215">
        <ele>1361.8000488281</ele>
        <time>2020-01-08T13:22:16.000Z</time>
      </trkpt>
      <trkpt lat="45.63373" lon="6.76244">
        <ele>1361.4000244141</ele>
        <time>2020-01-08T13:22:22.000Z</time>
      </trkpt>
      <trkpt lat="45.63365" lon="6.76269">
        <ele>1361.1999511719</ele>
        <time>2020-01-08T13:22:29.000Z</time>
      </trkpt>
      <trkpt lat="45.63355" lon="6.76285">
        <ele>1361.4000244141</ele>
        <time>2020-01-08T13:22:36.000Z</time>
      </trkpt>
      <trkpt lat="45.63348" lon="6.76294">
        <ele>1361.5999755859</ele>
        <time>2020-01-08T13:22:42.000Z</time>
      </trkpt>
      <trkpt lat="45.63346" lon="6.76297">
        <ele>1361.5999755859</ele>
        <time>2020-01-08T13:22:44.000Z</time>
      </trkpt>
      <trkpt lat="45.63343" lon="6.76303">
        <ele>1361.5999755859</ele>
        <time>2020-01-08T13:22:47.000Z</time>
      </trkpt>
      <trkpt lat="45.63338" lon="6.76311">
        <ele>1361.5999755859</ele>
        <time>2020-01-08T13:22:51.000Z</time>
      </trkpt>
      <trkpt lat="45.63337" lon="6.76313">
        <ele>1361.5999755859</ele>
        <time>2020-01-08T13:22:52.000Z</time>
      </trkpt>
      <trkpt lat="45.63326" lon="6.76329">
        <ele>1361.5999755859</ele>
        <time>2020-01-08T13:22:59.000Z</time>
      </trkpt>
      <trkpt lat="45.63315" lon="6.76347">
        <ele>1361.1999511719</ele>
        <time>2020-01-08T13:23:07.000Z</time>
      </trkpt>
      <trkpt lat="45.63315" lon="6.76348">
        <ele>1361</ele>
        <time>2020-01-08T13:23:10.000Z</time>
      </trkpt>
      <trkpt lat="45.63315" lon="6.76348">
        <ele>1360.5999755859</ele>
        <time>2020-01-08T13:23:12.000Z</time>
      </trkpt>
      <trkpt lat="45.63315" lon="6.76348">
        <ele>1360.5999755859</ele>
        <time>2020-01-08T13:23:25.000Z</time>
      </trkpt>
      <trkpt lat="45.63315" lon="6.76348">
        <ele>1360.8000488281</ele>
        <time>2020-01-08T13:23:39.000Z</time>
      </trkpt>
      <trkpt lat="45.63315" lon="6.76348">
        <ele>1360.8000488281</ele>
        <time>2020-01-08T13:23:50.000Z</time>
      </trkpt>
      <trkpt lat="45.63315" lon="6.76348">
        <ele>1360.4000244141</ele>
        <time>2020-01-08T13:24:01.000Z</time>
      </trkpt>
      <trkpt lat="45.63315" lon="6.76349">
        <ele>1361</ele>
        <time>2020-01-08T13:24:11.000Z</time>
      </trkpt>
      <trkpt lat="45.63315" lon="6.76351">
        <ele>1360.5999755859</ele>
        <time>2020-01-08T13:24:17.000Z</time>
      </trkpt>
      <trkpt lat="45.63316" lon="6.76352">
        <ele>1361.1999511719</ele>
        <time>2020-01-08T13:24:23.000Z</time>
      </trkpt>
      <trkpt lat="45.63314" lon="6.76353">
        <ele>1361</ele>
        <time>2020-01-08T13:24:29.000Z</time>
      </trkpt>
      <trkpt lat="45.63313" lon="6.76354">
        <ele>1361</ele>
        <time>2020-01-08T13:24:30.000Z</time>
      </trkpt>
      <trkpt lat="45.63312" lon="6.76357">
        <ele>1360</ele>
        <time>2020-01-08T13:24:35.000Z</time>
      </trkpt>
      <trkpt lat="45.63311" lon="6.76358">
        <ele>1359.8000488281</ele>
        <time>2020-01-08T13:24:36.000Z</time>
      </trkpt>
      <trkpt lat="45.63309" lon="6.76362">
        <ele>1359.4000244141</ele>
        <time>2020-01-08T13:24:41.000Z</time>
      </trkpt>
      <trkpt lat="45.63309" lon="6.76363">
        <ele>1359.1999511719</ele>
        <time>2020-01-08T13:24:46.000Z</time>
      </trkpt>
      <trkpt lat="45.63309" lon="6.76363">
        <ele>1359.1999511719</ele>
        <time>2020-01-08T13:24:58.000Z</time>
      </trkpt>
      <trkpt lat="45.63309" lon="6.76363">
        <ele>1359.1999511719</ele>
        <time>2020-01-08T13:25:06.000Z</time>
      </trkpt>
      <trkpt lat="45.63309" lon="6.76363">
        <ele>1359</ele>
        <time>2020-01-08T13:25:15.000Z</time>
      </trkpt>
      <trkpt lat="45.63309" lon="6.76363">
        <ele>1359.1999511719</ele>
        <time>2020-01-08T13:25:26.000Z</time>
      </trkpt>
      <trkpt lat="45.63308" lon="6.76363">
        <ele>1359.1999511719</ele>
        <time>2020-01-08T13:25:33.000Z</time>
      </trkpt>
      <trkpt lat="45.63308" lon="6.76363">
        <ele>1359</ele>
        <time>2020-01-08T13:25:43.000Z</time>
      </trkpt>
      <trkpt lat="45.63308" lon="6.76363">
        <ele>1358.8000488281</ele>
        <time>2020-01-08T13:25:48.000Z</time>
      </trkpt>
      <trkpt lat="45.63308" lon="6.76363">
        <ele>1359.1999511719</ele>
        <time>2020-01-08T13:25:54.000Z</time>
      </trkpt>
      <trkpt lat="45.63308" lon="6.76363">
        <ele>1359</ele>
        <time>2020-01-08T13:26:10.000Z</time>
      </trkpt>
      <trkpt lat="45.63308" lon="6.76363">
        <ele>1359</ele>
        <time>2020-01-08T13:26:18.000Z</time>
      </trkpt>
      <trkpt lat="45.63308" lon="6.76363">
        <ele>1359.1999511719</ele>
        <time>2020-01-08T13:26:36.000Z</time>
      </trkpt>
    </trkseg>
  </trk>
</gpx>